<?xml version="1.0" encoding="UTF-8" standalone="no" ?>
<gpx xmlns="http://www.topografix.com/GPX/1/1" xmlns:xsi="http://www.w3.org/2001/XMLSchema-instance" xsi:schemaLocation="http://www.topografix.com/GPX/1/1 http://www.topografix.com/GPX/1/1/gpx.xsd" version="1.1" creator="VisuGPX - https://www.visugpx.com">
  <metadata>
    <name>gorilles dans la brume</name>
    <desc><![CDATA[Sortie plus courte pour l'hiver. ]]></desc>
  </metadata>
  <trk>
    <name><![CDATA[18 Rue Antoine Coysevox]]></name>
    <desc><![CDATA[]]></desc>
    <trkseg>
      <trkpt lat="47.51741" lon="6.77446">
        <ele>388</ele>
        <time>2016-12-18T08:13:11.623Z</time>
      </trkpt>
      <trkpt lat="47.51796" lon="6.77447">
        <ele>388</ele>
        <time>2016-12-18T08:13:12.695Z</time>
      </trkpt>
      <trkpt lat="47.51799" lon="6.77445">
        <ele>388</ele>
        <time>2016-12-18T08:13:13.695Z</time>
      </trkpt>
      <trkpt lat="47.51809" lon="6.7745">
        <ele>387</ele>
        <time>2016-12-18T08:13:14.715Z</time>
      </trkpt>
      <trkpt lat="47.51809" lon="6.77451">
        <ele>387</ele>
        <time>2016-12-18T08:18:11.000Z</time>
      </trkpt>
      <trkpt lat="47.51801" lon="6.77477">
        <ele>388</ele>
        <time>2016-12-18T08:18:12.000Z</time>
      </trkpt>
      <trkpt lat="47.51803" lon="6.77482">
        <ele>388</ele>
        <time>2016-12-18T08:18:57.999Z</time>
      </trkpt>
      <trkpt lat="47.51804" lon="6.77485">
        <ele>388</ele>
        <time>2016-12-18T08:18:58.999Z</time>
      </trkpt>
      <trkpt lat="47.51806" lon="6.77488">
        <ele>388</ele>
        <time>2016-12-18T08:18:59.999Z</time>
      </trkpt>
      <trkpt lat="47.51807" lon="6.77491">
        <ele>388</ele>
        <time>2016-12-18T08:19:00.999Z</time>
      </trkpt>
      <trkpt lat="47.51806" lon="6.77495">
        <ele>388</ele>
        <time>2016-12-18T08:19:02.999Z</time>
      </trkpt>
      <trkpt lat="47.51803" lon="6.77497">
        <ele>388</ele>
        <time>2016-12-18T08:19:03.999Z</time>
      </trkpt>
      <trkpt lat="47.518" lon="6.77495">
        <ele>388</ele>
        <time>2016-12-18T08:19:04.999Z</time>
      </trkpt>
      <trkpt lat="47.51797" lon="6.77494">
        <ele>388</ele>
        <time>2016-12-18T08:19:05.999Z</time>
      </trkpt>
      <trkpt lat="47.51793" lon="6.77493">
        <ele>388</ele>
        <time>2016-12-18T08:19:06.999Z</time>
      </trkpt>
      <trkpt lat="47.51788" lon="6.77491">
        <ele>388</ele>
        <time>2016-12-18T08:19:07.999Z</time>
      </trkpt>
      <trkpt lat="47.51785" lon="6.77489">
        <ele>388</ele>
        <time>2016-12-18T08:19:08.999Z</time>
      </trkpt>
      <trkpt lat="47.51782" lon="6.77488">
        <ele>388</ele>
        <time>2016-12-18T08:19:09.999Z</time>
      </trkpt>
      <trkpt lat="47.51779" lon="6.77487">
        <ele>388</ele>
        <time>2016-12-18T08:19:10.999Z</time>
      </trkpt>
      <trkpt lat="47.51775" lon="6.77486">
        <ele>388</ele>
        <time>2016-12-18T08:19:11.999Z</time>
      </trkpt>
      <trkpt lat="47.51771" lon="6.77485">
        <ele>389</ele>
        <time>2016-12-18T08:19:12.999Z</time>
      </trkpt>
      <trkpt lat="47.51767" lon="6.77485">
        <ele>389</ele>
        <time>2016-12-18T08:19:13.999Z</time>
      </trkpt>
      <trkpt lat="47.51763" lon="6.77485">
        <ele>389</ele>
        <time>2016-12-18T08:19:14.999Z</time>
      </trkpt>
      <trkpt lat="47.5176" lon="6.77483">
        <ele>389</ele>
        <time>2016-12-18T08:19:15.999Z</time>
      </trkpt>
      <trkpt lat="47.51756" lon="6.77482">
        <ele>389</ele>
        <time>2016-12-18T08:19:16.999Z</time>
      </trkpt>
      <trkpt lat="47.51752" lon="6.77482">
        <ele>389</ele>
        <time>2016-12-18T08:19:17.999Z</time>
      </trkpt>
      <trkpt lat="47.51748" lon="6.7748">
        <ele>389</ele>
        <time>2016-12-18T08:19:18.999Z</time>
      </trkpt>
      <trkpt lat="47.51743" lon="6.77479">
        <ele>389</ele>
        <time>2016-12-18T08:19:19.999Z</time>
      </trkpt>
      <trkpt lat="47.51739" lon="6.77478">
        <ele>389</ele>
        <time>2016-12-18T08:19:20.999Z</time>
      </trkpt>
      <trkpt lat="47.51735" lon="6.77479">
        <ele>389</ele>
        <time>2016-12-18T08:19:21.999Z</time>
      </trkpt>
      <trkpt lat="47.51732" lon="6.77482">
        <ele>389</ele>
        <time>2016-12-18T08:19:22.999Z</time>
      </trkpt>
      <trkpt lat="47.51731" lon="6.77487">
        <ele>389</ele>
        <time>2016-12-18T08:19:23.999Z</time>
      </trkpt>
      <trkpt lat="47.5173" lon="6.77492">
        <ele>389</ele>
        <time>2016-12-18T08:19:24.999Z</time>
      </trkpt>
      <trkpt lat="47.51729" lon="6.77497">
        <ele>389</ele>
        <time>2016-12-18T08:19:25.999Z</time>
      </trkpt>
      <trkpt lat="47.51726" lon="6.77503">
        <ele>390</ele>
        <time>2016-12-18T08:19:26.999Z</time>
      </trkpt>
      <trkpt lat="47.51724" lon="6.77508">
        <ele>390</ele>
        <time>2016-12-18T08:19:27.999Z</time>
      </trkpt>
      <trkpt lat="47.51723" lon="6.77513">
        <ele>390</ele>
        <time>2016-12-18T08:19:28.999Z</time>
      </trkpt>
      <trkpt lat="47.51721" lon="6.77519">
        <ele>390</ele>
        <time>2016-12-18T08:19:29.999Z</time>
      </trkpt>
      <trkpt lat="47.51719" lon="6.77524">
        <ele>390</ele>
        <time>2016-12-18T08:19:30.999Z</time>
      </trkpt>
      <trkpt lat="47.51717" lon="6.77529">
        <ele>390</ele>
        <time>2016-12-18T08:19:31.999Z</time>
      </trkpt>
      <trkpt lat="47.51715" lon="6.77535">
        <ele>390</ele>
        <time>2016-12-18T08:19:32.999Z</time>
      </trkpt>
      <trkpt lat="47.51714" lon="6.7754">
        <ele>390</ele>
        <time>2016-12-18T08:19:33.999Z</time>
      </trkpt>
      <trkpt lat="47.51713" lon="6.77543">
        <ele>390</ele>
        <time>2016-12-18T08:19:34.999Z</time>
      </trkpt>
      <trkpt lat="47.51711" lon="6.77547">
        <ele>390</ele>
        <time>2016-12-18T08:19:35.999Z</time>
      </trkpt>
      <trkpt lat="47.51708" lon="6.77548">
        <ele>390</ele>
        <time>2016-12-18T08:19:36.999Z</time>
      </trkpt>
      <trkpt lat="47.51704" lon="6.77549">
        <ele>390</ele>
        <time>2016-12-18T08:19:37.999Z</time>
      </trkpt>
      <trkpt lat="47.517" lon="6.77549">
        <ele>390</ele>
        <time>2016-12-18T08:19:38.999Z</time>
      </trkpt>
      <trkpt lat="47.51697" lon="6.77548">
        <ele>390</ele>
        <time>2016-12-18T08:19:39.999Z</time>
      </trkpt>
      <trkpt lat="47.51694" lon="6.77545">
        <ele>390</ele>
        <time>2016-12-18T08:19:40.999Z</time>
      </trkpt>
      <trkpt lat="47.51689" lon="6.77541">
        <ele>390</ele>
        <time>2016-12-18T08:19:41.999Z</time>
      </trkpt>
      <trkpt lat="47.51685" lon="6.77536">
        <ele>390</ele>
        <time>2016-12-18T08:19:42.999Z</time>
      </trkpt>
      <trkpt lat="47.5168" lon="6.77531">
        <ele>390</ele>
        <time>2016-12-18T08:19:43.999Z</time>
      </trkpt>
      <trkpt lat="47.51675" lon="6.77525">
        <ele>390</ele>
        <time>2016-12-18T08:19:44.999Z</time>
      </trkpt>
      <trkpt lat="47.5167" lon="6.77518">
        <ele>389</ele>
        <time>2016-12-18T08:19:45.999Z</time>
      </trkpt>
      <trkpt lat="47.51666" lon="6.77513">
        <ele>388</ele>
        <time>2016-12-18T08:19:46.999Z</time>
      </trkpt>
      <trkpt lat="47.51661" lon="6.77507">
        <ele>388</ele>
        <time>2016-12-18T08:19:47.999Z</time>
      </trkpt>
      <trkpt lat="47.51658" lon="6.77501">
        <ele>388</ele>
        <time>2016-12-18T08:19:48.999Z</time>
      </trkpt>
      <trkpt lat="47.51654" lon="6.77495">
        <ele>388</ele>
        <time>2016-12-18T08:19:49.999Z</time>
      </trkpt>
      <trkpt lat="47.5165" lon="6.77489">
        <ele>387</ele>
        <time>2016-12-18T08:19:50.999Z</time>
      </trkpt>
      <trkpt lat="47.51645" lon="6.77483">
        <ele>387</ele>
        <time>2016-12-18T08:19:51.999Z</time>
      </trkpt>
      <trkpt lat="47.5164" lon="6.77477">
        <ele>386</ele>
        <time>2016-12-18T08:19:52.999Z</time>
      </trkpt>
      <trkpt lat="47.51635" lon="6.7747">
        <ele>386</ele>
        <time>2016-12-18T08:19:53.999Z</time>
      </trkpt>
      <trkpt lat="47.51631" lon="6.77464">
        <ele>386</ele>
        <time>2016-12-18T08:19:54.999Z</time>
      </trkpt>
      <trkpt lat="47.51626" lon="6.77459">
        <ele>386</ele>
        <time>2016-12-18T08:19:55.999Z</time>
      </trkpt>
      <trkpt lat="47.51621" lon="6.77452">
        <ele>386</ele>
        <time>2016-12-18T08:19:56.999Z</time>
      </trkpt>
      <trkpt lat="47.51616" lon="6.77447">
        <ele>385</ele>
        <time>2016-12-18T08:19:57.999Z</time>
      </trkpt>
      <trkpt lat="47.51612" lon="6.7744">
        <ele>385</ele>
        <time>2016-12-18T08:19:58.999Z</time>
      </trkpt>
      <trkpt lat="47.51606" lon="6.77434">
        <ele>385</ele>
        <time>2016-12-18T08:19:59.999Z</time>
      </trkpt>
      <trkpt lat="47.51601" lon="6.77427">
        <ele>385</ele>
        <time>2016-12-18T08:20:00.999Z</time>
      </trkpt>
      <trkpt lat="47.51596" lon="6.77421">
        <ele>384</ele>
        <time>2016-12-18T08:20:01.999Z</time>
      </trkpt>
      <trkpt lat="47.5159" lon="6.77414">
        <ele>383</ele>
        <time>2016-12-18T08:20:02.999Z</time>
      </trkpt>
      <trkpt lat="47.51585" lon="6.77407">
        <ele>383</ele>
        <time>2016-12-18T08:20:03.999Z</time>
      </trkpt>
      <trkpt lat="47.5158" lon="6.77401">
        <ele>382</ele>
        <time>2016-12-18T08:20:04.999Z</time>
      </trkpt>
      <trkpt lat="47.51574" lon="6.77394">
        <ele>381</ele>
        <time>2016-12-18T08:20:05.999Z</time>
      </trkpt>
      <trkpt lat="47.51568" lon="6.77387">
        <ele>381</ele>
        <time>2016-12-18T08:20:06.999Z</time>
      </trkpt>
      <trkpt lat="47.51562" lon="6.7738">
        <ele>381</ele>
        <time>2016-12-18T08:20:07.999Z</time>
      </trkpt>
      <trkpt lat="47.51555" lon="6.77374">
        <ele>381</ele>
        <time>2016-12-18T08:20:08.999Z</time>
      </trkpt>
      <trkpt lat="47.51548" lon="6.77367">
        <ele>381</ele>
        <time>2016-12-18T08:20:09.999Z</time>
      </trkpt>
      <trkpt lat="47.51541" lon="6.7736">
        <ele>380</ele>
        <time>2016-12-18T08:20:10.999Z</time>
      </trkpt>
      <trkpt lat="47.51535" lon="6.77352">
        <ele>380</ele>
        <time>2016-12-18T08:20:11.999Z</time>
      </trkpt>
      <trkpt lat="47.51528" lon="6.77345">
        <ele>380</ele>
        <time>2016-12-18T08:20:12.999Z</time>
      </trkpt>
      <trkpt lat="47.51523" lon="6.77338">
        <ele>380</ele>
        <time>2016-12-18T08:20:13.999Z</time>
      </trkpt>
      <trkpt lat="47.51517" lon="6.77331">
        <ele>378</ele>
        <time>2016-12-18T08:20:14.999Z</time>
      </trkpt>
      <trkpt lat="47.51511" lon="6.77324">
        <ele>378</ele>
        <time>2016-12-18T08:20:15.999Z</time>
      </trkpt>
      <trkpt lat="47.51505" lon="6.77316">
        <ele>378</ele>
        <time>2016-12-18T08:20:16.999Z</time>
      </trkpt>
      <trkpt lat="47.515" lon="6.77306">
        <ele>378</ele>
        <time>2016-12-18T08:20:17.999Z</time>
      </trkpt>
      <trkpt lat="47.51494" lon="6.77294">
        <ele>377</ele>
        <time>2016-12-18T08:20:18.999Z</time>
      </trkpt>
      <trkpt lat="47.51492" lon="6.77282">
        <ele>377</ele>
        <time>2016-12-18T08:20:19.999Z</time>
      </trkpt>
      <trkpt lat="47.51489" lon="6.77271">
        <ele>377</ele>
        <time>2016-12-18T08:20:20.999Z</time>
      </trkpt>
      <trkpt lat="47.51488" lon="6.7726">
        <ele>376</ele>
        <time>2016-12-18T08:20:21.999Z</time>
      </trkpt>
      <trkpt lat="47.51486" lon="6.77248">
        <ele>376</ele>
        <time>2016-12-18T08:20:22.999Z</time>
      </trkpt>
      <trkpt lat="47.51486" lon="6.77238">
        <ele>375</ele>
        <time>2016-12-18T08:20:23.999Z</time>
      </trkpt>
      <trkpt lat="47.51485" lon="6.77229">
        <ele>375</ele>
        <time>2016-12-18T08:20:24.999Z</time>
      </trkpt>
      <trkpt lat="47.51485" lon="6.77221">
        <ele>375</ele>
        <time>2016-12-18T08:20:25.999Z</time>
      </trkpt>
      <trkpt lat="47.51482" lon="6.77214">
        <ele>375</ele>
        <time>2016-12-18T08:20:26.999Z</time>
      </trkpt>
      <trkpt lat="47.51479" lon="6.77209">
        <ele>375</ele>
        <time>2016-12-18T08:20:27.999Z</time>
      </trkpt>
      <trkpt lat="47.51474" lon="6.77204">
        <ele>375</ele>
        <time>2016-12-18T08:20:28.999Z</time>
      </trkpt>
      <trkpt lat="47.51468" lon="6.77203">
        <ele>375</ele>
        <time>2016-12-18T08:20:29.999Z</time>
      </trkpt>
      <trkpt lat="47.5146" lon="6.77203">
        <ele>375</ele>
        <time>2016-12-18T08:20:30.999Z</time>
      </trkpt>
      <trkpt lat="47.51453" lon="6.77205">
        <ele>375</ele>
        <time>2016-12-18T08:20:31.999Z</time>
      </trkpt>
      <trkpt lat="47.51446" lon="6.77206">
        <ele>375</ele>
        <time>2016-12-18T08:20:32.999Z</time>
      </trkpt>
      <trkpt lat="47.51438" lon="6.77209">
        <ele>375</ele>
        <time>2016-12-18T08:20:33.999Z</time>
      </trkpt>
      <trkpt lat="47.51431" lon="6.77212">
        <ele>375</ele>
        <time>2016-12-18T08:20:34.999Z</time>
      </trkpt>
      <trkpt lat="47.51425" lon="6.77215">
        <ele>375</ele>
        <time>2016-12-18T08:20:35.999Z</time>
      </trkpt>
      <trkpt lat="47.51419" lon="6.77218">
        <ele>375</ele>
        <time>2016-12-18T08:20:36.999Z</time>
      </trkpt>
      <trkpt lat="47.51412" lon="6.77221">
        <ele>376</ele>
        <time>2016-12-18T08:20:37.999Z</time>
      </trkpt>
      <trkpt lat="47.51407" lon="6.77224">
        <ele>376</ele>
        <time>2016-12-18T08:20:38.999Z</time>
      </trkpt>
      <trkpt lat="47.51401" lon="6.77228">
        <ele>376</ele>
        <time>2016-12-18T08:20:39.999Z</time>
      </trkpt>
      <trkpt lat="47.51396" lon="6.77232">
        <ele>376</ele>
        <time>2016-12-18T08:20:40.999Z</time>
      </trkpt>
      <trkpt lat="47.51391" lon="6.77235">
        <ele>376</ele>
        <time>2016-12-18T08:20:41.999Z</time>
      </trkpt>
      <trkpt lat="47.51386" lon="6.77239">
        <ele>376</ele>
        <time>2016-12-18T08:20:42.999Z</time>
      </trkpt>
      <trkpt lat="47.51382" lon="6.77242">
        <ele>376</ele>
        <time>2016-12-18T08:20:43.999Z</time>
      </trkpt>
      <trkpt lat="47.51378" lon="6.77244">
        <ele>376</ele>
        <time>2016-12-18T08:20:44.999Z</time>
      </trkpt>
      <trkpt lat="47.51373" lon="6.77248">
        <ele>376</ele>
        <time>2016-12-18T08:20:45.999Z</time>
      </trkpt>
      <trkpt lat="47.51369" lon="6.77251">
        <ele>377</ele>
        <time>2016-12-18T08:20:46.999Z</time>
      </trkpt>
      <trkpt lat="47.51365" lon="6.77255">
        <ele>378</ele>
        <time>2016-12-18T08:20:47.999Z</time>
      </trkpt>
      <trkpt lat="47.51361" lon="6.77257">
        <ele>378</ele>
        <time>2016-12-18T08:20:48.999Z</time>
      </trkpt>
      <trkpt lat="47.51358" lon="6.7726">
        <ele>378</ele>
        <time>2016-12-18T08:20:49.999Z</time>
      </trkpt>
      <trkpt lat="47.51355" lon="6.77262">
        <ele>378</ele>
        <time>2016-12-18T08:20:50.999Z</time>
      </trkpt>
      <trkpt lat="47.51353" lon="6.77265">
        <ele>378</ele>
        <time>2016-12-18T08:20:51.999Z</time>
      </trkpt>
      <trkpt lat="47.51351" lon="6.77268">
        <ele>378</ele>
        <time>2016-12-18T08:20:52.999Z</time>
      </trkpt>
      <trkpt lat="47.51348" lon="6.7727">
        <ele>378</ele>
        <time>2016-12-18T08:20:53.999Z</time>
      </trkpt>
      <trkpt lat="47.51344" lon="6.77273">
        <ele>378</ele>
        <time>2016-12-18T08:20:54.999Z</time>
      </trkpt>
      <trkpt lat="47.51342" lon="6.77275">
        <ele>378</ele>
        <time>2016-12-18T08:20:55.999Z</time>
      </trkpt>
      <trkpt lat="47.51339" lon="6.77278">
        <ele>378</ele>
        <time>2016-12-18T08:20:56.999Z</time>
      </trkpt>
      <trkpt lat="47.51335" lon="6.7728">
        <ele>378</ele>
        <time>2016-12-18T08:20:57.999Z</time>
      </trkpt>
      <trkpt lat="47.51331" lon="6.77282">
        <ele>378</ele>
        <time>2016-12-18T08:20:58.999Z</time>
      </trkpt>
      <trkpt lat="47.51328" lon="6.77283">
        <ele>377</ele>
        <time>2016-12-18T08:20:59.999Z</time>
      </trkpt>
      <trkpt lat="47.51325" lon="6.77284">
        <ele>377</ele>
        <time>2016-12-18T08:21:00.999Z</time>
      </trkpt>
      <trkpt lat="47.51322" lon="6.77284">
        <ele>377</ele>
        <time>2016-12-18T08:21:01.999Z</time>
      </trkpt>
      <trkpt lat="47.51319" lon="6.77284">
        <ele>377</ele>
        <time>2016-12-18T08:21:02.999Z</time>
      </trkpt>
      <trkpt lat="47.51315" lon="6.77283">
        <ele>377</ele>
        <time>2016-12-18T08:21:03.999Z</time>
      </trkpt>
      <trkpt lat="47.51312" lon="6.77281">
        <ele>377</ele>
        <time>2016-12-18T08:21:04.999Z</time>
      </trkpt>
      <trkpt lat="47.51309" lon="6.77281">
        <ele>377</ele>
        <time>2016-12-18T08:21:05.999Z</time>
      </trkpt>
      <trkpt lat="47.51305" lon="6.77279">
        <ele>377</ele>
        <time>2016-12-18T08:21:06.999Z</time>
      </trkpt>
      <trkpt lat="47.51301" lon="6.77279">
        <ele>377</ele>
        <time>2016-12-18T08:21:07.999Z</time>
      </trkpt>
      <trkpt lat="47.51298" lon="6.77277">
        <ele>377</ele>
        <time>2016-12-18T08:21:08.999Z</time>
      </trkpt>
      <trkpt lat="47.51294" lon="6.77276">
        <ele>377</ele>
        <time>2016-12-18T08:21:09.999Z</time>
      </trkpt>
      <trkpt lat="47.51292" lon="6.77274">
        <ele>377</ele>
        <time>2016-12-18T08:21:10.999Z</time>
      </trkpt>
      <trkpt lat="47.51288" lon="6.77272">
        <ele>377</ele>
        <time>2016-12-18T08:21:11.999Z</time>
      </trkpt>
      <trkpt lat="47.51286" lon="6.7727">
        <ele>377</ele>
        <time>2016-12-18T08:21:12.999Z</time>
      </trkpt>
      <trkpt lat="47.51282" lon="6.77268">
        <ele>377</ele>
        <time>2016-12-18T08:21:13.999Z</time>
      </trkpt>
      <trkpt lat="47.51277" lon="6.77265">
        <ele>377</ele>
        <time>2016-12-18T08:21:14.999Z</time>
      </trkpt>
      <trkpt lat="47.51274" lon="6.77264">
        <ele>377</ele>
        <time>2016-12-18T08:21:15.999Z</time>
      </trkpt>
      <trkpt lat="47.5127" lon="6.77261">
        <ele>377</ele>
        <time>2016-12-18T08:21:16.999Z</time>
      </trkpt>
      <trkpt lat="47.51266" lon="6.77259">
        <ele>378</ele>
        <time>2016-12-18T08:21:17.999Z</time>
      </trkpt>
      <trkpt lat="47.51262" lon="6.77254">
        <ele>378</ele>
        <time>2016-12-18T08:21:18.999Z</time>
      </trkpt>
      <trkpt lat="47.5126" lon="6.77251">
        <ele>378</ele>
        <time>2016-12-18T08:21:19.999Z</time>
      </trkpt>
      <trkpt lat="47.51259" lon="6.77248">
        <ele>379</ele>
        <time>2016-12-18T08:21:20.999Z</time>
      </trkpt>
      <trkpt lat="47.51258" lon="6.77245">
        <ele>379</ele>
        <time>2016-12-18T08:21:21.999Z</time>
      </trkpt>
      <trkpt lat="47.51254" lon="6.7724">
        <ele>379</ele>
        <time>2016-12-18T08:21:22.999Z</time>
      </trkpt>
      <trkpt lat="47.51251" lon="6.77234">
        <ele>378</ele>
        <time>2016-12-18T08:21:23.999Z</time>
      </trkpt>
      <trkpt lat="47.51248" lon="6.77227">
        <ele>377</ele>
        <time>2016-12-18T08:21:24.999Z</time>
      </trkpt>
      <trkpt lat="47.51244" lon="6.77221">
        <ele>376</ele>
        <time>2016-12-18T08:21:25.999Z</time>
      </trkpt>
      <trkpt lat="47.51241" lon="6.77215">
        <ele>376</ele>
        <time>2016-12-18T08:21:26.999Z</time>
      </trkpt>
      <trkpt lat="47.51238" lon="6.7721">
        <ele>376</ele>
        <time>2016-12-18T08:21:27.999Z</time>
      </trkpt>
      <trkpt lat="47.51235" lon="6.77203">
        <ele>376</ele>
        <time>2016-12-18T08:21:28.999Z</time>
      </trkpt>
      <trkpt lat="47.51231" lon="6.77196">
        <ele>376</ele>
        <time>2016-12-18T08:21:29.999Z</time>
      </trkpt>
      <trkpt lat="47.51228" lon="6.7719">
        <ele>376</ele>
        <time>2016-12-18T08:21:30.999Z</time>
      </trkpt>
      <trkpt lat="47.51225" lon="6.77183">
        <ele>376</ele>
        <time>2016-12-18T08:21:31.999Z</time>
      </trkpt>
      <trkpt lat="47.51221" lon="6.77176">
        <ele>376</ele>
        <time>2016-12-18T08:21:32.999Z</time>
      </trkpt>
      <trkpt lat="47.51218" lon="6.77168">
        <ele>376</ele>
        <time>2016-12-18T08:21:33.999Z</time>
      </trkpt>
      <trkpt lat="47.51214" lon="6.7716">
        <ele>378</ele>
        <time>2016-12-18T08:21:34.999Z</time>
      </trkpt>
      <trkpt lat="47.5121" lon="6.77152">
        <ele>378</ele>
        <time>2016-12-18T08:21:35.999Z</time>
      </trkpt>
      <trkpt lat="47.51206" lon="6.77145">
        <ele>378</ele>
        <time>2016-12-18T08:21:36.999Z</time>
      </trkpt>
      <trkpt lat="47.51202" lon="6.77137">
        <ele>378</ele>
        <time>2016-12-18T08:21:37.999Z</time>
      </trkpt>
      <trkpt lat="47.51198" lon="6.7713">
        <ele>378</ele>
        <time>2016-12-18T08:21:38.999Z</time>
      </trkpt>
      <trkpt lat="47.51194" lon="6.77121">
        <ele>378</ele>
        <time>2016-12-18T08:21:39.999Z</time>
      </trkpt>
      <trkpt lat="47.51189" lon="6.77113">
        <ele>378</ele>
        <time>2016-12-18T08:21:40.999Z</time>
      </trkpt>
      <trkpt lat="47.51185" lon="6.77106">
        <ele>378</ele>
        <time>2016-12-18T08:21:41.999Z</time>
      </trkpt>
      <trkpt lat="47.51181" lon="6.77098">
        <ele>378</ele>
        <time>2016-12-18T08:21:42.999Z</time>
      </trkpt>
      <trkpt lat="47.51177" lon="6.77091">
        <ele>378</ele>
        <time>2016-12-18T08:21:43.999Z</time>
      </trkpt>
      <trkpt lat="47.51173" lon="6.77083">
        <ele>377</ele>
        <time>2016-12-18T08:21:44.999Z</time>
      </trkpt>
      <trkpt lat="47.51168" lon="6.77075">
        <ele>377</ele>
        <time>2016-12-18T08:21:45.999Z</time>
      </trkpt>
      <trkpt lat="47.51164" lon="6.77068">
        <ele>377</ele>
        <time>2016-12-18T08:21:46.999Z</time>
      </trkpt>
      <trkpt lat="47.51159" lon="6.77061">
        <ele>376</ele>
        <time>2016-12-18T08:21:47.999Z</time>
      </trkpt>
      <trkpt lat="47.51154" lon="6.77057">
        <ele>376</ele>
        <time>2016-12-18T08:21:48.999Z</time>
      </trkpt>
      <trkpt lat="47.51148" lon="6.77053">
        <ele>376</ele>
        <time>2016-12-18T08:21:49.999Z</time>
      </trkpt>
      <trkpt lat="47.51143" lon="6.77049">
        <ele>376</ele>
        <time>2016-12-18T08:21:50.999Z</time>
      </trkpt>
      <trkpt lat="47.51138" lon="6.77044">
        <ele>375</ele>
        <time>2016-12-18T08:21:51.999Z</time>
      </trkpt>
      <trkpt lat="47.51132" lon="6.77039">
        <ele>375</ele>
        <time>2016-12-18T08:21:52.999Z</time>
      </trkpt>
      <trkpt lat="47.51126" lon="6.77035">
        <ele>375</ele>
        <time>2016-12-18T08:21:53.999Z</time>
      </trkpt>
      <trkpt lat="47.51121" lon="6.77031">
        <ele>375</ele>
        <time>2016-12-18T08:21:54.999Z</time>
      </trkpt>
      <trkpt lat="47.51117" lon="6.77028">
        <ele>375</ele>
        <time>2016-12-18T08:21:55.999Z</time>
      </trkpt>
      <trkpt lat="47.51111" lon="6.77023">
        <ele>375</ele>
        <time>2016-12-18T08:21:56.999Z</time>
      </trkpt>
      <trkpt lat="47.51105" lon="6.77018">
        <ele>375</ele>
        <time>2016-12-18T08:21:57.999Z</time>
      </trkpt>
      <trkpt lat="47.511" lon="6.77013">
        <ele>375</ele>
        <time>2016-12-18T08:21:58.999Z</time>
      </trkpt>
      <trkpt lat="47.51095" lon="6.77008">
        <ele>375</ele>
        <time>2016-12-18T08:21:59.999Z</time>
      </trkpt>
      <trkpt lat="47.5109" lon="6.77004">
        <ele>375</ele>
        <time>2016-12-18T08:22:00.999Z</time>
      </trkpt>
      <trkpt lat="47.51085" lon="6.76999">
        <ele>375</ele>
        <time>2016-12-18T08:22:01.999Z</time>
      </trkpt>
      <trkpt lat="47.51079" lon="6.76993">
        <ele>375</ele>
        <time>2016-12-18T08:22:02.999Z</time>
      </trkpt>
      <trkpt lat="47.51072" lon="6.76988">
        <ele>375</ele>
        <time>2016-12-18T08:22:03.999Z</time>
      </trkpt>
      <trkpt lat="47.51067" lon="6.76983">
        <ele>375</ele>
        <time>2016-12-18T08:22:04.999Z</time>
      </trkpt>
      <trkpt lat="47.51062" lon="6.76979">
        <ele>375</ele>
        <time>2016-12-18T08:22:05.999Z</time>
      </trkpt>
      <trkpt lat="47.51057" lon="6.76974">
        <ele>375</ele>
        <time>2016-12-18T08:22:06.999Z</time>
      </trkpt>
      <trkpt lat="47.51052" lon="6.7697">
        <ele>375</ele>
        <time>2016-12-18T08:22:07.999Z</time>
      </trkpt>
      <trkpt lat="47.51047" lon="6.76965">
        <ele>375</ele>
        <time>2016-12-18T08:22:08.999Z</time>
      </trkpt>
      <trkpt lat="47.51042" lon="6.76961">
        <ele>375</ele>
        <time>2016-12-18T08:22:09.999Z</time>
      </trkpt>
      <trkpt lat="47.51039" lon="6.76957">
        <ele>375</ele>
        <time>2016-12-18T08:22:10.999Z</time>
      </trkpt>
      <trkpt lat="47.51034" lon="6.76953">
        <ele>375</ele>
        <time>2016-12-18T08:22:11.999Z</time>
      </trkpt>
      <trkpt lat="47.5103" lon="6.76947">
        <ele>375</ele>
        <time>2016-12-18T08:22:12.999Z</time>
      </trkpt>
      <trkpt lat="47.51027" lon="6.76941">
        <ele>375</ele>
        <time>2016-12-18T08:22:13.999Z</time>
      </trkpt>
      <trkpt lat="47.51023" lon="6.76938">
        <ele>375</ele>
        <time>2016-12-18T08:22:14.999Z</time>
      </trkpt>
      <trkpt lat="47.51018" lon="6.76935">
        <ele>375</ele>
        <time>2016-12-18T08:22:15.999Z</time>
      </trkpt>
      <trkpt lat="47.51012" lon="6.76932">
        <ele>375</ele>
        <time>2016-12-18T08:22:16.999Z</time>
      </trkpt>
      <trkpt lat="47.51007" lon="6.76928">
        <ele>375</ele>
        <time>2016-12-18T08:22:17.999Z</time>
      </trkpt>
      <trkpt lat="47.51003" lon="6.76925">
        <ele>376</ele>
        <time>2016-12-18T08:22:18.999Z</time>
      </trkpt>
      <trkpt lat="47.50999" lon="6.76923">
        <ele>375</ele>
        <time>2016-12-18T08:22:19.999Z</time>
      </trkpt>
      <trkpt lat="47.50998" lon="6.76918">
        <ele>376</ele>
        <time>2016-12-18T08:22:20.999Z</time>
      </trkpt>
      <trkpt lat="47.50996" lon="6.76913">
        <ele>376</ele>
        <time>2016-12-18T08:22:21.999Z</time>
      </trkpt>
      <trkpt lat="47.50994" lon="6.76909">
        <ele>376</ele>
        <time>2016-12-18T08:22:22.999Z</time>
      </trkpt>
      <trkpt lat="47.5099" lon="6.76907">
        <ele>377</ele>
        <time>2016-12-18T08:22:23.999Z</time>
      </trkpt>
      <trkpt lat="47.50986" lon="6.76905">
        <ele>377</ele>
        <time>2016-12-18T08:22:24.999Z</time>
      </trkpt>
      <trkpt lat="47.50984" lon="6.76903">
        <ele>377</ele>
        <time>2016-12-18T08:22:25.999Z</time>
      </trkpt>
      <trkpt lat="47.5098" lon="6.76902">
        <ele>377</ele>
        <time>2016-12-18T08:22:26.999Z</time>
      </trkpt>
      <trkpt lat="47.50975" lon="6.76901">
        <ele>377</ele>
        <time>2016-12-18T08:22:27.999Z</time>
      </trkpt>
      <trkpt lat="47.50971" lon="6.76901">
        <ele>377</ele>
        <time>2016-12-18T08:22:28.999Z</time>
      </trkpt>
      <trkpt lat="47.50966" lon="6.769">
        <ele>377</ele>
        <time>2016-12-18T08:22:29.999Z</time>
      </trkpt>
      <trkpt lat="47.50962" lon="6.76899">
        <ele>377</ele>
        <time>2016-12-18T08:22:30.999Z</time>
      </trkpt>
      <trkpt lat="47.50959" lon="6.76895">
        <ele>377</ele>
        <time>2016-12-18T08:22:31.999Z</time>
      </trkpt>
      <trkpt lat="47.50956" lon="6.76892">
        <ele>377</ele>
        <time>2016-12-18T08:22:32.999Z</time>
      </trkpt>
      <trkpt lat="47.50953" lon="6.76889">
        <ele>378</ele>
        <time>2016-12-18T08:22:33.999Z</time>
      </trkpt>
      <trkpt lat="47.5095" lon="6.76886">
        <ele>378</ele>
        <time>2016-12-18T08:22:34.999Z</time>
      </trkpt>
      <trkpt lat="47.50947" lon="6.76883">
        <ele>378</ele>
        <time>2016-12-18T08:22:35.999Z</time>
      </trkpt>
      <trkpt lat="47.50945" lon="6.76881">
        <ele>378</ele>
        <time>2016-12-18T08:22:36.999Z</time>
      </trkpt>
      <trkpt lat="47.50941" lon="6.76877">
        <ele>378</ele>
        <time>2016-12-18T08:22:37.999Z</time>
      </trkpt>
      <trkpt lat="47.50939" lon="6.76874">
        <ele>378</ele>
        <time>2016-12-18T08:22:38.999Z</time>
      </trkpt>
      <trkpt lat="47.50936" lon="6.7687">
        <ele>378</ele>
        <time>2016-12-18T08:22:39.999Z</time>
      </trkpt>
      <trkpt lat="47.50932" lon="6.76864">
        <ele>378</ele>
        <time>2016-12-18T08:22:40.999Z</time>
      </trkpt>
      <trkpt lat="47.50929" lon="6.76859">
        <ele>378</ele>
        <time>2016-12-18T08:22:41.999Z</time>
      </trkpt>
      <trkpt lat="47.50926" lon="6.76853">
        <ele>379</ele>
        <time>2016-12-18T08:22:42.999Z</time>
      </trkpt>
      <trkpt lat="47.50923" lon="6.76848">
        <ele>379</ele>
        <time>2016-12-18T08:22:43.999Z</time>
      </trkpt>
      <trkpt lat="47.50921" lon="6.76844">
        <ele>379</ele>
        <time>2016-12-18T08:22:44.999Z</time>
      </trkpt>
      <trkpt lat="47.50919" lon="6.7684">
        <ele>379</ele>
        <time>2016-12-18T08:22:45.999Z</time>
      </trkpt>
      <trkpt lat="47.50917" lon="6.76835">
        <ele>380</ele>
        <time>2016-12-18T08:22:46.999Z</time>
      </trkpt>
      <trkpt lat="47.50915" lon="6.76831">
        <ele>380</ele>
        <time>2016-12-18T08:22:47.999Z</time>
      </trkpt>
      <trkpt lat="47.50914" lon="6.76827">
        <ele>380</ele>
        <time>2016-12-18T08:22:48.999Z</time>
      </trkpt>
      <trkpt lat="47.50911" lon="6.7682">
        <ele>381</ele>
        <time>2016-12-18T08:22:49.999Z</time>
      </trkpt>
      <trkpt lat="47.50909" lon="6.76815">
        <ele>381</ele>
        <time>2016-12-18T08:22:50.999Z</time>
      </trkpt>
      <trkpt lat="47.50906" lon="6.76811">
        <ele>381</ele>
        <time>2016-12-18T08:22:51.999Z</time>
      </trkpt>
      <trkpt lat="47.50905" lon="6.76806">
        <ele>381</ele>
        <time>2016-12-18T08:22:52.999Z</time>
      </trkpt>
      <trkpt lat="47.50903" lon="6.76802">
        <ele>381</ele>
        <time>2016-12-18T08:22:53.999Z</time>
      </trkpt>
      <trkpt lat="47.50901" lon="6.76797">
        <ele>381</ele>
        <time>2016-12-18T08:22:54.999Z</time>
      </trkpt>
      <trkpt lat="47.50898" lon="6.76792">
        <ele>381</ele>
        <time>2016-12-18T08:22:55.999Z</time>
      </trkpt>
      <trkpt lat="47.50896" lon="6.76786">
        <ele>381</ele>
        <time>2016-12-18T08:22:56.999Z</time>
      </trkpt>
      <trkpt lat="47.50894" lon="6.7678">
        <ele>381</ele>
        <time>2016-12-18T08:22:57.999Z</time>
      </trkpt>
      <trkpt lat="47.50893" lon="6.76775">
        <ele>381</ele>
        <time>2016-12-18T08:22:58.999Z</time>
      </trkpt>
      <trkpt lat="47.5089" lon="6.76769">
        <ele>381</ele>
        <time>2016-12-18T08:22:59.999Z</time>
      </trkpt>
      <trkpt lat="47.50888" lon="6.76763">
        <ele>381</ele>
        <time>2016-12-18T08:23:00.999Z</time>
      </trkpt>
      <trkpt lat="47.50886" lon="6.76758">
        <ele>381</ele>
        <time>2016-12-18T08:23:01.999Z</time>
      </trkpt>
      <trkpt lat="47.50884" lon="6.76754">
        <ele>381</ele>
        <time>2016-12-18T08:23:02.999Z</time>
      </trkpt>
      <trkpt lat="47.50882" lon="6.76749">
        <ele>382</ele>
        <time>2016-12-18T08:23:03.999Z</time>
      </trkpt>
      <trkpt lat="47.50881" lon="6.76743">
        <ele>382</ele>
        <time>2016-12-18T08:23:04.999Z</time>
      </trkpt>
      <trkpt lat="47.50878" lon="6.76734">
        <ele>383</ele>
        <time>2016-12-18T08:23:06.999Z</time>
      </trkpt>
      <trkpt lat="47.50876" lon="6.76728">
        <ele>383</ele>
        <time>2016-12-18T08:23:07.999Z</time>
      </trkpt>
      <trkpt lat="47.50875" lon="6.76724">
        <ele>383</ele>
        <time>2016-12-18T08:23:08.999Z</time>
      </trkpt>
      <trkpt lat="47.50873" lon="6.76718">
        <ele>383</ele>
        <time>2016-12-18T08:23:09.999Z</time>
      </trkpt>
      <trkpt lat="47.50871" lon="6.76713">
        <ele>383</ele>
        <time>2016-12-18T08:23:10.999Z</time>
      </trkpt>
      <trkpt lat="47.50869" lon="6.76709">
        <ele>384</ele>
        <time>2016-12-18T08:23:11.999Z</time>
      </trkpt>
      <trkpt lat="47.50867" lon="6.76704">
        <ele>384</ele>
        <time>2016-12-18T08:23:12.999Z</time>
      </trkpt>
      <trkpt lat="47.50866" lon="6.76699">
        <ele>384</ele>
        <time>2016-12-18T08:23:13.999Z</time>
      </trkpt>
      <trkpt lat="47.50864" lon="6.76695">
        <ele>384</ele>
        <time>2016-12-18T08:23:14.999Z</time>
      </trkpt>
      <trkpt lat="47.50863" lon="6.7669">
        <ele>384</ele>
        <time>2016-12-18T08:23:15.999Z</time>
      </trkpt>
      <trkpt lat="47.50862" lon="6.76686">
        <ele>385</ele>
        <time>2016-12-18T08:23:16.999Z</time>
      </trkpt>
      <trkpt lat="47.50859" lon="6.7668">
        <ele>385</ele>
        <time>2016-12-18T08:23:17.999Z</time>
      </trkpt>
      <trkpt lat="47.50857" lon="6.76675">
        <ele>385</ele>
        <time>2016-12-18T08:23:18.999Z</time>
      </trkpt>
      <trkpt lat="47.50855" lon="6.76669">
        <ele>386</ele>
        <time>2016-12-18T08:23:19.999Z</time>
      </trkpt>
      <trkpt lat="47.50853" lon="6.76664">
        <ele>387</ele>
        <time>2016-12-18T08:23:20.999Z</time>
      </trkpt>
      <trkpt lat="47.50851" lon="6.76659">
        <ele>387</ele>
        <time>2016-12-18T08:23:21.999Z</time>
      </trkpt>
      <trkpt lat="47.5085" lon="6.76655">
        <ele>387</ele>
        <time>2016-12-18T08:23:22.999Z</time>
      </trkpt>
      <trkpt lat="47.50848" lon="6.76651">
        <ele>387</ele>
        <time>2016-12-18T08:23:23.999Z</time>
      </trkpt>
      <trkpt lat="47.50846" lon="6.76646">
        <ele>387</ele>
        <time>2016-12-18T08:23:24.999Z</time>
      </trkpt>
      <trkpt lat="47.50843" lon="6.76642">
        <ele>387</ele>
        <time>2016-12-18T08:23:25.999Z</time>
      </trkpt>
      <trkpt lat="47.50842" lon="6.76638">
        <ele>387</ele>
        <time>2016-12-18T08:23:26.999Z</time>
      </trkpt>
      <trkpt lat="47.50841" lon="6.76635">
        <ele>387</ele>
        <time>2016-12-18T08:23:27.999Z</time>
      </trkpt>
      <trkpt lat="47.50839" lon="6.76632">
        <ele>387</ele>
        <time>2016-12-18T08:23:28.999Z</time>
      </trkpt>
      <trkpt lat="47.50837" lon="6.76627">
        <ele>387</ele>
        <time>2016-12-18T08:23:29.999Z</time>
      </trkpt>
      <trkpt lat="47.50835" lon="6.76623">
        <ele>387</ele>
        <time>2016-12-18T08:23:30.999Z</time>
      </trkpt>
      <trkpt lat="47.50834" lon="6.76619">
        <ele>387</ele>
        <time>2016-12-18T08:23:31.999Z</time>
      </trkpt>
      <trkpt lat="47.50832" lon="6.76613">
        <ele>390</ele>
        <time>2016-12-18T08:23:32.999Z</time>
      </trkpt>
      <trkpt lat="47.5083" lon="6.76607">
        <ele>390</ele>
        <time>2016-12-18T08:23:33.999Z</time>
      </trkpt>
      <trkpt lat="47.50828" lon="6.76602">
        <ele>390</ele>
        <time>2016-12-18T08:23:34.999Z</time>
      </trkpt>
      <trkpt lat="47.50827" lon="6.76599">
        <ele>390</ele>
        <time>2016-12-18T08:23:35.999Z</time>
      </trkpt>
      <trkpt lat="47.50825" lon="6.76595">
        <ele>390</ele>
        <time>2016-12-18T08:23:36.999Z</time>
      </trkpt>
      <trkpt lat="47.50823" lon="6.7659">
        <ele>390</ele>
        <time>2016-12-18T08:23:38.999Z</time>
      </trkpt>
      <trkpt lat="47.50821" lon="6.76591">
        <ele>390</ele>
        <time>2016-12-18T08:23:39.999Z</time>
      </trkpt>
      <trkpt lat="47.50819" lon="6.76593">
        <ele>390</ele>
        <time>2016-12-18T08:23:40.999Z</time>
      </trkpt>
      <trkpt lat="47.50818" lon="6.76595">
        <ele>390</ele>
        <time>2016-12-18T08:23:41.999Z</time>
      </trkpt>
      <trkpt lat="47.50815" lon="6.76596">
        <ele>390</ele>
        <time>2016-12-18T08:23:42.999Z</time>
      </trkpt>
      <trkpt lat="47.50813" lon="6.76596">
        <ele>390</ele>
        <time>2016-12-18T08:23:43.999Z</time>
      </trkpt>
      <trkpt lat="47.5081" lon="6.76594">
        <ele>390</ele>
        <time>2016-12-18T08:23:44.999Z</time>
      </trkpt>
      <trkpt lat="47.50808" lon="6.76592">
        <ele>390</ele>
        <time>2016-12-18T08:23:45.999Z</time>
      </trkpt>
      <trkpt lat="47.50807" lon="6.76589">
        <ele>390</ele>
        <time>2016-12-18T08:23:46.999Z</time>
      </trkpt>
      <trkpt lat="47.50805" lon="6.76586">
        <ele>390</ele>
        <time>2016-12-18T08:23:47.999Z</time>
      </trkpt>
      <trkpt lat="47.50802" lon="6.76587">
        <ele>391</ele>
        <time>2016-12-18T08:23:49.999Z</time>
      </trkpt>
      <trkpt lat="47.50799" lon="6.76589">
        <ele>391</ele>
        <time>2016-12-18T08:23:50.999Z</time>
      </trkpt>
      <trkpt lat="47.50795" lon="6.76589">
        <ele>391</ele>
        <time>2016-12-18T08:23:51.999Z</time>
      </trkpt>
      <trkpt lat="47.50793" lon="6.76589">
        <ele>391</ele>
        <time>2016-12-18T08:23:52.999Z</time>
      </trkpt>
      <trkpt lat="47.50791" lon="6.7659">
        <ele>391</ele>
        <time>2016-12-18T08:24:03.999Z</time>
      </trkpt>
      <trkpt lat="47.50785" lon="6.76595">
        <ele>391</ele>
        <time>2016-12-18T08:24:04.999Z</time>
      </trkpt>
      <trkpt lat="47.50783" lon="6.7659">
        <ele>391</ele>
        <time>2016-12-18T08:24:16.999Z</time>
      </trkpt>
      <trkpt lat="47.50773" lon="6.76593">
        <ele>392</ele>
        <time>2016-12-18T08:24:17.999Z</time>
      </trkpt>
      <trkpt lat="47.50771" lon="6.76593">
        <ele>392</ele>
        <time>2016-12-18T08:24:18.999Z</time>
      </trkpt>
      <trkpt lat="47.50766" lon="6.76595">
        <ele>392</ele>
        <time>2016-12-18T08:24:19.999Z</time>
      </trkpt>
      <trkpt lat="47.50762" lon="6.76596">
        <ele>392</ele>
        <time>2016-12-18T08:24:20.999Z</time>
      </trkpt>
      <trkpt lat="47.50759" lon="6.76597">
        <ele>392</ele>
        <time>2016-12-18T08:24:21.999Z</time>
      </trkpt>
      <trkpt lat="47.50756" lon="6.76597">
        <ele>392</ele>
        <time>2016-12-18T08:24:22.999Z</time>
      </trkpt>
      <trkpt lat="47.50752" lon="6.76597">
        <ele>393</ele>
        <time>2016-12-18T08:24:23.999Z</time>
      </trkpt>
      <trkpt lat="47.50748" lon="6.76598">
        <ele>394</ele>
        <time>2016-12-18T08:24:25.999Z</time>
      </trkpt>
      <trkpt lat="47.50745" lon="6.76598">
        <ele>394</ele>
        <time>2016-12-18T08:24:26.999Z</time>
      </trkpt>
      <trkpt lat="47.50741" lon="6.76599">
        <ele>394</ele>
        <time>2016-12-18T08:24:27.999Z</time>
      </trkpt>
      <trkpt lat="47.50738" lon="6.76598">
        <ele>394</ele>
        <time>2016-12-18T08:24:28.999Z</time>
      </trkpt>
      <trkpt lat="47.50735" lon="6.76597">
        <ele>394</ele>
        <time>2016-12-18T08:24:29.999Z</time>
      </trkpt>
      <trkpt lat="47.50731" lon="6.76597">
        <ele>394</ele>
        <time>2016-12-18T08:24:30.999Z</time>
      </trkpt>
      <trkpt lat="47.50728" lon="6.76595">
        <ele>394</ele>
        <time>2016-12-18T08:24:31.999Z</time>
      </trkpt>
      <trkpt lat="47.50724" lon="6.76594">
        <ele>394</ele>
        <time>2016-12-18T08:24:32.999Z</time>
      </trkpt>
      <trkpt lat="47.5072" lon="6.76593">
        <ele>394</ele>
        <time>2016-12-18T08:24:33.999Z</time>
      </trkpt>
      <trkpt lat="47.50717" lon="6.76592">
        <ele>394</ele>
        <time>2016-12-18T08:24:34.999Z</time>
      </trkpt>
      <trkpt lat="47.50714" lon="6.76592">
        <ele>395</ele>
        <time>2016-12-18T08:24:35.999Z</time>
      </trkpt>
      <trkpt lat="47.50709" lon="6.76591">
        <ele>395</ele>
        <time>2016-12-18T08:24:36.999Z</time>
      </trkpt>
      <trkpt lat="47.50706" lon="6.7659">
        <ele>395</ele>
        <time>2016-12-18T08:24:37.999Z</time>
      </trkpt>
      <trkpt lat="47.50703" lon="6.7659">
        <ele>395</ele>
        <time>2016-12-18T08:24:38.999Z</time>
      </trkpt>
      <trkpt lat="47.50699" lon="6.7659">
        <ele>395</ele>
        <time>2016-12-18T08:24:39.999Z</time>
      </trkpt>
      <trkpt lat="47.50696" lon="6.7659">
        <ele>395</ele>
        <time>2016-12-18T08:24:40.999Z</time>
      </trkpt>
      <trkpt lat="47.50693" lon="6.7659">
        <ele>395</ele>
        <time>2016-12-18T08:24:41.999Z</time>
      </trkpt>
      <trkpt lat="47.50689" lon="6.7659">
        <ele>395</ele>
        <time>2016-12-18T08:24:42.999Z</time>
      </trkpt>
      <trkpt lat="47.50687" lon="6.7659">
        <ele>395</ele>
        <time>2016-12-18T08:24:43.999Z</time>
      </trkpt>
      <trkpt lat="47.50683" lon="6.76591">
        <ele>396</ele>
        <time>2016-12-18T08:24:44.999Z</time>
      </trkpt>
      <trkpt lat="47.5068" lon="6.76591">
        <ele>396</ele>
        <time>2016-12-18T08:24:45.999Z</time>
      </trkpt>
      <trkpt lat="47.50676" lon="6.76592">
        <ele>396</ele>
        <time>2016-12-18T08:24:46.999Z</time>
      </trkpt>
      <trkpt lat="47.50674" lon="6.76592">
        <ele>396</ele>
        <time>2016-12-18T08:24:47.999Z</time>
      </trkpt>
      <trkpt lat="47.5067" lon="6.76593">
        <ele>396</ele>
        <time>2016-12-18T08:24:48.999Z</time>
      </trkpt>
      <trkpt lat="47.50668" lon="6.76594">
        <ele>396</ele>
        <time>2016-12-18T08:24:49.999Z</time>
      </trkpt>
      <trkpt lat="47.50665" lon="6.76595">
        <ele>397</ele>
        <time>2016-12-18T08:24:50.999Z</time>
      </trkpt>
      <trkpt lat="47.50662" lon="6.76595">
        <ele>397</ele>
        <time>2016-12-18T08:24:51.999Z</time>
      </trkpt>
      <trkpt lat="47.50659" lon="6.76596">
        <ele>397</ele>
        <time>2016-12-18T08:24:52.999Z</time>
      </trkpt>
      <trkpt lat="47.50655" lon="6.76597">
        <ele>397</ele>
        <time>2016-12-18T08:24:53.999Z</time>
      </trkpt>
      <trkpt lat="47.50652" lon="6.76597">
        <ele>397</ele>
        <time>2016-12-18T08:24:54.999Z</time>
      </trkpt>
      <trkpt lat="47.50649" lon="6.76598">
        <ele>397</ele>
        <time>2016-12-18T08:24:55.999Z</time>
      </trkpt>
      <trkpt lat="47.50646" lon="6.76599">
        <ele>397</ele>
        <time>2016-12-18T08:24:56.999Z</time>
      </trkpt>
      <trkpt lat="47.50643" lon="6.76601">
        <ele>397</ele>
        <time>2016-12-18T08:24:57.999Z</time>
      </trkpt>
      <trkpt lat="47.5064" lon="6.76602">
        <ele>397</ele>
        <time>2016-12-18T08:24:58.999Z</time>
      </trkpt>
      <trkpt lat="47.50637" lon="6.76603">
        <ele>397</ele>
        <time>2016-12-18T08:24:59.999Z</time>
      </trkpt>
      <trkpt lat="47.50635" lon="6.76605">
        <ele>397</ele>
        <time>2016-12-18T08:25:00.999Z</time>
      </trkpt>
      <trkpt lat="47.50632" lon="6.76606">
        <ele>397</ele>
        <time>2016-12-18T08:25:01.999Z</time>
      </trkpt>
      <trkpt lat="47.50628" lon="6.76608">
        <ele>397</ele>
        <time>2016-12-18T08:25:02.999Z</time>
      </trkpt>
      <trkpt lat="47.50627" lon="6.76609">
        <ele>397</ele>
        <time>2016-12-18T08:25:03.999Z</time>
      </trkpt>
      <trkpt lat="47.50624" lon="6.76612">
        <ele>397</ele>
        <time>2016-12-18T08:25:04.999Z</time>
      </trkpt>
      <trkpt lat="47.50619" lon="6.76615">
        <ele>397</ele>
        <time>2016-12-18T08:25:06.999Z</time>
      </trkpt>
      <trkpt lat="47.50616" lon="6.76617">
        <ele>397</ele>
        <time>2016-12-18T08:25:07.999Z</time>
      </trkpt>
      <trkpt lat="47.50613" lon="6.76618">
        <ele>397</ele>
        <time>2016-12-18T08:25:08.999Z</time>
      </trkpt>
      <trkpt lat="47.5061" lon="6.76619">
        <ele>398</ele>
        <time>2016-12-18T08:25:09.999Z</time>
      </trkpt>
      <trkpt lat="47.50607" lon="6.7662">
        <ele>398</ele>
        <time>2016-12-18T08:25:10.999Z</time>
      </trkpt>
      <trkpt lat="47.50604" lon="6.76622">
        <ele>398</ele>
        <time>2016-12-18T08:25:11.999Z</time>
      </trkpt>
      <trkpt lat="47.50601" lon="6.76623">
        <ele>398</ele>
        <time>2016-12-18T08:25:12.999Z</time>
      </trkpt>
      <trkpt lat="47.50597" lon="6.76625">
        <ele>398</ele>
        <time>2016-12-18T08:25:13.999Z</time>
      </trkpt>
      <trkpt lat="47.50594" lon="6.76626">
        <ele>398</ele>
        <time>2016-12-18T08:25:14.999Z</time>
      </trkpt>
      <trkpt lat="47.50591" lon="6.76627">
        <ele>398</ele>
        <time>2016-12-18T08:25:15.999Z</time>
      </trkpt>
      <trkpt lat="47.50588" lon="6.76628">
        <ele>398</ele>
        <time>2016-12-18T08:25:16.999Z</time>
      </trkpt>
      <trkpt lat="47.50586" lon="6.76629">
        <ele>398</ele>
        <time>2016-12-18T08:25:17.999Z</time>
      </trkpt>
      <trkpt lat="47.50583" lon="6.76629">
        <ele>399</ele>
        <time>2016-12-18T08:25:18.999Z</time>
      </trkpt>
      <trkpt lat="47.5058" lon="6.7663">
        <ele>399</ele>
        <time>2016-12-18T08:25:19.999Z</time>
      </trkpt>
      <trkpt lat="47.50577" lon="6.76631">
        <ele>399</ele>
        <time>2016-12-18T08:25:20.999Z</time>
      </trkpt>
      <trkpt lat="47.50574" lon="6.76632">
        <ele>399</ele>
        <time>2016-12-18T08:25:21.999Z</time>
      </trkpt>
      <trkpt lat="47.50572" lon="6.76633">
        <ele>399</ele>
        <time>2016-12-18T08:25:22.999Z</time>
      </trkpt>
      <trkpt lat="47.5057" lon="6.76633">
        <ele>399</ele>
        <time>2016-12-18T08:25:23.999Z</time>
      </trkpt>
      <trkpt lat="47.50566" lon="6.76635">
        <ele>399</ele>
        <time>2016-12-18T08:25:24.999Z</time>
      </trkpt>
      <trkpt lat="47.50563" lon="6.76635">
        <ele>399</ele>
        <time>2016-12-18T08:25:25.999Z</time>
      </trkpt>
      <trkpt lat="47.5056" lon="6.76636">
        <ele>399</ele>
        <time>2016-12-18T08:25:26.999Z</time>
      </trkpt>
      <trkpt lat="47.50557" lon="6.76638">
        <ele>399</ele>
        <time>2016-12-18T08:25:27.999Z</time>
      </trkpt>
      <trkpt lat="47.50554" lon="6.76639">
        <ele>399</ele>
        <time>2016-12-18T08:25:28.999Z</time>
      </trkpt>
      <trkpt lat="47.5055" lon="6.7664">
        <ele>399</ele>
        <time>2016-12-18T08:25:29.999Z</time>
      </trkpt>
      <trkpt lat="47.50547" lon="6.76641">
        <ele>399</ele>
        <time>2016-12-18T08:25:30.999Z</time>
      </trkpt>
      <trkpt lat="47.50544" lon="6.76642">
        <ele>399</ele>
        <time>2016-12-18T08:25:31.999Z</time>
      </trkpt>
      <trkpt lat="47.50541" lon="6.76643">
        <ele>399</ele>
        <time>2016-12-18T08:25:32.999Z</time>
      </trkpt>
      <trkpt lat="47.50537" lon="6.76644">
        <ele>399</ele>
        <time>2016-12-18T08:25:33.999Z</time>
      </trkpt>
      <trkpt lat="47.50534" lon="6.76644">
        <ele>399</ele>
        <time>2016-12-18T08:25:34.999Z</time>
      </trkpt>
      <trkpt lat="47.5053" lon="6.76645">
        <ele>399</ele>
        <time>2016-12-18T08:25:35.999Z</time>
      </trkpt>
      <trkpt lat="47.50525" lon="6.76646">
        <ele>399</ele>
        <time>2016-12-18T08:25:36.999Z</time>
      </trkpt>
      <trkpt lat="47.50521" lon="6.76648">
        <ele>399</ele>
        <time>2016-12-18T08:25:37.999Z</time>
      </trkpt>
      <trkpt lat="47.50517" lon="6.7665">
        <ele>399</ele>
        <time>2016-12-18T08:25:38.999Z</time>
      </trkpt>
      <trkpt lat="47.50514" lon="6.76651">
        <ele>399</ele>
        <time>2016-12-18T08:25:39.999Z</time>
      </trkpt>
      <trkpt lat="47.50509" lon="6.76652">
        <ele>399</ele>
        <time>2016-12-18T08:25:40.999Z</time>
      </trkpt>
      <trkpt lat="47.50504" lon="6.76652">
        <ele>399</ele>
        <time>2016-12-18T08:25:41.999Z</time>
      </trkpt>
      <trkpt lat="47.505" lon="6.76653">
        <ele>399</ele>
        <time>2016-12-18T08:25:42.999Z</time>
      </trkpt>
      <trkpt lat="47.50497" lon="6.76654">
        <ele>399</ele>
        <time>2016-12-18T08:25:43.999Z</time>
      </trkpt>
      <trkpt lat="47.50492" lon="6.76655">
        <ele>399</ele>
        <time>2016-12-18T08:25:44.999Z</time>
      </trkpt>
      <trkpt lat="47.50488" lon="6.76656">
        <ele>399</ele>
        <time>2016-12-18T08:25:45.999Z</time>
      </trkpt>
      <trkpt lat="47.50483" lon="6.76658">
        <ele>399</ele>
        <time>2016-12-18T08:25:46.999Z</time>
      </trkpt>
      <trkpt lat="47.50479" lon="6.76659">
        <ele>399</ele>
        <time>2016-12-18T08:25:47.999Z</time>
      </trkpt>
      <trkpt lat="47.50474" lon="6.76661">
        <ele>398</ele>
        <time>2016-12-18T08:25:48.999Z</time>
      </trkpt>
      <trkpt lat="47.50469" lon="6.76663">
        <ele>398</ele>
        <time>2016-12-18T08:25:49.999Z</time>
      </trkpt>
      <trkpt lat="47.50464" lon="6.76666">
        <ele>398</ele>
        <time>2016-12-18T08:25:50.999Z</time>
      </trkpt>
      <trkpt lat="47.5046" lon="6.76668">
        <ele>397</ele>
        <time>2016-12-18T08:25:51.999Z</time>
      </trkpt>
      <trkpt lat="47.50455" lon="6.76671">
        <ele>397</ele>
        <time>2016-12-18T08:25:52.999Z</time>
      </trkpt>
      <trkpt lat="47.5045" lon="6.76673">
        <ele>397</ele>
        <time>2016-12-18T08:25:53.999Z</time>
      </trkpt>
      <trkpt lat="47.50445" lon="6.76675">
        <ele>397</ele>
        <time>2016-12-18T08:25:54.999Z</time>
      </trkpt>
      <trkpt lat="47.50441" lon="6.76677">
        <ele>397</ele>
        <time>2016-12-18T08:25:55.999Z</time>
      </trkpt>
      <trkpt lat="47.50437" lon="6.76679">
        <ele>397</ele>
        <time>2016-12-18T08:25:56.999Z</time>
      </trkpt>
      <trkpt lat="47.50433" lon="6.76681">
        <ele>397</ele>
        <time>2016-12-18T08:25:57.999Z</time>
      </trkpt>
      <trkpt lat="47.50429" lon="6.76683">
        <ele>397</ele>
        <time>2016-12-18T08:25:58.999Z</time>
      </trkpt>
      <trkpt lat="47.50424" lon="6.76686">
        <ele>397</ele>
        <time>2016-12-18T08:25:59.999Z</time>
      </trkpt>
      <trkpt lat="47.5042" lon="6.76688">
        <ele>397</ele>
        <time>2016-12-18T08:26:00.999Z</time>
      </trkpt>
      <trkpt lat="47.50416" lon="6.76689">
        <ele>397</ele>
        <time>2016-12-18T08:26:01.999Z</time>
      </trkpt>
      <trkpt lat="47.50411" lon="6.76691">
        <ele>397</ele>
        <time>2016-12-18T08:26:02.999Z</time>
      </trkpt>
      <trkpt lat="47.50406" lon="6.76693">
        <ele>397</ele>
        <time>2016-12-18T08:26:03.999Z</time>
      </trkpt>
      <trkpt lat="47.50401" lon="6.76695">
        <ele>397</ele>
        <time>2016-12-18T08:26:04.999Z</time>
      </trkpt>
      <trkpt lat="47.50391" lon="6.76699">
        <ele>397</ele>
        <time>2016-12-18T08:26:06.999Z</time>
      </trkpt>
      <trkpt lat="47.50387" lon="6.76702">
        <ele>397</ele>
        <time>2016-12-18T08:26:07.999Z</time>
      </trkpt>
      <trkpt lat="47.50383" lon="6.76703">
        <ele>397</ele>
        <time>2016-12-18T08:26:08.999Z</time>
      </trkpt>
      <trkpt lat="47.50378" lon="6.76706">
        <ele>397</ele>
        <time>2016-12-18T08:26:09.999Z</time>
      </trkpt>
      <trkpt lat="47.50374" lon="6.76707">
        <ele>397</ele>
        <time>2016-12-18T08:26:10.999Z</time>
      </trkpt>
      <trkpt lat="47.50369" lon="6.76709">
        <ele>398</ele>
        <time>2016-12-18T08:26:11.999Z</time>
      </trkpt>
      <trkpt lat="47.50366" lon="6.76709">
        <ele>398</ele>
        <time>2016-12-18T08:26:12.999Z</time>
      </trkpt>
      <trkpt lat="47.50363" lon="6.7671">
        <ele>398</ele>
        <time>2016-12-18T08:26:13.999Z</time>
      </trkpt>
      <trkpt lat="47.5036" lon="6.76712">
        <ele>398</ele>
        <time>2016-12-18T08:26:14.999Z</time>
      </trkpt>
      <trkpt lat="47.50356" lon="6.76713">
        <ele>398</ele>
        <time>2016-12-18T08:26:15.999Z</time>
      </trkpt>
      <trkpt lat="47.5035" lon="6.76715">
        <ele>398</ele>
        <time>2016-12-18T08:26:16.999Z</time>
      </trkpt>
      <trkpt lat="47.50345" lon="6.76717">
        <ele>398</ele>
        <time>2016-12-18T08:26:17.999Z</time>
      </trkpt>
      <trkpt lat="47.5034" lon="6.76719">
        <ele>398</ele>
        <time>2016-12-18T08:26:18.999Z</time>
      </trkpt>
      <trkpt lat="47.50336" lon="6.76721">
        <ele>398</ele>
        <time>2016-12-18T08:26:19.999Z</time>
      </trkpt>
      <trkpt lat="47.50331" lon="6.76723">
        <ele>398</ele>
        <time>2016-12-18T08:26:20.999Z</time>
      </trkpt>
      <trkpt lat="47.50326" lon="6.76725">
        <ele>398</ele>
        <time>2016-12-18T08:26:21.999Z</time>
      </trkpt>
      <trkpt lat="47.50322" lon="6.76727">
        <ele>398</ele>
        <time>2016-12-18T08:26:22.999Z</time>
      </trkpt>
      <trkpt lat="47.50319" lon="6.76728">
        <ele>398</ele>
        <time>2016-12-18T08:26:23.999Z</time>
      </trkpt>
      <trkpt lat="47.50315" lon="6.7673">
        <ele>398</ele>
        <time>2016-12-18T08:26:24.999Z</time>
      </trkpt>
      <trkpt lat="47.5031" lon="6.76732">
        <ele>398</ele>
        <time>2016-12-18T08:26:25.999Z</time>
      </trkpt>
      <trkpt lat="47.50307" lon="6.76733">
        <ele>398</ele>
        <time>2016-12-18T08:26:26.999Z</time>
      </trkpt>
      <trkpt lat="47.50304" lon="6.76734">
        <ele>398</ele>
        <time>2016-12-18T08:26:27.999Z</time>
      </trkpt>
      <trkpt lat="47.503" lon="6.76735">
        <ele>399</ele>
        <time>2016-12-18T08:26:28.999Z</time>
      </trkpt>
      <trkpt lat="47.50297" lon="6.76736">
        <ele>399</ele>
        <time>2016-12-18T08:26:29.999Z</time>
      </trkpt>
      <trkpt lat="47.50292" lon="6.76737">
        <ele>399</ele>
        <time>2016-12-18T08:26:30.999Z</time>
      </trkpt>
      <trkpt lat="47.50288" lon="6.76738">
        <ele>399</ele>
        <time>2016-12-18T08:26:31.999Z</time>
      </trkpt>
      <trkpt lat="47.50283" lon="6.76739">
        <ele>399</ele>
        <time>2016-12-18T08:26:32.999Z</time>
      </trkpt>
      <trkpt lat="47.50279" lon="6.7674">
        <ele>399</ele>
        <time>2016-12-18T08:26:33.999Z</time>
      </trkpt>
      <trkpt lat="47.50273" lon="6.76741">
        <ele>399</ele>
        <time>2016-12-18T08:26:34.999Z</time>
      </trkpt>
      <trkpt lat="47.5027" lon="6.76743">
        <ele>399</ele>
        <time>2016-12-18T08:26:35.999Z</time>
      </trkpt>
      <trkpt lat="47.50265" lon="6.76743">
        <ele>399</ele>
        <time>2016-12-18T08:26:36.999Z</time>
      </trkpt>
      <trkpt lat="47.5026" lon="6.76744">
        <ele>399</ele>
        <time>2016-12-18T08:26:37.999Z</time>
      </trkpt>
      <trkpt lat="47.50256" lon="6.76745">
        <ele>400</ele>
        <time>2016-12-18T08:26:38.999Z</time>
      </trkpt>
      <trkpt lat="47.50253" lon="6.76746">
        <ele>400</ele>
        <time>2016-12-18T08:26:39.999Z</time>
      </trkpt>
      <trkpt lat="47.50249" lon="6.76747">
        <ele>400</ele>
        <time>2016-12-18T08:26:40.999Z</time>
      </trkpt>
      <trkpt lat="47.50246" lon="6.76747">
        <ele>400</ele>
        <time>2016-12-18T08:26:41.999Z</time>
      </trkpt>
      <trkpt lat="47.50245" lon="6.76745">
        <ele>401</ele>
        <time>2016-12-18T08:26:42.999Z</time>
      </trkpt>
      <trkpt lat="47.50243" lon="6.76741">
        <ele>401</ele>
        <time>2016-12-18T08:26:43.999Z</time>
      </trkpt>
      <trkpt lat="47.5024" lon="6.76737">
        <ele>401</ele>
        <time>2016-12-18T08:26:44.999Z</time>
      </trkpt>
      <trkpt lat="47.50237" lon="6.76733">
        <ele>401</ele>
        <time>2016-12-18T08:26:45.999Z</time>
      </trkpt>
      <trkpt lat="47.50236" lon="6.76729">
        <ele>401</ele>
        <time>2016-12-18T08:26:46.999Z</time>
      </trkpt>
      <trkpt lat="47.50233" lon="6.76724">
        <ele>402</ele>
        <time>2016-12-18T08:26:47.999Z</time>
      </trkpt>
      <trkpt lat="47.50231" lon="6.76719">
        <ele>402</ele>
        <time>2016-12-18T08:26:48.999Z</time>
      </trkpt>
      <trkpt lat="47.50229" lon="6.76714">
        <ele>402</ele>
        <time>2016-12-18T08:26:49.999Z</time>
      </trkpt>
      <trkpt lat="47.50228" lon="6.7671">
        <ele>402</ele>
        <time>2016-12-18T08:26:50.999Z</time>
      </trkpt>
      <trkpt lat="47.50226" lon="6.76704">
        <ele>402</ele>
        <time>2016-12-18T08:26:51.999Z</time>
      </trkpt>
      <trkpt lat="47.50224" lon="6.76699">
        <ele>402</ele>
        <time>2016-12-18T08:26:52.999Z</time>
      </trkpt>
      <trkpt lat="47.50222" lon="6.76694">
        <ele>402</ele>
        <time>2016-12-18T08:26:53.999Z</time>
      </trkpt>
      <trkpt lat="47.5022" lon="6.7669">
        <ele>402</ele>
        <time>2016-12-18T08:26:54.999Z</time>
      </trkpt>
      <trkpt lat="47.50218" lon="6.76684">
        <ele>402</ele>
        <time>2016-12-18T08:26:55.999Z</time>
      </trkpt>
      <trkpt lat="47.50217" lon="6.76678">
        <ele>402</ele>
        <time>2016-12-18T08:26:56.999Z</time>
      </trkpt>
      <trkpt lat="47.50215" lon="6.76673">
        <ele>402</ele>
        <time>2016-12-18T08:26:57.999Z</time>
      </trkpt>
      <trkpt lat="47.50214" lon="6.76668">
        <ele>402</ele>
        <time>2016-12-18T08:26:58.999Z</time>
      </trkpt>
      <trkpt lat="47.50213" lon="6.76662">
        <ele>402</ele>
        <time>2016-12-18T08:26:59.999Z</time>
      </trkpt>
      <trkpt lat="47.50211" lon="6.76657">
        <ele>402</ele>
        <time>2016-12-18T08:27:00.999Z</time>
      </trkpt>
      <trkpt lat="47.50209" lon="6.76651">
        <ele>402</ele>
        <time>2016-12-18T08:27:01.999Z</time>
      </trkpt>
      <trkpt lat="47.50208" lon="6.76645">
        <ele>402</ele>
        <time>2016-12-18T08:27:02.999Z</time>
      </trkpt>
      <trkpt lat="47.50205" lon="6.76638">
        <ele>402</ele>
        <time>2016-12-18T08:27:03.999Z</time>
      </trkpt>
      <trkpt lat="47.50203" lon="6.76632">
        <ele>402</ele>
        <time>2016-12-18T08:27:04.999Z</time>
      </trkpt>
      <trkpt lat="47.502" lon="6.7662">
        <ele>402</ele>
        <time>2016-12-18T08:27:06.999Z</time>
      </trkpt>
      <trkpt lat="47.50198" lon="6.76615">
        <ele>403</ele>
        <time>2016-12-18T08:27:07.999Z</time>
      </trkpt>
      <trkpt lat="47.50196" lon="6.76609">
        <ele>403</ele>
        <time>2016-12-18T08:27:08.999Z</time>
      </trkpt>
      <trkpt lat="47.50194" lon="6.76603">
        <ele>403</ele>
        <time>2016-12-18T08:27:09.999Z</time>
      </trkpt>
      <trkpt lat="47.50193" lon="6.76598">
        <ele>403</ele>
        <time>2016-12-18T08:27:10.999Z</time>
      </trkpt>
      <trkpt lat="47.50193" lon="6.76592">
        <ele>403</ele>
        <time>2016-12-18T08:27:12.999Z</time>
      </trkpt>
      <trkpt lat="47.50194" lon="6.76587">
        <ele>403</ele>
        <time>2016-12-18T08:27:13.999Z</time>
      </trkpt>
      <trkpt lat="47.50194" lon="6.76583">
        <ele>403</ele>
        <time>2016-12-18T08:27:14.999Z</time>
      </trkpt>
      <trkpt lat="47.50195" lon="6.76578">
        <ele>403</ele>
        <time>2016-12-18T08:27:15.999Z</time>
      </trkpt>
      <trkpt lat="47.50195" lon="6.76574">
        <ele>402</ele>
        <time>2016-12-18T08:27:16.999Z</time>
      </trkpt>
      <trkpt lat="47.50199" lon="6.7657">
        <ele>402</ele>
        <time>2016-12-18T08:27:17.999Z</time>
      </trkpt>
      <trkpt lat="47.50202" lon="6.76569">
        <ele>402</ele>
        <time>2016-12-18T08:27:18.999Z</time>
      </trkpt>
      <trkpt lat="47.50206" lon="6.76567">
        <ele>401</ele>
        <time>2016-12-18T08:27:19.999Z</time>
      </trkpt>
      <trkpt lat="47.50208" lon="6.76565">
        <ele>401</ele>
        <time>2016-12-18T08:27:20.999Z</time>
      </trkpt>
      <trkpt lat="47.50212" lon="6.76563">
        <ele>401</ele>
        <time>2016-12-18T08:27:21.999Z</time>
      </trkpt>
      <trkpt lat="47.50214" lon="6.76563">
        <ele>401</ele>
        <time>2016-12-18T08:27:22.999Z</time>
      </trkpt>
      <trkpt lat="47.50218" lon="6.76561">
        <ele>400</ele>
        <time>2016-12-18T08:27:23.999Z</time>
      </trkpt>
      <trkpt lat="47.50221" lon="6.76557">
        <ele>400</ele>
        <time>2016-12-18T08:27:24.999Z</time>
      </trkpt>
      <trkpt lat="47.50223" lon="6.76552">
        <ele>400</ele>
        <time>2016-12-18T08:27:25.999Z</time>
      </trkpt>
      <trkpt lat="47.50223" lon="6.76548">
        <ele>400</ele>
        <time>2016-12-18T08:27:26.999Z</time>
      </trkpt>
      <trkpt lat="47.50223" lon="6.76544">
        <ele>400</ele>
        <time>2016-12-18T08:27:27.999Z</time>
      </trkpt>
      <trkpt lat="47.50221" lon="6.7654">
        <ele>400</ele>
        <time>2016-12-18T08:27:28.999Z</time>
      </trkpt>
      <trkpt lat="47.5022" lon="6.76535">
        <ele>400</ele>
        <time>2016-12-18T08:27:29.999Z</time>
      </trkpt>
      <trkpt lat="47.50219" lon="6.76529">
        <ele>400</ele>
        <time>2016-12-18T08:27:30.999Z</time>
      </trkpt>
      <trkpt lat="47.50217" lon="6.76522">
        <ele>399</ele>
        <time>2016-12-18T08:27:31.999Z</time>
      </trkpt>
      <trkpt lat="47.50215" lon="6.76514">
        <ele>399</ele>
        <time>2016-12-18T08:27:32.999Z</time>
      </trkpt>
      <trkpt lat="47.50212" lon="6.76505">
        <ele>400</ele>
        <time>2016-12-18T08:27:33.999Z</time>
      </trkpt>
      <trkpt lat="47.5021" lon="6.76498">
        <ele>396</ele>
        <time>2016-12-18T08:27:34.999Z</time>
      </trkpt>
      <trkpt lat="47.50207" lon="6.7649">
        <ele>397</ele>
        <time>2016-12-18T08:27:35.999Z</time>
      </trkpt>
      <trkpt lat="47.50202" lon="6.7648">
        <ele>397</ele>
        <time>2016-12-18T08:27:36.999Z</time>
      </trkpt>
      <trkpt lat="47.50198" lon="6.7647">
        <ele>397</ele>
        <time>2016-12-18T08:27:37.999Z</time>
      </trkpt>
      <trkpt lat="47.50193" lon="6.76459">
        <ele>397</ele>
        <time>2016-12-18T08:27:38.999Z</time>
      </trkpt>
      <trkpt lat="47.5019" lon="6.7645">
        <ele>396</ele>
        <time>2016-12-18T08:27:39.999Z</time>
      </trkpt>
      <trkpt lat="47.50187" lon="6.7644">
        <ele>396</ele>
        <time>2016-12-18T08:27:40.999Z</time>
      </trkpt>
      <trkpt lat="47.50183" lon="6.7643">
        <ele>397</ele>
        <time>2016-12-18T08:27:41.999Z</time>
      </trkpt>
      <trkpt lat="47.5018" lon="6.76421">
        <ele>397</ele>
        <time>2016-12-18T08:27:42.999Z</time>
      </trkpt>
      <trkpt lat="47.50178" lon="6.76411">
        <ele>395</ele>
        <time>2016-12-18T08:27:43.999Z</time>
      </trkpt>
      <trkpt lat="47.50177" lon="6.76402">
        <ele>394</ele>
        <time>2016-12-18T08:27:44.999Z</time>
      </trkpt>
      <trkpt lat="47.50175" lon="6.76392">
        <ele>393</ele>
        <time>2016-12-18T08:27:45.999Z</time>
      </trkpt>
      <trkpt lat="47.50172" lon="6.76382">
        <ele>392</ele>
        <time>2016-12-18T08:27:46.999Z</time>
      </trkpt>
      <trkpt lat="47.50168" lon="6.76373">
        <ele>391</ele>
        <time>2016-12-18T08:27:47.999Z</time>
      </trkpt>
      <trkpt lat="47.50165" lon="6.76364">
        <ele>399</ele>
        <time>2016-12-18T08:27:48.999Z</time>
      </trkpt>
      <trkpt lat="47.5016" lon="6.76355">
        <ele>398</ele>
        <time>2016-12-18T08:27:49.999Z</time>
      </trkpt>
      <trkpt lat="47.50156" lon="6.76345">
        <ele>397</ele>
        <time>2016-12-18T08:27:50.999Z</time>
      </trkpt>
      <trkpt lat="47.50152" lon="6.76334">
        <ele>396</ele>
        <time>2016-12-18T08:27:51.999Z</time>
      </trkpt>
      <trkpt lat="47.50149" lon="6.76326">
        <ele>395</ele>
        <time>2016-12-18T08:27:52.999Z</time>
      </trkpt>
      <trkpt lat="47.50147" lon="6.76318">
        <ele>395</ele>
        <time>2016-12-18T08:27:53.999Z</time>
      </trkpt>
      <trkpt lat="47.50142" lon="6.76312">
        <ele>396</ele>
        <time>2016-12-18T08:27:54.999Z</time>
      </trkpt>
      <trkpt lat="47.50139" lon="6.76305">
        <ele>396</ele>
        <time>2016-12-18T08:27:55.999Z</time>
      </trkpt>
      <trkpt lat="47.50136" lon="6.76297">
        <ele>396</ele>
        <time>2016-12-18T08:27:56.999Z</time>
      </trkpt>
      <trkpt lat="47.50134" lon="6.76289">
        <ele>396</ele>
        <time>2016-12-18T08:27:57.999Z</time>
      </trkpt>
      <trkpt lat="47.50132" lon="6.76281">
        <ele>396</ele>
        <time>2016-12-18T08:27:58.999Z</time>
      </trkpt>
      <trkpt lat="47.50129" lon="6.76273">
        <ele>396</ele>
        <time>2016-12-18T08:27:59.999Z</time>
      </trkpt>
      <trkpt lat="47.50127" lon="6.76263">
        <ele>396</ele>
        <time>2016-12-18T08:28:00.999Z</time>
      </trkpt>
      <trkpt lat="47.50126" lon="6.76253">
        <ele>396</ele>
        <time>2016-12-18T08:28:01.999Z</time>
      </trkpt>
      <trkpt lat="47.50125" lon="6.76243">
        <ele>392</ele>
        <time>2016-12-18T08:28:02.999Z</time>
      </trkpt>
      <trkpt lat="47.50124" lon="6.76234">
        <ele>392</ele>
        <time>2016-12-18T08:28:03.999Z</time>
      </trkpt>
      <trkpt lat="47.50122" lon="6.76224">
        <ele>392</ele>
        <time>2016-12-18T08:28:04.999Z</time>
      </trkpt>
      <trkpt lat="47.5012" lon="6.76203">
        <ele>391</ele>
        <time>2016-12-18T08:28:06.999Z</time>
      </trkpt>
      <trkpt lat="47.50119" lon="6.76194">
        <ele>391</ele>
        <time>2016-12-18T08:28:07.999Z</time>
      </trkpt>
      <trkpt lat="47.50118" lon="6.76186">
        <ele>390</ele>
        <time>2016-12-18T08:28:08.999Z</time>
      </trkpt>
      <trkpt lat="47.50118" lon="6.76177">
        <ele>390</ele>
        <time>2016-12-18T08:28:09.999Z</time>
      </trkpt>
      <trkpt lat="47.50116" lon="6.76167">
        <ele>387</ele>
        <time>2016-12-18T08:28:10.999Z</time>
      </trkpt>
      <trkpt lat="47.50114" lon="6.76155">
        <ele>387</ele>
        <time>2016-12-18T08:28:11.999Z</time>
      </trkpt>
      <trkpt lat="47.50113" lon="6.76144">
        <ele>386</ele>
        <time>2016-12-18T08:28:12.999Z</time>
      </trkpt>
      <trkpt lat="47.50111" lon="6.76133">
        <ele>386</ele>
        <time>2016-12-18T08:28:13.999Z</time>
      </trkpt>
      <trkpt lat="47.5011" lon="6.76123">
        <ele>385</ele>
        <time>2016-12-18T08:28:14.999Z</time>
      </trkpt>
      <trkpt lat="47.50108" lon="6.76111">
        <ele>385</ele>
        <time>2016-12-18T08:28:15.999Z</time>
      </trkpt>
      <trkpt lat="47.50107" lon="6.76097">
        <ele>385</ele>
        <time>2016-12-18T08:28:16.999Z</time>
      </trkpt>
      <trkpt lat="47.50106" lon="6.76078">
        <ele>382</ele>
        <time>2016-12-18T08:28:17.999Z</time>
      </trkpt>
      <trkpt lat="47.50106" lon="6.76064">
        <ele>381</ele>
        <time>2016-12-18T08:28:18.999Z</time>
      </trkpt>
      <trkpt lat="47.50103" lon="6.76052">
        <ele>381</ele>
        <time>2016-12-18T08:28:19.999Z</time>
      </trkpt>
      <trkpt lat="47.50101" lon="6.76041">
        <ele>380</ele>
        <time>2016-12-18T08:28:20.999Z</time>
      </trkpt>
      <trkpt lat="47.50098" lon="6.7603">
        <ele>380</ele>
        <time>2016-12-18T08:28:21.999Z</time>
      </trkpt>
      <trkpt lat="47.50095" lon="6.76012">
        <ele>379</ele>
        <time>2016-12-18T08:28:22.999Z</time>
      </trkpt>
      <trkpt lat="47.50092" lon="6.76002">
        <ele>380</ele>
        <time>2016-12-18T08:28:23.999Z</time>
      </trkpt>
      <trkpt lat="47.50088" lon="6.75993">
        <ele>378</ele>
        <time>2016-12-18T08:28:24.999Z</time>
      </trkpt>
      <trkpt lat="47.50084" lon="6.75985">
        <ele>377</ele>
        <time>2016-12-18T08:28:25.999Z</time>
      </trkpt>
      <trkpt lat="47.50077" lon="6.75974">
        <ele>379</ele>
        <time>2016-12-18T08:28:26.999Z</time>
      </trkpt>
      <trkpt lat="47.50072" lon="6.75965">
        <ele>379</ele>
        <time>2016-12-18T08:28:27.999Z</time>
      </trkpt>
      <trkpt lat="47.50066" lon="6.75955">
        <ele>378</ele>
        <time>2016-12-18T08:28:28.999Z</time>
      </trkpt>
      <trkpt lat="47.50062" lon="6.75947">
        <ele>378</ele>
        <time>2016-12-18T08:28:29.999Z</time>
      </trkpt>
      <trkpt lat="47.50058" lon="6.75941">
        <ele>378</ele>
        <time>2016-12-18T08:28:30.999Z</time>
      </trkpt>
      <trkpt lat="47.50053" lon="6.75932">
        <ele>378</ele>
        <time>2016-12-18T08:28:31.999Z</time>
      </trkpt>
      <trkpt lat="47.50047" lon="6.75922">
        <ele>378</ele>
        <time>2016-12-18T08:28:32.999Z</time>
      </trkpt>
      <trkpt lat="47.50041" lon="6.75914">
        <ele>376</ele>
        <time>2016-12-18T08:28:33.999Z</time>
      </trkpt>
      <trkpt lat="47.50035" lon="6.75907">
        <ele>376</ele>
        <time>2016-12-18T08:28:34.999Z</time>
      </trkpt>
      <trkpt lat="47.50031" lon="6.759">
        <ele>376</ele>
        <time>2016-12-18T08:28:35.999Z</time>
      </trkpt>
      <trkpt lat="47.50026" lon="6.7589">
        <ele>376</ele>
        <time>2016-12-18T08:28:36.999Z</time>
      </trkpt>
      <trkpt lat="47.50021" lon="6.75882">
        <ele>377</ele>
        <time>2016-12-18T08:28:37.999Z</time>
      </trkpt>
      <trkpt lat="47.50015" lon="6.75875">
        <ele>377</ele>
        <time>2016-12-18T08:28:38.999Z</time>
      </trkpt>
      <trkpt lat="47.50011" lon="6.75866">
        <ele>377</ele>
        <time>2016-12-18T08:28:39.999Z</time>
      </trkpt>
      <trkpt lat="47.50007" lon="6.75856">
        <ele>377</ele>
        <time>2016-12-18T08:28:40.999Z</time>
      </trkpt>
      <trkpt lat="47.50001" lon="6.75846">
        <ele>378</ele>
        <time>2016-12-18T08:28:41.999Z</time>
      </trkpt>
      <trkpt lat="47.49997" lon="6.75837">
        <ele>378</ele>
        <time>2016-12-18T08:28:42.999Z</time>
      </trkpt>
      <trkpt lat="47.49993" lon="6.7583">
        <ele>378</ele>
        <time>2016-12-18T08:28:43.999Z</time>
      </trkpt>
      <trkpt lat="47.49988" lon="6.75822">
        <ele>376</ele>
        <time>2016-12-18T08:28:44.999Z</time>
      </trkpt>
      <trkpt lat="47.49983" lon="6.75812">
        <ele>375</ele>
        <time>2016-12-18T08:28:45.999Z</time>
      </trkpt>
      <trkpt lat="47.49978" lon="6.75804">
        <ele>375</ele>
        <time>2016-12-18T08:28:46.999Z</time>
      </trkpt>
      <trkpt lat="47.49973" lon="6.75797">
        <ele>375</ele>
        <time>2016-12-18T08:28:47.999Z</time>
      </trkpt>
      <trkpt lat="47.49967" lon="6.75788">
        <ele>374</ele>
        <time>2016-12-18T08:28:48.999Z</time>
      </trkpt>
      <trkpt lat="47.49963" lon="6.75781">
        <ele>374</ele>
        <time>2016-12-18T08:28:49.999Z</time>
      </trkpt>
      <trkpt lat="47.49958" lon="6.75775">
        <ele>374</ele>
        <time>2016-12-18T08:28:50.999Z</time>
      </trkpt>
      <trkpt lat="47.49952" lon="6.75768">
        <ele>373</ele>
        <time>2016-12-18T08:28:51.999Z</time>
      </trkpt>
      <trkpt lat="47.49947" lon="6.7576">
        <ele>373</ele>
        <time>2016-12-18T08:28:52.999Z</time>
      </trkpt>
      <trkpt lat="47.49941" lon="6.75751">
        <ele>372</ele>
        <time>2016-12-18T08:28:53.999Z</time>
      </trkpt>
      <trkpt lat="47.49934" lon="6.75742">
        <ele>370</ele>
        <time>2016-12-18T08:28:54.999Z</time>
      </trkpt>
      <trkpt lat="47.49928" lon="6.75735">
        <ele>370</ele>
        <time>2016-12-18T08:28:55.999Z</time>
      </trkpt>
      <trkpt lat="47.49924" lon="6.75728">
        <ele>370</ele>
        <time>2016-12-18T08:28:56.999Z</time>
      </trkpt>
      <trkpt lat="47.49918" lon="6.75722">
        <ele>370</ele>
        <time>2016-12-18T08:28:57.999Z</time>
      </trkpt>
      <trkpt lat="47.49909" lon="6.75718">
        <ele>365</ele>
        <time>2016-12-18T08:28:58.999Z</time>
      </trkpt>
      <trkpt lat="47.499" lon="6.75719">
        <ele>364</ele>
        <time>2016-12-18T08:28:59.999Z</time>
      </trkpt>
      <trkpt lat="47.49892" lon="6.7572">
        <ele>364</ele>
        <time>2016-12-18T08:29:00.999Z</time>
      </trkpt>
      <trkpt lat="47.49884" lon="6.7572">
        <ele>363</ele>
        <time>2016-12-18T08:29:01.999Z</time>
      </trkpt>
      <trkpt lat="47.49876" lon="6.7572">
        <ele>363</ele>
        <time>2016-12-18T08:29:02.999Z</time>
      </trkpt>
      <trkpt lat="47.49866" lon="6.75721">
        <ele>362</ele>
        <time>2016-12-18T08:29:03.999Z</time>
      </trkpt>
      <trkpt lat="47.49855" lon="6.75721">
        <ele>361</ele>
        <time>2016-12-18T08:29:04.999Z</time>
      </trkpt>
      <trkpt lat="47.49835" lon="6.75722">
        <ele>361</ele>
        <time>2016-12-18T08:29:06.999Z</time>
      </trkpt>
      <trkpt lat="47.49824" lon="6.75725">
        <ele>354</ele>
        <time>2016-12-18T08:29:07.999Z</time>
      </trkpt>
      <trkpt lat="47.49815" lon="6.75728">
        <ele>353</ele>
        <time>2016-12-18T08:29:08.999Z</time>
      </trkpt>
      <trkpt lat="47.49805" lon="6.75731">
        <ele>353</ele>
        <time>2016-12-18T08:29:09.999Z</time>
      </trkpt>
      <trkpt lat="47.49795" lon="6.75735">
        <ele>352</ele>
        <time>2016-12-18T08:29:10.999Z</time>
      </trkpt>
      <trkpt lat="47.49785" lon="6.75738">
        <ele>351</ele>
        <time>2016-12-18T08:29:11.999Z</time>
      </trkpt>
      <trkpt lat="47.49775" lon="6.75742">
        <ele>351</ele>
        <time>2016-12-18T08:29:12.999Z</time>
      </trkpt>
      <trkpt lat="47.49766" lon="6.75745">
        <ele>351</ele>
        <time>2016-12-18T08:29:13.999Z</time>
      </trkpt>
      <trkpt lat="47.49757" lon="6.75748">
        <ele>351</ele>
        <time>2016-12-18T08:29:14.999Z</time>
      </trkpt>
      <trkpt lat="47.49749" lon="6.75751">
        <ele>351</ele>
        <time>2016-12-18T08:29:15.999Z</time>
      </trkpt>
      <trkpt lat="47.49741" lon="6.75754">
        <ele>352</ele>
        <time>2016-12-18T08:29:16.999Z</time>
      </trkpt>
      <trkpt lat="47.49733" lon="6.75757">
        <ele>353</ele>
        <time>2016-12-18T08:29:17.999Z</time>
      </trkpt>
      <trkpt lat="47.49726" lon="6.75761">
        <ele>353</ele>
        <time>2016-12-18T08:29:18.999Z</time>
      </trkpt>
      <trkpt lat="47.49717" lon="6.75767">
        <ele>353</ele>
        <time>2016-12-18T08:29:19.999Z</time>
      </trkpt>
      <trkpt lat="47.4971" lon="6.75769">
        <ele>353</ele>
        <time>2016-12-18T08:29:20.999Z</time>
      </trkpt>
      <trkpt lat="47.49702" lon="6.75773">
        <ele>353</ele>
        <time>2016-12-18T08:29:21.999Z</time>
      </trkpt>
      <trkpt lat="47.49695" lon="6.75776">
        <ele>353</ele>
        <time>2016-12-18T08:29:22.999Z</time>
      </trkpt>
      <trkpt lat="47.49687" lon="6.75778">
        <ele>352</ele>
        <time>2016-12-18T08:29:23.999Z</time>
      </trkpt>
      <trkpt lat="47.4968" lon="6.75779">
        <ele>352</ele>
        <time>2016-12-18T08:29:24.999Z</time>
      </trkpt>
      <trkpt lat="47.49672" lon="6.7578">
        <ele>352</ele>
        <time>2016-12-18T08:29:25.999Z</time>
      </trkpt>
      <trkpt lat="47.49664" lon="6.7578">
        <ele>347</ele>
        <time>2016-12-18T08:29:26.999Z</time>
      </trkpt>
      <trkpt lat="47.49658" lon="6.7578">
        <ele>347</ele>
        <time>2016-12-18T08:29:27.999Z</time>
      </trkpt>
      <trkpt lat="47.49652" lon="6.75782">
        <ele>347</ele>
        <time>2016-12-18T08:29:28.999Z</time>
      </trkpt>
      <trkpt lat="47.49646" lon="6.75782">
        <ele>346</ele>
        <time>2016-12-18T08:29:29.999Z</time>
      </trkpt>
      <trkpt lat="47.49639" lon="6.75782">
        <ele>346</ele>
        <time>2016-12-18T08:29:30.999Z</time>
      </trkpt>
      <trkpt lat="47.49631" lon="6.7578">
        <ele>346</ele>
        <time>2016-12-18T08:29:31.999Z</time>
      </trkpt>
      <trkpt lat="47.49625" lon="6.7578">
        <ele>345</ele>
        <time>2016-12-18T08:29:32.999Z</time>
      </trkpt>
      <trkpt lat="47.4962" lon="6.7578">
        <ele>345</ele>
        <time>2016-12-18T08:29:33.999Z</time>
      </trkpt>
      <trkpt lat="47.49615" lon="6.75782">
        <ele>345</ele>
        <time>2016-12-18T08:29:34.999Z</time>
      </trkpt>
      <trkpt lat="47.49611" lon="6.75782">
        <ele>345</ele>
        <time>2016-12-18T08:29:35.999Z</time>
      </trkpt>
      <trkpt lat="47.49608" lon="6.75781">
        <ele>344</ele>
        <time>2016-12-18T08:29:36.999Z</time>
      </trkpt>
      <trkpt lat="47.49608" lon="6.75781">
        <ele>344</ele>
        <time>2016-12-18T08:29:41.999Z</time>
      </trkpt>
      <trkpt lat="47.49591" lon="6.75777">
        <ele>342</ele>
        <time>2016-12-18T08:29:42.999Z</time>
      </trkpt>
      <trkpt lat="47.49591" lon="6.75777">
        <ele>342</ele>
        <time>2016-12-18T08:29:43.999Z</time>
      </trkpt>
      <trkpt lat="47.49582" lon="6.75776">
        <ele>336</ele>
        <time>2016-12-18T08:29:44.999Z</time>
      </trkpt>
      <trkpt lat="47.49577" lon="6.75777">
        <ele>336</ele>
        <time>2016-12-18T08:29:45.999Z</time>
      </trkpt>
      <trkpt lat="47.49572" lon="6.75778">
        <ele>336</ele>
        <time>2016-12-18T08:29:46.999Z</time>
      </trkpt>
      <trkpt lat="47.49568" lon="6.75778">
        <ele>336</ele>
        <time>2016-12-18T08:29:47.999Z</time>
      </trkpt>
      <trkpt lat="47.49565" lon="6.75775">
        <ele>336</ele>
        <time>2016-12-18T08:29:48.999Z</time>
      </trkpt>
      <trkpt lat="47.49563" lon="6.75773">
        <ele>336</ele>
        <time>2016-12-18T08:29:49.999Z</time>
      </trkpt>
      <trkpt lat="47.4956" lon="6.7577">
        <ele>335</ele>
        <time>2016-12-18T08:29:50.999Z</time>
      </trkpt>
      <trkpt lat="47.49559" lon="6.75768">
        <ele>335</ele>
        <time>2016-12-18T08:29:51.999Z</time>
      </trkpt>
      <trkpt lat="47.49557" lon="6.75765">
        <ele>335</ele>
        <time>2016-12-18T08:29:52.999Z</time>
      </trkpt>
      <trkpt lat="47.49556" lon="6.75763">
        <ele>335</ele>
        <time>2016-12-18T08:29:53.999Z</time>
      </trkpt>
      <trkpt lat="47.49556" lon="6.75758">
        <ele>335</ele>
        <time>2016-12-18T08:29:54.999Z</time>
      </trkpt>
      <trkpt lat="47.49557" lon="6.75754">
        <ele>335</ele>
        <time>2016-12-18T08:29:55.999Z</time>
      </trkpt>
      <trkpt lat="47.49559" lon="6.75751">
        <ele>335</ele>
        <time>2016-12-18T08:29:56.999Z</time>
      </trkpt>
      <trkpt lat="47.49562" lon="6.75748">
        <ele>329</ele>
        <time>2016-12-18T08:29:58.999Z</time>
      </trkpt>
      <trkpt lat="47.49564" lon="6.75747">
        <ele>329</ele>
        <time>2016-12-18T08:29:59.999Z</time>
      </trkpt>
      <trkpt lat="47.49567" lon="6.75745">
        <ele>329</ele>
        <time>2016-12-18T08:30:00.999Z</time>
      </trkpt>
      <trkpt lat="47.49571" lon="6.75742">
        <ele>330</ele>
        <time>2016-12-18T08:30:01.999Z</time>
      </trkpt>
      <trkpt lat="47.49574" lon="6.7574">
        <ele>330</ele>
        <time>2016-12-18T08:30:02.999Z</time>
      </trkpt>
      <trkpt lat="47.49577" lon="6.75737">
        <ele>330</ele>
        <time>2016-12-18T08:30:03.999Z</time>
      </trkpt>
      <trkpt lat="47.4958" lon="6.75734">
        <ele>330</ele>
        <time>2016-12-18T08:30:04.999Z</time>
      </trkpt>
      <trkpt lat="47.49583" lon="6.7573">
        <ele>329</ele>
        <time>2016-12-18T08:30:05.999Z</time>
      </trkpt>
      <trkpt lat="47.49586" lon="6.75725">
        <ele>332</ele>
        <time>2016-12-18T08:30:06.999Z</time>
      </trkpt>
      <trkpt lat="47.49589" lon="6.7572">
        <ele>331</ele>
        <time>2016-12-18T08:30:07.999Z</time>
      </trkpt>
      <trkpt lat="47.49592" lon="6.75714">
        <ele>331</ele>
        <time>2016-12-18T08:30:08.999Z</time>
      </trkpt>
      <trkpt lat="47.49596" lon="6.75709">
        <ele>330</ele>
        <time>2016-12-18T08:30:09.999Z</time>
      </trkpt>
      <trkpt lat="47.49596" lon="6.75702">
        <ele>330</ele>
        <time>2016-12-18T08:30:10.999Z</time>
      </trkpt>
      <trkpt lat="47.49594" lon="6.75696">
        <ele>329</ele>
        <time>2016-12-18T08:30:11.999Z</time>
      </trkpt>
      <trkpt lat="47.49591" lon="6.75688">
        <ele>327</ele>
        <time>2016-12-18T08:30:12.999Z</time>
      </trkpt>
      <trkpt lat="47.49588" lon="6.75681">
        <ele>326</ele>
        <time>2016-12-18T08:30:13.999Z</time>
      </trkpt>
      <trkpt lat="47.49585" lon="6.75675">
        <ele>324</ele>
        <time>2016-12-18T08:30:14.999Z</time>
      </trkpt>
      <trkpt lat="47.4958" lon="6.75672">
        <ele>322</ele>
        <time>2016-12-18T08:30:15.999Z</time>
      </trkpt>
      <trkpt lat="47.49574" lon="6.75672">
        <ele>323</ele>
        <time>2016-12-18T08:30:16.999Z</time>
      </trkpt>
      <trkpt lat="47.4957" lon="6.75675">
        <ele>323</ele>
        <time>2016-12-18T08:30:17.999Z</time>
      </trkpt>
      <trkpt lat="47.49564" lon="6.75679">
        <ele>323</ele>
        <time>2016-12-18T08:30:18.999Z</time>
      </trkpt>
      <trkpt lat="47.4956" lon="6.75683">
        <ele>324</ele>
        <time>2016-12-18T08:30:19.999Z</time>
      </trkpt>
      <trkpt lat="47.49556" lon="6.75688">
        <ele>324</ele>
        <time>2016-12-18T08:30:20.999Z</time>
      </trkpt>
      <trkpt lat="47.49551" lon="6.75694">
        <ele>324</ele>
        <time>2016-12-18T08:30:21.999Z</time>
      </trkpt>
      <trkpt lat="47.49546" lon="6.757">
        <ele>325</ele>
        <time>2016-12-18T08:30:22.999Z</time>
      </trkpt>
      <trkpt lat="47.49542" lon="6.75705">
        <ele>325</ele>
        <time>2016-12-18T08:30:23.999Z</time>
      </trkpt>
      <trkpt lat="47.49538" lon="6.7571">
        <ele>325</ele>
        <time>2016-12-18T08:30:24.999Z</time>
      </trkpt>
      <trkpt lat="47.49534" lon="6.75715">
        <ele>325</ele>
        <time>2016-12-18T08:30:25.999Z</time>
      </trkpt>
      <trkpt lat="47.49529" lon="6.7572">
        <ele>325</ele>
        <time>2016-12-18T08:30:26.999Z</time>
      </trkpt>
      <trkpt lat="47.49524" lon="6.75725">
        <ele>325</ele>
        <time>2016-12-18T08:30:27.999Z</time>
      </trkpt>
      <trkpt lat="47.49519" lon="6.75727">
        <ele>325</ele>
        <time>2016-12-18T08:30:28.999Z</time>
      </trkpt>
      <trkpt lat="47.49513" lon="6.7573">
        <ele>325</ele>
        <time>2016-12-18T08:30:29.999Z</time>
      </trkpt>
      <trkpt lat="47.49506" lon="6.75733">
        <ele>325</ele>
        <time>2016-12-18T08:30:30.999Z</time>
      </trkpt>
      <trkpt lat="47.49501" lon="6.75736">
        <ele>324</ele>
        <time>2016-12-18T08:30:31.999Z</time>
      </trkpt>
      <trkpt lat="47.49495" lon="6.75739">
        <ele>323</ele>
        <time>2016-12-18T08:30:32.999Z</time>
      </trkpt>
      <trkpt lat="47.49489" lon="6.75742">
        <ele>323</ele>
        <time>2016-12-18T08:30:33.999Z</time>
      </trkpt>
      <trkpt lat="47.49483" lon="6.7574">
        <ele>322</ele>
        <time>2016-12-18T08:30:34.999Z</time>
      </trkpt>
      <trkpt lat="47.4948" lon="6.75735">
        <ele>322</ele>
        <time>2016-12-18T08:30:35.999Z</time>
      </trkpt>
      <trkpt lat="47.49477" lon="6.75724">
        <ele>322</ele>
        <time>2016-12-18T08:30:36.999Z</time>
      </trkpt>
      <trkpt lat="47.49474" lon="6.75716">
        <ele>321</ele>
        <time>2016-12-18T08:30:37.999Z</time>
      </trkpt>
      <trkpt lat="47.49472" lon="6.7571">
        <ele>321</ele>
        <time>2016-12-18T08:30:38.999Z</time>
      </trkpt>
      <trkpt lat="47.49469" lon="6.75703">
        <ele>321</ele>
        <time>2016-12-18T08:30:39.999Z</time>
      </trkpt>
      <trkpt lat="47.49466" lon="6.75698">
        <ele>321</ele>
        <time>2016-12-18T08:30:40.999Z</time>
      </trkpt>
      <trkpt lat="47.49462" lon="6.75694">
        <ele>321</ele>
        <time>2016-12-18T08:30:41.999Z</time>
      </trkpt>
      <trkpt lat="47.49458" lon="6.75694">
        <ele>321</ele>
        <time>2016-12-18T08:30:42.999Z</time>
      </trkpt>
      <trkpt lat="47.49453" lon="6.75695">
        <ele>321</ele>
        <time>2016-12-18T08:30:43.999Z</time>
      </trkpt>
      <trkpt lat="47.49449" lon="6.75697">
        <ele>321</ele>
        <time>2016-12-18T08:30:44.999Z</time>
      </trkpt>
      <trkpt lat="47.49445" lon="6.75699">
        <ele>321</ele>
        <time>2016-12-18T08:30:45.999Z</time>
      </trkpt>
      <trkpt lat="47.49441" lon="6.75697">
        <ele>321</ele>
        <time>2016-12-18T08:30:47.999Z</time>
      </trkpt>
      <trkpt lat="47.4944" lon="6.75692">
        <ele>320</ele>
        <time>2016-12-18T08:30:48.999Z</time>
      </trkpt>
      <trkpt lat="47.49438" lon="6.75687">
        <ele>320</ele>
        <time>2016-12-18T08:30:49.999Z</time>
      </trkpt>
      <trkpt lat="47.49437" lon="6.75681">
        <ele>320</ele>
        <time>2016-12-18T08:30:50.999Z</time>
      </trkpt>
      <trkpt lat="47.49436" lon="6.75677">
        <ele>320</ele>
        <time>2016-12-18T08:30:51.999Z</time>
      </trkpt>
      <trkpt lat="47.49433" lon="6.75672">
        <ele>320</ele>
        <time>2016-12-18T08:30:52.999Z</time>
      </trkpt>
      <trkpt lat="47.4943" lon="6.75673">
        <ele>320</ele>
        <time>2016-12-18T08:30:53.999Z</time>
      </trkpt>
      <trkpt lat="47.49426" lon="6.75675">
        <ele>320</ele>
        <time>2016-12-18T08:30:54.999Z</time>
      </trkpt>
      <trkpt lat="47.49423" lon="6.75677">
        <ele>320</ele>
        <time>2016-12-18T08:30:55.999Z</time>
      </trkpt>
      <trkpt lat="47.4942" lon="6.75679">
        <ele>320</ele>
        <time>2016-12-18T08:30:56.999Z</time>
      </trkpt>
      <trkpt lat="47.49417" lon="6.75681">
        <ele>320</ele>
        <time>2016-12-18T08:30:57.999Z</time>
      </trkpt>
      <trkpt lat="47.49412" lon="6.75685">
        <ele>319</ele>
        <time>2016-12-18T08:30:58.999Z</time>
      </trkpt>
      <trkpt lat="47.49407" lon="6.75688">
        <ele>319</ele>
        <time>2016-12-18T08:30:59.999Z</time>
      </trkpt>
      <trkpt lat="47.49402" lon="6.75693">
        <ele>319</ele>
        <time>2016-12-18T08:31:00.999Z</time>
      </trkpt>
      <trkpt lat="47.49397" lon="6.75696">
        <ele>319</ele>
        <time>2016-12-18T08:31:01.999Z</time>
      </trkpt>
      <trkpt lat="47.49392" lon="6.75701">
        <ele>319</ele>
        <time>2016-12-18T08:31:02.999Z</time>
      </trkpt>
      <trkpt lat="47.49388" lon="6.75704">
        <ele>319</ele>
        <time>2016-12-18T08:31:03.999Z</time>
      </trkpt>
      <trkpt lat="47.49384" lon="6.75706">
        <ele>319</ele>
        <time>2016-12-18T08:31:04.999Z</time>
      </trkpt>
      <trkpt lat="47.49377" lon="6.7571">
        <ele>319</ele>
        <time>2016-12-18T08:31:06.999Z</time>
      </trkpt>
      <trkpt lat="47.49375" lon="6.75714">
        <ele>319</ele>
        <time>2016-12-18T08:31:07.999Z</time>
      </trkpt>
      <trkpt lat="47.49371" lon="6.75717">
        <ele>319</ele>
        <time>2016-12-18T08:31:08.999Z</time>
      </trkpt>
      <trkpt lat="47.49367" lon="6.75719">
        <ele>319</ele>
        <time>2016-12-18T08:31:09.999Z</time>
      </trkpt>
      <trkpt lat="47.49365" lon="6.7572">
        <ele>319</ele>
        <time>2016-12-18T08:31:10.999Z</time>
      </trkpt>
      <trkpt lat="47.49363" lon="6.75723">
        <ele>319</ele>
        <time>2016-12-18T08:31:11.999Z</time>
      </trkpt>
      <trkpt lat="47.4936" lon="6.75723">
        <ele>319</ele>
        <time>2016-12-18T08:31:12.999Z</time>
      </trkpt>
      <trkpt lat="47.49357" lon="6.75725">
        <ele>319</ele>
        <time>2016-12-18T08:31:13.999Z</time>
      </trkpt>
      <trkpt lat="47.49353" lon="6.75726">
        <ele>319</ele>
        <time>2016-12-18T08:31:14.999Z</time>
      </trkpt>
      <trkpt lat="47.49349" lon="6.75727">
        <ele>319</ele>
        <time>2016-12-18T08:31:15.999Z</time>
      </trkpt>
      <trkpt lat="47.49344" lon="6.7573">
        <ele>318</ele>
        <time>2016-12-18T08:31:16.999Z</time>
      </trkpt>
      <trkpt lat="47.49341" lon="6.75734">
        <ele>318</ele>
        <time>2016-12-18T08:31:17.999Z</time>
      </trkpt>
      <trkpt lat="47.49336" lon="6.75737">
        <ele>318</ele>
        <time>2016-12-18T08:31:18.999Z</time>
      </trkpt>
      <trkpt lat="47.49332" lon="6.75741">
        <ele>318</ele>
        <time>2016-12-18T08:31:19.999Z</time>
      </trkpt>
      <trkpt lat="47.49327" lon="6.75747">
        <ele>318</ele>
        <time>2016-12-18T08:31:20.999Z</time>
      </trkpt>
      <trkpt lat="47.49323" lon="6.75754">
        <ele>318</ele>
        <time>2016-12-18T08:31:21.999Z</time>
      </trkpt>
      <trkpt lat="47.49319" lon="6.75761">
        <ele>318</ele>
        <time>2016-12-18T08:31:22.999Z</time>
      </trkpt>
      <trkpt lat="47.49314" lon="6.75766">
        <ele>318</ele>
        <time>2016-12-18T08:31:23.999Z</time>
      </trkpt>
      <trkpt lat="47.49309" lon="6.75771">
        <ele>318</ele>
        <time>2016-12-18T08:31:24.999Z</time>
      </trkpt>
      <trkpt lat="47.49305" lon="6.75774">
        <ele>318</ele>
        <time>2016-12-18T08:31:25.999Z</time>
      </trkpt>
      <trkpt lat="47.493" lon="6.75778">
        <ele>318</ele>
        <time>2016-12-18T08:31:26.999Z</time>
      </trkpt>
      <trkpt lat="47.49296" lon="6.7578">
        <ele>318</ele>
        <time>2016-12-18T08:31:27.999Z</time>
      </trkpt>
      <trkpt lat="47.4929" lon="6.75785">
        <ele>318</ele>
        <time>2016-12-18T08:31:28.999Z</time>
      </trkpt>
      <trkpt lat="47.49285" lon="6.7579">
        <ele>318</ele>
        <time>2016-12-18T08:31:29.999Z</time>
      </trkpt>
      <trkpt lat="47.49281" lon="6.75794">
        <ele>318</ele>
        <time>2016-12-18T08:31:30.999Z</time>
      </trkpt>
      <trkpt lat="47.49277" lon="6.758">
        <ele>317</ele>
        <time>2016-12-18T08:31:31.999Z</time>
      </trkpt>
      <trkpt lat="47.49274" lon="6.75804">
        <ele>317</ele>
        <time>2016-12-18T08:31:32.999Z</time>
      </trkpt>
      <trkpt lat="47.49271" lon="6.75807">
        <ele>317</ele>
        <time>2016-12-18T08:31:33.999Z</time>
      </trkpt>
      <trkpt lat="47.49268" lon="6.75811">
        <ele>317</ele>
        <time>2016-12-18T08:31:34.999Z</time>
      </trkpt>
      <trkpt lat="47.49264" lon="6.75815">
        <ele>316</ele>
        <time>2016-12-18T08:31:35.999Z</time>
      </trkpt>
      <trkpt lat="47.4926" lon="6.75823">
        <ele>315</ele>
        <time>2016-12-18T08:31:36.999Z</time>
      </trkpt>
      <trkpt lat="47.49254" lon="6.7583">
        <ele>314</ele>
        <time>2016-12-18T08:31:37.999Z</time>
      </trkpt>
      <trkpt lat="47.4925" lon="6.75838">
        <ele>314</ele>
        <time>2016-12-18T08:31:38.999Z</time>
      </trkpt>
      <trkpt lat="47.49247" lon="6.75845">
        <ele>316</ele>
        <time>2016-12-18T08:31:39.999Z</time>
      </trkpt>
      <trkpt lat="47.49243" lon="6.75852">
        <ele>317</ele>
        <time>2016-12-18T08:31:40.999Z</time>
      </trkpt>
      <trkpt lat="47.4924" lon="6.7586">
        <ele>317</ele>
        <time>2016-12-18T08:31:41.999Z</time>
      </trkpt>
      <trkpt lat="47.49237" lon="6.75867">
        <ele>318</ele>
        <time>2016-12-18T08:31:42.999Z</time>
      </trkpt>
      <trkpt lat="47.49234" lon="6.75873">
        <ele>318</ele>
        <time>2016-12-18T08:31:43.999Z</time>
      </trkpt>
      <trkpt lat="47.49232" lon="6.75879">
        <ele>318</ele>
        <time>2016-12-18T08:31:44.999Z</time>
      </trkpt>
      <trkpt lat="47.4923" lon="6.75884">
        <ele>318</ele>
        <time>2016-12-18T08:31:45.999Z</time>
      </trkpt>
      <trkpt lat="47.49228" lon="6.75889">
        <ele>318</ele>
        <time>2016-12-18T08:31:46.999Z</time>
      </trkpt>
      <trkpt lat="47.49225" lon="6.75895">
        <ele>319</ele>
        <time>2016-12-18T08:31:47.999Z</time>
      </trkpt>
      <trkpt lat="47.4922" lon="6.75903">
        <ele>319</ele>
        <time>2016-12-18T08:31:48.999Z</time>
      </trkpt>
      <trkpt lat="47.49217" lon="6.75908">
        <ele>319</ele>
        <time>2016-12-18T08:31:49.999Z</time>
      </trkpt>
      <trkpt lat="47.49215" lon="6.75913">
        <ele>319</ele>
        <time>2016-12-18T08:31:50.999Z</time>
      </trkpt>
      <trkpt lat="47.49212" lon="6.75916">
        <ele>319</ele>
        <time>2016-12-18T08:31:51.999Z</time>
      </trkpt>
      <trkpt lat="47.4921" lon="6.75921">
        <ele>320</ele>
        <time>2016-12-18T08:31:52.999Z</time>
      </trkpt>
      <trkpt lat="47.49208" lon="6.75929">
        <ele>320</ele>
        <time>2016-12-18T08:31:53.999Z</time>
      </trkpt>
      <trkpt lat="47.49207" lon="6.75934">
        <ele>320</ele>
        <time>2016-12-18T08:31:54.999Z</time>
      </trkpt>
      <trkpt lat="47.49205" lon="6.75936">
        <ele>320</ele>
        <time>2016-12-18T08:31:55.999Z</time>
      </trkpt>
      <trkpt lat="47.49203" lon="6.75941">
        <ele>320</ele>
        <time>2016-12-18T08:31:56.999Z</time>
      </trkpt>
      <trkpt lat="47.492" lon="6.75949">
        <ele>320</ele>
        <time>2016-12-18T08:31:57.999Z</time>
      </trkpt>
      <trkpt lat="47.49198" lon="6.75954">
        <ele>320</ele>
        <time>2016-12-18T08:31:58.999Z</time>
      </trkpt>
      <trkpt lat="47.49197" lon="6.75961">
        <ele>320</ele>
        <time>2016-12-18T08:31:59.999Z</time>
      </trkpt>
      <trkpt lat="47.49195" lon="6.75967">
        <ele>320</ele>
        <time>2016-12-18T08:32:00.999Z</time>
      </trkpt>
      <trkpt lat="47.49193" lon="6.75973">
        <ele>320</ele>
        <time>2016-12-18T08:32:01.999Z</time>
      </trkpt>
      <trkpt lat="47.49191" lon="6.75981">
        <ele>320</ele>
        <time>2016-12-18T08:32:02.999Z</time>
      </trkpt>
      <trkpt lat="47.49187" lon="6.75989">
        <ele>320</ele>
        <time>2016-12-18T08:32:03.999Z</time>
      </trkpt>
      <trkpt lat="47.49185" lon="6.75994">
        <ele>320</ele>
        <time>2016-12-18T08:32:04.999Z</time>
      </trkpt>
      <trkpt lat="47.49178" lon="6.76007">
        <ele>320</ele>
        <time>2016-12-18T08:32:06.999Z</time>
      </trkpt>
      <trkpt lat="47.49175" lon="6.76015">
        <ele>320</ele>
        <time>2016-12-18T08:32:07.999Z</time>
      </trkpt>
      <trkpt lat="47.49172" lon="6.7602">
        <ele>320</ele>
        <time>2016-12-18T08:32:08.999Z</time>
      </trkpt>
      <trkpt lat="47.49169" lon="6.76026">
        <ele>320</ele>
        <time>2016-12-18T08:32:09.999Z</time>
      </trkpt>
      <trkpt lat="47.49166" lon="6.76032">
        <ele>322</ele>
        <time>2016-12-18T08:32:10.999Z</time>
      </trkpt>
      <trkpt lat="47.49164" lon="6.76039">
        <ele>322</ele>
        <time>2016-12-18T08:32:11.999Z</time>
      </trkpt>
      <trkpt lat="47.49161" lon="6.76047">
        <ele>322</ele>
        <time>2016-12-18T08:32:12.999Z</time>
      </trkpt>
      <trkpt lat="47.49158" lon="6.76053">
        <ele>322</ele>
        <time>2016-12-18T08:32:13.999Z</time>
      </trkpt>
      <trkpt lat="47.49156" lon="6.76058">
        <ele>322</ele>
        <time>2016-12-18T08:32:14.999Z</time>
      </trkpt>
      <trkpt lat="47.49154" lon="6.76064">
        <ele>322</ele>
        <time>2016-12-18T08:32:15.999Z</time>
      </trkpt>
      <trkpt lat="47.49153" lon="6.7607">
        <ele>321</ele>
        <time>2016-12-18T08:32:16.999Z</time>
      </trkpt>
      <trkpt lat="47.49152" lon="6.76075">
        <ele>321</ele>
        <time>2016-12-18T08:32:17.999Z</time>
      </trkpt>
      <trkpt lat="47.4915" lon="6.76081">
        <ele>321</ele>
        <time>2016-12-18T08:32:18.999Z</time>
      </trkpt>
      <trkpt lat="47.49147" lon="6.76089">
        <ele>321</ele>
        <time>2016-12-18T08:32:19.999Z</time>
      </trkpt>
      <trkpt lat="47.49145" lon="6.76096">
        <ele>321</ele>
        <time>2016-12-18T08:32:20.999Z</time>
      </trkpt>
      <trkpt lat="47.49142" lon="6.76104">
        <ele>321</ele>
        <time>2016-12-18T08:32:21.999Z</time>
      </trkpt>
      <trkpt lat="47.49141" lon="6.76111">
        <ele>321</ele>
        <time>2016-12-18T08:32:22.999Z</time>
      </trkpt>
      <trkpt lat="47.49139" lon="6.76118">
        <ele>322</ele>
        <time>2016-12-18T08:32:23.999Z</time>
      </trkpt>
      <trkpt lat="47.49139" lon="6.76126">
        <ele>322</ele>
        <time>2016-12-18T08:32:24.999Z</time>
      </trkpt>
      <trkpt lat="47.49139" lon="6.76135">
        <ele>322</ele>
        <time>2016-12-18T08:32:25.999Z</time>
      </trkpt>
      <trkpt lat="47.49137" lon="6.76144">
        <ele>322</ele>
        <time>2016-12-18T08:32:26.999Z</time>
      </trkpt>
      <trkpt lat="47.49135" lon="6.76154">
        <ele>322</ele>
        <time>2016-12-18T08:32:27.999Z</time>
      </trkpt>
      <trkpt lat="47.49134" lon="6.76162">
        <ele>322</ele>
        <time>2016-12-18T08:32:28.999Z</time>
      </trkpt>
      <trkpt lat="47.49133" lon="6.7617">
        <ele>321</ele>
        <time>2016-12-18T08:32:29.999Z</time>
      </trkpt>
      <trkpt lat="47.49131" lon="6.76178">
        <ele>321</ele>
        <time>2016-12-18T08:32:30.999Z</time>
      </trkpt>
      <trkpt lat="47.4913" lon="6.76185">
        <ele>321</ele>
        <time>2016-12-18T08:32:31.999Z</time>
      </trkpt>
      <trkpt lat="47.4913" lon="6.76191">
        <ele>321</ele>
        <time>2016-12-18T08:32:32.999Z</time>
      </trkpt>
      <trkpt lat="47.49129" lon="6.76198">
        <ele>321</ele>
        <time>2016-12-18T08:32:33.999Z</time>
      </trkpt>
      <trkpt lat="47.49129" lon="6.76204">
        <ele>321</ele>
        <time>2016-12-18T08:32:34.999Z</time>
      </trkpt>
      <trkpt lat="47.49129" lon="6.7621">
        <ele>321</ele>
        <time>2016-12-18T08:32:35.999Z</time>
      </trkpt>
      <trkpt lat="47.49128" lon="6.76215">
        <ele>321</ele>
        <time>2016-12-18T08:32:36.999Z</time>
      </trkpt>
      <trkpt lat="47.49128" lon="6.76221">
        <ele>321</ele>
        <time>2016-12-18T08:32:37.999Z</time>
      </trkpt>
      <trkpt lat="47.49128" lon="6.76227">
        <ele>321</ele>
        <time>2016-12-18T08:32:38.999Z</time>
      </trkpt>
      <trkpt lat="47.49129" lon="6.76234">
        <ele>321</ele>
        <time>2016-12-18T08:32:39.999Z</time>
      </trkpt>
      <trkpt lat="47.4913" lon="6.76237">
        <ele>321</ele>
        <time>2016-12-18T08:32:40.999Z</time>
      </trkpt>
      <trkpt lat="47.4913" lon="6.76241">
        <ele>320</ele>
        <time>2016-12-18T08:32:41.999Z</time>
      </trkpt>
      <trkpt lat="47.49132" lon="6.76245">
        <ele>320</ele>
        <time>2016-12-18T08:32:42.999Z</time>
      </trkpt>
      <trkpt lat="47.49134" lon="6.7625">
        <ele>319</ele>
        <time>2016-12-18T08:32:43.999Z</time>
      </trkpt>
      <trkpt lat="47.49133" lon="6.76255">
        <ele>319</ele>
        <time>2016-12-18T08:32:44.999Z</time>
      </trkpt>
      <trkpt lat="47.49133" lon="6.76261">
        <ele>319</ele>
        <time>2016-12-18T08:32:45.999Z</time>
      </trkpt>
      <trkpt lat="47.49133" lon="6.76268">
        <ele>319</ele>
        <time>2016-12-18T08:32:46.999Z</time>
      </trkpt>
      <trkpt lat="47.49132" lon="6.76277">
        <ele>319</ele>
        <time>2016-12-18T08:32:47.999Z</time>
      </trkpt>
      <trkpt lat="47.49132" lon="6.76286">
        <ele>319</ele>
        <time>2016-12-18T08:32:48.999Z</time>
      </trkpt>
      <trkpt lat="47.49132" lon="6.76294">
        <ele>319</ele>
        <time>2016-12-18T08:32:49.999Z</time>
      </trkpt>
      <trkpt lat="47.49132" lon="6.76304">
        <ele>319</ele>
        <time>2016-12-18T08:32:50.999Z</time>
      </trkpt>
      <trkpt lat="47.49131" lon="6.76311">
        <ele>319</ele>
        <time>2016-12-18T08:32:51.999Z</time>
      </trkpt>
      <trkpt lat="47.49131" lon="6.76318">
        <ele>319</ele>
        <time>2016-12-18T08:32:52.999Z</time>
      </trkpt>
      <trkpt lat="47.4913" lon="6.76323">
        <ele>319</ele>
        <time>2016-12-18T08:32:53.999Z</time>
      </trkpt>
      <trkpt lat="47.49131" lon="6.76332">
        <ele>319</ele>
        <time>2016-12-18T08:32:54.999Z</time>
      </trkpt>
      <trkpt lat="47.49132" lon="6.7634">
        <ele>317</ele>
        <time>2016-12-18T08:32:55.999Z</time>
      </trkpt>
      <trkpt lat="47.49132" lon="6.7635">
        <ele>317</ele>
        <time>2016-12-18T08:32:56.999Z</time>
      </trkpt>
      <trkpt lat="47.49133" lon="6.7636">
        <ele>317</ele>
        <time>2016-12-18T08:32:57.999Z</time>
      </trkpt>
      <trkpt lat="47.49133" lon="6.76371">
        <ele>317</ele>
        <time>2016-12-18T08:32:58.999Z</time>
      </trkpt>
      <trkpt lat="47.49132" lon="6.76382">
        <ele>317</ele>
        <time>2016-12-18T08:32:59.999Z</time>
      </trkpt>
      <trkpt lat="47.49131" lon="6.76389">
        <ele>317</ele>
        <time>2016-12-18T08:33:00.999Z</time>
      </trkpt>
      <trkpt lat="47.4913" lon="6.76397">
        <ele>317</ele>
        <time>2016-12-18T08:33:01.999Z</time>
      </trkpt>
      <trkpt lat="47.49129" lon="6.76404">
        <ele>317</ele>
        <time>2016-12-18T08:33:02.999Z</time>
      </trkpt>
      <trkpt lat="47.49128" lon="6.7641">
        <ele>317</ele>
        <time>2016-12-18T08:33:03.999Z</time>
      </trkpt>
      <trkpt lat="47.49127" lon="6.76416">
        <ele>317</ele>
        <time>2016-12-18T08:33:04.999Z</time>
      </trkpt>
      <trkpt lat="47.49123" lon="6.76428">
        <ele>317</ele>
        <time>2016-12-18T08:33:06.999Z</time>
      </trkpt>
      <trkpt lat="47.49124" lon="6.76432">
        <ele>317</ele>
        <time>2016-12-18T08:33:16.999Z</time>
      </trkpt>
      <trkpt lat="47.49124" lon="6.76448">
        <ele>317</ele>
        <time>2016-12-18T08:33:17.999Z</time>
      </trkpt>
      <trkpt lat="47.49124" lon="6.76454">
        <ele>317</ele>
        <time>2016-12-18T08:33:18.999Z</time>
      </trkpt>
      <trkpt lat="47.49124" lon="6.76459">
        <ele>317</ele>
        <time>2016-12-18T08:33:19.999Z</time>
      </trkpt>
      <trkpt lat="47.49124" lon="6.76465">
        <ele>317</ele>
        <time>2016-12-18T08:33:21.999Z</time>
      </trkpt>
      <trkpt lat="47.49123" lon="6.76468">
        <ele>317</ele>
        <time>2016-12-18T08:33:22.999Z</time>
      </trkpt>
      <trkpt lat="47.49122" lon="6.76475">
        <ele>317</ele>
        <time>2016-12-18T08:33:23.999Z</time>
      </trkpt>
      <trkpt lat="47.49121" lon="6.7648">
        <ele>317</ele>
        <time>2016-12-18T08:33:24.999Z</time>
      </trkpt>
      <trkpt lat="47.49121" lon="6.76485">
        <ele>317</ele>
        <time>2016-12-18T08:33:25.999Z</time>
      </trkpt>
      <trkpt lat="47.49123" lon="6.76492">
        <ele>317</ele>
        <time>2016-12-18T08:33:26.999Z</time>
      </trkpt>
      <trkpt lat="47.49125" lon="6.76497">
        <ele>317</ele>
        <time>2016-12-18T08:33:27.999Z</time>
      </trkpt>
      <trkpt lat="47.49127" lon="6.76502">
        <ele>316</ele>
        <time>2016-12-18T08:33:28.999Z</time>
      </trkpt>
      <trkpt lat="47.4913" lon="6.76507">
        <ele>316</ele>
        <time>2016-12-18T08:33:29.999Z</time>
      </trkpt>
      <trkpt lat="47.49134" lon="6.76508">
        <ele>316</ele>
        <time>2016-12-18T08:33:30.999Z</time>
      </trkpt>
      <trkpt lat="47.49137" lon="6.76508">
        <ele>315</ele>
        <time>2016-12-18T08:33:31.999Z</time>
      </trkpt>
      <trkpt lat="47.4914" lon="6.76509">
        <ele>315</ele>
        <time>2016-12-18T08:33:32.999Z</time>
      </trkpt>
      <trkpt lat="47.49143" lon="6.7651">
        <ele>315</ele>
        <time>2016-12-18T08:33:33.999Z</time>
      </trkpt>
      <trkpt lat="47.49146" lon="6.76511">
        <ele>315</ele>
        <time>2016-12-18T08:33:34.999Z</time>
      </trkpt>
      <trkpt lat="47.49149" lon="6.76511">
        <ele>315</ele>
        <time>2016-12-18T08:33:35.999Z</time>
      </trkpt>
      <trkpt lat="47.49152" lon="6.76512">
        <ele>315</ele>
        <time>2016-12-18T08:33:36.999Z</time>
      </trkpt>
      <trkpt lat="47.49156" lon="6.76512">
        <ele>314</ele>
        <time>2016-12-18T08:33:37.999Z</time>
      </trkpt>
      <trkpt lat="47.49159" lon="6.76512">
        <ele>314</ele>
        <time>2016-12-18T08:33:38.999Z</time>
      </trkpt>
      <trkpt lat="47.49163" lon="6.76513">
        <ele>314</ele>
        <time>2016-12-18T08:33:39.999Z</time>
      </trkpt>
      <trkpt lat="47.49167" lon="6.76512">
        <ele>314</ele>
        <time>2016-12-18T08:33:40.999Z</time>
      </trkpt>
      <trkpt lat="47.4917" lon="6.76512">
        <ele>314</ele>
        <time>2016-12-18T08:33:41.999Z</time>
      </trkpt>
      <trkpt lat="47.49172" lon="6.76511">
        <ele>314</ele>
        <time>2016-12-18T08:33:42.999Z</time>
      </trkpt>
      <trkpt lat="47.49175" lon="6.76509">
        <ele>314</ele>
        <time>2016-12-18T08:33:43.999Z</time>
      </trkpt>
      <trkpt lat="47.49177" lon="6.76506">
        <ele>315</ele>
        <time>2016-12-18T08:33:44.999Z</time>
      </trkpt>
      <trkpt lat="47.4918" lon="6.76507">
        <ele>315</ele>
        <time>2016-12-18T08:33:45.999Z</time>
      </trkpt>
      <trkpt lat="47.49183" lon="6.76508">
        <ele>315</ele>
        <time>2016-12-18T08:33:46.999Z</time>
      </trkpt>
      <trkpt lat="47.49186" lon="6.76504">
        <ele>315</ele>
        <time>2016-12-18T08:33:48.999Z</time>
      </trkpt>
      <trkpt lat="47.49186" lon="6.76499">
        <ele>316</ele>
        <time>2016-12-18T08:33:49.999Z</time>
      </trkpt>
      <trkpt lat="47.49185" lon="6.76497">
        <ele>316</ele>
        <time>2016-12-18T08:33:50.999Z</time>
      </trkpt>
      <trkpt lat="47.49183" lon="6.76495">
        <ele>315</ele>
        <time>2016-12-18T08:33:51.999Z</time>
      </trkpt>
      <trkpt lat="47.49178" lon="6.76494">
        <ele>315</ele>
        <time>2016-12-18T08:35:42.999Z</time>
      </trkpt>
      <trkpt lat="47.49178" lon="6.76494">
        <ele>315</ele>
        <time>2016-12-18T08:35:43.999Z</time>
      </trkpt>
      <trkpt lat="47.49178" lon="6.76497">
        <ele>315</ele>
        <time>2016-12-18T08:36:00.999Z</time>
      </trkpt>
      <trkpt lat="47.49176" lon="6.76502">
        <ele>314</ele>
        <time>2016-12-18T08:36:01.999Z</time>
      </trkpt>
      <trkpt lat="47.49175" lon="6.76508">
        <ele>314</ele>
        <time>2016-12-18T08:36:02.999Z</time>
      </trkpt>
      <trkpt lat="47.49174" lon="6.76511">
        <ele>315</ele>
        <time>2016-12-18T08:36:03.999Z</time>
      </trkpt>
      <trkpt lat="47.49173" lon="6.76513">
        <ele>315</ele>
        <time>2016-12-18T08:36:04.999Z</time>
      </trkpt>
      <trkpt lat="47.49167" lon="6.76518">
        <ele>315</ele>
        <time>2016-12-18T08:36:06.999Z</time>
      </trkpt>
      <trkpt lat="47.49163" lon="6.7652">
        <ele>314</ele>
        <time>2016-12-18T08:36:07.999Z</time>
      </trkpt>
      <trkpt lat="47.49158" lon="6.76523">
        <ele>315</ele>
        <time>2016-12-18T08:36:08.999Z</time>
      </trkpt>
      <trkpt lat="47.49153" lon="6.76526">
        <ele>315</ele>
        <time>2016-12-18T08:36:09.999Z</time>
      </trkpt>
      <trkpt lat="47.49149" lon="6.76529">
        <ele>315</ele>
        <time>2016-12-18T08:36:10.999Z</time>
      </trkpt>
      <trkpt lat="47.49146" lon="6.7653">
        <ele>315</ele>
        <time>2016-12-18T08:36:11.999Z</time>
      </trkpt>
      <trkpt lat="47.49142" lon="6.76531">
        <ele>315</ele>
        <time>2016-12-18T08:36:12.999Z</time>
      </trkpt>
      <trkpt lat="47.49139" lon="6.76532">
        <ele>315</ele>
        <time>2016-12-18T08:36:13.999Z</time>
      </trkpt>
      <trkpt lat="47.49136" lon="6.76531">
        <ele>315</ele>
        <time>2016-12-18T08:36:14.999Z</time>
      </trkpt>
      <trkpt lat="47.49132" lon="6.7653">
        <ele>316</ele>
        <time>2016-12-18T08:36:15.999Z</time>
      </trkpt>
      <trkpt lat="47.49129" lon="6.76528">
        <ele>316</ele>
        <time>2016-12-18T08:36:16.999Z</time>
      </trkpt>
      <trkpt lat="47.49128" lon="6.76527">
        <ele>316</ele>
        <time>2016-12-18T08:36:17.999Z</time>
      </trkpt>
      <trkpt lat="47.49125" lon="6.76522">
        <ele>316</ele>
        <time>2016-12-18T08:36:19.999Z</time>
      </trkpt>
      <trkpt lat="47.49122" lon="6.76519">
        <ele>316</ele>
        <time>2016-12-18T08:36:20.999Z</time>
      </trkpt>
      <trkpt lat="47.49121" lon="6.76516">
        <ele>316</ele>
        <time>2016-12-18T08:36:21.999Z</time>
      </trkpt>
      <trkpt lat="47.4912" lon="6.76513">
        <ele>316</ele>
        <time>2016-12-18T08:36:22.999Z</time>
      </trkpt>
      <trkpt lat="47.49119" lon="6.76507">
        <ele>317</ele>
        <time>2016-12-18T08:36:24.999Z</time>
      </trkpt>
      <trkpt lat="47.49119" lon="6.76504">
        <ele>317</ele>
        <time>2016-12-18T08:36:25.999Z</time>
      </trkpt>
      <trkpt lat="47.4912" lon="6.76501">
        <ele>317</ele>
        <time>2016-12-18T08:36:26.999Z</time>
      </trkpt>
      <trkpt lat="47.4912" lon="6.76497">
        <ele>317</ele>
        <time>2016-12-18T08:36:27.999Z</time>
      </trkpt>
      <trkpt lat="47.4912" lon="6.76492">
        <ele>317</ele>
        <time>2016-12-18T08:36:28.999Z</time>
      </trkpt>
      <trkpt lat="47.49121" lon="6.76487">
        <ele>317</ele>
        <time>2016-12-18T08:36:29.999Z</time>
      </trkpt>
      <trkpt lat="47.49122" lon="6.76483">
        <ele>317</ele>
        <time>2016-12-18T08:36:30.999Z</time>
      </trkpt>
      <trkpt lat="47.49122" lon="6.76477">
        <ele>317</ele>
        <time>2016-12-18T08:36:31.999Z</time>
      </trkpt>
      <trkpt lat="47.49122" lon="6.76471">
        <ele>317</ele>
        <time>2016-12-18T08:36:32.999Z</time>
      </trkpt>
      <trkpt lat="47.49122" lon="6.76466">
        <ele>317</ele>
        <time>2016-12-18T08:36:33.999Z</time>
      </trkpt>
      <trkpt lat="47.49122" lon="6.76463">
        <ele>317</ele>
        <time>2016-12-18T08:36:34.999Z</time>
      </trkpt>
      <trkpt lat="47.49122" lon="6.76458">
        <ele>317</ele>
        <time>2016-12-18T08:36:35.999Z</time>
      </trkpt>
      <trkpt lat="47.49122" lon="6.76453">
        <ele>317</ele>
        <time>2016-12-18T08:36:36.999Z</time>
      </trkpt>
      <trkpt lat="47.49123" lon="6.7645">
        <ele>317</ele>
        <time>2016-12-18T08:36:37.999Z</time>
      </trkpt>
      <trkpt lat="47.49123" lon="6.76446">
        <ele>317</ele>
        <time>2016-12-18T08:36:38.999Z</time>
      </trkpt>
      <trkpt lat="47.49124" lon="6.76442">
        <ele>317</ele>
        <time>2016-12-18T08:36:39.999Z</time>
      </trkpt>
      <trkpt lat="47.49124" lon="6.76439">
        <ele>317</ele>
        <time>2016-12-18T08:36:41.999Z</time>
      </trkpt>
      <trkpt lat="47.49124" lon="6.76434">
        <ele>317</ele>
        <time>2016-12-18T08:36:42.999Z</time>
      </trkpt>
      <trkpt lat="47.49125" lon="6.76428">
        <ele>317</ele>
        <time>2016-12-18T08:36:50.999Z</time>
      </trkpt>
      <trkpt lat="47.49125" lon="6.76427">
        <ele>317</ele>
        <time>2016-12-18T08:36:51.999Z</time>
      </trkpt>
      <trkpt lat="47.49121" lon="6.76425">
        <ele>317</ele>
        <time>2016-12-18T08:36:54.999Z</time>
      </trkpt>
      <trkpt lat="47.49119" lon="6.76424">
        <ele>317</ele>
        <time>2016-12-18T08:36:55.999Z</time>
      </trkpt>
      <trkpt lat="47.49115" lon="6.76424">
        <ele>318</ele>
        <time>2016-12-18T08:36:59.999Z</time>
      </trkpt>
      <trkpt lat="47.49114" lon="6.76424">
        <ele>318</ele>
        <time>2016-12-18T08:37:00.999Z</time>
      </trkpt>
      <trkpt lat="47.4911" lon="6.76423">
        <ele>318</ele>
        <time>2016-12-18T08:37:03.999Z</time>
      </trkpt>
      <trkpt lat="47.49107" lon="6.76423">
        <ele>318</ele>
        <time>2016-12-18T08:37:04.999Z</time>
      </trkpt>
      <trkpt lat="47.491" lon="6.76429">
        <ele>319</ele>
        <time>2016-12-18T08:37:06.999Z</time>
      </trkpt>
      <trkpt lat="47.49099" lon="6.76435">
        <ele>319</ele>
        <time>2016-12-18T08:37:07.999Z</time>
      </trkpt>
      <trkpt lat="47.49098" lon="6.76443">
        <ele>318</ele>
        <time>2016-12-18T08:37:08.999Z</time>
      </trkpt>
      <trkpt lat="47.49099" lon="6.7645">
        <ele>318</ele>
        <time>2016-12-18T08:37:09.999Z</time>
      </trkpt>
      <trkpt lat="47.491" lon="6.76459">
        <ele>318</ele>
        <time>2016-12-18T08:37:10.999Z</time>
      </trkpt>
      <trkpt lat="47.49102" lon="6.76465">
        <ele>318</ele>
        <time>2016-12-18T08:37:11.999Z</time>
      </trkpt>
      <trkpt lat="47.49102" lon="6.7647">
        <ele>318</ele>
        <time>2016-12-18T08:37:12.999Z</time>
      </trkpt>
      <trkpt lat="47.49102" lon="6.76478">
        <ele>318</ele>
        <time>2016-12-18T08:37:13.999Z</time>
      </trkpt>
      <trkpt lat="47.49102" lon="6.76486">
        <ele>319</ele>
        <time>2016-12-18T08:37:14.999Z</time>
      </trkpt>
      <trkpt lat="47.49101" lon="6.76494">
        <ele>319</ele>
        <time>2016-12-18T08:37:15.999Z</time>
      </trkpt>
      <trkpt lat="47.491" lon="6.76503">
        <ele>318</ele>
        <time>2016-12-18T08:37:16.999Z</time>
      </trkpt>
      <trkpt lat="47.491" lon="6.7651">
        <ele>318</ele>
        <time>2016-12-18T08:37:17.999Z</time>
      </trkpt>
      <trkpt lat="47.491" lon="6.76517">
        <ele>318</ele>
        <time>2016-12-18T08:37:18.999Z</time>
      </trkpt>
      <trkpt lat="47.491" lon="6.76524">
        <ele>317</ele>
        <time>2016-12-18T08:37:19.999Z</time>
      </trkpt>
      <trkpt lat="47.49099" lon="6.76531">
        <ele>317</ele>
        <time>2016-12-18T08:37:20.999Z</time>
      </trkpt>
      <trkpt lat="47.49098" lon="6.76536">
        <ele>317</ele>
        <time>2016-12-18T08:37:21.999Z</time>
      </trkpt>
      <trkpt lat="47.49096" lon="6.7654">
        <ele>317</ele>
        <time>2016-12-18T08:37:22.999Z</time>
      </trkpt>
      <trkpt lat="47.49095" lon="6.76545">
        <ele>317</ele>
        <time>2016-12-18T08:37:23.999Z</time>
      </trkpt>
      <trkpt lat="47.49094" lon="6.76552">
        <ele>317</ele>
        <time>2016-12-18T08:37:24.999Z</time>
      </trkpt>
      <trkpt lat="47.49094" lon="6.76557">
        <ele>316</ele>
        <time>2016-12-18T08:37:25.999Z</time>
      </trkpt>
      <trkpt lat="47.49094" lon="6.76562">
        <ele>316</ele>
        <time>2016-12-18T08:37:26.999Z</time>
      </trkpt>
      <trkpt lat="47.49094" lon="6.76567">
        <ele>316</ele>
        <time>2016-12-18T08:37:27.999Z</time>
      </trkpt>
      <trkpt lat="47.49095" lon="6.76571">
        <ele>316</ele>
        <time>2016-12-18T08:37:28.999Z</time>
      </trkpt>
      <trkpt lat="47.49095" lon="6.76576">
        <ele>317</ele>
        <time>2016-12-18T08:37:29.999Z</time>
      </trkpt>
      <trkpt lat="47.49093" lon="6.76583">
        <ele>317</ele>
        <time>2016-12-18T08:37:30.999Z</time>
      </trkpt>
      <trkpt lat="47.49092" lon="6.7659">
        <ele>316</ele>
        <time>2016-12-18T08:37:31.999Z</time>
      </trkpt>
      <trkpt lat="47.4909" lon="6.76597">
        <ele>316</ele>
        <time>2016-12-18T08:37:32.999Z</time>
      </trkpt>
      <trkpt lat="47.49088" lon="6.76605">
        <ele>315</ele>
        <time>2016-12-18T08:37:33.999Z</time>
      </trkpt>
      <trkpt lat="47.49086" lon="6.76612">
        <ele>315</ele>
        <time>2016-12-18T08:37:34.999Z</time>
      </trkpt>
      <trkpt lat="47.49085" lon="6.76619">
        <ele>315</ele>
        <time>2016-12-18T08:37:35.999Z</time>
      </trkpt>
      <trkpt lat="47.49083" lon="6.76626">
        <ele>318</ele>
        <time>2016-12-18T08:37:36.999Z</time>
      </trkpt>
      <trkpt lat="47.49081" lon="6.76632">
        <ele>318</ele>
        <time>2016-12-18T08:37:37.999Z</time>
      </trkpt>
      <trkpt lat="47.49079" lon="6.76638">
        <ele>317</ele>
        <time>2016-12-18T08:37:38.999Z</time>
      </trkpt>
      <trkpt lat="47.49077" lon="6.76645">
        <ele>317</ele>
        <time>2016-12-18T08:37:39.999Z</time>
      </trkpt>
      <trkpt lat="47.49076" lon="6.76651">
        <ele>316</ele>
        <time>2016-12-18T08:37:40.999Z</time>
      </trkpt>
      <trkpt lat="47.49074" lon="6.76657">
        <ele>316</ele>
        <time>2016-12-18T08:37:41.999Z</time>
      </trkpt>
      <trkpt lat="47.49073" lon="6.76663">
        <ele>316</ele>
        <time>2016-12-18T08:37:42.999Z</time>
      </trkpt>
      <trkpt lat="47.49071" lon="6.76669">
        <ele>314</ele>
        <time>2016-12-18T08:37:43.999Z</time>
      </trkpt>
      <trkpt lat="47.4907" lon="6.76676">
        <ele>314</ele>
        <time>2016-12-18T08:37:44.999Z</time>
      </trkpt>
      <trkpt lat="47.49069" lon="6.76683">
        <ele>314</ele>
        <time>2016-12-18T08:37:45.999Z</time>
      </trkpt>
      <trkpt lat="47.49067" lon="6.76689">
        <ele>314</ele>
        <time>2016-12-18T08:37:46.999Z</time>
      </trkpt>
      <trkpt lat="47.49065" lon="6.76695">
        <ele>314</ele>
        <time>2016-12-18T08:37:47.999Z</time>
      </trkpt>
      <trkpt lat="47.49063" lon="6.76702">
        <ele>313</ele>
        <time>2016-12-18T08:37:48.999Z</time>
      </trkpt>
      <trkpt lat="47.49061" lon="6.76709">
        <ele>313</ele>
        <time>2016-12-18T08:37:49.999Z</time>
      </trkpt>
      <trkpt lat="47.4906" lon="6.76715">
        <ele>313</ele>
        <time>2016-12-18T08:37:50.999Z</time>
      </trkpt>
      <trkpt lat="47.49058" lon="6.76721">
        <ele>313</ele>
        <time>2016-12-18T08:37:51.999Z</time>
      </trkpt>
      <trkpt lat="47.49056" lon="6.76727">
        <ele>313</ele>
        <time>2016-12-18T08:37:52.999Z</time>
      </trkpt>
      <trkpt lat="47.49054" lon="6.76733">
        <ele>313</ele>
        <time>2016-12-18T08:37:53.999Z</time>
      </trkpt>
      <trkpt lat="47.49052" lon="6.76741">
        <ele>313</ele>
        <time>2016-12-18T08:37:54.999Z</time>
      </trkpt>
      <trkpt lat="47.4905" lon="6.76748">
        <ele>313</ele>
        <time>2016-12-18T08:37:55.999Z</time>
      </trkpt>
      <trkpt lat="47.49049" lon="6.76754">
        <ele>312</ele>
        <time>2016-12-18T08:37:56.999Z</time>
      </trkpt>
      <trkpt lat="47.49047" lon="6.76759">
        <ele>312</ele>
        <time>2016-12-18T08:37:57.999Z</time>
      </trkpt>
      <trkpt lat="47.49044" lon="6.76763">
        <ele>312</ele>
        <time>2016-12-18T08:37:58.999Z</time>
      </trkpt>
      <trkpt lat="47.49042" lon="6.76766">
        <ele>312</ele>
        <time>2016-12-18T08:37:59.999Z</time>
      </trkpt>
      <trkpt lat="47.49039" lon="6.76769">
        <ele>312</ele>
        <time>2016-12-18T08:38:00.999Z</time>
      </trkpt>
      <trkpt lat="47.49035" lon="6.76772">
        <ele>312</ele>
        <time>2016-12-18T08:38:01.999Z</time>
      </trkpt>
      <trkpt lat="47.49032" lon="6.76775">
        <ele>312</ele>
        <time>2016-12-18T08:38:02.999Z</time>
      </trkpt>
      <trkpt lat="47.49027" lon="6.76778">
        <ele>312</ele>
        <time>2016-12-18T08:38:03.999Z</time>
      </trkpt>
      <trkpt lat="47.49023" lon="6.76778">
        <ele>312</ele>
        <time>2016-12-18T08:38:04.999Z</time>
      </trkpt>
      <trkpt lat="47.49017" lon="6.76777">
        <ele>312</ele>
        <time>2016-12-18T08:38:06.999Z</time>
      </trkpt>
      <trkpt lat="47.49013" lon="6.76776">
        <ele>312</ele>
        <time>2016-12-18T08:38:08.999Z</time>
      </trkpt>
      <trkpt lat="47.4901" lon="6.76778">
        <ele>312</ele>
        <time>2016-12-18T08:38:09.999Z</time>
      </trkpt>
      <trkpt lat="47.49008" lon="6.76781">
        <ele>312</ele>
        <time>2016-12-18T08:38:10.999Z</time>
      </trkpt>
      <trkpt lat="47.49007" lon="6.76784">
        <ele>312</ele>
        <time>2016-12-18T08:38:11.999Z</time>
      </trkpt>
      <trkpt lat="47.49005" lon="6.76788">
        <ele>312</ele>
        <time>2016-12-18T08:38:12.999Z</time>
      </trkpt>
      <trkpt lat="47.49004" lon="6.76793">
        <ele>312</ele>
        <time>2016-12-18T08:38:13.999Z</time>
      </trkpt>
      <trkpt lat="47.49004" lon="6.76797">
        <ele>312</ele>
        <time>2016-12-18T08:38:14.999Z</time>
      </trkpt>
      <trkpt lat="47.49003" lon="6.76801">
        <ele>312</ele>
        <time>2016-12-18T08:38:15.999Z</time>
      </trkpt>
      <trkpt lat="47.49001" lon="6.76806">
        <ele>312</ele>
        <time>2016-12-18T08:38:16.999Z</time>
      </trkpt>
      <trkpt lat="47.49" lon="6.7681">
        <ele>312</ele>
        <time>2016-12-18T08:38:17.999Z</time>
      </trkpt>
      <trkpt lat="47.48998" lon="6.76817">
        <ele>313</ele>
        <time>2016-12-18T08:38:18.999Z</time>
      </trkpt>
      <trkpt lat="47.48997" lon="6.76822">
        <ele>313</ele>
        <time>2016-12-18T08:38:19.999Z</time>
      </trkpt>
      <trkpt lat="47.48997" lon="6.76829">
        <ele>313</ele>
        <time>2016-12-18T08:38:20.999Z</time>
      </trkpt>
      <trkpt lat="47.48996" lon="6.76835">
        <ele>312</ele>
        <time>2016-12-18T08:38:21.999Z</time>
      </trkpt>
      <trkpt lat="47.48995" lon="6.7684">
        <ele>312</ele>
        <time>2016-12-18T08:38:22.999Z</time>
      </trkpt>
      <trkpt lat="47.48995" lon="6.76845">
        <ele>312</ele>
        <time>2016-12-18T08:38:23.999Z</time>
      </trkpt>
      <trkpt lat="47.48994" lon="6.76849">
        <ele>312</ele>
        <time>2016-12-18T08:38:24.999Z</time>
      </trkpt>
      <trkpt lat="47.48994" lon="6.76855">
        <ele>312</ele>
        <time>2016-12-18T08:38:25.999Z</time>
      </trkpt>
      <trkpt lat="47.48993" lon="6.7686">
        <ele>312</ele>
        <time>2016-12-18T08:38:26.999Z</time>
      </trkpt>
      <trkpt lat="47.48993" lon="6.76867">
        <ele>312</ele>
        <time>2016-12-18T08:38:27.999Z</time>
      </trkpt>
      <trkpt lat="47.48993" lon="6.76873">
        <ele>312</ele>
        <time>2016-12-18T08:38:28.999Z</time>
      </trkpt>
      <trkpt lat="47.48992" lon="6.7688">
        <ele>312</ele>
        <time>2016-12-18T08:38:29.999Z</time>
      </trkpt>
      <trkpt lat="47.48992" lon="6.76884">
        <ele>312</ele>
        <time>2016-12-18T08:38:30.999Z</time>
      </trkpt>
      <trkpt lat="47.48991" lon="6.76888">
        <ele>312</ele>
        <time>2016-12-18T08:38:31.999Z</time>
      </trkpt>
      <trkpt lat="47.4899" lon="6.76893">
        <ele>312</ele>
        <time>2016-12-18T08:38:32.999Z</time>
      </trkpt>
      <trkpt lat="47.48989" lon="6.76898">
        <ele>312</ele>
        <time>2016-12-18T08:38:33.999Z</time>
      </trkpt>
      <trkpt lat="47.48987" lon="6.76903">
        <ele>311</ele>
        <time>2016-12-18T08:38:34.999Z</time>
      </trkpt>
      <trkpt lat="47.48986" lon="6.76909">
        <ele>311</ele>
        <time>2016-12-18T08:38:35.999Z</time>
      </trkpt>
      <trkpt lat="47.48985" lon="6.76913">
        <ele>311</ele>
        <time>2016-12-18T08:38:36.999Z</time>
      </trkpt>
      <trkpt lat="47.48984" lon="6.76917">
        <ele>311</ele>
        <time>2016-12-18T08:38:37.999Z</time>
      </trkpt>
      <trkpt lat="47.48982" lon="6.7692">
        <ele>311</ele>
        <time>2016-12-18T08:38:38.999Z</time>
      </trkpt>
      <trkpt lat="47.4898" lon="6.76924">
        <ele>311</ele>
        <time>2016-12-18T08:38:39.999Z</time>
      </trkpt>
      <trkpt lat="47.48977" lon="6.76928">
        <ele>311</ele>
        <time>2016-12-18T08:38:40.999Z</time>
      </trkpt>
      <trkpt lat="47.48975" lon="6.76931">
        <ele>311</ele>
        <time>2016-12-18T08:38:41.999Z</time>
      </trkpt>
      <trkpt lat="47.48975" lon="6.76935">
        <ele>311</ele>
        <time>2016-12-18T08:38:42.999Z</time>
      </trkpt>
      <trkpt lat="47.48973" lon="6.7694">
        <ele>311</ele>
        <time>2016-12-18T08:38:43.999Z</time>
      </trkpt>
      <trkpt lat="47.48973" lon="6.76945">
        <ele>311</ele>
        <time>2016-12-18T08:38:44.999Z</time>
      </trkpt>
      <trkpt lat="47.48973" lon="6.76949">
        <ele>311</ele>
        <time>2016-12-18T08:38:45.999Z</time>
      </trkpt>
      <trkpt lat="47.48973" lon="6.76955">
        <ele>311</ele>
        <time>2016-12-18T08:38:46.999Z</time>
      </trkpt>
      <trkpt lat="47.48973" lon="6.7696">
        <ele>311</ele>
        <time>2016-12-18T08:38:47.999Z</time>
      </trkpt>
      <trkpt lat="47.48973" lon="6.76965">
        <ele>311</ele>
        <time>2016-12-18T08:38:48.999Z</time>
      </trkpt>
      <trkpt lat="47.48973" lon="6.76969">
        <ele>311</ele>
        <time>2016-12-18T08:38:49.999Z</time>
      </trkpt>
      <trkpt lat="47.48972" lon="6.76975">
        <ele>311</ele>
        <time>2016-12-18T08:38:50.999Z</time>
      </trkpt>
      <trkpt lat="47.48972" lon="6.76981">
        <ele>311</ele>
        <time>2016-12-18T08:38:51.999Z</time>
      </trkpt>
      <trkpt lat="47.48972" lon="6.76986">
        <ele>311</ele>
        <time>2016-12-18T08:38:52.999Z</time>
      </trkpt>
      <trkpt lat="47.48972" lon="6.76991">
        <ele>311</ele>
        <time>2016-12-18T08:38:53.999Z</time>
      </trkpt>
      <trkpt lat="47.48972" lon="6.76996">
        <ele>311</ele>
        <time>2016-12-18T08:38:54.999Z</time>
      </trkpt>
      <trkpt lat="47.48973" lon="6.77001">
        <ele>311</ele>
        <time>2016-12-18T08:38:55.999Z</time>
      </trkpt>
      <trkpt lat="47.48973" lon="6.77007">
        <ele>311</ele>
        <time>2016-12-18T08:38:56.999Z</time>
      </trkpt>
      <trkpt lat="47.48972" lon="6.7701">
        <ele>311</ele>
        <time>2016-12-18T08:38:57.999Z</time>
      </trkpt>
      <trkpt lat="47.48972" lon="6.77015">
        <ele>311</ele>
        <time>2016-12-18T08:38:58.999Z</time>
      </trkpt>
      <trkpt lat="47.48972" lon="6.7702">
        <ele>311</ele>
        <time>2016-12-18T08:38:59.999Z</time>
      </trkpt>
      <trkpt lat="47.48972" lon="6.77026">
        <ele>311</ele>
        <time>2016-12-18T08:39:00.999Z</time>
      </trkpt>
      <trkpt lat="47.48971" lon="6.7703">
        <ele>311</ele>
        <time>2016-12-18T08:39:01.999Z</time>
      </trkpt>
      <trkpt lat="47.48971" lon="6.77036">
        <ele>311</ele>
        <time>2016-12-18T08:39:02.999Z</time>
      </trkpt>
      <trkpt lat="47.48971" lon="6.77041">
        <ele>311</ele>
        <time>2016-12-18T08:39:03.999Z</time>
      </trkpt>
      <trkpt lat="47.48971" lon="6.77046">
        <ele>311</ele>
        <time>2016-12-18T08:39:04.999Z</time>
      </trkpt>
      <trkpt lat="47.4897" lon="6.77059">
        <ele>311</ele>
        <time>2016-12-18T08:39:06.999Z</time>
      </trkpt>
      <trkpt lat="47.4897" lon="6.77063">
        <ele>311</ele>
        <time>2016-12-18T08:39:07.999Z</time>
      </trkpt>
      <trkpt lat="47.4897" lon="6.77068">
        <ele>311</ele>
        <time>2016-12-18T08:39:08.999Z</time>
      </trkpt>
      <trkpt lat="47.48971" lon="6.77072">
        <ele>311</ele>
        <time>2016-12-18T08:39:09.999Z</time>
      </trkpt>
      <trkpt lat="47.4897" lon="6.77078">
        <ele>311</ele>
        <time>2016-12-18T08:39:10.999Z</time>
      </trkpt>
      <trkpt lat="47.4897" lon="6.77082">
        <ele>311</ele>
        <time>2016-12-18T08:39:11.999Z</time>
      </trkpt>
      <trkpt lat="47.4897" lon="6.77088">
        <ele>311</ele>
        <time>2016-12-18T08:39:12.999Z</time>
      </trkpt>
      <trkpt lat="47.4897" lon="6.77093">
        <ele>311</ele>
        <time>2016-12-18T08:39:13.999Z</time>
      </trkpt>
      <trkpt lat="47.4897" lon="6.77098">
        <ele>311</ele>
        <time>2016-12-18T08:39:14.999Z</time>
      </trkpt>
      <trkpt lat="47.4897" lon="6.77103">
        <ele>311</ele>
        <time>2016-12-18T08:39:15.999Z</time>
      </trkpt>
      <trkpt lat="47.4897" lon="6.77107">
        <ele>311</ele>
        <time>2016-12-18T08:39:16.999Z</time>
      </trkpt>
      <trkpt lat="47.4897" lon="6.77113">
        <ele>311</ele>
        <time>2016-12-18T08:39:17.999Z</time>
      </trkpt>
      <trkpt lat="47.4897" lon="6.77118">
        <ele>311</ele>
        <time>2016-12-18T08:39:18.999Z</time>
      </trkpt>
      <trkpt lat="47.4897" lon="6.77122">
        <ele>311</ele>
        <time>2016-12-18T08:39:19.999Z</time>
      </trkpt>
      <trkpt lat="47.4897" lon="6.77126">
        <ele>311</ele>
        <time>2016-12-18T08:39:20.999Z</time>
      </trkpt>
      <trkpt lat="47.4897" lon="6.7713">
        <ele>311</ele>
        <time>2016-12-18T08:39:21.999Z</time>
      </trkpt>
      <trkpt lat="47.4897" lon="6.77135">
        <ele>311</ele>
        <time>2016-12-18T08:39:22.999Z</time>
      </trkpt>
      <trkpt lat="47.48969" lon="6.77138">
        <ele>311</ele>
        <time>2016-12-18T08:39:23.999Z</time>
      </trkpt>
      <trkpt lat="47.48969" lon="6.77143">
        <ele>311</ele>
        <time>2016-12-18T08:39:24.999Z</time>
      </trkpt>
      <trkpt lat="47.48969" lon="6.77146">
        <ele>311</ele>
        <time>2016-12-18T08:39:25.999Z</time>
      </trkpt>
      <trkpt lat="47.48969" lon="6.77151">
        <ele>311</ele>
        <time>2016-12-18T08:39:26.999Z</time>
      </trkpt>
      <trkpt lat="47.48969" lon="6.77155">
        <ele>311</ele>
        <time>2016-12-18T08:39:27.999Z</time>
      </trkpt>
      <trkpt lat="47.48968" lon="6.77158">
        <ele>311</ele>
        <time>2016-12-18T08:39:28.999Z</time>
      </trkpt>
      <trkpt lat="47.48967" lon="6.77165">
        <ele>311</ele>
        <time>2016-12-18T08:39:30.999Z</time>
      </trkpt>
      <trkpt lat="47.48967" lon="6.77167">
        <ele>311</ele>
        <time>2016-12-18T08:39:31.999Z</time>
      </trkpt>
      <trkpt lat="47.48967" lon="6.77173">
        <ele>311</ele>
        <time>2016-12-18T08:39:43.999Z</time>
      </trkpt>
      <trkpt lat="47.48965" lon="6.77177">
        <ele>311</ele>
        <time>2016-12-18T08:39:44.999Z</time>
      </trkpt>
      <trkpt lat="47.48963" lon="6.77181">
        <ele>311</ele>
        <time>2016-12-18T08:39:45.999Z</time>
      </trkpt>
      <trkpt lat="47.48963" lon="6.77184">
        <ele>311</ele>
        <time>2016-12-18T08:39:46.999Z</time>
      </trkpt>
      <trkpt lat="47.48962" lon="6.77189">
        <ele>311</ele>
        <time>2016-12-18T08:39:47.999Z</time>
      </trkpt>
      <trkpt lat="47.4896" lon="6.77195">
        <ele>311</ele>
        <time>2016-12-18T08:39:48.999Z</time>
      </trkpt>
      <trkpt lat="47.48959" lon="6.77199">
        <ele>311</ele>
        <time>2016-12-18T08:39:49.999Z</time>
      </trkpt>
      <trkpt lat="47.48958" lon="6.77203">
        <ele>311</ele>
        <time>2016-12-18T08:39:50.999Z</time>
      </trkpt>
      <trkpt lat="47.48958" lon="6.77208">
        <ele>311</ele>
        <time>2016-12-18T08:39:51.999Z</time>
      </trkpt>
      <trkpt lat="47.48957" lon="6.77215">
        <ele>311</ele>
        <time>2016-12-18T08:39:52.999Z</time>
      </trkpt>
      <trkpt lat="47.48956" lon="6.77222">
        <ele>311</ele>
        <time>2016-12-18T08:39:53.999Z</time>
      </trkpt>
      <trkpt lat="47.48955" lon="6.77227">
        <ele>311</ele>
        <time>2016-12-18T08:39:54.999Z</time>
      </trkpt>
      <trkpt lat="47.48954" lon="6.77232">
        <ele>311</ele>
        <time>2016-12-18T08:39:55.999Z</time>
      </trkpt>
      <trkpt lat="47.48953" lon="6.77236">
        <ele>311</ele>
        <time>2016-12-18T08:39:56.999Z</time>
      </trkpt>
      <trkpt lat="47.48952" lon="6.77241">
        <ele>311</ele>
        <time>2016-12-18T08:39:57.999Z</time>
      </trkpt>
      <trkpt lat="47.48949" lon="6.77245">
        <ele>311</ele>
        <time>2016-12-18T08:39:58.999Z</time>
      </trkpt>
      <trkpt lat="47.48946" lon="6.77249">
        <ele>311</ele>
        <time>2016-12-18T08:39:59.999Z</time>
      </trkpt>
      <trkpt lat="47.48943" lon="6.77254">
        <ele>311</ele>
        <time>2016-12-18T08:40:00.999Z</time>
      </trkpt>
      <trkpt lat="47.4894" lon="6.77259">
        <ele>311</ele>
        <time>2016-12-18T08:40:01.999Z</time>
      </trkpt>
      <trkpt lat="47.48937" lon="6.77264">
        <ele>311</ele>
        <time>2016-12-18T08:40:02.999Z</time>
      </trkpt>
      <trkpt lat="47.48934" lon="6.77269">
        <ele>311</ele>
        <time>2016-12-18T08:40:03.999Z</time>
      </trkpt>
      <trkpt lat="47.48931" lon="6.77274">
        <ele>311</ele>
        <time>2016-12-18T08:40:04.999Z</time>
      </trkpt>
      <trkpt lat="47.48928" lon="6.77279">
        <ele>311</ele>
        <time>2016-12-18T08:40:05.999Z</time>
      </trkpt>
      <trkpt lat="47.48924" lon="6.77286">
        <ele>311</ele>
        <time>2016-12-18T08:40:06.999Z</time>
      </trkpt>
      <trkpt lat="47.48921" lon="6.77292">
        <ele>311</ele>
        <time>2016-12-18T08:40:07.999Z</time>
      </trkpt>
      <trkpt lat="47.48918" lon="6.77297">
        <ele>311</ele>
        <time>2016-12-18T08:40:08.999Z</time>
      </trkpt>
      <trkpt lat="47.48916" lon="6.77297">
        <ele>310</ele>
        <time>2016-12-18T08:40:09.999Z</time>
      </trkpt>
      <trkpt lat="47.48912" lon="6.773">
        <ele>310</ele>
        <time>2016-12-18T08:40:10.999Z</time>
      </trkpt>
      <trkpt lat="47.48908" lon="6.773">
        <ele>310</ele>
        <time>2016-12-18T08:40:11.999Z</time>
      </trkpt>
      <trkpt lat="47.48905" lon="6.773">
        <ele>310</ele>
        <time>2016-12-18T08:40:12.999Z</time>
      </trkpt>
      <trkpt lat="47.48901" lon="6.77299">
        <ele>310</ele>
        <time>2016-12-18T08:40:13.999Z</time>
      </trkpt>
      <trkpt lat="47.48897" lon="6.77297">
        <ele>310</ele>
        <time>2016-12-18T08:40:14.999Z</time>
      </trkpt>
      <trkpt lat="47.48893" lon="6.77295">
        <ele>310</ele>
        <time>2016-12-18T08:40:15.999Z</time>
      </trkpt>
      <trkpt lat="47.48888" lon="6.77293">
        <ele>310</ele>
        <time>2016-12-18T08:40:16.999Z</time>
      </trkpt>
      <trkpt lat="47.48883" lon="6.7729">
        <ele>310</ele>
        <time>2016-12-18T08:40:17.999Z</time>
      </trkpt>
      <trkpt lat="47.48878" lon="6.77288">
        <ele>310</ele>
        <time>2016-12-18T08:40:18.999Z</time>
      </trkpt>
      <trkpt lat="47.48872" lon="6.77287">
        <ele>310</ele>
        <time>2016-12-18T08:40:19.999Z</time>
      </trkpt>
      <trkpt lat="47.48866" lon="6.77284">
        <ele>310</ele>
        <time>2016-12-18T08:40:20.999Z</time>
      </trkpt>
      <trkpt lat="47.48862" lon="6.77283">
        <ele>310</ele>
        <time>2016-12-18T08:40:21.999Z</time>
      </trkpt>
      <trkpt lat="47.48856" lon="6.77282">
        <ele>310</ele>
        <time>2016-12-18T08:40:22.999Z</time>
      </trkpt>
      <trkpt lat="47.48851" lon="6.77279">
        <ele>310</ele>
        <time>2016-12-18T08:40:23.999Z</time>
      </trkpt>
      <trkpt lat="47.48846" lon="6.77276">
        <ele>310</ele>
        <time>2016-12-18T08:40:24.999Z</time>
      </trkpt>
      <trkpt lat="47.48842" lon="6.77274">
        <ele>310</ele>
        <time>2016-12-18T08:40:25.999Z</time>
      </trkpt>
      <trkpt lat="47.48838" lon="6.77271">
        <ele>310</ele>
        <time>2016-12-18T08:40:26.999Z</time>
      </trkpt>
      <trkpt lat="47.48833" lon="6.77268">
        <ele>310</ele>
        <time>2016-12-18T08:40:27.999Z</time>
      </trkpt>
      <trkpt lat="47.48829" lon="6.77264">
        <ele>310</ele>
        <time>2016-12-18T08:40:28.999Z</time>
      </trkpt>
      <trkpt lat="47.48826" lon="6.77262">
        <ele>310</ele>
        <time>2016-12-18T08:40:29.999Z</time>
      </trkpt>
      <trkpt lat="47.48822" lon="6.77259">
        <ele>310</ele>
        <time>2016-12-18T08:40:30.999Z</time>
      </trkpt>
      <trkpt lat="47.48818" lon="6.77255">
        <ele>310</ele>
        <time>2016-12-18T08:40:31.999Z</time>
      </trkpt>
      <trkpt lat="47.48813" lon="6.77251">
        <ele>310</ele>
        <time>2016-12-18T08:40:32.999Z</time>
      </trkpt>
      <trkpt lat="47.48808" lon="6.77247">
        <ele>311</ele>
        <time>2016-12-18T08:40:33.999Z</time>
      </trkpt>
      <trkpt lat="47.48804" lon="6.77243">
        <ele>310</ele>
        <time>2016-12-18T08:40:34.999Z</time>
      </trkpt>
      <trkpt lat="47.48799" lon="6.77239">
        <ele>310</ele>
        <time>2016-12-18T08:40:35.999Z</time>
      </trkpt>
      <trkpt lat="47.48794" lon="6.77236">
        <ele>310</ele>
        <time>2016-12-18T08:40:36.999Z</time>
      </trkpt>
      <trkpt lat="47.4879" lon="6.77232">
        <ele>310</ele>
        <time>2016-12-18T08:40:37.999Z</time>
      </trkpt>
      <trkpt lat="47.48785" lon="6.77228">
        <ele>310</ele>
        <time>2016-12-18T08:40:38.999Z</time>
      </trkpt>
      <trkpt lat="47.4878" lon="6.77225">
        <ele>310</ele>
        <time>2016-12-18T08:40:39.999Z</time>
      </trkpt>
      <trkpt lat="47.48776" lon="6.77222">
        <ele>310</ele>
        <time>2016-12-18T08:40:40.999Z</time>
      </trkpt>
      <trkpt lat="47.48773" lon="6.77219">
        <ele>310</ele>
        <time>2016-12-18T08:40:41.999Z</time>
      </trkpt>
      <trkpt lat="47.48769" lon="6.77216">
        <ele>310</ele>
        <time>2016-12-18T08:40:42.999Z</time>
      </trkpt>
      <trkpt lat="47.48764" lon="6.77212">
        <ele>310</ele>
        <time>2016-12-18T08:40:43.999Z</time>
      </trkpt>
      <trkpt lat="47.48759" lon="6.77208">
        <ele>310</ele>
        <time>2016-12-18T08:40:44.999Z</time>
      </trkpt>
      <trkpt lat="47.48754" lon="6.77204">
        <ele>310</ele>
        <time>2016-12-18T08:40:45.999Z</time>
      </trkpt>
      <trkpt lat="47.4875" lon="6.77201">
        <ele>310</ele>
        <time>2016-12-18T08:40:46.999Z</time>
      </trkpt>
      <trkpt lat="47.48745" lon="6.77198">
        <ele>310</ele>
        <time>2016-12-18T08:40:47.999Z</time>
      </trkpt>
      <trkpt lat="47.48741" lon="6.77195">
        <ele>310</ele>
        <time>2016-12-18T08:40:48.999Z</time>
      </trkpt>
      <trkpt lat="47.48736" lon="6.77192">
        <ele>310</ele>
        <time>2016-12-18T08:40:49.999Z</time>
      </trkpt>
      <trkpt lat="47.48733" lon="6.77189">
        <ele>310</ele>
        <time>2016-12-18T08:40:50.999Z</time>
      </trkpt>
      <trkpt lat="47.48729" lon="6.77186">
        <ele>310</ele>
        <time>2016-12-18T08:40:51.999Z</time>
      </trkpt>
      <trkpt lat="47.48725" lon="6.77183">
        <ele>310</ele>
        <time>2016-12-18T08:40:52.999Z</time>
      </trkpt>
      <trkpt lat="47.4872" lon="6.77179">
        <ele>310</ele>
        <time>2016-12-18T08:40:53.999Z</time>
      </trkpt>
      <trkpt lat="47.48715" lon="6.77175">
        <ele>311</ele>
        <time>2016-12-18T08:40:54.999Z</time>
      </trkpt>
      <trkpt lat="47.48711" lon="6.77172">
        <ele>311</ele>
        <time>2016-12-18T08:40:55.999Z</time>
      </trkpt>
      <trkpt lat="47.48708" lon="6.77169">
        <ele>311</ele>
        <time>2016-12-18T08:40:56.999Z</time>
      </trkpt>
      <trkpt lat="47.48703" lon="6.77166">
        <ele>311</ele>
        <time>2016-12-18T08:40:57.999Z</time>
      </trkpt>
      <trkpt lat="47.48699" lon="6.77162">
        <ele>311</ele>
        <time>2016-12-18T08:40:58.999Z</time>
      </trkpt>
      <trkpt lat="47.48695" lon="6.77159">
        <ele>311</ele>
        <time>2016-12-18T08:40:59.999Z</time>
      </trkpt>
      <trkpt lat="47.48692" lon="6.77155">
        <ele>311</ele>
        <time>2016-12-18T08:41:00.999Z</time>
      </trkpt>
      <trkpt lat="47.48687" lon="6.77151">
        <ele>311</ele>
        <time>2016-12-18T08:41:01.999Z</time>
      </trkpt>
      <trkpt lat="47.48684" lon="6.77147">
        <ele>311</ele>
        <time>2016-12-18T08:41:02.999Z</time>
      </trkpt>
      <trkpt lat="47.48681" lon="6.77144">
        <ele>311</ele>
        <time>2016-12-18T08:41:03.999Z</time>
      </trkpt>
      <trkpt lat="47.48677" lon="6.77141">
        <ele>311</ele>
        <time>2016-12-18T08:41:04.999Z</time>
      </trkpt>
      <trkpt lat="47.48674" lon="6.77137">
        <ele>311</ele>
        <time>2016-12-18T08:41:05.999Z</time>
      </trkpt>
      <trkpt lat="47.48669" lon="6.77132">
        <ele>312</ele>
        <time>2016-12-18T08:41:06.999Z</time>
      </trkpt>
      <trkpt lat="47.48665" lon="6.77128">
        <ele>312</ele>
        <time>2016-12-18T08:41:07.999Z</time>
      </trkpt>
      <trkpt lat="47.48662" lon="6.77124">
        <ele>312</ele>
        <time>2016-12-18T08:41:08.999Z</time>
      </trkpt>
      <trkpt lat="47.48658" lon="6.7712">
        <ele>312</ele>
        <time>2016-12-18T08:41:09.999Z</time>
      </trkpt>
      <trkpt lat="47.48654" lon="6.77115">
        <ele>312</ele>
        <time>2016-12-18T08:41:10.999Z</time>
      </trkpt>
      <trkpt lat="47.4865" lon="6.77111">
        <ele>312</ele>
        <time>2016-12-18T08:41:11.999Z</time>
      </trkpt>
      <trkpt lat="47.48647" lon="6.77108">
        <ele>312</ele>
        <time>2016-12-18T08:41:12.999Z</time>
      </trkpt>
      <trkpt lat="47.48643" lon="6.77103">
        <ele>312</ele>
        <time>2016-12-18T08:41:13.999Z</time>
      </trkpt>
      <trkpt lat="47.48639" lon="6.77099">
        <ele>312</ele>
        <time>2016-12-18T08:41:14.999Z</time>
      </trkpt>
      <trkpt lat="47.48635" lon="6.77094">
        <ele>312</ele>
        <time>2016-12-18T08:41:15.999Z</time>
      </trkpt>
      <trkpt lat="47.48632" lon="6.77091">
        <ele>312</ele>
        <time>2016-12-18T08:41:16.999Z</time>
      </trkpt>
      <trkpt lat="47.48628" lon="6.77089">
        <ele>312</ele>
        <time>2016-12-18T08:41:17.999Z</time>
      </trkpt>
      <trkpt lat="47.48625" lon="6.77086">
        <ele>312</ele>
        <time>2016-12-18T08:41:18.999Z</time>
      </trkpt>
      <trkpt lat="47.4862" lon="6.77084">
        <ele>312</ele>
        <time>2016-12-18T08:41:19.999Z</time>
      </trkpt>
      <trkpt lat="47.48617" lon="6.77083">
        <ele>313</ele>
        <time>2016-12-18T08:41:20.999Z</time>
      </trkpt>
      <trkpt lat="47.48614" lon="6.77082">
        <ele>313</ele>
        <time>2016-12-18T08:41:21.999Z</time>
      </trkpt>
      <trkpt lat="47.48611" lon="6.77081">
        <ele>313</ele>
        <time>2016-12-18T08:41:22.999Z</time>
      </trkpt>
      <trkpt lat="47.48607" lon="6.77078">
        <ele>313</ele>
        <time>2016-12-18T08:41:23.999Z</time>
      </trkpt>
      <trkpt lat="47.48604" lon="6.77074">
        <ele>313</ele>
        <time>2016-12-18T08:41:24.999Z</time>
      </trkpt>
      <trkpt lat="47.48599" lon="6.7707">
        <ele>313</ele>
        <time>2016-12-18T08:41:25.999Z</time>
      </trkpt>
      <trkpt lat="47.48594" lon="6.77065">
        <ele>313</ele>
        <time>2016-12-18T08:41:26.999Z</time>
      </trkpt>
      <trkpt lat="47.4859" lon="6.77061">
        <ele>313</ele>
        <time>2016-12-18T08:41:27.999Z</time>
      </trkpt>
      <trkpt lat="47.48585" lon="6.77058">
        <ele>313</ele>
        <time>2016-12-18T08:41:28.999Z</time>
      </trkpt>
      <trkpt lat="47.48581" lon="6.77055">
        <ele>314</ele>
        <time>2016-12-18T08:41:29.999Z</time>
      </trkpt>
      <trkpt lat="47.48578" lon="6.77054">
        <ele>314</ele>
        <time>2016-12-18T08:41:30.999Z</time>
      </trkpt>
      <trkpt lat="47.48574" lon="6.77052">
        <ele>314</ele>
        <time>2016-12-18T08:41:31.999Z</time>
      </trkpt>
      <trkpt lat="47.48569" lon="6.7705">
        <ele>314</ele>
        <time>2016-12-18T08:41:32.999Z</time>
      </trkpt>
      <trkpt lat="47.48563" lon="6.77047">
        <ele>314</ele>
        <time>2016-12-18T08:41:33.999Z</time>
      </trkpt>
      <trkpt lat="47.48557" lon="6.77046">
        <ele>314</ele>
        <time>2016-12-18T08:41:34.999Z</time>
      </trkpt>
      <trkpt lat="47.48551" lon="6.77045">
        <ele>314</ele>
        <time>2016-12-18T08:41:35.999Z</time>
      </trkpt>
      <trkpt lat="47.48546" lon="6.77043">
        <ele>314</ele>
        <time>2016-12-18T08:41:36.999Z</time>
      </trkpt>
      <trkpt lat="47.4854" lon="6.7704">
        <ele>314</ele>
        <time>2016-12-18T08:41:37.999Z</time>
      </trkpt>
      <trkpt lat="47.48535" lon="6.77036">
        <ele>314</ele>
        <time>2016-12-18T08:41:38.999Z</time>
      </trkpt>
      <trkpt lat="47.4853" lon="6.77032">
        <ele>314</ele>
        <time>2016-12-18T08:41:39.999Z</time>
      </trkpt>
      <trkpt lat="47.48525" lon="6.77028">
        <ele>314</ele>
        <time>2016-12-18T08:41:40.999Z</time>
      </trkpt>
      <trkpt lat="47.4852" lon="6.77024">
        <ele>314</ele>
        <time>2016-12-18T08:41:41.999Z</time>
      </trkpt>
      <trkpt lat="47.48515" lon="6.77019">
        <ele>315</ele>
        <time>2016-12-18T08:41:42.999Z</time>
      </trkpt>
      <trkpt lat="47.4851" lon="6.77015">
        <ele>315</ele>
        <time>2016-12-18T08:41:43.999Z</time>
      </trkpt>
      <trkpt lat="47.48505" lon="6.77012">
        <ele>315</ele>
        <time>2016-12-18T08:41:44.999Z</time>
      </trkpt>
      <trkpt lat="47.48501" lon="6.77008">
        <ele>315</ele>
        <time>2016-12-18T08:41:45.999Z</time>
      </trkpt>
      <trkpt lat="47.48496" lon="6.77005">
        <ele>315</ele>
        <time>2016-12-18T08:41:46.999Z</time>
      </trkpt>
      <trkpt lat="47.48491" lon="6.77001">
        <ele>315</ele>
        <time>2016-12-18T08:41:47.999Z</time>
      </trkpt>
      <trkpt lat="47.48486" lon="6.76998">
        <ele>316</ele>
        <time>2016-12-18T08:41:48.999Z</time>
      </trkpt>
      <trkpt lat="47.48481" lon="6.76994">
        <ele>315</ele>
        <time>2016-12-18T08:41:49.999Z</time>
      </trkpt>
      <trkpt lat="47.48475" lon="6.76991">
        <ele>315</ele>
        <time>2016-12-18T08:41:50.999Z</time>
      </trkpt>
      <trkpt lat="47.4847" lon="6.76988">
        <ele>315</ele>
        <time>2016-12-18T08:41:51.999Z</time>
      </trkpt>
      <trkpt lat="47.48465" lon="6.76985">
        <ele>315</ele>
        <time>2016-12-18T08:41:52.999Z</time>
      </trkpt>
      <trkpt lat="47.4846" lon="6.76982">
        <ele>315</ele>
        <time>2016-12-18T08:41:53.999Z</time>
      </trkpt>
      <trkpt lat="47.48456" lon="6.76979">
        <ele>315</ele>
        <time>2016-12-18T08:41:54.999Z</time>
      </trkpt>
      <trkpt lat="47.48451" lon="6.76975">
        <ele>315</ele>
        <time>2016-12-18T08:41:55.999Z</time>
      </trkpt>
      <trkpt lat="47.48446" lon="6.76971">
        <ele>315</ele>
        <time>2016-12-18T08:41:56.999Z</time>
      </trkpt>
      <trkpt lat="47.48441" lon="6.76968">
        <ele>315</ele>
        <time>2016-12-18T08:41:57.999Z</time>
      </trkpt>
      <trkpt lat="47.48436" lon="6.76964">
        <ele>314</ele>
        <time>2016-12-18T08:41:58.999Z</time>
      </trkpt>
      <trkpt lat="47.48431" lon="6.76961">
        <ele>314</ele>
        <time>2016-12-18T08:41:59.999Z</time>
      </trkpt>
      <trkpt lat="47.48427" lon="6.76959">
        <ele>314</ele>
        <time>2016-12-18T08:42:00.999Z</time>
      </trkpt>
      <trkpt lat="47.48422" lon="6.76957">
        <ele>314</ele>
        <time>2016-12-18T08:42:01.999Z</time>
      </trkpt>
      <trkpt lat="47.48417" lon="6.76955">
        <ele>314</ele>
        <time>2016-12-18T08:42:02.999Z</time>
      </trkpt>
      <trkpt lat="47.48411" lon="6.76953">
        <ele>312</ele>
        <time>2016-12-18T08:42:03.999Z</time>
      </trkpt>
      <trkpt lat="47.48406" lon="6.7695">
        <ele>312</ele>
        <time>2016-12-18T08:42:04.999Z</time>
      </trkpt>
      <trkpt lat="47.48401" lon="6.76946">
        <ele>312</ele>
        <time>2016-12-18T08:42:05.999Z</time>
      </trkpt>
      <trkpt lat="47.48396" lon="6.76943">
        <ele>312</ele>
        <time>2016-12-18T08:42:06.999Z</time>
      </trkpt>
      <trkpt lat="47.4839" lon="6.76939">
        <ele>312</ele>
        <time>2016-12-18T08:42:07.999Z</time>
      </trkpt>
      <trkpt lat="47.48384" lon="6.76937">
        <ele>312</ele>
        <time>2016-12-18T08:42:08.999Z</time>
      </trkpt>
      <trkpt lat="47.48379" lon="6.76934">
        <ele>312</ele>
        <time>2016-12-18T08:42:09.999Z</time>
      </trkpt>
      <trkpt lat="47.48374" lon="6.76931">
        <ele>312</ele>
        <time>2016-12-18T08:42:10.999Z</time>
      </trkpt>
      <trkpt lat="47.4837" lon="6.76928">
        <ele>312</ele>
        <time>2016-12-18T08:42:11.999Z</time>
      </trkpt>
      <trkpt lat="47.48365" lon="6.76925">
        <ele>311</ele>
        <time>2016-12-18T08:42:12.999Z</time>
      </trkpt>
      <trkpt lat="47.4836" lon="6.76922">
        <ele>311</ele>
        <time>2016-12-18T08:42:13.999Z</time>
      </trkpt>
      <trkpt lat="47.48354" lon="6.76919">
        <ele>311</ele>
        <time>2016-12-18T08:42:14.999Z</time>
      </trkpt>
      <trkpt lat="47.48348" lon="6.76915">
        <ele>310</ele>
        <time>2016-12-18T08:42:15.999Z</time>
      </trkpt>
      <trkpt lat="47.48343" lon="6.76912">
        <ele>310</ele>
        <time>2016-12-18T08:42:16.999Z</time>
      </trkpt>
      <trkpt lat="47.48338" lon="6.76908">
        <ele>310</ele>
        <time>2016-12-18T08:42:17.999Z</time>
      </trkpt>
      <trkpt lat="47.48333" lon="6.76904">
        <ele>310</ele>
        <time>2016-12-18T08:42:18.999Z</time>
      </trkpt>
      <trkpt lat="47.48328" lon="6.769">
        <ele>310</ele>
        <time>2016-12-18T08:42:19.999Z</time>
      </trkpt>
      <trkpt lat="47.48324" lon="6.76897">
        <ele>310</ele>
        <time>2016-12-18T08:42:20.999Z</time>
      </trkpt>
      <trkpt lat="47.48319" lon="6.76892">
        <ele>310</ele>
        <time>2016-12-18T08:42:21.999Z</time>
      </trkpt>
      <trkpt lat="47.48314" lon="6.76887">
        <ele>310</ele>
        <time>2016-12-18T08:42:22.999Z</time>
      </trkpt>
      <trkpt lat="47.48309" lon="6.76883">
        <ele>310</ele>
        <time>2016-12-18T08:42:23.999Z</time>
      </trkpt>
      <trkpt lat="47.48305" lon="6.76879">
        <ele>310</ele>
        <time>2016-12-18T08:42:24.999Z</time>
      </trkpt>
      <trkpt lat="47.483" lon="6.76876">
        <ele>310</ele>
        <time>2016-12-18T08:42:25.999Z</time>
      </trkpt>
      <trkpt lat="47.48296" lon="6.76873">
        <ele>310</ele>
        <time>2016-12-18T08:42:26.999Z</time>
      </trkpt>
      <trkpt lat="47.48291" lon="6.76869">
        <ele>310</ele>
        <time>2016-12-18T08:42:27.999Z</time>
      </trkpt>
      <trkpt lat="47.48287" lon="6.76866">
        <ele>310</ele>
        <time>2016-12-18T08:42:28.999Z</time>
      </trkpt>
      <trkpt lat="47.48283" lon="6.76862">
        <ele>310</ele>
        <time>2016-12-18T08:42:29.999Z</time>
      </trkpt>
      <trkpt lat="47.4828" lon="6.76858">
        <ele>310</ele>
        <time>2016-12-18T08:42:30.999Z</time>
      </trkpt>
      <trkpt lat="47.48276" lon="6.76852">
        <ele>310</ele>
        <time>2016-12-18T08:42:31.999Z</time>
      </trkpt>
      <trkpt lat="47.48272" lon="6.76847">
        <ele>311</ele>
        <time>2016-12-18T08:42:32.999Z</time>
      </trkpt>
      <trkpt lat="47.48268" lon="6.76841">
        <ele>311</ele>
        <time>2016-12-18T08:42:33.999Z</time>
      </trkpt>
      <trkpt lat="47.48265" lon="6.76835">
        <ele>311</ele>
        <time>2016-12-18T08:42:34.999Z</time>
      </trkpt>
      <trkpt lat="47.48262" lon="6.76831">
        <ele>312</ele>
        <time>2016-12-18T08:42:35.999Z</time>
      </trkpt>
      <trkpt lat="47.48259" lon="6.76825">
        <ele>312</ele>
        <time>2016-12-18T08:42:36.999Z</time>
      </trkpt>
      <trkpt lat="47.48255" lon="6.76821">
        <ele>312</ele>
        <time>2016-12-18T08:42:37.999Z</time>
      </trkpt>
      <trkpt lat="47.48251" lon="6.76815">
        <ele>312</ele>
        <time>2016-12-18T08:42:38.999Z</time>
      </trkpt>
      <trkpt lat="47.48248" lon="6.76811">
        <ele>312</ele>
        <time>2016-12-18T08:42:39.999Z</time>
      </trkpt>
      <trkpt lat="47.48243" lon="6.76806">
        <ele>312</ele>
        <time>2016-12-18T08:42:40.999Z</time>
      </trkpt>
      <trkpt lat="47.48239" lon="6.76801">
        <ele>312</ele>
        <time>2016-12-18T08:42:41.999Z</time>
      </trkpt>
      <trkpt lat="47.48234" lon="6.76798">
        <ele>312</ele>
        <time>2016-12-18T08:42:42.999Z</time>
      </trkpt>
      <trkpt lat="47.48229" lon="6.76796">
        <ele>312</ele>
        <time>2016-12-18T08:42:43.999Z</time>
      </trkpt>
      <trkpt lat="47.48224" lon="6.76793">
        <ele>312</ele>
        <time>2016-12-18T08:42:44.999Z</time>
      </trkpt>
      <trkpt lat="47.48217" lon="6.7679">
        <ele>312</ele>
        <time>2016-12-18T08:42:45.999Z</time>
      </trkpt>
      <trkpt lat="47.48211" lon="6.76788">
        <ele>312</ele>
        <time>2016-12-18T08:42:46.999Z</time>
      </trkpt>
      <trkpt lat="47.48207" lon="6.76785">
        <ele>312</ele>
        <time>2016-12-18T08:42:47.999Z</time>
      </trkpt>
      <trkpt lat="47.48202" lon="6.76783">
        <ele>312</ele>
        <time>2016-12-18T08:42:48.999Z</time>
      </trkpt>
      <trkpt lat="47.48198" lon="6.7678">
        <ele>312</ele>
        <time>2016-12-18T08:42:49.999Z</time>
      </trkpt>
      <trkpt lat="47.48193" lon="6.76778">
        <ele>312</ele>
        <time>2016-12-18T08:42:50.999Z</time>
      </trkpt>
      <trkpt lat="47.48188" lon="6.76774">
        <ele>312</ele>
        <time>2016-12-18T08:42:51.999Z</time>
      </trkpt>
      <trkpt lat="47.48183" lon="6.7677">
        <ele>312</ele>
        <time>2016-12-18T08:42:52.999Z</time>
      </trkpt>
      <trkpt lat="47.48178" lon="6.76765">
        <ele>312</ele>
        <time>2016-12-18T08:42:53.999Z</time>
      </trkpt>
      <trkpt lat="47.48175" lon="6.76761">
        <ele>313</ele>
        <time>2016-12-18T08:42:54.999Z</time>
      </trkpt>
      <trkpt lat="47.48171" lon="6.76756">
        <ele>313</ele>
        <time>2016-12-18T08:42:55.999Z</time>
      </trkpt>
      <trkpt lat="47.48167" lon="6.76751">
        <ele>313</ele>
        <time>2016-12-18T08:42:56.999Z</time>
      </trkpt>
      <trkpt lat="47.48163" lon="6.76745">
        <ele>313</ele>
        <time>2016-12-18T08:42:57.999Z</time>
      </trkpt>
      <trkpt lat="47.48159" lon="6.7674">
        <ele>313</ele>
        <time>2016-12-18T08:42:58.999Z</time>
      </trkpt>
      <trkpt lat="47.48155" lon="6.76732">
        <ele>312</ele>
        <time>2016-12-18T08:42:59.999Z</time>
      </trkpt>
      <trkpt lat="47.48152" lon="6.76726">
        <ele>312</ele>
        <time>2016-12-18T08:43:00.999Z</time>
      </trkpt>
      <trkpt lat="47.48148" lon="6.76719">
        <ele>312</ele>
        <time>2016-12-18T08:43:01.999Z</time>
      </trkpt>
      <trkpt lat="47.48145" lon="6.76713">
        <ele>312</ele>
        <time>2016-12-18T08:43:02.999Z</time>
      </trkpt>
      <trkpt lat="47.48142" lon="6.76706">
        <ele>312</ele>
        <time>2016-12-18T08:43:03.999Z</time>
      </trkpt>
      <trkpt lat="47.48139" lon="6.767">
        <ele>312</ele>
        <time>2016-12-18T08:43:04.999Z</time>
      </trkpt>
      <trkpt lat="47.48136" lon="6.76693">
        <ele>312</ele>
        <time>2016-12-18T08:43:05.999Z</time>
      </trkpt>
      <trkpt lat="47.48132" lon="6.76687">
        <ele>312</ele>
        <time>2016-12-18T08:43:06.999Z</time>
      </trkpt>
      <trkpt lat="47.48129" lon="6.76681">
        <ele>312</ele>
        <time>2016-12-18T08:43:07.999Z</time>
      </trkpt>
      <trkpt lat="47.48126" lon="6.76676">
        <ele>312</ele>
        <time>2016-12-18T08:43:08.999Z</time>
      </trkpt>
      <trkpt lat="47.48122" lon="6.76672">
        <ele>312</ele>
        <time>2016-12-18T08:43:09.999Z</time>
      </trkpt>
      <trkpt lat="47.48117" lon="6.76667">
        <ele>312</ele>
        <time>2016-12-18T08:43:10.999Z</time>
      </trkpt>
      <trkpt lat="47.48114" lon="6.76661">
        <ele>312</ele>
        <time>2016-12-18T08:43:11.999Z</time>
      </trkpt>
      <trkpt lat="47.48112" lon="6.76657">
        <ele>312</ele>
        <time>2016-12-18T08:43:12.999Z</time>
      </trkpt>
      <trkpt lat="47.48109" lon="6.76651">
        <ele>312</ele>
        <time>2016-12-18T08:43:13.999Z</time>
      </trkpt>
      <trkpt lat="47.48106" lon="6.76646">
        <ele>312</ele>
        <time>2016-12-18T08:43:14.999Z</time>
      </trkpt>
      <trkpt lat="47.48104" lon="6.7664">
        <ele>313</ele>
        <time>2016-12-18T08:43:15.999Z</time>
      </trkpt>
      <trkpt lat="47.481" lon="6.76634">
        <ele>313</ele>
        <time>2016-12-18T08:43:16.999Z</time>
      </trkpt>
      <trkpt lat="47.48097" lon="6.76628">
        <ele>313</ele>
        <time>2016-12-18T08:43:17.999Z</time>
      </trkpt>
      <trkpt lat="47.48096" lon="6.76622">
        <ele>313</ele>
        <time>2016-12-18T08:43:18.999Z</time>
      </trkpt>
      <trkpt lat="47.48095" lon="6.76615">
        <ele>313</ele>
        <time>2016-12-18T08:43:19.999Z</time>
      </trkpt>
      <trkpt lat="47.48095" lon="6.76608">
        <ele>313</ele>
        <time>2016-12-18T08:43:20.999Z</time>
      </trkpt>
      <trkpt lat="47.48096" lon="6.76601">
        <ele>313</ele>
        <time>2016-12-18T08:43:21.999Z</time>
      </trkpt>
      <trkpt lat="47.48097" lon="6.76593">
        <ele>313</ele>
        <time>2016-12-18T08:43:22.999Z</time>
      </trkpt>
      <trkpt lat="47.48099" lon="6.76587">
        <ele>313</ele>
        <time>2016-12-18T08:43:23.999Z</time>
      </trkpt>
      <trkpt lat="47.48101" lon="6.76581">
        <ele>316</ele>
        <time>2016-12-18T08:43:24.999Z</time>
      </trkpt>
      <trkpt lat="47.48102" lon="6.76576">
        <ele>316</ele>
        <time>2016-12-18T08:43:25.999Z</time>
      </trkpt>
      <trkpt lat="47.48104" lon="6.76572">
        <ele>317</ele>
        <time>2016-12-18T08:43:26.999Z</time>
      </trkpt>
      <trkpt lat="47.48106" lon="6.76568">
        <ele>317</ele>
        <time>2016-12-18T08:43:27.999Z</time>
      </trkpt>
      <trkpt lat="47.48107" lon="6.76564">
        <ele>317</ele>
        <time>2016-12-18T08:43:28.999Z</time>
      </trkpt>
      <trkpt lat="47.48109" lon="6.7656">
        <ele>318</ele>
        <time>2016-12-18T08:43:29.999Z</time>
      </trkpt>
      <trkpt lat="47.4811" lon="6.76554">
        <ele>318</ele>
        <time>2016-12-18T08:43:30.999Z</time>
      </trkpt>
      <trkpt lat="47.4811" lon="6.7655">
        <ele>318</ele>
        <time>2016-12-18T08:43:31.999Z</time>
      </trkpt>
      <trkpt lat="47.48108" lon="6.76547">
        <ele>318</ele>
        <time>2016-12-18T08:43:32.999Z</time>
      </trkpt>
      <trkpt lat="47.48106" lon="6.76541">
        <ele>318</ele>
        <time>2016-12-18T08:43:33.999Z</time>
      </trkpt>
      <trkpt lat="47.48105" lon="6.76535">
        <ele>318</ele>
        <time>2016-12-18T08:43:34.999Z</time>
      </trkpt>
      <trkpt lat="47.48105" lon="6.76529">
        <ele>319</ele>
        <time>2016-12-18T08:43:35.999Z</time>
      </trkpt>
      <trkpt lat="47.48103" lon="6.76523">
        <ele>318</ele>
        <time>2016-12-18T08:43:36.999Z</time>
      </trkpt>
      <trkpt lat="47.481" lon="6.76519">
        <ele>318</ele>
        <time>2016-12-18T08:43:37.999Z</time>
      </trkpt>
      <trkpt lat="47.48098" lon="6.76516">
        <ele>317</ele>
        <time>2016-12-18T08:43:38.999Z</time>
      </trkpt>
      <trkpt lat="47.48095" lon="6.76516">
        <ele>317</ele>
        <time>2016-12-18T08:43:40.999Z</time>
      </trkpt>
      <trkpt lat="47.48092" lon="6.76518">
        <ele>317</ele>
        <time>2016-12-18T08:43:41.999Z</time>
      </trkpt>
      <trkpt lat="47.48089" lon="6.76521">
        <ele>317</ele>
        <time>2016-12-18T08:43:42.999Z</time>
      </trkpt>
      <trkpt lat="47.48086" lon="6.76524">
        <ele>317</ele>
        <time>2016-12-18T08:43:43.999Z</time>
      </trkpt>
      <trkpt lat="47.48083" lon="6.76527">
        <ele>312</ele>
        <time>2016-12-18T08:43:44.999Z</time>
      </trkpt>
      <trkpt lat="47.48079" lon="6.76531">
        <ele>312</ele>
        <time>2016-12-18T08:43:45.999Z</time>
      </trkpt>
      <trkpt lat="47.48075" lon="6.76534">
        <ele>312</ele>
        <time>2016-12-18T08:43:46.999Z</time>
      </trkpt>
      <trkpt lat="47.48072" lon="6.76537">
        <ele>312</ele>
        <time>2016-12-18T08:43:47.999Z</time>
      </trkpt>
      <trkpt lat="47.48068" lon="6.7654">
        <ele>312</ele>
        <time>2016-12-18T08:43:48.999Z</time>
      </trkpt>
      <trkpt lat="47.48065" lon="6.76543">
        <ele>312</ele>
        <time>2016-12-18T08:43:49.999Z</time>
      </trkpt>
      <trkpt lat="47.48062" lon="6.76547">
        <ele>312</ele>
        <time>2016-12-18T08:43:50.999Z</time>
      </trkpt>
      <trkpt lat="47.48059" lon="6.76551">
        <ele>312</ele>
        <time>2016-12-18T08:43:51.999Z</time>
      </trkpt>
      <trkpt lat="47.48056" lon="6.76553">
        <ele>312</ele>
        <time>2016-12-18T08:43:52.999Z</time>
      </trkpt>
      <trkpt lat="47.48053" lon="6.76557">
        <ele>312</ele>
        <time>2016-12-18T08:43:53.999Z</time>
      </trkpt>
      <trkpt lat="47.48048" lon="6.76561">
        <ele>312</ele>
        <time>2016-12-18T08:43:54.999Z</time>
      </trkpt>
      <trkpt lat="47.48044" lon="6.76564">
        <ele>312</ele>
        <time>2016-12-18T08:43:55.999Z</time>
      </trkpt>
      <trkpt lat="47.48041" lon="6.76567">
        <ele>312</ele>
        <time>2016-12-18T08:43:56.999Z</time>
      </trkpt>
      <trkpt lat="47.48037" lon="6.7657">
        <ele>312</ele>
        <time>2016-12-18T08:43:57.999Z</time>
      </trkpt>
      <trkpt lat="47.48034" lon="6.76573">
        <ele>312</ele>
        <time>2016-12-18T08:43:58.999Z</time>
      </trkpt>
      <trkpt lat="47.4803" lon="6.76576">
        <ele>312</ele>
        <time>2016-12-18T08:43:59.999Z</time>
      </trkpt>
      <trkpt lat="47.48026" lon="6.7658">
        <ele>312</ele>
        <time>2016-12-18T08:44:00.999Z</time>
      </trkpt>
      <trkpt lat="47.48021" lon="6.76584">
        <ele>312</ele>
        <time>2016-12-18T08:44:01.999Z</time>
      </trkpt>
      <trkpt lat="47.48018" lon="6.76586">
        <ele>312</ele>
        <time>2016-12-18T08:44:02.999Z</time>
      </trkpt>
      <trkpt lat="47.48014" lon="6.76587">
        <ele>312</ele>
        <time>2016-12-18T08:44:03.999Z</time>
      </trkpt>
      <trkpt lat="47.48011" lon="6.7659">
        <ele>312</ele>
        <time>2016-12-18T08:44:04.999Z</time>
      </trkpt>
      <trkpt lat="47.48007" lon="6.76592">
        <ele>312</ele>
        <time>2016-12-18T08:44:05.999Z</time>
      </trkpt>
      <trkpt lat="47.48003" lon="6.76594">
        <ele>312</ele>
        <time>2016-12-18T08:44:06.999Z</time>
      </trkpt>
      <trkpt lat="47.47998" lon="6.76597">
        <ele>312</ele>
        <time>2016-12-18T08:44:07.999Z</time>
      </trkpt>
      <trkpt lat="47.47994" lon="6.766">
        <ele>312</ele>
        <time>2016-12-18T08:44:08.999Z</time>
      </trkpt>
      <trkpt lat="47.4799" lon="6.76603">
        <ele>312</ele>
        <time>2016-12-18T08:44:09.999Z</time>
      </trkpt>
      <trkpt lat="47.47986" lon="6.76605">
        <ele>312</ele>
        <time>2016-12-18T08:44:10.999Z</time>
      </trkpt>
      <trkpt lat="47.47982" lon="6.76605">
        <ele>311</ele>
        <time>2016-12-18T08:44:12.999Z</time>
      </trkpt>
      <trkpt lat="47.4798" lon="6.76604">
        <ele>311</ele>
        <time>2016-12-18T08:44:13.999Z</time>
      </trkpt>
      <trkpt lat="47.47976" lon="6.76604">
        <ele>311</ele>
        <time>2016-12-18T08:44:14.999Z</time>
      </trkpt>
      <trkpt lat="47.47972" lon="6.76604">
        <ele>311</ele>
        <time>2016-12-18T08:44:15.999Z</time>
      </trkpt>
      <trkpt lat="47.47968" lon="6.76606">
        <ele>311</ele>
        <time>2016-12-18T08:44:16.999Z</time>
      </trkpt>
      <trkpt lat="47.47963" lon="6.76609">
        <ele>311</ele>
        <time>2016-12-18T08:44:17.999Z</time>
      </trkpt>
      <trkpt lat="47.47959" lon="6.76611">
        <ele>311</ele>
        <time>2016-12-18T08:44:18.999Z</time>
      </trkpt>
      <trkpt lat="47.47956" lon="6.76613">
        <ele>311</ele>
        <time>2016-12-18T08:44:19.999Z</time>
      </trkpt>
      <trkpt lat="47.47954" lon="6.76612">
        <ele>311</ele>
        <time>2016-12-18T08:44:20.999Z</time>
      </trkpt>
      <trkpt lat="47.47952" lon="6.7661">
        <ele>311</ele>
        <time>2016-12-18T08:44:21.999Z</time>
      </trkpt>
      <trkpt lat="47.47948" lon="6.76604">
        <ele>311</ele>
        <time>2016-12-18T08:44:22.999Z</time>
      </trkpt>
      <trkpt lat="47.47947" lon="6.76598">
        <ele>311</ele>
        <time>2016-12-18T08:44:23.999Z</time>
      </trkpt>
      <trkpt lat="47.47947" lon="6.76591">
        <ele>311</ele>
        <time>2016-12-18T08:44:24.999Z</time>
      </trkpt>
      <trkpt lat="47.47946" lon="6.76583">
        <ele>311</ele>
        <time>2016-12-18T08:44:25.999Z</time>
      </trkpt>
      <trkpt lat="47.47944" lon="6.76573">
        <ele>311</ele>
        <time>2016-12-18T08:44:26.999Z</time>
      </trkpt>
      <trkpt lat="47.47942" lon="6.76563">
        <ele>311</ele>
        <time>2016-12-18T08:44:27.999Z</time>
      </trkpt>
      <trkpt lat="47.4794" lon="6.76554">
        <ele>311</ele>
        <time>2016-12-18T08:44:28.999Z</time>
      </trkpt>
      <trkpt lat="47.47938" lon="6.76545">
        <ele>311</ele>
        <time>2016-12-18T08:44:29.999Z</time>
      </trkpt>
      <trkpt lat="47.47936" lon="6.76536">
        <ele>311</ele>
        <time>2016-12-18T08:44:30.999Z</time>
      </trkpt>
      <trkpt lat="47.47934" lon="6.76528">
        <ele>311</ele>
        <time>2016-12-18T08:44:31.999Z</time>
      </trkpt>
      <trkpt lat="47.47932" lon="6.76521">
        <ele>311</ele>
        <time>2016-12-18T08:44:32.999Z</time>
      </trkpt>
      <trkpt lat="47.47931" lon="6.76514">
        <ele>311</ele>
        <time>2016-12-18T08:44:33.999Z</time>
      </trkpt>
      <trkpt lat="47.4793" lon="6.76506">
        <ele>310</ele>
        <time>2016-12-18T08:44:34.999Z</time>
      </trkpt>
      <trkpt lat="47.47928" lon="6.76499">
        <ele>310</ele>
        <time>2016-12-18T08:44:35.999Z</time>
      </trkpt>
      <trkpt lat="47.47926" lon="6.7649">
        <ele>310</ele>
        <time>2016-12-18T08:44:36.999Z</time>
      </trkpt>
      <trkpt lat="47.47925" lon="6.76483">
        <ele>311</ele>
        <time>2016-12-18T08:44:37.999Z</time>
      </trkpt>
      <trkpt lat="47.47923" lon="6.76475">
        <ele>311</ele>
        <time>2016-12-18T08:44:38.999Z</time>
      </trkpt>
      <trkpt lat="47.47921" lon="6.76466">
        <ele>311</ele>
        <time>2016-12-18T08:44:39.999Z</time>
      </trkpt>
      <trkpt lat="47.47919" lon="6.76459">
        <ele>311</ele>
        <time>2016-12-18T08:44:40.999Z</time>
      </trkpt>
      <trkpt lat="47.47918" lon="6.76452">
        <ele>311</ele>
        <time>2016-12-18T08:44:41.999Z</time>
      </trkpt>
      <trkpt lat="47.47916" lon="6.76445">
        <ele>311</ele>
        <time>2016-12-18T08:44:42.999Z</time>
      </trkpt>
      <trkpt lat="47.47914" lon="6.76439">
        <ele>311</ele>
        <time>2016-12-18T08:44:43.999Z</time>
      </trkpt>
      <trkpt lat="47.47912" lon="6.76432">
        <ele>311</ele>
        <time>2016-12-18T08:44:44.999Z</time>
      </trkpt>
      <trkpt lat="47.47909" lon="6.76425">
        <ele>311</ele>
        <time>2016-12-18T08:44:45.999Z</time>
      </trkpt>
      <trkpt lat="47.47906" lon="6.76419">
        <ele>311</ele>
        <time>2016-12-18T08:44:46.999Z</time>
      </trkpt>
      <trkpt lat="47.47904" lon="6.76413">
        <ele>311</ele>
        <time>2016-12-18T08:44:47.999Z</time>
      </trkpt>
      <trkpt lat="47.47901" lon="6.76406">
        <ele>311</ele>
        <time>2016-12-18T08:44:48.999Z</time>
      </trkpt>
      <trkpt lat="47.47899" lon="6.764">
        <ele>311</ele>
        <time>2016-12-18T08:44:49.999Z</time>
      </trkpt>
      <trkpt lat="47.47896" lon="6.76394">
        <ele>311</ele>
        <time>2016-12-18T08:44:50.999Z</time>
      </trkpt>
      <trkpt lat="47.47893" lon="6.76387">
        <ele>311</ele>
        <time>2016-12-18T08:44:51.999Z</time>
      </trkpt>
      <trkpt lat="47.4789" lon="6.7638">
        <ele>311</ele>
        <time>2016-12-18T08:44:52.999Z</time>
      </trkpt>
      <trkpt lat="47.47887" lon="6.76373">
        <ele>311</ele>
        <time>2016-12-18T08:44:53.999Z</time>
      </trkpt>
      <trkpt lat="47.47884" lon="6.76367">
        <ele>311</ele>
        <time>2016-12-18T08:44:54.999Z</time>
      </trkpt>
      <trkpt lat="47.47881" lon="6.76361">
        <ele>311</ele>
        <time>2016-12-18T08:44:55.999Z</time>
      </trkpt>
      <trkpt lat="47.47879" lon="6.76355">
        <ele>311</ele>
        <time>2016-12-18T08:44:56.999Z</time>
      </trkpt>
      <trkpt lat="47.47875" lon="6.76348">
        <ele>311</ele>
        <time>2016-12-18T08:44:57.999Z</time>
      </trkpt>
      <trkpt lat="47.47872" lon="6.76341">
        <ele>311</ele>
        <time>2016-12-18T08:44:58.999Z</time>
      </trkpt>
      <trkpt lat="47.47869" lon="6.76334">
        <ele>311</ele>
        <time>2016-12-18T08:44:59.999Z</time>
      </trkpt>
      <trkpt lat="47.47866" lon="6.76328">
        <ele>310</ele>
        <time>2016-12-18T08:45:00.999Z</time>
      </trkpt>
      <trkpt lat="47.47863" lon="6.7632">
        <ele>310</ele>
        <time>2016-12-18T08:45:01.999Z</time>
      </trkpt>
      <trkpt lat="47.47859" lon="6.76315">
        <ele>310</ele>
        <time>2016-12-18T08:45:02.999Z</time>
      </trkpt>
      <trkpt lat="47.47856" lon="6.76309">
        <ele>310</ele>
        <time>2016-12-18T08:45:03.999Z</time>
      </trkpt>
      <trkpt lat="47.47853" lon="6.76304">
        <ele>310</ele>
        <time>2016-12-18T08:45:04.999Z</time>
      </trkpt>
      <trkpt lat="47.4785" lon="6.76298">
        <ele>310</ele>
        <time>2016-12-18T08:45:05.999Z</time>
      </trkpt>
      <trkpt lat="47.47846" lon="6.76292">
        <ele>310</ele>
        <time>2016-12-18T08:45:06.999Z</time>
      </trkpt>
      <trkpt lat="47.47842" lon="6.76286">
        <ele>311</ele>
        <time>2016-12-18T08:45:07.999Z</time>
      </trkpt>
      <trkpt lat="47.47837" lon="6.76281">
        <ele>311</ele>
        <time>2016-12-18T08:45:08.999Z</time>
      </trkpt>
      <trkpt lat="47.47832" lon="6.76275">
        <ele>310</ele>
        <time>2016-12-18T08:45:09.999Z</time>
      </trkpt>
      <trkpt lat="47.47827" lon="6.76271">
        <ele>310</ele>
        <time>2016-12-18T08:45:10.999Z</time>
      </trkpt>
      <trkpt lat="47.47821" lon="6.76267">
        <ele>310</ele>
        <time>2016-12-18T08:45:11.999Z</time>
      </trkpt>
      <trkpt lat="47.47817" lon="6.76265">
        <ele>310</ele>
        <time>2016-12-18T08:45:12.999Z</time>
      </trkpt>
      <trkpt lat="47.47813" lon="6.76263">
        <ele>310</ele>
        <time>2016-12-18T08:45:13.999Z</time>
      </trkpt>
      <trkpt lat="47.47807" lon="6.76261">
        <ele>310</ele>
        <time>2016-12-18T08:45:14.999Z</time>
      </trkpt>
      <trkpt lat="47.47803" lon="6.7626">
        <ele>310</ele>
        <time>2016-12-18T08:45:15.999Z</time>
      </trkpt>
      <trkpt lat="47.47798" lon="6.76257">
        <ele>310</ele>
        <time>2016-12-18T08:45:16.999Z</time>
      </trkpt>
      <trkpt lat="47.47793" lon="6.76255">
        <ele>310</ele>
        <time>2016-12-18T08:45:17.999Z</time>
      </trkpt>
      <trkpt lat="47.47789" lon="6.76252">
        <ele>310</ele>
        <time>2016-12-18T08:45:18.999Z</time>
      </trkpt>
      <trkpt lat="47.47784" lon="6.76248">
        <ele>309</ele>
        <time>2016-12-18T08:45:19.999Z</time>
      </trkpt>
      <trkpt lat="47.47779" lon="6.76243">
        <ele>309</ele>
        <time>2016-12-18T08:45:20.999Z</time>
      </trkpt>
      <trkpt lat="47.47775" lon="6.76237">
        <ele>309</ele>
        <time>2016-12-18T08:45:21.999Z</time>
      </trkpt>
      <trkpt lat="47.47771" lon="6.76231">
        <ele>309</ele>
        <time>2016-12-18T08:45:22.999Z</time>
      </trkpt>
      <trkpt lat="47.47768" lon="6.76226">
        <ele>309</ele>
        <time>2016-12-18T08:45:23.999Z</time>
      </trkpt>
      <trkpt lat="47.47765" lon="6.7622">
        <ele>309</ele>
        <time>2016-12-18T08:45:24.999Z</time>
      </trkpt>
      <trkpt lat="47.47762" lon="6.76214">
        <ele>309</ele>
        <time>2016-12-18T08:45:25.999Z</time>
      </trkpt>
      <trkpt lat="47.47759" lon="6.76209">
        <ele>309</ele>
        <time>2016-12-18T08:45:26.999Z</time>
      </trkpt>
      <trkpt lat="47.47755" lon="6.76204">
        <ele>309</ele>
        <time>2016-12-18T08:45:27.999Z</time>
      </trkpt>
      <trkpt lat="47.47751" lon="6.76198">
        <ele>309</ele>
        <time>2016-12-18T08:45:28.999Z</time>
      </trkpt>
      <trkpt lat="47.47748" lon="6.76194">
        <ele>309</ele>
        <time>2016-12-18T08:45:29.999Z</time>
      </trkpt>
      <trkpt lat="47.47745" lon="6.76188">
        <ele>308</ele>
        <time>2016-12-18T08:45:30.999Z</time>
      </trkpt>
      <trkpt lat="47.47742" lon="6.76183">
        <ele>308</ele>
        <time>2016-12-18T08:45:31.999Z</time>
      </trkpt>
      <trkpt lat="47.47738" lon="6.76178">
        <ele>308</ele>
        <time>2016-12-18T08:45:32.999Z</time>
      </trkpt>
      <trkpt lat="47.47735" lon="6.76172">
        <ele>308</ele>
        <time>2016-12-18T08:45:33.999Z</time>
      </trkpt>
      <trkpt lat="47.47732" lon="6.76168">
        <ele>308</ele>
        <time>2016-12-18T08:45:34.999Z</time>
      </trkpt>
      <trkpt lat="47.47728" lon="6.76162">
        <ele>309</ele>
        <time>2016-12-18T08:45:35.999Z</time>
      </trkpt>
      <trkpt lat="47.47725" lon="6.76157">
        <ele>309</ele>
        <time>2016-12-18T08:45:36.999Z</time>
      </trkpt>
      <trkpt lat="47.47721" lon="6.76151">
        <ele>309</ele>
        <time>2016-12-18T08:45:37.999Z</time>
      </trkpt>
      <trkpt lat="47.47718" lon="6.76147">
        <ele>309</ele>
        <time>2016-12-18T08:45:38.999Z</time>
      </trkpt>
      <trkpt lat="47.47716" lon="6.76142">
        <ele>309</ele>
        <time>2016-12-18T08:45:39.999Z</time>
      </trkpt>
      <trkpt lat="47.47713" lon="6.76137">
        <ele>309</ele>
        <time>2016-12-18T08:45:40.999Z</time>
      </trkpt>
      <trkpt lat="47.47709" lon="6.76132">
        <ele>309</ele>
        <time>2016-12-18T08:45:41.999Z</time>
      </trkpt>
      <trkpt lat="47.47706" lon="6.76127">
        <ele>310</ele>
        <time>2016-12-18T08:45:42.999Z</time>
      </trkpt>
      <trkpt lat="47.47703" lon="6.76123">
        <ele>310</ele>
        <time>2016-12-18T08:45:43.999Z</time>
      </trkpt>
      <trkpt lat="47.477" lon="6.76119">
        <ele>310</ele>
        <time>2016-12-18T08:45:44.999Z</time>
      </trkpt>
      <trkpt lat="47.47697" lon="6.76114">
        <ele>310</ele>
        <time>2016-12-18T08:45:45.999Z</time>
      </trkpt>
      <trkpt lat="47.47693" lon="6.76108">
        <ele>310</ele>
        <time>2016-12-18T08:45:46.999Z</time>
      </trkpt>
      <trkpt lat="47.47689" lon="6.76102">
        <ele>310</ele>
        <time>2016-12-18T08:45:47.999Z</time>
      </trkpt>
      <trkpt lat="47.47686" lon="6.76097">
        <ele>310</ele>
        <time>2016-12-18T08:45:48.999Z</time>
      </trkpt>
      <trkpt lat="47.47682" lon="6.76093">
        <ele>310</ele>
        <time>2016-12-18T08:45:49.999Z</time>
      </trkpt>
      <trkpt lat="47.47678" lon="6.76089">
        <ele>310</ele>
        <time>2016-12-18T08:45:50.999Z</time>
      </trkpt>
      <trkpt lat="47.47675" lon="6.76088">
        <ele>311</ele>
        <time>2016-12-18T08:45:51.999Z</time>
      </trkpt>
      <trkpt lat="47.4767" lon="6.76091">
        <ele>311</ele>
        <time>2016-12-18T08:45:52.999Z</time>
      </trkpt>
      <trkpt lat="47.47667" lon="6.76096">
        <ele>310</ele>
        <time>2016-12-18T08:45:53.999Z</time>
      </trkpt>
      <trkpt lat="47.47665" lon="6.76104">
        <ele>311</ele>
        <time>2016-12-18T08:45:54.999Z</time>
      </trkpt>
      <trkpt lat="47.47664" lon="6.7611">
        <ele>311</ele>
        <time>2016-12-18T08:45:55.999Z</time>
      </trkpt>
      <trkpt lat="47.47662" lon="6.76118">
        <ele>311</ele>
        <time>2016-12-18T08:45:56.999Z</time>
      </trkpt>
      <trkpt lat="47.4766" lon="6.76125">
        <ele>311</ele>
        <time>2016-12-18T08:45:57.999Z</time>
      </trkpt>
      <trkpt lat="47.47659" lon="6.7613">
        <ele>311</ele>
        <time>2016-12-18T08:45:58.999Z</time>
      </trkpt>
      <trkpt lat="47.47657" lon="6.76135">
        <ele>311</ele>
        <time>2016-12-18T08:45:59.999Z</time>
      </trkpt>
      <trkpt lat="47.47656" lon="6.76139">
        <ele>311</ele>
        <time>2016-12-18T08:46:00.999Z</time>
      </trkpt>
      <trkpt lat="47.47654" lon="6.76144">
        <ele>311</ele>
        <time>2016-12-18T08:46:01.999Z</time>
      </trkpt>
      <trkpt lat="47.47653" lon="6.76149">
        <ele>311</ele>
        <time>2016-12-18T08:46:02.999Z</time>
      </trkpt>
      <trkpt lat="47.47651" lon="6.76156">
        <ele>311</ele>
        <time>2016-12-18T08:46:03.999Z</time>
      </trkpt>
      <trkpt lat="47.47649" lon="6.76162">
        <ele>311</ele>
        <time>2016-12-18T08:46:04.999Z</time>
      </trkpt>
      <trkpt lat="47.47646" lon="6.76171">
        <ele>311</ele>
        <time>2016-12-18T08:46:05.999Z</time>
      </trkpt>
      <trkpt lat="47.47643" lon="6.7618">
        <ele>311</ele>
        <time>2016-12-18T08:46:06.999Z</time>
      </trkpt>
      <trkpt lat="47.4764" lon="6.76188">
        <ele>311</ele>
        <time>2016-12-18T08:46:07.999Z</time>
      </trkpt>
      <trkpt lat="47.47636" lon="6.76197">
        <ele>311</ele>
        <time>2016-12-18T08:46:08.999Z</time>
      </trkpt>
      <trkpt lat="47.47633" lon="6.76203">
        <ele>311</ele>
        <time>2016-12-18T08:46:09.999Z</time>
      </trkpt>
      <trkpt lat="47.4763" lon="6.7621">
        <ele>311</ele>
        <time>2016-12-18T08:46:10.999Z</time>
      </trkpt>
      <trkpt lat="47.47628" lon="6.76216">
        <ele>311</ele>
        <time>2016-12-18T08:46:11.999Z</time>
      </trkpt>
      <trkpt lat="47.47625" lon="6.76223">
        <ele>311</ele>
        <time>2016-12-18T08:46:12.999Z</time>
      </trkpt>
      <trkpt lat="47.47622" lon="6.7623">
        <ele>311</ele>
        <time>2016-12-18T08:46:13.999Z</time>
      </trkpt>
      <trkpt lat="47.47618" lon="6.76235">
        <ele>311</ele>
        <time>2016-12-18T08:46:14.999Z</time>
      </trkpt>
      <trkpt lat="47.47616" lon="6.7624">
        <ele>311</ele>
        <time>2016-12-18T08:46:15.999Z</time>
      </trkpt>
      <trkpt lat="47.47613" lon="6.76247">
        <ele>311</ele>
        <time>2016-12-18T08:46:16.999Z</time>
      </trkpt>
      <trkpt lat="47.47609" lon="6.76254">
        <ele>311</ele>
        <time>2016-12-18T08:46:17.999Z</time>
      </trkpt>
      <trkpt lat="47.47606" lon="6.7626">
        <ele>311</ele>
        <time>2016-12-18T08:46:18.999Z</time>
      </trkpt>
      <trkpt lat="47.47603" lon="6.76268">
        <ele>311</ele>
        <time>2016-12-18T08:46:19.999Z</time>
      </trkpt>
      <trkpt lat="47.476" lon="6.76274">
        <ele>311</ele>
        <time>2016-12-18T08:46:20.999Z</time>
      </trkpt>
      <trkpt lat="47.47596" lon="6.7628">
        <ele>311</ele>
        <time>2016-12-18T08:46:21.999Z</time>
      </trkpt>
      <trkpt lat="47.47593" lon="6.76286">
        <ele>311</ele>
        <time>2016-12-18T08:46:22.999Z</time>
      </trkpt>
      <trkpt lat="47.47588" lon="6.76293">
        <ele>311</ele>
        <time>2016-12-18T08:46:23.999Z</time>
      </trkpt>
      <trkpt lat="47.47584" lon="6.76299">
        <ele>311</ele>
        <time>2016-12-18T08:46:24.999Z</time>
      </trkpt>
      <trkpt lat="47.47581" lon="6.76305">
        <ele>312</ele>
        <time>2016-12-18T08:46:25.999Z</time>
      </trkpt>
      <trkpt lat="47.47578" lon="6.7631">
        <ele>312</ele>
        <time>2016-12-18T08:46:26.999Z</time>
      </trkpt>
      <trkpt lat="47.47575" lon="6.76317">
        <ele>312</ele>
        <time>2016-12-18T08:46:27.999Z</time>
      </trkpt>
      <trkpt lat="47.47571" lon="6.76323">
        <ele>312</ele>
        <time>2016-12-18T08:46:28.999Z</time>
      </trkpt>
      <trkpt lat="47.47568" lon="6.76328">
        <ele>312</ele>
        <time>2016-12-18T08:46:29.999Z</time>
      </trkpt>
      <trkpt lat="47.47565" lon="6.76335">
        <ele>311</ele>
        <time>2016-12-18T08:46:30.999Z</time>
      </trkpt>
      <trkpt lat="47.47562" lon="6.76341">
        <ele>311</ele>
        <time>2016-12-18T08:46:31.999Z</time>
      </trkpt>
      <trkpt lat="47.47559" lon="6.76348">
        <ele>311</ele>
        <time>2016-12-18T08:46:32.999Z</time>
      </trkpt>
      <trkpt lat="47.47556" lon="6.76354">
        <ele>310</ele>
        <time>2016-12-18T08:46:33.999Z</time>
      </trkpt>
      <trkpt lat="47.47553" lon="6.7636">
        <ele>310</ele>
        <time>2016-12-18T08:46:34.999Z</time>
      </trkpt>
      <trkpt lat="47.47551" lon="6.76367">
        <ele>310</ele>
        <time>2016-12-18T08:46:35.999Z</time>
      </trkpt>
      <trkpt lat="47.47549" lon="6.76375">
        <ele>310</ele>
        <time>2016-12-18T08:46:36.999Z</time>
      </trkpt>
      <trkpt lat="47.47548" lon="6.76382">
        <ele>310</ele>
        <time>2016-12-18T08:46:37.999Z</time>
      </trkpt>
      <trkpt lat="47.47546" lon="6.76388">
        <ele>310</ele>
        <time>2016-12-18T08:46:38.999Z</time>
      </trkpt>
      <trkpt lat="47.4754" lon="6.76396">
        <ele>310</ele>
        <time>2016-12-18T08:46:39.999Z</time>
      </trkpt>
      <trkpt lat="47.47536" lon="6.764">
        <ele>310</ele>
        <time>2016-12-18T08:46:40.999Z</time>
      </trkpt>
      <trkpt lat="47.47535" lon="6.76402">
        <ele>310</ele>
        <time>2016-12-18T08:46:41.999Z</time>
      </trkpt>
      <trkpt lat="47.47531" lon="6.76404">
        <ele>310</ele>
        <time>2016-12-18T08:46:42.999Z</time>
      </trkpt>
      <trkpt lat="47.47528" lon="6.76405">
        <ele>310</ele>
        <time>2016-12-18T08:46:43.999Z</time>
      </trkpt>
      <trkpt lat="47.47525" lon="6.76405">
        <ele>310</ele>
        <time>2016-12-18T08:46:44.999Z</time>
      </trkpt>
      <trkpt lat="47.4752" lon="6.76404">
        <ele>310</ele>
        <time>2016-12-18T08:46:45.999Z</time>
      </trkpt>
      <trkpt lat="47.47516" lon="6.76402">
        <ele>310</ele>
        <time>2016-12-18T08:46:46.999Z</time>
      </trkpt>
      <trkpt lat="47.47512" lon="6.76399">
        <ele>310</ele>
        <time>2016-12-18T08:46:47.999Z</time>
      </trkpt>
      <trkpt lat="47.47508" lon="6.76397">
        <ele>310</ele>
        <time>2016-12-18T08:46:48.999Z</time>
      </trkpt>
      <trkpt lat="47.47504" lon="6.76397">
        <ele>310</ele>
        <time>2016-12-18T08:46:49.999Z</time>
      </trkpt>
      <trkpt lat="47.475" lon="6.76397">
        <ele>311</ele>
        <time>2016-12-18T08:46:50.999Z</time>
      </trkpt>
      <trkpt lat="47.47497" lon="6.76396">
        <ele>311</ele>
        <time>2016-12-18T08:46:51.999Z</time>
      </trkpt>
      <trkpt lat="47.47493" lon="6.76399">
        <ele>311</ele>
        <time>2016-12-18T08:46:52.999Z</time>
      </trkpt>
      <trkpt lat="47.47489" lon="6.76402">
        <ele>311</ele>
        <time>2016-12-18T08:46:53.999Z</time>
      </trkpt>
      <trkpt lat="47.47486" lon="6.76405">
        <ele>311</ele>
        <time>2016-12-18T08:46:54.999Z</time>
      </trkpt>
      <trkpt lat="47.47483" lon="6.76408">
        <ele>311</ele>
        <time>2016-12-18T08:46:55.999Z</time>
      </trkpt>
      <trkpt lat="47.47482" lon="6.76412">
        <ele>311</ele>
        <time>2016-12-18T08:46:56.999Z</time>
      </trkpt>
      <trkpt lat="47.4748" lon="6.76416">
        <ele>311</ele>
        <time>2016-12-18T08:46:57.999Z</time>
      </trkpt>
      <trkpt lat="47.47478" lon="6.76418">
        <ele>310</ele>
        <time>2016-12-18T08:46:58.999Z</time>
      </trkpt>
      <trkpt lat="47.47475" lon="6.76421">
        <ele>310</ele>
        <time>2016-12-18T08:46:59.999Z</time>
      </trkpt>
      <trkpt lat="47.47473" lon="6.76425">
        <ele>310</ele>
        <time>2016-12-18T08:47:00.999Z</time>
      </trkpt>
      <trkpt lat="47.4747" lon="6.76428">
        <ele>310</ele>
        <time>2016-12-18T08:47:01.999Z</time>
      </trkpt>
      <trkpt lat="47.47467" lon="6.76432">
        <ele>310</ele>
        <time>2016-12-18T08:47:02.999Z</time>
      </trkpt>
      <trkpt lat="47.47466" lon="6.76435">
        <ele>310</ele>
        <time>2016-12-18T08:47:03.999Z</time>
      </trkpt>
      <trkpt lat="47.47463" lon="6.76438">
        <ele>310</ele>
        <time>2016-12-18T08:47:04.999Z</time>
      </trkpt>
      <trkpt lat="47.47461" lon="6.7644">
        <ele>311</ele>
        <time>2016-12-18T08:47:05.999Z</time>
      </trkpt>
      <trkpt lat="47.47458" lon="6.7644">
        <ele>311</ele>
        <time>2016-12-18T08:47:06.999Z</time>
      </trkpt>
      <trkpt lat="47.47456" lon="6.76441">
        <ele>311</ele>
        <time>2016-12-18T08:47:07.999Z</time>
      </trkpt>
      <trkpt lat="47.47452" lon="6.76439">
        <ele>311</ele>
        <time>2016-12-18T08:47:09.999Z</time>
      </trkpt>
      <trkpt lat="47.47451" lon="6.76437">
        <ele>311</ele>
        <time>2016-12-18T08:47:10.999Z</time>
      </trkpt>
      <trkpt lat="47.47448" lon="6.76437">
        <ele>311</ele>
        <time>2016-12-18T08:47:12.999Z</time>
      </trkpt>
      <trkpt lat="47.47446" lon="6.76437">
        <ele>311</ele>
        <time>2016-12-18T08:47:13.999Z</time>
      </trkpt>
      <trkpt lat="47.47445" lon="6.76433">
        <ele>311</ele>
        <time>2016-12-18T08:47:15.999Z</time>
      </trkpt>
      <trkpt lat="47.47443" lon="6.76431">
        <ele>311</ele>
        <time>2016-12-18T08:47:16.999Z</time>
      </trkpt>
      <trkpt lat="47.47441" lon="6.7643">
        <ele>311</ele>
        <time>2016-12-18T08:47:17.999Z</time>
      </trkpt>
      <trkpt lat="47.47439" lon="6.76431">
        <ele>311</ele>
        <time>2016-12-18T08:47:18.999Z</time>
      </trkpt>
      <trkpt lat="47.47437" lon="6.76434">
        <ele>311</ele>
        <time>2016-12-18T08:47:19.999Z</time>
      </trkpt>
      <trkpt lat="47.47435" lon="6.76438">
        <ele>311</ele>
        <time>2016-12-18T08:47:20.999Z</time>
      </trkpt>
      <trkpt lat="47.47433" lon="6.76443">
        <ele>311</ele>
        <time>2016-12-18T08:47:21.999Z</time>
      </trkpt>
      <trkpt lat="47.47431" lon="6.76445">
        <ele>311</ele>
        <time>2016-12-18T08:47:22.999Z</time>
      </trkpt>
      <trkpt lat="47.47427" lon="6.76446">
        <ele>311</ele>
        <time>2016-12-18T08:47:23.999Z</time>
      </trkpt>
      <trkpt lat="47.47425" lon="6.76444">
        <ele>311</ele>
        <time>2016-12-18T08:47:24.999Z</time>
      </trkpt>
      <trkpt lat="47.47423" lon="6.76442">
        <ele>311</ele>
        <time>2016-12-18T08:47:25.999Z</time>
      </trkpt>
      <trkpt lat="47.4742" lon="6.7644">
        <ele>311</ele>
        <time>2016-12-18T08:47:26.999Z</time>
      </trkpt>
      <trkpt lat="47.47415" lon="6.76439">
        <ele>313</ele>
        <time>2016-12-18T08:47:28.999Z</time>
      </trkpt>
      <trkpt lat="47.47413" lon="6.76437">
        <ele>313</ele>
        <time>2016-12-18T08:47:29.999Z</time>
      </trkpt>
      <trkpt lat="47.47412" lon="6.76434">
        <ele>313</ele>
        <time>2016-12-18T08:47:30.999Z</time>
      </trkpt>
      <trkpt lat="47.4741" lon="6.76431">
        <ele>313</ele>
        <time>2016-12-18T08:47:31.999Z</time>
      </trkpt>
      <trkpt lat="47.47407" lon="6.76426">
        <ele>313</ele>
        <time>2016-12-18T08:47:33.999Z</time>
      </trkpt>
      <trkpt lat="47.47405" lon="6.76422">
        <ele>313</ele>
        <time>2016-12-18T08:47:34.999Z</time>
      </trkpt>
      <trkpt lat="47.47402" lon="6.7642">
        <ele>313</ele>
        <time>2016-12-18T08:47:35.999Z</time>
      </trkpt>
      <trkpt lat="47.47399" lon="6.76417">
        <ele>314</ele>
        <time>2016-12-18T08:47:36.999Z</time>
      </trkpt>
      <trkpt lat="47.47397" lon="6.76416">
        <ele>316</ele>
        <time>2016-12-18T08:47:37.999Z</time>
      </trkpt>
      <trkpt lat="47.47393" lon="6.76413">
        <ele>316</ele>
        <time>2016-12-18T08:47:38.999Z</time>
      </trkpt>
      <trkpt lat="47.47391" lon="6.7641">
        <ele>316</ele>
        <time>2016-12-18T08:47:39.999Z</time>
      </trkpt>
      <trkpt lat="47.47389" lon="6.76408">
        <ele>316</ele>
        <time>2016-12-18T08:47:40.999Z</time>
      </trkpt>
      <trkpt lat="47.47386" lon="6.76404">
        <ele>317</ele>
        <time>2016-12-18T08:47:41.999Z</time>
      </trkpt>
      <trkpt lat="47.47385" lon="6.76402">
        <ele>317</ele>
        <time>2016-12-18T08:47:42.999Z</time>
      </trkpt>
      <trkpt lat="47.47381" lon="6.76399">
        <ele>317</ele>
        <time>2016-12-18T08:47:44.999Z</time>
      </trkpt>
      <trkpt lat="47.47379" lon="6.76397">
        <ele>317</ele>
        <time>2016-12-18T08:47:45.999Z</time>
      </trkpt>
      <trkpt lat="47.47377" lon="6.76397">
        <ele>317</ele>
        <time>2016-12-18T08:47:46.999Z</time>
      </trkpt>
      <trkpt lat="47.47374" lon="6.76396">
        <ele>317</ele>
        <time>2016-12-18T08:47:47.999Z</time>
      </trkpt>
      <trkpt lat="47.47371" lon="6.76391">
        <ele>317</ele>
        <time>2016-12-18T08:47:49.999Z</time>
      </trkpt>
      <trkpt lat="47.47369" lon="6.76389">
        <ele>317</ele>
        <time>2016-12-18T08:47:50.999Z</time>
      </trkpt>
      <trkpt lat="47.47366" lon="6.76385">
        <ele>318</ele>
        <time>2016-12-18T08:47:52.999Z</time>
      </trkpt>
      <trkpt lat="47.47365" lon="6.76383">
        <ele>318</ele>
        <time>2016-12-18T08:47:53.999Z</time>
      </trkpt>
      <trkpt lat="47.47363" lon="6.7638">
        <ele>318</ele>
        <time>2016-12-18T08:47:54.999Z</time>
      </trkpt>
      <trkpt lat="47.47362" lon="6.76378">
        <ele>318</ele>
        <time>2016-12-18T08:47:55.999Z</time>
      </trkpt>
      <trkpt lat="47.47361" lon="6.76375">
        <ele>318</ele>
        <time>2016-12-18T08:47:56.999Z</time>
      </trkpt>
      <trkpt lat="47.47359" lon="6.76372">
        <ele>318</ele>
        <time>2016-12-18T08:47:57.999Z</time>
      </trkpt>
      <trkpt lat="47.47357" lon="6.76368">
        <ele>319</ele>
        <time>2016-12-18T08:47:59.999Z</time>
      </trkpt>
      <trkpt lat="47.47355" lon="6.76366">
        <ele>319</ele>
        <time>2016-12-18T08:48:00.999Z</time>
      </trkpt>
      <trkpt lat="47.47354" lon="6.76363">
        <ele>319</ele>
        <time>2016-12-18T08:48:01.999Z</time>
      </trkpt>
      <trkpt lat="47.47352" lon="6.7636">
        <ele>319</ele>
        <time>2016-12-18T08:48:02.999Z</time>
      </trkpt>
      <trkpt lat="47.47349" lon="6.76355">
        <ele>319</ele>
        <time>2016-12-18T08:48:04.999Z</time>
      </trkpt>
      <trkpt lat="47.47348" lon="6.76352">
        <ele>320</ele>
        <time>2016-12-18T08:48:05.999Z</time>
      </trkpt>
      <trkpt lat="47.47346" lon="6.7635">
        <ele>320</ele>
        <time>2016-12-18T08:48:06.999Z</time>
      </trkpt>
      <trkpt lat="47.47344" lon="6.76348">
        <ele>320</ele>
        <time>2016-12-18T08:48:07.999Z</time>
      </trkpt>
      <trkpt lat="47.47342" lon="6.76345">
        <ele>320</ele>
        <time>2016-12-18T08:48:08.999Z</time>
      </trkpt>
      <trkpt lat="47.4734" lon="6.76343">
        <ele>320</ele>
        <time>2016-12-18T08:48:09.999Z</time>
      </trkpt>
      <trkpt lat="47.47337" lon="6.76342">
        <ele>321</ele>
        <time>2016-12-18T08:48:11.999Z</time>
      </trkpt>
      <trkpt lat="47.47336" lon="6.76341">
        <ele>321</ele>
        <time>2016-12-18T08:48:12.999Z</time>
      </trkpt>
      <trkpt lat="47.47333" lon="6.76338">
        <ele>321</ele>
        <time>2016-12-18T08:48:14.999Z</time>
      </trkpt>
      <trkpt lat="47.47331" lon="6.76337">
        <ele>321</ele>
        <time>2016-12-18T08:48:15.999Z</time>
      </trkpt>
      <trkpt lat="47.47327" lon="6.76334">
        <ele>321</ele>
        <time>2016-12-18T08:48:17.999Z</time>
      </trkpt>
      <trkpt lat="47.47325" lon="6.76333">
        <ele>323</ele>
        <time>2016-12-18T08:48:18.999Z</time>
      </trkpt>
      <trkpt lat="47.47322" lon="6.76332">
        <ele>323</ele>
        <time>2016-12-18T08:48:19.999Z</time>
      </trkpt>
      <trkpt lat="47.4732" lon="6.76331">
        <ele>323</ele>
        <time>2016-12-18T08:48:20.999Z</time>
      </trkpt>
      <trkpt lat="47.47316" lon="6.7633">
        <ele>324</ele>
        <time>2016-12-18T08:48:22.999Z</time>
      </trkpt>
      <trkpt lat="47.47313" lon="6.76329">
        <ele>324</ele>
        <time>2016-12-18T08:48:23.999Z</time>
      </trkpt>
      <trkpt lat="47.4731" lon="6.76328">
        <ele>324</ele>
        <time>2016-12-18T08:48:25.999Z</time>
      </trkpt>
      <trkpt lat="47.47308" lon="6.76327">
        <ele>324</ele>
        <time>2016-12-18T08:48:26.999Z</time>
      </trkpt>
      <trkpt lat="47.47304" lon="6.76324">
        <ele>324</ele>
        <time>2016-12-18T08:48:28.999Z</time>
      </trkpt>
      <trkpt lat="47.47302" lon="6.76323">
        <ele>324</ele>
        <time>2016-12-18T08:48:29.999Z</time>
      </trkpt>
      <trkpt lat="47.47298" lon="6.76321">
        <ele>324</ele>
        <time>2016-12-18T08:48:31.999Z</time>
      </trkpt>
      <trkpt lat="47.47296" lon="6.7632">
        <ele>324</ele>
        <time>2016-12-18T08:48:32.999Z</time>
      </trkpt>
      <trkpt lat="47.47295" lon="6.76319">
        <ele>324</ele>
        <time>2016-12-18T08:48:33.999Z</time>
      </trkpt>
      <trkpt lat="47.47292" lon="6.76318">
        <ele>324</ele>
        <time>2016-12-18T08:48:34.999Z</time>
      </trkpt>
      <trkpt lat="47.4729" lon="6.76316">
        <ele>324</ele>
        <time>2016-12-18T08:48:35.999Z</time>
      </trkpt>
      <trkpt lat="47.47287" lon="6.76315">
        <ele>324</ele>
        <time>2016-12-18T08:48:36.999Z</time>
      </trkpt>
      <trkpt lat="47.47285" lon="6.76313">
        <ele>324</ele>
        <time>2016-12-18T08:48:37.999Z</time>
      </trkpt>
      <trkpt lat="47.47282" lon="6.76312">
        <ele>324</ele>
        <time>2016-12-18T08:48:38.999Z</time>
      </trkpt>
      <trkpt lat="47.47279" lon="6.7631">
        <ele>324</ele>
        <time>2016-12-18T08:48:40.999Z</time>
      </trkpt>
      <trkpt lat="47.47277" lon="6.76309">
        <ele>324</ele>
        <time>2016-12-18T08:48:41.999Z</time>
      </trkpt>
      <trkpt lat="47.47275" lon="6.76307">
        <ele>324</ele>
        <time>2016-12-18T08:48:42.999Z</time>
      </trkpt>
      <trkpt lat="47.47272" lon="6.76305">
        <ele>325</ele>
        <time>2016-12-18T08:48:43.999Z</time>
      </trkpt>
      <trkpt lat="47.4727" lon="6.76303">
        <ele>325</ele>
        <time>2016-12-18T08:48:44.999Z</time>
      </trkpt>
      <trkpt lat="47.47267" lon="6.76301">
        <ele>325</ele>
        <time>2016-12-18T08:48:45.999Z</time>
      </trkpt>
      <trkpt lat="47.47264" lon="6.76299">
        <ele>325</ele>
        <time>2016-12-18T08:48:46.999Z</time>
      </trkpt>
      <trkpt lat="47.47262" lon="6.76298">
        <ele>325</ele>
        <time>2016-12-18T08:48:47.999Z</time>
      </trkpt>
      <trkpt lat="47.4726" lon="6.76297">
        <ele>325</ele>
        <time>2016-12-18T08:48:48.999Z</time>
      </trkpt>
      <trkpt lat="47.47257" lon="6.76295">
        <ele>325</ele>
        <time>2016-12-18T08:48:49.999Z</time>
      </trkpt>
      <trkpt lat="47.47255" lon="6.76293">
        <ele>325</ele>
        <time>2016-12-18T08:48:50.999Z</time>
      </trkpt>
      <trkpt lat="47.47252" lon="6.76291">
        <ele>326</ele>
        <time>2016-12-18T08:48:51.999Z</time>
      </trkpt>
      <trkpt lat="47.4725" lon="6.76289">
        <ele>324</ele>
        <time>2016-12-18T08:48:52.999Z</time>
      </trkpt>
      <trkpt lat="47.47247" lon="6.76286">
        <ele>325</ele>
        <time>2016-12-18T08:48:53.999Z</time>
      </trkpt>
      <trkpt lat="47.47244" lon="6.76285">
        <ele>325</ele>
        <time>2016-12-18T08:48:54.999Z</time>
      </trkpt>
      <trkpt lat="47.47242" lon="6.76284">
        <ele>325</ele>
        <time>2016-12-18T08:48:55.999Z</time>
      </trkpt>
      <trkpt lat="47.47239" lon="6.76282">
        <ele>325</ele>
        <time>2016-12-18T08:48:56.999Z</time>
      </trkpt>
      <trkpt lat="47.47236" lon="6.76281">
        <ele>325</ele>
        <time>2016-12-18T08:48:57.999Z</time>
      </trkpt>
      <trkpt lat="47.47233" lon="6.76279">
        <ele>325</ele>
        <time>2016-12-18T08:48:58.999Z</time>
      </trkpt>
      <trkpt lat="47.47231" lon="6.76276">
        <ele>325</ele>
        <time>2016-12-18T08:48:59.999Z</time>
      </trkpt>
      <trkpt lat="47.47227" lon="6.76274">
        <ele>325</ele>
        <time>2016-12-18T08:49:01.999Z</time>
      </trkpt>
      <trkpt lat="47.47225" lon="6.76272">
        <ele>325</ele>
        <time>2016-12-18T08:49:02.999Z</time>
      </trkpt>
      <trkpt lat="47.47221" lon="6.76271">
        <ele>325</ele>
        <time>2016-12-18T08:49:03.999Z</time>
      </trkpt>
      <trkpt lat="47.47218" lon="6.76269">
        <ele>325</ele>
        <time>2016-12-18T08:49:04.999Z</time>
      </trkpt>
      <trkpt lat="47.47215" lon="6.76268">
        <ele>325</ele>
        <time>2016-12-18T08:49:05.999Z</time>
      </trkpt>
      <trkpt lat="47.47213" lon="6.76266">
        <ele>325</ele>
        <time>2016-12-18T08:49:06.999Z</time>
      </trkpt>
      <trkpt lat="47.47209" lon="6.76265">
        <ele>325</ele>
        <time>2016-12-18T08:49:07.999Z</time>
      </trkpt>
      <trkpt lat="47.47205" lon="6.76263">
        <ele>325</ele>
        <time>2016-12-18T08:49:08.999Z</time>
      </trkpt>
      <trkpt lat="47.47202" lon="6.7626">
        <ele>325</ele>
        <time>2016-12-18T08:49:09.999Z</time>
      </trkpt>
      <trkpt lat="47.47199" lon="6.76258">
        <ele>325</ele>
        <time>2016-12-18T08:49:10.999Z</time>
      </trkpt>
      <trkpt lat="47.47195" lon="6.76255">
        <ele>325</ele>
        <time>2016-12-18T08:49:11.999Z</time>
      </trkpt>
      <trkpt lat="47.47191" lon="6.76252">
        <ele>325</ele>
        <time>2016-12-18T08:49:12.999Z</time>
      </trkpt>
      <trkpt lat="47.47187" lon="6.76248">
        <ele>329</ele>
        <time>2016-12-18T08:49:13.999Z</time>
      </trkpt>
      <trkpt lat="47.47184" lon="6.76246">
        <ele>329</ele>
        <time>2016-12-18T08:49:14.999Z</time>
      </trkpt>
      <trkpt lat="47.4718" lon="6.76243">
        <ele>328</ele>
        <time>2016-12-18T08:49:15.999Z</time>
      </trkpt>
      <trkpt lat="47.47177" lon="6.76242">
        <ele>328</ele>
        <time>2016-12-18T08:49:16.999Z</time>
      </trkpt>
      <trkpt lat="47.47174" lon="6.76239">
        <ele>328</ele>
        <time>2016-12-18T08:49:17.999Z</time>
      </trkpt>
      <trkpt lat="47.47171" lon="6.76237">
        <ele>328</ele>
        <time>2016-12-18T08:49:18.999Z</time>
      </trkpt>
      <trkpt lat="47.47168" lon="6.76234">
        <ele>328</ele>
        <time>2016-12-18T08:49:19.999Z</time>
      </trkpt>
      <trkpt lat="47.47165" lon="6.76231">
        <ele>326</ele>
        <time>2016-12-18T08:49:20.999Z</time>
      </trkpt>
      <trkpt lat="47.47162" lon="6.76228">
        <ele>327</ele>
        <time>2016-12-18T08:49:21.999Z</time>
      </trkpt>
      <trkpt lat="47.47158" lon="6.76224">
        <ele>327</ele>
        <time>2016-12-18T08:49:22.999Z</time>
      </trkpt>
      <trkpt lat="47.47156" lon="6.76221">
        <ele>327</ele>
        <time>2016-12-18T08:49:23.999Z</time>
      </trkpt>
      <trkpt lat="47.47152" lon="6.76218">
        <ele>327</ele>
        <time>2016-12-18T08:49:24.999Z</time>
      </trkpt>
      <trkpt lat="47.47149" lon="6.76215">
        <ele>327</ele>
        <time>2016-12-18T08:49:25.999Z</time>
      </trkpt>
      <trkpt lat="47.47146" lon="6.7621">
        <ele>327</ele>
        <time>2016-12-18T08:49:26.999Z</time>
      </trkpt>
      <trkpt lat="47.47144" lon="6.76206">
        <ele>327</ele>
        <time>2016-12-18T08:49:27.999Z</time>
      </trkpt>
      <trkpt lat="47.47143" lon="6.76201">
        <ele>327</ele>
        <time>2016-12-18T08:49:28.999Z</time>
      </trkpt>
      <trkpt lat="47.47142" lon="6.76196">
        <ele>328</ele>
        <time>2016-12-18T08:49:29.999Z</time>
      </trkpt>
      <trkpt lat="47.4714" lon="6.76191">
        <ele>328</ele>
        <time>2016-12-18T08:49:30.999Z</time>
      </trkpt>
      <trkpt lat="47.47139" lon="6.76185">
        <ele>328</ele>
        <time>2016-12-18T08:49:31.999Z</time>
      </trkpt>
      <trkpt lat="47.47138" lon="6.76181">
        <ele>328</ele>
        <time>2016-12-18T08:49:32.999Z</time>
      </trkpt>
      <trkpt lat="47.47137" lon="6.76176">
        <ele>328</ele>
        <time>2016-12-18T08:49:33.999Z</time>
      </trkpt>
      <trkpt lat="47.47135" lon="6.76171">
        <ele>328</ele>
        <time>2016-12-18T08:49:34.999Z</time>
      </trkpt>
      <trkpt lat="47.47132" lon="6.76167">
        <ele>328</ele>
        <time>2016-12-18T08:49:35.999Z</time>
      </trkpt>
      <trkpt lat="47.47129" lon="6.76161">
        <ele>332</ele>
        <time>2016-12-18T08:49:36.999Z</time>
      </trkpt>
      <trkpt lat="47.47126" lon="6.76158">
        <ele>332</ele>
        <time>2016-12-18T08:49:37.999Z</time>
      </trkpt>
      <trkpt lat="47.47123" lon="6.76156">
        <ele>332</ele>
        <time>2016-12-18T08:49:38.999Z</time>
      </trkpt>
      <trkpt lat="47.4712" lon="6.76154">
        <ele>332</ele>
        <time>2016-12-18T08:49:39.999Z</time>
      </trkpt>
      <trkpt lat="47.47118" lon="6.76152">
        <ele>332</ele>
        <time>2016-12-18T08:49:40.999Z</time>
      </trkpt>
      <trkpt lat="47.47115" lon="6.76151">
        <ele>331</ele>
        <time>2016-12-18T08:49:41.999Z</time>
      </trkpt>
      <trkpt lat="47.47112" lon="6.76149">
        <ele>331</ele>
        <time>2016-12-18T08:49:42.999Z</time>
      </trkpt>
      <trkpt lat="47.47109" lon="6.76148">
        <ele>331</ele>
        <time>2016-12-18T08:49:43.999Z</time>
      </trkpt>
      <trkpt lat="47.47107" lon="6.76146">
        <ele>331</ele>
        <time>2016-12-18T08:49:44.999Z</time>
      </trkpt>
      <trkpt lat="47.47103" lon="6.76143">
        <ele>331</ele>
        <time>2016-12-18T08:49:45.999Z</time>
      </trkpt>
      <trkpt lat="47.47101" lon="6.76142">
        <ele>331</ele>
        <time>2016-12-18T08:49:46.999Z</time>
      </trkpt>
      <trkpt lat="47.47098" lon="6.7614">
        <ele>331</ele>
        <time>2016-12-18T08:49:47.999Z</time>
      </trkpt>
      <trkpt lat="47.47096" lon="6.76139">
        <ele>331</ele>
        <time>2016-12-18T08:49:48.999Z</time>
      </trkpt>
      <trkpt lat="47.47094" lon="6.76137">
        <ele>331</ele>
        <time>2016-12-18T08:49:49.999Z</time>
      </trkpt>
      <trkpt lat="47.47091" lon="6.76134">
        <ele>331</ele>
        <time>2016-12-18T08:49:50.999Z</time>
      </trkpt>
      <trkpt lat="47.47088" lon="6.76132">
        <ele>332</ele>
        <time>2016-12-18T08:49:51.999Z</time>
      </trkpt>
      <trkpt lat="47.47085" lon="6.7613">
        <ele>332</ele>
        <time>2016-12-18T08:49:52.999Z</time>
      </trkpt>
      <trkpt lat="47.47083" lon="6.76128">
        <ele>331</ele>
        <time>2016-12-18T08:49:53.999Z</time>
      </trkpt>
      <trkpt lat="47.4708" lon="6.76126">
        <ele>331</ele>
        <time>2016-12-18T08:49:54.999Z</time>
      </trkpt>
      <trkpt lat="47.47076" lon="6.76123">
        <ele>331</ele>
        <time>2016-12-18T08:49:55.999Z</time>
      </trkpt>
      <trkpt lat="47.47073" lon="6.76121">
        <ele>331</ele>
        <time>2016-12-18T08:49:56.999Z</time>
      </trkpt>
      <trkpt lat="47.4707" lon="6.76119">
        <ele>331</ele>
        <time>2016-12-18T08:49:57.999Z</time>
      </trkpt>
      <trkpt lat="47.47067" lon="6.76118">
        <ele>331</ele>
        <time>2016-12-18T08:49:58.999Z</time>
      </trkpt>
      <trkpt lat="47.47064" lon="6.76116">
        <ele>331</ele>
        <time>2016-12-18T08:49:59.999Z</time>
      </trkpt>
      <trkpt lat="47.47062" lon="6.76115">
        <ele>331</ele>
        <time>2016-12-18T08:50:00.999Z</time>
      </trkpt>
      <trkpt lat="47.47059" lon="6.76113">
        <ele>331</ele>
        <time>2016-12-18T08:50:01.999Z</time>
      </trkpt>
      <trkpt lat="47.47056" lon="6.76112">
        <ele>331</ele>
        <time>2016-12-18T08:50:02.999Z</time>
      </trkpt>
      <trkpt lat="47.47052" lon="6.76111">
        <ele>331</ele>
        <time>2016-12-18T08:50:03.999Z</time>
      </trkpt>
      <trkpt lat="47.47049" lon="6.7611">
        <ele>331</ele>
        <time>2016-12-18T08:50:04.999Z</time>
      </trkpt>
      <trkpt lat="47.47045" lon="6.76108">
        <ele>331</ele>
        <time>2016-12-18T08:50:05.999Z</time>
      </trkpt>
      <trkpt lat="47.47042" lon="6.76106">
        <ele>331</ele>
        <time>2016-12-18T08:50:06.999Z</time>
      </trkpt>
      <trkpt lat="47.47038" lon="6.76104">
        <ele>331</ele>
        <time>2016-12-18T08:50:07.999Z</time>
      </trkpt>
      <trkpt lat="47.47034" lon="6.76102">
        <ele>331</ele>
        <time>2016-12-18T08:50:08.999Z</time>
      </trkpt>
      <trkpt lat="47.47031" lon="6.76101">
        <ele>331</ele>
        <time>2016-12-18T08:50:09.999Z</time>
      </trkpt>
      <trkpt lat="47.47028" lon="6.76099">
        <ele>332</ele>
        <time>2016-12-18T08:50:10.999Z</time>
      </trkpt>
      <trkpt lat="47.47024" lon="6.76096">
        <ele>332</ele>
        <time>2016-12-18T08:50:11.999Z</time>
      </trkpt>
      <trkpt lat="47.47021" lon="6.76094">
        <ele>332</ele>
        <time>2016-12-18T08:50:12.999Z</time>
      </trkpt>
      <trkpt lat="47.47017" lon="6.76091">
        <ele>332</ele>
        <time>2016-12-18T08:50:13.999Z</time>
      </trkpt>
      <trkpt lat="47.47014" lon="6.76088">
        <ele>333</ele>
        <time>2016-12-18T08:50:14.999Z</time>
      </trkpt>
      <trkpt lat="47.4701" lon="6.76086">
        <ele>333</ele>
        <time>2016-12-18T08:50:15.999Z</time>
      </trkpt>
      <trkpt lat="47.47007" lon="6.76084">
        <ele>333</ele>
        <time>2016-12-18T08:50:16.999Z</time>
      </trkpt>
      <trkpt lat="47.47002" lon="6.76082">
        <ele>334</ele>
        <time>2016-12-18T08:50:17.999Z</time>
      </trkpt>
      <trkpt lat="47.46998" lon="6.7608">
        <ele>334</ele>
        <time>2016-12-18T08:50:18.999Z</time>
      </trkpt>
      <trkpt lat="47.46995" lon="6.76078">
        <ele>334</ele>
        <time>2016-12-18T08:50:19.999Z</time>
      </trkpt>
      <trkpt lat="47.46992" lon="6.76076">
        <ele>334</ele>
        <time>2016-12-18T08:50:20.999Z</time>
      </trkpt>
      <trkpt lat="47.46989" lon="6.76074">
        <ele>334</ele>
        <time>2016-12-18T08:50:21.999Z</time>
      </trkpt>
      <trkpt lat="47.46985" lon="6.76072">
        <ele>334</ele>
        <time>2016-12-18T08:50:22.999Z</time>
      </trkpt>
      <trkpt lat="47.46981" lon="6.76069">
        <ele>334</ele>
        <time>2016-12-18T08:50:23.999Z</time>
      </trkpt>
      <trkpt lat="47.46977" lon="6.76066">
        <ele>334</ele>
        <time>2016-12-18T08:50:24.999Z</time>
      </trkpt>
      <trkpt lat="47.46973" lon="6.76064">
        <ele>334</ele>
        <time>2016-12-18T08:50:25.999Z</time>
      </trkpt>
      <trkpt lat="47.46969" lon="6.76062">
        <ele>334</ele>
        <time>2016-12-18T08:50:26.999Z</time>
      </trkpt>
      <trkpt lat="47.46966" lon="6.7606">
        <ele>334</ele>
        <time>2016-12-18T08:50:27.999Z</time>
      </trkpt>
      <trkpt lat="47.46962" lon="6.76058">
        <ele>334</ele>
        <time>2016-12-18T08:50:28.999Z</time>
      </trkpt>
      <trkpt lat="47.46958" lon="6.76056">
        <ele>334</ele>
        <time>2016-12-18T08:50:29.999Z</time>
      </trkpt>
      <trkpt lat="47.46954" lon="6.76054">
        <ele>334</ele>
        <time>2016-12-18T08:50:30.999Z</time>
      </trkpt>
      <trkpt lat="47.4695" lon="6.76052">
        <ele>334</ele>
        <time>2016-12-18T08:50:31.999Z</time>
      </trkpt>
      <trkpt lat="47.46945" lon="6.7605">
        <ele>334</ele>
        <time>2016-12-18T08:50:32.999Z</time>
      </trkpt>
      <trkpt lat="47.46941" lon="6.76047">
        <ele>334</ele>
        <time>2016-12-18T08:50:33.999Z</time>
      </trkpt>
      <trkpt lat="47.46937" lon="6.76045">
        <ele>334</ele>
        <time>2016-12-18T08:50:34.999Z</time>
      </trkpt>
      <trkpt lat="47.46933" lon="6.76043">
        <ele>334</ele>
        <time>2016-12-18T08:50:35.999Z</time>
      </trkpt>
      <trkpt lat="47.4693" lon="6.76042">
        <ele>334</ele>
        <time>2016-12-18T08:50:36.999Z</time>
      </trkpt>
      <trkpt lat="47.46926" lon="6.7604">
        <ele>334</ele>
        <time>2016-12-18T08:50:37.999Z</time>
      </trkpt>
      <trkpt lat="47.46922" lon="6.76037">
        <ele>334</ele>
        <time>2016-12-18T08:50:38.999Z</time>
      </trkpt>
      <trkpt lat="47.4692" lon="6.76036">
        <ele>334</ele>
        <time>2016-12-18T08:50:39.999Z</time>
      </trkpt>
      <trkpt lat="47.46917" lon="6.76034">
        <ele>334</ele>
        <time>2016-12-18T08:50:40.999Z</time>
      </trkpt>
      <trkpt lat="47.46914" lon="6.76031">
        <ele>332</ele>
        <time>2016-12-18T08:50:41.999Z</time>
      </trkpt>
      <trkpt lat="47.46911" lon="6.76028">
        <ele>332</ele>
        <time>2016-12-18T08:50:42.999Z</time>
      </trkpt>
      <trkpt lat="47.46908" lon="6.76026">
        <ele>332</ele>
        <time>2016-12-18T08:50:43.999Z</time>
      </trkpt>
      <trkpt lat="47.46904" lon="6.76024">
        <ele>332</ele>
        <time>2016-12-18T08:50:44.999Z</time>
      </trkpt>
      <trkpt lat="47.46901" lon="6.76022">
        <ele>332</ele>
        <time>2016-12-18T08:50:45.999Z</time>
      </trkpt>
      <trkpt lat="47.46897" lon="6.76021">
        <ele>332</ele>
        <time>2016-12-18T08:50:46.999Z</time>
      </trkpt>
      <trkpt lat="47.46894" lon="6.76021">
        <ele>332</ele>
        <time>2016-12-18T08:50:47.999Z</time>
      </trkpt>
      <trkpt lat="47.4689" lon="6.76019">
        <ele>332</ele>
        <time>2016-12-18T08:50:48.999Z</time>
      </trkpt>
      <trkpt lat="47.46887" lon="6.76018">
        <ele>332</ele>
        <time>2016-12-18T08:50:49.999Z</time>
      </trkpt>
      <trkpt lat="47.46884" lon="6.76015">
        <ele>332</ele>
        <time>2016-12-18T08:50:50.999Z</time>
      </trkpt>
      <trkpt lat="47.46881" lon="6.76013">
        <ele>332</ele>
        <time>2016-12-18T08:50:51.999Z</time>
      </trkpt>
      <trkpt lat="47.46877" lon="6.76011">
        <ele>332</ele>
        <time>2016-12-18T08:50:52.999Z</time>
      </trkpt>
      <trkpt lat="47.46874" lon="6.7601">
        <ele>332</ele>
        <time>2016-12-18T08:50:53.999Z</time>
      </trkpt>
      <trkpt lat="47.46871" lon="6.76008">
        <ele>332</ele>
        <time>2016-12-18T08:50:54.999Z</time>
      </trkpt>
      <trkpt lat="47.46867" lon="6.76006">
        <ele>332</ele>
        <time>2016-12-18T08:50:55.999Z</time>
      </trkpt>
      <trkpt lat="47.46864" lon="6.76004">
        <ele>332</ele>
        <time>2016-12-18T08:50:56.999Z</time>
      </trkpt>
      <trkpt lat="47.4686" lon="6.76004">
        <ele>332</ele>
        <time>2016-12-18T08:50:57.999Z</time>
      </trkpt>
      <trkpt lat="47.46855" lon="6.76004">
        <ele>332</ele>
        <time>2016-12-18T08:50:58.999Z</time>
      </trkpt>
      <trkpt lat="47.46851" lon="6.76005">
        <ele>332</ele>
        <time>2016-12-18T08:50:59.999Z</time>
      </trkpt>
      <trkpt lat="47.46848" lon="6.76007">
        <ele>332</ele>
        <time>2016-12-18T08:51:00.999Z</time>
      </trkpt>
      <trkpt lat="47.46844" lon="6.76009">
        <ele>332</ele>
        <time>2016-12-18T08:51:01.999Z</time>
      </trkpt>
      <trkpt lat="47.46839" lon="6.76013">
        <ele>332</ele>
        <time>2016-12-18T08:51:02.999Z</time>
      </trkpt>
      <trkpt lat="47.46836" lon="6.76015">
        <ele>332</ele>
        <time>2016-12-18T08:51:03.999Z</time>
      </trkpt>
      <trkpt lat="47.46832" lon="6.76017">
        <ele>332</ele>
        <time>2016-12-18T08:51:04.999Z</time>
      </trkpt>
      <trkpt lat="47.46827" lon="6.76018">
        <ele>332</ele>
        <time>2016-12-18T08:51:05.999Z</time>
      </trkpt>
      <trkpt lat="47.46823" lon="6.7602">
        <ele>331</ele>
        <time>2016-12-18T08:51:06.999Z</time>
      </trkpt>
      <trkpt lat="47.46818" lon="6.76022">
        <ele>331</ele>
        <time>2016-12-18T08:51:07.999Z</time>
      </trkpt>
      <trkpt lat="47.46813" lon="6.76024">
        <ele>331</ele>
        <time>2016-12-18T08:51:08.999Z</time>
      </trkpt>
      <trkpt lat="47.46809" lon="6.76026">
        <ele>331</ele>
        <time>2016-12-18T08:51:09.999Z</time>
      </trkpt>
      <trkpt lat="47.46806" lon="6.7603">
        <ele>331</ele>
        <time>2016-12-18T08:51:10.999Z</time>
      </trkpt>
      <trkpt lat="47.46801" lon="6.76033">
        <ele>331</ele>
        <time>2016-12-18T08:51:11.999Z</time>
      </trkpt>
      <trkpt lat="47.46797" lon="6.76036">
        <ele>331</ele>
        <time>2016-12-18T08:51:12.999Z</time>
      </trkpt>
      <trkpt lat="47.46792" lon="6.76037">
        <ele>331</ele>
        <time>2016-12-18T08:51:13.999Z</time>
      </trkpt>
      <trkpt lat="47.46787" lon="6.76037">
        <ele>331</ele>
        <time>2016-12-18T08:51:14.999Z</time>
      </trkpt>
      <trkpt lat="47.46783" lon="6.76034">
        <ele>331</ele>
        <time>2016-12-18T08:51:15.999Z</time>
      </trkpt>
      <trkpt lat="47.46779" lon="6.76031">
        <ele>331</ele>
        <time>2016-12-18T08:51:16.999Z</time>
      </trkpt>
      <trkpt lat="47.46775" lon="6.76027">
        <ele>332</ele>
        <time>2016-12-18T08:51:17.999Z</time>
      </trkpt>
      <trkpt lat="47.46772" lon="6.76023">
        <ele>332</ele>
        <time>2016-12-18T08:51:18.999Z</time>
      </trkpt>
      <trkpt lat="47.46767" lon="6.76018">
        <ele>332</ele>
        <time>2016-12-18T08:51:19.999Z</time>
      </trkpt>
      <trkpt lat="47.46762" lon="6.76013">
        <ele>333</ele>
        <time>2016-12-18T08:51:20.999Z</time>
      </trkpt>
      <trkpt lat="47.46759" lon="6.7601">
        <ele>333</ele>
        <time>2016-12-18T08:51:21.999Z</time>
      </trkpt>
      <trkpt lat="47.46756" lon="6.76008">
        <ele>334</ele>
        <time>2016-12-18T08:51:22.999Z</time>
      </trkpt>
      <trkpt lat="47.46751" lon="6.76007">
        <ele>334</ele>
        <time>2016-12-18T08:51:23.999Z</time>
      </trkpt>
      <trkpt lat="47.46747" lon="6.76006">
        <ele>336</ele>
        <time>2016-12-18T08:51:24.999Z</time>
      </trkpt>
      <trkpt lat="47.46743" lon="6.76007">
        <ele>336</ele>
        <time>2016-12-18T08:51:25.999Z</time>
      </trkpt>
      <trkpt lat="47.4674" lon="6.76007">
        <ele>336</ele>
        <time>2016-12-18T08:51:26.999Z</time>
      </trkpt>
      <trkpt lat="47.46737" lon="6.76007">
        <ele>336</ele>
        <time>2016-12-18T08:51:27.999Z</time>
      </trkpt>
      <trkpt lat="47.46734" lon="6.76007">
        <ele>337</ele>
        <time>2016-12-18T08:51:28.999Z</time>
      </trkpt>
      <trkpt lat="47.4673" lon="6.76007">
        <ele>337</ele>
        <time>2016-12-18T08:51:29.999Z</time>
      </trkpt>
      <trkpt lat="47.46728" lon="6.76008">
        <ele>337</ele>
        <time>2016-12-18T08:51:30.999Z</time>
      </trkpt>
      <trkpt lat="47.46725" lon="6.76009">
        <ele>337</ele>
        <time>2016-12-18T08:51:31.999Z</time>
      </trkpt>
      <trkpt lat="47.46722" lon="6.76011">
        <ele>338</ele>
        <time>2016-12-18T08:51:32.999Z</time>
      </trkpt>
      <trkpt lat="47.46719" lon="6.76011">
        <ele>338</ele>
        <time>2016-12-18T08:51:33.999Z</time>
      </trkpt>
      <trkpt lat="47.46716" lon="6.76011">
        <ele>338</ele>
        <time>2016-12-18T08:51:34.999Z</time>
      </trkpt>
      <trkpt lat="47.46713" lon="6.76011">
        <ele>339</ele>
        <time>2016-12-18T08:51:35.999Z</time>
      </trkpt>
      <trkpt lat="47.46711" lon="6.76011">
        <ele>339</ele>
        <time>2016-12-18T08:51:36.999Z</time>
      </trkpt>
      <trkpt lat="47.46707" lon="6.76012">
        <ele>339</ele>
        <time>2016-12-18T08:51:38.999Z</time>
      </trkpt>
      <trkpt lat="47.46704" lon="6.76014">
        <ele>339</ele>
        <time>2016-12-18T08:51:39.999Z</time>
      </trkpt>
      <trkpt lat="47.46702" lon="6.76012">
        <ele>340</ele>
        <time>2016-12-18T08:51:40.999Z</time>
      </trkpt>
      <trkpt lat="47.467" lon="6.7601">
        <ele>340</ele>
        <time>2016-12-18T08:51:41.999Z</time>
      </trkpt>
      <trkpt lat="47.46698" lon="6.76008">
        <ele>340</ele>
        <time>2016-12-18T08:51:42.999Z</time>
      </trkpt>
      <trkpt lat="47.46699" lon="6.76002">
        <ele>341</ele>
        <time>2016-12-18T08:51:43.999Z</time>
      </trkpt>
      <trkpt lat="47.46701" lon="6.75997">
        <ele>344</ele>
        <time>2016-12-18T08:51:46.999Z</time>
      </trkpt>
      <trkpt lat="47.46703" lon="6.75994">
        <ele>344</ele>
        <time>2016-12-18T08:51:47.999Z</time>
      </trkpt>
      <trkpt lat="47.46703" lon="6.75988">
        <ele>344</ele>
        <time>2016-12-18T08:51:48.999Z</time>
      </trkpt>
      <trkpt lat="47.46702" lon="6.75983">
        <ele>344</ele>
        <time>2016-12-18T08:51:49.999Z</time>
      </trkpt>
      <trkpt lat="47.46702" lon="6.75977">
        <ele>344</ele>
        <time>2016-12-18T08:51:51.999Z</time>
      </trkpt>
      <trkpt lat="47.46702" lon="6.75974">
        <ele>344</ele>
        <time>2016-12-18T08:51:52.999Z</time>
      </trkpt>
      <trkpt lat="47.46702" lon="6.75971">
        <ele>344</ele>
        <time>2016-12-18T08:51:53.999Z</time>
      </trkpt>
      <trkpt lat="47.46703" lon="6.75967">
        <ele>345</ele>
        <time>2016-12-18T08:51:54.999Z</time>
      </trkpt>
      <trkpt lat="47.46703" lon="6.75961">
        <ele>345</ele>
        <time>2016-12-18T08:51:55.999Z</time>
      </trkpt>
      <trkpt lat="47.46702" lon="6.75955">
        <ele>345</ele>
        <time>2016-12-18T08:51:56.999Z</time>
      </trkpt>
      <trkpt lat="47.467" lon="6.75949">
        <ele>345</ele>
        <time>2016-12-18T08:51:57.999Z</time>
      </trkpt>
      <trkpt lat="47.46699" lon="6.75944">
        <ele>346</ele>
        <time>2016-12-18T08:51:58.999Z</time>
      </trkpt>
      <trkpt lat="47.46698" lon="6.7594">
        <ele>346</ele>
        <time>2016-12-18T08:51:59.999Z</time>
      </trkpt>
      <trkpt lat="47.46697" lon="6.75938">
        <ele>346</ele>
        <time>2016-12-18T08:52:00.999Z</time>
      </trkpt>
      <trkpt lat="47.46697" lon="6.75932">
        <ele>346</ele>
        <time>2016-12-18T08:52:02.999Z</time>
      </trkpt>
      <trkpt lat="47.46696" lon="6.75928">
        <ele>347</ele>
        <time>2016-12-18T08:52:03.999Z</time>
      </trkpt>
      <trkpt lat="47.46695" lon="6.75922">
        <ele>347</ele>
        <time>2016-12-18T08:52:04.999Z</time>
      </trkpt>
      <trkpt lat="47.46695" lon="6.75917">
        <ele>350</ele>
        <time>2016-12-18T08:52:05.999Z</time>
      </trkpt>
      <trkpt lat="47.46695" lon="6.75912">
        <ele>350</ele>
        <time>2016-12-18T08:52:06.999Z</time>
      </trkpt>
      <trkpt lat="47.46695" lon="6.75908">
        <ele>350</ele>
        <time>2016-12-18T08:52:07.999Z</time>
      </trkpt>
      <trkpt lat="47.46694" lon="6.75904">
        <ele>350</ele>
        <time>2016-12-18T08:52:08.999Z</time>
      </trkpt>
      <trkpt lat="47.46694" lon="6.759">
        <ele>350</ele>
        <time>2016-12-18T08:52:09.999Z</time>
      </trkpt>
      <trkpt lat="47.46694" lon="6.75896">
        <ele>350</ele>
        <time>2016-12-18T08:52:10.999Z</time>
      </trkpt>
      <trkpt lat="47.46694" lon="6.75892">
        <ele>350</ele>
        <time>2016-12-18T08:52:11.999Z</time>
      </trkpt>
      <trkpt lat="47.46693" lon="6.75887">
        <ele>350</ele>
        <time>2016-12-18T08:52:12.999Z</time>
      </trkpt>
      <trkpt lat="47.46693" lon="6.75883">
        <ele>350</ele>
        <time>2016-12-18T08:52:13.999Z</time>
      </trkpt>
      <trkpt lat="47.46692" lon="6.75879">
        <ele>350</ele>
        <time>2016-12-18T08:52:15.999Z</time>
      </trkpt>
      <trkpt lat="47.46692" lon="6.75876">
        <ele>350</ele>
        <time>2016-12-18T08:52:16.999Z</time>
      </trkpt>
      <trkpt lat="47.46693" lon="6.7587">
        <ele>351</ele>
        <time>2016-12-18T08:52:18.999Z</time>
      </trkpt>
      <trkpt lat="47.46694" lon="6.75864">
        <ele>351</ele>
        <time>2016-12-18T08:52:19.999Z</time>
      </trkpt>
      <trkpt lat="47.46694" lon="6.75855">
        <ele>351</ele>
        <time>2016-12-18T08:52:20.999Z</time>
      </trkpt>
      <trkpt lat="47.46695" lon="6.7584">
        <ele>352</ele>
        <time>2016-12-18T08:52:21.999Z</time>
      </trkpt>
      <trkpt lat="47.46696" lon="6.75831">
        <ele>354</ele>
        <time>2016-12-18T08:52:22.999Z</time>
      </trkpt>
      <trkpt lat="47.46697" lon="6.75826">
        <ele>354</ele>
        <time>2016-12-18T08:52:23.999Z</time>
      </trkpt>
      <trkpt lat="47.46698" lon="6.75819">
        <ele>354</ele>
        <time>2016-12-18T08:52:24.999Z</time>
      </trkpt>
      <trkpt lat="47.46698" lon="6.75813">
        <ele>354</ele>
        <time>2016-12-18T08:52:25.999Z</time>
      </trkpt>
      <trkpt lat="47.46699" lon="6.75804">
        <ele>353</ele>
        <time>2016-12-18T08:52:26.999Z</time>
      </trkpt>
      <trkpt lat="47.467" lon="6.75798">
        <ele>353</ele>
        <time>2016-12-18T08:52:27.999Z</time>
      </trkpt>
      <trkpt lat="47.46701" lon="6.75793">
        <ele>353</ele>
        <time>2016-12-18T08:52:28.999Z</time>
      </trkpt>
      <trkpt lat="47.46701" lon="6.75788">
        <ele>353</ele>
        <time>2016-12-18T08:52:29.999Z</time>
      </trkpt>
      <trkpt lat="47.46701" lon="6.75784">
        <ele>353</ele>
        <time>2016-12-18T08:52:30.999Z</time>
      </trkpt>
      <trkpt lat="47.46701" lon="6.7578">
        <ele>353</ele>
        <time>2016-12-18T08:52:31.999Z</time>
      </trkpt>
      <trkpt lat="47.46701" lon="6.75775">
        <ele>354</ele>
        <time>2016-12-18T08:52:32.999Z</time>
      </trkpt>
      <trkpt lat="47.46701" lon="6.75769">
        <ele>354</ele>
        <time>2016-12-18T08:52:34.999Z</time>
      </trkpt>
      <trkpt lat="47.467" lon="6.75766">
        <ele>354</ele>
        <time>2016-12-18T08:52:35.999Z</time>
      </trkpt>
      <trkpt lat="47.467" lon="6.75762">
        <ele>354</ele>
        <time>2016-12-18T08:52:36.999Z</time>
      </trkpt>
      <trkpt lat="47.46699" lon="6.75759">
        <ele>354</ele>
        <time>2016-12-18T08:52:37.999Z</time>
      </trkpt>
      <trkpt lat="47.46699" lon="6.75755">
        <ele>354</ele>
        <time>2016-12-18T08:52:38.999Z</time>
      </trkpt>
      <trkpt lat="47.46698" lon="6.75752">
        <ele>355</ele>
        <time>2016-12-18T08:52:39.999Z</time>
      </trkpt>
      <trkpt lat="47.46697" lon="6.75746">
        <ele>355</ele>
        <time>2016-12-18T08:52:41.999Z</time>
      </trkpt>
      <trkpt lat="47.46696" lon="6.75742">
        <ele>355</ele>
        <time>2016-12-18T08:52:42.999Z</time>
      </trkpt>
      <trkpt lat="47.46694" lon="6.75736">
        <ele>355</ele>
        <time>2016-12-18T08:52:44.999Z</time>
      </trkpt>
      <trkpt lat="47.46693" lon="6.75732">
        <ele>355</ele>
        <time>2016-12-18T08:52:45.999Z</time>
      </trkpt>
      <trkpt lat="47.46691" lon="6.75728">
        <ele>355</ele>
        <time>2016-12-18T08:52:47.999Z</time>
      </trkpt>
      <trkpt lat="47.46691" lon="6.75726">
        <ele>355</ele>
        <time>2016-12-18T08:52:48.999Z</time>
      </trkpt>
      <trkpt lat="47.4669" lon="6.75722">
        <ele>355</ele>
        <time>2016-12-18T08:52:49.999Z</time>
      </trkpt>
      <trkpt lat="47.46689" lon="6.75719">
        <ele>355</ele>
        <time>2016-12-18T08:52:50.999Z</time>
      </trkpt>
      <trkpt lat="47.46688" lon="6.75714">
        <ele>355</ele>
        <time>2016-12-18T08:52:52.999Z</time>
      </trkpt>
      <trkpt lat="47.46687" lon="6.7571">
        <ele>355</ele>
        <time>2016-12-18T08:52:53.999Z</time>
      </trkpt>
      <trkpt lat="47.46685" lon="6.75705">
        <ele>355</ele>
        <time>2016-12-18T08:52:55.999Z</time>
      </trkpt>
      <trkpt lat="47.46684" lon="6.75703">
        <ele>355</ele>
        <time>2016-12-18T08:52:56.999Z</time>
      </trkpt>
      <trkpt lat="47.46682" lon="6.757">
        <ele>355</ele>
        <time>2016-12-18T08:52:58.999Z</time>
      </trkpt>
      <trkpt lat="47.4668" lon="6.75699">
        <ele>355</ele>
        <time>2016-12-18T08:52:59.999Z</time>
      </trkpt>
      <trkpt lat="47.46677" lon="6.75697">
        <ele>356</ele>
        <time>2016-12-18T08:53:01.999Z</time>
      </trkpt>
      <trkpt lat="47.46675" lon="6.75696">
        <ele>356</ele>
        <time>2016-12-18T08:53:02.999Z</time>
      </trkpt>
      <trkpt lat="47.46672" lon="6.75692">
        <ele>356</ele>
        <time>2016-12-18T08:53:04.999Z</time>
      </trkpt>
      <trkpt lat="47.46671" lon="6.75691">
        <ele>356</ele>
        <time>2016-12-18T08:53:05.999Z</time>
      </trkpt>
      <trkpt lat="47.46668" lon="6.75688">
        <ele>357</ele>
        <time>2016-12-18T08:53:07.999Z</time>
      </trkpt>
      <trkpt lat="47.46666" lon="6.75686">
        <ele>364</ele>
        <time>2016-12-18T08:53:08.999Z</time>
      </trkpt>
      <trkpt lat="47.46663" lon="6.75682">
        <ele>363</ele>
        <time>2016-12-18T08:53:10.999Z</time>
      </trkpt>
      <trkpt lat="47.46661" lon="6.75679">
        <ele>363</ele>
        <time>2016-12-18T08:53:11.999Z</time>
      </trkpt>
      <trkpt lat="47.4666" lon="6.75676">
        <ele>363</ele>
        <time>2016-12-18T08:53:12.999Z</time>
      </trkpt>
      <trkpt lat="47.46659" lon="6.75672">
        <ele>362</ele>
        <time>2016-12-18T08:53:13.999Z</time>
      </trkpt>
      <trkpt lat="47.46658" lon="6.75669">
        <ele>362</ele>
        <time>2016-12-18T08:53:14.999Z</time>
      </trkpt>
      <trkpt lat="47.46657" lon="6.75664">
        <ele>363</ele>
        <time>2016-12-18T08:53:15.999Z</time>
      </trkpt>
      <trkpt lat="47.46656" lon="6.7566">
        <ele>364</ele>
        <time>2016-12-18T08:53:16.999Z</time>
      </trkpt>
      <trkpt lat="47.46655" lon="6.75654">
        <ele>364</ele>
        <time>2016-12-18T08:53:17.999Z</time>
      </trkpt>
      <trkpt lat="47.46654" lon="6.75649">
        <ele>365</ele>
        <time>2016-12-18T08:53:18.999Z</time>
      </trkpt>
      <trkpt lat="47.46654" lon="6.75645">
        <ele>365</ele>
        <time>2016-12-18T08:53:19.999Z</time>
      </trkpt>
      <trkpt lat="47.46654" lon="6.75642">
        <ele>365</ele>
        <time>2016-12-18T08:53:20.999Z</time>
      </trkpt>
      <trkpt lat="47.46654" lon="6.75638">
        <ele>366</ele>
        <time>2016-12-18T08:53:21.999Z</time>
      </trkpt>
      <trkpt lat="47.46654" lon="6.75635">
        <ele>366</ele>
        <time>2016-12-18T08:53:22.999Z</time>
      </trkpt>
      <trkpt lat="47.46654" lon="6.7563">
        <ele>366</ele>
        <time>2016-12-18T08:53:23.999Z</time>
      </trkpt>
      <trkpt lat="47.46654" lon="6.75624">
        <ele>366</ele>
        <time>2016-12-18T08:53:25.999Z</time>
      </trkpt>
      <trkpt lat="47.46653" lon="6.75621">
        <ele>366</ele>
        <time>2016-12-18T08:53:26.999Z</time>
      </trkpt>
      <trkpt lat="47.46654" lon="6.75618">
        <ele>365</ele>
        <time>2016-12-18T08:53:27.999Z</time>
      </trkpt>
      <trkpt lat="47.46655" lon="6.75614">
        <ele>365</ele>
        <time>2016-12-18T08:53:28.999Z</time>
      </trkpt>
      <trkpt lat="47.46655" lon="6.75611">
        <ele>365</ele>
        <time>2016-12-18T08:53:29.999Z</time>
      </trkpt>
      <trkpt lat="47.46655" lon="6.75607">
        <ele>364</ele>
        <time>2016-12-18T08:53:30.999Z</time>
      </trkpt>
      <trkpt lat="47.46656" lon="6.75603">
        <ele>364</ele>
        <time>2016-12-18T08:53:31.999Z</time>
      </trkpt>
      <trkpt lat="47.46656" lon="6.75599">
        <ele>363</ele>
        <time>2016-12-18T08:53:32.999Z</time>
      </trkpt>
      <trkpt lat="47.46655" lon="6.75593">
        <ele>362</ele>
        <time>2016-12-18T08:53:33.999Z</time>
      </trkpt>
      <trkpt lat="47.46655" lon="6.75585">
        <ele>361</ele>
        <time>2016-12-18T08:53:34.999Z</time>
      </trkpt>
      <trkpt lat="47.46656" lon="6.7558">
        <ele>363</ele>
        <time>2016-12-18T08:53:35.999Z</time>
      </trkpt>
      <trkpt lat="47.46656" lon="6.75574">
        <ele>364</ele>
        <time>2016-12-18T08:53:36.999Z</time>
      </trkpt>
      <trkpt lat="47.46656" lon="6.75569">
        <ele>365</ele>
        <time>2016-12-18T08:53:37.999Z</time>
      </trkpt>
      <trkpt lat="47.46657" lon="6.75565">
        <ele>366</ele>
        <time>2016-12-18T08:53:38.999Z</time>
      </trkpt>
      <trkpt lat="47.46658" lon="6.75561">
        <ele>366</ele>
        <time>2016-12-18T08:53:39.999Z</time>
      </trkpt>
      <trkpt lat="47.46659" lon="6.75556">
        <ele>367</ele>
        <time>2016-12-18T08:53:40.999Z</time>
      </trkpt>
      <trkpt lat="47.4666" lon="6.75553">
        <ele>367</ele>
        <time>2016-12-18T08:53:41.999Z</time>
      </trkpt>
      <trkpt lat="47.46662" lon="6.75549">
        <ele>368</ele>
        <time>2016-12-18T08:53:42.999Z</time>
      </trkpt>
      <trkpt lat="47.46664" lon="6.75545">
        <ele>368</ele>
        <time>2016-12-18T08:53:44.999Z</time>
      </trkpt>
      <trkpt lat="47.46666" lon="6.75539">
        <ele>368</ele>
        <time>2016-12-18T08:53:45.999Z</time>
      </trkpt>
      <trkpt lat="47.46666" lon="6.75534">
        <ele>369</ele>
        <time>2016-12-18T08:53:46.999Z</time>
      </trkpt>
      <trkpt lat="47.46667" lon="6.7553">
        <ele>356</ele>
        <time>2016-12-18T08:53:47.999Z</time>
      </trkpt>
      <trkpt lat="47.46668" lon="6.75524">
        <ele>356</ele>
        <time>2016-12-18T08:53:48.999Z</time>
      </trkpt>
      <trkpt lat="47.46668" lon="6.75522">
        <ele>357</ele>
        <time>2016-12-18T08:53:49.999Z</time>
      </trkpt>
      <trkpt lat="47.46669" lon="6.75518">
        <ele>358</ele>
        <time>2016-12-18T08:53:50.999Z</time>
      </trkpt>
      <trkpt lat="47.4667" lon="6.75513">
        <ele>359</ele>
        <time>2016-12-18T08:53:51.999Z</time>
      </trkpt>
      <trkpt lat="47.46671" lon="6.75507">
        <ele>360</ele>
        <time>2016-12-18T08:53:52.999Z</time>
      </trkpt>
      <trkpt lat="47.46673" lon="6.75501">
        <ele>361</ele>
        <time>2016-12-18T08:53:53.999Z</time>
      </trkpt>
      <trkpt lat="47.46675" lon="6.75496">
        <ele>362</ele>
        <time>2016-12-18T08:53:54.999Z</time>
      </trkpt>
      <trkpt lat="47.46674" lon="6.75491">
        <ele>362</ele>
        <time>2016-12-18T08:53:55.999Z</time>
      </trkpt>
      <trkpt lat="47.46675" lon="6.75486">
        <ele>361</ele>
        <time>2016-12-18T08:53:56.999Z</time>
      </trkpt>
      <trkpt lat="47.46676" lon="6.75482">
        <ele>361</ele>
        <time>2016-12-18T08:53:57.999Z</time>
      </trkpt>
      <trkpt lat="47.46677" lon="6.75479">
        <ele>361</ele>
        <time>2016-12-18T08:53:58.999Z</time>
      </trkpt>
      <trkpt lat="47.46679" lon="6.75475">
        <ele>361</ele>
        <time>2016-12-18T08:53:59.999Z</time>
      </trkpt>
      <trkpt lat="47.4668" lon="6.75471">
        <ele>360</ele>
        <time>2016-12-18T08:54:00.999Z</time>
      </trkpt>
      <trkpt lat="47.46682" lon="6.75467">
        <ele>360</ele>
        <time>2016-12-18T08:54:01.999Z</time>
      </trkpt>
      <trkpt lat="47.46684" lon="6.75464">
        <ele>360</ele>
        <time>2016-12-18T08:54:02.999Z</time>
      </trkpt>
      <trkpt lat="47.46685" lon="6.75461">
        <ele>360</ele>
        <time>2016-12-18T08:54:03.999Z</time>
      </trkpt>
      <trkpt lat="47.46687" lon="6.75457">
        <ele>361</ele>
        <time>2016-12-18T08:54:04.999Z</time>
      </trkpt>
      <trkpt lat="47.46688" lon="6.75454">
        <ele>361</ele>
        <time>2016-12-18T08:54:05.999Z</time>
      </trkpt>
      <trkpt lat="47.4669" lon="6.75449">
        <ele>361</ele>
        <time>2016-12-18T08:54:06.999Z</time>
      </trkpt>
      <trkpt lat="47.46691" lon="6.75444">
        <ele>361</ele>
        <time>2016-12-18T08:54:07.999Z</time>
      </trkpt>
      <trkpt lat="47.46692" lon="6.75439">
        <ele>362</ele>
        <time>2016-12-18T08:54:08.999Z</time>
      </trkpt>
      <trkpt lat="47.46693" lon="6.75435">
        <ele>362</ele>
        <time>2016-12-18T08:54:09.999Z</time>
      </trkpt>
      <trkpt lat="47.46694" lon="6.75432">
        <ele>362</ele>
        <time>2016-12-18T08:54:10.999Z</time>
      </trkpt>
      <trkpt lat="47.46696" lon="6.75429">
        <ele>362</ele>
        <time>2016-12-18T08:54:11.999Z</time>
      </trkpt>
      <trkpt lat="47.46699" lon="6.75425">
        <ele>361</ele>
        <time>2016-12-18T08:54:12.999Z</time>
      </trkpt>
      <trkpt lat="47.46701" lon="6.75421">
        <ele>361</ele>
        <time>2016-12-18T08:54:13.999Z</time>
      </trkpt>
      <trkpt lat="47.46702" lon="6.75418">
        <ele>360</ele>
        <time>2016-12-18T08:54:14.999Z</time>
      </trkpt>
      <trkpt lat="47.46704" lon="6.75415">
        <ele>364</ele>
        <time>2016-12-18T08:54:15.999Z</time>
      </trkpt>
      <trkpt lat="47.46705" lon="6.75412">
        <ele>364</ele>
        <time>2016-12-18T08:54:16.999Z</time>
      </trkpt>
      <trkpt lat="47.46708" lon="6.7541">
        <ele>363</ele>
        <time>2016-12-18T08:54:17.999Z</time>
      </trkpt>
      <trkpt lat="47.46709" lon="6.75407">
        <ele>363</ele>
        <time>2016-12-18T08:54:18.999Z</time>
      </trkpt>
      <trkpt lat="47.4671" lon="6.75404">
        <ele>362</ele>
        <time>2016-12-18T08:54:19.999Z</time>
      </trkpt>
      <trkpt lat="47.46712" lon="6.754">
        <ele>362</ele>
        <time>2016-12-18T08:54:21.999Z</time>
      </trkpt>
      <trkpt lat="47.46712" lon="6.75397">
        <ele>362</ele>
        <time>2016-12-18T08:54:22.999Z</time>
      </trkpt>
      <trkpt lat="47.46713" lon="6.75392">
        <ele>362</ele>
        <time>2016-12-18T08:54:24.999Z</time>
      </trkpt>
      <trkpt lat="47.46713" lon="6.75389">
        <ele>362</ele>
        <time>2016-12-18T08:54:25.999Z</time>
      </trkpt>
      <trkpt lat="47.46713" lon="6.75383">
        <ele>363</ele>
        <time>2016-12-18T08:54:27.999Z</time>
      </trkpt>
      <trkpt lat="47.46712" lon="6.75379">
        <ele>363</ele>
        <time>2016-12-18T08:54:28.999Z</time>
      </trkpt>
      <trkpt lat="47.46712" lon="6.75373">
        <ele>363</ele>
        <time>2016-12-18T08:54:33.999Z</time>
      </trkpt>
      <trkpt lat="47.4671" lon="6.75366">
        <ele>364</ele>
        <time>2016-12-18T08:54:34.999Z</time>
      </trkpt>
      <trkpt lat="47.4671" lon="6.7536">
        <ele>364</ele>
        <time>2016-12-18T08:54:36.999Z</time>
      </trkpt>
      <trkpt lat="47.4671" lon="6.75357">
        <ele>364</ele>
        <time>2016-12-18T08:54:37.999Z</time>
      </trkpt>
      <trkpt lat="47.4671" lon="6.75352">
        <ele>364</ele>
        <time>2016-12-18T08:54:39.999Z</time>
      </trkpt>
      <trkpt lat="47.4671" lon="6.7535">
        <ele>364</ele>
        <time>2016-12-18T08:54:40.999Z</time>
      </trkpt>
      <trkpt lat="47.4671" lon="6.75344">
        <ele>364</ele>
        <time>2016-12-18T08:54:44.999Z</time>
      </trkpt>
      <trkpt lat="47.4671" lon="6.75343">
        <ele>364</ele>
        <time>2016-12-18T08:54:45.999Z</time>
      </trkpt>
      <trkpt lat="47.4671" lon="6.75337">
        <ele>364</ele>
        <time>2016-12-18T08:54:50.999Z</time>
      </trkpt>
      <trkpt lat="47.4671" lon="6.75336">
        <ele>364</ele>
        <time>2016-12-18T08:54:51.999Z</time>
      </trkpt>
      <trkpt lat="47.46709" lon="6.75331">
        <ele>366</ele>
        <time>2016-12-18T08:54:54.999Z</time>
      </trkpt>
      <trkpt lat="47.46707" lon="6.75327">
        <ele>366</ele>
        <time>2016-12-18T08:54:55.999Z</time>
      </trkpt>
      <trkpt lat="47.46707" lon="6.75321">
        <ele>366</ele>
        <time>2016-12-18T08:55:06.999Z</time>
      </trkpt>
      <trkpt lat="47.46707" lon="6.7532">
        <ele>366</ele>
        <time>2016-12-18T08:55:07.999Z</time>
      </trkpt>
      <trkpt lat="47.46708" lon="6.75319">
        <ele>366</ele>
        <time>2016-12-18T08:55:09.999Z</time>
      </trkpt>
      <trkpt lat="47.46705" lon="6.75313">
        <ele>367</ele>
        <time>2016-12-18T08:55:10.999Z</time>
      </trkpt>
      <trkpt lat="47.46704" lon="6.75311">
        <ele>367</ele>
        <time>2016-12-18T08:55:11.999Z</time>
      </trkpt>
      <trkpt lat="47.46703" lon="6.75306">
        <ele>367</ele>
        <time>2016-12-18T08:55:12.999Z</time>
      </trkpt>
      <trkpt lat="47.46703" lon="6.75302">
        <ele>367</ele>
        <time>2016-12-18T08:55:15.999Z</time>
      </trkpt>
      <trkpt lat="47.46701" lon="6.75294">
        <ele>367</ele>
        <time>2016-12-18T08:55:16.999Z</time>
      </trkpt>
      <trkpt lat="47.46702" lon="6.75288">
        <ele>367</ele>
        <time>2016-12-18T08:55:19.999Z</time>
      </trkpt>
      <trkpt lat="47.46705" lon="6.75286">
        <ele>366</ele>
        <time>2016-12-18T08:55:20.999Z</time>
      </trkpt>
      <trkpt lat="47.46708" lon="6.75283">
        <ele>366</ele>
        <time>2016-12-18T08:55:21.999Z</time>
      </trkpt>
      <trkpt lat="47.46713" lon="6.75276">
        <ele>365</ele>
        <time>2016-12-18T08:55:22.999Z</time>
      </trkpt>
      <trkpt lat="47.46715" lon="6.75272">
        <ele>364</ele>
        <time>2016-12-18T08:55:23.999Z</time>
      </trkpt>
      <trkpt lat="47.46717" lon="6.75265">
        <ele>364</ele>
        <time>2016-12-18T08:55:24.999Z</time>
      </trkpt>
      <trkpt lat="47.46715" lon="6.7526">
        <ele>364</ele>
        <time>2016-12-18T08:55:26.999Z</time>
      </trkpt>
      <trkpt lat="47.46714" lon="6.75255">
        <ele>364</ele>
        <time>2016-12-18T08:55:27.999Z</time>
      </trkpt>
      <trkpt lat="47.46711" lon="6.7525">
        <ele>365</ele>
        <time>2016-12-18T08:55:29.999Z</time>
      </trkpt>
      <trkpt lat="47.46711" lon="6.75248">
        <ele>365</ele>
        <time>2016-12-18T08:55:30.999Z</time>
      </trkpt>
      <trkpt lat="47.4671" lon="6.75243">
        <ele>365</ele>
        <time>2016-12-18T08:55:35.999Z</time>
      </trkpt>
      <trkpt lat="47.4671" lon="6.75242">
        <ele>365</ele>
        <time>2016-12-18T08:55:36.999Z</time>
      </trkpt>
      <trkpt lat="47.46708" lon="6.75238">
        <ele>366</ele>
        <time>2016-12-18T08:55:37.999Z</time>
      </trkpt>
      <trkpt lat="47.46708" lon="6.75235">
        <ele>366</ele>
        <time>2016-12-18T08:55:38.999Z</time>
      </trkpt>
      <trkpt lat="47.46708" lon="6.75229">
        <ele>366</ele>
        <time>2016-12-18T08:55:40.999Z</time>
      </trkpt>
      <trkpt lat="47.46707" lon="6.75227">
        <ele>366</ele>
        <time>2016-12-18T08:55:41.999Z</time>
      </trkpt>
      <trkpt lat="47.46706" lon="6.75221">
        <ele>366</ele>
        <time>2016-12-18T08:55:46.999Z</time>
      </trkpt>
      <trkpt lat="47.46705" lon="6.75216">
        <ele>366</ele>
        <time>2016-12-18T08:55:47.999Z</time>
      </trkpt>
      <trkpt lat="47.46707" lon="6.75211">
        <ele>366</ele>
        <time>2016-12-18T08:55:48.999Z</time>
      </trkpt>
      <trkpt lat="47.46708" lon="6.75206">
        <ele>366</ele>
        <time>2016-12-18T08:55:49.999Z</time>
      </trkpt>
      <trkpt lat="47.46708" lon="6.752">
        <ele>366</ele>
        <time>2016-12-18T08:55:50.999Z</time>
      </trkpt>
      <trkpt lat="47.46708" lon="6.75198">
        <ele>366</ele>
        <time>2016-12-18T08:55:51.999Z</time>
      </trkpt>
      <trkpt lat="47.46709" lon="6.75193">
        <ele>366</ele>
        <time>2016-12-18T08:55:54.999Z</time>
      </trkpt>
      <trkpt lat="47.46709" lon="6.75191">
        <ele>366</ele>
        <time>2016-12-18T08:55:55.999Z</time>
      </trkpt>
      <trkpt lat="47.46709" lon="6.75189">
        <ele>366</ele>
        <time>2016-12-18T08:55:56.999Z</time>
      </trkpt>
      <trkpt lat="47.46709" lon="6.75179">
        <ele>366</ele>
        <time>2016-12-18T08:55:57.999Z</time>
      </trkpt>
      <trkpt lat="47.46709" lon="6.75174">
        <ele>366</ele>
        <time>2016-12-18T08:55:58.999Z</time>
      </trkpt>
      <trkpt lat="47.46711" lon="6.75167">
        <ele>366</ele>
        <time>2016-12-18T08:55:59.999Z</time>
      </trkpt>
      <trkpt lat="47.46712" lon="6.75161">
        <ele>366</ele>
        <time>2016-12-18T08:56:00.999Z</time>
      </trkpt>
      <trkpt lat="47.4671" lon="6.75157">
        <ele>366</ele>
        <time>2016-12-18T08:56:01.999Z</time>
      </trkpt>
      <trkpt lat="47.46708" lon="6.75153">
        <ele>367</ele>
        <time>2016-12-18T08:56:03.999Z</time>
      </trkpt>
      <trkpt lat="47.46709" lon="6.75148">
        <ele>367</ele>
        <time>2016-12-18T08:56:04.999Z</time>
      </trkpt>
      <trkpt lat="47.46707" lon="6.75143">
        <ele>367</ele>
        <time>2016-12-18T08:56:05.999Z</time>
      </trkpt>
      <trkpt lat="47.46705" lon="6.7514">
        <ele>367</ele>
        <time>2016-12-18T08:56:06.999Z</time>
      </trkpt>
      <trkpt lat="47.46703" lon="6.75134">
        <ele>367</ele>
        <time>2016-12-18T08:56:08.999Z</time>
      </trkpt>
      <trkpt lat="47.46703" lon="6.75132">
        <ele>367</ele>
        <time>2016-12-18T08:56:09.999Z</time>
      </trkpt>
      <trkpt lat="47.46703" lon="6.75125">
        <ele>367</ele>
        <time>2016-12-18T08:56:11.999Z</time>
      </trkpt>
      <trkpt lat="47.46703" lon="6.75122">
        <ele>367</ele>
        <time>2016-12-18T08:56:12.999Z</time>
      </trkpt>
      <trkpt lat="47.46704" lon="6.75116">
        <ele>367</ele>
        <time>2016-12-18T08:56:16.999Z</time>
      </trkpt>
      <trkpt lat="47.46704" lon="6.75113">
        <ele>367</ele>
        <time>2016-12-18T08:56:17.999Z</time>
      </trkpt>
      <trkpt lat="47.46701" lon="6.75107">
        <ele>368</ele>
        <time>2016-12-18T08:56:20.999Z</time>
      </trkpt>
      <trkpt lat="47.46701" lon="6.75106">
        <ele>368</ele>
        <time>2016-12-18T08:56:21.999Z</time>
      </trkpt>
      <trkpt lat="47.46699" lon="6.75101">
        <ele>368</ele>
        <time>2016-12-18T08:56:26.999Z</time>
      </trkpt>
      <trkpt lat="47.46698" lon="6.751">
        <ele>368</ele>
        <time>2016-12-18T08:56:27.999Z</time>
      </trkpt>
      <trkpt lat="47.46699" lon="6.75097">
        <ele>368</ele>
        <time>2016-12-18T08:56:36.999Z</time>
      </trkpt>
      <trkpt lat="47.46698" lon="6.75094">
        <ele>368</ele>
        <time>2016-12-18T08:56:37.999Z</time>
      </trkpt>
      <trkpt lat="47.46698" lon="6.75088">
        <ele>369</ele>
        <time>2016-12-18T08:56:38.999Z</time>
      </trkpt>
      <trkpt lat="47.46698" lon="6.75081">
        <ele>367</ele>
        <time>2016-12-18T08:56:39.999Z</time>
      </trkpt>
      <trkpt lat="47.46697" lon="6.75073">
        <ele>367</ele>
        <time>2016-12-18T08:56:40.999Z</time>
      </trkpt>
      <trkpt lat="47.46696" lon="6.75066">
        <ele>367</ele>
        <time>2016-12-18T08:56:45.999Z</time>
      </trkpt>
      <trkpt lat="47.46696" lon="6.75064">
        <ele>367</ele>
        <time>2016-12-18T08:56:46.999Z</time>
      </trkpt>
      <trkpt lat="47.46697" lon="6.75058">
        <ele>366</ele>
        <time>2016-12-18T08:56:48.999Z</time>
      </trkpt>
      <trkpt lat="47.46694" lon="6.75051">
        <ele>366</ele>
        <time>2016-12-18T08:56:49.999Z</time>
      </trkpt>
      <trkpt lat="47.46693" lon="6.75043">
        <ele>366</ele>
        <time>2016-12-18T08:56:50.999Z</time>
      </trkpt>
      <trkpt lat="47.46697" lon="6.75031">
        <ele>365</ele>
        <time>2016-12-18T08:56:51.999Z</time>
      </trkpt>
      <trkpt lat="47.46701" lon="6.75022">
        <ele>364</ele>
        <time>2016-12-18T08:56:52.999Z</time>
      </trkpt>
      <trkpt lat="47.467" lon="6.75018">
        <ele>364</ele>
        <time>2016-12-18T08:56:53.999Z</time>
      </trkpt>
      <trkpt lat="47.46699" lon="6.75014">
        <ele>365</ele>
        <time>2016-12-18T08:56:54.999Z</time>
      </trkpt>
      <trkpt lat="47.46698" lon="6.7501">
        <ele>365</ele>
        <time>2016-12-18T08:56:56.999Z</time>
      </trkpt>
      <trkpt lat="47.46696" lon="6.75007">
        <ele>365</ele>
        <time>2016-12-18T08:56:57.999Z</time>
      </trkpt>
      <trkpt lat="47.46695" lon="6.75004">
        <ele>365</ele>
        <time>2016-12-18T08:56:58.999Z</time>
      </trkpt>
      <trkpt lat="47.46693" lon="6.74997">
        <ele>363</ele>
        <time>2016-12-18T08:56:59.999Z</time>
      </trkpt>
      <trkpt lat="47.46692" lon="6.74992">
        <ele>363</ele>
        <time>2016-12-18T08:57:00.999Z</time>
      </trkpt>
      <trkpt lat="47.46691" lon="6.74988">
        <ele>363</ele>
        <time>2016-12-18T08:57:01.999Z</time>
      </trkpt>
      <trkpt lat="47.4669" lon="6.74984">
        <ele>363</ele>
        <time>2016-12-18T08:57:02.999Z</time>
      </trkpt>
      <trkpt lat="47.4669" lon="6.74978">
        <ele>363</ele>
        <time>2016-12-18T08:57:03.999Z</time>
      </trkpt>
      <trkpt lat="47.46689" lon="6.74973">
        <ele>363</ele>
        <time>2016-12-18T08:57:04.999Z</time>
      </trkpt>
      <trkpt lat="47.46687" lon="6.74967">
        <ele>362</ele>
        <time>2016-12-18T08:57:05.999Z</time>
      </trkpt>
      <trkpt lat="47.46685" lon="6.74962">
        <ele>362</ele>
        <time>2016-12-18T08:57:06.999Z</time>
      </trkpt>
      <trkpt lat="47.46684" lon="6.74961">
        <ele>362</ele>
        <time>2016-12-18T08:57:07.999Z</time>
      </trkpt>
      <trkpt lat="47.46683" lon="6.74956">
        <ele>362</ele>
        <time>2016-12-18T08:57:10.999Z</time>
      </trkpt>
      <trkpt lat="47.46682" lon="6.74954">
        <ele>362</ele>
        <time>2016-12-18T08:57:11.999Z</time>
      </trkpt>
      <trkpt lat="47.46682" lon="6.74949">
        <ele>362</ele>
        <time>2016-12-18T08:57:13.999Z</time>
      </trkpt>
      <trkpt lat="47.46681" lon="6.74945">
        <ele>362</ele>
        <time>2016-12-18T08:57:14.999Z</time>
      </trkpt>
      <trkpt lat="47.46679" lon="6.74941">
        <ele>362</ele>
        <time>2016-12-18T08:57:15.999Z</time>
      </trkpt>
      <trkpt lat="47.46678" lon="6.74937">
        <ele>363</ele>
        <time>2016-12-18T08:57:16.999Z</time>
      </trkpt>
      <trkpt lat="47.46676" lon="6.74934">
        <ele>363</ele>
        <time>2016-12-18T08:57:17.999Z</time>
      </trkpt>
      <trkpt lat="47.46674" lon="6.74931">
        <ele>363</ele>
        <time>2016-12-18T08:57:18.999Z</time>
      </trkpt>
      <trkpt lat="47.46672" lon="6.74929">
        <ele>363</ele>
        <time>2016-12-18T08:57:19.999Z</time>
      </trkpt>
      <trkpt lat="47.4667" lon="6.74925">
        <ele>364</ele>
        <time>2016-12-18T08:57:20.999Z</time>
      </trkpt>
      <trkpt lat="47.46668" lon="6.74919">
        <ele>365</ele>
        <time>2016-12-18T08:57:21.999Z</time>
      </trkpt>
      <trkpt lat="47.46666" lon="6.74914">
        <ele>365</ele>
        <time>2016-12-18T08:57:22.999Z</time>
      </trkpt>
      <trkpt lat="47.46665" lon="6.7491">
        <ele>366</ele>
        <time>2016-12-18T08:57:23.999Z</time>
      </trkpt>
      <trkpt lat="47.46664" lon="6.74905">
        <ele>367</ele>
        <time>2016-12-18T08:57:24.999Z</time>
      </trkpt>
      <trkpt lat="47.46663" lon="6.74901">
        <ele>367</ele>
        <time>2016-12-18T08:57:25.999Z</time>
      </trkpt>
      <trkpt lat="47.46662" lon="6.74896">
        <ele>368</ele>
        <time>2016-12-18T08:57:26.999Z</time>
      </trkpt>
      <trkpt lat="47.4666" lon="6.74892">
        <ele>368</ele>
        <time>2016-12-18T08:57:27.999Z</time>
      </trkpt>
      <trkpt lat="47.46659" lon="6.74888">
        <ele>368</ele>
        <time>2016-12-18T08:57:28.999Z</time>
      </trkpt>
      <trkpt lat="47.46657" lon="6.74883">
        <ele>368</ele>
        <time>2016-12-18T08:57:30.999Z</time>
      </trkpt>
      <trkpt lat="47.46655" lon="6.7488">
        <ele>368</ele>
        <time>2016-12-18T08:57:31.999Z</time>
      </trkpt>
      <trkpt lat="47.46655" lon="6.74877">
        <ele>368</ele>
        <time>2016-12-18T08:57:32.999Z</time>
      </trkpt>
      <trkpt lat="47.46653" lon="6.74873">
        <ele>368</ele>
        <time>2016-12-18T08:57:33.999Z</time>
      </trkpt>
      <trkpt lat="47.46652" lon="6.74869">
        <ele>368</ele>
        <time>2016-12-18T08:57:34.999Z</time>
      </trkpt>
      <trkpt lat="47.46651" lon="6.74866">
        <ele>368</ele>
        <time>2016-12-18T08:57:35.999Z</time>
      </trkpt>
      <trkpt lat="47.4665" lon="6.74863">
        <ele>368</ele>
        <time>2016-12-18T08:57:36.999Z</time>
      </trkpt>
      <trkpt lat="47.46648" lon="6.7486">
        <ele>368</ele>
        <time>2016-12-18T08:57:37.999Z</time>
      </trkpt>
      <trkpt lat="47.46647" lon="6.74857">
        <ele>368</ele>
        <time>2016-12-18T08:57:38.999Z</time>
      </trkpt>
      <trkpt lat="47.46645" lon="6.74853">
        <ele>368</ele>
        <time>2016-12-18T08:57:39.999Z</time>
      </trkpt>
      <trkpt lat="47.46643" lon="6.7485">
        <ele>368</ele>
        <time>2016-12-18T08:57:40.999Z</time>
      </trkpt>
      <trkpt lat="47.46641" lon="6.74847">
        <ele>368</ele>
        <time>2016-12-18T08:57:41.999Z</time>
      </trkpt>
      <trkpt lat="47.46639" lon="6.74843">
        <ele>368</ele>
        <time>2016-12-18T08:57:43.999Z</time>
      </trkpt>
      <trkpt lat="47.46638" lon="6.74842">
        <ele>368</ele>
        <time>2016-12-18T08:57:44.999Z</time>
      </trkpt>
      <trkpt lat="47.46636" lon="6.74838">
        <ele>369</ele>
        <time>2016-12-18T08:57:46.999Z</time>
      </trkpt>
      <trkpt lat="47.46634" lon="6.74835">
        <ele>369</ele>
        <time>2016-12-18T08:57:47.999Z</time>
      </trkpt>
      <trkpt lat="47.46631" lon="6.74831">
        <ele>365</ele>
        <time>2016-12-18T08:57:49.999Z</time>
      </trkpt>
      <trkpt lat="47.46631" lon="6.74829">
        <ele>365</ele>
        <time>2016-12-18T08:57:50.999Z</time>
      </trkpt>
      <trkpt lat="47.46633" lon="6.74834">
        <ele>369</ele>
        <time>2016-12-18T08:58:04.999Z</time>
      </trkpt>
      <trkpt lat="47.46634" lon="6.74834">
        <ele>369</ele>
        <time>2016-12-18T08:58:05.999Z</time>
      </trkpt>
      <trkpt lat="47.46638" lon="6.74835">
        <ele>368</ele>
        <time>2016-12-18T08:58:15.999Z</time>
      </trkpt>
      <trkpt lat="47.46639" lon="6.74836">
        <ele>368</ele>
        <time>2016-12-18T08:58:16.999Z</time>
      </trkpt>
      <trkpt lat="47.46642" lon="6.74832">
        <ele>365</ele>
        <time>2016-12-18T08:58:22.999Z</time>
      </trkpt>
      <trkpt lat="47.46642" lon="6.74831">
        <ele>365</ele>
        <time>2016-12-18T08:58:23.999Z</time>
      </trkpt>
      <trkpt lat="47.4664" lon="6.74828">
        <ele>365</ele>
        <time>2016-12-18T08:58:25.999Z</time>
      </trkpt>
      <trkpt lat="47.46637" lon="6.74825">
        <ele>365</ele>
        <time>2016-12-18T08:58:26.999Z</time>
      </trkpt>
      <trkpt lat="47.46635" lon="6.74823">
        <ele>365</ele>
        <time>2016-12-18T08:58:27.999Z</time>
      </trkpt>
      <trkpt lat="47.46632" lon="6.7482">
        <ele>365</ele>
        <time>2016-12-18T08:58:28.999Z</time>
      </trkpt>
      <trkpt lat="47.46629" lon="6.74819">
        <ele>365</ele>
        <time>2016-12-18T08:58:29.999Z</time>
      </trkpt>
      <trkpt lat="47.46623" lon="6.74821">
        <ele>366</ele>
        <time>2016-12-18T08:58:30.999Z</time>
      </trkpt>
      <trkpt lat="47.46619" lon="6.7482">
        <ele>366</ele>
        <time>2016-12-18T08:58:31.999Z</time>
      </trkpt>
      <trkpt lat="47.46615" lon="6.7482">
        <ele>366</ele>
        <time>2016-12-18T08:58:33.999Z</time>
      </trkpt>
      <trkpt lat="47.46613" lon="6.7482">
        <ele>367</ele>
        <time>2016-12-18T08:58:34.999Z</time>
      </trkpt>
      <trkpt lat="47.46609" lon="6.74821">
        <ele>367</ele>
        <time>2016-12-18T08:58:36.999Z</time>
      </trkpt>
      <trkpt lat="47.46608" lon="6.74821">
        <ele>367</ele>
        <time>2016-12-18T08:58:37.999Z</time>
      </trkpt>
      <trkpt lat="47.46604" lon="6.74824">
        <ele>368</ele>
        <time>2016-12-18T08:58:40.999Z</time>
      </trkpt>
      <trkpt lat="47.46602" lon="6.74825">
        <ele>368</ele>
        <time>2016-12-18T08:58:41.999Z</time>
      </trkpt>
      <trkpt lat="47.46599" lon="6.74825">
        <ele>369</ele>
        <time>2016-12-18T08:58:42.999Z</time>
      </trkpt>
      <trkpt lat="47.46597" lon="6.74825">
        <ele>369</ele>
        <time>2016-12-18T08:58:43.999Z</time>
      </trkpt>
      <trkpt lat="47.46593" lon="6.74826">
        <ele>370</ele>
        <time>2016-12-18T08:58:45.999Z</time>
      </trkpt>
      <trkpt lat="47.46592" lon="6.74826">
        <ele>370</ele>
        <time>2016-12-18T08:58:46.999Z</time>
      </trkpt>
      <trkpt lat="47.46589" lon="6.74826">
        <ele>371</ele>
        <time>2016-12-18T08:58:49.999Z</time>
      </trkpt>
      <trkpt lat="47.46587" lon="6.74827">
        <ele>371</ele>
        <time>2016-12-18T08:58:50.999Z</time>
      </trkpt>
      <trkpt lat="47.46586" lon="6.74828">
        <ele>372</ele>
        <time>2016-12-18T08:58:51.999Z</time>
      </trkpt>
      <trkpt lat="47.46582" lon="6.74829">
        <ele>374</ele>
        <time>2016-12-18T08:58:52.999Z</time>
      </trkpt>
      <trkpt lat="47.46579" lon="6.7483">
        <ele>374</ele>
        <time>2016-12-18T08:58:53.999Z</time>
      </trkpt>
      <trkpt lat="47.46577" lon="6.7483">
        <ele>374</ele>
        <time>2016-12-18T08:58:54.999Z</time>
      </trkpt>
      <trkpt lat="47.46573" lon="6.74829">
        <ele>373</ele>
        <time>2016-12-18T08:58:56.999Z</time>
      </trkpt>
      <trkpt lat="47.46571" lon="6.7483">
        <ele>373</ele>
        <time>2016-12-18T08:58:57.999Z</time>
      </trkpt>
      <trkpt lat="47.46568" lon="6.7483">
        <ele>373</ele>
        <time>2016-12-18T08:58:58.999Z</time>
      </trkpt>
      <trkpt lat="47.46566" lon="6.7483">
        <ele>373</ele>
        <time>2016-12-18T08:58:59.999Z</time>
      </trkpt>
      <trkpt lat="47.46562" lon="6.74829">
        <ele>373</ele>
        <time>2016-12-18T08:59:01.999Z</time>
      </trkpt>
      <trkpt lat="47.46561" lon="6.74828">
        <ele>373</ele>
        <time>2016-12-18T08:59:02.999Z</time>
      </trkpt>
      <trkpt lat="47.46557" lon="6.74829">
        <ele>374</ele>
        <time>2016-12-18T08:59:05.999Z</time>
      </trkpt>
      <trkpt lat="47.46556" lon="6.7483">
        <ele>374</ele>
        <time>2016-12-18T08:59:06.999Z</time>
      </trkpt>
      <trkpt lat="47.46552" lon="6.74831">
        <ele>374</ele>
        <time>2016-12-18T08:59:09.999Z</time>
      </trkpt>
      <trkpt lat="47.4655" lon="6.74831">
        <ele>374</ele>
        <time>2016-12-18T08:59:10.999Z</time>
      </trkpt>
      <trkpt lat="47.46547" lon="6.74831">
        <ele>374</ele>
        <time>2016-12-18T08:59:12.999Z</time>
      </trkpt>
      <trkpt lat="47.46545" lon="6.74831">
        <ele>374</ele>
        <time>2016-12-18T08:59:13.999Z</time>
      </trkpt>
      <trkpt lat="47.46542" lon="6.74832">
        <ele>374</ele>
        <time>2016-12-18T08:59:15.999Z</time>
      </trkpt>
      <trkpt lat="47.4654" lon="6.74833">
        <ele>375</ele>
        <time>2016-12-18T08:59:16.999Z</time>
      </trkpt>
      <trkpt lat="47.46537" lon="6.74833">
        <ele>375</ele>
        <time>2016-12-18T08:59:18.999Z</time>
      </trkpt>
      <trkpt lat="47.46535" lon="6.74834">
        <ele>380</ele>
        <time>2016-12-18T08:59:19.999Z</time>
      </trkpt>
      <trkpt lat="47.46531" lon="6.74834">
        <ele>381</ele>
        <time>2016-12-18T08:59:22.999Z</time>
      </trkpt>
      <trkpt lat="47.4653" lon="6.74834">
        <ele>381</ele>
        <time>2016-12-18T08:59:23.999Z</time>
      </trkpt>
      <trkpt lat="47.46526" lon="6.74834">
        <ele>381</ele>
        <time>2016-12-18T08:59:26.999Z</time>
      </trkpt>
      <trkpt lat="47.46524" lon="6.74836">
        <ele>381</ele>
        <time>2016-12-18T08:59:27.999Z</time>
      </trkpt>
      <trkpt lat="47.4652" lon="6.74836">
        <ele>381</ele>
        <time>2016-12-18T08:59:30.999Z</time>
      </trkpt>
      <trkpt lat="47.46518" lon="6.74836">
        <ele>382</ele>
        <time>2016-12-18T08:59:31.999Z</time>
      </trkpt>
      <trkpt lat="47.46515" lon="6.74835">
        <ele>382</ele>
        <time>2016-12-18T08:59:33.999Z</time>
      </trkpt>
      <trkpt lat="47.46513" lon="6.74836">
        <ele>382</ele>
        <time>2016-12-18T08:59:34.999Z</time>
      </trkpt>
      <trkpt lat="47.46509" lon="6.74835">
        <ele>382</ele>
        <time>2016-12-18T08:59:36.999Z</time>
      </trkpt>
      <trkpt lat="47.46507" lon="6.74834">
        <ele>382</ele>
        <time>2016-12-18T08:59:37.999Z</time>
      </trkpt>
      <trkpt lat="47.46504" lon="6.74832">
        <ele>381</ele>
        <time>2016-12-18T08:59:39.999Z</time>
      </trkpt>
      <trkpt lat="47.46502" lon="6.74831">
        <ele>382</ele>
        <time>2016-12-18T08:59:40.999Z</time>
      </trkpt>
      <trkpt lat="47.465" lon="6.7483">
        <ele>383</ele>
        <time>2016-12-18T08:59:42.999Z</time>
      </trkpt>
      <trkpt lat="47.46497" lon="6.7483">
        <ele>383</ele>
        <time>2016-12-18T08:59:43.999Z</time>
      </trkpt>
      <trkpt lat="47.46495" lon="6.74829">
        <ele>382</ele>
        <time>2016-12-18T08:59:44.999Z</time>
      </trkpt>
      <trkpt lat="47.46491" lon="6.74828">
        <ele>382</ele>
        <time>2016-12-18T08:59:45.999Z</time>
      </trkpt>
      <trkpt lat="47.46487" lon="6.74827">
        <ele>382</ele>
        <time>2016-12-18T08:59:46.999Z</time>
      </trkpt>
      <trkpt lat="47.46484" lon="6.74825">
        <ele>382</ele>
        <time>2016-12-18T08:59:47.999Z</time>
      </trkpt>
      <trkpt lat="47.46482" lon="6.74824">
        <ele>382</ele>
        <time>2016-12-18T08:59:48.999Z</time>
      </trkpt>
      <trkpt lat="47.46479" lon="6.74824">
        <ele>382</ele>
        <time>2016-12-18T08:59:49.999Z</time>
      </trkpt>
      <trkpt lat="47.46476" lon="6.74823">
        <ele>382</ele>
        <time>2016-12-18T08:59:50.999Z</time>
      </trkpt>
      <trkpt lat="47.46473" lon="6.74823">
        <ele>382</ele>
        <time>2016-12-18T08:59:51.999Z</time>
      </trkpt>
      <trkpt lat="47.46469" lon="6.74822">
        <ele>382</ele>
        <time>2016-12-18T08:59:53.999Z</time>
      </trkpt>
      <trkpt lat="47.46466" lon="6.74823">
        <ele>382</ele>
        <time>2016-12-18T08:59:54.999Z</time>
      </trkpt>
      <trkpt lat="47.46462" lon="6.74825">
        <ele>383</ele>
        <time>2016-12-18T08:59:56.999Z</time>
      </trkpt>
      <trkpt lat="47.46461" lon="6.74825">
        <ele>383</ele>
        <time>2016-12-18T08:59:57.999Z</time>
      </trkpt>
      <trkpt lat="47.46457" lon="6.74825">
        <ele>383</ele>
        <time>2016-12-18T09:00:02.999Z</time>
      </trkpt>
      <trkpt lat="47.46456" lon="6.74826">
        <ele>383</ele>
        <time>2016-12-18T09:00:03.999Z</time>
      </trkpt>
      <trkpt lat="47.46452" lon="6.74827">
        <ele>384</ele>
        <time>2016-12-18T09:00:06.999Z</time>
      </trkpt>
      <trkpt lat="47.4645" lon="6.74827">
        <ele>384</ele>
        <time>2016-12-18T09:00:07.999Z</time>
      </trkpt>
      <trkpt lat="47.46447" lon="6.74828">
        <ele>384</ele>
        <time>2016-12-18T09:00:09.999Z</time>
      </trkpt>
      <trkpt lat="47.46444" lon="6.74829">
        <ele>385</ele>
        <time>2016-12-18T09:00:10.999Z</time>
      </trkpt>
      <trkpt lat="47.46441" lon="6.74828">
        <ele>385</ele>
        <time>2016-12-18T09:00:12.999Z</time>
      </trkpt>
      <trkpt lat="47.46439" lon="6.74828">
        <ele>386</ele>
        <time>2016-12-18T09:00:13.999Z</time>
      </trkpt>
      <trkpt lat="47.46436" lon="6.74826">
        <ele>386</ele>
        <time>2016-12-18T09:00:16.000Z</time>
      </trkpt>
      <trkpt lat="47.46434" lon="6.74825">
        <ele>386</ele>
        <time>2016-12-18T09:00:17.000Z</time>
      </trkpt>
      <trkpt lat="47.46431" lon="6.74824">
        <ele>387</ele>
        <time>2016-12-18T09:00:19.000Z</time>
      </trkpt>
      <trkpt lat="47.46429" lon="6.74823">
        <ele>387</ele>
        <time>2016-12-18T09:00:20.000Z</time>
      </trkpt>
      <trkpt lat="47.46425" lon="6.74821">
        <ele>387</ele>
        <time>2016-12-18T09:00:22.000Z</time>
      </trkpt>
      <trkpt lat="47.46423" lon="6.74821">
        <ele>387</ele>
        <time>2016-12-18T09:00:23.000Z</time>
      </trkpt>
      <trkpt lat="47.46421" lon="6.7482">
        <ele>387</ele>
        <time>2016-12-18T09:00:25.000Z</time>
      </trkpt>
      <trkpt lat="47.46418" lon="6.74818">
        <ele>387</ele>
        <time>2016-12-18T09:00:26.000Z</time>
      </trkpt>
      <trkpt lat="47.46416" lon="6.74817">
        <ele>390</ele>
        <time>2016-12-18T09:00:27.000Z</time>
      </trkpt>
      <trkpt lat="47.46414" lon="6.74817">
        <ele>390</ele>
        <time>2016-12-18T09:00:28.000Z</time>
      </trkpt>
      <trkpt lat="47.46411" lon="6.74817">
        <ele>390</ele>
        <time>2016-12-18T09:00:29.000Z</time>
      </trkpt>
      <trkpt lat="47.46409" lon="6.74817">
        <ele>390</ele>
        <time>2016-12-18T09:00:30.000Z</time>
      </trkpt>
      <trkpt lat="47.46405" lon="6.74817">
        <ele>390</ele>
        <time>2016-12-18T09:00:32.000Z</time>
      </trkpt>
      <trkpt lat="47.46402" lon="6.74818">
        <ele>390</ele>
        <time>2016-12-18T09:00:33.000Z</time>
      </trkpt>
      <trkpt lat="47.46398" lon="6.74818">
        <ele>389</ele>
        <time>2016-12-18T09:00:35.000Z</time>
      </trkpt>
      <trkpt lat="47.46397" lon="6.74818">
        <ele>389</ele>
        <time>2016-12-18T09:00:36.000Z</time>
      </trkpt>
      <trkpt lat="47.46393" lon="6.74819">
        <ele>389</ele>
        <time>2016-12-18T09:00:38.000Z</time>
      </trkpt>
      <trkpt lat="47.46391" lon="6.74819">
        <ele>389</ele>
        <time>2016-12-18T09:00:39.000Z</time>
      </trkpt>
      <trkpt lat="47.46387" lon="6.74818">
        <ele>389</ele>
        <time>2016-12-18T09:00:41.000Z</time>
      </trkpt>
      <trkpt lat="47.46385" lon="6.74818">
        <ele>389</ele>
        <time>2016-12-18T09:00:42.000Z</time>
      </trkpt>
      <trkpt lat="47.46382" lon="6.7482">
        <ele>389</ele>
        <time>2016-12-18T09:00:44.000Z</time>
      </trkpt>
      <trkpt lat="47.4638" lon="6.74821">
        <ele>389</ele>
        <time>2016-12-18T09:00:45.000Z</time>
      </trkpt>
      <trkpt lat="47.46376" lon="6.74822">
        <ele>390</ele>
        <time>2016-12-18T09:00:47.000Z</time>
      </trkpt>
      <trkpt lat="47.46374" lon="6.74822">
        <ele>390</ele>
        <time>2016-12-18T09:00:48.000Z</time>
      </trkpt>
      <trkpt lat="47.46371" lon="6.74824">
        <ele>390</ele>
        <time>2016-12-18T09:00:50.000Z</time>
      </trkpt>
      <trkpt lat="47.46369" lon="6.74825">
        <ele>390</ele>
        <time>2016-12-18T09:00:51.000Z</time>
      </trkpt>
      <trkpt lat="47.46366" lon="6.74828">
        <ele>390</ele>
        <time>2016-12-18T09:00:53.000Z</time>
      </trkpt>
      <trkpt lat="47.46365" lon="6.74829">
        <ele>390</ele>
        <time>2016-12-18T09:00:54.000Z</time>
      </trkpt>
      <trkpt lat="47.4636" lon="6.74831">
        <ele>390</ele>
        <time>2016-12-18T09:00:56.000Z</time>
      </trkpt>
      <trkpt lat="47.46358" lon="6.74832">
        <ele>391</ele>
        <time>2016-12-18T09:00:57.000Z</time>
      </trkpt>
      <trkpt lat="47.46354" lon="6.74834">
        <ele>395</ele>
        <time>2016-12-18T09:00:59.000Z</time>
      </trkpt>
      <trkpt lat="47.46351" lon="6.74836">
        <ele>395</ele>
        <time>2016-12-18T09:01:00.000Z</time>
      </trkpt>
      <trkpt lat="47.46348" lon="6.74838">
        <ele>394</ele>
        <time>2016-12-18T09:01:01.000Z</time>
      </trkpt>
      <trkpt lat="47.46345" lon="6.74839">
        <ele>394</ele>
        <time>2016-12-18T09:01:02.000Z</time>
      </trkpt>
      <trkpt lat="47.46341" lon="6.74838">
        <ele>394</ele>
        <time>2016-12-18T09:01:03.000Z</time>
      </trkpt>
      <trkpt lat="47.46336" lon="6.74837">
        <ele>394</ele>
        <time>2016-12-18T09:01:04.000Z</time>
      </trkpt>
      <trkpt lat="47.4633" lon="6.74836">
        <ele>395</ele>
        <time>2016-12-18T09:01:05.000Z</time>
      </trkpt>
      <trkpt lat="47.46324" lon="6.74835">
        <ele>395</ele>
        <time>2016-12-18T09:01:06.000Z</time>
      </trkpt>
      <trkpt lat="47.4632" lon="6.74834">
        <ele>396</ele>
        <time>2016-12-18T09:01:07.000Z</time>
      </trkpt>
      <trkpt lat="47.46316" lon="6.74832">
        <ele>393</ele>
        <time>2016-12-18T09:01:08.000Z</time>
      </trkpt>
      <trkpt lat="47.46312" lon="6.74831">
        <ele>393</ele>
        <time>2016-12-18T09:01:09.000Z</time>
      </trkpt>
      <trkpt lat="47.46309" lon="6.74831">
        <ele>393</ele>
        <time>2016-12-18T09:01:10.000Z</time>
      </trkpt>
      <trkpt lat="47.46305" lon="6.7483">
        <ele>393</ele>
        <time>2016-12-18T09:01:11.000Z</time>
      </trkpt>
      <trkpt lat="47.46302" lon="6.74829">
        <ele>393</ele>
        <time>2016-12-18T09:01:12.000Z</time>
      </trkpt>
      <trkpt lat="47.46299" lon="6.74829">
        <ele>393</ele>
        <time>2016-12-18T09:01:13.000Z</time>
      </trkpt>
      <trkpt lat="47.46296" lon="6.74828">
        <ele>393</ele>
        <time>2016-12-18T09:01:14.000Z</time>
      </trkpt>
      <trkpt lat="47.46294" lon="6.74826">
        <ele>393</ele>
        <time>2016-12-18T09:01:15.000Z</time>
      </trkpt>
      <trkpt lat="47.46291" lon="6.74825">
        <ele>394</ele>
        <time>2016-12-18T09:01:16.000Z</time>
      </trkpt>
      <trkpt lat="47.46289" lon="6.74824">
        <ele>394</ele>
        <time>2016-12-18T09:01:17.000Z</time>
      </trkpt>
      <trkpt lat="47.46287" lon="6.74822">
        <ele>394</ele>
        <time>2016-12-18T09:01:18.000Z</time>
      </trkpt>
      <trkpt lat="47.46283" lon="6.74821">
        <ele>394</ele>
        <time>2016-12-18T09:01:20.000Z</time>
      </trkpt>
      <trkpt lat="47.4628" lon="6.74819">
        <ele>394</ele>
        <time>2016-12-18T09:01:21.000Z</time>
      </trkpt>
      <trkpt lat="47.46278" lon="6.74819">
        <ele>394</ele>
        <time>2016-12-18T09:01:22.000Z</time>
      </trkpt>
      <trkpt lat="47.46275" lon="6.74818">
        <ele>394</ele>
        <time>2016-12-18T09:01:23.000Z</time>
      </trkpt>
      <trkpt lat="47.46273" lon="6.74818">
        <ele>394</ele>
        <time>2016-12-18T09:01:24.000Z</time>
      </trkpt>
      <trkpt lat="47.46271" lon="6.74816">
        <ele>394</ele>
        <time>2016-12-18T09:01:25.000Z</time>
      </trkpt>
      <trkpt lat="47.46269" lon="6.74814">
        <ele>394</ele>
        <time>2016-12-18T09:01:26.000Z</time>
      </trkpt>
      <trkpt lat="47.46266" lon="6.74813">
        <ele>394</ele>
        <time>2016-12-18T09:01:27.000Z</time>
      </trkpt>
      <trkpt lat="47.46263" lon="6.74811">
        <ele>394</ele>
        <time>2016-12-18T09:01:28.000Z</time>
      </trkpt>
      <trkpt lat="47.46261" lon="6.74811">
        <ele>394</ele>
        <time>2016-12-18T09:01:29.000Z</time>
      </trkpt>
      <trkpt lat="47.46257" lon="6.74813">
        <ele>395</ele>
        <time>2016-12-18T09:01:32.000Z</time>
      </trkpt>
      <trkpt lat="47.46255" lon="6.74813">
        <ele>395</ele>
        <time>2016-12-18T09:01:33.000Z</time>
      </trkpt>
      <trkpt lat="47.46253" lon="6.74814">
        <ele>395</ele>
        <time>2016-12-18T09:01:34.000Z</time>
      </trkpt>
      <trkpt lat="47.4625" lon="6.74814">
        <ele>395</ele>
        <time>2016-12-18T09:01:35.000Z</time>
      </trkpt>
      <trkpt lat="47.46248" lon="6.74814">
        <ele>397</ele>
        <time>2016-12-18T09:01:36.000Z</time>
      </trkpt>
      <trkpt lat="47.46244" lon="6.7481">
        <ele>396</ele>
        <time>2016-12-18T09:01:37.000Z</time>
      </trkpt>
      <trkpt lat="47.4624" lon="6.74809">
        <ele>396</ele>
        <time>2016-12-18T09:01:39.000Z</time>
      </trkpt>
      <trkpt lat="47.46238" lon="6.74809">
        <ele>396</ele>
        <time>2016-12-18T09:01:40.000Z</time>
      </trkpt>
      <trkpt lat="47.46235" lon="6.74809">
        <ele>396</ele>
        <time>2016-12-18T09:01:41.000Z</time>
      </trkpt>
      <trkpt lat="47.46233" lon="6.7481">
        <ele>396</ele>
        <time>2016-12-18T09:01:42.000Z</time>
      </trkpt>
      <trkpt lat="47.46231" lon="6.7481">
        <ele>396</ele>
        <time>2016-12-18T09:01:43.000Z</time>
      </trkpt>
      <trkpt lat="47.46229" lon="6.7481">
        <ele>396</ele>
        <time>2016-12-18T09:01:44.000Z</time>
      </trkpt>
      <trkpt lat="47.46224" lon="6.74811">
        <ele>396</ele>
        <time>2016-12-18T09:01:47.000Z</time>
      </trkpt>
      <trkpt lat="47.46224" lon="6.74811">
        <ele>396</ele>
        <time>2016-12-18T09:01:48.000Z</time>
      </trkpt>
      <trkpt lat="47.46221" lon="6.74811">
        <ele>396</ele>
        <time>2016-12-18T09:01:50.000Z</time>
      </trkpt>
      <trkpt lat="47.46218" lon="6.74809">
        <ele>396</ele>
        <time>2016-12-18T09:01:51.000Z</time>
      </trkpt>
      <trkpt lat="47.46214" lon="6.7481">
        <ele>396</ele>
        <time>2016-12-18T09:01:58.000Z</time>
      </trkpt>
      <trkpt lat="47.46214" lon="6.7481">
        <ele>396</ele>
        <time>2016-12-18T09:01:59.000Z</time>
      </trkpt>
      <trkpt lat="47.46212" lon="6.74805">
        <ele>396</ele>
        <time>2016-12-18T09:02:22.000Z</time>
      </trkpt>
      <trkpt lat="47.46212" lon="6.74804">
        <ele>396</ele>
        <time>2016-12-18T09:02:23.000Z</time>
      </trkpt>
      <trkpt lat="47.46209" lon="6.748">
        <ele>396</ele>
        <time>2016-12-18T09:02:34.000Z</time>
      </trkpt>
      <trkpt lat="47.46208" lon="6.748">
        <ele>396</ele>
        <time>2016-12-18T09:02:35.000Z</time>
      </trkpt>
      <trkpt lat="47.46207" lon="6.74794">
        <ele>395</ele>
        <time>2016-12-18T09:04:22.000Z</time>
      </trkpt>
      <trkpt lat="47.46205" lon="6.74793">
        <ele>395</ele>
        <time>2016-12-18T09:04:23.000Z</time>
      </trkpt>
      <trkpt lat="47.46202" lon="6.74792">
        <ele>395</ele>
        <time>2016-12-18T09:04:26.000Z</time>
      </trkpt>
      <trkpt lat="47.462" lon="6.7479">
        <ele>395</ele>
        <time>2016-12-18T09:04:27.000Z</time>
      </trkpt>
      <trkpt lat="47.46198" lon="6.74789">
        <ele>395</ele>
        <time>2016-12-18T09:04:28.000Z</time>
      </trkpt>
      <trkpt lat="47.46195" lon="6.74788">
        <ele>395</ele>
        <time>2016-12-18T09:04:29.000Z</time>
      </trkpt>
      <trkpt lat="47.46193" lon="6.74785">
        <ele>395</ele>
        <time>2016-12-18T09:04:30.000Z</time>
      </trkpt>
      <trkpt lat="47.46191" lon="6.74783">
        <ele>395</ele>
        <time>2016-12-18T09:04:31.000Z</time>
      </trkpt>
      <trkpt lat="47.46189" lon="6.74781">
        <ele>395</ele>
        <time>2016-12-18T09:04:32.000Z</time>
      </trkpt>
      <trkpt lat="47.46187" lon="6.7478">
        <ele>395</ele>
        <time>2016-12-18T09:04:33.000Z</time>
      </trkpt>
      <trkpt lat="47.46185" lon="6.74778">
        <ele>395</ele>
        <time>2016-12-18T09:04:34.000Z</time>
      </trkpt>
      <trkpt lat="47.46183" lon="6.74776">
        <ele>395</ele>
        <time>2016-12-18T09:04:35.000Z</time>
      </trkpt>
      <trkpt lat="47.4618" lon="6.74774">
        <ele>395</ele>
        <time>2016-12-18T09:04:36.000Z</time>
      </trkpt>
      <trkpt lat="47.46178" lon="6.74771">
        <ele>395</ele>
        <time>2016-12-18T09:04:37.000Z</time>
      </trkpt>
      <trkpt lat="47.46175" lon="6.74768">
        <ele>395</ele>
        <time>2016-12-18T09:04:38.000Z</time>
      </trkpt>
      <trkpt lat="47.46172" lon="6.74765">
        <ele>395</ele>
        <time>2016-12-18T09:04:39.000Z</time>
      </trkpt>
      <trkpt lat="47.46169" lon="6.74763">
        <ele>395</ele>
        <time>2016-12-18T09:04:40.000Z</time>
      </trkpt>
      <trkpt lat="47.46166" lon="6.74761">
        <ele>396</ele>
        <time>2016-12-18T09:04:41.000Z</time>
      </trkpt>
      <trkpt lat="47.46163" lon="6.74759">
        <ele>396</ele>
        <time>2016-12-18T09:04:42.000Z</time>
      </trkpt>
      <trkpt lat="47.4616" lon="6.74757">
        <ele>396</ele>
        <time>2016-12-18T09:04:43.000Z</time>
      </trkpt>
      <trkpt lat="47.46157" lon="6.74755">
        <ele>396</ele>
        <time>2016-12-18T09:04:44.000Z</time>
      </trkpt>
      <trkpt lat="47.46155" lon="6.74753">
        <ele>396</ele>
        <time>2016-12-18T09:04:45.000Z</time>
      </trkpt>
      <trkpt lat="47.46152" lon="6.74751">
        <ele>396</ele>
        <time>2016-12-18T09:04:46.000Z</time>
      </trkpt>
      <trkpt lat="47.4615" lon="6.74749">
        <ele>395</ele>
        <time>2016-12-18T09:04:47.000Z</time>
      </trkpt>
      <trkpt lat="47.46146" lon="6.74749">
        <ele>395</ele>
        <time>2016-12-18T09:04:48.000Z</time>
      </trkpt>
      <trkpt lat="47.46143" lon="6.74749">
        <ele>395</ele>
        <time>2016-12-18T09:04:49.000Z</time>
      </trkpt>
      <trkpt lat="47.4614" lon="6.74749">
        <ele>396</ele>
        <time>2016-12-18T09:04:50.000Z</time>
      </trkpt>
      <trkpt lat="47.46138" lon="6.74749">
        <ele>396</ele>
        <time>2016-12-18T09:04:51.000Z</time>
      </trkpt>
      <trkpt lat="47.46134" lon="6.74748">
        <ele>396</ele>
        <time>2016-12-18T09:04:53.000Z</time>
      </trkpt>
      <trkpt lat="47.46132" lon="6.74747">
        <ele>396</ele>
        <time>2016-12-18T09:04:54.000Z</time>
      </trkpt>
      <trkpt lat="47.46128" lon="6.74744">
        <ele>396</ele>
        <time>2016-12-18T09:04:56.000Z</time>
      </trkpt>
      <trkpt lat="47.46126" lon="6.74743">
        <ele>396</ele>
        <time>2016-12-18T09:04:57.000Z</time>
      </trkpt>
      <trkpt lat="47.46123" lon="6.7474">
        <ele>396</ele>
        <time>2016-12-18T09:04:59.000Z</time>
      </trkpt>
      <trkpt lat="47.4612" lon="6.74739">
        <ele>397</ele>
        <time>2016-12-18T09:05:00.000Z</time>
      </trkpt>
      <trkpt lat="47.46116" lon="6.74737">
        <ele>397</ele>
        <time>2016-12-18T09:05:02.000Z</time>
      </trkpt>
      <trkpt lat="47.46113" lon="6.74735">
        <ele>397</ele>
        <time>2016-12-18T09:05:03.000Z</time>
      </trkpt>
      <trkpt lat="47.46111" lon="6.74733">
        <ele>397</ele>
        <time>2016-12-18T09:05:04.000Z</time>
      </trkpt>
      <trkpt lat="47.46108" lon="6.74732">
        <ele>397</ele>
        <time>2016-12-18T09:05:05.000Z</time>
      </trkpt>
      <trkpt lat="47.46104" lon="6.74731">
        <ele>397</ele>
        <time>2016-12-18T09:05:07.000Z</time>
      </trkpt>
      <trkpt lat="47.46102" lon="6.74731">
        <ele>398</ele>
        <time>2016-12-18T09:05:08.000Z</time>
      </trkpt>
      <trkpt lat="47.46099" lon="6.7473">
        <ele>398</ele>
        <time>2016-12-18T09:05:09.000Z</time>
      </trkpt>
      <trkpt lat="47.46097" lon="6.74729">
        <ele>398</ele>
        <time>2016-12-18T09:05:10.000Z</time>
      </trkpt>
      <trkpt lat="47.46094" lon="6.74726">
        <ele>398</ele>
        <time>2016-12-18T09:05:12.000Z</time>
      </trkpt>
      <trkpt lat="47.46092" lon="6.74726">
        <ele>398</ele>
        <time>2016-12-18T09:05:13.000Z</time>
      </trkpt>
      <trkpt lat="47.46087" lon="6.74725">
        <ele>398</ele>
        <time>2016-12-18T09:05:15.000Z</time>
      </trkpt>
      <trkpt lat="47.46085" lon="6.74723">
        <ele>398</ele>
        <time>2016-12-18T09:05:16.000Z</time>
      </trkpt>
      <trkpt lat="47.46083" lon="6.74724">
        <ele>401</ele>
        <time>2016-12-18T09:05:17.000Z</time>
      </trkpt>
      <trkpt lat="47.4608" lon="6.74723">
        <ele>401</ele>
        <time>2016-12-18T09:05:18.000Z</time>
      </trkpt>
      <trkpt lat="47.46076" lon="6.74721">
        <ele>401</ele>
        <time>2016-12-18T09:05:20.000Z</time>
      </trkpt>
      <trkpt lat="47.46074" lon="6.7472">
        <ele>401</ele>
        <time>2016-12-18T09:05:21.000Z</time>
      </trkpt>
      <trkpt lat="47.46069" lon="6.7472">
        <ele>401</ele>
        <time>2016-12-18T09:05:23.000Z</time>
      </trkpt>
      <trkpt lat="47.46067" lon="6.74719">
        <ele>401</ele>
        <time>2016-12-18T09:05:24.000Z</time>
      </trkpt>
      <trkpt lat="47.46065" lon="6.74718">
        <ele>401</ele>
        <time>2016-12-18T09:05:25.000Z</time>
      </trkpt>
      <trkpt lat="47.46063" lon="6.74716">
        <ele>401</ele>
        <time>2016-12-18T09:05:26.000Z</time>
      </trkpt>
      <trkpt lat="47.46059" lon="6.74714">
        <ele>402</ele>
        <time>2016-12-18T09:05:28.000Z</time>
      </trkpt>
      <trkpt lat="47.46057" lon="6.74713">
        <ele>402</ele>
        <time>2016-12-18T09:05:29.000Z</time>
      </trkpt>
      <trkpt lat="47.46053" lon="6.74711">
        <ele>402</ele>
        <time>2016-12-18T09:05:31.000Z</time>
      </trkpt>
      <trkpt lat="47.4605" lon="6.7471">
        <ele>402</ele>
        <time>2016-12-18T09:05:32.000Z</time>
      </trkpt>
      <trkpt lat="47.46047" lon="6.74708">
        <ele>402</ele>
        <time>2016-12-18T09:05:34.000Z</time>
      </trkpt>
      <trkpt lat="47.46045" lon="6.74708">
        <ele>402</ele>
        <time>2016-12-18T09:05:35.000Z</time>
      </trkpt>
      <trkpt lat="47.46043" lon="6.74706">
        <ele>402</ele>
        <time>2016-12-18T09:05:36.000Z</time>
      </trkpt>
      <trkpt lat="47.46041" lon="6.74703">
        <ele>402</ele>
        <time>2016-12-18T09:05:37.000Z</time>
      </trkpt>
      <trkpt lat="47.46037" lon="6.747">
        <ele>402</ele>
        <time>2016-12-18T09:05:39.000Z</time>
      </trkpt>
      <trkpt lat="47.46035" lon="6.74699">
        <ele>402</ele>
        <time>2016-12-18T09:05:40.000Z</time>
      </trkpt>
      <trkpt lat="47.46031" lon="6.74698">
        <ele>402</ele>
        <time>2016-12-18T09:05:42.000Z</time>
      </trkpt>
      <trkpt lat="47.46029" lon="6.74698">
        <ele>402</ele>
        <time>2016-12-18T09:05:43.000Z</time>
      </trkpt>
      <trkpt lat="47.46027" lon="6.74697">
        <ele>402</ele>
        <time>2016-12-18T09:05:44.000Z</time>
      </trkpt>
      <trkpt lat="47.46024" lon="6.74696">
        <ele>402</ele>
        <time>2016-12-18T09:05:45.000Z</time>
      </trkpt>
      <trkpt lat="47.46022" lon="6.74695">
        <ele>403</ele>
        <time>2016-12-18T09:05:46.000Z</time>
      </trkpt>
      <trkpt lat="47.46019" lon="6.74695">
        <ele>403</ele>
        <time>2016-12-18T09:05:47.000Z</time>
      </trkpt>
      <trkpt lat="47.46017" lon="6.74694">
        <ele>403</ele>
        <time>2016-12-18T09:05:48.000Z</time>
      </trkpt>
      <trkpt lat="47.46014" lon="6.74693">
        <ele>403</ele>
        <time>2016-12-18T09:05:49.000Z</time>
      </trkpt>
      <trkpt lat="47.4601" lon="6.7469">
        <ele>403</ele>
        <time>2016-12-18T09:05:51.000Z</time>
      </trkpt>
      <trkpt lat="47.46008" lon="6.74689">
        <ele>403</ele>
        <time>2016-12-18T09:05:52.000Z</time>
      </trkpt>
      <trkpt lat="47.46005" lon="6.74688">
        <ele>403</ele>
        <time>2016-12-18T09:05:53.000Z</time>
      </trkpt>
      <trkpt lat="47.46003" lon="6.74686">
        <ele>403</ele>
        <time>2016-12-18T09:05:54.000Z</time>
      </trkpt>
      <trkpt lat="47.46001" lon="6.74684">
        <ele>403</ele>
        <time>2016-12-18T09:05:55.000Z</time>
      </trkpt>
      <trkpt lat="47.45999" lon="6.74682">
        <ele>405</ele>
        <time>2016-12-18T09:05:56.000Z</time>
      </trkpt>
      <trkpt lat="47.45996" lon="6.74679">
        <ele>405</ele>
        <time>2016-12-18T09:05:57.000Z</time>
      </trkpt>
      <trkpt lat="47.45995" lon="6.74678">
        <ele>405</ele>
        <time>2016-12-18T09:05:58.000Z</time>
      </trkpt>
      <trkpt lat="47.45991" lon="6.74676">
        <ele>405</ele>
        <time>2016-12-18T09:06:00.000Z</time>
      </trkpt>
      <trkpt lat="47.45988" lon="6.74675">
        <ele>405</ele>
        <time>2016-12-18T09:06:01.000Z</time>
      </trkpt>
      <trkpt lat="47.45986" lon="6.74675">
        <ele>405</ele>
        <time>2016-12-18T09:06:02.000Z</time>
      </trkpt>
      <trkpt lat="47.45984" lon="6.74673">
        <ele>405</ele>
        <time>2016-12-18T09:06:03.000Z</time>
      </trkpt>
      <trkpt lat="47.45981" lon="6.74672">
        <ele>405</ele>
        <time>2016-12-18T09:06:04.000Z</time>
      </trkpt>
      <trkpt lat="47.45979" lon="6.74671">
        <ele>405</ele>
        <time>2016-12-18T09:06:05.000Z</time>
      </trkpt>
      <trkpt lat="47.45976" lon="6.7467">
        <ele>405</ele>
        <time>2016-12-18T09:06:06.000Z</time>
      </trkpt>
      <trkpt lat="47.45973" lon="6.74669">
        <ele>405</ele>
        <time>2016-12-18T09:06:07.000Z</time>
      </trkpt>
      <trkpt lat="47.4597" lon="6.74668">
        <ele>406</ele>
        <time>2016-12-18T09:06:08.000Z</time>
      </trkpt>
      <trkpt lat="47.45968" lon="6.74668">
        <ele>406</ele>
        <time>2016-12-18T09:06:09.000Z</time>
      </trkpt>
      <trkpt lat="47.45966" lon="6.74667">
        <ele>406</ele>
        <time>2016-12-18T09:06:10.000Z</time>
      </trkpt>
      <trkpt lat="47.45963" lon="6.74666">
        <ele>405</ele>
        <time>2016-12-18T09:06:11.000Z</time>
      </trkpt>
      <trkpt lat="47.45961" lon="6.74666">
        <ele>405</ele>
        <time>2016-12-18T09:06:12.000Z</time>
      </trkpt>
      <trkpt lat="47.45959" lon="6.74665">
        <ele>405</ele>
        <time>2016-12-18T09:06:13.000Z</time>
      </trkpt>
      <trkpt lat="47.45956" lon="6.74664">
        <ele>405</ele>
        <time>2016-12-18T09:06:14.000Z</time>
      </trkpt>
      <trkpt lat="47.45953" lon="6.74663">
        <ele>405</ele>
        <time>2016-12-18T09:06:15.000Z</time>
      </trkpt>
      <trkpt lat="47.45949" lon="6.74661">
        <ele>405</ele>
        <time>2016-12-18T09:06:17.000Z</time>
      </trkpt>
      <trkpt lat="47.45946" lon="6.74661">
        <ele>405</ele>
        <time>2016-12-18T09:06:18.000Z</time>
      </trkpt>
      <trkpt lat="47.45941" lon="6.74661">
        <ele>405</ele>
        <time>2016-12-18T09:06:19.000Z</time>
      </trkpt>
      <trkpt lat="47.45937" lon="6.7466">
        <ele>406</ele>
        <time>2016-12-18T09:06:20.000Z</time>
      </trkpt>
      <trkpt lat="47.45933" lon="6.74659">
        <ele>406</ele>
        <time>2016-12-18T09:06:21.000Z</time>
      </trkpt>
      <trkpt lat="47.45929" lon="6.74657">
        <ele>406</ele>
        <time>2016-12-18T09:06:22.000Z</time>
      </trkpt>
      <trkpt lat="47.45923" lon="6.74655">
        <ele>406</ele>
        <time>2016-12-18T09:06:23.000Z</time>
      </trkpt>
      <trkpt lat="47.45918" lon="6.74653">
        <ele>406</ele>
        <time>2016-12-18T09:06:24.000Z</time>
      </trkpt>
      <trkpt lat="47.45912" lon="6.74649">
        <ele>409</ele>
        <time>2016-12-18T09:06:25.000Z</time>
      </trkpt>
      <trkpt lat="47.45909" lon="6.74648">
        <ele>409</ele>
        <time>2016-12-18T09:06:26.000Z</time>
      </trkpt>
      <trkpt lat="47.45905" lon="6.74645">
        <ele>409</ele>
        <time>2016-12-18T09:06:27.000Z</time>
      </trkpt>
      <trkpt lat="47.45903" lon="6.74644">
        <ele>409</ele>
        <time>2016-12-18T09:06:28.000Z</time>
      </trkpt>
      <trkpt lat="47.459" lon="6.74643">
        <ele>409</ele>
        <time>2016-12-18T09:06:29.000Z</time>
      </trkpt>
      <trkpt lat="47.45897" lon="6.74642">
        <ele>409</ele>
        <time>2016-12-18T09:06:30.000Z</time>
      </trkpt>
      <trkpt lat="47.45893" lon="6.7464">
        <ele>409</ele>
        <time>2016-12-18T09:06:31.000Z</time>
      </trkpt>
      <trkpt lat="47.4589" lon="6.74638">
        <ele>409</ele>
        <time>2016-12-18T09:06:32.000Z</time>
      </trkpt>
      <trkpt lat="47.45887" lon="6.74636">
        <ele>409</ele>
        <time>2016-12-18T09:06:33.000Z</time>
      </trkpt>
      <trkpt lat="47.45885" lon="6.74634">
        <ele>409</ele>
        <time>2016-12-18T09:06:34.000Z</time>
      </trkpt>
      <trkpt lat="47.45882" lon="6.74631">
        <ele>410</ele>
        <time>2016-12-18T09:06:35.000Z</time>
      </trkpt>
      <trkpt lat="47.45878" lon="6.74629">
        <ele>410</ele>
        <time>2016-12-18T09:06:36.000Z</time>
      </trkpt>
      <trkpt lat="47.45875" lon="6.74627">
        <ele>410</ele>
        <time>2016-12-18T09:06:37.000Z</time>
      </trkpt>
      <trkpt lat="47.45872" lon="6.74626">
        <ele>410</ele>
        <time>2016-12-18T09:06:38.000Z</time>
      </trkpt>
      <trkpt lat="47.4587" lon="6.74624">
        <ele>410</ele>
        <time>2016-12-18T09:06:39.000Z</time>
      </trkpt>
      <trkpt lat="47.45867" lon="6.7462">
        <ele>410</ele>
        <time>2016-12-18T09:06:41.000Z</time>
      </trkpt>
      <trkpt lat="47.45865" lon="6.74619">
        <ele>410</ele>
        <time>2016-12-18T09:06:42.000Z</time>
      </trkpt>
      <trkpt lat="47.45861" lon="6.74617">
        <ele>410</ele>
        <time>2016-12-18T09:06:44.000Z</time>
      </trkpt>
      <trkpt lat="47.45859" lon="6.74615">
        <ele>410</ele>
        <time>2016-12-18T09:06:45.000Z</time>
      </trkpt>
      <trkpt lat="47.45855" lon="6.74613">
        <ele>411</ele>
        <time>2016-12-18T09:06:47.000Z</time>
      </trkpt>
      <trkpt lat="47.45853" lon="6.74613">
        <ele>411</ele>
        <time>2016-12-18T09:06:48.000Z</time>
      </trkpt>
      <trkpt lat="47.4585" lon="6.74612">
        <ele>411</ele>
        <time>2016-12-18T09:06:49.000Z</time>
      </trkpt>
      <trkpt lat="47.45846" lon="6.74612">
        <ele>411</ele>
        <time>2016-12-18T09:06:50.000Z</time>
      </trkpt>
      <trkpt lat="47.45842" lon="6.74611">
        <ele>411</ele>
        <time>2016-12-18T09:06:52.000Z</time>
      </trkpt>
      <trkpt lat="47.4584" lon="6.7461">
        <ele>411</ele>
        <time>2016-12-18T09:06:53.000Z</time>
      </trkpt>
      <trkpt lat="47.45836" lon="6.74608">
        <ele>411</ele>
        <time>2016-12-18T09:06:55.000Z</time>
      </trkpt>
      <trkpt lat="47.45835" lon="6.74607">
        <ele>411</ele>
        <time>2016-12-18T09:06:56.000Z</time>
      </trkpt>
      <trkpt lat="47.45833" lon="6.74607">
        <ele>416</ele>
        <time>2016-12-18T09:06:57.000Z</time>
      </trkpt>
      <trkpt lat="47.45831" lon="6.74605">
        <ele>416</ele>
        <time>2016-12-18T09:06:58.000Z</time>
      </trkpt>
      <trkpt lat="47.45827" lon="6.74603">
        <ele>416</ele>
        <time>2016-12-18T09:07:00.000Z</time>
      </trkpt>
      <trkpt lat="47.45825" lon="6.74601">
        <ele>416</ele>
        <time>2016-12-18T09:07:01.000Z</time>
      </trkpt>
      <trkpt lat="47.45821" lon="6.74599">
        <ele>416</ele>
        <time>2016-12-18T09:07:03.000Z</time>
      </trkpt>
      <trkpt lat="47.4582" lon="6.74598">
        <ele>416</ele>
        <time>2016-12-18T09:07:04.000Z</time>
      </trkpt>
      <trkpt lat="47.45816" lon="6.74595">
        <ele>416</ele>
        <time>2016-12-18T09:07:06.000Z</time>
      </trkpt>
      <trkpt lat="47.45814" lon="6.74594">
        <ele>416</ele>
        <time>2016-12-18T09:07:07.000Z</time>
      </trkpt>
      <trkpt lat="47.45811" lon="6.74592">
        <ele>416</ele>
        <time>2016-12-18T09:07:09.000Z</time>
      </trkpt>
      <trkpt lat="47.45808" lon="6.7459">
        <ele>417</ele>
        <time>2016-12-18T09:07:10.000Z</time>
      </trkpt>
      <trkpt lat="47.45806" lon="6.7459">
        <ele>417</ele>
        <time>2016-12-18T09:07:11.000Z</time>
      </trkpt>
      <trkpt lat="47.45803" lon="6.74589">
        <ele>417</ele>
        <time>2016-12-18T09:07:12.000Z</time>
      </trkpt>
      <trkpt lat="47.45801" lon="6.74588">
        <ele>417</ele>
        <time>2016-12-18T09:07:13.000Z</time>
      </trkpt>
      <trkpt lat="47.45799" lon="6.74586">
        <ele>417</ele>
        <time>2016-12-18T09:07:14.000Z</time>
      </trkpt>
      <trkpt lat="47.45797" lon="6.74585">
        <ele>418</ele>
        <time>2016-12-18T09:07:15.000Z</time>
      </trkpt>
      <trkpt lat="47.45795" lon="6.74584">
        <ele>418</ele>
        <time>2016-12-18T09:07:16.000Z</time>
      </trkpt>
      <trkpt lat="47.45791" lon="6.74581">
        <ele>417</ele>
        <time>2016-12-18T09:07:18.000Z</time>
      </trkpt>
      <trkpt lat="47.4579" lon="6.74578">
        <ele>417</ele>
        <time>2016-12-18T09:07:19.000Z</time>
      </trkpt>
      <trkpt lat="47.45787" lon="6.74576">
        <ele>417</ele>
        <time>2016-12-18T09:07:21.000Z</time>
      </trkpt>
      <trkpt lat="47.45785" lon="6.74577">
        <ele>417</ele>
        <time>2016-12-18T09:07:22.000Z</time>
      </trkpt>
      <trkpt lat="47.45781" lon="6.74577">
        <ele>418</ele>
        <time>2016-12-18T09:07:24.000Z</time>
      </trkpt>
      <trkpt lat="47.4578" lon="6.74576">
        <ele>418</ele>
        <time>2016-12-18T09:07:25.000Z</time>
      </trkpt>
      <trkpt lat="47.45777" lon="6.74575">
        <ele>418</ele>
        <time>2016-12-18T09:07:27.000Z</time>
      </trkpt>
      <trkpt lat="47.45776" lon="6.74574">
        <ele>418</ele>
        <time>2016-12-18T09:07:28.000Z</time>
      </trkpt>
      <trkpt lat="47.45772" lon="6.74569">
        <ele>418</ele>
        <time>2016-12-18T09:07:31.000Z</time>
      </trkpt>
      <trkpt lat="47.45771" lon="6.74568">
        <ele>418</ele>
        <time>2016-12-18T09:07:32.000Z</time>
      </trkpt>
      <trkpt lat="47.45768" lon="6.74566">
        <ele>418</ele>
        <time>2016-12-18T09:07:33.000Z</time>
      </trkpt>
      <trkpt lat="47.45766" lon="6.74565">
        <ele>419</ele>
        <time>2016-12-18T09:07:34.000Z</time>
      </trkpt>
      <trkpt lat="47.45763" lon="6.74562">
        <ele>419</ele>
        <time>2016-12-18T09:07:36.000Z</time>
      </trkpt>
      <trkpt lat="47.45762" lon="6.74562">
        <ele>419</ele>
        <time>2016-12-18T09:07:37.000Z</time>
      </trkpt>
      <trkpt lat="47.4576" lon="6.74562">
        <ele>419</ele>
        <time>2016-12-18T09:07:39.000Z</time>
      </trkpt>
      <trkpt lat="47.45757" lon="6.74563">
        <ele>419</ele>
        <time>2016-12-18T09:07:40.000Z</time>
      </trkpt>
      <trkpt lat="47.45754" lon="6.74567">
        <ele>420</ele>
        <time>2016-12-18T09:07:42.000Z</time>
      </trkpt>
      <trkpt lat="47.45753" lon="6.74568">
        <ele>420</ele>
        <time>2016-12-18T09:07:43.000Z</time>
      </trkpt>
      <trkpt lat="47.4575" lon="6.7457">
        <ele>420</ele>
        <time>2016-12-18T09:07:44.000Z</time>
      </trkpt>
      <trkpt lat="47.45748" lon="6.74571">
        <ele>425</ele>
        <time>2016-12-18T09:07:45.000Z</time>
      </trkpt>
      <trkpt lat="47.45745" lon="6.74571">
        <ele>425</ele>
        <time>2016-12-18T09:07:46.000Z</time>
      </trkpt>
      <trkpt lat="47.45742" lon="6.74572">
        <ele>425</ele>
        <time>2016-12-18T09:07:47.000Z</time>
      </trkpt>
      <trkpt lat="47.45738" lon="6.74573">
        <ele>425</ele>
        <time>2016-12-18T09:07:48.000Z</time>
      </trkpt>
      <trkpt lat="47.45734" lon="6.74573">
        <ele>426</ele>
        <time>2016-12-18T09:07:49.000Z</time>
      </trkpt>
      <trkpt lat="47.4573" lon="6.74573">
        <ele>426</ele>
        <time>2016-12-18T09:07:50.000Z</time>
      </trkpt>
      <trkpt lat="47.45725" lon="6.74574">
        <ele>426</ele>
        <time>2016-12-18T09:07:51.000Z</time>
      </trkpt>
      <trkpt lat="47.45721" lon="6.74575">
        <ele>427</ele>
        <time>2016-12-18T09:07:52.000Z</time>
      </trkpt>
      <trkpt lat="47.45717" lon="6.74574">
        <ele>427</ele>
        <time>2016-12-18T09:07:53.000Z</time>
      </trkpt>
      <trkpt lat="47.45712" lon="6.74574">
        <ele>428</ele>
        <time>2016-12-18T09:07:54.000Z</time>
      </trkpt>
      <trkpt lat="47.4571" lon="6.74575">
        <ele>428</ele>
        <time>2016-12-18T09:07:55.000Z</time>
      </trkpt>
      <trkpt lat="47.45706" lon="6.74575">
        <ele>428</ele>
        <time>2016-12-18T09:07:56.000Z</time>
      </trkpt>
      <trkpt lat="47.45704" lon="6.74575">
        <ele>428</ele>
        <time>2016-12-18T09:07:57.000Z</time>
      </trkpt>
      <trkpt lat="47.45701" lon="6.74574">
        <ele>429</ele>
        <time>2016-12-18T09:07:58.000Z</time>
      </trkpt>
      <trkpt lat="47.45699" lon="6.74574">
        <ele>429</ele>
        <time>2016-12-18T09:07:59.000Z</time>
      </trkpt>
      <trkpt lat="47.45695" lon="6.74574">
        <ele>429</ele>
        <time>2016-12-18T09:08:02.000Z</time>
      </trkpt>
      <trkpt lat="47.45694" lon="6.74575">
        <ele>429</ele>
        <time>2016-12-18T09:08:03.000Z</time>
      </trkpt>
      <trkpt lat="47.45691" lon="6.74575">
        <ele>430</ele>
        <time>2016-12-18T09:08:05.000Z</time>
      </trkpt>
      <trkpt lat="47.45687" lon="6.74578">
        <ele>430</ele>
        <time>2016-12-18T09:08:06.000Z</time>
      </trkpt>
      <trkpt lat="47.45684" lon="6.74578">
        <ele>430</ele>
        <time>2016-12-18T09:08:09.000Z</time>
      </trkpt>
      <trkpt lat="47.4568" lon="6.7458">
        <ele>431</ele>
        <time>2016-12-18T09:08:10.000Z</time>
      </trkpt>
      <trkpt lat="47.45677" lon="6.7458">
        <ele>431</ele>
        <time>2016-12-18T09:08:13.000Z</time>
      </trkpt>
      <trkpt lat="47.45676" lon="6.7458">
        <ele>431</ele>
        <time>2016-12-18T09:08:14.000Z</time>
      </trkpt>
      <trkpt lat="47.45673" lon="6.7458">
        <ele>432</ele>
        <time>2016-12-18T09:08:16.000Z</time>
      </trkpt>
      <trkpt lat="47.45671" lon="6.74579">
        <ele>432</ele>
        <time>2016-12-18T09:08:17.000Z</time>
      </trkpt>
      <trkpt lat="47.45668" lon="6.74577">
        <ele>432</ele>
        <time>2016-12-18T09:08:19.000Z</time>
      </trkpt>
      <trkpt lat="47.45666" lon="6.74574">
        <ele>434</ele>
        <time>2016-12-18T09:08:20.000Z</time>
      </trkpt>
      <trkpt lat="47.45663" lon="6.74571">
        <ele>434</ele>
        <time>2016-12-18T09:08:22.000Z</time>
      </trkpt>
      <trkpt lat="47.45661" lon="6.74569">
        <ele>434</ele>
        <time>2016-12-18T09:08:23.000Z</time>
      </trkpt>
      <trkpt lat="47.45658" lon="6.74569">
        <ele>434</ele>
        <time>2016-12-18T09:08:25.000Z</time>
      </trkpt>
      <trkpt lat="47.45656" lon="6.74569">
        <ele>434</ele>
        <time>2016-12-18T09:08:26.000Z</time>
      </trkpt>
      <trkpt lat="47.45652" lon="6.74568">
        <ele>435</ele>
        <time>2016-12-18T09:08:30.000Z</time>
      </trkpt>
      <trkpt lat="47.45651" lon="6.74567">
        <ele>435</ele>
        <time>2016-12-18T09:08:31.000Z</time>
      </trkpt>
      <trkpt lat="47.45647" lon="6.74565">
        <ele>435</ele>
        <time>2016-12-18T09:08:38.000Z</time>
      </trkpt>
      <trkpt lat="47.45647" lon="6.74565">
        <ele>435</ele>
        <time>2016-12-18T09:08:39.000Z</time>
      </trkpt>
      <trkpt lat="47.45646" lon="6.74571">
        <ele>435</ele>
        <time>2016-12-18T09:08:58.000Z</time>
      </trkpt>
      <trkpt lat="47.45647" lon="6.74574">
        <ele>435</ele>
        <time>2016-12-18T09:08:59.000Z</time>
      </trkpt>
      <trkpt lat="47.4565" lon="6.74575">
        <ele>434</ele>
        <time>2016-12-18T09:09:00.000Z</time>
      </trkpt>
      <trkpt lat="47.45653" lon="6.74576">
        <ele>434</ele>
        <time>2016-12-18T09:09:01.000Z</time>
      </trkpt>
      <trkpt lat="47.45656" lon="6.74578">
        <ele>434</ele>
        <time>2016-12-18T09:09:02.000Z</time>
      </trkpt>
      <trkpt lat="47.45658" lon="6.74582">
        <ele>434</ele>
        <time>2016-12-18T09:09:03.000Z</time>
      </trkpt>
      <trkpt lat="47.4566" lon="6.74585">
        <ele>433</ele>
        <time>2016-12-18T09:09:04.000Z</time>
      </trkpt>
      <trkpt lat="47.45661" lon="6.74592">
        <ele>432</ele>
        <time>2016-12-18T09:09:05.000Z</time>
      </trkpt>
      <trkpt lat="47.45662" lon="6.74596">
        <ele>432</ele>
        <time>2016-12-18T09:09:06.000Z</time>
      </trkpt>
      <trkpt lat="47.45663" lon="6.74598">
        <ele>432</ele>
        <time>2016-12-18T09:09:07.000Z</time>
      </trkpt>
      <trkpt lat="47.45664" lon="6.74602">
        <ele>432</ele>
        <time>2016-12-18T09:09:08.000Z</time>
      </trkpt>
      <trkpt lat="47.45664" lon="6.74606">
        <ele>432</ele>
        <time>2016-12-18T09:09:09.000Z</time>
      </trkpt>
      <trkpt lat="47.45662" lon="6.74611">
        <ele>432</ele>
        <time>2016-12-18T09:09:11.000Z</time>
      </trkpt>
      <trkpt lat="47.45658" lon="6.74624">
        <ele>431</ele>
        <time>2016-12-18T09:09:12.000Z</time>
      </trkpt>
      <trkpt lat="47.45657" lon="6.74628">
        <ele>431</ele>
        <time>2016-12-18T09:09:13.000Z</time>
      </trkpt>
      <trkpt lat="47.45655" lon="6.74632">
        <ele>431</ele>
        <time>2016-12-18T09:09:14.000Z</time>
      </trkpt>
      <trkpt lat="47.45653" lon="6.74637">
        <ele>431</ele>
        <time>2016-12-18T09:09:16.000Z</time>
      </trkpt>
      <trkpt lat="47.45651" lon="6.7464">
        <ele>430</ele>
        <time>2016-12-18T09:09:17.000Z</time>
      </trkpt>
      <trkpt lat="47.45649" lon="6.74645">
        <ele>430</ele>
        <time>2016-12-18T09:09:18.000Z</time>
      </trkpt>
      <trkpt lat="47.45648" lon="6.74648">
        <ele>430</ele>
        <time>2016-12-18T09:09:19.000Z</time>
      </trkpt>
      <trkpt lat="47.45645" lon="6.74652">
        <ele>430</ele>
        <time>2016-12-18T09:09:20.000Z</time>
      </trkpt>
      <trkpt lat="47.45642" lon="6.74658">
        <ele>430</ele>
        <time>2016-12-18T09:09:21.000Z</time>
      </trkpt>
      <trkpt lat="47.45639" lon="6.7466">
        <ele>430</ele>
        <time>2016-12-18T09:09:22.000Z</time>
      </trkpt>
      <trkpt lat="47.45636" lon="6.74662">
        <ele>430</ele>
        <time>2016-12-18T09:09:23.000Z</time>
      </trkpt>
      <trkpt lat="47.45634" lon="6.74663">
        <ele>430</ele>
        <time>2016-12-18T09:09:24.000Z</time>
      </trkpt>
      <trkpt lat="47.45631" lon="6.74666">
        <ele>430</ele>
        <time>2016-12-18T09:09:25.000Z</time>
      </trkpt>
      <trkpt lat="47.45628" lon="6.74667">
        <ele>427</ele>
        <time>2016-12-18T09:09:26.000Z</time>
      </trkpt>
      <trkpt lat="47.45625" lon="6.74669">
        <ele>427</ele>
        <time>2016-12-18T09:09:27.000Z</time>
      </trkpt>
      <trkpt lat="47.45622" lon="6.74671">
        <ele>427</ele>
        <time>2016-12-18T09:09:28.000Z</time>
      </trkpt>
      <trkpt lat="47.4562" lon="6.74673">
        <ele>427</ele>
        <time>2016-12-18T09:09:29.000Z</time>
      </trkpt>
      <trkpt lat="47.45618" lon="6.74675">
        <ele>427</ele>
        <time>2016-12-18T09:09:30.000Z</time>
      </trkpt>
      <trkpt lat="47.45615" lon="6.74676">
        <ele>427</ele>
        <time>2016-12-18T09:09:31.000Z</time>
      </trkpt>
      <trkpt lat="47.45611" lon="6.7468">
        <ele>426</ele>
        <time>2016-12-18T09:09:32.000Z</time>
      </trkpt>
      <trkpt lat="47.45608" lon="6.74685">
        <ele>426</ele>
        <time>2016-12-18T09:09:33.000Z</time>
      </trkpt>
      <trkpt lat="47.45605" lon="6.74687">
        <ele>426</ele>
        <time>2016-12-18T09:09:34.000Z</time>
      </trkpt>
      <trkpt lat="47.45601" lon="6.7469">
        <ele>426</ele>
        <time>2016-12-18T09:09:35.000Z</time>
      </trkpt>
      <trkpt lat="47.45596" lon="6.74694">
        <ele>426</ele>
        <time>2016-12-18T09:09:36.000Z</time>
      </trkpt>
      <trkpt lat="47.45592" lon="6.74698">
        <ele>426</ele>
        <time>2016-12-18T09:09:37.000Z</time>
      </trkpt>
      <trkpt lat="47.45589" lon="6.747">
        <ele>426</ele>
        <time>2016-12-18T09:09:38.000Z</time>
      </trkpt>
      <trkpt lat="47.45585" lon="6.74703">
        <ele>426</ele>
        <time>2016-12-18T09:09:39.000Z</time>
      </trkpt>
      <trkpt lat="47.45584" lon="6.74705">
        <ele>426</ele>
        <time>2016-12-18T09:09:40.000Z</time>
      </trkpt>
      <trkpt lat="47.45582" lon="6.74709">
        <ele>423</ele>
        <time>2016-12-18T09:09:41.000Z</time>
      </trkpt>
      <trkpt lat="47.4558" lon="6.74711">
        <ele>422</ele>
        <time>2016-12-18T09:09:42.000Z</time>
      </trkpt>
      <trkpt lat="47.45577" lon="6.74713">
        <ele>422</ele>
        <time>2016-12-18T09:09:43.000Z</time>
      </trkpt>
      <trkpt lat="47.45574" lon="6.74715">
        <ele>422</ele>
        <time>2016-12-18T09:09:44.000Z</time>
      </trkpt>
      <trkpt lat="47.45569" lon="6.74718">
        <ele>422</ele>
        <time>2016-12-18T09:09:45.000Z</time>
      </trkpt>
      <trkpt lat="47.45565" lon="6.74718">
        <ele>422</ele>
        <time>2016-12-18T09:09:46.000Z</time>
      </trkpt>
      <trkpt lat="47.45561" lon="6.7472">
        <ele>422</ele>
        <time>2016-12-18T09:09:47.000Z</time>
      </trkpt>
      <trkpt lat="47.45557" lon="6.74722">
        <ele>422</ele>
        <time>2016-12-18T09:09:48.000Z</time>
      </trkpt>
      <trkpt lat="47.45553" lon="6.74724">
        <ele>421</ele>
        <time>2016-12-18T09:09:49.000Z</time>
      </trkpt>
      <trkpt lat="47.45548" lon="6.74727">
        <ele>421</ele>
        <time>2016-12-18T09:09:50.000Z</time>
      </trkpt>
      <trkpt lat="47.45543" lon="6.7473">
        <ele>421</ele>
        <time>2016-12-18T09:09:51.000Z</time>
      </trkpt>
      <trkpt lat="47.45538" lon="6.74734">
        <ele>421</ele>
        <time>2016-12-18T09:09:52.000Z</time>
      </trkpt>
      <trkpt lat="47.45532" lon="6.74736">
        <ele>420</ele>
        <time>2016-12-18T09:09:53.000Z</time>
      </trkpt>
      <trkpt lat="47.45529" lon="6.7474">
        <ele>420</ele>
        <time>2016-12-18T09:09:54.000Z</time>
      </trkpt>
      <trkpt lat="47.45525" lon="6.74744">
        <ele>420</ele>
        <time>2016-12-18T09:09:55.000Z</time>
      </trkpt>
      <trkpt lat="47.45522" lon="6.74746">
        <ele>419</ele>
        <time>2016-12-18T09:09:56.000Z</time>
      </trkpt>
      <trkpt lat="47.45517" lon="6.74749">
        <ele>419</ele>
        <time>2016-12-18T09:09:57.000Z</time>
      </trkpt>
      <trkpt lat="47.45512" lon="6.74753">
        <ele>416</ele>
        <time>2016-12-18T09:09:58.000Z</time>
      </trkpt>
      <trkpt lat="47.45508" lon="6.74758">
        <ele>416</ele>
        <time>2016-12-18T09:09:59.000Z</time>
      </trkpt>
      <trkpt lat="47.45504" lon="6.74763">
        <ele>416</ele>
        <time>2016-12-18T09:10:00.000Z</time>
      </trkpt>
      <trkpt lat="47.45499" lon="6.74768">
        <ele>412</ele>
        <time>2016-12-18T09:10:01.000Z</time>
      </trkpt>
      <trkpt lat="47.45494" lon="6.74773">
        <ele>411</ele>
        <time>2016-12-18T09:10:02.000Z</time>
      </trkpt>
      <trkpt lat="47.4549" lon="6.74777">
        <ele>411</ele>
        <time>2016-12-18T09:10:03.000Z</time>
      </trkpt>
      <trkpt lat="47.45485" lon="6.74783">
        <ele>410</ele>
        <time>2016-12-18T09:10:04.000Z</time>
      </trkpt>
      <trkpt lat="47.45479" lon="6.74786">
        <ele>409</ele>
        <time>2016-12-18T09:10:05.000Z</time>
      </trkpt>
      <trkpt lat="47.45473" lon="6.74791">
        <ele>409</ele>
        <time>2016-12-18T09:10:06.000Z</time>
      </trkpt>
      <trkpt lat="47.45468" lon="6.74797">
        <ele>408</ele>
        <time>2016-12-18T09:10:07.000Z</time>
      </trkpt>
      <trkpt lat="47.45463" lon="6.74802">
        <ele>408</ele>
        <time>2016-12-18T09:10:08.000Z</time>
      </trkpt>
      <trkpt lat="47.45457" lon="6.74805">
        <ele>407</ele>
        <time>2016-12-18T09:10:09.000Z</time>
      </trkpt>
      <trkpt lat="47.45453" lon="6.74809">
        <ele>407</ele>
        <time>2016-12-18T09:10:10.000Z</time>
      </trkpt>
      <trkpt lat="47.45448" lon="6.74813">
        <ele>406</ele>
        <time>2016-12-18T09:10:11.000Z</time>
      </trkpt>
      <trkpt lat="47.45444" lon="6.74816">
        <ele>406</ele>
        <time>2016-12-18T09:10:12.000Z</time>
      </trkpt>
      <trkpt lat="47.4544" lon="6.74818">
        <ele>405</ele>
        <time>2016-12-18T09:10:13.000Z</time>
      </trkpt>
      <trkpt lat="47.45436" lon="6.74821">
        <ele>404</ele>
        <time>2016-12-18T09:10:14.000Z</time>
      </trkpt>
      <trkpt lat="47.45431" lon="6.74824">
        <ele>403</ele>
        <time>2016-12-18T09:10:15.000Z</time>
      </trkpt>
      <trkpt lat="47.45428" lon="6.74825">
        <ele>403</ele>
        <time>2016-12-18T09:10:16.000Z</time>
      </trkpt>
      <trkpt lat="47.45425" lon="6.74828">
        <ele>402</ele>
        <time>2016-12-18T09:10:17.000Z</time>
      </trkpt>
      <trkpt lat="47.45422" lon="6.74831">
        <ele>401</ele>
        <time>2016-12-18T09:10:18.000Z</time>
      </trkpt>
      <trkpt lat="47.45419" lon="6.74833">
        <ele>400</ele>
        <time>2016-12-18T09:10:19.000Z</time>
      </trkpt>
      <trkpt lat="47.45416" lon="6.74836">
        <ele>398</ele>
        <time>2016-12-18T09:10:21.000Z</time>
      </trkpt>
      <trkpt lat="47.45415" lon="6.74837">
        <ele>397</ele>
        <time>2016-12-18T09:10:22.000Z</time>
      </trkpt>
      <trkpt lat="47.4541" lon="6.74839">
        <ele>396</ele>
        <time>2016-12-18T09:10:24.000Z</time>
      </trkpt>
      <trkpt lat="47.45409" lon="6.7484">
        <ele>395</ele>
        <time>2016-12-18T09:10:25.000Z</time>
      </trkpt>
      <trkpt lat="47.45407" lon="6.74842">
        <ele>394</ele>
        <time>2016-12-18T09:10:26.000Z</time>
      </trkpt>
      <trkpt lat="47.45405" lon="6.74844">
        <ele>394</ele>
        <time>2016-12-18T09:10:27.000Z</time>
      </trkpt>
      <trkpt lat="47.45402" lon="6.74847">
        <ele>393</ele>
        <time>2016-12-18T09:10:29.000Z</time>
      </trkpt>
      <trkpt lat="47.45399" lon="6.74851">
        <ele>392</ele>
        <time>2016-12-18T09:10:30.000Z</time>
      </trkpt>
      <trkpt lat="47.45396" lon="6.74853">
        <ele>391</ele>
        <time>2016-12-18T09:10:31.000Z</time>
      </trkpt>
      <trkpt lat="47.45392" lon="6.74858">
        <ele>390</ele>
        <time>2016-12-18T09:10:32.000Z</time>
      </trkpt>
      <trkpt lat="47.45389" lon="6.74861">
        <ele>390</ele>
        <time>2016-12-18T09:10:33.000Z</time>
      </trkpt>
      <trkpt lat="47.45384" lon="6.74862">
        <ele>389</ele>
        <time>2016-12-18T09:10:34.000Z</time>
      </trkpt>
      <trkpt lat="47.45381" lon="6.74864">
        <ele>389</ele>
        <time>2016-12-18T09:10:35.000Z</time>
      </trkpt>
      <trkpt lat="47.45378" lon="6.74866">
        <ele>388</ele>
        <time>2016-12-18T09:10:36.000Z</time>
      </trkpt>
      <trkpt lat="47.45375" lon="6.74869">
        <ele>388</ele>
        <time>2016-12-18T09:10:37.000Z</time>
      </trkpt>
      <trkpt lat="47.45374" lon="6.7487">
        <ele>388</ele>
        <time>2016-12-18T09:10:38.000Z</time>
      </trkpt>
      <trkpt lat="47.4537" lon="6.74874">
        <ele>387</ele>
        <time>2016-12-18T09:10:44.000Z</time>
      </trkpt>
      <trkpt lat="47.4537" lon="6.74874">
        <ele>387</ele>
        <time>2016-12-18T09:10:45.000Z</time>
      </trkpt>
      <trkpt lat="47.45369" lon="6.7488">
        <ele>387</ele>
        <time>2016-12-18T09:10:52.000Z</time>
      </trkpt>
      <trkpt lat="47.45368" lon="6.74881">
        <ele>387</ele>
        <time>2016-12-18T09:10:53.000Z</time>
      </trkpt>
      <trkpt lat="47.45365" lon="6.74886">
        <ele>386</ele>
        <time>2016-12-18T09:11:01.000Z</time>
      </trkpt>
      <trkpt lat="47.45365" lon="6.74886">
        <ele>386</ele>
        <time>2016-12-18T09:11:02.000Z</time>
      </trkpt>
      <trkpt lat="47.45368" lon="6.74882">
        <ele>387</ele>
        <time>2016-12-18T09:11:16.000Z</time>
      </trkpt>
      <trkpt lat="47.45368" lon="6.74881">
        <ele>387</ele>
        <time>2016-12-18T09:11:17.000Z</time>
      </trkpt>
      <trkpt lat="47.45364" lon="6.74881">
        <ele>387</ele>
        <time>2016-12-18T09:11:37.000Z</time>
      </trkpt>
      <trkpt lat="47.45364" lon="6.74882">
        <ele>386</ele>
        <time>2016-12-18T09:11:38.000Z</time>
      </trkpt>
      <trkpt lat="47.45361" lon="6.74881">
        <ele>386</ele>
        <time>2016-12-18T09:11:59.000Z</time>
      </trkpt>
      <trkpt lat="47.45359" lon="6.74882">
        <ele>386</ele>
        <time>2016-12-18T09:12:00.000Z</time>
      </trkpt>
      <trkpt lat="47.45356" lon="6.74885">
        <ele>386</ele>
        <time>2016-12-18T09:12:01.000Z</time>
      </trkpt>
      <trkpt lat="47.45353" lon="6.74887">
        <ele>385</ele>
        <time>2016-12-18T09:12:02.000Z</time>
      </trkpt>
      <trkpt lat="47.45349" lon="6.7489">
        <ele>385</ele>
        <time>2016-12-18T09:12:03.000Z</time>
      </trkpt>
      <trkpt lat="47.45345" lon="6.74892">
        <ele>384</ele>
        <time>2016-12-18T09:12:04.000Z</time>
      </trkpt>
      <trkpt lat="47.45341" lon="6.74895">
        <ele>384</ele>
        <time>2016-12-18T09:12:05.000Z</time>
      </trkpt>
      <trkpt lat="47.45336" lon="6.74898">
        <ele>383</ele>
        <time>2016-12-18T09:12:06.000Z</time>
      </trkpt>
      <trkpt lat="47.4533" lon="6.74902">
        <ele>376</ele>
        <time>2016-12-18T09:12:07.000Z</time>
      </trkpt>
      <trkpt lat="47.45326" lon="6.74907">
        <ele>376</ele>
        <time>2016-12-18T09:12:08.000Z</time>
      </trkpt>
      <trkpt lat="47.45318" lon="6.74918">
        <ele>375</ele>
        <time>2016-12-18T09:12:09.000Z</time>
      </trkpt>
      <trkpt lat="47.45313" lon="6.74921">
        <ele>374</ele>
        <time>2016-12-18T09:12:10.000Z</time>
      </trkpt>
      <trkpt lat="47.45304" lon="6.74925">
        <ele>373</ele>
        <time>2016-12-18T09:12:11.000Z</time>
      </trkpt>
      <trkpt lat="47.45295" lon="6.74931">
        <ele>372</ele>
        <time>2016-12-18T09:12:12.000Z</time>
      </trkpt>
      <trkpt lat="47.45288" lon="6.74939">
        <ele>371</ele>
        <time>2016-12-18T09:12:13.000Z</time>
      </trkpt>
      <trkpt lat="47.45281" lon="6.7494">
        <ele>370</ele>
        <time>2016-12-18T09:12:14.000Z</time>
      </trkpt>
      <trkpt lat="47.45278" lon="6.74936">
        <ele>370</ele>
        <time>2016-12-18T09:12:15.000Z</time>
      </trkpt>
      <trkpt lat="47.45276" lon="6.74937">
        <ele>370</ele>
        <time>2016-12-18T09:12:16.000Z</time>
      </trkpt>
      <trkpt lat="47.45276" lon="6.74941">
        <ele>370</ele>
        <time>2016-12-18T09:12:17.000Z</time>
      </trkpt>
      <trkpt lat="47.45274" lon="6.74945">
        <ele>370</ele>
        <time>2016-12-18T09:12:18.000Z</time>
      </trkpt>
      <trkpt lat="47.45272" lon="6.7495">
        <ele>370</ele>
        <time>2016-12-18T09:12:19.000Z</time>
      </trkpt>
      <trkpt lat="47.4527" lon="6.74954">
        <ele>369</ele>
        <time>2016-12-18T09:12:20.000Z</time>
      </trkpt>
      <trkpt lat="47.45266" lon="6.74957">
        <ele>369</ele>
        <time>2016-12-18T09:12:21.000Z</time>
      </trkpt>
      <trkpt lat="47.45263" lon="6.74959">
        <ele>369</ele>
        <time>2016-12-18T09:12:22.000Z</time>
      </trkpt>
      <trkpt lat="47.4526" lon="6.7496">
        <ele>369</ele>
        <time>2016-12-18T09:12:23.000Z</time>
      </trkpt>
      <trkpt lat="47.45257" lon="6.7496">
        <ele>369</ele>
        <time>2016-12-18T09:12:24.000Z</time>
      </trkpt>
      <trkpt lat="47.45252" lon="6.74962">
        <ele>368</ele>
        <time>2016-12-18T09:12:25.000Z</time>
      </trkpt>
      <trkpt lat="47.45248" lon="6.74962">
        <ele>367</ele>
        <time>2016-12-18T09:12:30.000Z</time>
      </trkpt>
      <trkpt lat="47.45247" lon="6.74961">
        <ele>367</ele>
        <time>2016-12-18T09:12:31.000Z</time>
      </trkpt>
      <trkpt lat="47.45245" lon="6.74956">
        <ele>367</ele>
        <time>2016-12-18T09:12:34.000Z</time>
      </trkpt>
      <trkpt lat="47.45245" lon="6.74955">
        <ele>367</ele>
        <time>2016-12-18T09:12:35.000Z</time>
      </trkpt>
      <trkpt lat="47.45245" lon="6.74952">
        <ele>367</ele>
        <time>2016-12-18T09:12:42.000Z</time>
      </trkpt>
      <trkpt lat="47.45245" lon="6.74943">
        <ele>368</ele>
        <time>2016-12-18T09:12:43.000Z</time>
      </trkpt>
      <trkpt lat="47.45244" lon="6.74938">
        <ele>368</ele>
        <time>2016-12-18T09:12:45.000Z</time>
      </trkpt>
      <trkpt lat="47.45243" lon="6.74936">
        <ele>368</ele>
        <time>2016-12-18T09:12:46.000Z</time>
      </trkpt>
      <trkpt lat="47.45244" lon="6.74931">
        <ele>368</ele>
        <time>2016-12-18T09:12:48.000Z</time>
      </trkpt>
      <trkpt lat="47.45244" lon="6.74929">
        <ele>367</ele>
        <time>2016-12-18T09:12:49.000Z</time>
      </trkpt>
      <trkpt lat="47.45246" lon="6.74924">
        <ele>367</ele>
        <time>2016-12-18T09:12:51.000Z</time>
      </trkpt>
      <trkpt lat="47.45246" lon="6.74921">
        <ele>367</ele>
        <time>2016-12-18T09:12:52.000Z</time>
      </trkpt>
      <trkpt lat="47.45246" lon="6.74915">
        <ele>368</ele>
        <time>2016-12-18T09:12:54.000Z</time>
      </trkpt>
      <trkpt lat="47.45246" lon="6.74912">
        <ele>368</ele>
        <time>2016-12-18T09:12:55.000Z</time>
      </trkpt>
      <trkpt lat="47.45246" lon="6.74906">
        <ele>368</ele>
        <time>2016-12-18T09:12:58.000Z</time>
      </trkpt>
      <trkpt lat="47.45246" lon="6.74903">
        <ele>368</ele>
        <time>2016-12-18T09:12:59.000Z</time>
      </trkpt>
      <trkpt lat="47.45246" lon="6.74898">
        <ele>369</ele>
        <time>2016-12-18T09:13:00.000Z</time>
      </trkpt>
      <trkpt lat="47.45245" lon="6.74892">
        <ele>369</ele>
        <time>2016-12-18T09:13:01.000Z</time>
      </trkpt>
      <trkpt lat="47.45244" lon="6.74888">
        <ele>369</ele>
        <time>2016-12-18T09:13:02.000Z</time>
      </trkpt>
      <trkpt lat="47.45244" lon="6.74883">
        <ele>369</ele>
        <time>2016-12-18T09:13:03.000Z</time>
      </trkpt>
      <trkpt lat="47.45243" lon="6.74877">
        <ele>369</ele>
        <time>2016-12-18T09:13:05.000Z</time>
      </trkpt>
      <trkpt lat="47.45243" lon="6.74875">
        <ele>369</ele>
        <time>2016-12-18T09:13:06.000Z</time>
      </trkpt>
      <trkpt lat="47.45242" lon="6.74869">
        <ele>370</ele>
        <time>2016-12-18T09:13:09.000Z</time>
      </trkpt>
      <trkpt lat="47.45241" lon="6.74866">
        <ele>370</ele>
        <time>2016-12-18T09:13:10.000Z</time>
      </trkpt>
      <trkpt lat="47.45238" lon="6.74862">
        <ele>370</ele>
        <time>2016-12-18T09:13:13.000Z</time>
      </trkpt>
      <trkpt lat="47.45236" lon="6.7486">
        <ele>370</ele>
        <time>2016-12-18T09:13:14.000Z</time>
      </trkpt>
      <trkpt lat="47.45234" lon="6.74856">
        <ele>370</ele>
        <time>2016-12-18T09:13:19.000Z</time>
      </trkpt>
      <trkpt lat="47.45232" lon="6.74853">
        <ele>370</ele>
        <time>2016-12-18T09:13:20.000Z</time>
      </trkpt>
      <trkpt lat="47.4523" lon="6.74849">
        <ele>370</ele>
        <time>2016-12-18T09:13:22.000Z</time>
      </trkpt>
      <trkpt lat="47.45228" lon="6.74848">
        <ele>370</ele>
        <time>2016-12-18T09:13:23.000Z</time>
      </trkpt>
      <trkpt lat="47.45225" lon="6.74842">
        <ele>370</ele>
        <time>2016-12-18T09:13:25.000Z</time>
      </trkpt>
      <trkpt lat="47.45224" lon="6.74839">
        <ele>370</ele>
        <time>2016-12-18T09:13:26.000Z</time>
      </trkpt>
      <trkpt lat="47.45222" lon="6.74834">
        <ele>370</ele>
        <time>2016-12-18T09:13:28.000Z</time>
      </trkpt>
      <trkpt lat="47.45221" lon="6.7483">
        <ele>371</ele>
        <time>2016-12-18T09:13:29.000Z</time>
      </trkpt>
      <trkpt lat="47.45219" lon="6.74827">
        <ele>371</ele>
        <time>2016-12-18T09:13:30.000Z</time>
      </trkpt>
      <trkpt lat="47.45218" lon="6.74824">
        <ele>372</ele>
        <time>2016-12-18T09:13:31.000Z</time>
      </trkpt>
      <trkpt lat="47.45216" lon="6.74822">
        <ele>372</ele>
        <time>2016-12-18T09:13:32.000Z</time>
      </trkpt>
      <trkpt lat="47.45214" lon="6.7482">
        <ele>372</ele>
        <time>2016-12-18T09:13:33.000Z</time>
      </trkpt>
      <trkpt lat="47.45212" lon="6.74816">
        <ele>372</ele>
        <time>2016-12-18T09:13:35.000Z</time>
      </trkpt>
      <trkpt lat="47.45211" lon="6.74815">
        <ele>372</ele>
        <time>2016-12-18T09:13:36.000Z</time>
      </trkpt>
      <trkpt lat="47.45208" lon="6.74809">
        <ele>372</ele>
        <time>2016-12-18T09:13:38.000Z</time>
      </trkpt>
      <trkpt lat="47.45207" lon="6.74806">
        <ele>372</ele>
        <time>2016-12-18T09:13:39.000Z</time>
      </trkpt>
      <trkpt lat="47.45205" lon="6.74803">
        <ele>372</ele>
        <time>2016-12-18T09:13:40.000Z</time>
      </trkpt>
      <trkpt lat="47.45203" lon="6.748">
        <ele>372</ele>
        <time>2016-12-18T09:13:41.000Z</time>
      </trkpt>
      <trkpt lat="47.45201" lon="6.74797">
        <ele>372</ele>
        <time>2016-12-18T09:13:42.000Z</time>
      </trkpt>
      <trkpt lat="47.45199" lon="6.74793">
        <ele>373</ele>
        <time>2016-12-18T09:13:43.000Z</time>
      </trkpt>
      <trkpt lat="47.45197" lon="6.74788">
        <ele>373</ele>
        <time>2016-12-18T09:13:44.000Z</time>
      </trkpt>
      <trkpt lat="47.45194" lon="6.74784">
        <ele>373</ele>
        <time>2016-12-18T09:13:45.000Z</time>
      </trkpt>
      <trkpt lat="47.45193" lon="6.74779">
        <ele>373</ele>
        <time>2016-12-18T09:13:46.000Z</time>
      </trkpt>
      <trkpt lat="47.45192" lon="6.74776">
        <ele>373</ele>
        <time>2016-12-18T09:13:47.000Z</time>
      </trkpt>
      <trkpt lat="47.4519" lon="6.74771">
        <ele>373</ele>
        <time>2016-12-18T09:13:48.000Z</time>
      </trkpt>
      <trkpt lat="47.45189" lon="6.74767">
        <ele>373</ele>
        <time>2016-12-18T09:13:49.000Z</time>
      </trkpt>
      <trkpt lat="47.45187" lon="6.74764">
        <ele>373</ele>
        <time>2016-12-18T09:13:50.000Z</time>
      </trkpt>
      <trkpt lat="47.45186" lon="6.7476">
        <ele>373</ele>
        <time>2016-12-18T09:13:51.000Z</time>
      </trkpt>
      <trkpt lat="47.45184" lon="6.74757">
        <ele>373</ele>
        <time>2016-12-18T09:13:52.000Z</time>
      </trkpt>
      <trkpt lat="47.45183" lon="6.74754">
        <ele>373</ele>
        <time>2016-12-18T09:13:53.000Z</time>
      </trkpt>
      <trkpt lat="47.4518" lon="6.74749">
        <ele>374</ele>
        <time>2016-12-18T09:13:54.000Z</time>
      </trkpt>
      <trkpt lat="47.45178" lon="6.74748">
        <ele>374</ele>
        <time>2016-12-18T09:13:55.000Z</time>
      </trkpt>
      <trkpt lat="47.45175" lon="6.74746">
        <ele>374</ele>
        <time>2016-12-18T09:13:56.000Z</time>
      </trkpt>
      <trkpt lat="47.45174" lon="6.74743">
        <ele>374</ele>
        <time>2016-12-18T09:13:57.000Z</time>
      </trkpt>
      <trkpt lat="47.45171" lon="6.74739">
        <ele>374</ele>
        <time>2016-12-18T09:13:58.000Z</time>
      </trkpt>
      <trkpt lat="47.45169" lon="6.74737">
        <ele>374</ele>
        <time>2016-12-18T09:13:59.000Z</time>
      </trkpt>
      <trkpt lat="47.45166" lon="6.74733">
        <ele>375</ele>
        <time>2016-12-18T09:14:00.000Z</time>
      </trkpt>
      <trkpt lat="47.45163" lon="6.74731">
        <ele>375</ele>
        <time>2016-12-18T09:14:01.000Z</time>
      </trkpt>
      <trkpt lat="47.45159" lon="6.74729">
        <ele>375</ele>
        <time>2016-12-18T09:14:02.000Z</time>
      </trkpt>
      <trkpt lat="47.45157" lon="6.74726">
        <ele>375</ele>
        <time>2016-12-18T09:14:03.000Z</time>
      </trkpt>
      <trkpt lat="47.45154" lon="6.74723">
        <ele>375</ele>
        <time>2016-12-18T09:14:09.000Z</time>
      </trkpt>
      <trkpt lat="47.45152" lon="6.74721">
        <ele>375</ele>
        <time>2016-12-18T09:14:10.000Z</time>
      </trkpt>
      <trkpt lat="47.45149" lon="6.74716">
        <ele>375</ele>
        <time>2016-12-18T09:14:13.000Z</time>
      </trkpt>
      <trkpt lat="47.45148" lon="6.74714">
        <ele>376</ele>
        <time>2016-12-18T09:14:14.000Z</time>
      </trkpt>
      <trkpt lat="47.45146" lon="6.74712">
        <ele>376</ele>
        <time>2016-12-18T09:14:21.000Z</time>
      </trkpt>
      <trkpt lat="47.45143" lon="6.74708">
        <ele>376</ele>
        <time>2016-12-18T09:14:22.000Z</time>
      </trkpt>
      <trkpt lat="47.45142" lon="6.74705">
        <ele>376</ele>
        <time>2016-12-18T09:14:23.000Z</time>
      </trkpt>
      <trkpt lat="47.45133" lon="6.74701">
        <ele>376</ele>
        <time>2016-12-18T09:14:24.000Z</time>
      </trkpt>
      <trkpt lat="47.45129" lon="6.74698">
        <ele>376</ele>
        <time>2016-12-18T09:14:25.000Z</time>
      </trkpt>
      <trkpt lat="47.45126" lon="6.74697">
        <ele>376</ele>
        <time>2016-12-18T09:14:26.000Z</time>
      </trkpt>
      <trkpt lat="47.45125" lon="6.74695">
        <ele>376</ele>
        <time>2016-12-18T09:14:27.000Z</time>
      </trkpt>
      <trkpt lat="47.45122" lon="6.7469">
        <ele>376</ele>
        <time>2016-12-18T09:14:31.000Z</time>
      </trkpt>
      <trkpt lat="47.45121" lon="6.74688">
        <ele>376</ele>
        <time>2016-12-18T09:14:32.000Z</time>
      </trkpt>
      <trkpt lat="47.4512" lon="6.74685">
        <ele>376</ele>
        <time>2016-12-18T09:14:33.000Z</time>
      </trkpt>
      <trkpt lat="47.45119" lon="6.74682">
        <ele>376</ele>
        <time>2016-12-18T09:14:34.000Z</time>
      </trkpt>
      <trkpt lat="47.45117" lon="6.7468">
        <ele>376</ele>
        <time>2016-12-18T09:14:35.000Z</time>
      </trkpt>
      <trkpt lat="47.45115" lon="6.74677">
        <ele>376</ele>
        <time>2016-12-18T09:14:36.000Z</time>
      </trkpt>
      <trkpt lat="47.45109" lon="6.74673">
        <ele>377</ele>
        <time>2016-12-18T09:14:37.000Z</time>
      </trkpt>
      <trkpt lat="47.45104" lon="6.74669">
        <ele>377</ele>
        <time>2016-12-18T09:14:38.000Z</time>
      </trkpt>
      <trkpt lat="47.45099" lon="6.74661">
        <ele>377</ele>
        <time>2016-12-18T09:14:39.000Z</time>
      </trkpt>
      <trkpt lat="47.45096" lon="6.74655">
        <ele>377</ele>
        <time>2016-12-18T09:14:40.000Z</time>
      </trkpt>
      <trkpt lat="47.45094" lon="6.74648">
        <ele>377</ele>
        <time>2016-12-18T09:14:41.000Z</time>
      </trkpt>
      <trkpt lat="47.45091" lon="6.74642">
        <ele>376</ele>
        <time>2016-12-18T09:14:42.000Z</time>
      </trkpt>
      <trkpt lat="47.45088" lon="6.74634">
        <ele>376</ele>
        <time>2016-12-18T09:14:43.000Z</time>
      </trkpt>
      <trkpt lat="47.45086" lon="6.74628">
        <ele>376</ele>
        <time>2016-12-18T09:14:44.000Z</time>
      </trkpt>
      <trkpt lat="47.45085" lon="6.74626">
        <ele>376</ele>
        <time>2016-12-18T09:14:45.000Z</time>
      </trkpt>
      <trkpt lat="47.45084" lon="6.74621">
        <ele>376</ele>
        <time>2016-12-18T09:14:47.000Z</time>
      </trkpt>
      <trkpt lat="47.4508" lon="6.74613">
        <ele>378</ele>
        <time>2016-12-18T09:14:48.000Z</time>
      </trkpt>
      <trkpt lat="47.45077" lon="6.74608">
        <ele>378</ele>
        <time>2016-12-18T09:14:49.000Z</time>
      </trkpt>
      <trkpt lat="47.45075" lon="6.74603">
        <ele>378</ele>
        <time>2016-12-18T09:14:50.000Z</time>
      </trkpt>
      <trkpt lat="47.45073" lon="6.74598">
        <ele>378</ele>
        <time>2016-12-18T09:14:51.000Z</time>
      </trkpt>
      <trkpt lat="47.45072" lon="6.74595">
        <ele>378</ele>
        <time>2016-12-18T09:14:52.000Z</time>
      </trkpt>
      <trkpt lat="47.4507" lon="6.7459">
        <ele>377</ele>
        <time>2016-12-18T09:14:54.000Z</time>
      </trkpt>
      <trkpt lat="47.45069" lon="6.74588">
        <ele>377</ele>
        <time>2016-12-18T09:14:55.000Z</time>
      </trkpt>
      <trkpt lat="47.45067" lon="6.74585">
        <ele>378</ele>
        <time>2016-12-18T09:14:56.000Z</time>
      </trkpt>
      <trkpt lat="47.45066" lon="6.74582">
        <ele>377</ele>
        <time>2016-12-18T09:14:57.000Z</time>
      </trkpt>
      <trkpt lat="47.45063" lon="6.74579">
        <ele>377</ele>
        <time>2016-12-18T09:14:58.000Z</time>
      </trkpt>
      <trkpt lat="47.4506" lon="6.74576">
        <ele>377</ele>
        <time>2016-12-18T09:14:59.000Z</time>
      </trkpt>
      <trkpt lat="47.45057" lon="6.74573">
        <ele>377</ele>
        <time>2016-12-18T09:15:00.000Z</time>
      </trkpt>
      <trkpt lat="47.45055" lon="6.74569">
        <ele>378</ele>
        <time>2016-12-18T09:15:01.000Z</time>
      </trkpt>
      <trkpt lat="47.45053" lon="6.74565">
        <ele>378</ele>
        <time>2016-12-18T09:15:02.000Z</time>
      </trkpt>
      <trkpt lat="47.45052" lon="6.74561">
        <ele>378</ele>
        <time>2016-12-18T09:15:03.000Z</time>
      </trkpt>
      <trkpt lat="47.4505" lon="6.74555">
        <ele>378</ele>
        <time>2016-12-18T09:15:04.000Z</time>
      </trkpt>
      <trkpt lat="47.45049" lon="6.74553">
        <ele>378</ele>
        <time>2016-12-18T09:15:05.000Z</time>
      </trkpt>
      <trkpt lat="47.45046" lon="6.74549">
        <ele>378</ele>
        <time>2016-12-18T09:15:08.000Z</time>
      </trkpt>
      <trkpt lat="47.45045" lon="6.74548">
        <ele>378</ele>
        <time>2016-12-18T09:15:09.000Z</time>
      </trkpt>
      <trkpt lat="47.45042" lon="6.74543">
        <ele>378</ele>
        <time>2016-12-18T09:15:11.000Z</time>
      </trkpt>
      <trkpt lat="47.45041" lon="6.7454">
        <ele>378</ele>
        <time>2016-12-18T09:15:12.000Z</time>
      </trkpt>
      <trkpt lat="47.45038" lon="6.74535">
        <ele>378</ele>
        <time>2016-12-18T09:15:13.000Z</time>
      </trkpt>
      <trkpt lat="47.45035" lon="6.7453">
        <ele>378</ele>
        <time>2016-12-18T09:15:14.000Z</time>
      </trkpt>
      <trkpt lat="47.45032" lon="6.74524">
        <ele>378</ele>
        <time>2016-12-18T09:15:15.000Z</time>
      </trkpt>
      <trkpt lat="47.4503" lon="6.74521">
        <ele>378</ele>
        <time>2016-12-18T09:15:17.000Z</time>
      </trkpt>
      <trkpt lat="47.45028" lon="6.7452">
        <ele>378</ele>
        <time>2016-12-18T09:15:18.000Z</time>
      </trkpt>
      <trkpt lat="47.45025" lon="6.74519">
        <ele>378</ele>
        <time>2016-12-18T09:15:19.000Z</time>
      </trkpt>
      <trkpt lat="47.45024" lon="6.74516">
        <ele>378</ele>
        <time>2016-12-18T09:15:20.000Z</time>
      </trkpt>
      <trkpt lat="47.4502" lon="6.74511">
        <ele>378</ele>
        <time>2016-12-18T09:15:21.000Z</time>
      </trkpt>
      <trkpt lat="47.45018" lon="6.74508">
        <ele>378</ele>
        <time>2016-12-18T09:15:22.000Z</time>
      </trkpt>
      <trkpt lat="47.45016" lon="6.74506">
        <ele>378</ele>
        <time>2016-12-18T09:15:23.000Z</time>
      </trkpt>
      <trkpt lat="47.45014" lon="6.74504">
        <ele>378</ele>
        <time>2016-12-18T09:15:24.000Z</time>
      </trkpt>
      <trkpt lat="47.4501" lon="6.74502">
        <ele>377</ele>
        <time>2016-12-18T09:15:26.000Z</time>
      </trkpt>
      <trkpt lat="47.45008" lon="6.745">
        <ele>377</ele>
        <time>2016-12-18T09:15:27.000Z</time>
      </trkpt>
      <trkpt lat="47.45004" lon="6.74499">
        <ele>377</ele>
        <time>2016-12-18T09:15:29.000Z</time>
      </trkpt>
      <trkpt lat="47.45003" lon="6.745">
        <ele>377</ele>
        <time>2016-12-18T09:15:30.000Z</time>
      </trkpt>
      <trkpt lat="47.45" lon="6.745">
        <ele>377</ele>
        <time>2016-12-18T09:15:33.000Z</time>
      </trkpt>
      <trkpt lat="47.44999" lon="6.74501">
        <ele>377</ele>
        <time>2016-12-18T09:15:34.000Z</time>
      </trkpt>
      <trkpt lat="47.44995" lon="6.74499">
        <ele>377</ele>
        <time>2016-12-18T09:15:37.000Z</time>
      </trkpt>
      <trkpt lat="47.44993" lon="6.74497">
        <ele>377</ele>
        <time>2016-12-18T09:15:38.000Z</time>
      </trkpt>
      <trkpt lat="47.44991" lon="6.74493">
        <ele>378</ele>
        <time>2016-12-18T09:15:39.000Z</time>
      </trkpt>
      <trkpt lat="47.44991" lon="6.7449">
        <ele>378</ele>
        <time>2016-12-18T09:15:40.000Z</time>
      </trkpt>
      <trkpt lat="47.4499" lon="6.74485">
        <ele>378</ele>
        <time>2016-12-18T09:15:41.000Z</time>
      </trkpt>
      <trkpt lat="47.4499" lon="6.7448">
        <ele>378</ele>
        <time>2016-12-18T09:15:42.000Z</time>
      </trkpt>
      <trkpt lat="47.44989" lon="6.74476">
        <ele>378</ele>
        <time>2016-12-18T09:15:44.000Z</time>
      </trkpt>
      <trkpt lat="47.44989" lon="6.74472">
        <ele>378</ele>
        <time>2016-12-18T09:15:45.000Z</time>
      </trkpt>
      <trkpt lat="47.4499" lon="6.74468">
        <ele>378</ele>
        <time>2016-12-18T09:15:46.000Z</time>
      </trkpt>
      <trkpt lat="47.4499" lon="6.74464">
        <ele>378</ele>
        <time>2016-12-18T09:15:47.000Z</time>
      </trkpt>
      <trkpt lat="47.44989" lon="6.74461">
        <ele>377</ele>
        <time>2016-12-18T09:15:48.000Z</time>
      </trkpt>
      <trkpt lat="47.44988" lon="6.74458">
        <ele>377</ele>
        <time>2016-12-18T09:15:49.000Z</time>
      </trkpt>
      <trkpt lat="47.44987" lon="6.74454">
        <ele>377</ele>
        <time>2016-12-18T09:15:50.000Z</time>
      </trkpt>
      <trkpt lat="47.44986" lon="6.7445">
        <ele>377</ele>
        <time>2016-12-18T09:15:51.000Z</time>
      </trkpt>
      <trkpt lat="47.44984" lon="6.74444">
        <ele>377</ele>
        <time>2016-12-18T09:15:53.000Z</time>
      </trkpt>
      <trkpt lat="47.44984" lon="6.74442">
        <ele>377</ele>
        <time>2016-12-18T09:15:54.000Z</time>
      </trkpt>
      <trkpt lat="47.44983" lon="6.74441">
        <ele>377</ele>
        <time>2016-12-18T09:15:55.000Z</time>
      </trkpt>
      <trkpt lat="47.4498" lon="6.74438">
        <ele>377</ele>
        <time>2016-12-18T09:15:56.000Z</time>
      </trkpt>
      <trkpt lat="47.44977" lon="6.74433">
        <ele>377</ele>
        <time>2016-12-18T09:15:58.000Z</time>
      </trkpt>
      <trkpt lat="47.44977" lon="6.74432">
        <ele>377</ele>
        <time>2016-12-18T09:15:59.000Z</time>
      </trkpt>
      <trkpt lat="47.44976" lon="6.74429">
        <ele>377</ele>
        <time>2016-12-18T09:16:01.000Z</time>
      </trkpt>
      <trkpt lat="47.44975" lon="6.74425">
        <ele>377</ele>
        <time>2016-12-18T09:16:02.000Z</time>
      </trkpt>
      <trkpt lat="47.44974" lon="6.74421">
        <ele>377</ele>
        <time>2016-12-18T09:16:04.000Z</time>
      </trkpt>
      <trkpt lat="47.44972" lon="6.74419">
        <ele>377</ele>
        <time>2016-12-18T09:16:05.000Z</time>
      </trkpt>
      <trkpt lat="47.44969" lon="6.74418">
        <ele>377</ele>
        <time>2016-12-18T09:16:07.000Z</time>
      </trkpt>
      <trkpt lat="47.44967" lon="6.74419">
        <ele>377</ele>
        <time>2016-12-18T09:16:08.000Z</time>
      </trkpt>
      <trkpt lat="47.44963" lon="6.74417">
        <ele>378</ele>
        <time>2016-12-18T09:16:13.000Z</time>
      </trkpt>
      <trkpt lat="47.44963" lon="6.74415">
        <ele>378</ele>
        <time>2016-12-18T09:16:14.000Z</time>
      </trkpt>
      <trkpt lat="47.44961" lon="6.74413">
        <ele>378</ele>
        <time>2016-12-18T09:16:16.000Z</time>
      </trkpt>
      <trkpt lat="47.44958" lon="6.74412">
        <ele>378</ele>
        <time>2016-12-18T09:16:17.000Z</time>
      </trkpt>
      <trkpt lat="47.44954" lon="6.74411">
        <ele>379</ele>
        <time>2016-12-18T09:16:21.000Z</time>
      </trkpt>
      <trkpt lat="47.44953" lon="6.74411">
        <ele>379</ele>
        <time>2016-12-18T09:16:22.000Z</time>
      </trkpt>
      <trkpt lat="47.44949" lon="6.74409">
        <ele>379</ele>
        <time>2016-12-18T09:16:27.000Z</time>
      </trkpt>
      <trkpt lat="47.44948" lon="6.74409">
        <ele>379</ele>
        <time>2016-12-18T09:16:28.000Z</time>
      </trkpt>
      <trkpt lat="47.44945" lon="6.74407">
        <ele>379</ele>
        <time>2016-12-18T09:16:32.000Z</time>
      </trkpt>
      <trkpt lat="47.44944" lon="6.74405">
        <ele>379</ele>
        <time>2016-12-18T09:16:33.000Z</time>
      </trkpt>
      <trkpt lat="47.44941" lon="6.74404">
        <ele>379</ele>
        <time>2016-12-18T09:16:36.000Z</time>
      </trkpt>
      <trkpt lat="47.44939" lon="6.74403">
        <ele>380</ele>
        <time>2016-12-18T09:16:37.000Z</time>
      </trkpt>
      <trkpt lat="47.44937" lon="6.744">
        <ele>380</ele>
        <time>2016-12-18T09:16:41.000Z</time>
      </trkpt>
      <trkpt lat="47.44936" lon="6.74399">
        <ele>380</ele>
        <time>2016-12-18T09:16:42.000Z</time>
      </trkpt>
      <trkpt lat="47.44934" lon="6.74393">
        <ele>380</ele>
        <time>2016-12-18T09:16:46.000Z</time>
      </trkpt>
      <trkpt lat="47.44932" lon="6.74391">
        <ele>380</ele>
        <time>2016-12-18T09:16:47.000Z</time>
      </trkpt>
      <trkpt lat="47.44928" lon="6.7439">
        <ele>380</ele>
        <time>2016-12-18T09:16:57.000Z</time>
      </trkpt>
      <trkpt lat="47.44927" lon="6.7439">
        <ele>380</ele>
        <time>2016-12-18T09:16:58.000Z</time>
      </trkpt>
      <trkpt lat="47.44925" lon="6.74387">
        <ele>380</ele>
        <time>2016-12-18T09:17:03.000Z</time>
      </trkpt>
      <trkpt lat="47.44924" lon="6.74385">
        <ele>380</ele>
        <time>2016-12-18T09:17:04.000Z</time>
      </trkpt>
      <trkpt lat="47.4492" lon="6.74382">
        <ele>380</ele>
        <time>2016-12-18T09:17:09.000Z</time>
      </trkpt>
      <trkpt lat="47.44919" lon="6.74382">
        <ele>380</ele>
        <time>2016-12-18T09:17:10.000Z</time>
      </trkpt>
      <trkpt lat="47.44915" lon="6.74379">
        <ele>384</ele>
        <time>2016-12-18T09:17:15.000Z</time>
      </trkpt>
      <trkpt lat="47.44914" lon="6.74378">
        <ele>384</ele>
        <time>2016-12-18T09:17:16.000Z</time>
      </trkpt>
      <trkpt lat="47.44911" lon="6.74374">
        <ele>385</ele>
        <time>2016-12-18T09:17:20.000Z</time>
      </trkpt>
      <trkpt lat="47.4491" lon="6.74372">
        <ele>385</ele>
        <time>2016-12-18T09:17:21.000Z</time>
      </trkpt>
      <trkpt lat="47.44907" lon="6.7437">
        <ele>385</ele>
        <time>2016-12-18T09:17:23.000Z</time>
      </trkpt>
      <trkpt lat="47.44906" lon="6.74368">
        <ele>385</ele>
        <time>2016-12-18T09:17:24.000Z</time>
      </trkpt>
      <trkpt lat="47.44904" lon="6.74365">
        <ele>385</ele>
        <time>2016-12-18T09:17:25.000Z</time>
      </trkpt>
      <trkpt lat="47.44902" lon="6.74362">
        <ele>385</ele>
        <time>2016-12-18T09:17:26.000Z</time>
      </trkpt>
      <trkpt lat="47.44899" lon="6.74357">
        <ele>385</ele>
        <time>2016-12-18T09:17:29.000Z</time>
      </trkpt>
      <trkpt lat="47.44898" lon="6.74356">
        <ele>385</ele>
        <time>2016-12-18T09:17:30.000Z</time>
      </trkpt>
      <trkpt lat="47.44896" lon="6.74353">
        <ele>385</ele>
        <time>2016-12-18T09:17:31.000Z</time>
      </trkpt>
      <trkpt lat="47.44895" lon="6.7435">
        <ele>385</ele>
        <time>2016-12-18T09:17:32.000Z</time>
      </trkpt>
      <trkpt lat="47.44894" lon="6.74347">
        <ele>385</ele>
        <time>2016-12-18T09:17:34.000Z</time>
      </trkpt>
      <trkpt lat="47.44893" lon="6.74343">
        <ele>386</ele>
        <time>2016-12-18T09:17:35.000Z</time>
      </trkpt>
      <trkpt lat="47.44891" lon="6.74337">
        <ele>386</ele>
        <time>2016-12-18T09:17:39.000Z</time>
      </trkpt>
      <trkpt lat="47.4489" lon="6.74336">
        <ele>386</ele>
        <time>2016-12-18T09:17:40.000Z</time>
      </trkpt>
      <trkpt lat="47.44887" lon="6.74332">
        <ele>388</ele>
        <time>2016-12-18T09:17:45.000Z</time>
      </trkpt>
      <trkpt lat="47.44887" lon="6.74331">
        <ele>388</ele>
        <time>2016-12-18T09:17:46.000Z</time>
      </trkpt>
      <trkpt lat="47.44884" lon="6.74328">
        <ele>388</ele>
        <time>2016-12-18T09:17:48.000Z</time>
      </trkpt>
      <trkpt lat="47.44883" lon="6.74327">
        <ele>388</ele>
        <time>2016-12-18T09:17:49.000Z</time>
      </trkpt>
      <trkpt lat="47.44881" lon="6.74325">
        <ele>388</ele>
        <time>2016-12-18T09:17:51.000Z</time>
      </trkpt>
      <trkpt lat="47.44879" lon="6.74322">
        <ele>389</ele>
        <time>2016-12-18T09:17:52.000Z</time>
      </trkpt>
      <trkpt lat="47.44877" lon="6.74317">
        <ele>389</ele>
        <time>2016-12-18T09:17:54.000Z</time>
      </trkpt>
      <trkpt lat="47.44877" lon="6.74316">
        <ele>389</ele>
        <time>2016-12-18T09:17:55.000Z</time>
      </trkpt>
      <trkpt lat="47.44873" lon="6.74312">
        <ele>389</ele>
        <time>2016-12-18T09:17:59.000Z</time>
      </trkpt>
      <trkpt lat="47.44872" lon="6.7431">
        <ele>389</ele>
        <time>2016-12-18T09:18:00.000Z</time>
      </trkpt>
      <trkpt lat="47.4487" lon="6.74306">
        <ele>389</ele>
        <time>2016-12-18T09:18:05.000Z</time>
      </trkpt>
      <trkpt lat="47.44869" lon="6.74305">
        <ele>389</ele>
        <time>2016-12-18T09:18:06.000Z</time>
      </trkpt>
      <trkpt lat="47.44867" lon="6.743">
        <ele>389</ele>
        <time>2016-12-18T09:18:08.000Z</time>
      </trkpt>
      <trkpt lat="47.44866" lon="6.74296">
        <ele>389</ele>
        <time>2016-12-18T09:18:09.000Z</time>
      </trkpt>
      <trkpt lat="47.44864" lon="6.74291">
        <ele>390</ele>
        <time>2016-12-18T09:18:15.000Z</time>
      </trkpt>
      <trkpt lat="47.44863" lon="6.7429">
        <ele>390</ele>
        <time>2016-12-18T09:18:16.000Z</time>
      </trkpt>
      <trkpt lat="47.44861" lon="6.74286">
        <ele>390</ele>
        <time>2016-12-18T09:18:17.000Z</time>
      </trkpt>
      <trkpt lat="47.44859" lon="6.74281">
        <ele>390</ele>
        <time>2016-12-18T09:18:18.000Z</time>
      </trkpt>
      <trkpt lat="47.44858" lon="6.74276">
        <ele>391</ele>
        <time>2016-12-18T09:18:19.000Z</time>
      </trkpt>
      <trkpt lat="47.44857" lon="6.74272">
        <ele>391</ele>
        <time>2016-12-18T09:18:20.000Z</time>
      </trkpt>
      <trkpt lat="47.44855" lon="6.74268">
        <ele>391</ele>
        <time>2016-12-18T09:18:21.000Z</time>
      </trkpt>
      <trkpt lat="47.44854" lon="6.74265">
        <ele>391</ele>
        <time>2016-12-18T09:18:22.000Z</time>
      </trkpt>
      <trkpt lat="47.44853" lon="6.74261">
        <ele>392</ele>
        <time>2016-12-18T09:18:23.000Z</time>
      </trkpt>
      <trkpt lat="47.44852" lon="6.74258">
        <ele>392</ele>
        <time>2016-12-18T09:18:24.000Z</time>
      </trkpt>
      <trkpt lat="47.44848" lon="6.74256">
        <ele>393</ele>
        <time>2016-12-18T09:18:28.000Z</time>
      </trkpt>
      <trkpt lat="47.44847" lon="6.74255">
        <ele>393</ele>
        <time>2016-12-18T09:18:29.000Z</time>
      </trkpt>
      <trkpt lat="47.44844" lon="6.7425">
        <ele>394</ele>
        <time>2016-12-18T09:18:32.000Z</time>
      </trkpt>
      <trkpt lat="47.44843" lon="6.74246">
        <ele>395</ele>
        <time>2016-12-18T09:18:33.000Z</time>
      </trkpt>
      <trkpt lat="47.44842" lon="6.7424">
        <ele>394</ele>
        <time>2016-12-18T09:18:35.000Z</time>
      </trkpt>
      <trkpt lat="47.44842" lon="6.74238">
        <ele>394</ele>
        <time>2016-12-18T09:18:36.000Z</time>
      </trkpt>
      <trkpt lat="47.44842" lon="6.74232">
        <ele>394</ele>
        <time>2016-12-18T09:18:39.000Z</time>
      </trkpt>
      <trkpt lat="47.44842" lon="6.74231">
        <ele>394</ele>
        <time>2016-12-18T09:18:40.000Z</time>
      </trkpt>
      <trkpt lat="47.44844" lon="6.74226">
        <ele>394</ele>
        <time>2016-12-18T09:18:44.000Z</time>
      </trkpt>
      <trkpt lat="47.44844" lon="6.74225">
        <ele>394</ele>
        <time>2016-12-18T09:18:45.000Z</time>
      </trkpt>
      <trkpt lat="47.44843" lon="6.74221">
        <ele>394</ele>
        <time>2016-12-18T09:18:49.000Z</time>
      </trkpt>
      <trkpt lat="47.44842" lon="6.74219">
        <ele>394</ele>
        <time>2016-12-18T09:18:50.000Z</time>
      </trkpt>
      <trkpt lat="47.4484" lon="6.74214">
        <ele>394</ele>
        <time>2016-12-18T09:18:55.000Z</time>
      </trkpt>
      <trkpt lat="47.4484" lon="6.74213">
        <ele>394</ele>
        <time>2016-12-18T09:18:56.000Z</time>
      </trkpt>
      <trkpt lat="47.44837" lon="6.74208">
        <ele>394</ele>
        <time>2016-12-18T09:19:00.000Z</time>
      </trkpt>
      <trkpt lat="47.44837" lon="6.74207">
        <ele>394</ele>
        <time>2016-12-18T09:19:01.000Z</time>
      </trkpt>
      <trkpt lat="47.44835" lon="6.74203">
        <ele>395</ele>
        <time>2016-12-18T09:19:04.000Z</time>
      </trkpt>
      <trkpt lat="47.44834" lon="6.74201">
        <ele>395</ele>
        <time>2016-12-18T09:19:05.000Z</time>
      </trkpt>
      <trkpt lat="47.44831" lon="6.74197">
        <ele>398</ele>
        <time>2016-12-18T09:19:08.000Z</time>
      </trkpt>
      <trkpt lat="47.44831" lon="6.74197">
        <ele>398</ele>
        <time>2016-12-18T09:19:09.000Z</time>
      </trkpt>
      <trkpt lat="47.44828" lon="6.74192">
        <ele>398</ele>
        <time>2016-12-18T09:19:11.000Z</time>
      </trkpt>
      <trkpt lat="47.44827" lon="6.74188">
        <ele>399</ele>
        <time>2016-12-18T09:19:12.000Z</time>
      </trkpt>
      <trkpt lat="47.44825" lon="6.74185">
        <ele>399</ele>
        <time>2016-12-18T09:19:15.000Z</time>
      </trkpt>
      <trkpt lat="47.44822" lon="6.7418">
        <ele>399</ele>
        <time>2016-12-18T09:19:16.000Z</time>
      </trkpt>
      <trkpt lat="47.44819" lon="6.74176">
        <ele>399</ele>
        <time>2016-12-18T09:19:18.000Z</time>
      </trkpt>
      <trkpt lat="47.44817" lon="6.74173">
        <ele>399</ele>
        <time>2016-12-18T09:19:19.000Z</time>
      </trkpt>
      <trkpt lat="47.44815" lon="6.74167">
        <ele>399</ele>
        <time>2016-12-18T09:19:21.000Z</time>
      </trkpt>
      <trkpt lat="47.44814" lon="6.74164">
        <ele>403</ele>
        <time>2016-12-18T09:19:22.000Z</time>
      </trkpt>
      <trkpt lat="47.44813" lon="6.74158">
        <ele>403</ele>
        <time>2016-12-18T09:19:25.000Z</time>
      </trkpt>
      <trkpt lat="47.44812" lon="6.74156">
        <ele>403</ele>
        <time>2016-12-18T09:19:26.000Z</time>
      </trkpt>
      <trkpt lat="47.44809" lon="6.74152">
        <ele>403</ele>
        <time>2016-12-18T09:19:35.000Z</time>
      </trkpt>
      <trkpt lat="47.44809" lon="6.74152">
        <ele>403</ele>
        <time>2016-12-18T09:19:36.000Z</time>
      </trkpt>
      <trkpt lat="47.44807" lon="6.74146">
        <ele>404</ele>
        <time>2016-12-18T09:19:42.000Z</time>
      </trkpt>
      <trkpt lat="47.44806" lon="6.74146">
        <ele>404</ele>
        <time>2016-12-18T09:19:43.000Z</time>
      </trkpt>
      <trkpt lat="47.44805" lon="6.74139">
        <ele>404</ele>
        <time>2016-12-18T09:19:50.000Z</time>
      </trkpt>
      <trkpt lat="47.44805" lon="6.74139">
        <ele>404</ele>
        <time>2016-12-18T09:19:51.000Z</time>
      </trkpt>
      <trkpt lat="47.44802" lon="6.74134">
        <ele>404</ele>
        <time>2016-12-18T09:19:57.000Z</time>
      </trkpt>
      <trkpt lat="47.44801" lon="6.74133">
        <ele>404</ele>
        <time>2016-12-18T09:19:58.000Z</time>
      </trkpt>
      <trkpt lat="47.44799" lon="6.74128">
        <ele>405</ele>
        <time>2016-12-18T09:20:04.000Z</time>
      </trkpt>
      <trkpt lat="47.44799" lon="6.74127">
        <ele>405</ele>
        <time>2016-12-18T09:20:05.000Z</time>
      </trkpt>
      <trkpt lat="47.44797" lon="6.74122">
        <ele>405</ele>
        <time>2016-12-18T09:20:11.000Z</time>
      </trkpt>
      <trkpt lat="47.44797" lon="6.74119">
        <ele>405</ele>
        <time>2016-12-18T09:20:12.000Z</time>
      </trkpt>
      <trkpt lat="47.44797" lon="6.74113">
        <ele>405</ele>
        <time>2016-12-18T09:20:18.000Z</time>
      </trkpt>
      <trkpt lat="47.44797" lon="6.74112">
        <ele>405</ele>
        <time>2016-12-18T09:20:19.000Z</time>
      </trkpt>
      <trkpt lat="47.44796" lon="6.74107">
        <ele>406</ele>
        <time>2016-12-18T09:20:26.000Z</time>
      </trkpt>
      <trkpt lat="47.44796" lon="6.74106">
        <ele>406</ele>
        <time>2016-12-18T09:20:27.000Z</time>
      </trkpt>
      <trkpt lat="47.44794" lon="6.741">
        <ele>406</ele>
        <time>2016-12-18T09:20:29.000Z</time>
      </trkpt>
      <trkpt lat="47.44794" lon="6.74097">
        <ele>406</ele>
        <time>2016-12-18T09:20:30.000Z</time>
      </trkpt>
      <trkpt lat="47.44791" lon="6.74092">
        <ele>406</ele>
        <time>2016-12-18T09:20:34.000Z</time>
      </trkpt>
      <trkpt lat="47.44791" lon="6.74091">
        <ele>406</ele>
        <time>2016-12-18T09:20:35.000Z</time>
      </trkpt>
      <trkpt lat="47.4479" lon="6.74088">
        <ele>406</ele>
        <time>2016-12-18T09:20:39.000Z</time>
      </trkpt>
      <trkpt lat="47.44789" lon="6.74084">
        <ele>407</ele>
        <time>2016-12-18T09:20:40.000Z</time>
      </trkpt>
      <trkpt lat="47.4479" lon="6.74078">
        <ele>413</ele>
        <time>2016-12-18T09:20:43.000Z</time>
      </trkpt>
      <trkpt lat="47.4479" lon="6.74077">
        <ele>413</ele>
        <time>2016-12-18T09:20:44.000Z</time>
      </trkpt>
      <trkpt lat="47.4479" lon="6.74072">
        <ele>413</ele>
        <time>2016-12-18T09:20:46.000Z</time>
      </trkpt>
      <trkpt lat="47.4479" lon="6.74068">
        <ele>413</ele>
        <time>2016-12-18T09:20:47.000Z</time>
      </trkpt>
      <trkpt lat="47.4479" lon="6.74063">
        <ele>413</ele>
        <time>2016-12-18T09:20:51.000Z</time>
      </trkpt>
      <trkpt lat="47.44791" lon="6.74062">
        <ele>413</ele>
        <time>2016-12-18T09:20:52.000Z</time>
      </trkpt>
      <trkpt lat="47.44794" lon="6.74058">
        <ele>413</ele>
        <time>2016-12-18T09:20:55.000Z</time>
      </trkpt>
      <trkpt lat="47.44794" lon="6.74056">
        <ele>413</ele>
        <time>2016-12-18T09:20:56.000Z</time>
      </trkpt>
      <trkpt lat="47.44794" lon="6.7405">
        <ele>414</ele>
        <time>2016-12-18T09:20:57.000Z</time>
      </trkpt>
      <trkpt lat="47.44795" lon="6.74044">
        <ele>414</ele>
        <time>2016-12-18T09:20:58.000Z</time>
      </trkpt>
      <trkpt lat="47.44795" lon="6.7404">
        <ele>414</ele>
        <time>2016-12-18T09:20:59.000Z</time>
      </trkpt>
      <trkpt lat="47.44795" lon="6.74036">
        <ele>415</ele>
        <time>2016-12-18T09:21:00.000Z</time>
      </trkpt>
      <trkpt lat="47.44795" lon="6.7403">
        <ele>415</ele>
        <time>2016-12-18T09:21:03.000Z</time>
      </trkpt>
      <trkpt lat="47.44795" lon="6.74028">
        <ele>415</ele>
        <time>2016-12-18T09:21:04.000Z</time>
      </trkpt>
      <trkpt lat="47.44794" lon="6.74022">
        <ele>415</ele>
        <time>2016-12-18T09:21:06.000Z</time>
      </trkpt>
      <trkpt lat="47.44793" lon="6.74019">
        <ele>415</ele>
        <time>2016-12-18T09:21:07.000Z</time>
      </trkpt>
      <trkpt lat="47.44794" lon="6.74014">
        <ele>416</ele>
        <time>2016-12-18T09:21:11.000Z</time>
      </trkpt>
      <trkpt lat="47.44795" lon="6.7401">
        <ele>416</ele>
        <time>2016-12-18T09:21:12.000Z</time>
      </trkpt>
      <trkpt lat="47.44795" lon="6.74005">
        <ele>416</ele>
        <time>2016-12-18T09:21:14.000Z</time>
      </trkpt>
      <trkpt lat="47.44794" lon="6.74003">
        <ele>416</ele>
        <time>2016-12-18T09:21:15.000Z</time>
      </trkpt>
      <trkpt lat="47.44793" lon="6.73998">
        <ele>422</ele>
        <time>2016-12-18T09:21:20.000Z</time>
      </trkpt>
      <trkpt lat="47.44792" lon="6.73995">
        <ele>422</ele>
        <time>2016-12-18T09:21:21.000Z</time>
      </trkpt>
      <trkpt lat="47.44791" lon="6.73991">
        <ele>422</ele>
        <time>2016-12-18T09:21:23.000Z</time>
      </trkpt>
      <trkpt lat="47.44791" lon="6.73989">
        <ele>422</ele>
        <time>2016-12-18T09:21:24.000Z</time>
      </trkpt>
      <trkpt lat="47.44789" lon="6.73984">
        <ele>422</ele>
        <time>2016-12-18T09:21:27.000Z</time>
      </trkpt>
      <trkpt lat="47.44789" lon="6.73982">
        <ele>422</ele>
        <time>2016-12-18T09:21:28.000Z</time>
      </trkpt>
      <trkpt lat="47.44787" lon="6.73977">
        <ele>422</ele>
        <time>2016-12-18T09:21:29.000Z</time>
      </trkpt>
      <trkpt lat="47.44787" lon="6.73975">
        <ele>423</ele>
        <time>2016-12-18T09:21:30.000Z</time>
      </trkpt>
      <trkpt lat="47.44786" lon="6.73969">
        <ele>423</ele>
        <time>2016-12-18T09:21:35.000Z</time>
      </trkpt>
      <trkpt lat="47.44786" lon="6.73968">
        <ele>423</ele>
        <time>2016-12-18T09:21:36.000Z</time>
      </trkpt>
      <trkpt lat="47.44786" lon="6.73963">
        <ele>423</ele>
        <time>2016-12-18T09:21:38.000Z</time>
      </trkpt>
      <trkpt lat="47.44785" lon="6.7396">
        <ele>423</ele>
        <time>2016-12-18T09:21:39.000Z</time>
      </trkpt>
      <trkpt lat="47.44786" lon="6.73955">
        <ele>424</ele>
        <time>2016-12-18T09:21:41.000Z</time>
      </trkpt>
      <trkpt lat="47.44786" lon="6.73952">
        <ele>424</ele>
        <time>2016-12-18T09:21:42.000Z</time>
      </trkpt>
      <trkpt lat="47.44786" lon="6.73946">
        <ele>424</ele>
        <time>2016-12-18T09:21:45.000Z</time>
      </trkpt>
      <trkpt lat="47.44787" lon="6.73945">
        <ele>424</ele>
        <time>2016-12-18T09:21:46.000Z</time>
      </trkpt>
      <trkpt lat="47.44787" lon="6.7394">
        <ele>424</ele>
        <time>2016-12-18T09:21:48.000Z</time>
      </trkpt>
      <trkpt lat="47.44787" lon="6.73937">
        <ele>424</ele>
        <time>2016-12-18T09:21:49.000Z</time>
      </trkpt>
      <trkpt lat="47.44787" lon="6.73932">
        <ele>425</ele>
        <time>2016-12-18T09:21:51.000Z</time>
      </trkpt>
      <trkpt lat="47.44788" lon="6.73929">
        <ele>425</ele>
        <time>2016-12-18T09:21:52.000Z</time>
      </trkpt>
      <trkpt lat="47.44788" lon="6.73923">
        <ele>425</ele>
        <time>2016-12-18T09:21:55.000Z</time>
      </trkpt>
      <trkpt lat="47.44788" lon="6.7392">
        <ele>425</ele>
        <time>2016-12-18T09:21:56.000Z</time>
      </trkpt>
      <trkpt lat="47.4479" lon="6.73916">
        <ele>430</ele>
        <time>2016-12-18T09:21:58.000Z</time>
      </trkpt>
      <trkpt lat="47.44791" lon="6.73912">
        <ele>430</ele>
        <time>2016-12-18T09:21:59.000Z</time>
      </trkpt>
      <trkpt lat="47.44793" lon="6.73908">
        <ele>430</ele>
        <time>2016-12-18T09:22:01.000Z</time>
      </trkpt>
      <trkpt lat="47.44794" lon="6.73906">
        <ele>430</ele>
        <time>2016-12-18T09:22:02.000Z</time>
      </trkpt>
      <trkpt lat="47.44795" lon="6.73902">
        <ele>431</ele>
        <time>2016-12-18T09:22:04.000Z</time>
      </trkpt>
      <trkpt lat="47.44796" lon="6.739">
        <ele>431</ele>
        <time>2016-12-18T09:22:05.000Z</time>
      </trkpt>
      <trkpt lat="47.44798" lon="6.73895">
        <ele>431</ele>
        <time>2016-12-18T09:22:06.000Z</time>
      </trkpt>
      <trkpt lat="47.448" lon="6.73891">
        <ele>431</ele>
        <time>2016-12-18T09:22:07.000Z</time>
      </trkpt>
      <trkpt lat="47.44802" lon="6.73886">
        <ele>431</ele>
        <time>2016-12-18T09:22:09.000Z</time>
      </trkpt>
      <trkpt lat="47.44803" lon="6.73883">
        <ele>432</ele>
        <time>2016-12-18T09:22:10.000Z</time>
      </trkpt>
      <trkpt lat="47.44804" lon="6.73881">
        <ele>432</ele>
        <time>2016-12-18T09:22:12.000Z</time>
      </trkpt>
      <trkpt lat="47.44806" lon="6.73877">
        <ele>432</ele>
        <time>2016-12-18T09:22:13.000Z</time>
      </trkpt>
      <trkpt lat="47.44808" lon="6.73873">
        <ele>432</ele>
        <time>2016-12-18T09:22:14.000Z</time>
      </trkpt>
      <trkpt lat="47.44809" lon="6.73869">
        <ele>432</ele>
        <time>2016-12-18T09:22:15.000Z</time>
      </trkpt>
      <trkpt lat="47.44811" lon="6.73865">
        <ele>433</ele>
        <time>2016-12-18T09:22:17.000Z</time>
      </trkpt>
      <trkpt lat="47.44812" lon="6.73864">
        <ele>433</ele>
        <time>2016-12-18T09:22:18.000Z</time>
      </trkpt>
      <trkpt lat="47.44815" lon="6.7386">
        <ele>433</ele>
        <time>2016-12-18T09:22:20.000Z</time>
      </trkpt>
      <trkpt lat="47.44817" lon="6.7386">
        <ele>433</ele>
        <time>2016-12-18T09:22:21.000Z</time>
      </trkpt>
      <trkpt lat="47.44819" lon="6.73858">
        <ele>434</ele>
        <time>2016-12-18T09:22:24.000Z</time>
      </trkpt>
      <trkpt lat="47.4482" lon="6.73855">
        <ele>434</ele>
        <time>2016-12-18T09:22:25.000Z</time>
      </trkpt>
      <trkpt lat="47.44821" lon="6.73851">
        <ele>434</ele>
        <time>2016-12-18T09:22:26.000Z</time>
      </trkpt>
      <trkpt lat="47.44822" lon="6.73848">
        <ele>435</ele>
        <time>2016-12-18T09:22:27.000Z</time>
      </trkpt>
      <trkpt lat="47.44822" lon="6.73844">
        <ele>435</ele>
        <time>2016-12-18T09:22:29.000Z</time>
      </trkpt>
      <trkpt lat="47.44823" lon="6.73841">
        <ele>435</ele>
        <time>2016-12-18T09:22:30.000Z</time>
      </trkpt>
      <trkpt lat="47.44822" lon="6.73835">
        <ele>436</ele>
        <time>2016-12-18T09:22:32.000Z</time>
      </trkpt>
      <trkpt lat="47.44822" lon="6.73833">
        <ele>438</ele>
        <time>2016-12-18T09:22:33.000Z</time>
      </trkpt>
      <trkpt lat="47.44821" lon="6.73827">
        <ele>438</ele>
        <time>2016-12-18T09:22:35.000Z</time>
      </trkpt>
      <trkpt lat="47.44821" lon="6.73825">
        <ele>438</ele>
        <time>2016-12-18T09:22:36.000Z</time>
      </trkpt>
      <trkpt lat="47.44822" lon="6.7382">
        <ele>438</ele>
        <time>2016-12-18T09:22:40.000Z</time>
      </trkpt>
      <trkpt lat="47.44822" lon="6.73815">
        <ele>438</ele>
        <time>2016-12-18T09:22:41.000Z</time>
      </trkpt>
      <trkpt lat="47.44823" lon="6.73809">
        <ele>438</ele>
        <time>2016-12-18T09:22:43.000Z</time>
      </trkpt>
      <trkpt lat="47.44824" lon="6.73805">
        <ele>438</ele>
        <time>2016-12-18T09:22:44.000Z</time>
      </trkpt>
      <trkpt lat="47.44825" lon="6.73802">
        <ele>439</ele>
        <time>2016-12-18T09:22:45.000Z</time>
      </trkpt>
      <trkpt lat="47.44826" lon="6.73799">
        <ele>439</ele>
        <time>2016-12-18T09:22:46.000Z</time>
      </trkpt>
      <trkpt lat="47.4483" lon="6.73795">
        <ele>439</ele>
        <time>2016-12-18T09:22:49.000Z</time>
      </trkpt>
      <trkpt lat="47.44831" lon="6.73791">
        <ele>439</ele>
        <time>2016-12-18T09:22:50.000Z</time>
      </trkpt>
      <trkpt lat="47.44832" lon="6.73786">
        <ele>440</ele>
        <time>2016-12-18T09:22:53.000Z</time>
      </trkpt>
      <trkpt lat="47.44833" lon="6.73783">
        <ele>440</ele>
        <time>2016-12-18T09:22:54.000Z</time>
      </trkpt>
      <trkpt lat="47.44833" lon="6.73779">
        <ele>440</ele>
        <time>2016-12-18T09:22:55.000Z</time>
      </trkpt>
      <trkpt lat="47.44832" lon="6.73773">
        <ele>441</ele>
        <time>2016-12-18T09:22:56.000Z</time>
      </trkpt>
      <trkpt lat="47.44832" lon="6.73768">
        <ele>441</ele>
        <time>2016-12-18T09:22:58.000Z</time>
      </trkpt>
      <trkpt lat="47.44832" lon="6.73765">
        <ele>442</ele>
        <time>2016-12-18T09:22:59.000Z</time>
      </trkpt>
      <trkpt lat="47.44832" lon="6.7376">
        <ele>443</ele>
        <time>2016-12-18T09:23:01.000Z</time>
      </trkpt>
      <trkpt lat="47.44832" lon="6.73758">
        <ele>443</ele>
        <time>2016-12-18T09:23:02.000Z</time>
      </trkpt>
      <trkpt lat="47.44832" lon="6.73752">
        <ele>444</ele>
        <time>2016-12-18T09:23:05.000Z</time>
      </trkpt>
      <trkpt lat="47.44833" lon="6.73748">
        <ele>445</ele>
        <time>2016-12-18T09:23:06.000Z</time>
      </trkpt>
      <trkpt lat="47.44835" lon="6.73741">
        <ele>444</ele>
        <time>2016-12-18T09:23:07.000Z</time>
      </trkpt>
      <trkpt lat="47.44835" lon="6.73736">
        <ele>444</ele>
        <time>2016-12-18T09:23:08.000Z</time>
      </trkpt>
      <trkpt lat="47.44835" lon="6.73731">
        <ele>444</ele>
        <time>2016-12-18T09:23:09.000Z</time>
      </trkpt>
      <trkpt lat="47.44836" lon="6.73726">
        <ele>444</ele>
        <time>2016-12-18T09:23:10.000Z</time>
      </trkpt>
      <trkpt lat="47.44835" lon="6.73722">
        <ele>444</ele>
        <time>2016-12-18T09:23:11.000Z</time>
      </trkpt>
      <trkpt lat="47.44837" lon="6.73718">
        <ele>444</ele>
        <time>2016-12-18T09:23:14.000Z</time>
      </trkpt>
      <trkpt lat="47.44837" lon="6.73715">
        <ele>444</ele>
        <time>2016-12-18T09:23:15.000Z</time>
      </trkpt>
      <trkpt lat="47.44837" lon="6.7371">
        <ele>444</ele>
        <time>2016-12-18T09:23:17.000Z</time>
      </trkpt>
      <trkpt lat="47.44838" lon="6.73707">
        <ele>444</ele>
        <time>2016-12-18T09:23:18.000Z</time>
      </trkpt>
      <trkpt lat="47.44838" lon="6.73704">
        <ele>444</ele>
        <time>2016-12-18T09:23:19.000Z</time>
      </trkpt>
      <trkpt lat="47.44838" lon="6.73699">
        <ele>444</ele>
        <time>2016-12-18T09:23:20.000Z</time>
      </trkpt>
      <trkpt lat="47.44839" lon="6.73696">
        <ele>445</ele>
        <time>2016-12-18T09:23:21.000Z</time>
      </trkpt>
      <trkpt lat="47.44838" lon="6.73692">
        <ele>445</ele>
        <time>2016-12-18T09:23:22.000Z</time>
      </trkpt>
      <trkpt lat="47.44838" lon="6.73686">
        <ele>446</ele>
        <time>2016-12-18T09:23:24.000Z</time>
      </trkpt>
      <trkpt lat="47.44838" lon="6.73681">
        <ele>446</ele>
        <time>2016-12-18T09:23:25.000Z</time>
      </trkpt>
      <trkpt lat="47.44837" lon="6.73675">
        <ele>447</ele>
        <time>2016-12-18T09:23:27.000Z</time>
      </trkpt>
      <trkpt lat="47.44837" lon="6.73673">
        <ele>447</ele>
        <time>2016-12-18T09:23:28.000Z</time>
      </trkpt>
      <trkpt lat="47.44835" lon="6.73667">
        <ele>449</ele>
        <time>2016-12-18T09:23:30.000Z</time>
      </trkpt>
      <trkpt lat="47.44835" lon="6.73665">
        <ele>449</ele>
        <time>2016-12-18T09:23:31.000Z</time>
      </trkpt>
      <trkpt lat="47.44835" lon="6.7366">
        <ele>449</ele>
        <time>2016-12-18T09:23:33.000Z</time>
      </trkpt>
      <trkpt lat="47.44835" lon="6.73653">
        <ele>449</ele>
        <time>2016-12-18T09:23:34.000Z</time>
      </trkpt>
      <trkpt lat="47.44836" lon="6.73649">
        <ele>449</ele>
        <time>2016-12-18T09:23:35.000Z</time>
      </trkpt>
      <trkpt lat="47.44835" lon="6.73646">
        <ele>449</ele>
        <time>2016-12-18T09:23:36.000Z</time>
      </trkpt>
      <trkpt lat="47.44834" lon="6.73644">
        <ele>449</ele>
        <time>2016-12-18T09:23:43.000Z</time>
      </trkpt>
      <trkpt lat="47.44831" lon="6.73642">
        <ele>449</ele>
        <time>2016-12-18T09:23:44.000Z</time>
      </trkpt>
      <trkpt lat="47.44833" lon="6.73647">
        <ele>449</ele>
        <time>2016-12-18T09:23:52.000Z</time>
      </trkpt>
      <trkpt lat="47.44833" lon="6.73648">
        <ele>449</ele>
        <time>2016-12-18T09:23:53.000Z</time>
      </trkpt>
      <trkpt lat="47.44832" lon="6.73642">
        <ele>449</ele>
        <time>2016-12-18T09:24:59.000Z</time>
      </trkpt>
      <trkpt lat="47.44832" lon="6.7364">
        <ele>449</ele>
        <time>2016-12-18T09:25:00.000Z</time>
      </trkpt>
      <trkpt lat="47.44832" lon="6.73635">
        <ele>449</ele>
        <time>2016-12-18T09:25:02.000Z</time>
      </trkpt>
      <trkpt lat="47.44832" lon="6.73632">
        <ele>449</ele>
        <time>2016-12-18T09:25:03.000Z</time>
      </trkpt>
      <trkpt lat="47.44832" lon="6.73626">
        <ele>449</ele>
        <time>2016-12-18T09:25:05.000Z</time>
      </trkpt>
      <trkpt lat="47.44832" lon="6.73622">
        <ele>450</ele>
        <time>2016-12-18T09:25:06.000Z</time>
      </trkpt>
      <trkpt lat="47.44832" lon="6.73618">
        <ele>450</ele>
        <time>2016-12-18T09:25:07.000Z</time>
      </trkpt>
      <trkpt lat="47.44832" lon="6.73614">
        <ele>450</ele>
        <time>2016-12-18T09:25:08.000Z</time>
      </trkpt>
      <trkpt lat="47.44831" lon="6.73609">
        <ele>451</ele>
        <time>2016-12-18T09:25:09.000Z</time>
      </trkpt>
      <trkpt lat="47.4483" lon="6.73607">
        <ele>451</ele>
        <time>2016-12-18T09:25:10.000Z</time>
      </trkpt>
      <trkpt lat="47.44828" lon="6.73602">
        <ele>451</ele>
        <time>2016-12-18T09:25:12.000Z</time>
      </trkpt>
      <trkpt lat="47.44827" lon="6.73599">
        <ele>452</ele>
        <time>2016-12-18T09:25:13.000Z</time>
      </trkpt>
      <trkpt lat="47.44826" lon="6.73593">
        <ele>452</ele>
        <time>2016-12-18T09:25:15.000Z</time>
      </trkpt>
      <trkpt lat="47.44826" lon="6.73591">
        <ele>453</ele>
        <time>2016-12-18T09:25:16.000Z</time>
      </trkpt>
      <trkpt lat="47.44826" lon="6.73589">
        <ele>453</ele>
        <time>2016-12-18T09:25:17.000Z</time>
      </trkpt>
      <trkpt lat="47.44827" lon="6.73583">
        <ele>454</ele>
        <time>2016-12-18T09:25:18.000Z</time>
      </trkpt>
      <trkpt lat="47.44828" lon="6.73577">
        <ele>454</ele>
        <time>2016-12-18T09:25:20.000Z</time>
      </trkpt>
      <trkpt lat="47.44828" lon="6.73574">
        <ele>454</ele>
        <time>2016-12-18T09:25:21.000Z</time>
      </trkpt>
      <trkpt lat="47.44828" lon="6.7357">
        <ele>454</ele>
        <time>2016-12-18T09:25:22.000Z</time>
      </trkpt>
      <trkpt lat="47.44828" lon="6.73567">
        <ele>454</ele>
        <time>2016-12-18T09:25:23.000Z</time>
      </trkpt>
      <trkpt lat="47.44829" lon="6.73564">
        <ele>454</ele>
        <time>2016-12-18T09:25:24.000Z</time>
      </trkpt>
      <trkpt lat="47.44829" lon="6.7356">
        <ele>454</ele>
        <time>2016-12-18T09:25:25.000Z</time>
      </trkpt>
      <trkpt lat="47.44831" lon="6.73554">
        <ele>454</ele>
        <time>2016-12-18T09:25:27.000Z</time>
      </trkpt>
      <trkpt lat="47.44832" lon="6.73552">
        <ele>454</ele>
        <time>2016-12-18T09:25:28.000Z</time>
      </trkpt>
      <trkpt lat="47.44832" lon="6.73548">
        <ele>454</ele>
        <time>2016-12-18T09:25:29.000Z</time>
      </trkpt>
      <trkpt lat="47.44832" lon="6.73545">
        <ele>454</ele>
        <time>2016-12-18T09:25:30.000Z</time>
      </trkpt>
      <trkpt lat="47.44833" lon="6.73539">
        <ele>454</ele>
        <time>2016-12-18T09:25:32.000Z</time>
      </trkpt>
      <trkpt lat="47.44834" lon="6.73535">
        <ele>455</ele>
        <time>2016-12-18T09:25:33.000Z</time>
      </trkpt>
      <trkpt lat="47.44834" lon="6.73531">
        <ele>455</ele>
        <time>2016-12-18T09:25:34.000Z</time>
      </trkpt>
      <trkpt lat="47.44835" lon="6.73528">
        <ele>456</ele>
        <time>2016-12-18T09:25:35.000Z</time>
      </trkpt>
      <trkpt lat="47.44838" lon="6.73524">
        <ele>456</ele>
        <time>2016-12-18T09:25:37.000Z</time>
      </trkpt>
      <trkpt lat="47.4484" lon="6.73521">
        <ele>456</ele>
        <time>2016-12-18T09:25:38.000Z</time>
      </trkpt>
      <trkpt lat="47.44841" lon="6.73518">
        <ele>456</ele>
        <time>2016-12-18T09:25:39.000Z</time>
      </trkpt>
      <trkpt lat="47.44842" lon="6.73515">
        <ele>456</ele>
        <time>2016-12-18T09:25:40.000Z</time>
      </trkpt>
      <trkpt lat="47.44842" lon="6.73509">
        <ele>457</ele>
        <time>2016-12-18T09:25:42.000Z</time>
      </trkpt>
      <trkpt lat="47.44841" lon="6.73506">
        <ele>457</ele>
        <time>2016-12-18T09:25:43.000Z</time>
      </trkpt>
      <trkpt lat="47.4484" lon="6.735">
        <ele>457</ele>
        <time>2016-12-18T09:25:45.000Z</time>
      </trkpt>
      <trkpt lat="47.44839" lon="6.73498">
        <ele>458</ele>
        <time>2016-12-18T09:25:46.000Z</time>
      </trkpt>
      <trkpt lat="47.44837" lon="6.73495">
        <ele>458</ele>
        <time>2016-12-18T09:25:47.000Z</time>
      </trkpt>
      <trkpt lat="47.44835" lon="6.73493">
        <ele>458</ele>
        <time>2016-12-18T09:25:48.000Z</time>
      </trkpt>
      <trkpt lat="47.44833" lon="6.73487">
        <ele>458</ele>
        <time>2016-12-18T09:25:50.000Z</time>
      </trkpt>
      <trkpt lat="47.44832" lon="6.73484">
        <ele>458</ele>
        <time>2016-12-18T09:25:51.000Z</time>
      </trkpt>
      <trkpt lat="47.44831" lon="6.73481">
        <ele>458</ele>
        <time>2016-12-18T09:25:53.000Z</time>
      </trkpt>
      <trkpt lat="47.4483" lon="6.73476">
        <ele>458</ele>
        <time>2016-12-18T09:25:54.000Z</time>
      </trkpt>
      <trkpt lat="47.44829" lon="6.73472">
        <ele>458</ele>
        <time>2016-12-18T09:25:55.000Z</time>
      </trkpt>
      <trkpt lat="47.44828" lon="6.73469">
        <ele>458</ele>
        <time>2016-12-18T09:25:56.000Z</time>
      </trkpt>
      <trkpt lat="47.44828" lon="6.73464">
        <ele>458</ele>
        <time>2016-12-18T09:25:58.000Z</time>
      </trkpt>
      <trkpt lat="47.44829" lon="6.73461">
        <ele>458</ele>
        <time>2016-12-18T09:25:59.000Z</time>
      </trkpt>
      <trkpt lat="47.44828" lon="6.73456">
        <ele>458</ele>
        <time>2016-12-18T09:26:01.000Z</time>
      </trkpt>
      <trkpt lat="47.44829" lon="6.73452">
        <ele>459</ele>
        <time>2016-12-18T09:26:02.000Z</time>
      </trkpt>
      <trkpt lat="47.4483" lon="6.73446">
        <ele>459</ele>
        <time>2016-12-18T09:26:04.000Z</time>
      </trkpt>
      <trkpt lat="47.44831" lon="6.73445">
        <ele>459</ele>
        <time>2016-12-18T09:26:05.000Z</time>
      </trkpt>
      <trkpt lat="47.44833" lon="6.73439">
        <ele>459</ele>
        <time>2016-12-18T09:26:07.000Z</time>
      </trkpt>
      <trkpt lat="47.44835" lon="6.73437">
        <ele>459</ele>
        <time>2016-12-18T09:26:08.000Z</time>
      </trkpt>
      <trkpt lat="47.44837" lon="6.73433">
        <ele>460</ele>
        <time>2016-12-18T09:26:11.000Z</time>
      </trkpt>
      <trkpt lat="47.44838" lon="6.73431">
        <ele>460</ele>
        <time>2016-12-18T09:26:12.000Z</time>
      </trkpt>
      <trkpt lat="47.4484" lon="6.73429">
        <ele>460</ele>
        <time>2016-12-18T09:26:13.000Z</time>
      </trkpt>
      <trkpt lat="47.44842" lon="6.73427">
        <ele>460</ele>
        <time>2016-12-18T09:26:14.000Z</time>
      </trkpt>
      <trkpt lat="47.44844" lon="6.73423">
        <ele>460</ele>
        <time>2016-12-18T09:26:15.000Z</time>
      </trkpt>
      <trkpt lat="47.44844" lon="6.73421">
        <ele>460</ele>
        <time>2016-12-18T09:26:16.000Z</time>
      </trkpt>
      <trkpt lat="47.44845" lon="6.73415">
        <ele>461</ele>
        <time>2016-12-18T09:26:18.000Z</time>
      </trkpt>
      <trkpt lat="47.44844" lon="6.73414">
        <ele>461</ele>
        <time>2016-12-18T09:26:19.000Z</time>
      </trkpt>
      <trkpt lat="47.44844" lon="6.7341">
        <ele>461</ele>
        <time>2016-12-18T09:26:21.000Z</time>
      </trkpt>
      <trkpt lat="47.44844" lon="6.73406">
        <ele>461</ele>
        <time>2016-12-18T09:26:22.000Z</time>
      </trkpt>
      <trkpt lat="47.44843" lon="6.734">
        <ele>461</ele>
        <time>2016-12-18T09:26:24.000Z</time>
      </trkpt>
      <trkpt lat="47.44843" lon="6.73398">
        <ele>461</ele>
        <time>2016-12-18T09:26:25.000Z</time>
      </trkpt>
      <trkpt lat="47.44843" lon="6.73394">
        <ele>460</ele>
        <time>2016-12-18T09:26:28.000Z</time>
      </trkpt>
      <trkpt lat="47.44843" lon="6.73391">
        <ele>460</ele>
        <time>2016-12-18T09:26:29.000Z</time>
      </trkpt>
      <trkpt lat="47.44842" lon="6.73386">
        <ele>460</ele>
        <time>2016-12-18T09:26:32.000Z</time>
      </trkpt>
      <trkpt lat="47.44841" lon="6.73384">
        <ele>460</ele>
        <time>2016-12-18T09:26:33.000Z</time>
      </trkpt>
      <trkpt lat="47.44839" lon="6.73378">
        <ele>461</ele>
        <time>2016-12-18T09:26:35.000Z</time>
      </trkpt>
      <trkpt lat="47.44838" lon="6.73376">
        <ele>461</ele>
        <time>2016-12-18T09:26:36.000Z</time>
      </trkpt>
      <trkpt lat="47.44836" lon="6.73373">
        <ele>461</ele>
        <time>2016-12-18T09:26:37.000Z</time>
      </trkpt>
      <trkpt lat="47.44836" lon="6.73369">
        <ele>461</ele>
        <time>2016-12-18T09:26:38.000Z</time>
      </trkpt>
      <trkpt lat="47.44835" lon="6.73365">
        <ele>461</ele>
        <time>2016-12-18T09:26:39.000Z</time>
      </trkpt>
      <trkpt lat="47.44834" lon="6.73361">
        <ele>461</ele>
        <time>2016-12-18T09:26:40.000Z</time>
      </trkpt>
      <trkpt lat="47.44834" lon="6.73356">
        <ele>462</ele>
        <time>2016-12-18T09:26:43.000Z</time>
      </trkpt>
      <trkpt lat="47.44834" lon="6.73354">
        <ele>462</ele>
        <time>2016-12-18T09:26:44.000Z</time>
      </trkpt>
      <trkpt lat="47.44836" lon="6.73349">
        <ele>462</ele>
        <time>2016-12-18T09:26:47.000Z</time>
      </trkpt>
      <trkpt lat="47.44838" lon="6.73345">
        <ele>463</ele>
        <time>2016-12-18T09:26:48.000Z</time>
      </trkpt>
      <trkpt lat="47.4484" lon="6.73342">
        <ele>463</ele>
        <time>2016-12-18T09:26:49.000Z</time>
      </trkpt>
      <trkpt lat="47.44841" lon="6.73339">
        <ele>463</ele>
        <time>2016-12-18T09:26:50.000Z</time>
      </trkpt>
      <trkpt lat="47.44843" lon="6.73335">
        <ele>463</ele>
        <time>2016-12-18T09:26:53.000Z</time>
      </trkpt>
      <trkpt lat="47.44843" lon="6.73332">
        <ele>463</ele>
        <time>2016-12-18T09:26:54.000Z</time>
      </trkpt>
      <trkpt lat="47.44844" lon="6.73328">
        <ele>463</ele>
        <time>2016-12-18T09:26:57.000Z</time>
      </trkpt>
      <trkpt lat="47.44846" lon="6.73325">
        <ele>462</ele>
        <time>2016-12-18T09:26:58.000Z</time>
      </trkpt>
      <trkpt lat="47.44848" lon="6.73323">
        <ele>462</ele>
        <time>2016-12-18T09:27:00.000Z</time>
      </trkpt>
      <trkpt lat="47.4485" lon="6.73321">
        <ele>462</ele>
        <time>2016-12-18T09:27:01.000Z</time>
      </trkpt>
      <trkpt lat="47.44851" lon="6.73315">
        <ele>461</ele>
        <time>2016-12-18T09:27:03.000Z</time>
      </trkpt>
      <trkpt lat="47.44851" lon="6.73312">
        <ele>461</ele>
        <time>2016-12-18T09:27:04.000Z</time>
      </trkpt>
      <trkpt lat="47.44851" lon="6.73307">
        <ele>461</ele>
        <time>2016-12-18T09:27:08.000Z</time>
      </trkpt>
      <trkpt lat="47.44851" lon="6.73305">
        <ele>461</ele>
        <time>2016-12-18T09:27:09.000Z</time>
      </trkpt>
      <trkpt lat="47.44851" lon="6.73301">
        <ele>461</ele>
        <time>2016-12-18T09:27:11.000Z</time>
      </trkpt>
      <trkpt lat="47.44851" lon="6.73299">
        <ele>461</ele>
        <time>2016-12-18T09:27:12.000Z</time>
      </trkpt>
      <trkpt lat="47.44851" lon="6.73295">
        <ele>461</ele>
        <time>2016-12-18T09:27:13.000Z</time>
      </trkpt>
      <trkpt lat="47.44851" lon="6.73291">
        <ele>461</ele>
        <time>2016-12-18T09:27:14.000Z</time>
      </trkpt>
      <trkpt lat="47.44851" lon="6.73288">
        <ele>461</ele>
        <time>2016-12-18T09:27:15.000Z</time>
      </trkpt>
      <trkpt lat="47.44851" lon="6.73284">
        <ele>461</ele>
        <time>2016-12-18T09:27:16.000Z</time>
      </trkpt>
      <trkpt lat="47.44852" lon="6.73278">
        <ele>461</ele>
        <time>2016-12-18T09:27:18.000Z</time>
      </trkpt>
      <trkpt lat="47.44852" lon="6.73275">
        <ele>461</ele>
        <time>2016-12-18T09:27:19.000Z</time>
      </trkpt>
      <trkpt lat="47.44853" lon="6.7327">
        <ele>461</ele>
        <time>2016-12-18T09:27:22.000Z</time>
      </trkpt>
      <trkpt lat="47.44853" lon="6.73266">
        <ele>462</ele>
        <time>2016-12-18T09:27:23.000Z</time>
      </trkpt>
      <trkpt lat="47.44853" lon="6.73263">
        <ele>462</ele>
        <time>2016-12-18T09:27:24.000Z</time>
      </trkpt>
      <trkpt lat="47.44853" lon="6.73257">
        <ele>462</ele>
        <time>2016-12-18T09:27:25.000Z</time>
      </trkpt>
      <trkpt lat="47.44853" lon="6.73253">
        <ele>462</ele>
        <time>2016-12-18T09:27:26.000Z</time>
      </trkpt>
      <trkpt lat="47.44852" lon="6.73249">
        <ele>462</ele>
        <time>2016-12-18T09:27:27.000Z</time>
      </trkpt>
      <trkpt lat="47.44853" lon="6.73245">
        <ele>462</ele>
        <time>2016-12-18T09:27:29.000Z</time>
      </trkpt>
      <trkpt lat="47.44853" lon="6.7324">
        <ele>461</ele>
        <time>2016-12-18T09:27:30.000Z</time>
      </trkpt>
      <trkpt lat="47.44853" lon="6.73235">
        <ele>461</ele>
        <time>2016-12-18T09:27:31.000Z</time>
      </trkpt>
      <trkpt lat="47.44852" lon="6.73231">
        <ele>461</ele>
        <time>2016-12-18T09:27:32.000Z</time>
      </trkpt>
      <trkpt lat="47.44851" lon="6.73226">
        <ele>461</ele>
        <time>2016-12-18T09:27:33.000Z</time>
      </trkpt>
      <trkpt lat="47.44851" lon="6.73223">
        <ele>461</ele>
        <time>2016-12-18T09:27:34.000Z</time>
      </trkpt>
      <trkpt lat="47.44851" lon="6.7322">
        <ele>460</ele>
        <time>2016-12-18T09:27:35.000Z</time>
      </trkpt>
      <trkpt lat="47.44851" lon="6.73214">
        <ele>460</ele>
        <time>2016-12-18T09:27:36.000Z</time>
      </trkpt>
      <trkpt lat="47.44851" lon="6.7321">
        <ele>460</ele>
        <time>2016-12-18T09:27:37.000Z</time>
      </trkpt>
      <trkpt lat="47.4485" lon="6.73206">
        <ele>460</ele>
        <time>2016-12-18T09:27:38.000Z</time>
      </trkpt>
      <trkpt lat="47.4485" lon="6.73201">
        <ele>460</ele>
        <time>2016-12-18T09:27:39.000Z</time>
      </trkpt>
      <trkpt lat="47.44849" lon="6.73198">
        <ele>460</ele>
        <time>2016-12-18T09:27:40.000Z</time>
      </trkpt>
      <trkpt lat="47.44848" lon="6.73193">
        <ele>461</ele>
        <time>2016-12-18T09:27:42.000Z</time>
      </trkpt>
      <trkpt lat="47.44848" lon="6.73191">
        <ele>461</ele>
        <time>2016-12-18T09:27:43.000Z</time>
      </trkpt>
      <trkpt lat="47.44848" lon="6.73187">
        <ele>461</ele>
        <time>2016-12-18T09:27:45.000Z</time>
      </trkpt>
      <trkpt lat="47.44848" lon="6.7318">
        <ele>461</ele>
        <time>2016-12-18T09:27:46.000Z</time>
      </trkpt>
      <trkpt lat="47.44848" lon="6.73175">
        <ele>462</ele>
        <time>2016-12-18T09:27:47.000Z</time>
      </trkpt>
      <trkpt lat="47.44849" lon="6.73169">
        <ele>462</ele>
        <time>2016-12-18T09:27:48.000Z</time>
      </trkpt>
      <trkpt lat="47.44849" lon="6.73164">
        <ele>461</ele>
        <time>2016-12-18T09:27:49.000Z</time>
      </trkpt>
      <trkpt lat="47.4485" lon="6.73158">
        <ele>461</ele>
        <time>2016-12-18T09:27:50.000Z</time>
      </trkpt>
      <trkpt lat="47.4485" lon="6.73153">
        <ele>461</ele>
        <time>2016-12-18T09:27:51.000Z</time>
      </trkpt>
      <trkpt lat="47.4485" lon="6.73146">
        <ele>460</ele>
        <time>2016-12-18T09:27:52.000Z</time>
      </trkpt>
      <trkpt lat="47.44849" lon="6.73141">
        <ele>460</ele>
        <time>2016-12-18T09:27:53.000Z</time>
      </trkpt>
      <trkpt lat="47.44849" lon="6.73138">
        <ele>460</ele>
        <time>2016-12-18T09:27:54.000Z</time>
      </trkpt>
      <trkpt lat="47.44849" lon="6.73134">
        <ele>460</ele>
        <time>2016-12-18T09:27:55.000Z</time>
      </trkpt>
      <trkpt lat="47.44848" lon="6.73131">
        <ele>460</ele>
        <time>2016-12-18T09:27:56.000Z</time>
      </trkpt>
      <trkpt lat="47.44848" lon="6.73124">
        <ele>460</ele>
        <time>2016-12-18T09:27:57.000Z</time>
      </trkpt>
      <trkpt lat="47.44848" lon="6.73122">
        <ele>460</ele>
        <time>2016-12-18T09:27:58.000Z</time>
      </trkpt>
      <trkpt lat="47.44849" lon="6.73116">
        <ele>460</ele>
        <time>2016-12-18T09:28:00.000Z</time>
      </trkpt>
      <trkpt lat="47.4485" lon="6.73111">
        <ele>460</ele>
        <time>2016-12-18T09:28:01.000Z</time>
      </trkpt>
      <trkpt lat="47.4485" lon="6.73107">
        <ele>460</ele>
        <time>2016-12-18T09:28:02.000Z</time>
      </trkpt>
      <trkpt lat="47.44851" lon="6.73103">
        <ele>460</ele>
        <time>2016-12-18T09:28:03.000Z</time>
      </trkpt>
      <trkpt lat="47.44851" lon="6.73098">
        <ele>461</ele>
        <time>2016-12-18T09:28:04.000Z</time>
      </trkpt>
      <trkpt lat="47.44852" lon="6.73093">
        <ele>461</ele>
        <time>2016-12-18T09:28:05.000Z</time>
      </trkpt>
      <trkpt lat="47.44853" lon="6.73089">
        <ele>461</ele>
        <time>2016-12-18T09:28:06.000Z</time>
      </trkpt>
      <trkpt lat="47.44853" lon="6.73085">
        <ele>461</ele>
        <time>2016-12-18T09:28:07.000Z</time>
      </trkpt>
      <trkpt lat="47.44855" lon="6.73079">
        <ele>461</ele>
        <time>2016-12-18T09:28:09.000Z</time>
      </trkpt>
      <trkpt lat="47.44856" lon="6.73076">
        <ele>461</ele>
        <time>2016-12-18T09:28:10.000Z</time>
      </trkpt>
      <trkpt lat="47.44856" lon="6.73072">
        <ele>461</ele>
        <time>2016-12-18T09:28:11.000Z</time>
      </trkpt>
      <trkpt lat="47.44857" lon="6.73066">
        <ele>460</ele>
        <time>2016-12-18T09:28:12.000Z</time>
      </trkpt>
      <trkpt lat="47.44857" lon="6.73062">
        <ele>460</ele>
        <time>2016-12-18T09:28:13.000Z</time>
      </trkpt>
      <trkpt lat="47.44857" lon="6.73057">
        <ele>460</ele>
        <time>2016-12-18T09:28:14.000Z</time>
      </trkpt>
      <trkpt lat="47.44857" lon="6.73053">
        <ele>460</ele>
        <time>2016-12-18T09:28:15.000Z</time>
      </trkpt>
      <trkpt lat="47.44857" lon="6.73049">
        <ele>460</ele>
        <time>2016-12-18T09:28:16.000Z</time>
      </trkpt>
      <trkpt lat="47.44858" lon="6.73045">
        <ele>460</ele>
        <time>2016-12-18T09:28:17.000Z</time>
      </trkpt>
      <trkpt lat="47.44858" lon="6.73043">
        <ele>460</ele>
        <time>2016-12-18T09:28:18.000Z</time>
      </trkpt>
      <trkpt lat="47.44858" lon="6.73037">
        <ele>460</ele>
        <time>2016-12-18T09:28:19.000Z</time>
      </trkpt>
      <trkpt lat="47.4486" lon="6.73033">
        <ele>460</ele>
        <time>2016-12-18T09:28:20.000Z</time>
      </trkpt>
      <trkpt lat="47.44862" lon="6.73029">
        <ele>460</ele>
        <time>2016-12-18T09:28:21.000Z</time>
      </trkpt>
      <trkpt lat="47.44862" lon="6.73026">
        <ele>460</ele>
        <time>2016-12-18T09:28:22.000Z</time>
      </trkpt>
      <trkpt lat="47.44864" lon="6.73021">
        <ele>460</ele>
        <time>2016-12-18T09:28:24.000Z</time>
      </trkpt>
      <trkpt lat="47.44865" lon="6.73019">
        <ele>460</ele>
        <time>2016-12-18T09:28:25.000Z</time>
      </trkpt>
      <trkpt lat="47.44866" lon="6.73015">
        <ele>460</ele>
        <time>2016-12-18T09:28:26.000Z</time>
      </trkpt>
      <trkpt lat="47.44866" lon="6.73012">
        <ele>460</ele>
        <time>2016-12-18T09:28:27.000Z</time>
      </trkpt>
      <trkpt lat="47.44864" lon="6.73007">
        <ele>460</ele>
        <time>2016-12-18T09:28:33.000Z</time>
      </trkpt>
      <trkpt lat="47.44863" lon="6.73005">
        <ele>460</ele>
        <time>2016-12-18T09:28:34.000Z</time>
      </trkpt>
      <trkpt lat="47.44861" lon="6.73002">
        <ele>460</ele>
        <time>2016-12-18T09:28:35.000Z</time>
      </trkpt>
      <trkpt lat="47.4486" lon="6.72999">
        <ele>461</ele>
        <time>2016-12-18T09:28:36.000Z</time>
      </trkpt>
      <trkpt lat="47.44858" lon="6.72995">
        <ele>461</ele>
        <time>2016-12-18T09:28:37.000Z</time>
      </trkpt>
      <trkpt lat="47.44856" lon="6.72992">
        <ele>461</ele>
        <time>2016-12-18T09:28:38.000Z</time>
      </trkpt>
      <trkpt lat="47.44852" lon="6.7299">
        <ele>462</ele>
        <time>2016-12-18T09:28:40.000Z</time>
      </trkpt>
      <trkpt lat="47.4485" lon="6.72988">
        <ele>462</ele>
        <time>2016-12-18T09:28:41.000Z</time>
      </trkpt>
      <trkpt lat="47.44847" lon="6.72986">
        <ele>462</ele>
        <time>2016-12-18T09:28:43.000Z</time>
      </trkpt>
      <trkpt lat="47.44845" lon="6.72986">
        <ele>462</ele>
        <time>2016-12-18T09:28:44.000Z</time>
      </trkpt>
      <trkpt lat="47.44843" lon="6.72985">
        <ele>462</ele>
        <time>2016-12-18T09:28:45.000Z</time>
      </trkpt>
      <trkpt lat="47.4484" lon="6.72984">
        <ele>462</ele>
        <time>2016-12-18T09:28:46.000Z</time>
      </trkpt>
      <trkpt lat="47.44837" lon="6.72982">
        <ele>462</ele>
        <time>2016-12-18T09:28:47.000Z</time>
      </trkpt>
      <trkpt lat="47.44835" lon="6.7298">
        <ele>462</ele>
        <time>2016-12-18T09:28:48.000Z</time>
      </trkpt>
      <trkpt lat="47.44833" lon="6.72978">
        <ele>467</ele>
        <time>2016-12-18T09:28:49.000Z</time>
      </trkpt>
      <trkpt lat="47.4483" lon="6.72976">
        <ele>467</ele>
        <time>2016-12-18T09:28:50.000Z</time>
      </trkpt>
      <trkpt lat="47.44826" lon="6.72974">
        <ele>468</ele>
        <time>2016-12-18T09:28:52.000Z</time>
      </trkpt>
      <trkpt lat="47.44824" lon="6.72973">
        <ele>468</ele>
        <time>2016-12-18T09:28:53.000Z</time>
      </trkpt>
      <trkpt lat="47.4482" lon="6.72969">
        <ele>468</ele>
        <time>2016-12-18T09:28:55.000Z</time>
      </trkpt>
      <trkpt lat="47.44819" lon="6.72969">
        <ele>468</ele>
        <time>2016-12-18T09:28:56.000Z</time>
      </trkpt>
      <trkpt lat="47.44816" lon="6.72966">
        <ele>468</ele>
        <time>2016-12-18T09:28:59.000Z</time>
      </trkpt>
      <trkpt lat="47.44815" lon="6.72965">
        <ele>468</ele>
        <time>2016-12-18T09:29:00.000Z</time>
      </trkpt>
      <trkpt lat="47.44812" lon="6.72965">
        <ele>468</ele>
        <time>2016-12-18T09:29:01.000Z</time>
      </trkpt>
      <trkpt lat="47.4481" lon="6.72964">
        <ele>469</ele>
        <time>2016-12-18T09:29:02.000Z</time>
      </trkpt>
      <trkpt lat="47.44808" lon="6.72964">
        <ele>469</ele>
        <time>2016-12-18T09:29:03.000Z</time>
      </trkpt>
      <trkpt lat="47.44805" lon="6.72964">
        <ele>469</ele>
        <time>2016-12-18T09:29:04.000Z</time>
      </trkpt>
      <trkpt lat="47.44802" lon="6.72964">
        <ele>469</ele>
        <time>2016-12-18T09:29:05.000Z</time>
      </trkpt>
      <trkpt lat="47.44801" lon="6.72964">
        <ele>469</ele>
        <time>2016-12-18T09:29:06.000Z</time>
      </trkpt>
      <trkpt lat="47.44797" lon="6.72964">
        <ele>469</ele>
        <time>2016-12-18T09:29:09.000Z</time>
      </trkpt>
      <trkpt lat="47.44795" lon="6.72964">
        <ele>469</ele>
        <time>2016-12-18T09:29:10.000Z</time>
      </trkpt>
      <trkpt lat="47.44792" lon="6.72964">
        <ele>470</ele>
        <time>2016-12-18T09:29:11.000Z</time>
      </trkpt>
      <trkpt lat="47.4479" lon="6.72964">
        <ele>470</ele>
        <time>2016-12-18T09:29:12.000Z</time>
      </trkpt>
      <trkpt lat="47.44787" lon="6.72962">
        <ele>470</ele>
        <time>2016-12-18T09:29:13.000Z</time>
      </trkpt>
      <trkpt lat="47.44784" lon="6.72962">
        <ele>470</ele>
        <time>2016-12-18T09:29:14.000Z</time>
      </trkpt>
      <trkpt lat="47.44781" lon="6.72962">
        <ele>470</ele>
        <time>2016-12-18T09:29:15.000Z</time>
      </trkpt>
      <trkpt lat="47.44777" lon="6.7296">
        <ele>471</ele>
        <time>2016-12-18T09:29:16.000Z</time>
      </trkpt>
      <trkpt lat="47.44775" lon="6.72958">
        <ele>471</ele>
        <time>2016-12-18T09:29:18.000Z</time>
      </trkpt>
      <trkpt lat="47.44773" lon="6.72957">
        <ele>471</ele>
        <time>2016-12-18T09:29:19.000Z</time>
      </trkpt>
      <trkpt lat="47.4477" lon="6.72956">
        <ele>471</ele>
        <time>2016-12-18T09:29:21.000Z</time>
      </trkpt>
      <trkpt lat="47.44767" lon="6.72955">
        <ele>471</ele>
        <time>2016-12-18T09:29:22.000Z</time>
      </trkpt>
      <trkpt lat="47.44765" lon="6.72955">
        <ele>471</ele>
        <time>2016-12-18T09:29:23.000Z</time>
      </trkpt>
      <trkpt lat="47.44762" lon="6.72954">
        <ele>471</ele>
        <time>2016-12-18T09:29:24.000Z</time>
      </trkpt>
      <trkpt lat="47.4476" lon="6.72954">
        <ele>471</ele>
        <time>2016-12-18T09:29:25.000Z</time>
      </trkpt>
      <trkpt lat="47.44757" lon="6.72951">
        <ele>472</ele>
        <time>2016-12-18T09:29:26.000Z</time>
      </trkpt>
      <trkpt lat="47.44754" lon="6.72948">
        <ele>472</ele>
        <time>2016-12-18T09:29:28.000Z</time>
      </trkpt>
      <trkpt lat="47.44753" lon="6.72949">
        <ele>472</ele>
        <time>2016-12-18T09:29:29.000Z</time>
      </trkpt>
      <trkpt lat="47.44749" lon="6.7295">
        <ele>476</ele>
        <time>2016-12-18T09:29:32.000Z</time>
      </trkpt>
      <trkpt lat="47.44747" lon="6.72951">
        <ele>476</ele>
        <time>2016-12-18T09:29:33.000Z</time>
      </trkpt>
      <trkpt lat="47.44744" lon="6.72952">
        <ele>476</ele>
        <time>2016-12-18T09:29:35.000Z</time>
      </trkpt>
      <trkpt lat="47.44742" lon="6.72953">
        <ele>476</ele>
        <time>2016-12-18T09:29:36.000Z</time>
      </trkpt>
      <trkpt lat="47.44739" lon="6.72955">
        <ele>476</ele>
        <time>2016-12-18T09:29:38.000Z</time>
      </trkpt>
      <trkpt lat="47.44736" lon="6.72959">
        <ele>476</ele>
        <time>2016-12-18T09:29:39.000Z</time>
      </trkpt>
      <trkpt lat="47.44733" lon="6.72962">
        <ele>476</ele>
        <time>2016-12-18T09:29:41.000Z</time>
      </trkpt>
      <trkpt lat="47.44732" lon="6.72964">
        <ele>476</ele>
        <time>2016-12-18T09:29:42.000Z</time>
      </trkpt>
      <trkpt lat="47.44729" lon="6.72966">
        <ele>476</ele>
        <time>2016-12-18T09:29:44.000Z</time>
      </trkpt>
      <trkpt lat="47.44728" lon="6.72969">
        <ele>476</ele>
        <time>2016-12-18T09:29:45.000Z</time>
      </trkpt>
      <trkpt lat="47.44724" lon="6.72972">
        <ele>476</ele>
        <time>2016-12-18T09:29:47.000Z</time>
      </trkpt>
      <trkpt lat="47.44723" lon="6.72973">
        <ele>476</ele>
        <time>2016-12-18T09:29:48.000Z</time>
      </trkpt>
      <trkpt lat="47.44721" lon="6.72977">
        <ele>476</ele>
        <time>2016-12-18T09:29:50.000Z</time>
      </trkpt>
      <trkpt lat="47.44718" lon="6.7298">
        <ele>476</ele>
        <time>2016-12-18T09:29:51.000Z</time>
      </trkpt>
      <trkpt lat="47.44717" lon="6.72982">
        <ele>476</ele>
        <time>2016-12-18T09:29:52.000Z</time>
      </trkpt>
      <trkpt lat="47.44712" lon="6.72988">
        <ele>476</ele>
        <time>2016-12-18T09:29:53.000Z</time>
      </trkpt>
      <trkpt lat="47.44709" lon="6.72991">
        <ele>476</ele>
        <time>2016-12-18T09:29:54.000Z</time>
      </trkpt>
      <trkpt lat="47.44706" lon="6.72995">
        <ele>477</ele>
        <time>2016-12-18T09:29:55.000Z</time>
      </trkpt>
      <trkpt lat="47.44704" lon="6.72996">
        <ele>477</ele>
        <time>2016-12-18T09:29:56.000Z</time>
      </trkpt>
      <trkpt lat="47.44702" lon="6.72998">
        <ele>477</ele>
        <time>2016-12-18T09:29:57.000Z</time>
      </trkpt>
      <trkpt lat="47.44698" lon="6.73002">
        <ele>475</ele>
        <time>2016-12-18T09:29:59.000Z</time>
      </trkpt>
      <trkpt lat="47.44696" lon="6.73004">
        <ele>475</ele>
        <time>2016-12-18T09:30:00.000Z</time>
      </trkpt>
      <trkpt lat="47.44694" lon="6.73005">
        <ele>475</ele>
        <time>2016-12-18T09:30:01.000Z</time>
      </trkpt>
      <trkpt lat="47.44691" lon="6.73006">
        <ele>475</ele>
        <time>2016-12-18T09:30:02.000Z</time>
      </trkpt>
      <trkpt lat="47.44686" lon="6.73007">
        <ele>475</ele>
        <time>2016-12-18T09:30:08.000Z</time>
      </trkpt>
      <trkpt lat="47.44686" lon="6.73007">
        <ele>476</ele>
        <time>2016-12-18T09:30:09.000Z</time>
      </trkpt>
      <trkpt lat="47.44688" lon="6.7301">
        <ele>475</ele>
        <time>2016-12-18T09:30:21.000Z</time>
      </trkpt>
      <trkpt lat="47.44689" lon="6.73012">
        <ele>475</ele>
        <time>2016-12-18T09:30:22.000Z</time>
      </trkpt>
      <trkpt lat="47.44687" lon="6.73017">
        <ele>475</ele>
        <time>2016-12-18T09:30:23.000Z</time>
      </trkpt>
      <trkpt lat="47.44687" lon="6.7302">
        <ele>475</ele>
        <time>2016-12-18T09:30:24.000Z</time>
      </trkpt>
      <trkpt lat="47.44683" lon="6.73022">
        <ele>475</ele>
        <time>2016-12-18T09:30:47.000Z</time>
      </trkpt>
      <trkpt lat="47.44682" lon="6.73022">
        <ele>475</ele>
        <time>2016-12-18T09:30:48.000Z</time>
      </trkpt>
      <trkpt lat="47.4468" lon="6.73022">
        <ele>475</ele>
        <time>2016-12-18T09:30:50.000Z</time>
      </trkpt>
      <trkpt lat="47.44678" lon="6.73022">
        <ele>475</ele>
        <time>2016-12-18T09:30:51.000Z</time>
      </trkpt>
      <trkpt lat="47.44675" lon="6.73021">
        <ele>475</ele>
        <time>2016-12-18T09:30:52.000Z</time>
      </trkpt>
      <trkpt lat="47.44672" lon="6.73023">
        <ele>475</ele>
        <time>2016-12-18T09:30:53.000Z</time>
      </trkpt>
      <trkpt lat="47.44669" lon="6.73025">
        <ele>475</ele>
        <time>2016-12-18T09:30:54.000Z</time>
      </trkpt>
      <trkpt lat="47.44666" lon="6.73027">
        <ele>475</ele>
        <time>2016-12-18T09:30:55.000Z</time>
      </trkpt>
      <trkpt lat="47.44663" lon="6.73026">
        <ele>475</ele>
        <time>2016-12-18T09:30:56.000Z</time>
      </trkpt>
      <trkpt lat="47.44659" lon="6.73026">
        <ele>475</ele>
        <time>2016-12-18T09:30:57.000Z</time>
      </trkpt>
      <trkpt lat="47.44656" lon="6.73027">
        <ele>475</ele>
        <time>2016-12-18T09:30:58.000Z</time>
      </trkpt>
      <trkpt lat="47.44653" lon="6.73029">
        <ele>475</ele>
        <time>2016-12-18T09:30:59.000Z</time>
      </trkpt>
      <trkpt lat="47.44649" lon="6.7303">
        <ele>475</ele>
        <time>2016-12-18T09:31:00.000Z</time>
      </trkpt>
      <trkpt lat="47.44646" lon="6.7303">
        <ele>474</ele>
        <time>2016-12-18T09:31:01.000Z</time>
      </trkpt>
      <trkpt lat="47.44643" lon="6.7303">
        <ele>474</ele>
        <time>2016-12-18T09:31:02.000Z</time>
      </trkpt>
      <trkpt lat="47.44641" lon="6.7303">
        <ele>474</ele>
        <time>2016-12-18T09:31:03.000Z</time>
      </trkpt>
      <trkpt lat="47.44637" lon="6.73031">
        <ele>474</ele>
        <time>2016-12-18T09:31:05.000Z</time>
      </trkpt>
      <trkpt lat="47.44636" lon="6.73031">
        <ele>474</ele>
        <time>2016-12-18T09:31:06.000Z</time>
      </trkpt>
      <trkpt lat="47.44632" lon="6.73032">
        <ele>474</ele>
        <time>2016-12-18T09:31:08.000Z</time>
      </trkpt>
      <trkpt lat="47.44631" lon="6.73032">
        <ele>474</ele>
        <time>2016-12-18T09:31:09.000Z</time>
      </trkpt>
      <trkpt lat="47.44627" lon="6.73031">
        <ele>474</ele>
        <time>2016-12-18T09:31:12.000Z</time>
      </trkpt>
      <trkpt lat="47.44625" lon="6.7303">
        <ele>474</ele>
        <time>2016-12-18T09:31:13.000Z</time>
      </trkpt>
      <trkpt lat="47.44622" lon="6.73031">
        <ele>474</ele>
        <time>2016-12-18T09:31:18.000Z</time>
      </trkpt>
      <trkpt lat="47.44621" lon="6.73033">
        <ele>474</ele>
        <time>2016-12-18T09:31:19.000Z</time>
      </trkpt>
      <trkpt lat="47.44618" lon="6.73032">
        <ele>474</ele>
        <time>2016-12-18T09:31:24.000Z</time>
      </trkpt>
      <trkpt lat="47.44616" lon="6.73031">
        <ele>474</ele>
        <time>2016-12-18T09:31:25.000Z</time>
      </trkpt>
      <trkpt lat="47.44611" lon="6.73031">
        <ele>474</ele>
        <time>2016-12-18T09:31:35.000Z</time>
      </trkpt>
      <trkpt lat="47.44609" lon="6.7303">
        <ele>474</ele>
        <time>2016-12-18T09:31:36.000Z</time>
      </trkpt>
      <trkpt lat="47.44605" lon="6.73028">
        <ele>474</ele>
        <time>2016-12-18T09:31:39.000Z</time>
      </trkpt>
      <trkpt lat="47.44603" lon="6.73029">
        <ele>474</ele>
        <time>2016-12-18T09:31:40.000Z</time>
      </trkpt>
      <trkpt lat="47.446" lon="6.73031">
        <ele>474</ele>
        <time>2016-12-18T09:31:41.000Z</time>
      </trkpt>
      <trkpt lat="47.44597" lon="6.73032">
        <ele>473</ele>
        <time>2016-12-18T09:31:42.000Z</time>
      </trkpt>
      <trkpt lat="47.44593" lon="6.73034">
        <ele>473</ele>
        <time>2016-12-18T09:31:43.000Z</time>
      </trkpt>
      <trkpt lat="47.4459" lon="6.73035">
        <ele>473</ele>
        <time>2016-12-18T09:31:44.000Z</time>
      </trkpt>
      <trkpt lat="47.44587" lon="6.73036">
        <ele>473</ele>
        <time>2016-12-18T09:31:45.000Z</time>
      </trkpt>
      <trkpt lat="47.44584" lon="6.73037">
        <ele>473</ele>
        <time>2016-12-18T09:31:46.000Z</time>
      </trkpt>
      <trkpt lat="47.4458" lon="6.73036">
        <ele>469</ele>
        <time>2016-12-18T09:31:48.000Z</time>
      </trkpt>
      <trkpt lat="47.44578" lon="6.73036">
        <ele>469</ele>
        <time>2016-12-18T09:31:49.000Z</time>
      </trkpt>
      <trkpt lat="47.44574" lon="6.73035">
        <ele>469</ele>
        <time>2016-12-18T09:31:51.000Z</time>
      </trkpt>
      <trkpt lat="47.44572" lon="6.73034">
        <ele>469</ele>
        <time>2016-12-18T09:31:52.000Z</time>
      </trkpt>
      <trkpt lat="47.44567" lon="6.73033">
        <ele>469</ele>
        <time>2016-12-18T09:31:54.000Z</time>
      </trkpt>
      <trkpt lat="47.44565" lon="6.73033">
        <ele>468</ele>
        <time>2016-12-18T09:31:55.000Z</time>
      </trkpt>
      <trkpt lat="47.44561" lon="6.73031">
        <ele>468</ele>
        <time>2016-12-18T09:31:58.000Z</time>
      </trkpt>
      <trkpt lat="47.44561" lon="6.73031">
        <ele>468</ele>
        <time>2016-12-18T09:31:59.000Z</time>
      </trkpt>
      <trkpt lat="47.44558" lon="6.73035">
        <ele>468</ele>
        <time>2016-12-18T09:32:17.000Z</time>
      </trkpt>
      <trkpt lat="47.44558" lon="6.73037">
        <ele>468</ele>
        <time>2016-12-18T09:32:18.000Z</time>
      </trkpt>
      <trkpt lat="47.44561" lon="6.73033">
        <ele>468</ele>
        <time>2016-12-18T09:32:33.000Z</time>
      </trkpt>
      <trkpt lat="47.44563" lon="6.73034">
        <ele>468</ele>
        <time>2016-12-18T09:32:34.000Z</time>
      </trkpt>
      <trkpt lat="47.44566" lon="6.73033">
        <ele>469</ele>
        <time>2016-12-18T09:32:37.000Z</time>
      </trkpt>
      <trkpt lat="47.44569" lon="6.73033">
        <ele>469</ele>
        <time>2016-12-18T09:32:38.000Z</time>
      </trkpt>
      <trkpt lat="47.44572" lon="6.73034">
        <ele>469</ele>
        <time>2016-12-18T09:32:39.000Z</time>
      </trkpt>
      <trkpt lat="47.44575" lon="6.73035">
        <ele>469</ele>
        <time>2016-12-18T09:32:40.000Z</time>
      </trkpt>
      <trkpt lat="47.44578" lon="6.73036">
        <ele>469</ele>
        <time>2016-12-18T09:32:41.000Z</time>
      </trkpt>
      <trkpt lat="47.44583" lon="6.73038">
        <ele>469</ele>
        <time>2016-12-18T09:32:42.000Z</time>
      </trkpt>
      <trkpt lat="47.44586" lon="6.7304">
        <ele>473</ele>
        <time>2016-12-18T09:32:45.000Z</time>
      </trkpt>
      <trkpt lat="47.44588" lon="6.7304">
        <ele>473</ele>
        <time>2016-12-18T09:32:46.000Z</time>
      </trkpt>
      <trkpt lat="47.44591" lon="6.73039">
        <ele>473</ele>
        <time>2016-12-18T09:32:48.000Z</time>
      </trkpt>
      <trkpt lat="47.44593" lon="6.7304">
        <ele>473</ele>
        <time>2016-12-18T09:32:49.000Z</time>
      </trkpt>
      <trkpt lat="47.44597" lon="6.73037">
        <ele>473</ele>
        <time>2016-12-18T09:32:55.000Z</time>
      </trkpt>
      <trkpt lat="47.446" lon="6.73038">
        <ele>473</ele>
        <time>2016-12-18T09:32:56.000Z</time>
      </trkpt>
      <trkpt lat="47.44604" lon="6.73039">
        <ele>473</ele>
        <time>2016-12-18T09:33:01.000Z</time>
      </trkpt>
      <trkpt lat="47.44607" lon="6.7304">
        <ele>473</ele>
        <time>2016-12-18T09:33:02.000Z</time>
      </trkpt>
      <trkpt lat="47.44611" lon="6.7304">
        <ele>474</ele>
        <time>2016-12-18T09:33:03.000Z</time>
      </trkpt>
      <trkpt lat="47.44616" lon="6.7304">
        <ele>474</ele>
        <time>2016-12-18T09:33:04.000Z</time>
      </trkpt>
      <trkpt lat="47.44619" lon="6.7304">
        <ele>474</ele>
        <time>2016-12-18T09:33:09.000Z</time>
      </trkpt>
      <trkpt lat="47.44621" lon="6.7304">
        <ele>474</ele>
        <time>2016-12-18T09:33:10.000Z</time>
      </trkpt>
      <trkpt lat="47.44625" lon="6.73039">
        <ele>474</ele>
        <time>2016-12-18T09:33:11.000Z</time>
      </trkpt>
      <trkpt lat="47.44628" lon="6.73039">
        <ele>474</ele>
        <time>2016-12-18T09:33:12.000Z</time>
      </trkpt>
      <trkpt lat="47.44631" lon="6.73039">
        <ele>474</ele>
        <time>2016-12-18T09:33:13.000Z</time>
      </trkpt>
      <trkpt lat="47.44635" lon="6.73038">
        <ele>474</ele>
        <time>2016-12-18T09:33:14.000Z</time>
      </trkpt>
      <trkpt lat="47.44637" lon="6.73037">
        <ele>474</ele>
        <time>2016-12-18T09:33:15.000Z</time>
      </trkpt>
      <trkpt lat="47.4464" lon="6.73036">
        <ele>474</ele>
        <time>2016-12-18T09:33:16.000Z</time>
      </trkpt>
      <trkpt lat="47.44643" lon="6.73035">
        <ele>474</ele>
        <time>2016-12-18T09:33:17.000Z</time>
      </trkpt>
      <trkpt lat="47.44644" lon="6.73033">
        <ele>474</ele>
        <time>2016-12-18T09:33:18.000Z</time>
      </trkpt>
      <trkpt lat="47.44647" lon="6.73032">
        <ele>474</ele>
        <time>2016-12-18T09:33:19.000Z</time>
      </trkpt>
      <trkpt lat="47.44651" lon="6.73031">
        <ele>475</ele>
        <time>2016-12-18T09:33:20.000Z</time>
      </trkpt>
      <trkpt lat="47.44659" lon="6.73028">
        <ele>475</ele>
        <time>2016-12-18T09:33:21.000Z</time>
      </trkpt>
      <trkpt lat="47.44663" lon="6.73026">
        <ele>475</ele>
        <time>2016-12-18T09:33:22.000Z</time>
      </trkpt>
      <trkpt lat="47.44667" lon="6.73025">
        <ele>475</ele>
        <time>2016-12-18T09:33:23.000Z</time>
      </trkpt>
      <trkpt lat="47.4467" lon="6.73024">
        <ele>475</ele>
        <time>2016-12-18T09:33:24.000Z</time>
      </trkpt>
      <trkpt lat="47.44671" lon="6.73024">
        <ele>475</ele>
        <time>2016-12-18T09:33:25.000Z</time>
      </trkpt>
      <trkpt lat="47.44674" lon="6.73022">
        <ele>475</ele>
        <time>2016-12-18T09:33:27.000Z</time>
      </trkpt>
      <trkpt lat="47.44677" lon="6.73022">
        <ele>475</ele>
        <time>2016-12-18T09:33:28.000Z</time>
      </trkpt>
      <trkpt lat="47.44679" lon="6.73022">
        <ele>475</ele>
        <time>2016-12-18T09:33:29.000Z</time>
      </trkpt>
      <trkpt lat="47.44686" lon="6.7302">
        <ele>475</ele>
        <time>2016-12-18T09:33:30.000Z</time>
      </trkpt>
      <trkpt lat="47.4469" lon="6.73017">
        <ele>475</ele>
        <time>2016-12-18T09:33:32.000Z</time>
      </trkpt>
      <trkpt lat="47.44691" lon="6.73017">
        <ele>475</ele>
        <time>2016-12-18T09:33:33.000Z</time>
      </trkpt>
      <trkpt lat="47.44694" lon="6.73016">
        <ele>475</ele>
        <time>2016-12-18T09:33:34.000Z</time>
      </trkpt>
      <trkpt lat="47.44696" lon="6.73015">
        <ele>475</ele>
        <time>2016-12-18T09:33:35.000Z</time>
      </trkpt>
      <trkpt lat="47.44697" lon="6.73012">
        <ele>475</ele>
        <time>2016-12-18T09:33:36.000Z</time>
      </trkpt>
      <trkpt lat="47.44698" lon="6.73009">
        <ele>475</ele>
        <time>2016-12-18T09:33:37.000Z</time>
      </trkpt>
      <trkpt lat="47.447" lon="6.73006">
        <ele>475</ele>
        <time>2016-12-18T09:33:38.000Z</time>
      </trkpt>
      <trkpt lat="47.44702" lon="6.73003">
        <ele>475</ele>
        <time>2016-12-18T09:33:39.000Z</time>
      </trkpt>
      <trkpt lat="47.44703" lon="6.72999">
        <ele>477</ele>
        <time>2016-12-18T09:33:40.000Z</time>
      </trkpt>
      <trkpt lat="47.44703" lon="6.72995">
        <ele>477</ele>
        <time>2016-12-18T09:33:41.000Z</time>
      </trkpt>
      <trkpt lat="47.44701" lon="6.72989">
        <ele>477</ele>
        <time>2016-12-18T09:33:43.000Z</time>
      </trkpt>
      <trkpt lat="47.44699" lon="6.72986">
        <ele>477</ele>
        <time>2016-12-18T09:33:44.000Z</time>
      </trkpt>
      <trkpt lat="47.44696" lon="6.72984">
        <ele>477</ele>
        <time>2016-12-18T09:33:45.000Z</time>
      </trkpt>
      <trkpt lat="47.44694" lon="6.72982">
        <ele>477</ele>
        <time>2016-12-18T09:33:46.000Z</time>
      </trkpt>
      <trkpt lat="47.4469" lon="6.7298">
        <ele>477</ele>
        <time>2016-12-18T09:33:47.000Z</time>
      </trkpt>
      <trkpt lat="47.44688" lon="6.72977">
        <ele>477</ele>
        <time>2016-12-18T09:33:48.000Z</time>
      </trkpt>
      <trkpt lat="47.44686" lon="6.72974">
        <ele>477</ele>
        <time>2016-12-18T09:33:49.000Z</time>
      </trkpt>
      <trkpt lat="47.44684" lon="6.72972">
        <ele>477</ele>
        <time>2016-12-18T09:33:50.000Z</time>
      </trkpt>
      <trkpt lat="47.44681" lon="6.72968">
        <ele>477</ele>
        <time>2016-12-18T09:33:51.000Z</time>
      </trkpt>
      <trkpt lat="47.44678" lon="6.72963">
        <ele>477</ele>
        <time>2016-12-18T09:33:52.000Z</time>
      </trkpt>
      <trkpt lat="47.44676" lon="6.7296">
        <ele>477</ele>
        <time>2016-12-18T09:33:53.000Z</time>
      </trkpt>
      <trkpt lat="47.44673" lon="6.72956">
        <ele>477</ele>
        <time>2016-12-18T09:33:54.000Z</time>
      </trkpt>
      <trkpt lat="47.44671" lon="6.72953">
        <ele>478</ele>
        <time>2016-12-18T09:33:55.000Z</time>
      </trkpt>
      <trkpt lat="47.44669" lon="6.7295">
        <ele>478</ele>
        <time>2016-12-18T09:33:56.000Z</time>
      </trkpt>
      <trkpt lat="47.44666" lon="6.72947">
        <ele>478</ele>
        <time>2016-12-18T09:33:57.000Z</time>
      </trkpt>
      <trkpt lat="47.44665" lon="6.72943">
        <ele>478</ele>
        <time>2016-12-18T09:33:58.000Z</time>
      </trkpt>
      <trkpt lat="47.44663" lon="6.7294">
        <ele>478</ele>
        <time>2016-12-18T09:33:59.000Z</time>
      </trkpt>
      <trkpt lat="47.44662" lon="6.72937">
        <ele>478</ele>
        <time>2016-12-18T09:34:00.000Z</time>
      </trkpt>
      <trkpt lat="47.4466" lon="6.72934">
        <ele>478</ele>
        <time>2016-12-18T09:34:01.000Z</time>
      </trkpt>
      <trkpt lat="47.44657" lon="6.72929">
        <ele>479</ele>
        <time>2016-12-18T09:34:02.000Z</time>
      </trkpt>
      <trkpt lat="47.44654" lon="6.72925">
        <ele>479</ele>
        <time>2016-12-18T09:34:03.000Z</time>
      </trkpt>
      <trkpt lat="47.44652" lon="6.72922">
        <ele>479</ele>
        <time>2016-12-18T09:34:04.000Z</time>
      </trkpt>
      <trkpt lat="47.4465" lon="6.7292">
        <ele>479</ele>
        <time>2016-12-18T09:34:05.000Z</time>
      </trkpt>
      <trkpt lat="47.44649" lon="6.72917">
        <ele>479</ele>
        <time>2016-12-18T09:34:06.000Z</time>
      </trkpt>
      <trkpt lat="47.44648" lon="6.72913">
        <ele>479</ele>
        <time>2016-12-18T09:34:07.000Z</time>
      </trkpt>
      <trkpt lat="47.44646" lon="6.7291">
        <ele>479</ele>
        <time>2016-12-18T09:34:08.000Z</time>
      </trkpt>
      <trkpt lat="47.44644" lon="6.72906">
        <ele>479</ele>
        <time>2016-12-18T09:34:09.000Z</time>
      </trkpt>
      <trkpt lat="47.44643" lon="6.72902">
        <ele>479</ele>
        <time>2016-12-18T09:34:10.000Z</time>
      </trkpt>
      <trkpt lat="47.44641" lon="6.72897">
        <ele>479</ele>
        <time>2016-12-18T09:34:11.000Z</time>
      </trkpt>
      <trkpt lat="47.4464" lon="6.72894">
        <ele>479</ele>
        <time>2016-12-18T09:34:12.000Z</time>
      </trkpt>
      <trkpt lat="47.44639" lon="6.72889">
        <ele>479</ele>
        <time>2016-12-18T09:34:13.000Z</time>
      </trkpt>
      <trkpt lat="47.44637" lon="6.72885">
        <ele>479</ele>
        <time>2016-12-18T09:34:14.000Z</time>
      </trkpt>
      <trkpt lat="47.44636" lon="6.7288">
        <ele>479</ele>
        <time>2016-12-18T09:34:15.000Z</time>
      </trkpt>
      <trkpt lat="47.44635" lon="6.72876">
        <ele>479</ele>
        <time>2016-12-18T09:34:16.000Z</time>
      </trkpt>
      <trkpt lat="47.44635" lon="6.72871">
        <ele>479</ele>
        <time>2016-12-18T09:34:17.000Z</time>
      </trkpt>
      <trkpt lat="47.44634" lon="6.72867">
        <ele>479</ele>
        <time>2016-12-18T09:34:18.000Z</time>
      </trkpt>
      <trkpt lat="47.44633" lon="6.72864">
        <ele>479</ele>
        <time>2016-12-18T09:34:19.000Z</time>
      </trkpt>
      <trkpt lat="47.44633" lon="6.72859">
        <ele>479</ele>
        <time>2016-12-18T09:34:20.000Z</time>
      </trkpt>
      <trkpt lat="47.44633" lon="6.72854">
        <ele>479</ele>
        <time>2016-12-18T09:34:21.000Z</time>
      </trkpt>
      <trkpt lat="47.44633" lon="6.72849">
        <ele>479</ele>
        <time>2016-12-18T09:34:22.000Z</time>
      </trkpt>
      <trkpt lat="47.44632" lon="6.72844">
        <ele>480</ele>
        <time>2016-12-18T09:34:23.000Z</time>
      </trkpt>
      <trkpt lat="47.44631" lon="6.72839">
        <ele>480</ele>
        <time>2016-12-18T09:34:24.000Z</time>
      </trkpt>
      <trkpt lat="47.44631" lon="6.72833">
        <ele>480</ele>
        <time>2016-12-18T09:34:25.000Z</time>
      </trkpt>
      <trkpt lat="47.44629" lon="6.72825">
        <ele>480</ele>
        <time>2016-12-18T09:34:26.000Z</time>
      </trkpt>
      <trkpt lat="47.44629" lon="6.7282">
        <ele>480</ele>
        <time>2016-12-18T09:34:27.000Z</time>
      </trkpt>
      <trkpt lat="47.44628" lon="6.72815">
        <ele>480</ele>
        <time>2016-12-18T09:34:28.000Z</time>
      </trkpt>
      <trkpt lat="47.44627" lon="6.7281">
        <ele>480</ele>
        <time>2016-12-18T09:34:29.000Z</time>
      </trkpt>
      <trkpt lat="47.44627" lon="6.72807">
        <ele>480</ele>
        <time>2016-12-18T09:34:30.000Z</time>
      </trkpt>
      <trkpt lat="47.44627" lon="6.72803">
        <ele>480</ele>
        <time>2016-12-18T09:34:31.000Z</time>
      </trkpt>
      <trkpt lat="47.44626" lon="6.72798">
        <ele>480</ele>
        <time>2016-12-18T09:34:32.000Z</time>
      </trkpt>
      <trkpt lat="47.44625" lon="6.72792">
        <ele>480</ele>
        <time>2016-12-18T09:34:34.000Z</time>
      </trkpt>
      <trkpt lat="47.44624" lon="6.72789">
        <ele>481</ele>
        <time>2016-12-18T09:34:35.000Z</time>
      </trkpt>
      <trkpt lat="47.44622" lon="6.72787">
        <ele>481</ele>
        <time>2016-12-18T09:34:36.000Z</time>
      </trkpt>
      <trkpt lat="47.44622" lon="6.72783">
        <ele>481</ele>
        <time>2016-12-18T09:34:37.000Z</time>
      </trkpt>
      <trkpt lat="47.4462" lon="6.72777">
        <ele>481</ele>
        <time>2016-12-18T09:34:39.000Z</time>
      </trkpt>
      <trkpt lat="47.44619" lon="6.72774">
        <ele>481</ele>
        <time>2016-12-18T09:34:40.000Z</time>
      </trkpt>
      <trkpt lat="47.44617" lon="6.72771">
        <ele>481</ele>
        <time>2016-12-18T09:34:41.000Z</time>
      </trkpt>
      <trkpt lat="47.44616" lon="6.72767">
        <ele>481</ele>
        <time>2016-12-18T09:34:42.000Z</time>
      </trkpt>
      <trkpt lat="47.44614" lon="6.72763">
        <ele>481</ele>
        <time>2016-12-18T09:34:43.000Z</time>
      </trkpt>
      <trkpt lat="47.44612" lon="6.7276">
        <ele>481</ele>
        <time>2016-12-18T09:34:44.000Z</time>
      </trkpt>
      <trkpt lat="47.4461" lon="6.72756">
        <ele>481</ele>
        <time>2016-12-18T09:34:45.000Z</time>
      </trkpt>
      <trkpt lat="47.44606" lon="6.7275">
        <ele>482</ele>
        <time>2016-12-18T09:34:46.000Z</time>
      </trkpt>
      <trkpt lat="47.44603" lon="6.72745">
        <ele>482</ele>
        <time>2016-12-18T09:34:47.000Z</time>
      </trkpt>
      <trkpt lat="47.44601" lon="6.72741">
        <ele>482</ele>
        <time>2016-12-18T09:34:48.000Z</time>
      </trkpt>
      <trkpt lat="47.44599" lon="6.72736">
        <ele>482</ele>
        <time>2016-12-18T09:34:49.000Z</time>
      </trkpt>
      <trkpt lat="47.44598" lon="6.72732">
        <ele>482</ele>
        <time>2016-12-18T09:34:50.000Z</time>
      </trkpt>
      <trkpt lat="47.44595" lon="6.72728">
        <ele>482</ele>
        <time>2016-12-18T09:34:51.000Z</time>
      </trkpt>
      <trkpt lat="47.44593" lon="6.72724">
        <ele>482</ele>
        <time>2016-12-18T09:34:52.000Z</time>
      </trkpt>
      <trkpt lat="47.44591" lon="6.72721">
        <ele>482</ele>
        <time>2016-12-18T09:34:53.000Z</time>
      </trkpt>
      <trkpt lat="47.44589" lon="6.72717">
        <ele>482</ele>
        <time>2016-12-18T09:34:54.000Z</time>
      </trkpt>
      <trkpt lat="47.44587" lon="6.72714">
        <ele>482</ele>
        <time>2016-12-18T09:34:55.000Z</time>
      </trkpt>
      <trkpt lat="47.44585" lon="6.72709">
        <ele>482</ele>
        <time>2016-12-18T09:34:56.000Z</time>
      </trkpt>
      <trkpt lat="47.44583" lon="6.72706">
        <ele>481</ele>
        <time>2016-12-18T09:34:57.000Z</time>
      </trkpt>
      <trkpt lat="47.44581" lon="6.72701">
        <ele>481</ele>
        <time>2016-12-18T09:34:58.000Z</time>
      </trkpt>
      <trkpt lat="47.44579" lon="6.72697">
        <ele>481</ele>
        <time>2016-12-18T09:34:59.000Z</time>
      </trkpt>
      <trkpt lat="47.44578" lon="6.72693">
        <ele>481</ele>
        <time>2016-12-18T09:35:00.000Z</time>
      </trkpt>
      <trkpt lat="47.44577" lon="6.72689">
        <ele>481</ele>
        <time>2016-12-18T09:35:01.000Z</time>
      </trkpt>
      <trkpt lat="47.44575" lon="6.72685">
        <ele>481</ele>
        <time>2016-12-18T09:35:02.000Z</time>
      </trkpt>
      <trkpt lat="47.44575" lon="6.72679">
        <ele>482</ele>
        <time>2016-12-18T09:35:05.000Z</time>
      </trkpt>
      <trkpt lat="47.44573" lon="6.72678">
        <ele>482</ele>
        <time>2016-12-18T09:35:06.000Z</time>
      </trkpt>
      <trkpt lat="47.44571" lon="6.72673">
        <ele>482</ele>
        <time>2016-12-18T09:35:10.000Z</time>
      </trkpt>
      <trkpt lat="47.4457" lon="6.72671">
        <ele>482</ele>
        <time>2016-12-18T09:35:11.000Z</time>
      </trkpt>
      <trkpt lat="47.44568" lon="6.72667">
        <ele>482</ele>
        <time>2016-12-18T09:35:14.000Z</time>
      </trkpt>
      <trkpt lat="47.44567" lon="6.72664">
        <ele>482</ele>
        <time>2016-12-18T09:35:15.000Z</time>
      </trkpt>
      <trkpt lat="47.44566" lon="6.7266">
        <ele>482</ele>
        <time>2016-12-18T09:35:16.000Z</time>
      </trkpt>
      <trkpt lat="47.44566" lon="6.72657">
        <ele>482</ele>
        <time>2016-12-18T09:35:17.000Z</time>
      </trkpt>
      <trkpt lat="47.44565" lon="6.72651">
        <ele>482</ele>
        <time>2016-12-18T09:35:19.000Z</time>
      </trkpt>
      <trkpt lat="47.44564" lon="6.72647">
        <ele>482</ele>
        <time>2016-12-18T09:35:20.000Z</time>
      </trkpt>
      <trkpt lat="47.44563" lon="6.72643">
        <ele>482</ele>
        <time>2016-12-18T09:35:21.000Z</time>
      </trkpt>
      <trkpt lat="47.44563" lon="6.72638">
        <ele>482</ele>
        <time>2016-12-18T09:35:22.000Z</time>
      </trkpt>
      <trkpt lat="47.44562" lon="6.72633">
        <ele>482</ele>
        <time>2016-12-18T09:35:23.000Z</time>
      </trkpt>
      <trkpt lat="47.44562" lon="6.72626">
        <ele>482</ele>
        <time>2016-12-18T09:35:24.000Z</time>
      </trkpt>
      <trkpt lat="47.44561" lon="6.7262">
        <ele>482</ele>
        <time>2016-12-18T09:35:25.000Z</time>
      </trkpt>
      <trkpt lat="47.44561" lon="6.72615">
        <ele>482</ele>
        <time>2016-12-18T09:35:26.000Z</time>
      </trkpt>
      <trkpt lat="47.4456" lon="6.72612">
        <ele>482</ele>
        <time>2016-12-18T09:35:27.000Z</time>
      </trkpt>
      <trkpt lat="47.4456" lon="6.72608">
        <ele>483</ele>
        <time>2016-12-18T09:35:28.000Z</time>
      </trkpt>
      <trkpt lat="47.4456" lon="6.72605">
        <ele>483</ele>
        <time>2016-12-18T09:35:29.000Z</time>
      </trkpt>
      <trkpt lat="47.44559" lon="6.726">
        <ele>483</ele>
        <time>2016-12-18T09:35:30.000Z</time>
      </trkpt>
      <trkpt lat="47.44559" lon="6.72596">
        <ele>483</ele>
        <time>2016-12-18T09:35:31.000Z</time>
      </trkpt>
      <trkpt lat="47.44559" lon="6.72592">
        <ele>483</ele>
        <time>2016-12-18T09:35:32.000Z</time>
      </trkpt>
      <trkpt lat="47.44559" lon="6.72588">
        <ele>483</ele>
        <time>2016-12-18T09:35:33.000Z</time>
      </trkpt>
      <trkpt lat="47.44558" lon="6.72585">
        <ele>483</ele>
        <time>2016-12-18T09:35:34.000Z</time>
      </trkpt>
      <trkpt lat="47.44557" lon="6.72581">
        <ele>484</ele>
        <time>2016-12-18T09:35:35.000Z</time>
      </trkpt>
      <trkpt lat="47.44556" lon="6.72578">
        <ele>484</ele>
        <time>2016-12-18T09:35:36.000Z</time>
      </trkpt>
      <trkpt lat="47.44556" lon="6.72574">
        <ele>484</ele>
        <time>2016-12-18T09:35:37.000Z</time>
      </trkpt>
      <trkpt lat="47.44555" lon="6.7257">
        <ele>484</ele>
        <time>2016-12-18T09:35:38.000Z</time>
      </trkpt>
      <trkpt lat="47.44554" lon="6.72566">
        <ele>484</ele>
        <time>2016-12-18T09:35:39.000Z</time>
      </trkpt>
      <trkpt lat="47.44552" lon="6.72561">
        <ele>484</ele>
        <time>2016-12-18T09:35:40.000Z</time>
      </trkpt>
      <trkpt lat="47.44551" lon="6.72557">
        <ele>484</ele>
        <time>2016-12-18T09:35:41.000Z</time>
      </trkpt>
      <trkpt lat="47.44549" lon="6.72552">
        <ele>484</ele>
        <time>2016-12-18T09:35:42.000Z</time>
      </trkpt>
      <trkpt lat="47.44548" lon="6.72546">
        <ele>484</ele>
        <time>2016-12-18T09:35:43.000Z</time>
      </trkpt>
      <trkpt lat="47.44546" lon="6.72541">
        <ele>484</ele>
        <time>2016-12-18T09:35:44.000Z</time>
      </trkpt>
      <trkpt lat="47.44545" lon="6.72537">
        <ele>484</ele>
        <time>2016-12-18T09:35:45.000Z</time>
      </trkpt>
      <trkpt lat="47.44543" lon="6.72533">
        <ele>484</ele>
        <time>2016-12-18T09:35:46.000Z</time>
      </trkpt>
      <trkpt lat="47.44542" lon="6.72528">
        <ele>484</ele>
        <time>2016-12-18T09:35:47.000Z</time>
      </trkpt>
      <trkpt lat="47.4454" lon="6.72523">
        <ele>484</ele>
        <time>2016-12-18T09:35:48.000Z</time>
      </trkpt>
      <trkpt lat="47.44539" lon="6.7252">
        <ele>484</ele>
        <time>2016-12-18T09:35:49.000Z</time>
      </trkpt>
      <trkpt lat="47.44537" lon="6.72514">
        <ele>484</ele>
        <time>2016-12-18T09:35:50.000Z</time>
      </trkpt>
      <trkpt lat="47.44536" lon="6.7251">
        <ele>484</ele>
        <time>2016-12-18T09:35:51.000Z</time>
      </trkpt>
      <trkpt lat="47.44534" lon="6.72506">
        <ele>484</ele>
        <time>2016-12-18T09:35:52.000Z</time>
      </trkpt>
      <trkpt lat="47.44533" lon="6.725">
        <ele>484</ele>
        <time>2016-12-18T09:35:53.000Z</time>
      </trkpt>
      <trkpt lat="47.44531" lon="6.72493">
        <ele>485</ele>
        <time>2016-12-18T09:35:54.000Z</time>
      </trkpt>
      <trkpt lat="47.44529" lon="6.72486">
        <ele>485</ele>
        <time>2016-12-18T09:35:55.000Z</time>
      </trkpt>
      <trkpt lat="47.44528" lon="6.72479">
        <ele>485</ele>
        <time>2016-12-18T09:35:56.000Z</time>
      </trkpt>
      <trkpt lat="47.44527" lon="6.72473">
        <ele>485</ele>
        <time>2016-12-18T09:35:57.000Z</time>
      </trkpt>
      <trkpt lat="47.44526" lon="6.72468">
        <ele>485</ele>
        <time>2016-12-18T09:35:58.000Z</time>
      </trkpt>
      <trkpt lat="47.44525" lon="6.72462">
        <ele>485</ele>
        <time>2016-12-18T09:35:59.000Z</time>
      </trkpt>
      <trkpt lat="47.44524" lon="6.72458">
        <ele>485</ele>
        <time>2016-12-18T09:36:00.000Z</time>
      </trkpt>
      <trkpt lat="47.44523" lon="6.72452">
        <ele>485</ele>
        <time>2016-12-18T09:36:01.000Z</time>
      </trkpt>
      <trkpt lat="47.44521" lon="6.72446">
        <ele>485</ele>
        <time>2016-12-18T09:36:02.000Z</time>
      </trkpt>
      <trkpt lat="47.4452" lon="6.7244">
        <ele>485</ele>
        <time>2016-12-18T09:36:03.000Z</time>
      </trkpt>
      <trkpt lat="47.44518" lon="6.72434">
        <ele>484</ele>
        <time>2016-12-18T09:36:04.000Z</time>
      </trkpt>
      <trkpt lat="47.44517" lon="6.72428">
        <ele>484</ele>
        <time>2016-12-18T09:36:05.000Z</time>
      </trkpt>
      <trkpt lat="47.44515" lon="6.72422">
        <ele>484</ele>
        <time>2016-12-18T09:36:06.000Z</time>
      </trkpt>
      <trkpt lat="47.44514" lon="6.72416">
        <ele>483</ele>
        <time>2016-12-18T09:36:07.000Z</time>
      </trkpt>
      <trkpt lat="47.44512" lon="6.72411">
        <ele>483</ele>
        <time>2016-12-18T09:36:08.000Z</time>
      </trkpt>
      <trkpt lat="47.44511" lon="6.72405">
        <ele>482</ele>
        <time>2016-12-18T09:36:09.000Z</time>
      </trkpt>
      <trkpt lat="47.44509" lon="6.72398">
        <ele>482</ele>
        <time>2016-12-18T09:36:10.000Z</time>
      </trkpt>
      <trkpt lat="47.44507" lon="6.72391">
        <ele>482</ele>
        <time>2016-12-18T09:36:11.000Z</time>
      </trkpt>
      <trkpt lat="47.44506" lon="6.72384">
        <ele>481</ele>
        <time>2016-12-18T09:36:12.000Z</time>
      </trkpt>
      <trkpt lat="47.44505" lon="6.72376">
        <ele>481</ele>
        <time>2016-12-18T09:36:13.000Z</time>
      </trkpt>
      <trkpt lat="47.44504" lon="6.7237">
        <ele>480</ele>
        <time>2016-12-18T09:36:14.000Z</time>
      </trkpt>
      <trkpt lat="47.44502" lon="6.72363">
        <ele>480</ele>
        <time>2016-12-18T09:36:15.000Z</time>
      </trkpt>
      <trkpt lat="47.44498" lon="6.72357">
        <ele>478</ele>
        <time>2016-12-18T09:36:16.000Z</time>
      </trkpt>
      <trkpt lat="47.44494" lon="6.72354">
        <ele>478</ele>
        <time>2016-12-18T09:36:17.000Z</time>
      </trkpt>
      <trkpt lat="47.4449" lon="6.72352">
        <ele>477</ele>
        <time>2016-12-18T09:36:18.000Z</time>
      </trkpt>
      <trkpt lat="47.44486" lon="6.72351">
        <ele>477</ele>
        <time>2016-12-18T09:36:19.000Z</time>
      </trkpt>
      <trkpt lat="47.44482" lon="6.7235">
        <ele>477</ele>
        <time>2016-12-18T09:36:20.000Z</time>
      </trkpt>
      <trkpt lat="47.44479" lon="6.72349">
        <ele>477</ele>
        <time>2016-12-18T09:36:21.000Z</time>
      </trkpt>
      <trkpt lat="47.44476" lon="6.72348">
        <ele>477</ele>
        <time>2016-12-18T09:36:22.000Z</time>
      </trkpt>
      <trkpt lat="47.44474" lon="6.72345">
        <ele>477</ele>
        <time>2016-12-18T09:36:23.000Z</time>
      </trkpt>
      <trkpt lat="47.44474" lon="6.72341">
        <ele>477</ele>
        <time>2016-12-18T09:36:24.000Z</time>
      </trkpt>
      <trkpt lat="47.44472" lon="6.72335">
        <ele>477</ele>
        <time>2016-12-18T09:36:25.000Z</time>
      </trkpt>
      <trkpt lat="47.4447" lon="6.72328">
        <ele>473</ele>
        <time>2016-12-18T09:36:26.000Z</time>
      </trkpt>
      <trkpt lat="47.44468" lon="6.72322">
        <ele>473</ele>
        <time>2016-12-18T09:36:27.000Z</time>
      </trkpt>
      <trkpt lat="47.44467" lon="6.72316">
        <ele>473</ele>
        <time>2016-12-18T09:36:28.000Z</time>
      </trkpt>
      <trkpt lat="47.44466" lon="6.72311">
        <ele>473</ele>
        <time>2016-12-18T09:36:29.000Z</time>
      </trkpt>
      <trkpt lat="47.44464" lon="6.72304">
        <ele>473</ele>
        <time>2016-12-18T09:36:30.000Z</time>
      </trkpt>
      <trkpt lat="47.44463" lon="6.72297">
        <ele>472</ele>
        <time>2016-12-18T09:36:31.000Z</time>
      </trkpt>
      <trkpt lat="47.44462" lon="6.7229">
        <ele>472</ele>
        <time>2016-12-18T09:36:32.000Z</time>
      </trkpt>
      <trkpt lat="47.44461" lon="6.72283">
        <ele>472</ele>
        <time>2016-12-18T09:36:33.000Z</time>
      </trkpt>
      <trkpt lat="47.44459" lon="6.72278">
        <ele>472</ele>
        <time>2016-12-18T09:36:34.000Z</time>
      </trkpt>
      <trkpt lat="47.44458" lon="6.72271">
        <ele>472</ele>
        <time>2016-12-18T09:36:35.000Z</time>
      </trkpt>
      <trkpt lat="47.44456" lon="6.72264">
        <ele>471</ele>
        <time>2016-12-18T09:36:36.000Z</time>
      </trkpt>
      <trkpt lat="47.44455" lon="6.72257">
        <ele>471</ele>
        <time>2016-12-18T09:36:37.000Z</time>
      </trkpt>
      <trkpt lat="47.44454" lon="6.72252">
        <ele>471</ele>
        <time>2016-12-18T09:36:38.000Z</time>
      </trkpt>
      <trkpt lat="47.44453" lon="6.72246">
        <ele>468</ele>
        <time>2016-12-18T09:36:39.000Z</time>
      </trkpt>
      <trkpt lat="47.44451" lon="6.7224">
        <ele>468</ele>
        <time>2016-12-18T09:36:40.000Z</time>
      </trkpt>
      <trkpt lat="47.4445" lon="6.72233">
        <ele>468</ele>
        <time>2016-12-18T09:36:41.000Z</time>
      </trkpt>
      <trkpt lat="47.44448" lon="6.72226">
        <ele>468</ele>
        <time>2016-12-18T09:36:42.000Z</time>
      </trkpt>
      <trkpt lat="47.44446" lon="6.72221">
        <ele>468</ele>
        <time>2016-12-18T09:36:43.000Z</time>
      </trkpt>
      <trkpt lat="47.44445" lon="6.72215">
        <ele>468</ele>
        <time>2016-12-18T09:36:44.000Z</time>
      </trkpt>
      <trkpt lat="47.44444" lon="6.72209">
        <ele>468</ele>
        <time>2016-12-18T09:36:45.000Z</time>
      </trkpt>
      <trkpt lat="47.44443" lon="6.72203">
        <ele>468</ele>
        <time>2016-12-18T09:36:46.000Z</time>
      </trkpt>
      <trkpt lat="47.44441" lon="6.72197">
        <ele>468</ele>
        <time>2016-12-18T09:36:47.000Z</time>
      </trkpt>
      <trkpt lat="47.4444" lon="6.72189">
        <ele>467</ele>
        <time>2016-12-18T09:36:48.000Z</time>
      </trkpt>
      <trkpt lat="47.44438" lon="6.72182">
        <ele>467</ele>
        <time>2016-12-18T09:36:49.000Z</time>
      </trkpt>
      <trkpt lat="47.44436" lon="6.72174">
        <ele>467</ele>
        <time>2016-12-18T09:36:50.000Z</time>
      </trkpt>
      <trkpt lat="47.44434" lon="6.72166">
        <ele>466</ele>
        <time>2016-12-18T09:36:51.000Z</time>
      </trkpt>
      <trkpt lat="47.44432" lon="6.72158">
        <ele>466</ele>
        <time>2016-12-18T09:36:52.000Z</time>
      </trkpt>
      <trkpt lat="47.4443" lon="6.7215">
        <ele>465</ele>
        <time>2016-12-18T09:36:53.000Z</time>
      </trkpt>
      <trkpt lat="47.44429" lon="6.72142">
        <ele>465</ele>
        <time>2016-12-18T09:36:54.000Z</time>
      </trkpt>
      <trkpt lat="47.44427" lon="6.72134">
        <ele>465</ele>
        <time>2016-12-18T09:36:55.000Z</time>
      </trkpt>
      <trkpt lat="47.44426" lon="6.72125">
        <ele>465</ele>
        <time>2016-12-18T09:36:56.000Z</time>
      </trkpt>
      <trkpt lat="47.44424" lon="6.72115">
        <ele>465</ele>
        <time>2016-12-18T09:36:57.000Z</time>
      </trkpt>
      <trkpt lat="47.44421" lon="6.72104">
        <ele>465</ele>
        <time>2016-12-18T09:36:58.000Z</time>
      </trkpt>
      <trkpt lat="47.44419" lon="6.72093">
        <ele>465</ele>
        <time>2016-12-18T09:36:59.000Z</time>
      </trkpt>
      <trkpt lat="47.44417" lon="6.72082">
        <ele>466</ele>
        <time>2016-12-18T09:37:00.000Z</time>
      </trkpt>
      <trkpt lat="47.44415" lon="6.72071">
        <ele>467</ele>
        <time>2016-12-18T09:37:01.000Z</time>
      </trkpt>
      <trkpt lat="47.44414" lon="6.72062">
        <ele>467</ele>
        <time>2016-12-18T09:37:02.000Z</time>
      </trkpt>
      <trkpt lat="47.44412" lon="6.72051">
        <ele>467</ele>
        <time>2016-12-18T09:37:03.000Z</time>
      </trkpt>
      <trkpt lat="47.44411" lon="6.72041">
        <ele>467</ele>
        <time>2016-12-18T09:37:04.000Z</time>
      </trkpt>
      <trkpt lat="47.44409" lon="6.72034">
        <ele>467</ele>
        <time>2016-12-18T09:37:05.000Z</time>
      </trkpt>
      <trkpt lat="47.44406" lon="6.7203">
        <ele>467</ele>
        <time>2016-12-18T09:37:06.000Z</time>
      </trkpt>
      <trkpt lat="47.44403" lon="6.72029">
        <ele>467</ele>
        <time>2016-12-18T09:37:07.000Z</time>
      </trkpt>
      <trkpt lat="47.444" lon="6.72027">
        <ele>467</ele>
        <time>2016-12-18T09:37:08.000Z</time>
      </trkpt>
      <trkpt lat="47.44398" lon="6.72026">
        <ele>467</ele>
        <time>2016-12-18T09:37:09.000Z</time>
      </trkpt>
      <trkpt lat="47.44393" lon="6.72025">
        <ele>467</ele>
        <time>2016-12-18T09:37:11.000Z</time>
      </trkpt>
      <trkpt lat="47.44391" lon="6.72025">
        <ele>467</ele>
        <time>2016-12-18T09:37:12.000Z</time>
      </trkpt>
      <trkpt lat="47.44387" lon="6.72023">
        <ele>468</ele>
        <time>2016-12-18T09:37:13.000Z</time>
      </trkpt>
      <trkpt lat="47.44384" lon="6.72022">
        <ele>468</ele>
        <time>2016-12-18T09:37:14.000Z</time>
      </trkpt>
      <trkpt lat="47.44381" lon="6.72022">
        <ele>468</ele>
        <time>2016-12-18T09:37:15.000Z</time>
      </trkpt>
      <trkpt lat="47.44378" lon="6.72021">
        <ele>468</ele>
        <time>2016-12-18T09:37:16.000Z</time>
      </trkpt>
      <trkpt lat="47.44376" lon="6.7202">
        <ele>468</ele>
        <time>2016-12-18T09:37:17.000Z</time>
      </trkpt>
      <trkpt lat="47.44373" lon="6.7202">
        <ele>468</ele>
        <time>2016-12-18T09:37:18.000Z</time>
      </trkpt>
      <trkpt lat="47.4437" lon="6.72019">
        <ele>469</ele>
        <time>2016-12-18T09:37:19.000Z</time>
      </trkpt>
      <trkpt lat="47.44366" lon="6.72019">
        <ele>469</ele>
        <time>2016-12-18T09:37:20.000Z</time>
      </trkpt>
      <trkpt lat="47.44362" lon="6.72019">
        <ele>469</ele>
        <time>2016-12-18T09:37:21.000Z</time>
      </trkpt>
      <trkpt lat="47.44358" lon="6.72019">
        <ele>469</ele>
        <time>2016-12-18T09:37:22.000Z</time>
      </trkpt>
      <trkpt lat="47.44355" lon="6.72019">
        <ele>469</ele>
        <time>2016-12-18T09:37:23.000Z</time>
      </trkpt>
      <trkpt lat="47.44351" lon="6.72017">
        <ele>470</ele>
        <time>2016-12-18T09:37:24.000Z</time>
      </trkpt>
      <trkpt lat="47.44349" lon="6.72012">
        <ele>470</ele>
        <time>2016-12-18T09:37:25.000Z</time>
      </trkpt>
      <trkpt lat="47.44347" lon="6.72009">
        <ele>470</ele>
        <time>2016-12-18T09:37:26.000Z</time>
      </trkpt>
      <trkpt lat="47.44346" lon="6.72007">
        <ele>470</ele>
        <time>2016-12-18T09:37:35.000Z</time>
      </trkpt>
      <trkpt lat="47.44337" lon="6.71994">
        <ele>471</ele>
        <time>2016-12-18T09:37:36.000Z</time>
      </trkpt>
      <trkpt lat="47.44337" lon="6.71994">
        <ele>471</ele>
        <time>2016-12-18T09:38:50.000Z</time>
      </trkpt>
      <trkpt lat="47.44315" lon="6.71999">
        <ele>472</ele>
        <time>2016-12-18T09:38:51.000Z</time>
      </trkpt>
      <trkpt lat="47.44313" lon="6.72">
        <ele>472</ele>
        <time>2016-12-18T09:38:52.000Z</time>
      </trkpt>
      <trkpt lat="47.4431" lon="6.71999">
        <ele>472</ele>
        <time>2016-12-18T09:38:53.000Z</time>
      </trkpt>
      <trkpt lat="47.44307" lon="6.71999">
        <ele>472</ele>
        <time>2016-12-18T09:38:54.000Z</time>
      </trkpt>
      <trkpt lat="47.44304" lon="6.71998">
        <ele>472</ele>
        <time>2016-12-18T09:38:55.000Z</time>
      </trkpt>
      <trkpt lat="47.443" lon="6.71998">
        <ele>472</ele>
        <time>2016-12-18T09:38:56.000Z</time>
      </trkpt>
      <trkpt lat="47.44295" lon="6.71997">
        <ele>472</ele>
        <time>2016-12-18T09:38:57.000Z</time>
      </trkpt>
      <trkpt lat="47.44291" lon="6.71994">
        <ele>472</ele>
        <time>2016-12-18T09:38:58.000Z</time>
      </trkpt>
      <trkpt lat="47.44289" lon="6.71992">
        <ele>472</ele>
        <time>2016-12-18T09:38:59.000Z</time>
      </trkpt>
      <trkpt lat="47.44285" lon="6.7199">
        <ele>472</ele>
        <time>2016-12-18T09:39:00.000Z</time>
      </trkpt>
      <trkpt lat="47.44283" lon="6.71989">
        <ele>472</ele>
        <time>2016-12-18T09:39:01.000Z</time>
      </trkpt>
      <trkpt lat="47.4428" lon="6.71987">
        <ele>472</ele>
        <time>2016-12-18T09:39:02.000Z</time>
      </trkpt>
      <trkpt lat="47.44276" lon="6.71984">
        <ele>472</ele>
        <time>2016-12-18T09:39:03.000Z</time>
      </trkpt>
      <trkpt lat="47.44274" lon="6.71982">
        <ele>472</ele>
        <time>2016-12-18T09:39:04.000Z</time>
      </trkpt>
      <trkpt lat="47.44272" lon="6.7198">
        <ele>472</ele>
        <time>2016-12-18T09:39:05.000Z</time>
      </trkpt>
      <trkpt lat="47.4427" lon="6.71979">
        <ele>472</ele>
        <time>2016-12-18T09:39:06.000Z</time>
      </trkpt>
      <trkpt lat="47.44266" lon="6.71977">
        <ele>472</ele>
        <time>2016-12-18T09:39:07.000Z</time>
      </trkpt>
      <trkpt lat="47.44262" lon="6.71974">
        <ele>472</ele>
        <time>2016-12-18T09:39:08.000Z</time>
      </trkpt>
      <trkpt lat="47.44259" lon="6.71973">
        <ele>472</ele>
        <time>2016-12-18T09:39:09.000Z</time>
      </trkpt>
      <trkpt lat="47.44256" lon="6.71971">
        <ele>472</ele>
        <time>2016-12-18T09:39:10.000Z</time>
      </trkpt>
      <trkpt lat="47.44249" lon="6.71968">
        <ele>473</ele>
        <time>2016-12-18T09:39:11.000Z</time>
      </trkpt>
      <trkpt lat="47.44246" lon="6.71966">
        <ele>473</ele>
        <time>2016-12-18T09:39:12.000Z</time>
      </trkpt>
      <trkpt lat="47.44243" lon="6.71964">
        <ele>473</ele>
        <time>2016-12-18T09:39:13.000Z</time>
      </trkpt>
      <trkpt lat="47.44243" lon="6.71964">
        <ele>473</ele>
        <time>2016-12-18T09:39:16.000Z</time>
      </trkpt>
      <trkpt lat="47.44232" lon="6.71953">
        <ele>473</ele>
        <time>2016-12-18T09:39:17.000Z</time>
      </trkpt>
      <trkpt lat="47.44232" lon="6.71953">
        <ele>473</ele>
        <time>2016-12-18T09:39:18.000Z</time>
      </trkpt>
      <trkpt lat="47.44227" lon="6.71945">
        <ele>473</ele>
        <time>2016-12-18T09:39:19.000Z</time>
      </trkpt>
      <trkpt lat="47.44223" lon="6.71939">
        <ele>473</ele>
        <time>2016-12-18T09:39:20.000Z</time>
      </trkpt>
      <trkpt lat="47.44222" lon="6.71935">
        <ele>473</ele>
        <time>2016-12-18T09:39:26.000Z</time>
      </trkpt>
      <trkpt lat="47.44214" lon="6.7192">
        <ele>473</ele>
        <time>2016-12-18T09:39:27.000Z</time>
      </trkpt>
      <trkpt lat="47.44214" lon="6.7192">
        <ele>473</ele>
        <time>2016-12-18T09:39:32.000Z</time>
      </trkpt>
      <trkpt lat="47.44219" lon="6.71904">
        <ele>472</ele>
        <time>2016-12-18T09:39:33.000Z</time>
      </trkpt>
      <trkpt lat="47.44219" lon="6.71904">
        <ele>472</ele>
        <time>2016-12-18T09:39:39.000Z</time>
      </trkpt>
      <trkpt lat="47.44228" lon="6.71881">
        <ele>472</ele>
        <time>2016-12-18T09:39:40.000Z</time>
      </trkpt>
      <trkpt lat="47.4423" lon="6.71877">
        <ele>472</ele>
        <time>2016-12-18T09:39:41.000Z</time>
      </trkpt>
      <trkpt lat="47.44231" lon="6.71871">
        <ele>472</ele>
        <time>2016-12-18T09:39:42.000Z</time>
      </trkpt>
      <trkpt lat="47.44233" lon="6.71865">
        <ele>472</ele>
        <time>2016-12-18T09:39:43.000Z</time>
      </trkpt>
      <trkpt lat="47.44234" lon="6.71861">
        <ele>472</ele>
        <time>2016-12-18T09:39:44.000Z</time>
      </trkpt>
      <trkpt lat="47.44236" lon="6.71854">
        <ele>472</ele>
        <time>2016-12-18T09:39:45.000Z</time>
      </trkpt>
      <trkpt lat="47.44237" lon="6.71848">
        <ele>472</ele>
        <time>2016-12-18T09:39:46.000Z</time>
      </trkpt>
      <trkpt lat="47.44237" lon="6.71842">
        <ele>472</ele>
        <time>2016-12-18T09:39:47.000Z</time>
      </trkpt>
      <trkpt lat="47.44237" lon="6.71837">
        <ele>472</ele>
        <time>2016-12-18T09:39:48.000Z</time>
      </trkpt>
      <trkpt lat="47.44237" lon="6.71833">
        <ele>472</ele>
        <time>2016-12-18T09:39:49.000Z</time>
      </trkpt>
      <trkpt lat="47.44236" lon="6.7183">
        <ele>471</ele>
        <time>2016-12-18T09:39:50.000Z</time>
      </trkpt>
      <trkpt lat="47.44234" lon="6.71824">
        <ele>471</ele>
        <time>2016-12-18T09:39:51.000Z</time>
      </trkpt>
      <trkpt lat="47.44232" lon="6.71821">
        <ele>471</ele>
        <time>2016-12-18T09:39:52.000Z</time>
      </trkpt>
      <trkpt lat="47.44231" lon="6.71816">
        <ele>470</ele>
        <time>2016-12-18T09:39:53.000Z</time>
      </trkpt>
      <trkpt lat="47.44229" lon="6.71808">
        <ele>470</ele>
        <time>2016-12-18T09:39:54.000Z</time>
      </trkpt>
      <trkpt lat="47.44229" lon="6.71799">
        <ele>470</ele>
        <time>2016-12-18T09:39:55.000Z</time>
      </trkpt>
      <trkpt lat="47.44229" lon="6.71791">
        <ele>470</ele>
        <time>2016-12-18T09:39:56.000Z</time>
      </trkpt>
      <trkpt lat="47.44229" lon="6.71782">
        <ele>470</ele>
        <time>2016-12-18T09:39:57.000Z</time>
      </trkpt>
      <trkpt lat="47.44229" lon="6.71773">
        <ele>470</ele>
        <time>2016-12-18T09:39:58.000Z</time>
      </trkpt>
      <trkpt lat="47.4423" lon="6.71764">
        <ele>470</ele>
        <time>2016-12-18T09:39:59.000Z</time>
      </trkpt>
      <trkpt lat="47.44232" lon="6.71756">
        <ele>470</ele>
        <time>2016-12-18T09:40:00.000Z</time>
      </trkpt>
      <trkpt lat="47.44234" lon="6.71748">
        <ele>469</ele>
        <time>2016-12-18T09:40:01.000Z</time>
      </trkpt>
      <trkpt lat="47.44236" lon="6.71738">
        <ele>469</ele>
        <time>2016-12-18T09:40:02.000Z</time>
      </trkpt>
      <trkpt lat="47.44237" lon="6.71728">
        <ele>469</ele>
        <time>2016-12-18T09:40:03.000Z</time>
      </trkpt>
      <trkpt lat="47.44238" lon="6.71721">
        <ele>469</ele>
        <time>2016-12-18T09:40:04.000Z</time>
      </trkpt>
      <trkpt lat="47.4424" lon="6.71714">
        <ele>469</ele>
        <time>2016-12-18T09:40:05.000Z</time>
      </trkpt>
      <trkpt lat="47.44242" lon="6.71707">
        <ele>469</ele>
        <time>2016-12-18T09:40:06.000Z</time>
      </trkpt>
      <trkpt lat="47.44242" lon="6.71702">
        <ele>469</ele>
        <time>2016-12-18T09:40:07.000Z</time>
      </trkpt>
      <trkpt lat="47.44242" lon="6.71696">
        <ele>469</ele>
        <time>2016-12-18T09:40:08.000Z</time>
      </trkpt>
      <trkpt lat="47.44242" lon="6.7169">
        <ele>469</ele>
        <time>2016-12-18T09:40:09.000Z</time>
      </trkpt>
      <trkpt lat="47.44241" lon="6.71678">
        <ele>469</ele>
        <time>2016-12-18T09:40:10.000Z</time>
      </trkpt>
      <trkpt lat="47.44242" lon="6.71666">
        <ele>469</ele>
        <time>2016-12-18T09:40:11.000Z</time>
      </trkpt>
      <trkpt lat="47.44243" lon="6.71656">
        <ele>469</ele>
        <time>2016-12-18T09:40:12.000Z</time>
      </trkpt>
      <trkpt lat="47.44243" lon="6.71645">
        <ele>469</ele>
        <time>2016-12-18T09:40:13.000Z</time>
      </trkpt>
      <trkpt lat="47.44243" lon="6.71632">
        <ele>469</ele>
        <time>2016-12-18T09:40:14.000Z</time>
      </trkpt>
      <trkpt lat="47.44244" lon="6.71622">
        <ele>469</ele>
        <time>2016-12-18T09:40:15.000Z</time>
      </trkpt>
      <trkpt lat="47.44247" lon="6.71615">
        <ele>469</ele>
        <time>2016-12-18T09:40:16.000Z</time>
      </trkpt>
      <trkpt lat="47.44251" lon="6.71606">
        <ele>469</ele>
        <time>2016-12-18T09:40:17.000Z</time>
      </trkpt>
      <trkpt lat="47.44256" lon="6.71595">
        <ele>469</ele>
        <time>2016-12-18T09:40:18.000Z</time>
      </trkpt>
      <trkpt lat="47.44259" lon="6.71583">
        <ele>468</ele>
        <time>2016-12-18T09:40:19.000Z</time>
      </trkpt>
      <trkpt lat="47.44263" lon="6.71566">
        <ele>468</ele>
        <time>2016-12-18T09:40:20.000Z</time>
      </trkpt>
      <trkpt lat="47.44265" lon="6.71554">
        <ele>467</ele>
        <time>2016-12-18T09:40:21.000Z</time>
      </trkpt>
      <trkpt lat="47.44266" lon="6.71543">
        <ele>467</ele>
        <time>2016-12-18T09:40:22.000Z</time>
      </trkpt>
      <trkpt lat="47.44268" lon="6.71533">
        <ele>467</ele>
        <time>2016-12-18T09:40:23.000Z</time>
      </trkpt>
      <trkpt lat="47.4427" lon="6.71527">
        <ele>466</ele>
        <time>2016-12-18T09:40:24.000Z</time>
      </trkpt>
      <trkpt lat="47.44272" lon="6.71518">
        <ele>466</ele>
        <time>2016-12-18T09:40:25.000Z</time>
      </trkpt>
      <trkpt lat="47.44275" lon="6.71502">
        <ele>466</ele>
        <time>2016-12-18T09:40:26.000Z</time>
      </trkpt>
      <trkpt lat="47.4428" lon="6.71492">
        <ele>463</ele>
        <time>2016-12-18T09:40:27.000Z</time>
      </trkpt>
      <trkpt lat="47.44286" lon="6.71479">
        <ele>462</ele>
        <time>2016-12-18T09:40:28.000Z</time>
      </trkpt>
      <trkpt lat="47.44291" lon="6.71465">
        <ele>461</ele>
        <time>2016-12-18T09:40:29.000Z</time>
      </trkpt>
      <trkpt lat="47.44294" lon="6.71456">
        <ele>461</ele>
        <time>2016-12-18T09:40:30.000Z</time>
      </trkpt>
      <trkpt lat="47.44297" lon="6.71451">
        <ele>461</ele>
        <time>2016-12-18T09:40:31.000Z</time>
      </trkpt>
      <trkpt lat="47.44302" lon="6.71446">
        <ele>460</ele>
        <time>2016-12-18T09:40:32.000Z</time>
      </trkpt>
      <trkpt lat="47.44309" lon="6.71439">
        <ele>460</ele>
        <time>2016-12-18T09:40:33.000Z</time>
      </trkpt>
      <trkpt lat="47.44315" lon="6.71432">
        <ele>459</ele>
        <time>2016-12-18T09:40:34.000Z</time>
      </trkpt>
      <trkpt lat="47.44321" lon="6.71425">
        <ele>458</ele>
        <time>2016-12-18T09:40:35.000Z</time>
      </trkpt>
      <trkpt lat="47.44329" lon="6.71416">
        <ele>456</ele>
        <time>2016-12-18T09:40:36.000Z</time>
      </trkpt>
      <trkpt lat="47.44335" lon="6.7141">
        <ele>456</ele>
        <time>2016-12-18T09:40:37.000Z</time>
      </trkpt>
      <trkpt lat="47.44338" lon="6.71403">
        <ele>456</ele>
        <time>2016-12-18T09:40:38.000Z</time>
      </trkpt>
      <trkpt lat="47.44341" lon="6.71393">
        <ele>455</ele>
        <time>2016-12-18T09:40:39.000Z</time>
      </trkpt>
      <trkpt lat="47.44344" lon="6.71385">
        <ele>455</ele>
        <time>2016-12-18T09:40:40.000Z</time>
      </trkpt>
      <trkpt lat="47.44349" lon="6.71377">
        <ele>455</ele>
        <time>2016-12-18T09:40:41.000Z</time>
      </trkpt>
      <trkpt lat="47.44353" lon="6.7137">
        <ele>455</ele>
        <time>2016-12-18T09:40:42.000Z</time>
      </trkpt>
      <trkpt lat="47.44357" lon="6.71365">
        <ele>455</ele>
        <time>2016-12-18T09:40:43.000Z</time>
      </trkpt>
      <trkpt lat="47.44361" lon="6.71358">
        <ele>455</ele>
        <time>2016-12-18T09:40:44.000Z</time>
      </trkpt>
      <trkpt lat="47.4437" lon="6.71346">
        <ele>455</ele>
        <time>2016-12-18T09:40:45.000Z</time>
      </trkpt>
      <trkpt lat="47.44374" lon="6.71338">
        <ele>455</ele>
        <time>2016-12-18T09:40:46.000Z</time>
      </trkpt>
      <trkpt lat="47.44378" lon="6.7133">
        <ele>455</ele>
        <time>2016-12-18T09:40:47.000Z</time>
      </trkpt>
      <trkpt lat="47.44383" lon="6.7132">
        <ele>454</ele>
        <time>2016-12-18T09:40:48.000Z</time>
      </trkpt>
      <trkpt lat="47.44388" lon="6.7131">
        <ele>454</ele>
        <time>2016-12-18T09:40:49.000Z</time>
      </trkpt>
      <trkpt lat="47.44393" lon="6.71303">
        <ele>454</ele>
        <time>2016-12-18T09:40:50.000Z</time>
      </trkpt>
      <trkpt lat="47.44397" lon="6.71298">
        <ele>454</ele>
        <time>2016-12-18T09:40:51.000Z</time>
      </trkpt>
      <trkpt lat="47.44404" lon="6.7129">
        <ele>454</ele>
        <time>2016-12-18T09:40:52.000Z</time>
      </trkpt>
      <trkpt lat="47.44409" lon="6.71285">
        <ele>454</ele>
        <time>2016-12-18T09:40:53.000Z</time>
      </trkpt>
      <trkpt lat="47.44415" lon="6.71277">
        <ele>453</ele>
        <time>2016-12-18T09:40:54.000Z</time>
      </trkpt>
      <trkpt lat="47.44419" lon="6.7127">
        <ele>452</ele>
        <time>2016-12-18T09:40:55.000Z</time>
      </trkpt>
      <trkpt lat="47.44423" lon="6.71262">
        <ele>451</ele>
        <time>2016-12-18T09:40:56.000Z</time>
      </trkpt>
      <trkpt lat="47.44428" lon="6.71254">
        <ele>451</ele>
        <time>2016-12-18T09:40:57.000Z</time>
      </trkpt>
      <trkpt lat="47.44432" lon="6.71246">
        <ele>450</ele>
        <time>2016-12-18T09:40:58.000Z</time>
      </trkpt>
      <trkpt lat="47.44437" lon="6.71238">
        <ele>450</ele>
        <time>2016-12-18T09:40:59.000Z</time>
      </trkpt>
      <trkpt lat="47.44443" lon="6.71229">
        <ele>450</ele>
        <time>2016-12-18T09:41:00.000Z</time>
      </trkpt>
      <trkpt lat="47.44448" lon="6.71223">
        <ele>450</ele>
        <time>2016-12-18T09:41:01.000Z</time>
      </trkpt>
      <trkpt lat="47.44453" lon="6.71218">
        <ele>450</ele>
        <time>2016-12-18T09:41:02.000Z</time>
      </trkpt>
      <trkpt lat="47.44458" lon="6.71213">
        <ele>449</ele>
        <time>2016-12-18T09:41:03.000Z</time>
      </trkpt>
      <trkpt lat="47.44463" lon="6.71207">
        <ele>449</ele>
        <time>2016-12-18T09:41:04.000Z</time>
      </trkpt>
      <trkpt lat="47.44467" lon="6.71201">
        <ele>449</ele>
        <time>2016-12-18T09:41:05.000Z</time>
      </trkpt>
      <trkpt lat="47.4447" lon="6.71196">
        <ele>449</ele>
        <time>2016-12-18T09:41:06.000Z</time>
      </trkpt>
      <trkpt lat="47.44473" lon="6.71191">
        <ele>448</ele>
        <time>2016-12-18T09:41:07.000Z</time>
      </trkpt>
      <trkpt lat="47.44476" lon="6.71186">
        <ele>448</ele>
        <time>2016-12-18T09:41:08.000Z</time>
      </trkpt>
      <trkpt lat="47.44482" lon="6.71175">
        <ele>447</ele>
        <time>2016-12-18T09:41:09.000Z</time>
      </trkpt>
      <trkpt lat="47.44486" lon="6.71168">
        <ele>447</ele>
        <time>2016-12-18T09:41:10.000Z</time>
      </trkpt>
      <trkpt lat="47.44494" lon="6.71158">
        <ele>447</ele>
        <time>2016-12-18T09:41:11.000Z</time>
      </trkpt>
      <trkpt lat="47.44499" lon="6.71153">
        <ele>447</ele>
        <time>2016-12-18T09:41:12.000Z</time>
      </trkpt>
      <trkpt lat="47.44504" lon="6.7115">
        <ele>445</ele>
        <time>2016-12-18T09:41:13.000Z</time>
      </trkpt>
      <trkpt lat="47.44508" lon="6.71149">
        <ele>445</ele>
        <time>2016-12-18T09:41:14.000Z</time>
      </trkpt>
      <trkpt lat="47.44514" lon="6.71145">
        <ele>445</ele>
        <time>2016-12-18T09:41:15.000Z</time>
      </trkpt>
      <trkpt lat="47.4452" lon="6.71138">
        <ele>445</ele>
        <time>2016-12-18T09:41:16.000Z</time>
      </trkpt>
      <trkpt lat="47.44525" lon="6.71132">
        <ele>445</ele>
        <time>2016-12-18T09:41:17.000Z</time>
      </trkpt>
      <trkpt lat="47.44528" lon="6.71129">
        <ele>445</ele>
        <time>2016-12-18T09:41:18.000Z</time>
      </trkpt>
      <trkpt lat="47.44533" lon="6.71122">
        <ele>445</ele>
        <time>2016-12-18T09:41:19.000Z</time>
      </trkpt>
      <trkpt lat="47.44538" lon="6.71117">
        <ele>445</ele>
        <time>2016-12-18T09:41:20.000Z</time>
      </trkpt>
      <trkpt lat="47.44542" lon="6.71112">
        <ele>445</ele>
        <time>2016-12-18T09:41:21.000Z</time>
      </trkpt>
      <trkpt lat="47.44545" lon="6.71107">
        <ele>445</ele>
        <time>2016-12-18T09:41:22.000Z</time>
      </trkpt>
      <trkpt lat="47.44549" lon="6.71102">
        <ele>445</ele>
        <time>2016-12-18T09:41:23.000Z</time>
      </trkpt>
      <trkpt lat="47.44555" lon="6.71094">
        <ele>445</ele>
        <time>2016-12-18T09:41:24.000Z</time>
      </trkpt>
      <trkpt lat="47.44559" lon="6.71089">
        <ele>444</ele>
        <time>2016-12-18T09:41:25.000Z</time>
      </trkpt>
      <trkpt lat="47.44563" lon="6.71086">
        <ele>444</ele>
        <time>2016-12-18T09:41:26.000Z</time>
      </trkpt>
      <trkpt lat="47.4457" lon="6.71078">
        <ele>446</ele>
        <time>2016-12-18T09:41:27.000Z</time>
      </trkpt>
      <trkpt lat="47.44577" lon="6.71071">
        <ele>446</ele>
        <time>2016-12-18T09:41:28.000Z</time>
      </trkpt>
      <trkpt lat="47.4458" lon="6.71067">
        <ele>446</ele>
        <time>2016-12-18T09:41:29.000Z</time>
      </trkpt>
      <trkpt lat="47.44586" lon="6.7106">
        <ele>445</ele>
        <time>2016-12-18T09:41:30.000Z</time>
      </trkpt>
      <trkpt lat="47.44592" lon="6.71053">
        <ele>445</ele>
        <time>2016-12-18T09:41:31.000Z</time>
      </trkpt>
      <trkpt lat="47.44597" lon="6.71046">
        <ele>445</ele>
        <time>2016-12-18T09:41:32.000Z</time>
      </trkpt>
      <trkpt lat="47.44601" lon="6.71041">
        <ele>446</ele>
        <time>2016-12-18T09:41:33.000Z</time>
      </trkpt>
      <trkpt lat="47.44605" lon="6.71035">
        <ele>446</ele>
        <time>2016-12-18T09:41:34.000Z</time>
      </trkpt>
      <trkpt lat="47.4461" lon="6.7103">
        <ele>446</ele>
        <time>2016-12-18T09:41:35.000Z</time>
      </trkpt>
      <trkpt lat="47.44615" lon="6.71024">
        <ele>446</ele>
        <time>2016-12-18T09:41:36.000Z</time>
      </trkpt>
      <trkpt lat="47.44619" lon="6.71018">
        <ele>446</ele>
        <time>2016-12-18T09:41:37.000Z</time>
      </trkpt>
      <trkpt lat="47.44626" lon="6.71015">
        <ele>446</ele>
        <time>2016-12-18T09:41:38.000Z</time>
      </trkpt>
      <trkpt lat="47.44631" lon="6.71011">
        <ele>445</ele>
        <time>2016-12-18T09:41:39.000Z</time>
      </trkpt>
      <trkpt lat="47.44635" lon="6.71008">
        <ele>445</ele>
        <time>2016-12-18T09:41:40.000Z</time>
      </trkpt>
      <trkpt lat="47.44643" lon="6.71001">
        <ele>445</ele>
        <time>2016-12-18T09:41:41.000Z</time>
      </trkpt>
      <trkpt lat="47.4465" lon="6.70996">
        <ele>447</ele>
        <time>2016-12-18T09:41:42.000Z</time>
      </trkpt>
      <trkpt lat="47.44657" lon="6.7099">
        <ele>446</ele>
        <time>2016-12-18T09:41:43.000Z</time>
      </trkpt>
      <trkpt lat="47.44666" lon="6.70982">
        <ele>447</ele>
        <time>2016-12-18T09:41:44.000Z</time>
      </trkpt>
      <trkpt lat="47.44672" lon="6.70976">
        <ele>443</ele>
        <time>2016-12-18T09:41:45.000Z</time>
      </trkpt>
      <trkpt lat="47.44678" lon="6.7097">
        <ele>443</ele>
        <time>2016-12-18T09:41:46.000Z</time>
      </trkpt>
      <trkpt lat="47.44684" lon="6.70967">
        <ele>443</ele>
        <time>2016-12-18T09:41:47.000Z</time>
      </trkpt>
      <trkpt lat="47.4469" lon="6.70964">
        <ele>443</ele>
        <time>2016-12-18T09:41:48.000Z</time>
      </trkpt>
      <trkpt lat="47.44695" lon="6.7096">
        <ele>442</ele>
        <time>2016-12-18T09:41:49.000Z</time>
      </trkpt>
      <trkpt lat="47.44702" lon="6.70955">
        <ele>442</ele>
        <time>2016-12-18T09:41:50.000Z</time>
      </trkpt>
      <trkpt lat="47.44708" lon="6.7095">
        <ele>442</ele>
        <time>2016-12-18T09:41:51.000Z</time>
      </trkpt>
      <trkpt lat="47.44714" lon="6.70946">
        <ele>441</ele>
        <time>2016-12-18T09:41:52.000Z</time>
      </trkpt>
      <trkpt lat="47.4472" lon="6.70943">
        <ele>441</ele>
        <time>2016-12-18T09:41:53.000Z</time>
      </trkpt>
      <trkpt lat="47.44729" lon="6.70936">
        <ele>440</ele>
        <time>2016-12-18T09:41:54.000Z</time>
      </trkpt>
      <trkpt lat="47.44736" lon="6.70932">
        <ele>439</ele>
        <time>2016-12-18T09:41:55.000Z</time>
      </trkpt>
      <trkpt lat="47.4474" lon="6.70929">
        <ele>438</ele>
        <time>2016-12-18T09:41:56.000Z</time>
      </trkpt>
      <trkpt lat="47.44742" lon="6.70926">
        <ele>437</ele>
        <time>2016-12-18T09:41:59.000Z</time>
      </trkpt>
      <trkpt lat="47.44745" lon="6.70923">
        <ele>436</ele>
        <time>2016-12-18T09:42:00.000Z</time>
      </trkpt>
      <trkpt lat="47.44748" lon="6.70921">
        <ele>435</ele>
        <time>2016-12-18T09:42:01.000Z</time>
      </trkpt>
      <trkpt lat="47.44753" lon="6.70919">
        <ele>435</ele>
        <time>2016-12-18T09:42:02.000Z</time>
      </trkpt>
      <trkpt lat="47.44761" lon="6.70915">
        <ele>435</ele>
        <time>2016-12-18T09:42:03.000Z</time>
      </trkpt>
      <trkpt lat="47.44765" lon="6.70912">
        <ele>435</ele>
        <time>2016-12-18T09:42:04.000Z</time>
      </trkpt>
      <trkpt lat="47.44769" lon="6.7091">
        <ele>435</ele>
        <time>2016-12-18T09:42:08.000Z</time>
      </trkpt>
      <trkpt lat="47.44786" lon="6.70899">
        <ele>436</ele>
        <time>2016-12-18T09:42:09.000Z</time>
      </trkpt>
      <trkpt lat="47.44791" lon="6.70895">
        <ele>436</ele>
        <time>2016-12-18T09:42:10.000Z</time>
      </trkpt>
      <trkpt lat="47.44795" lon="6.70891">
        <ele>436</ele>
        <time>2016-12-18T09:42:11.000Z</time>
      </trkpt>
      <trkpt lat="47.44799" lon="6.70885">
        <ele>436</ele>
        <time>2016-12-18T09:42:12.000Z</time>
      </trkpt>
      <trkpt lat="47.44803" lon="6.70881">
        <ele>436</ele>
        <time>2016-12-18T09:42:13.000Z</time>
      </trkpt>
      <trkpt lat="47.44809" lon="6.70869">
        <ele>436</ele>
        <time>2016-12-18T09:42:14.000Z</time>
      </trkpt>
      <trkpt lat="47.44813" lon="6.70865">
        <ele>435</ele>
        <time>2016-12-18T09:42:15.000Z</time>
      </trkpt>
      <trkpt lat="47.44817" lon="6.70861">
        <ele>435</ele>
        <time>2016-12-18T09:42:16.000Z</time>
      </trkpt>
      <trkpt lat="47.44821" lon="6.70854">
        <ele>435</ele>
        <time>2016-12-18T09:42:17.000Z</time>
      </trkpt>
      <trkpt lat="47.44825" lon="6.70848">
        <ele>434</ele>
        <time>2016-12-18T09:42:18.000Z</time>
      </trkpt>
      <trkpt lat="47.44829" lon="6.70842">
        <ele>433</ele>
        <time>2016-12-18T09:42:19.000Z</time>
      </trkpt>
      <trkpt lat="47.44835" lon="6.70832">
        <ele>432</ele>
        <time>2016-12-18T09:42:20.000Z</time>
      </trkpt>
      <trkpt lat="47.4484" lon="6.70828">
        <ele>432</ele>
        <time>2016-12-18T09:42:21.000Z</time>
      </trkpt>
      <trkpt lat="47.44846" lon="6.70823">
        <ele>432</ele>
        <time>2016-12-18T09:42:22.000Z</time>
      </trkpt>
      <trkpt lat="47.44852" lon="6.7082">
        <ele>432</ele>
        <time>2016-12-18T09:42:23.000Z</time>
      </trkpt>
      <trkpt lat="47.44858" lon="6.70816">
        <ele>432</ele>
        <time>2016-12-18T09:42:24.000Z</time>
      </trkpt>
      <trkpt lat="47.44863" lon="6.7081">
        <ele>432</ele>
        <time>2016-12-18T09:42:25.000Z</time>
      </trkpt>
      <trkpt lat="47.44871" lon="6.70802">
        <ele>432</ele>
        <time>2016-12-18T09:42:26.000Z</time>
      </trkpt>
      <trkpt lat="47.44879" lon="6.70794">
        <ele>432</ele>
        <time>2016-12-18T09:42:27.000Z</time>
      </trkpt>
      <trkpt lat="47.44886" lon="6.70785">
        <ele>431</ele>
        <time>2016-12-18T09:42:28.000Z</time>
      </trkpt>
      <trkpt lat="47.44891" lon="6.70778">
        <ele>431</ele>
        <time>2016-12-18T09:42:29.000Z</time>
      </trkpt>
      <trkpt lat="47.44895" lon="6.70774">
        <ele>431</ele>
        <time>2016-12-18T09:42:30.000Z</time>
      </trkpt>
      <trkpt lat="47.44898" lon="6.70768">
        <ele>430</ele>
        <time>2016-12-18T09:42:31.000Z</time>
      </trkpt>
      <trkpt lat="47.44902" lon="6.70759">
        <ele>429</ele>
        <time>2016-12-18T09:42:32.000Z</time>
      </trkpt>
      <trkpt lat="47.44906" lon="6.7075">
        <ele>428</ele>
        <time>2016-12-18T09:42:33.000Z</time>
      </trkpt>
      <trkpt lat="47.44911" lon="6.70741">
        <ele>428</ele>
        <time>2016-12-18T09:42:34.000Z</time>
      </trkpt>
      <trkpt lat="47.44911" lon="6.70733">
        <ele>429</ele>
        <time>2016-12-18T09:42:35.000Z</time>
      </trkpt>
      <trkpt lat="47.44914" lon="6.70726">
        <ele>429</ele>
        <time>2016-12-18T09:42:36.000Z</time>
      </trkpt>
      <trkpt lat="47.44917" lon="6.70717">
        <ele>429</ele>
        <time>2016-12-18T09:42:37.000Z</time>
      </trkpt>
      <trkpt lat="47.44919" lon="6.70711">
        <ele>423</ele>
        <time>2016-12-18T09:42:38.000Z</time>
      </trkpt>
      <trkpt lat="47.44921" lon="6.70704">
        <ele>422</ele>
        <time>2016-12-18T09:42:39.000Z</time>
      </trkpt>
      <trkpt lat="47.44924" lon="6.70697">
        <ele>422</ele>
        <time>2016-12-18T09:42:40.000Z</time>
      </trkpt>
      <trkpt lat="47.44926" lon="6.7069">
        <ele>422</ele>
        <time>2016-12-18T09:42:41.000Z</time>
      </trkpt>
      <trkpt lat="47.44927" lon="6.70682">
        <ele>422</ele>
        <time>2016-12-18T09:42:42.000Z</time>
      </trkpt>
      <trkpt lat="47.44929" lon="6.70675">
        <ele>422</ele>
        <time>2016-12-18T09:42:43.000Z</time>
      </trkpt>
      <trkpt lat="47.44931" lon="6.70669">
        <ele>422</ele>
        <time>2016-12-18T09:42:44.000Z</time>
      </trkpt>
      <trkpt lat="47.44934" lon="6.70664">
        <ele>422</ele>
        <time>2016-12-18T09:42:45.000Z</time>
      </trkpt>
      <trkpt lat="47.44936" lon="6.7066">
        <ele>421</ele>
        <time>2016-12-18T09:42:46.000Z</time>
      </trkpt>
      <trkpt lat="47.4494" lon="6.70655">
        <ele>421</ele>
        <time>2016-12-18T09:42:47.000Z</time>
      </trkpt>
      <trkpt lat="47.44942" lon="6.70653">
        <ele>421</ele>
        <time>2016-12-18T09:42:48.000Z</time>
      </trkpt>
      <trkpt lat="47.44943" lon="6.7065">
        <ele>421</ele>
        <time>2016-12-18T09:42:49.000Z</time>
      </trkpt>
      <trkpt lat="47.44944" lon="6.70648">
        <ele>421</ele>
        <time>2016-12-18T09:44:36.000Z</time>
      </trkpt>
      <trkpt lat="47.44951" lon="6.70654">
        <ele>421</ele>
        <time>2016-12-18T09:44:37.000Z</time>
      </trkpt>
      <trkpt lat="47.44951" lon="6.70654">
        <ele>421</ele>
        <time>2016-12-18T09:45:16.000Z</time>
      </trkpt>
      <trkpt lat="47.44962" lon="6.70628">
        <ele>420</ele>
        <time>2016-12-18T09:45:17.000Z</time>
      </trkpt>
      <trkpt lat="47.44965" lon="6.70621">
        <ele>420</ele>
        <time>2016-12-18T09:45:18.000Z</time>
      </trkpt>
      <trkpt lat="47.44966" lon="6.70612">
        <ele>420</ele>
        <time>2016-12-18T09:45:19.000Z</time>
      </trkpt>
      <trkpt lat="47.44967" lon="6.70607">
        <ele>420</ele>
        <time>2016-12-18T09:45:20.000Z</time>
      </trkpt>
      <trkpt lat="47.44967" lon="6.70603">
        <ele>420</ele>
        <time>2016-12-18T09:45:21.000Z</time>
      </trkpt>
      <trkpt lat="47.44968" lon="6.70601">
        <ele>420</ele>
        <time>2016-12-18T09:45:22.000Z</time>
      </trkpt>
      <trkpt lat="47.4497" lon="6.70597">
        <ele>420</ele>
        <time>2016-12-18T09:45:23.000Z</time>
      </trkpt>
      <trkpt lat="47.44973" lon="6.70592">
        <ele>420</ele>
        <time>2016-12-18T09:45:24.000Z</time>
      </trkpt>
      <trkpt lat="47.44978" lon="6.70593">
        <ele>420</ele>
        <time>2016-12-18T09:45:25.000Z</time>
      </trkpt>
      <trkpt lat="47.44983" lon="6.70598">
        <ele>420</ele>
        <time>2016-12-18T09:45:26.000Z</time>
      </trkpt>
      <trkpt lat="47.44986" lon="6.70601">
        <ele>420</ele>
        <time>2016-12-18T09:45:27.000Z</time>
      </trkpt>
      <trkpt lat="47.44992" lon="6.70606">
        <ele>420</ele>
        <time>2016-12-18T09:45:28.000Z</time>
      </trkpt>
      <trkpt lat="47.44998" lon="6.7061">
        <ele>420</ele>
        <time>2016-12-18T09:45:29.000Z</time>
      </trkpt>
      <trkpt lat="47.45002" lon="6.70612">
        <ele>419</ele>
        <time>2016-12-18T09:45:30.000Z</time>
      </trkpt>
      <trkpt lat="47.45008" lon="6.70614">
        <ele>419</ele>
        <time>2016-12-18T09:45:31.000Z</time>
      </trkpt>
      <trkpt lat="47.45011" lon="6.70617">
        <ele>419</ele>
        <time>2016-12-18T09:45:32.000Z</time>
      </trkpt>
      <trkpt lat="47.45014" lon="6.70619">
        <ele>419</ele>
        <time>2016-12-18T09:45:33.000Z</time>
      </trkpt>
      <trkpt lat="47.45016" lon="6.70619">
        <ele>419</ele>
        <time>2016-12-18T09:45:50.000Z</time>
      </trkpt>
      <trkpt lat="47.4504" lon="6.70605">
        <ele>419</ele>
        <time>2016-12-18T09:45:51.000Z</time>
      </trkpt>
      <trkpt lat="47.4504" lon="6.70605">
        <ele>419</ele>
        <time>2016-12-18T09:46:05.000Z</time>
      </trkpt>
      <trkpt lat="47.45057" lon="6.70609">
        <ele>419</ele>
        <time>2016-12-18T09:46:06.000Z</time>
      </trkpt>
      <trkpt lat="47.45057" lon="6.70609">
        <ele>419</ele>
        <time>2016-12-18T09:46:09.000Z</time>
      </trkpt>
      <trkpt lat="47.4507" lon="6.70622">
        <ele>419</ele>
        <time>2016-12-18T09:46:10.000Z</time>
      </trkpt>
      <trkpt lat="47.4507" lon="6.70622">
        <ele>419</ele>
        <time>2016-12-18T09:46:13.000Z</time>
      </trkpt>
      <trkpt lat="47.45078" lon="6.70631">
        <ele>420</ele>
        <time>2016-12-18T09:46:14.000Z</time>
      </trkpt>
      <trkpt lat="47.45078" lon="6.70631">
        <ele>420</ele>
        <time>2016-12-18T09:46:49.000Z</time>
      </trkpt>
      <trkpt lat="47.45082" lon="6.70642">
        <ele>420</ele>
        <time>2016-12-18T09:46:50.000Z</time>
      </trkpt>
      <trkpt lat="47.45082" lon="6.70642">
        <ele>420</ele>
        <time>2016-12-18T09:47:14.000Z</time>
      </trkpt>
      <trkpt lat="47.45085" lon="6.70657">
        <ele>422</ele>
        <time>2016-12-18T09:47:15.000Z</time>
      </trkpt>
      <trkpt lat="47.45088" lon="6.70661">
        <ele>422</ele>
        <time>2016-12-18T09:47:17.000Z</time>
      </trkpt>
      <trkpt lat="47.45087" lon="6.70664">
        <ele>422</ele>
        <time>2016-12-18T09:47:18.000Z</time>
      </trkpt>
      <trkpt lat="47.45089" lon="6.70666">
        <ele>422</ele>
        <time>2016-12-18T09:47:19.000Z</time>
      </trkpt>
      <trkpt lat="47.45091" lon="6.70669">
        <ele>423</ele>
        <time>2016-12-18T09:47:20.000Z</time>
      </trkpt>
      <trkpt lat="47.45094" lon="6.70673">
        <ele>424</ele>
        <time>2016-12-18T09:47:22.000Z</time>
      </trkpt>
      <trkpt lat="47.45095" lon="6.70675">
        <ele>424</ele>
        <time>2016-12-18T09:47:23.000Z</time>
      </trkpt>
      <trkpt lat="47.45097" lon="6.70678">
        <ele>424</ele>
        <time>2016-12-18T09:47:25.000Z</time>
      </trkpt>
      <trkpt lat="47.45098" lon="6.70681">
        <ele>424</ele>
        <time>2016-12-18T09:47:26.000Z</time>
      </trkpt>
      <trkpt lat="47.45099" lon="6.70683">
        <ele>424</ele>
        <time>2016-12-18T09:47:27.000Z</time>
      </trkpt>
      <trkpt lat="47.45101" lon="6.70685">
        <ele>425</ele>
        <time>2016-12-18T09:47:28.000Z</time>
      </trkpt>
      <trkpt lat="47.45104" lon="6.70689">
        <ele>425</ele>
        <time>2016-12-18T09:47:30.000Z</time>
      </trkpt>
      <trkpt lat="47.45106" lon="6.70689">
        <ele>425</ele>
        <time>2016-12-18T09:47:31.000Z</time>
      </trkpt>
      <trkpt lat="47.4511" lon="6.70691">
        <ele>425</ele>
        <time>2016-12-18T09:47:33.000Z</time>
      </trkpt>
      <trkpt lat="47.45112" lon="6.70692">
        <ele>425</ele>
        <time>2016-12-18T09:47:34.000Z</time>
      </trkpt>
      <trkpt lat="47.45116" lon="6.70693">
        <ele>425</ele>
        <time>2016-12-18T09:47:36.000Z</time>
      </trkpt>
      <trkpt lat="47.45117" lon="6.70693">
        <ele>425</ele>
        <time>2016-12-18T09:47:37.000Z</time>
      </trkpt>
      <trkpt lat="47.4512" lon="6.70696">
        <ele>426</ele>
        <time>2016-12-18T09:47:39.000Z</time>
      </trkpt>
      <trkpt lat="47.45122" lon="6.70697">
        <ele>426</ele>
        <time>2016-12-18T09:47:40.000Z</time>
      </trkpt>
      <trkpt lat="47.45123" lon="6.707">
        <ele>426</ele>
        <time>2016-12-18T09:47:41.000Z</time>
      </trkpt>
      <trkpt lat="47.45125" lon="6.70704">
        <ele>426</ele>
        <time>2016-12-18T09:47:42.000Z</time>
      </trkpt>
      <trkpt lat="47.45126" lon="6.70707">
        <ele>426</ele>
        <time>2016-12-18T09:47:43.000Z</time>
      </trkpt>
      <trkpt lat="47.45127" lon="6.70709">
        <ele>426</ele>
        <time>2016-12-18T09:47:44.000Z</time>
      </trkpt>
      <trkpt lat="47.45128" lon="6.70714">
        <ele>426</ele>
        <time>2016-12-18T09:47:46.000Z</time>
      </trkpt>
      <trkpt lat="47.45128" lon="6.70716">
        <ele>426</ele>
        <time>2016-12-18T09:47:47.000Z</time>
      </trkpt>
      <trkpt lat="47.45127" lon="6.70722">
        <ele>426</ele>
        <time>2016-12-18T09:47:49.999Z</time>
      </trkpt>
      <trkpt lat="47.45127" lon="6.70725">
        <ele>426</ele>
        <time>2016-12-18T09:47:50.999Z</time>
      </trkpt>
      <trkpt lat="47.45128" lon="6.70729">
        <ele>427</ele>
        <time>2016-12-18T09:47:51.999Z</time>
      </trkpt>
      <trkpt lat="47.45128" lon="6.70732">
        <ele>427</ele>
        <time>2016-12-18T09:47:52.999Z</time>
      </trkpt>
      <trkpt lat="47.45129" lon="6.70738">
        <ele>427</ele>
        <time>2016-12-18T09:47:54.999Z</time>
      </trkpt>
      <trkpt lat="47.45129" lon="6.7074">
        <ele>427</ele>
        <time>2016-12-18T09:47:55.999Z</time>
      </trkpt>
      <trkpt lat="47.4513" lon="6.70745">
        <ele>427</ele>
        <time>2016-12-18T09:47:57.999Z</time>
      </trkpt>
      <trkpt lat="47.45129" lon="6.70748">
        <ele>427</ele>
        <time>2016-12-18T09:47:58.999Z</time>
      </trkpt>
      <trkpt lat="47.45127" lon="6.70753">
        <ele>429</ele>
        <time>2016-12-18T09:47:59.999Z</time>
      </trkpt>
      <trkpt lat="47.45126" lon="6.70756">
        <ele>429</ele>
        <time>2016-12-18T09:48:00.999Z</time>
      </trkpt>
      <trkpt lat="47.45123" lon="6.70762">
        <ele>429</ele>
        <time>2016-12-18T09:48:02.999Z</time>
      </trkpt>
      <trkpt lat="47.45122" lon="6.70764">
        <ele>429</ele>
        <time>2016-12-18T09:48:03.999Z</time>
      </trkpt>
      <trkpt lat="47.4512" lon="6.70767">
        <ele>429</ele>
        <time>2016-12-18T09:48:05.999Z</time>
      </trkpt>
      <trkpt lat="47.4512" lon="6.7077">
        <ele>429</ele>
        <time>2016-12-18T09:48:06.999Z</time>
      </trkpt>
      <trkpt lat="47.45118" lon="6.70775">
        <ele>429</ele>
        <time>2016-12-18T09:48:08.999Z</time>
      </trkpt>
      <trkpt lat="47.45118" lon="6.70777">
        <ele>429</ele>
        <time>2016-12-18T09:48:09.999Z</time>
      </trkpt>
      <trkpt lat="47.45117" lon="6.70778">
        <ele>429</ele>
        <time>2016-12-18T09:48:16.999Z</time>
      </trkpt>
      <trkpt lat="47.45114" lon="6.70789">
        <ele>429</ele>
        <time>2016-12-18T09:48:17.999Z</time>
      </trkpt>
      <trkpt lat="47.45114" lon="6.70789">
        <ele>429</ele>
        <time>2016-12-18T09:48:23.999Z</time>
      </trkpt>
      <trkpt lat="47.45118" lon="6.7081">
        <ele>429</ele>
        <time>2016-12-18T09:48:24.999Z</time>
      </trkpt>
      <trkpt lat="47.4512" lon="6.70814">
        <ele>429</ele>
        <time>2016-12-18T09:48:26.999Z</time>
      </trkpt>
      <trkpt lat="47.45121" lon="6.70816">
        <ele>429</ele>
        <time>2016-12-18T09:48:27.999Z</time>
      </trkpt>
      <trkpt lat="47.45122" lon="6.70819">
        <ele>429</ele>
        <time>2016-12-18T09:48:29.999Z</time>
      </trkpt>
      <trkpt lat="47.45124" lon="6.70821">
        <ele>430</ele>
        <time>2016-12-18T09:48:30.999Z</time>
      </trkpt>
      <trkpt lat="47.45126" lon="6.70824">
        <ele>430</ele>
        <time>2016-12-18T09:48:31.999Z</time>
      </trkpt>
      <trkpt lat="47.45128" lon="6.70828">
        <ele>430</ele>
        <time>2016-12-18T09:48:32.999Z</time>
      </trkpt>
      <trkpt lat="47.45128" lon="6.70831">
        <ele>430</ele>
        <time>2016-12-18T09:48:33.999Z</time>
      </trkpt>
      <trkpt lat="47.45129" lon="6.70835">
        <ele>431</ele>
        <time>2016-12-18T09:48:34.999Z</time>
      </trkpt>
      <trkpt lat="47.4513" lon="6.70839">
        <ele>431</ele>
        <time>2016-12-18T09:48:35.999Z</time>
      </trkpt>
      <trkpt lat="47.45131" lon="6.70842">
        <ele>431</ele>
        <time>2016-12-18T09:48:36.999Z</time>
      </trkpt>
      <trkpt lat="47.45134" lon="6.70847">
        <ele>432</ele>
        <time>2016-12-18T09:48:38.999Z</time>
      </trkpt>
      <trkpt lat="47.45135" lon="6.70849">
        <ele>432</ele>
        <time>2016-12-18T09:48:39.999Z</time>
      </trkpt>
      <trkpt lat="47.45137" lon="6.70854">
        <ele>432</ele>
        <time>2016-12-18T09:48:41.999Z</time>
      </trkpt>
      <trkpt lat="47.45139" lon="6.70857">
        <ele>432</ele>
        <time>2016-12-18T09:48:42.999Z</time>
      </trkpt>
      <trkpt lat="47.45142" lon="6.70861">
        <ele>432</ele>
        <time>2016-12-18T09:48:44.999Z</time>
      </trkpt>
      <trkpt lat="47.45142" lon="6.70863">
        <ele>432</ele>
        <time>2016-12-18T09:48:45.999Z</time>
      </trkpt>
      <trkpt lat="47.45143" lon="6.70866">
        <ele>432</ele>
        <time>2016-12-18T09:48:46.999Z</time>
      </trkpt>
      <trkpt lat="47.45144" lon="6.70869">
        <ele>432</ele>
        <time>2016-12-18T09:48:47.999Z</time>
      </trkpt>
      <trkpt lat="47.45144" lon="6.70875">
        <ele>432</ele>
        <time>2016-12-18T09:48:49.999Z</time>
      </trkpt>
      <trkpt lat="47.45145" lon="6.70878">
        <ele>432</ele>
        <time>2016-12-18T09:48:50.999Z</time>
      </trkpt>
      <trkpt lat="47.45145" lon="6.70878">
        <ele>432</ele>
        <time>2016-12-18T09:48:54.999Z</time>
      </trkpt>
      <trkpt lat="47.4515" lon="6.7089">
        <ele>433</ele>
        <time>2016-12-18T09:48:55.999Z</time>
      </trkpt>
      <trkpt lat="47.45151" lon="6.70893">
        <ele>433</ele>
        <time>2016-12-18T09:48:56.999Z</time>
      </trkpt>
      <trkpt lat="47.45152" lon="6.70896">
        <ele>433</ele>
        <time>2016-12-18T09:48:57.999Z</time>
      </trkpt>
      <trkpt lat="47.45154" lon="6.70901">
        <ele>433</ele>
        <time>2016-12-18T09:48:59.999Z</time>
      </trkpt>
      <trkpt lat="47.45156" lon="6.70903">
        <ele>434</ele>
        <time>2016-12-18T09:49:00.999Z</time>
      </trkpt>
      <trkpt lat="47.45158" lon="6.70906">
        <ele>434</ele>
        <time>2016-12-18T09:49:01.999Z</time>
      </trkpt>
      <trkpt lat="47.45159" lon="6.70908">
        <ele>434</ele>
        <time>2016-12-18T09:49:02.999Z</time>
      </trkpt>
      <trkpt lat="47.45161" lon="6.70913">
        <ele>435</ele>
        <time>2016-12-18T09:49:04.999Z</time>
      </trkpt>
      <trkpt lat="47.45161" lon="6.70914">
        <ele>435</ele>
        <time>2016-12-18T09:49:05.999Z</time>
      </trkpt>
      <trkpt lat="47.45164" lon="6.70919">
        <ele>435</ele>
        <time>2016-12-18T09:49:07.999Z</time>
      </trkpt>
      <trkpt lat="47.45165" lon="6.70921">
        <ele>435</ele>
        <time>2016-12-18T09:49:08.999Z</time>
      </trkpt>
      <trkpt lat="47.45168" lon="6.70926">
        <ele>436</ele>
        <time>2016-12-18T09:49:10.999Z</time>
      </trkpt>
      <trkpt lat="47.45169" lon="6.7093">
        <ele>436</ele>
        <time>2016-12-18T09:49:11.999Z</time>
      </trkpt>
      <trkpt lat="47.45171" lon="6.70933">
        <ele>435</ele>
        <time>2016-12-18T09:49:12.999Z</time>
      </trkpt>
      <trkpt lat="47.45173" lon="6.70938">
        <ele>435</ele>
        <time>2016-12-18T09:49:13.999Z</time>
      </trkpt>
      <trkpt lat="47.45175" lon="6.70941">
        <ele>435</ele>
        <time>2016-12-18T09:49:14.999Z</time>
      </trkpt>
      <trkpt lat="47.45177" lon="6.70944">
        <ele>435</ele>
        <time>2016-12-18T09:49:15.999Z</time>
      </trkpt>
      <trkpt lat="47.45178" lon="6.70947">
        <ele>435</ele>
        <time>2016-12-18T09:49:16.999Z</time>
      </trkpt>
      <trkpt lat="47.45179" lon="6.7095">
        <ele>435</ele>
        <time>2016-12-18T09:49:17.999Z</time>
      </trkpt>
      <trkpt lat="47.45181" lon="6.70954">
        <ele>435</ele>
        <time>2016-12-18T09:49:19.999Z</time>
      </trkpt>
      <trkpt lat="47.45182" lon="6.70957">
        <ele>435</ele>
        <time>2016-12-18T09:49:20.999Z</time>
      </trkpt>
      <trkpt lat="47.45184" lon="6.7096">
        <ele>435</ele>
        <time>2016-12-18T09:49:21.999Z</time>
      </trkpt>
      <trkpt lat="47.45185" lon="6.70965">
        <ele>435</ele>
        <time>2016-12-18T09:49:22.999Z</time>
      </trkpt>
      <trkpt lat="47.45187" lon="6.70969">
        <ele>435</ele>
        <time>2016-12-18T09:49:23.999Z</time>
      </trkpt>
      <trkpt lat="47.45188" lon="6.70972">
        <ele>435</ele>
        <time>2016-12-18T09:49:24.999Z</time>
      </trkpt>
      <trkpt lat="47.45189" lon="6.70974">
        <ele>435</ele>
        <time>2016-12-18T09:49:25.999Z</time>
      </trkpt>
      <trkpt lat="47.4519" lon="6.70978">
        <ele>435</ele>
        <time>2016-12-18T09:49:26.999Z</time>
      </trkpt>
      <trkpt lat="47.45192" lon="6.70981">
        <ele>435</ele>
        <time>2016-12-18T09:49:27.999Z</time>
      </trkpt>
      <trkpt lat="47.45192" lon="6.70984">
        <ele>435</ele>
        <time>2016-12-18T09:49:28.999Z</time>
      </trkpt>
      <trkpt lat="47.45194" lon="6.70988">
        <ele>435</ele>
        <time>2016-12-18T09:49:29.999Z</time>
      </trkpt>
      <trkpt lat="47.45195" lon="6.70992">
        <ele>435</ele>
        <time>2016-12-18T09:49:30.999Z</time>
      </trkpt>
      <trkpt lat="47.45197" lon="6.70997">
        <ele>435</ele>
        <time>2016-12-18T09:49:32.999Z</time>
      </trkpt>
      <trkpt lat="47.45198" lon="6.70999">
        <ele>435</ele>
        <time>2016-12-18T09:49:33.999Z</time>
      </trkpt>
      <trkpt lat="47.452" lon="6.71004">
        <ele>435</ele>
        <time>2016-12-18T09:49:35.999Z</time>
      </trkpt>
      <trkpt lat="47.45201" lon="6.71008">
        <ele>435</ele>
        <time>2016-12-18T09:49:36.999Z</time>
      </trkpt>
      <trkpt lat="47.45203" lon="6.71011">
        <ele>435</ele>
        <time>2016-12-18T09:49:37.999Z</time>
      </trkpt>
      <trkpt lat="47.45203" lon="6.71014">
        <ele>435</ele>
        <time>2016-12-18T09:49:38.999Z</time>
      </trkpt>
      <trkpt lat="47.45205" lon="6.7102">
        <ele>435</ele>
        <time>2016-12-18T09:49:40.999Z</time>
      </trkpt>
      <trkpt lat="47.45206" lon="6.71023">
        <ele>435</ele>
        <time>2016-12-18T09:49:41.999Z</time>
      </trkpt>
      <trkpt lat="47.45207" lon="6.71028">
        <ele>435</ele>
        <time>2016-12-18T09:49:42.999Z</time>
      </trkpt>
      <trkpt lat="47.45208" lon="6.71031">
        <ele>435</ele>
        <time>2016-12-18T09:49:43.999Z</time>
      </trkpt>
      <trkpt lat="47.4521" lon="6.71037">
        <ele>435</ele>
        <time>2016-12-18T09:49:45.999Z</time>
      </trkpt>
      <trkpt lat="47.4521" lon="6.71039">
        <ele>435</ele>
        <time>2016-12-18T09:49:46.999Z</time>
      </trkpt>
      <trkpt lat="47.45211" lon="6.71044">
        <ele>435</ele>
        <time>2016-12-18T09:49:48.999Z</time>
      </trkpt>
      <trkpt lat="47.45211" lon="6.71046">
        <ele>435</ele>
        <time>2016-12-18T09:49:49.999Z</time>
      </trkpt>
      <trkpt lat="47.45211" lon="6.71052">
        <ele>435</ele>
        <time>2016-12-18T09:49:51.999Z</time>
      </trkpt>
      <trkpt lat="47.45212" lon="6.71054">
        <ele>435</ele>
        <time>2016-12-18T09:49:52.999Z</time>
      </trkpt>
      <trkpt lat="47.45215" lon="6.71059">
        <ele>435</ele>
        <time>2016-12-18T09:49:55.999Z</time>
      </trkpt>
      <trkpt lat="47.45216" lon="6.7106">
        <ele>435</ele>
        <time>2016-12-18T09:49:56.999Z</time>
      </trkpt>
      <trkpt lat="47.45217" lon="6.71062">
        <ele>435</ele>
        <time>2016-12-18T09:49:57.999Z</time>
      </trkpt>
      <trkpt lat="47.45219" lon="6.71064">
        <ele>436</ele>
        <time>2016-12-18T09:49:58.999Z</time>
      </trkpt>
      <trkpt lat="47.45221" lon="6.71067">
        <ele>436</ele>
        <time>2016-12-18T09:49:59.999Z</time>
      </trkpt>
      <trkpt lat="47.45223" lon="6.7107">
        <ele>436</ele>
        <time>2016-12-18T09:50:00.999Z</time>
      </trkpt>
      <trkpt lat="47.45225" lon="6.71075">
        <ele>436</ele>
        <time>2016-12-18T09:50:02.999Z</time>
      </trkpt>
      <trkpt lat="47.45225" lon="6.71076">
        <ele>436</ele>
        <time>2016-12-18T09:50:03.999Z</time>
      </trkpt>
      <trkpt lat="47.45227" lon="6.7108">
        <ele>436</ele>
        <time>2016-12-18T09:50:18.999Z</time>
      </trkpt>
      <trkpt lat="47.45225" lon="6.71092">
        <ele>437</ele>
        <time>2016-12-18T09:50:19.999Z</time>
      </trkpt>
      <trkpt lat="47.45225" lon="6.71092">
        <ele>437</ele>
        <time>2016-12-18T09:50:28.999Z</time>
      </trkpt>
      <trkpt lat="47.45226" lon="6.711">
        <ele>437</ele>
        <time>2016-12-18T09:50:29.999Z</time>
      </trkpt>
      <trkpt lat="47.4523" lon="6.71102">
        <ele>437</ele>
        <time>2016-12-18T09:50:35.999Z</time>
      </trkpt>
      <trkpt lat="47.45231" lon="6.71102">
        <ele>437</ele>
        <time>2016-12-18T09:50:36.999Z</time>
      </trkpt>
      <trkpt lat="47.45235" lon="6.71104">
        <ele>437</ele>
        <time>2016-12-18T09:50:41.999Z</time>
      </trkpt>
      <trkpt lat="47.45236" lon="6.71105">
        <ele>437</ele>
        <time>2016-12-18T09:50:42.999Z</time>
      </trkpt>
      <trkpt lat="47.45239" lon="6.71108">
        <ele>437</ele>
        <time>2016-12-18T09:50:44.999Z</time>
      </trkpt>
      <trkpt lat="47.45241" lon="6.71111">
        <ele>437</ele>
        <time>2016-12-18T09:50:45.999Z</time>
      </trkpt>
      <trkpt lat="47.45243" lon="6.71114">
        <ele>437</ele>
        <time>2016-12-18T09:50:46.999Z</time>
      </trkpt>
      <trkpt lat="47.45245" lon="6.71115">
        <ele>437</ele>
        <time>2016-12-18T09:50:47.999Z</time>
      </trkpt>
      <trkpt lat="47.45247" lon="6.71118">
        <ele>438</ele>
        <time>2016-12-18T09:50:48.999Z</time>
      </trkpt>
      <trkpt lat="47.45249" lon="6.7112">
        <ele>438</ele>
        <time>2016-12-18T09:50:49.999Z</time>
      </trkpt>
      <trkpt lat="47.45251" lon="6.71124">
        <ele>435</ele>
        <time>2016-12-18T09:50:51.999Z</time>
      </trkpt>
      <trkpt lat="47.45253" lon="6.71127">
        <ele>436</ele>
        <time>2016-12-18T09:50:52.999Z</time>
      </trkpt>
      <trkpt lat="47.45254" lon="6.7113">
        <ele>436</ele>
        <time>2016-12-18T09:50:53.999Z</time>
      </trkpt>
      <trkpt lat="47.45255" lon="6.71132">
        <ele>436</ele>
        <time>2016-12-18T09:50:54.999Z</time>
      </trkpt>
      <trkpt lat="47.45257" lon="6.71138">
        <ele>436</ele>
        <time>2016-12-18T09:50:56.999Z</time>
      </trkpt>
      <trkpt lat="47.45258" lon="6.71141">
        <ele>436</ele>
        <time>2016-12-18T09:50:57.999Z</time>
      </trkpt>
      <trkpt lat="47.4526" lon="6.71146">
        <ele>436</ele>
        <time>2016-12-18T09:50:59.999Z</time>
      </trkpt>
      <trkpt lat="47.45262" lon="6.71148">
        <ele>436</ele>
        <time>2016-12-18T09:51:00.999Z</time>
      </trkpt>
      <trkpt lat="47.45263" lon="6.71151">
        <ele>436</ele>
        <time>2016-12-18T09:51:01.999Z</time>
      </trkpt>
      <trkpt lat="47.45264" lon="6.71155">
        <ele>436</ele>
        <time>2016-12-18T09:51:02.999Z</time>
      </trkpt>
      <trkpt lat="47.45265" lon="6.71158">
        <ele>437</ele>
        <time>2016-12-18T09:51:03.999Z</time>
      </trkpt>
      <trkpt lat="47.45267" lon="6.71163">
        <ele>437</ele>
        <time>2016-12-18T09:51:04.999Z</time>
      </trkpt>
      <trkpt lat="47.45269" lon="6.71167">
        <ele>438</ele>
        <time>2016-12-18T09:51:06.999Z</time>
      </trkpt>
      <trkpt lat="47.45269" lon="6.71169">
        <ele>438</ele>
        <time>2016-12-18T09:51:07.999Z</time>
      </trkpt>
      <trkpt lat="47.45271" lon="6.71175">
        <ele>438</ele>
        <time>2016-12-18T09:51:10.999Z</time>
      </trkpt>
      <trkpt lat="47.45273" lon="6.71179">
        <ele>437</ele>
        <time>2016-12-18T09:51:11.999Z</time>
      </trkpt>
      <trkpt lat="47.45274" lon="6.71182">
        <ele>437</ele>
        <time>2016-12-18T09:51:12.999Z</time>
      </trkpt>
      <trkpt lat="47.45275" lon="6.71186">
        <ele>437</ele>
        <time>2016-12-18T09:51:13.999Z</time>
      </trkpt>
      <trkpt lat="47.45277" lon="6.7119">
        <ele>437</ele>
        <time>2016-12-18T09:51:14.999Z</time>
      </trkpt>
      <trkpt lat="47.45278" lon="6.71192">
        <ele>437</ele>
        <time>2016-12-18T09:51:15.999Z</time>
      </trkpt>
      <trkpt lat="47.4528" lon="6.71196">
        <ele>437</ele>
        <time>2016-12-18T09:51:17.999Z</time>
      </trkpt>
      <trkpt lat="47.45282" lon="6.712">
        <ele>437</ele>
        <time>2016-12-18T09:51:18.999Z</time>
      </trkpt>
      <trkpt lat="47.45283" lon="6.71203">
        <ele>437</ele>
        <time>2016-12-18T09:51:19.999Z</time>
      </trkpt>
      <trkpt lat="47.45283" lon="6.71207">
        <ele>437</ele>
        <time>2016-12-18T09:51:20.999Z</time>
      </trkpt>
      <trkpt lat="47.45285" lon="6.71211">
        <ele>437</ele>
        <time>2016-12-18T09:51:22.999Z</time>
      </trkpt>
      <trkpt lat="47.45286" lon="6.71213">
        <ele>437</ele>
        <time>2016-12-18T09:51:23.999Z</time>
      </trkpt>
      <trkpt lat="47.45287" lon="6.71215">
        <ele>437</ele>
        <time>2016-12-18T09:51:24.999Z</time>
      </trkpt>
      <trkpt lat="47.45289" lon="6.71218">
        <ele>437</ele>
        <time>2016-12-18T09:51:25.999Z</time>
      </trkpt>
      <trkpt lat="47.45291" lon="6.71223">
        <ele>437</ele>
        <time>2016-12-18T09:51:27.999Z</time>
      </trkpt>
      <trkpt lat="47.45292" lon="6.71225">
        <ele>437</ele>
        <time>2016-12-18T09:51:28.999Z</time>
      </trkpt>
      <trkpt lat="47.45294" lon="6.71229">
        <ele>437</ele>
        <time>2016-12-18T09:51:30.999Z</time>
      </trkpt>
      <trkpt lat="47.45296" lon="6.71231">
        <ele>437</ele>
        <time>2016-12-18T09:51:31.999Z</time>
      </trkpt>
      <trkpt lat="47.45298" lon="6.71235">
        <ele>437</ele>
        <time>2016-12-18T09:51:32.999Z</time>
      </trkpt>
      <trkpt lat="47.453" lon="6.71238">
        <ele>437</ele>
        <time>2016-12-18T09:51:33.999Z</time>
      </trkpt>
      <trkpt lat="47.45301" lon="6.71242">
        <ele>437</ele>
        <time>2016-12-18T09:51:34.999Z</time>
      </trkpt>
      <trkpt lat="47.45303" lon="6.71245">
        <ele>437</ele>
        <time>2016-12-18T09:51:35.999Z</time>
      </trkpt>
      <trkpt lat="47.45305" lon="6.71247">
        <ele>436</ele>
        <time>2016-12-18T09:51:36.999Z</time>
      </trkpt>
      <trkpt lat="47.45306" lon="6.7125">
        <ele>436</ele>
        <time>2016-12-18T09:51:37.999Z</time>
      </trkpt>
      <trkpt lat="47.45308" lon="6.71255">
        <ele>437</ele>
        <time>2016-12-18T09:51:39.999Z</time>
      </trkpt>
      <trkpt lat="47.45308" lon="6.71258">
        <ele>437</ele>
        <time>2016-12-18T09:51:40.999Z</time>
      </trkpt>
      <trkpt lat="47.45307" lon="6.71263">
        <ele>438</ele>
        <time>2016-12-18T09:51:42.999Z</time>
      </trkpt>
      <trkpt lat="47.45306" lon="6.71265">
        <ele>438</ele>
        <time>2016-12-18T09:51:43.999Z</time>
      </trkpt>
      <trkpt lat="47.45304" lon="6.71268">
        <ele>438</ele>
        <time>2016-12-18T09:51:45.999Z</time>
      </trkpt>
      <trkpt lat="47.45302" lon="6.71269">
        <ele>438</ele>
        <time>2016-12-18T09:51:46.999Z</time>
      </trkpt>
      <trkpt lat="47.453" lon="6.71271">
        <ele>438</ele>
        <time>2016-12-18T09:51:48.999Z</time>
      </trkpt>
      <trkpt lat="47.45297" lon="6.71272">
        <ele>438</ele>
        <time>2016-12-18T09:51:49.999Z</time>
      </trkpt>
      <trkpt lat="47.45293" lon="6.71275">
        <ele>438</ele>
        <time>2016-12-18T09:51:51.999Z</time>
      </trkpt>
      <trkpt lat="47.45292" lon="6.71276">
        <ele>439</ele>
        <time>2016-12-18T09:51:52.999Z</time>
      </trkpt>
      <trkpt lat="47.4529" lon="6.71278">
        <ele>439</ele>
        <time>2016-12-18T09:51:53.999Z</time>
      </trkpt>
      <trkpt lat="47.45288" lon="6.7128">
        <ele>439</ele>
        <time>2016-12-18T09:51:54.999Z</time>
      </trkpt>
      <trkpt lat="47.45285" lon="6.71283">
        <ele>439</ele>
        <time>2016-12-18T09:51:57.999Z</time>
      </trkpt>
      <trkpt lat="47.45283" lon="6.71283">
        <ele>439</ele>
        <time>2016-12-18T09:51:58.999Z</time>
      </trkpt>
      <trkpt lat="47.4528" lon="6.71285">
        <ele>439</ele>
        <time>2016-12-18T09:52:01.999Z</time>
      </trkpt>
      <trkpt lat="47.45278" lon="6.71286">
        <ele>439</ele>
        <time>2016-12-18T09:52:02.999Z</time>
      </trkpt>
      <trkpt lat="47.45275" lon="6.71288">
        <ele>439</ele>
        <time>2016-12-18T09:52:04.999Z</time>
      </trkpt>
      <trkpt lat="47.45273" lon="6.71289">
        <ele>439</ele>
        <time>2016-12-18T09:52:05.999Z</time>
      </trkpt>
      <trkpt lat="47.4527" lon="6.7129">
        <ele>440</ele>
        <time>2016-12-18T09:52:06.999Z</time>
      </trkpt>
      <trkpt lat="47.45268" lon="6.71291">
        <ele>440</ele>
        <time>2016-12-18T09:52:07.999Z</time>
      </trkpt>
      <trkpt lat="47.45264" lon="6.71294">
        <ele>440</ele>
        <time>2016-12-18T09:52:11.999Z</time>
      </trkpt>
      <trkpt lat="47.45263" lon="6.71294">
        <ele>440</ele>
        <time>2016-12-18T09:52:12.999Z</time>
      </trkpt>
      <trkpt lat="47.4526" lon="6.71296">
        <ele>440</ele>
        <time>2016-12-18T09:52:16.999Z</time>
      </trkpt>
      <trkpt lat="47.45259" lon="6.71297">
        <ele>440</ele>
        <time>2016-12-18T09:52:17.999Z</time>
      </trkpt>
      <trkpt lat="47.45258" lon="6.71302">
        <ele>441</ele>
        <time>2016-12-18T09:52:20.999Z</time>
      </trkpt>
      <trkpt lat="47.45258" lon="6.71306">
        <ele>441</ele>
        <time>2016-12-18T09:52:21.999Z</time>
      </trkpt>
      <trkpt lat="47.45258" lon="6.71309">
        <ele>441</ele>
        <time>2016-12-18T09:52:22.999Z</time>
      </trkpt>
      <trkpt lat="47.4526" lon="6.71313">
        <ele>441</ele>
        <time>2016-12-18T09:52:23.999Z</time>
      </trkpt>
      <trkpt lat="47.45261" lon="6.71316">
        <ele>441</ele>
        <time>2016-12-18T09:52:24.999Z</time>
      </trkpt>
      <trkpt lat="47.45262" lon="6.71318">
        <ele>442</ele>
        <time>2016-12-18T09:52:25.999Z</time>
      </trkpt>
      <trkpt lat="47.45263" lon="6.71322">
        <ele>442</ele>
        <time>2016-12-18T09:52:26.999Z</time>
      </trkpt>
      <trkpt lat="47.45263" lon="6.71325">
        <ele>442</ele>
        <time>2016-12-18T09:52:27.999Z</time>
      </trkpt>
      <trkpt lat="47.45264" lon="6.71329">
        <ele>442</ele>
        <time>2016-12-18T09:52:28.999Z</time>
      </trkpt>
      <trkpt lat="47.45265" lon="6.71332">
        <ele>442</ele>
        <time>2016-12-18T09:52:29.999Z</time>
      </trkpt>
      <trkpt lat="47.45266" lon="6.71337">
        <ele>444</ele>
        <time>2016-12-18T09:52:31.999Z</time>
      </trkpt>
      <trkpt lat="47.45267" lon="6.7134">
        <ele>443</ele>
        <time>2016-12-18T09:52:32.999Z</time>
      </trkpt>
      <trkpt lat="47.45269" lon="6.71346">
        <ele>443</ele>
        <time>2016-12-18T09:52:34.999Z</time>
      </trkpt>
      <trkpt lat="47.4527" lon="6.71348">
        <ele>443</ele>
        <time>2016-12-18T09:52:35.999Z</time>
      </trkpt>
      <trkpt lat="47.45271" lon="6.71352">
        <ele>443</ele>
        <time>2016-12-18T09:52:36.999Z</time>
      </trkpt>
      <trkpt lat="47.45271" lon="6.71355">
        <ele>443</ele>
        <time>2016-12-18T09:52:37.999Z</time>
      </trkpt>
      <trkpt lat="47.45271" lon="6.71358">
        <ele>443</ele>
        <time>2016-12-18T09:52:38.999Z</time>
      </trkpt>
      <trkpt lat="47.45272" lon="6.71362">
        <ele>443</ele>
        <time>2016-12-18T09:52:39.999Z</time>
      </trkpt>
      <trkpt lat="47.45274" lon="6.71366">
        <ele>443</ele>
        <time>2016-12-18T09:52:40.999Z</time>
      </trkpt>
      <trkpt lat="47.45275" lon="6.7137">
        <ele>443</ele>
        <time>2016-12-18T09:52:41.999Z</time>
      </trkpt>
      <trkpt lat="47.45276" lon="6.71373">
        <ele>443</ele>
        <time>2016-12-18T09:52:42.999Z</time>
      </trkpt>
      <trkpt lat="47.45277" lon="6.71377">
        <ele>443</ele>
        <time>2016-12-18T09:52:43.999Z</time>
      </trkpt>
      <trkpt lat="47.45278" lon="6.7138">
        <ele>443</ele>
        <time>2016-12-18T09:52:44.999Z</time>
      </trkpt>
      <trkpt lat="47.45279" lon="6.71384">
        <ele>443</ele>
        <time>2016-12-18T09:52:45.999Z</time>
      </trkpt>
      <trkpt lat="47.4528" lon="6.71388">
        <ele>444</ele>
        <time>2016-12-18T09:52:46.999Z</time>
      </trkpt>
      <trkpt lat="47.45281" lon="6.71392">
        <ele>444</ele>
        <time>2016-12-18T09:52:47.999Z</time>
      </trkpt>
      <trkpt lat="47.45283" lon="6.71398">
        <ele>444</ele>
        <time>2016-12-18T09:52:49.999Z</time>
      </trkpt>
      <trkpt lat="47.45284" lon="6.71401">
        <ele>444</ele>
        <time>2016-12-18T09:52:50.999Z</time>
      </trkpt>
      <trkpt lat="47.45286" lon="6.71407">
        <ele>444</ele>
        <time>2016-12-18T09:52:52.999Z</time>
      </trkpt>
      <trkpt lat="47.45287" lon="6.7141">
        <ele>443</ele>
        <time>2016-12-18T09:52:53.999Z</time>
      </trkpt>
      <trkpt lat="47.45288" lon="6.71413">
        <ele>443</ele>
        <time>2016-12-18T09:52:54.999Z</time>
      </trkpt>
      <trkpt lat="47.45289" lon="6.71416">
        <ele>443</ele>
        <time>2016-12-18T09:52:55.999Z</time>
      </trkpt>
      <trkpt lat="47.4529" lon="6.71419">
        <ele>447</ele>
        <time>2016-12-18T09:52:56.999Z</time>
      </trkpt>
      <trkpt lat="47.4529" lon="6.71423">
        <ele>446</ele>
        <time>2016-12-18T09:52:57.999Z</time>
      </trkpt>
      <trkpt lat="47.45291" lon="6.71426">
        <ele>446</ele>
        <time>2016-12-18T09:52:58.999Z</time>
      </trkpt>
      <trkpt lat="47.45292" lon="6.7143">
        <ele>446</ele>
        <time>2016-12-18T09:52:59.999Z</time>
      </trkpt>
      <trkpt lat="47.45294" lon="6.71434">
        <ele>446</ele>
        <time>2016-12-18T09:53:00.999Z</time>
      </trkpt>
      <trkpt lat="47.45295" lon="6.71437">
        <ele>446</ele>
        <time>2016-12-18T09:53:01.999Z</time>
      </trkpt>
      <trkpt lat="47.45297" lon="6.71442">
        <ele>446</ele>
        <time>2016-12-18T09:53:03.999Z</time>
      </trkpt>
      <trkpt lat="47.45299" lon="6.71446">
        <ele>446</ele>
        <time>2016-12-18T09:53:04.999Z</time>
      </trkpt>
      <trkpt lat="47.453" lon="6.71451">
        <ele>446</ele>
        <time>2016-12-18T09:53:07.999Z</time>
      </trkpt>
      <trkpt lat="47.45301" lon="6.71453">
        <ele>446</ele>
        <time>2016-12-18T09:53:08.999Z</time>
      </trkpt>
      <trkpt lat="47.45299" lon="6.71459">
        <ele>447</ele>
        <time>2016-12-18T09:53:13.999Z</time>
      </trkpt>
      <trkpt lat="47.45299" lon="6.71461">
        <ele>447</ele>
        <time>2016-12-18T09:53:14.999Z</time>
      </trkpt>
      <trkpt lat="47.45301" lon="6.71465">
        <ele>447</ele>
        <time>2016-12-18T09:53:16.999Z</time>
      </trkpt>
      <trkpt lat="47.45302" lon="6.71468">
        <ele>447</ele>
        <time>2016-12-18T09:53:17.999Z</time>
      </trkpt>
      <trkpt lat="47.45305" lon="6.71472">
        <ele>446</ele>
        <time>2016-12-18T09:53:19.999Z</time>
      </trkpt>
      <trkpt lat="47.45307" lon="6.71475">
        <ele>446</ele>
        <time>2016-12-18T09:53:20.999Z</time>
      </trkpt>
      <trkpt lat="47.45308" lon="6.7148">
        <ele>446</ele>
        <time>2016-12-18T09:53:22.999Z</time>
      </trkpt>
      <trkpt lat="47.45309" lon="6.71481">
        <ele>446</ele>
        <time>2016-12-18T09:53:23.999Z</time>
      </trkpt>
      <trkpt lat="47.4531" lon="6.71487">
        <ele>446</ele>
        <time>2016-12-18T09:53:27.999Z</time>
      </trkpt>
      <trkpt lat="47.4531" lon="6.71488">
        <ele>446</ele>
        <time>2016-12-18T09:53:28.999Z</time>
      </trkpt>
      <trkpt lat="47.45311" lon="6.71493">
        <ele>446</ele>
        <time>2016-12-18T09:53:31.999Z</time>
      </trkpt>
      <trkpt lat="47.45311" lon="6.71497">
        <ele>446</ele>
        <time>2016-12-18T09:53:32.999Z</time>
      </trkpt>
      <trkpt lat="47.45312" lon="6.71501">
        <ele>449</ele>
        <time>2016-12-18T09:53:33.999Z</time>
      </trkpt>
      <trkpt lat="47.45313" lon="6.71503">
        <ele>448</ele>
        <time>2016-12-18T09:53:34.999Z</time>
      </trkpt>
      <trkpt lat="47.45313" lon="6.71507">
        <ele>449</ele>
        <time>2016-12-18T09:53:36.999Z</time>
      </trkpt>
      <trkpt lat="47.45314" lon="6.71509">
        <ele>449</ele>
        <time>2016-12-18T09:53:37.999Z</time>
      </trkpt>
      <trkpt lat="47.45315" lon="6.71515">
        <ele>449</ele>
        <time>2016-12-18T09:53:39.999Z</time>
      </trkpt>
      <trkpt lat="47.45315" lon="6.71517">
        <ele>449</ele>
        <time>2016-12-18T09:53:40.999Z</time>
      </trkpt>
      <trkpt lat="47.45316" lon="6.7152">
        <ele>449</ele>
        <time>2016-12-18T09:53:42.999Z</time>
      </trkpt>
      <trkpt lat="47.45317" lon="6.71523">
        <ele>450</ele>
        <time>2016-12-18T09:53:43.999Z</time>
      </trkpt>
      <trkpt lat="47.45318" lon="6.71526">
        <ele>450</ele>
        <time>2016-12-18T09:53:44.999Z</time>
      </trkpt>
      <trkpt lat="47.45319" lon="6.7153">
        <ele>450</ele>
        <time>2016-12-18T09:53:45.999Z</time>
      </trkpt>
      <trkpt lat="47.45319" lon="6.71535">
        <ele>451</ele>
        <time>2016-12-18T09:53:48.999Z</time>
      </trkpt>
      <trkpt lat="47.45319" lon="6.71537">
        <ele>451</ele>
        <time>2016-12-18T09:53:49.999Z</time>
      </trkpt>
      <trkpt lat="47.45318" lon="6.71542">
        <ele>451</ele>
        <time>2016-12-18T09:53:51.999Z</time>
      </trkpt>
      <trkpt lat="47.45319" lon="6.71544">
        <ele>451</ele>
        <time>2016-12-18T09:53:52.999Z</time>
      </trkpt>
      <trkpt lat="47.4532" lon="6.71549">
        <ele>451</ele>
        <time>2016-12-18T09:53:54.999Z</time>
      </trkpt>
      <trkpt lat="47.4532" lon="6.71551">
        <ele>451</ele>
        <time>2016-12-18T09:53:55.999Z</time>
      </trkpt>
      <trkpt lat="47.4532" lon="6.71557">
        <ele>451</ele>
        <time>2016-12-18T09:54:00.999Z</time>
      </trkpt>
      <trkpt lat="47.4532" lon="6.71558">
        <ele>451</ele>
        <time>2016-12-18T09:54:01.999Z</time>
      </trkpt>
      <trkpt lat="47.45321" lon="6.71563">
        <ele>451</ele>
        <time>2016-12-18T09:54:04.999Z</time>
      </trkpt>
      <trkpt lat="47.45321" lon="6.71565">
        <ele>451</ele>
        <time>2016-12-18T09:54:05.999Z</time>
      </trkpt>
      <trkpt lat="47.45321" lon="6.7157">
        <ele>451</ele>
        <time>2016-12-18T09:54:12.999Z</time>
      </trkpt>
      <trkpt lat="47.45322" lon="6.71572">
        <ele>451</ele>
        <time>2016-12-18T09:54:13.999Z</time>
      </trkpt>
      <trkpt lat="47.45321" lon="6.71567">
        <ele>451</ele>
        <time>2016-12-18T09:54:19.999Z</time>
      </trkpt>
      <trkpt lat="47.45321" lon="6.71563">
        <ele>451</ele>
        <time>2016-12-18T09:54:20.999Z</time>
      </trkpt>
      <trkpt lat="47.45322" lon="6.71557">
        <ele>451</ele>
        <time>2016-12-18T09:54:21.999Z</time>
      </trkpt>
      <trkpt lat="47.45322" lon="6.71553">
        <ele>451</ele>
        <time>2016-12-18T09:54:22.999Z</time>
      </trkpt>
      <trkpt lat="47.45322" lon="6.71549">
        <ele>451</ele>
        <time>2016-12-18T09:54:23.999Z</time>
      </trkpt>
      <trkpt lat="47.45322" lon="6.71546">
        <ele>451</ele>
        <time>2016-12-18T09:54:24.999Z</time>
      </trkpt>
      <trkpt lat="47.45321" lon="6.71542">
        <ele>451</ele>
        <time>2016-12-18T09:54:25.999Z</time>
      </trkpt>
      <trkpt lat="47.45321" lon="6.71538">
        <ele>451</ele>
        <time>2016-12-18T09:54:26.999Z</time>
      </trkpt>
      <trkpt lat="47.4532" lon="6.71534">
        <ele>450</ele>
        <time>2016-12-18T09:54:27.999Z</time>
      </trkpt>
      <trkpt lat="47.45319" lon="6.71528">
        <ele>450</ele>
        <time>2016-12-18T09:54:28.999Z</time>
      </trkpt>
      <trkpt lat="47.45319" lon="6.71524">
        <ele>450</ele>
        <time>2016-12-18T09:54:29.999Z</time>
      </trkpt>
      <trkpt lat="47.45319" lon="6.7152">
        <ele>449</ele>
        <time>2016-12-18T09:54:30.999Z</time>
      </trkpt>
      <trkpt lat="47.45318" lon="6.71516">
        <ele>449</ele>
        <time>2016-12-18T09:54:31.999Z</time>
      </trkpt>
      <trkpt lat="47.45317" lon="6.71509">
        <ele>448</ele>
        <time>2016-12-18T09:54:32.999Z</time>
      </trkpt>
      <trkpt lat="47.45316" lon="6.71504">
        <ele>448</ele>
        <time>2016-12-18T09:54:33.999Z</time>
      </trkpt>
      <trkpt lat="47.45314" lon="6.71498">
        <ele>445</ele>
        <time>2016-12-18T09:54:34.999Z</time>
      </trkpt>
      <trkpt lat="47.45314" lon="6.71493">
        <ele>445</ele>
        <time>2016-12-18T09:54:35.999Z</time>
      </trkpt>
      <trkpt lat="47.45313" lon="6.7149">
        <ele>445</ele>
        <time>2016-12-18T09:54:36.999Z</time>
      </trkpt>
      <trkpt lat="47.45312" lon="6.71485">
        <ele>446</ele>
        <time>2016-12-18T09:54:39.999Z</time>
      </trkpt>
      <trkpt lat="47.45313" lon="6.71483">
        <ele>446</ele>
        <time>2016-12-18T09:54:40.999Z</time>
      </trkpt>
      <trkpt lat="47.45312" lon="6.71478">
        <ele>446</ele>
        <time>2016-12-18T09:54:41.999Z</time>
      </trkpt>
      <trkpt lat="47.45311" lon="6.71476">
        <ele>446</ele>
        <time>2016-12-18T09:54:42.999Z</time>
      </trkpt>
      <trkpt lat="47.45309" lon="6.7147">
        <ele>446</ele>
        <time>2016-12-18T09:54:44.999Z</time>
      </trkpt>
      <trkpt lat="47.45308" lon="6.71468">
        <ele>446</ele>
        <time>2016-12-18T09:54:45.999Z</time>
      </trkpt>
      <trkpt lat="47.45305" lon="6.71472">
        <ele>446</ele>
        <time>2016-12-18T09:54:54.999Z</time>
      </trkpt>
      <trkpt lat="47.45306" lon="6.71474">
        <ele>446</ele>
        <time>2016-12-18T09:54:55.999Z</time>
      </trkpt>
      <trkpt lat="47.45308" lon="6.7148">
        <ele>446</ele>
        <time>2016-12-18T09:54:57.999Z</time>
      </trkpt>
      <trkpt lat="47.45308" lon="6.71482">
        <ele>446</ele>
        <time>2016-12-18T09:54:58.999Z</time>
      </trkpt>
      <trkpt lat="47.45308" lon="6.71485">
        <ele>446</ele>
        <time>2016-12-18T09:54:59.999Z</time>
      </trkpt>
      <trkpt lat="47.45309" lon="6.71489">
        <ele>446</ele>
        <time>2016-12-18T09:55:00.999Z</time>
      </trkpt>
      <trkpt lat="47.4531" lon="6.71494">
        <ele>446</ele>
        <time>2016-12-18T09:55:02.999Z</time>
      </trkpt>
      <trkpt lat="47.4531" lon="6.71498">
        <ele>446</ele>
        <time>2016-12-18T09:55:03.999Z</time>
      </trkpt>
      <trkpt lat="47.4531" lon="6.71503">
        <ele>449</ele>
        <time>2016-12-18T09:55:04.999Z</time>
      </trkpt>
      <trkpt lat="47.4531" lon="6.71508">
        <ele>449</ele>
        <time>2016-12-18T09:55:05.999Z</time>
      </trkpt>
      <trkpt lat="47.4531" lon="6.71512">
        <ele>450</ele>
        <time>2016-12-18T09:55:06.999Z</time>
      </trkpt>
      <trkpt lat="47.45312" lon="6.71516">
        <ele>450</ele>
        <time>2016-12-18T09:55:07.999Z</time>
      </trkpt>
      <trkpt lat="47.45313" lon="6.7152">
        <ele>450</ele>
        <time>2016-12-18T09:55:08.999Z</time>
      </trkpt>
      <trkpt lat="47.45313" lon="6.71523">
        <ele>450</ele>
        <time>2016-12-18T09:55:09.999Z</time>
      </trkpt>
      <trkpt lat="47.45314" lon="6.71528">
        <ele>450</ele>
        <time>2016-12-18T09:55:10.999Z</time>
      </trkpt>
      <trkpt lat="47.45315" lon="6.71533">
        <ele>451</ele>
        <time>2016-12-18T09:55:11.999Z</time>
      </trkpt>
      <trkpt lat="47.45316" lon="6.71538">
        <ele>451</ele>
        <time>2016-12-18T09:55:12.999Z</time>
      </trkpt>
      <trkpt lat="47.45318" lon="6.71543">
        <ele>451</ele>
        <time>2016-12-18T09:55:13.999Z</time>
      </trkpt>
      <trkpt lat="47.45319" lon="6.71547">
        <ele>451</ele>
        <time>2016-12-18T09:55:14.999Z</time>
      </trkpt>
      <trkpt lat="47.4532" lon="6.71552">
        <ele>451</ele>
        <time>2016-12-18T09:55:15.999Z</time>
      </trkpt>
      <trkpt lat="47.45321" lon="6.71556">
        <ele>451</ele>
        <time>2016-12-18T09:55:16.999Z</time>
      </trkpt>
      <trkpt lat="47.45321" lon="6.71561">
        <ele>451</ele>
        <time>2016-12-18T09:55:17.999Z</time>
      </trkpt>
      <trkpt lat="47.45322" lon="6.71565">
        <ele>451</ele>
        <time>2016-12-18T09:55:18.999Z</time>
      </trkpt>
      <trkpt lat="47.45322" lon="6.71571">
        <ele>451</ele>
        <time>2016-12-18T09:55:19.999Z</time>
      </trkpt>
      <trkpt lat="47.45323" lon="6.71576">
        <ele>450</ele>
        <time>2016-12-18T09:55:20.999Z</time>
      </trkpt>
      <trkpt lat="47.45324" lon="6.7158">
        <ele>450</ele>
        <time>2016-12-18T09:55:21.999Z</time>
      </trkpt>
      <trkpt lat="47.45324" lon="6.71585">
        <ele>450</ele>
        <time>2016-12-18T09:55:22.999Z</time>
      </trkpt>
      <trkpt lat="47.45325" lon="6.71588">
        <ele>450</ele>
        <time>2016-12-18T09:55:23.999Z</time>
      </trkpt>
      <trkpt lat="47.45326" lon="6.7159">
        <ele>451</ele>
        <time>2016-12-18T09:55:24.999Z</time>
      </trkpt>
      <trkpt lat="47.45328" lon="6.71593">
        <ele>451</ele>
        <time>2016-12-18T09:55:25.999Z</time>
      </trkpt>
      <trkpt lat="47.4533" lon="6.71595">
        <ele>451</ele>
        <time>2016-12-18T09:55:26.999Z</time>
      </trkpt>
      <trkpt lat="47.45333" lon="6.71596">
        <ele>451</ele>
        <time>2016-12-18T09:55:27.999Z</time>
      </trkpt>
      <trkpt lat="47.45336" lon="6.71597">
        <ele>445</ele>
        <time>2016-12-18T09:55:28.999Z</time>
      </trkpt>
      <trkpt lat="47.45339" lon="6.71598">
        <ele>445</ele>
        <time>2016-12-18T09:55:29.999Z</time>
      </trkpt>
      <trkpt lat="47.45341" lon="6.71599">
        <ele>445</ele>
        <time>2016-12-18T09:55:30.999Z</time>
      </trkpt>
      <trkpt lat="47.45343" lon="6.716">
        <ele>444</ele>
        <time>2016-12-18T09:55:31.999Z</time>
      </trkpt>
      <trkpt lat="47.45345" lon="6.71602">
        <ele>444</ele>
        <time>2016-12-18T09:55:32.999Z</time>
      </trkpt>
      <trkpt lat="47.45347" lon="6.71604">
        <ele>444</ele>
        <time>2016-12-18T09:55:33.999Z</time>
      </trkpt>
      <trkpt lat="47.4535" lon="6.71607">
        <ele>443</ele>
        <time>2016-12-18T09:55:34.999Z</time>
      </trkpt>
      <trkpt lat="47.45352" lon="6.7161">
        <ele>443</ele>
        <time>2016-12-18T09:55:35.999Z</time>
      </trkpt>
      <trkpt lat="47.45354" lon="6.71615">
        <ele>443</ele>
        <time>2016-12-18T09:55:36.999Z</time>
      </trkpt>
      <trkpt lat="47.45355" lon="6.71619">
        <ele>443</ele>
        <time>2016-12-18T09:55:37.999Z</time>
      </trkpt>
      <trkpt lat="47.45356" lon="6.71623">
        <ele>443</ele>
        <time>2016-12-18T09:55:38.999Z</time>
      </trkpt>
      <trkpt lat="47.45357" lon="6.71627">
        <ele>442</ele>
        <time>2016-12-18T09:55:39.999Z</time>
      </trkpt>
      <trkpt lat="47.45358" lon="6.71631">
        <ele>442</ele>
        <time>2016-12-18T09:55:40.999Z</time>
      </trkpt>
      <trkpt lat="47.45359" lon="6.71635">
        <ele>442</ele>
        <time>2016-12-18T09:55:41.999Z</time>
      </trkpt>
      <trkpt lat="47.4536" lon="6.7164">
        <ele>442</ele>
        <time>2016-12-18T09:55:42.999Z</time>
      </trkpt>
      <trkpt lat="47.45362" lon="6.71646">
        <ele>442</ele>
        <time>2016-12-18T09:55:43.999Z</time>
      </trkpt>
      <trkpt lat="47.45363" lon="6.71652">
        <ele>442</ele>
        <time>2016-12-18T09:55:44.999Z</time>
      </trkpt>
      <trkpt lat="47.45365" lon="6.71658">
        <ele>442</ele>
        <time>2016-12-18T09:55:45.999Z</time>
      </trkpt>
      <trkpt lat="47.45366" lon="6.71663">
        <ele>442</ele>
        <time>2016-12-18T09:55:46.999Z</time>
      </trkpt>
      <trkpt lat="47.45367" lon="6.71669">
        <ele>441</ele>
        <time>2016-12-18T09:55:47.999Z</time>
      </trkpt>
      <trkpt lat="47.45368" lon="6.71674">
        <ele>441</ele>
        <time>2016-12-18T09:55:48.999Z</time>
      </trkpt>
      <trkpt lat="47.4537" lon="6.71679">
        <ele>441</ele>
        <time>2016-12-18T09:55:49.999Z</time>
      </trkpt>
      <trkpt lat="47.45373" lon="6.71684">
        <ele>440</ele>
        <time>2016-12-18T09:55:50.999Z</time>
      </trkpt>
      <trkpt lat="47.45375" lon="6.71689">
        <ele>440</ele>
        <time>2016-12-18T09:55:51.999Z</time>
      </trkpt>
      <trkpt lat="47.45378" lon="6.71695">
        <ele>440</ele>
        <time>2016-12-18T09:55:52.999Z</time>
      </trkpt>
      <trkpt lat="47.45379" lon="6.71701">
        <ele>440</ele>
        <time>2016-12-18T09:55:53.999Z</time>
      </trkpt>
      <trkpt lat="47.4538" lon="6.71709">
        <ele>439</ele>
        <time>2016-12-18T09:55:54.999Z</time>
      </trkpt>
      <trkpt lat="47.45381" lon="6.71715">
        <ele>439</ele>
        <time>2016-12-18T09:55:55.999Z</time>
      </trkpt>
      <trkpt lat="47.45382" lon="6.71723">
        <ele>439</ele>
        <time>2016-12-18T09:55:56.999Z</time>
      </trkpt>
      <trkpt lat="47.45384" lon="6.7173">
        <ele>439</ele>
        <time>2016-12-18T09:55:57.999Z</time>
      </trkpt>
      <trkpt lat="47.45386" lon="6.71737">
        <ele>438</ele>
        <time>2016-12-18T09:55:58.999Z</time>
      </trkpt>
      <trkpt lat="47.45388" lon="6.71746">
        <ele>438</ele>
        <time>2016-12-18T09:55:59.999Z</time>
      </trkpt>
      <trkpt lat="47.4539" lon="6.71753">
        <ele>437</ele>
        <time>2016-12-18T09:56:00.999Z</time>
      </trkpt>
      <trkpt lat="47.45392" lon="6.7176">
        <ele>437</ele>
        <time>2016-12-18T09:56:01.999Z</time>
      </trkpt>
      <trkpt lat="47.45394" lon="6.7177">
        <ele>437</ele>
        <time>2016-12-18T09:56:02.999Z</time>
      </trkpt>
      <trkpt lat="47.45396" lon="6.71781">
        <ele>437</ele>
        <time>2016-12-18T09:56:03.999Z</time>
      </trkpt>
      <trkpt lat="47.45399" lon="6.7179">
        <ele>437</ele>
        <time>2016-12-18T09:56:04.999Z</time>
      </trkpt>
      <trkpt lat="47.45402" lon="6.71796">
        <ele>437</ele>
        <time>2016-12-18T09:56:05.999Z</time>
      </trkpt>
      <trkpt lat="47.45406" lon="6.71803">
        <ele>436</ele>
        <time>2016-12-18T09:56:06.999Z</time>
      </trkpt>
      <trkpt lat="47.45412" lon="6.71808">
        <ele>436</ele>
        <time>2016-12-18T09:56:07.999Z</time>
      </trkpt>
      <trkpt lat="47.45418" lon="6.71813">
        <ele>430</ele>
        <time>2016-12-18T09:56:08.999Z</time>
      </trkpt>
      <trkpt lat="47.45424" lon="6.71815">
        <ele>430</ele>
        <time>2016-12-18T09:56:09.999Z</time>
      </trkpt>
      <trkpt lat="47.4543" lon="6.71815">
        <ele>430</ele>
        <time>2016-12-18T09:56:10.999Z</time>
      </trkpt>
      <trkpt lat="47.45436" lon="6.71814">
        <ele>430</ele>
        <time>2016-12-18T09:56:11.999Z</time>
      </trkpt>
      <trkpt lat="47.45441" lon="6.71812">
        <ele>430</ele>
        <time>2016-12-18T09:56:12.999Z</time>
      </trkpt>
      <trkpt lat="47.45447" lon="6.7181">
        <ele>430</ele>
        <time>2016-12-18T09:56:13.999Z</time>
      </trkpt>
      <trkpt lat="47.45454" lon="6.71808">
        <ele>430</ele>
        <time>2016-12-18T09:56:14.999Z</time>
      </trkpt>
      <trkpt lat="47.4546" lon="6.71807">
        <ele>430</ele>
        <time>2016-12-18T09:56:15.999Z</time>
      </trkpt>
      <trkpt lat="47.45466" lon="6.71807">
        <ele>430</ele>
        <time>2016-12-18T09:56:16.999Z</time>
      </trkpt>
      <trkpt lat="47.4547" lon="6.71804">
        <ele>430</ele>
        <time>2016-12-18T09:56:17.999Z</time>
      </trkpt>
      <trkpt lat="47.45473" lon="6.71802">
        <ele>429</ele>
        <time>2016-12-18T09:56:18.999Z</time>
      </trkpt>
      <trkpt lat="47.45476" lon="6.718">
        <ele>429</ele>
        <time>2016-12-18T09:56:19.999Z</time>
      </trkpt>
      <trkpt lat="47.4548" lon="6.718">
        <ele>429</ele>
        <time>2016-12-18T09:56:20.999Z</time>
      </trkpt>
      <trkpt lat="47.45483" lon="6.71799">
        <ele>429</ele>
        <time>2016-12-18T09:56:21.999Z</time>
      </trkpt>
      <trkpt lat="47.45486" lon="6.71798">
        <ele>429</ele>
        <time>2016-12-18T09:56:22.999Z</time>
      </trkpt>
      <trkpt lat="47.45489" lon="6.71798">
        <ele>429</ele>
        <time>2016-12-18T09:56:23.999Z</time>
      </trkpt>
      <trkpt lat="47.45493" lon="6.71797">
        <ele>429</ele>
        <time>2016-12-18T09:56:24.999Z</time>
      </trkpt>
      <trkpt lat="47.45496" lon="6.71796">
        <ele>429</ele>
        <time>2016-12-18T09:56:25.999Z</time>
      </trkpt>
      <trkpt lat="47.455" lon="6.71795">
        <ele>429</ele>
        <time>2016-12-18T09:56:26.999Z</time>
      </trkpt>
      <trkpt lat="47.45505" lon="6.71795">
        <ele>428</ele>
        <time>2016-12-18T09:56:27.999Z</time>
      </trkpt>
      <trkpt lat="47.4551" lon="6.71795">
        <ele>428</ele>
        <time>2016-12-18T09:56:28.999Z</time>
      </trkpt>
      <trkpt lat="47.45514" lon="6.71795">
        <ele>428</ele>
        <time>2016-12-18T09:56:29.999Z</time>
      </trkpt>
      <trkpt lat="47.45519" lon="6.71795">
        <ele>428</ele>
        <time>2016-12-18T09:56:30.999Z</time>
      </trkpt>
      <trkpt lat="47.45524" lon="6.71794">
        <ele>427</ele>
        <time>2016-12-18T09:56:31.999Z</time>
      </trkpt>
      <trkpt lat="47.45529" lon="6.71794">
        <ele>427</ele>
        <time>2016-12-18T09:56:32.999Z</time>
      </trkpt>
      <trkpt lat="47.45535" lon="6.71794">
        <ele>427</ele>
        <time>2016-12-18T09:56:33.999Z</time>
      </trkpt>
      <trkpt lat="47.4554" lon="6.71793">
        <ele>427</ele>
        <time>2016-12-18T09:56:34.999Z</time>
      </trkpt>
      <trkpt lat="47.45546" lon="6.71792">
        <ele>427</ele>
        <time>2016-12-18T09:56:35.999Z</time>
      </trkpt>
      <trkpt lat="47.45552" lon="6.7179">
        <ele>427</ele>
        <time>2016-12-18T09:56:36.999Z</time>
      </trkpt>
      <trkpt lat="47.45558" lon="6.71788">
        <ele>427</ele>
        <time>2016-12-18T09:56:37.999Z</time>
      </trkpt>
      <trkpt lat="47.45562" lon="6.71785">
        <ele>427</ele>
        <time>2016-12-18T09:56:38.999Z</time>
      </trkpt>
      <trkpt lat="47.45567" lon="6.71781">
        <ele>427</ele>
        <time>2016-12-18T09:56:39.999Z</time>
      </trkpt>
      <trkpt lat="47.45572" lon="6.71778">
        <ele>427</ele>
        <time>2016-12-18T09:56:40.999Z</time>
      </trkpt>
      <trkpt lat="47.45577" lon="6.71776">
        <ele>426</ele>
        <time>2016-12-18T09:56:41.999Z</time>
      </trkpt>
      <trkpt lat="47.45581" lon="6.71773">
        <ele>426</ele>
        <time>2016-12-18T09:56:42.999Z</time>
      </trkpt>
      <trkpt lat="47.45585" lon="6.7177">
        <ele>426</ele>
        <time>2016-12-18T09:56:43.999Z</time>
      </trkpt>
      <trkpt lat="47.45589" lon="6.71766">
        <ele>426</ele>
        <time>2016-12-18T09:56:44.999Z</time>
      </trkpt>
      <trkpt lat="47.45593" lon="6.71763">
        <ele>426</ele>
        <time>2016-12-18T09:56:45.999Z</time>
      </trkpt>
      <trkpt lat="47.45595" lon="6.71761">
        <ele>426</ele>
        <time>2016-12-18T09:56:46.999Z</time>
      </trkpt>
      <trkpt lat="47.45597" lon="6.71757">
        <ele>426</ele>
        <time>2016-12-18T09:56:47.999Z</time>
      </trkpt>
      <trkpt lat="47.45599" lon="6.71754">
        <ele>426</ele>
        <time>2016-12-18T09:56:48.999Z</time>
      </trkpt>
      <trkpt lat="47.45601" lon="6.7175">
        <ele>425</ele>
        <time>2016-12-18T09:56:49.999Z</time>
      </trkpt>
      <trkpt lat="47.45604" lon="6.71747">
        <ele>425</ele>
        <time>2016-12-18T09:56:50.999Z</time>
      </trkpt>
      <trkpt lat="47.45606" lon="6.71744">
        <ele>425</ele>
        <time>2016-12-18T09:56:51.999Z</time>
      </trkpt>
      <trkpt lat="47.45607" lon="6.71742">
        <ele>425</ele>
        <time>2016-12-18T09:56:52.999Z</time>
      </trkpt>
      <trkpt lat="47.45609" lon="6.71739">
        <ele>425</ele>
        <time>2016-12-18T09:56:53.999Z</time>
      </trkpt>
      <trkpt lat="47.45611" lon="6.71737">
        <ele>425</ele>
        <time>2016-12-18T09:56:54.999Z</time>
      </trkpt>
      <trkpt lat="47.45613" lon="6.71734">
        <ele>426</ele>
        <time>2016-12-18T09:56:55.999Z</time>
      </trkpt>
      <trkpt lat="47.45615" lon="6.71732">
        <ele>426</ele>
        <time>2016-12-18T09:56:56.999Z</time>
      </trkpt>
      <trkpt lat="47.45618" lon="6.7173">
        <ele>426</ele>
        <time>2016-12-18T09:56:57.999Z</time>
      </trkpt>
      <trkpt lat="47.45621" lon="6.71728">
        <ele>426</ele>
        <time>2016-12-18T09:56:58.999Z</time>
      </trkpt>
      <trkpt lat="47.45623" lon="6.71726">
        <ele>426</ele>
        <time>2016-12-18T09:56:59.999Z</time>
      </trkpt>
      <trkpt lat="47.45624" lon="6.71723">
        <ele>426</ele>
        <time>2016-12-18T09:57:00.999Z</time>
      </trkpt>
      <trkpt lat="47.45627" lon="6.71721">
        <ele>426</ele>
        <time>2016-12-18T09:57:01.999Z</time>
      </trkpt>
      <trkpt lat="47.45629" lon="6.71718">
        <ele>426</ele>
        <time>2016-12-18T09:57:02.999Z</time>
      </trkpt>
      <trkpt lat="47.45632" lon="6.71714">
        <ele>426</ele>
        <time>2016-12-18T09:57:04.999Z</time>
      </trkpt>
      <trkpt lat="47.45633" lon="6.71712">
        <ele>426</ele>
        <time>2016-12-18T09:57:05.999Z</time>
      </trkpt>
      <trkpt lat="47.45636" lon="6.71707">
        <ele>425</ele>
        <time>2016-12-18T09:57:06.999Z</time>
      </trkpt>
      <trkpt lat="47.45639" lon="6.71704">
        <ele>425</ele>
        <time>2016-12-18T09:57:07.999Z</time>
      </trkpt>
      <trkpt lat="47.4564" lon="6.71701">
        <ele>425</ele>
        <time>2016-12-18T09:57:08.999Z</time>
      </trkpt>
      <trkpt lat="47.45644" lon="6.71699">
        <ele>425</ele>
        <time>2016-12-18T09:57:10.999Z</time>
      </trkpt>
      <trkpt lat="47.45645" lon="6.71698">
        <ele>425</ele>
        <time>2016-12-18T09:57:11.999Z</time>
      </trkpt>
      <trkpt lat="47.45647" lon="6.71695">
        <ele>425</ele>
        <time>2016-12-18T09:57:12.999Z</time>
      </trkpt>
      <trkpt lat="47.4565" lon="6.71691">
        <ele>425</ele>
        <time>2016-12-18T09:57:13.999Z</time>
      </trkpt>
      <trkpt lat="47.45654" lon="6.71688">
        <ele>425</ele>
        <time>2016-12-18T09:57:14.999Z</time>
      </trkpt>
      <trkpt lat="47.45657" lon="6.71685">
        <ele>425</ele>
        <time>2016-12-18T09:57:15.999Z</time>
      </trkpt>
      <trkpt lat="47.45661" lon="6.71684">
        <ele>425</ele>
        <time>2016-12-18T09:57:16.999Z</time>
      </trkpt>
      <trkpt lat="47.45666" lon="6.71682">
        <ele>425</ele>
        <time>2016-12-18T09:57:17.999Z</time>
      </trkpt>
      <trkpt lat="47.45671" lon="6.7168">
        <ele>425</ele>
        <time>2016-12-18T09:57:18.999Z</time>
      </trkpt>
      <trkpt lat="47.45676" lon="6.71677">
        <ele>425</ele>
        <time>2016-12-18T09:57:19.999Z</time>
      </trkpt>
      <trkpt lat="47.4568" lon="6.71674">
        <ele>425</ele>
        <time>2016-12-18T09:57:20.999Z</time>
      </trkpt>
      <trkpt lat="47.45685" lon="6.7167">
        <ele>425</ele>
        <time>2016-12-18T09:57:21.999Z</time>
      </trkpt>
      <trkpt lat="47.45689" lon="6.71668">
        <ele>425</ele>
        <time>2016-12-18T09:57:22.999Z</time>
      </trkpt>
      <trkpt lat="47.45696" lon="6.71665">
        <ele>423</ele>
        <time>2016-12-18T09:57:23.999Z</time>
      </trkpt>
      <trkpt lat="47.45701" lon="6.71662">
        <ele>423</ele>
        <time>2016-12-18T09:57:24.999Z</time>
      </trkpt>
      <trkpt lat="47.45708" lon="6.71659">
        <ele>423</ele>
        <time>2016-12-18T09:57:25.999Z</time>
      </trkpt>
      <trkpt lat="47.45714" lon="6.71656">
        <ele>423</ele>
        <time>2016-12-18T09:57:26.999Z</time>
      </trkpt>
      <trkpt lat="47.45719" lon="6.71653">
        <ele>423</ele>
        <time>2016-12-18T09:57:27.999Z</time>
      </trkpt>
      <trkpt lat="47.45724" lon="6.7165">
        <ele>423</ele>
        <time>2016-12-18T09:57:28.999Z</time>
      </trkpt>
      <trkpt lat="47.45728" lon="6.71649">
        <ele>423</ele>
        <time>2016-12-18T09:57:29.999Z</time>
      </trkpt>
      <trkpt lat="47.45733" lon="6.71647">
        <ele>423</ele>
        <time>2016-12-18T09:57:30.999Z</time>
      </trkpt>
      <trkpt lat="47.45741" lon="6.71644">
        <ele>423</ele>
        <time>2016-12-18T09:57:31.999Z</time>
      </trkpt>
      <trkpt lat="47.45749" lon="6.71641">
        <ele>423</ele>
        <time>2016-12-18T09:57:32.999Z</time>
      </trkpt>
      <trkpt lat="47.45755" lon="6.71638">
        <ele>423</ele>
        <time>2016-12-18T09:57:33.999Z</time>
      </trkpt>
      <trkpt lat="47.45759" lon="6.71636">
        <ele>423</ele>
        <time>2016-12-18T09:57:34.999Z</time>
      </trkpt>
      <trkpt lat="47.45764" lon="6.71633">
        <ele>423</ele>
        <time>2016-12-18T09:57:35.999Z</time>
      </trkpt>
      <trkpt lat="47.4577" lon="6.71631">
        <ele>423</ele>
        <time>2016-12-18T09:57:36.999Z</time>
      </trkpt>
      <trkpt lat="47.45775" lon="6.71628">
        <ele>423</ele>
        <time>2016-12-18T09:57:37.999Z</time>
      </trkpt>
      <trkpt lat="47.45779" lon="6.71626">
        <ele>423</ele>
        <time>2016-12-18T09:57:38.999Z</time>
      </trkpt>
      <trkpt lat="47.45782" lon="6.71624">
        <ele>423</ele>
        <time>2016-12-18T09:57:39.999Z</time>
      </trkpt>
      <trkpt lat="47.45786" lon="6.71624">
        <ele>423</ele>
        <time>2016-12-18T09:57:40.999Z</time>
      </trkpt>
      <trkpt lat="47.4579" lon="6.71623">
        <ele>423</ele>
        <time>2016-12-18T09:57:41.999Z</time>
      </trkpt>
      <trkpt lat="47.45796" lon="6.71619">
        <ele>423</ele>
        <time>2016-12-18T09:57:42.999Z</time>
      </trkpt>
      <trkpt lat="47.45801" lon="6.71618">
        <ele>423</ele>
        <time>2016-12-18T09:57:43.999Z</time>
      </trkpt>
      <trkpt lat="47.45805" lon="6.71616">
        <ele>423</ele>
        <time>2016-12-18T09:57:44.999Z</time>
      </trkpt>
      <trkpt lat="47.45811" lon="6.71614">
        <ele>423</ele>
        <time>2016-12-18T09:57:45.999Z</time>
      </trkpt>
      <trkpt lat="47.45817" lon="6.71609">
        <ele>422</ele>
        <time>2016-12-18T09:57:46.999Z</time>
      </trkpt>
      <trkpt lat="47.45824" lon="6.71605">
        <ele>422</ele>
        <time>2016-12-18T09:57:47.999Z</time>
      </trkpt>
      <trkpt lat="47.4583" lon="6.71601">
        <ele>421</ele>
        <time>2016-12-18T09:57:48.999Z</time>
      </trkpt>
      <trkpt lat="47.45836" lon="6.71599">
        <ele>421</ele>
        <time>2016-12-18T09:57:49.999Z</time>
      </trkpt>
      <trkpt lat="47.45843" lon="6.71597">
        <ele>421</ele>
        <time>2016-12-18T09:57:50.999Z</time>
      </trkpt>
      <trkpt lat="47.45848" lon="6.71595">
        <ele>421</ele>
        <time>2016-12-18T09:57:51.999Z</time>
      </trkpt>
      <trkpt lat="47.45854" lon="6.71594">
        <ele>421</ele>
        <time>2016-12-18T09:57:52.999Z</time>
      </trkpt>
      <trkpt lat="47.4586" lon="6.71592">
        <ele>421</ele>
        <time>2016-12-18T09:57:53.999Z</time>
      </trkpt>
      <trkpt lat="47.45867" lon="6.71589">
        <ele>421</ele>
        <time>2016-12-18T09:57:54.999Z</time>
      </trkpt>
      <trkpt lat="47.45873" lon="6.71587">
        <ele>421</ele>
        <time>2016-12-18T09:57:55.999Z</time>
      </trkpt>
      <trkpt lat="47.4588" lon="6.71584">
        <ele>421</ele>
        <time>2016-12-18T09:57:56.999Z</time>
      </trkpt>
      <trkpt lat="47.45886" lon="6.71582">
        <ele>416</ele>
        <time>2016-12-18T09:57:57.999Z</time>
      </trkpt>
      <trkpt lat="47.45892" lon="6.7158">
        <ele>416</ele>
        <time>2016-12-18T09:57:58.999Z</time>
      </trkpt>
      <trkpt lat="47.45899" lon="6.71578">
        <ele>416</ele>
        <time>2016-12-18T09:57:59.999Z</time>
      </trkpt>
      <trkpt lat="47.45905" lon="6.71576">
        <ele>416</ele>
        <time>2016-12-18T09:58:00.999Z</time>
      </trkpt>
      <trkpt lat="47.45911" lon="6.71572">
        <ele>416</ele>
        <time>2016-12-18T09:58:01.999Z</time>
      </trkpt>
      <trkpt lat="47.45916" lon="6.71567">
        <ele>416</ele>
        <time>2016-12-18T09:58:02.999Z</time>
      </trkpt>
      <trkpt lat="47.45921" lon="6.71563">
        <ele>414</ele>
        <time>2016-12-18T09:58:03.999Z</time>
      </trkpt>
      <trkpt lat="47.45924" lon="6.71557">
        <ele>413</ele>
        <time>2016-12-18T09:58:04.999Z</time>
      </trkpt>
      <trkpt lat="47.45928" lon="6.71551">
        <ele>413</ele>
        <time>2016-12-18T09:58:05.999Z</time>
      </trkpt>
      <trkpt lat="47.45932" lon="6.71543">
        <ele>413</ele>
        <time>2016-12-18T09:58:06.999Z</time>
      </trkpt>
      <trkpt lat="47.45933" lon="6.71535">
        <ele>412</ele>
        <time>2016-12-18T09:58:07.999Z</time>
      </trkpt>
      <trkpt lat="47.45935" lon="6.71527">
        <ele>412</ele>
        <time>2016-12-18T09:58:08.999Z</time>
      </trkpt>
      <trkpt lat="47.45934" lon="6.71519">
        <ele>413</ele>
        <time>2016-12-18T09:58:09.999Z</time>
      </trkpt>
      <trkpt lat="47.45933" lon="6.71515">
        <ele>413</ele>
        <time>2016-12-18T09:58:10.999Z</time>
      </trkpt>
      <trkpt lat="47.45933" lon="6.71511">
        <ele>413</ele>
        <time>2016-12-18T09:58:11.999Z</time>
      </trkpt>
      <trkpt lat="47.45933" lon="6.71506">
        <ele>413</ele>
        <time>2016-12-18T09:58:12.999Z</time>
      </trkpt>
      <trkpt lat="47.45933" lon="6.71501">
        <ele>413</ele>
        <time>2016-12-18T09:58:13.999Z</time>
      </trkpt>
      <trkpt lat="47.45933" lon="6.71496">
        <ele>411</ele>
        <time>2016-12-18T09:58:14.999Z</time>
      </trkpt>
      <trkpt lat="47.45932" lon="6.7149">
        <ele>411</ele>
        <time>2016-12-18T09:58:15.999Z</time>
      </trkpt>
      <trkpt lat="47.45931" lon="6.71485">
        <ele>411</ele>
        <time>2016-12-18T09:58:16.999Z</time>
      </trkpt>
      <trkpt lat="47.45931" lon="6.71481">
        <ele>411</ele>
        <time>2016-12-18T09:58:17.999Z</time>
      </trkpt>
      <trkpt lat="47.45933" lon="6.71475">
        <ele>410</ele>
        <time>2016-12-18T09:58:18.999Z</time>
      </trkpt>
      <trkpt lat="47.45935" lon="6.71467">
        <ele>410</ele>
        <time>2016-12-18T09:58:19.999Z</time>
      </trkpt>
      <trkpt lat="47.45938" lon="6.71461">
        <ele>409</ele>
        <time>2016-12-18T09:58:20.999Z</time>
      </trkpt>
      <trkpt lat="47.45942" lon="6.71454">
        <ele>409</ele>
        <time>2016-12-18T09:58:21.999Z</time>
      </trkpt>
      <trkpt lat="47.45947" lon="6.71449">
        <ele>409</ele>
        <time>2016-12-18T09:58:22.999Z</time>
      </trkpt>
      <trkpt lat="47.4595" lon="6.71445">
        <ele>409</ele>
        <time>2016-12-18T09:58:23.999Z</time>
      </trkpt>
      <trkpt lat="47.45952" lon="6.71444">
        <ele>408</ele>
        <time>2016-12-18T09:58:24.999Z</time>
      </trkpt>
      <trkpt lat="47.45955" lon="6.7144">
        <ele>408</ele>
        <time>2016-12-18T09:58:25.999Z</time>
      </trkpt>
      <trkpt lat="47.45956" lon="6.71437">
        <ele>408</ele>
        <time>2016-12-18T09:58:26.999Z</time>
      </trkpt>
      <trkpt lat="47.45956" lon="6.71433">
        <ele>408</ele>
        <time>2016-12-18T09:58:27.999Z</time>
      </trkpt>
      <trkpt lat="47.45959" lon="6.7143">
        <ele>408</ele>
        <time>2016-12-18T09:58:28.999Z</time>
      </trkpt>
      <trkpt lat="47.45962" lon="6.71425">
        <ele>408</ele>
        <time>2016-12-18T09:58:30.999Z</time>
      </trkpt>
      <trkpt lat="47.45965" lon="6.71427">
        <ele>408</ele>
        <time>2016-12-18T09:58:31.999Z</time>
      </trkpt>
      <trkpt lat="47.45971" lon="6.71428">
        <ele>407</ele>
        <time>2016-12-18T09:58:32.999Z</time>
      </trkpt>
      <trkpt lat="47.45977" lon="6.71428">
        <ele>407</ele>
        <time>2016-12-18T09:58:33.999Z</time>
      </trkpt>
      <trkpt lat="47.45984" lon="6.71429">
        <ele>407</ele>
        <time>2016-12-18T09:58:34.999Z</time>
      </trkpt>
      <trkpt lat="47.45991" lon="6.71431">
        <ele>406</ele>
        <time>2016-12-18T09:58:35.999Z</time>
      </trkpt>
      <trkpt lat="47.45997" lon="6.71433">
        <ele>406</ele>
        <time>2016-12-18T09:58:36.999Z</time>
      </trkpt>
      <trkpt lat="47.46003" lon="6.71436">
        <ele>401</ele>
        <time>2016-12-18T09:58:37.999Z</time>
      </trkpt>
      <trkpt lat="47.4601" lon="6.7144">
        <ele>401</ele>
        <time>2016-12-18T09:58:38.999Z</time>
      </trkpt>
      <trkpt lat="47.46015" lon="6.71443">
        <ele>400</ele>
        <time>2016-12-18T09:58:39.999Z</time>
      </trkpt>
      <trkpt lat="47.4602" lon="6.71447">
        <ele>400</ele>
        <time>2016-12-18T09:58:40.999Z</time>
      </trkpt>
      <trkpt lat="47.46025" lon="6.71451">
        <ele>399</ele>
        <time>2016-12-18T09:58:41.999Z</time>
      </trkpt>
      <trkpt lat="47.4603" lon="6.71455">
        <ele>399</ele>
        <time>2016-12-18T09:58:42.999Z</time>
      </trkpt>
      <trkpt lat="47.46037" lon="6.71459">
        <ele>399</ele>
        <time>2016-12-18T09:58:43.999Z</time>
      </trkpt>
      <trkpt lat="47.46047" lon="6.71469">
        <ele>398</ele>
        <time>2016-12-18T09:58:44.999Z</time>
      </trkpt>
      <trkpt lat="47.46054" lon="6.71477">
        <ele>397</ele>
        <time>2016-12-18T09:58:45.999Z</time>
      </trkpt>
      <trkpt lat="47.46062" lon="6.71483">
        <ele>396</ele>
        <time>2016-12-18T09:58:46.999Z</time>
      </trkpt>
      <trkpt lat="47.46069" lon="6.71491">
        <ele>395</ele>
        <time>2016-12-18T09:58:47.999Z</time>
      </trkpt>
      <trkpt lat="47.46075" lon="6.71499">
        <ele>394</ele>
        <time>2016-12-18T09:58:48.999Z</time>
      </trkpt>
      <trkpt lat="47.46081" lon="6.71508">
        <ele>394</ele>
        <time>2016-12-18T09:58:49.999Z</time>
      </trkpt>
      <trkpt lat="47.46085" lon="6.71516">
        <ele>387</ele>
        <time>2016-12-18T09:58:50.999Z</time>
      </trkpt>
      <trkpt lat="47.46089" lon="6.71526">
        <ele>385</ele>
        <time>2016-12-18T09:58:51.999Z</time>
      </trkpt>
      <trkpt lat="47.46092" lon="6.71537">
        <ele>384</ele>
        <time>2016-12-18T09:58:52.999Z</time>
      </trkpt>
      <trkpt lat="47.46094" lon="6.71547">
        <ele>384</ele>
        <time>2016-12-18T09:58:53.999Z</time>
      </trkpt>
      <trkpt lat="47.46096" lon="6.71557">
        <ele>384</ele>
        <time>2016-12-18T09:58:54.999Z</time>
      </trkpt>
      <trkpt lat="47.46097" lon="6.71567">
        <ele>385</ele>
        <time>2016-12-18T09:58:55.999Z</time>
      </trkpt>
      <trkpt lat="47.46097" lon="6.71577">
        <ele>386</ele>
        <time>2016-12-18T09:58:56.999Z</time>
      </trkpt>
      <trkpt lat="47.46098" lon="6.71587">
        <ele>386</ele>
        <time>2016-12-18T09:58:57.999Z</time>
      </trkpt>
      <trkpt lat="47.46098" lon="6.71597">
        <ele>385</ele>
        <time>2016-12-18T09:58:58.999Z</time>
      </trkpt>
      <trkpt lat="47.46098" lon="6.71608">
        <ele>384</ele>
        <time>2016-12-18T09:58:59.999Z</time>
      </trkpt>
      <trkpt lat="47.46098" lon="6.71619">
        <ele>383</ele>
        <time>2016-12-18T09:59:00.999Z</time>
      </trkpt>
      <trkpt lat="47.46099" lon="6.71627">
        <ele>383</ele>
        <time>2016-12-18T09:59:01.999Z</time>
      </trkpt>
      <trkpt lat="47.46099" lon="6.71638">
        <ele>383</ele>
        <time>2016-12-18T09:59:02.999Z</time>
      </trkpt>
      <trkpt lat="47.46099" lon="6.71645">
        <ele>384</ele>
        <time>2016-12-18T09:59:03.999Z</time>
      </trkpt>
      <trkpt lat="47.461" lon="6.71653">
        <ele>384</ele>
        <time>2016-12-18T09:59:04.999Z</time>
      </trkpt>
      <trkpt lat="47.461" lon="6.71663">
        <ele>385</ele>
        <time>2016-12-18T09:59:05.999Z</time>
      </trkpt>
      <trkpt lat="47.46101" lon="6.71674">
        <ele>385</ele>
        <time>2016-12-18T09:59:06.999Z</time>
      </trkpt>
      <trkpt lat="47.46102" lon="6.71684">
        <ele>384</ele>
        <time>2016-12-18T09:59:07.999Z</time>
      </trkpt>
      <trkpt lat="47.46103" lon="6.71694">
        <ele>383</ele>
        <time>2016-12-18T09:59:08.999Z</time>
      </trkpt>
      <trkpt lat="47.46105" lon="6.71702">
        <ele>382</ele>
        <time>2016-12-18T09:59:09.999Z</time>
      </trkpt>
      <trkpt lat="47.46108" lon="6.71711">
        <ele>382</ele>
        <time>2016-12-18T09:59:10.999Z</time>
      </trkpt>
      <trkpt lat="47.4611" lon="6.71718">
        <ele>382</ele>
        <time>2016-12-18T09:59:11.999Z</time>
      </trkpt>
      <trkpt lat="47.46113" lon="6.71725">
        <ele>382</ele>
        <time>2016-12-18T09:59:12.999Z</time>
      </trkpt>
      <trkpt lat="47.46118" lon="6.7173">
        <ele>381</ele>
        <time>2016-12-18T09:59:13.999Z</time>
      </trkpt>
      <trkpt lat="47.46125" lon="6.71737">
        <ele>380</ele>
        <time>2016-12-18T09:59:14.999Z</time>
      </trkpt>
      <trkpt lat="47.46129" lon="6.71741">
        <ele>379</ele>
        <time>2016-12-18T09:59:15.999Z</time>
      </trkpt>
      <trkpt lat="47.46133" lon="6.71746">
        <ele>378</ele>
        <time>2016-12-18T09:59:16.999Z</time>
      </trkpt>
      <trkpt lat="47.46136" lon="6.71748">
        <ele>377</ele>
        <time>2016-12-18T09:59:17.999Z</time>
      </trkpt>
      <trkpt lat="47.46138" lon="6.71751">
        <ele>378</ele>
        <time>2016-12-18T09:59:18.999Z</time>
      </trkpt>
      <trkpt lat="47.46142" lon="6.71755">
        <ele>377</ele>
        <time>2016-12-18T09:59:20.999Z</time>
      </trkpt>
      <trkpt lat="47.46144" lon="6.71757">
        <ele>377</ele>
        <time>2016-12-18T09:59:21.999Z</time>
      </trkpt>
      <trkpt lat="47.46146" lon="6.71759">
        <ele>376</ele>
        <time>2016-12-18T09:59:22.999Z</time>
      </trkpt>
      <trkpt lat="47.46148" lon="6.71762">
        <ele>376</ele>
        <time>2016-12-18T09:59:23.999Z</time>
      </trkpt>
      <trkpt lat="47.4615" lon="6.71764">
        <ele>376</ele>
        <time>2016-12-18T09:59:24.999Z</time>
      </trkpt>
      <trkpt lat="47.46153" lon="6.71765">
        <ele>376</ele>
        <time>2016-12-18T09:59:25.999Z</time>
      </trkpt>
      <trkpt lat="47.46156" lon="6.71768">
        <ele>376</ele>
        <time>2016-12-18T09:59:26.999Z</time>
      </trkpt>
      <trkpt lat="47.46158" lon="6.71772">
        <ele>376</ele>
        <time>2016-12-18T09:59:27.999Z</time>
      </trkpt>
      <trkpt lat="47.46163" lon="6.71775">
        <ele>376</ele>
        <time>2016-12-18T09:59:28.999Z</time>
      </trkpt>
      <trkpt lat="47.46167" lon="6.71778">
        <ele>366</ele>
        <time>2016-12-18T09:59:29.999Z</time>
      </trkpt>
      <trkpt lat="47.46173" lon="6.7178">
        <ele>366</ele>
        <time>2016-12-18T09:59:30.999Z</time>
      </trkpt>
      <trkpt lat="47.46176" lon="6.71784">
        <ele>366</ele>
        <time>2016-12-18T09:59:31.999Z</time>
      </trkpt>
      <trkpt lat="47.46179" lon="6.71789">
        <ele>366</ele>
        <time>2016-12-18T09:59:32.999Z</time>
      </trkpt>
      <trkpt lat="47.46184" lon="6.71791">
        <ele>366</ele>
        <time>2016-12-18T09:59:33.999Z</time>
      </trkpt>
      <trkpt lat="47.46189" lon="6.71795">
        <ele>366</ele>
        <time>2016-12-18T09:59:34.999Z</time>
      </trkpt>
      <trkpt lat="47.46195" lon="6.71799">
        <ele>366</ele>
        <time>2016-12-18T09:59:35.999Z</time>
      </trkpt>
      <trkpt lat="47.462" lon="6.71803">
        <ele>365</ele>
        <time>2016-12-18T09:59:36.999Z</time>
      </trkpt>
      <trkpt lat="47.46203" lon="6.71808">
        <ele>365</ele>
        <time>2016-12-18T09:59:37.999Z</time>
      </trkpt>
      <trkpt lat="47.46206" lon="6.71812">
        <ele>365</ele>
        <time>2016-12-18T09:59:38.999Z</time>
      </trkpt>
      <trkpt lat="47.46212" lon="6.71817">
        <ele>365</ele>
        <time>2016-12-18T09:59:39.999Z</time>
      </trkpt>
      <trkpt lat="47.46217" lon="6.71821">
        <ele>364</ele>
        <time>2016-12-18T09:59:40.999Z</time>
      </trkpt>
      <trkpt lat="47.46222" lon="6.71825">
        <ele>364</ele>
        <time>2016-12-18T09:59:41.999Z</time>
      </trkpt>
      <trkpt lat="47.46227" lon="6.71829">
        <ele>363</ele>
        <time>2016-12-18T09:59:42.999Z</time>
      </trkpt>
      <trkpt lat="47.46233" lon="6.71833">
        <ele>362</ele>
        <time>2016-12-18T09:59:43.999Z</time>
      </trkpt>
      <trkpt lat="47.46239" lon="6.71838">
        <ele>363</ele>
        <time>2016-12-18T09:59:44.999Z</time>
      </trkpt>
      <trkpt lat="47.46246" lon="6.71844">
        <ele>362</ele>
        <time>2016-12-18T09:59:45.999Z</time>
      </trkpt>
      <trkpt lat="47.46253" lon="6.7185">
        <ele>359</ele>
        <time>2016-12-18T09:59:46.999Z</time>
      </trkpt>
      <trkpt lat="47.4626" lon="6.71857">
        <ele>358</ele>
        <time>2016-12-18T09:59:47.999Z</time>
      </trkpt>
      <trkpt lat="47.46267" lon="6.71864">
        <ele>358</ele>
        <time>2016-12-18T09:59:48.999Z</time>
      </trkpt>
      <trkpt lat="47.46275" lon="6.7187">
        <ele>357</ele>
        <time>2016-12-18T09:59:49.999Z</time>
      </trkpt>
      <trkpt lat="47.46282" lon="6.71877">
        <ele>357</ele>
        <time>2016-12-18T09:59:50.999Z</time>
      </trkpt>
      <trkpt lat="47.46288" lon="6.71884">
        <ele>357</ele>
        <time>2016-12-18T09:59:51.999Z</time>
      </trkpt>
      <trkpt lat="47.46295" lon="6.7189">
        <ele>357</ele>
        <time>2016-12-18T09:59:52.999Z</time>
      </trkpt>
      <trkpt lat="47.46301" lon="6.71897">
        <ele>357</ele>
        <time>2016-12-18T09:59:53.999Z</time>
      </trkpt>
      <trkpt lat="47.46307" lon="6.71902">
        <ele>356</ele>
        <time>2016-12-18T09:59:54.999Z</time>
      </trkpt>
      <trkpt lat="47.46312" lon="6.71907">
        <ele>356</ele>
        <time>2016-12-18T09:59:55.999Z</time>
      </trkpt>
      <trkpt lat="47.46316" lon="6.71911">
        <ele>356</ele>
        <time>2016-12-18T09:59:56.999Z</time>
      </trkpt>
      <trkpt lat="47.46321" lon="6.71911">
        <ele>356</ele>
        <time>2016-12-18T09:59:57.999Z</time>
      </trkpt>
      <trkpt lat="47.46324" lon="6.71914">
        <ele>356</ele>
        <time>2016-12-18T09:59:59.999Z</time>
      </trkpt>
      <trkpt lat="47.46324" lon="6.71918">
        <ele>356</ele>
        <time>2016-12-18T10:00:00.999Z</time>
      </trkpt>
      <trkpt lat="47.46327" lon="6.71923">
        <ele>356</ele>
        <time>2016-12-18T10:00:01.999Z</time>
      </trkpt>
      <trkpt lat="47.46334" lon="6.71928">
        <ele>355</ele>
        <time>2016-12-18T10:00:02.999Z</time>
      </trkpt>
      <trkpt lat="47.46336" lon="6.71934">
        <ele>355</ele>
        <time>2016-12-18T10:00:03.999Z</time>
      </trkpt>
      <trkpt lat="47.46339" lon="6.7194">
        <ele>354</ele>
        <time>2016-12-18T10:00:04.999Z</time>
      </trkpt>
      <trkpt lat="47.46341" lon="6.71946">
        <ele>354</ele>
        <time>2016-12-18T10:00:05.999Z</time>
      </trkpt>
      <trkpt lat="47.46343" lon="6.71952">
        <ele>354</ele>
        <time>2016-12-18T10:00:06.999Z</time>
      </trkpt>
      <trkpt lat="47.46345" lon="6.71957">
        <ele>354</ele>
        <time>2016-12-18T10:00:07.999Z</time>
      </trkpt>
      <trkpt lat="47.46347" lon="6.71962">
        <ele>354</ele>
        <time>2016-12-18T10:00:08.999Z</time>
      </trkpt>
      <trkpt lat="47.46349" lon="6.71967">
        <ele>355</ele>
        <time>2016-12-18T10:00:09.999Z</time>
      </trkpt>
      <trkpt lat="47.46352" lon="6.71972">
        <ele>355</ele>
        <time>2016-12-18T10:00:10.999Z</time>
      </trkpt>
      <trkpt lat="47.46354" lon="6.71976">
        <ele>355</ele>
        <time>2016-12-18T10:00:11.999Z</time>
      </trkpt>
      <trkpt lat="47.46357" lon="6.71979">
        <ele>355</ele>
        <time>2016-12-18T10:00:12.999Z</time>
      </trkpt>
      <trkpt lat="47.46361" lon="6.71984">
        <ele>355</ele>
        <time>2016-12-18T10:00:13.999Z</time>
      </trkpt>
      <trkpt lat="47.46364" lon="6.71989">
        <ele>355</ele>
        <time>2016-12-18T10:00:14.999Z</time>
      </trkpt>
      <trkpt lat="47.46368" lon="6.71994">
        <ele>355</ele>
        <time>2016-12-18T10:00:15.999Z</time>
      </trkpt>
      <trkpt lat="47.46371" lon="6.72">
        <ele>354</ele>
        <time>2016-12-18T10:00:16.999Z</time>
      </trkpt>
      <trkpt lat="47.46373" lon="6.72006">
        <ele>356</ele>
        <time>2016-12-18T10:00:17.999Z</time>
      </trkpt>
      <trkpt lat="47.46375" lon="6.72012">
        <ele>356</ele>
        <time>2016-12-18T10:00:18.999Z</time>
      </trkpt>
      <trkpt lat="47.46377" lon="6.72018">
        <ele>356</ele>
        <time>2016-12-18T10:00:19.999Z</time>
      </trkpt>
      <trkpt lat="47.46378" lon="6.72023">
        <ele>356</ele>
        <time>2016-12-18T10:00:20.999Z</time>
      </trkpt>
      <trkpt lat="47.4638" lon="6.72029">
        <ele>356</ele>
        <time>2016-12-18T10:00:21.999Z</time>
      </trkpt>
      <trkpt lat="47.46382" lon="6.72035">
        <ele>356</ele>
        <time>2016-12-18T10:00:22.999Z</time>
      </trkpt>
      <trkpt lat="47.46384" lon="6.72041">
        <ele>356</ele>
        <time>2016-12-18T10:00:23.999Z</time>
      </trkpt>
      <trkpt lat="47.46385" lon="6.72046">
        <ele>356</ele>
        <time>2016-12-18T10:00:24.999Z</time>
      </trkpt>
      <trkpt lat="47.46388" lon="6.72051">
        <ele>356</ele>
        <time>2016-12-18T10:00:25.999Z</time>
      </trkpt>
      <trkpt lat="47.4639" lon="6.72055">
        <ele>356</ele>
        <time>2016-12-18T10:00:26.999Z</time>
      </trkpt>
      <trkpt lat="47.46392" lon="6.7206">
        <ele>356</ele>
        <time>2016-12-18T10:00:27.999Z</time>
      </trkpt>
      <trkpt lat="47.46394" lon="6.72064">
        <ele>356</ele>
        <time>2016-12-18T10:00:28.999Z</time>
      </trkpt>
      <trkpt lat="47.46396" lon="6.7207">
        <ele>356</ele>
        <time>2016-12-18T10:00:29.999Z</time>
      </trkpt>
      <trkpt lat="47.46398" lon="6.72074">
        <ele>356</ele>
        <time>2016-12-18T10:00:30.999Z</time>
      </trkpt>
      <trkpt lat="47.464" lon="6.72079">
        <ele>356</ele>
        <time>2016-12-18T10:00:31.999Z</time>
      </trkpt>
      <trkpt lat="47.46402" lon="6.72085">
        <ele>357</ele>
        <time>2016-12-18T10:00:32.999Z</time>
      </trkpt>
      <trkpt lat="47.46404" lon="6.7209">
        <ele>357</ele>
        <time>2016-12-18T10:00:33.999Z</time>
      </trkpt>
      <trkpt lat="47.46407" lon="6.72094">
        <ele>357</ele>
        <time>2016-12-18T10:00:34.999Z</time>
      </trkpt>
      <trkpt lat="47.46409" lon="6.72098">
        <ele>357</ele>
        <time>2016-12-18T10:00:35.999Z</time>
      </trkpt>
      <trkpt lat="47.46411" lon="6.72101">
        <ele>357</ele>
        <time>2016-12-18T10:00:36.999Z</time>
      </trkpt>
      <trkpt lat="47.46413" lon="6.72103">
        <ele>358</ele>
        <time>2016-12-18T10:00:37.999Z</time>
      </trkpt>
      <trkpt lat="47.46415" lon="6.72107">
        <ele>358</ele>
        <time>2016-12-18T10:00:38.999Z</time>
      </trkpt>
      <trkpt lat="47.46417" lon="6.7211">
        <ele>358</ele>
        <time>2016-12-18T10:00:39.999Z</time>
      </trkpt>
      <trkpt lat="47.46419" lon="6.72113">
        <ele>358</ele>
        <time>2016-12-18T10:00:40.999Z</time>
      </trkpt>
      <trkpt lat="47.46421" lon="6.72117">
        <ele>358</ele>
        <time>2016-12-18T10:00:41.999Z</time>
      </trkpt>
      <trkpt lat="47.46423" lon="6.72121">
        <ele>358</ele>
        <time>2016-12-18T10:00:42.999Z</time>
      </trkpt>
      <trkpt lat="47.46426" lon="6.72127">
        <ele>358</ele>
        <time>2016-12-18T10:00:43.999Z</time>
      </trkpt>
      <trkpt lat="47.46429" lon="6.7213">
        <ele>358</ele>
        <time>2016-12-18T10:00:44.999Z</time>
      </trkpt>
      <trkpt lat="47.46432" lon="6.72134">
        <ele>358</ele>
        <time>2016-12-18T10:00:45.999Z</time>
      </trkpt>
      <trkpt lat="47.46434" lon="6.72138">
        <ele>358</ele>
        <time>2016-12-18T10:00:46.999Z</time>
      </trkpt>
      <trkpt lat="47.46436" lon="6.72141">
        <ele>358</ele>
        <time>2016-12-18T10:00:47.999Z</time>
      </trkpt>
      <trkpt lat="47.46437" lon="6.72144">
        <ele>359</ele>
        <time>2016-12-18T10:00:48.999Z</time>
      </trkpt>
      <trkpt lat="47.46438" lon="6.72147">
        <ele>359</ele>
        <time>2016-12-18T10:00:49.999Z</time>
      </trkpt>
      <trkpt lat="47.4644" lon="6.7215">
        <ele>359</ele>
        <time>2016-12-18T10:00:50.999Z</time>
      </trkpt>
      <trkpt lat="47.46442" lon="6.72154">
        <ele>359</ele>
        <time>2016-12-18T10:00:51.999Z</time>
      </trkpt>
      <trkpt lat="47.46443" lon="6.72158">
        <ele>359</ele>
        <time>2016-12-18T10:00:52.999Z</time>
      </trkpt>
      <trkpt lat="47.46445" lon="6.72159">
        <ele>359</ele>
        <time>2016-12-18T10:00:53.999Z</time>
      </trkpt>
      <trkpt lat="47.46447" lon="6.72164">
        <ele>359</ele>
        <time>2016-12-18T10:00:54.999Z</time>
      </trkpt>
      <trkpt lat="47.46448" lon="6.72168">
        <ele>361</ele>
        <time>2016-12-18T10:00:55.999Z</time>
      </trkpt>
      <trkpt lat="47.4645" lon="6.72172">
        <ele>361</ele>
        <time>2016-12-18T10:00:56.999Z</time>
      </trkpt>
      <trkpt lat="47.46452" lon="6.72176">
        <ele>361</ele>
        <time>2016-12-18T10:00:57.999Z</time>
      </trkpt>
      <trkpt lat="47.46453" lon="6.72179">
        <ele>361</ele>
        <time>2016-12-18T10:00:58.999Z</time>
      </trkpt>
      <trkpt lat="47.46455" lon="6.72185">
        <ele>361</ele>
        <time>2016-12-18T10:01:00.999Z</time>
      </trkpt>
      <trkpt lat="47.46456" lon="6.72188">
        <ele>361</ele>
        <time>2016-12-18T10:01:01.999Z</time>
      </trkpt>
      <trkpt lat="47.46457" lon="6.72193">
        <ele>361</ele>
        <time>2016-12-18T10:01:02.999Z</time>
      </trkpt>
      <trkpt lat="47.46457" lon="6.72198">
        <ele>361</ele>
        <time>2016-12-18T10:01:03.999Z</time>
      </trkpt>
      <trkpt lat="47.46456" lon="6.72204">
        <ele>361</ele>
        <time>2016-12-18T10:01:05.999Z</time>
      </trkpt>
      <trkpt lat="47.46456" lon="6.72205">
        <ele>361</ele>
        <time>2016-12-18T10:01:06.999Z</time>
      </trkpt>
      <trkpt lat="47.46454" lon="6.72207">
        <ele>362</ele>
        <time>2016-12-18T10:01:07.999Z</time>
      </trkpt>
      <trkpt lat="47.46452" lon="6.72208">
        <ele>362</ele>
        <time>2016-12-18T10:01:08.999Z</time>
      </trkpt>
      <trkpt lat="47.46449" lon="6.7221">
        <ele>362</ele>
        <time>2016-12-18T10:01:09.999Z</time>
      </trkpt>
      <trkpt lat="47.46446" lon="6.72212">
        <ele>362</ele>
        <time>2016-12-18T10:01:10.999Z</time>
      </trkpt>
      <trkpt lat="47.46444" lon="6.72214">
        <ele>362</ele>
        <time>2016-12-18T10:01:11.999Z</time>
      </trkpt>
      <trkpt lat="47.46441" lon="6.72215">
        <ele>362</ele>
        <time>2016-12-18T10:01:12.999Z</time>
      </trkpt>
      <trkpt lat="47.46439" lon="6.72218">
        <ele>362</ele>
        <time>2016-12-18T10:01:13.999Z</time>
      </trkpt>
      <trkpt lat="47.46437" lon="6.7222">
        <ele>362</ele>
        <time>2016-12-18T10:01:14.999Z</time>
      </trkpt>
      <trkpt lat="47.46434" lon="6.72222">
        <ele>362</ele>
        <time>2016-12-18T10:01:15.999Z</time>
      </trkpt>
      <trkpt lat="47.46433" lon="6.72223">
        <ele>362</ele>
        <time>2016-12-18T10:01:16.999Z</time>
      </trkpt>
      <trkpt lat="47.46431" lon="6.72224">
        <ele>362</ele>
        <time>2016-12-18T10:01:17.999Z</time>
      </trkpt>
      <trkpt lat="47.46428" lon="6.72226">
        <ele>363</ele>
        <time>2016-12-18T10:01:18.999Z</time>
      </trkpt>
      <trkpt lat="47.46425" lon="6.72228">
        <ele>363</ele>
        <time>2016-12-18T10:01:19.999Z</time>
      </trkpt>
      <trkpt lat="47.46423" lon="6.72229">
        <ele>363</ele>
        <time>2016-12-18T10:01:20.999Z</time>
      </trkpt>
      <trkpt lat="47.46418" lon="6.72231">
        <ele>363</ele>
        <time>2016-12-18T10:01:22.999Z</time>
      </trkpt>
      <trkpt lat="47.46416" lon="6.72232">
        <ele>364</ele>
        <time>2016-12-18T10:01:23.999Z</time>
      </trkpt>
      <trkpt lat="47.46414" lon="6.72234">
        <ele>364</ele>
        <time>2016-12-18T10:01:24.999Z</time>
      </trkpt>
      <trkpt lat="47.46411" lon="6.72236">
        <ele>364</ele>
        <time>2016-12-18T10:01:25.999Z</time>
      </trkpt>
      <trkpt lat="47.46409" lon="6.72238">
        <ele>364</ele>
        <time>2016-12-18T10:01:26.999Z</time>
      </trkpt>
      <trkpt lat="47.46407" lon="6.7224">
        <ele>364</ele>
        <time>2016-12-18T10:01:27.999Z</time>
      </trkpt>
      <trkpt lat="47.46405" lon="6.72242">
        <ele>364</ele>
        <time>2016-12-18T10:01:28.999Z</time>
      </trkpt>
      <trkpt lat="47.46403" lon="6.72244">
        <ele>364</ele>
        <time>2016-12-18T10:01:29.999Z</time>
      </trkpt>
      <trkpt lat="47.46399" lon="6.72247">
        <ele>364</ele>
        <time>2016-12-18T10:01:31.999Z</time>
      </trkpt>
      <trkpt lat="47.46397" lon="6.72248">
        <ele>364</ele>
        <time>2016-12-18T10:01:32.999Z</time>
      </trkpt>
      <trkpt lat="47.46395" lon="6.7225">
        <ele>364</ele>
        <time>2016-12-18T10:01:33.999Z</time>
      </trkpt>
      <trkpt lat="47.46392" lon="6.72252">
        <ele>368</ele>
        <time>2016-12-18T10:01:34.999Z</time>
      </trkpt>
      <trkpt lat="47.46388" lon="6.72255">
        <ele>368</ele>
        <time>2016-12-18T10:01:36.999Z</time>
      </trkpt>
      <trkpt lat="47.46386" lon="6.72257">
        <ele>368</ele>
        <time>2016-12-18T10:01:37.999Z</time>
      </trkpt>
      <trkpt lat="47.46383" lon="6.7226">
        <ele>368</ele>
        <time>2016-12-18T10:01:39.999Z</time>
      </trkpt>
      <trkpt lat="47.46381" lon="6.72263">
        <ele>368</ele>
        <time>2016-12-18T10:01:40.999Z</time>
      </trkpt>
      <trkpt lat="47.46379" lon="6.72264">
        <ele>369</ele>
        <time>2016-12-18T10:01:41.999Z</time>
      </trkpt>
      <trkpt lat="47.46376" lon="6.72266">
        <ele>369</ele>
        <time>2016-12-18T10:01:42.999Z</time>
      </trkpt>
      <trkpt lat="47.46372" lon="6.72269">
        <ele>369</ele>
        <time>2016-12-18T10:01:44.999Z</time>
      </trkpt>
      <trkpt lat="47.4637" lon="6.7227">
        <ele>369</ele>
        <time>2016-12-18T10:01:45.999Z</time>
      </trkpt>
      <trkpt lat="47.46368" lon="6.72272">
        <ele>369</ele>
        <time>2016-12-18T10:01:46.999Z</time>
      </trkpt>
      <trkpt lat="47.46365" lon="6.72274">
        <ele>369</ele>
        <time>2016-12-18T10:01:47.999Z</time>
      </trkpt>
      <trkpt lat="47.46363" lon="6.72276">
        <ele>369</ele>
        <time>2016-12-18T10:01:48.999Z</time>
      </trkpt>
      <trkpt lat="47.46361" lon="6.72277">
        <ele>369</ele>
        <time>2016-12-18T10:01:49.999Z</time>
      </trkpt>
      <trkpt lat="47.46358" lon="6.72279">
        <ele>369</ele>
        <time>2016-12-18T10:01:50.999Z</time>
      </trkpt>
      <trkpt lat="47.46357" lon="6.72281">
        <ele>370</ele>
        <time>2016-12-18T10:01:51.999Z</time>
      </trkpt>
      <trkpt lat="47.46355" lon="6.72284">
        <ele>370</ele>
        <time>2016-12-18T10:01:53.999Z</time>
      </trkpt>
      <trkpt lat="47.46354" lon="6.72286">
        <ele>370</ele>
        <time>2016-12-18T10:01:54.999Z</time>
      </trkpt>
      <trkpt lat="47.4635" lon="6.72289">
        <ele>370</ele>
        <time>2016-12-18T10:01:56.999Z</time>
      </trkpt>
      <trkpt lat="47.46349" lon="6.72291">
        <ele>370</ele>
        <time>2016-12-18T10:01:57.999Z</time>
      </trkpt>
      <trkpt lat="47.46346" lon="6.72295">
        <ele>371</ele>
        <time>2016-12-18T10:01:59.999Z</time>
      </trkpt>
      <trkpt lat="47.46345" lon="6.72298">
        <ele>371</ele>
        <time>2016-12-18T10:02:00.999Z</time>
      </trkpt>
      <trkpt lat="47.46342" lon="6.72301">
        <ele>371</ele>
        <time>2016-12-18T10:02:02.999Z</time>
      </trkpt>
      <trkpt lat="47.46341" lon="6.72303">
        <ele>371</ele>
        <time>2016-12-18T10:02:03.999Z</time>
      </trkpt>
      <trkpt lat="47.4634" lon="6.72304">
        <ele>371</ele>
        <time>2016-12-18T10:02:12.999Z</time>
      </trkpt>
      <trkpt lat="47.46329" lon="6.72312">
        <ele>375</ele>
        <time>2016-12-18T10:02:13.999Z</time>
      </trkpt>
      <trkpt lat="47.46326" lon="6.72313">
        <ele>375</ele>
        <time>2016-12-18T10:02:16.999Z</time>
      </trkpt>
      <trkpt lat="47.46324" lon="6.72314">
        <ele>376</ele>
        <time>2016-12-18T10:02:17.999Z</time>
      </trkpt>
      <trkpt lat="47.46321" lon="6.72315">
        <ele>376</ele>
        <time>2016-12-18T10:02:19.999Z</time>
      </trkpt>
      <trkpt lat="47.46318" lon="6.72317">
        <ele>376</ele>
        <time>2016-12-18T10:02:20.999Z</time>
      </trkpt>
      <trkpt lat="47.46316" lon="6.72318">
        <ele>376</ele>
        <time>2016-12-18T10:02:22.999Z</time>
      </trkpt>
      <trkpt lat="47.46314" lon="6.7232">
        <ele>376</ele>
        <time>2016-12-18T10:02:23.999Z</time>
      </trkpt>
      <trkpt lat="47.46314" lon="6.7232">
        <ele>376</ele>
        <time>2016-12-18T10:02:33.999Z</time>
      </trkpt>
      <trkpt lat="47.46302" lon="6.72323">
        <ele>377</ele>
        <time>2016-12-18T10:02:34.999Z</time>
      </trkpt>
      <trkpt lat="47.46302" lon="6.72323">
        <ele>377</ele>
        <time>2016-12-18T10:02:40.999Z</time>
      </trkpt>
      <trkpt lat="47.46292" lon="6.72324">
        <ele>377</ele>
        <time>2016-12-18T10:02:41.999Z</time>
      </trkpt>
      <trkpt lat="47.46292" lon="6.72324">
        <ele>377</ele>
        <time>2016-12-18T10:02:51.999Z</time>
      </trkpt>
      <trkpt lat="47.4628" lon="6.7233">
        <ele>379</ele>
        <time>2016-12-18T10:02:52.999Z</time>
      </trkpt>
      <trkpt lat="47.4628" lon="6.7233">
        <ele>379</ele>
        <time>2016-12-18T10:02:58.999Z</time>
      </trkpt>
      <trkpt lat="47.46271" lon="6.72331">
        <ele>380</ele>
        <time>2016-12-18T10:02:59.999Z</time>
      </trkpt>
      <trkpt lat="47.46271" lon="6.72331">
        <ele>380</ele>
        <time>2016-12-18T10:03:15.999Z</time>
      </trkpt>
      <trkpt lat="47.46274" lon="6.72345">
        <ele>387</ele>
        <time>2016-12-18T10:03:16.999Z</time>
      </trkpt>
      <trkpt lat="47.46274" lon="6.72345">
        <ele>387</ele>
        <time>2016-12-18T10:03:22.999Z</time>
      </trkpt>
      <trkpt lat="47.4628" lon="6.72355">
        <ele>387</ele>
        <time>2016-12-18T10:03:23.999Z</time>
      </trkpt>
      <trkpt lat="47.4628" lon="6.72355">
        <ele>387</ele>
        <time>2016-12-18T10:03:27.999Z</time>
      </trkpt>
      <trkpt lat="47.46285" lon="6.72362">
        <ele>387</ele>
        <time>2016-12-18T10:03:28.999Z</time>
      </trkpt>
      <trkpt lat="47.46285" lon="6.72362">
        <ele>387</ele>
        <time>2016-12-18T10:03:37.999Z</time>
      </trkpt>
      <trkpt lat="47.46292" lon="6.72377">
        <ele>388</ele>
        <time>2016-12-18T10:03:38.999Z</time>
      </trkpt>
      <trkpt lat="47.46292" lon="6.72377">
        <ele>388</ele>
        <time>2016-12-18T10:03:48.999Z</time>
      </trkpt>
      <trkpt lat="47.4629" lon="6.72393">
        <ele>389</ele>
        <time>2016-12-18T10:03:49.999Z</time>
      </trkpt>
      <trkpt lat="47.4629" lon="6.72393">
        <ele>389</ele>
        <time>2016-12-18T10:03:55.999Z</time>
      </trkpt>
      <trkpt lat="47.46288" lon="6.72407">
        <ele>390</ele>
        <time>2016-12-18T10:03:56.999Z</time>
      </trkpt>
      <trkpt lat="47.46288" lon="6.72407">
        <ele>390</ele>
        <time>2016-12-18T10:04:09.999Z</time>
      </trkpt>
      <trkpt lat="47.46289" lon="6.72423">
        <ele>398</ele>
        <time>2016-12-18T10:04:10.999Z</time>
      </trkpt>
      <trkpt lat="47.46289" lon="6.72423">
        <ele>398</ele>
        <time>2016-12-18T10:04:29.999Z</time>
      </trkpt>
      <trkpt lat="47.46275" lon="6.72432">
        <ele>399</ele>
        <time>2016-12-18T10:04:30.999Z</time>
      </trkpt>
      <trkpt lat="47.46275" lon="6.72432">
        <ele>399</ele>
        <time>2016-12-18T10:04:33.999Z</time>
      </trkpt>
      <trkpt lat="47.46266" lon="6.72432">
        <ele>400</ele>
        <time>2016-12-18T10:04:34.999Z</time>
      </trkpt>
      <trkpt lat="47.46266" lon="6.72432">
        <ele>400</ele>
        <time>2016-12-18T10:04:49.999Z</time>
      </trkpt>
      <trkpt lat="47.4625" lon="6.72421">
        <ele>403</ele>
        <time>2016-12-18T10:04:50.999Z</time>
      </trkpt>
      <trkpt lat="47.4625" lon="6.72421">
        <ele>403</ele>
        <time>2016-12-18T10:04:58.999Z</time>
      </trkpt>
      <trkpt lat="47.46237" lon="6.72416">
        <ele>400</ele>
        <time>2016-12-18T10:04:59.999Z</time>
      </trkpt>
      <trkpt lat="47.46237" lon="6.72416">
        <ele>400</ele>
        <time>2016-12-18T10:05:02.999Z</time>
      </trkpt>
      <trkpt lat="47.46232" lon="6.72417">
        <ele>400</ele>
        <time>2016-12-18T10:05:03.999Z</time>
      </trkpt>
      <trkpt lat="47.46228" lon="6.72419">
        <ele>407</ele>
        <time>2016-12-18T10:05:07.999Z</time>
      </trkpt>
      <trkpt lat="47.46226" lon="6.72419">
        <ele>407</ele>
        <time>2016-12-18T10:05:08.999Z</time>
      </trkpt>
      <trkpt lat="47.46225" lon="6.72418">
        <ele>407</ele>
        <time>2016-12-18T10:05:09.999Z</time>
      </trkpt>
      <trkpt lat="47.46222" lon="6.72416">
        <ele>400</ele>
        <time>2016-12-18T10:05:10.999Z</time>
      </trkpt>
      <trkpt lat="47.46219" lon="6.72414">
        <ele>400</ele>
        <time>2016-12-18T10:05:12.999Z</time>
      </trkpt>
      <trkpt lat="47.46215" lon="6.72414">
        <ele>400</ele>
        <time>2016-12-18T10:05:13.999Z</time>
      </trkpt>
      <trkpt lat="47.46211" lon="6.72413">
        <ele>401</ele>
        <time>2016-12-18T10:05:15.999Z</time>
      </trkpt>
      <trkpt lat="47.4621" lon="6.72414">
        <ele>401</ele>
        <time>2016-12-18T10:05:16.999Z</time>
      </trkpt>
      <trkpt lat="47.46206" lon="6.72415">
        <ele>401</ele>
        <time>2016-12-18T10:05:21.999Z</time>
      </trkpt>
      <trkpt lat="47.46205" lon="6.72416">
        <ele>401</ele>
        <time>2016-12-18T10:05:22.999Z</time>
      </trkpt>
      <trkpt lat="47.46201" lon="6.72417">
        <ele>410</ele>
        <time>2016-12-18T10:05:26.999Z</time>
      </trkpt>
      <trkpt lat="47.462" lon="6.72417">
        <ele>410</ele>
        <time>2016-12-18T10:05:27.999Z</time>
      </trkpt>
      <trkpt lat="47.46198" lon="6.72418">
        <ele>410</ele>
        <time>2016-12-18T10:05:29.999Z</time>
      </trkpt>
      <trkpt lat="47.46195" lon="6.72418">
        <ele>410</ele>
        <time>2016-12-18T10:05:30.999Z</time>
      </trkpt>
      <trkpt lat="47.46191" lon="6.72419">
        <ele>410</ele>
        <time>2016-12-18T10:05:33.999Z</time>
      </trkpt>
      <trkpt lat="47.4619" lon="6.7242">
        <ele>410</ele>
        <time>2016-12-18T10:05:34.999Z</time>
      </trkpt>
      <trkpt lat="47.46187" lon="6.72421">
        <ele>410</ele>
        <time>2016-12-18T10:05:36.999Z</time>
      </trkpt>
      <trkpt lat="47.46185" lon="6.72421">
        <ele>411</ele>
        <time>2016-12-18T10:05:37.999Z</time>
      </trkpt>
      <trkpt lat="47.46182" lon="6.72422">
        <ele>411</ele>
        <time>2016-12-18T10:05:39.999Z</time>
      </trkpt>
      <trkpt lat="47.4618" lon="6.72423">
        <ele>411</ele>
        <time>2016-12-18T10:05:40.999Z</time>
      </trkpt>
      <trkpt lat="47.46177" lon="6.72426">
        <ele>411</ele>
        <time>2016-12-18T10:05:43.999Z</time>
      </trkpt>
      <trkpt lat="47.46176" lon="6.72427">
        <ele>411</ele>
        <time>2016-12-18T10:05:44.999Z</time>
      </trkpt>
      <trkpt lat="47.46173" lon="6.7243">
        <ele>411</ele>
        <time>2016-12-18T10:05:46.999Z</time>
      </trkpt>
      <trkpt lat="47.4617" lon="6.72431">
        <ele>411</ele>
        <time>2016-12-18T10:05:47.999Z</time>
      </trkpt>
      <trkpt lat="47.46167" lon="6.72433">
        <ele>411</ele>
        <time>2016-12-18T10:05:49.999Z</time>
      </trkpt>
      <trkpt lat="47.46165" lon="6.72435">
        <ele>417</ele>
        <time>2016-12-18T10:05:50.999Z</time>
      </trkpt>
      <trkpt lat="47.46164" lon="6.72435">
        <ele>417</ele>
        <time>2016-12-18T10:05:51.999Z</time>
      </trkpt>
      <trkpt lat="47.46161" lon="6.72437">
        <ele>418</ele>
        <time>2016-12-18T10:05:52.999Z</time>
      </trkpt>
      <trkpt lat="47.46158" lon="6.72441">
        <ele>419</ele>
        <time>2016-12-18T10:05:54.999Z</time>
      </trkpt>
      <trkpt lat="47.46157" lon="6.72441">
        <ele>419</ele>
        <time>2016-12-18T10:05:55.999Z</time>
      </trkpt>
      <trkpt lat="47.46153" lon="6.72443">
        <ele>419</ele>
        <time>2016-12-18T10:05:59.999Z</time>
      </trkpt>
      <trkpt lat="47.46153" lon="6.72443">
        <ele>419</ele>
        <time>2016-12-18T10:06:00.999Z</time>
      </trkpt>
      <trkpt lat="47.46149" lon="6.72443">
        <ele>420</ele>
        <time>2016-12-18T10:06:04.999Z</time>
      </trkpt>
      <trkpt lat="47.46148" lon="6.72443">
        <ele>420</ele>
        <time>2016-12-18T10:06:05.999Z</time>
      </trkpt>
      <trkpt lat="47.46144" lon="6.72445">
        <ele>420</ele>
        <time>2016-12-18T10:06:09.999Z</time>
      </trkpt>
      <trkpt lat="47.46143" lon="6.72446">
        <ele>421</ele>
        <time>2016-12-18T10:06:10.999Z</time>
      </trkpt>
      <trkpt lat="47.4614" lon="6.72448">
        <ele>421</ele>
        <time>2016-12-18T10:06:11.999Z</time>
      </trkpt>
      <trkpt lat="47.46138" lon="6.7245">
        <ele>421</ele>
        <time>2016-12-18T10:06:12.999Z</time>
      </trkpt>
      <trkpt lat="47.46135" lon="6.72451">
        <ele>422</ele>
        <time>2016-12-18T10:06:15.999Z</time>
      </trkpt>
      <trkpt lat="47.46133" lon="6.72452">
        <ele>422</ele>
        <time>2016-12-18T10:06:16.999Z</time>
      </trkpt>
      <trkpt lat="47.46131" lon="6.72452">
        <ele>422</ele>
        <time>2016-12-18T10:06:17.999Z</time>
      </trkpt>
      <trkpt lat="47.46129" lon="6.72452">
        <ele>422</ele>
        <time>2016-12-18T10:06:18.999Z</time>
      </trkpt>
      <trkpt lat="47.46125" lon="6.72452">
        <ele>423</ele>
        <time>2016-12-18T10:06:20.999Z</time>
      </trkpt>
      <trkpt lat="47.46124" lon="6.72452">
        <ele>423</ele>
        <time>2016-12-18T10:06:21.999Z</time>
      </trkpt>
      <trkpt lat="47.46121" lon="6.72452">
        <ele>423</ele>
        <time>2016-12-18T10:06:22.999Z</time>
      </trkpt>
      <trkpt lat="47.46119" lon="6.72451">
        <ele>423</ele>
        <time>2016-12-18T10:06:23.999Z</time>
      </trkpt>
      <trkpt lat="47.46116" lon="6.72452">
        <ele>423</ele>
        <time>2016-12-18T10:06:25.999Z</time>
      </trkpt>
      <trkpt lat="47.46114" lon="6.72452">
        <ele>424</ele>
        <time>2016-12-18T10:06:26.999Z</time>
      </trkpt>
      <trkpt lat="47.4611" lon="6.72454">
        <ele>424</ele>
        <time>2016-12-18T10:06:28.999Z</time>
      </trkpt>
      <trkpt lat="47.46109" lon="6.72455">
        <ele>424</ele>
        <time>2016-12-18T10:06:29.999Z</time>
      </trkpt>
      <trkpt lat="47.46105" lon="6.72455">
        <ele>424</ele>
        <time>2016-12-18T10:06:31.999Z</time>
      </trkpt>
      <trkpt lat="47.46104" lon="6.72455">
        <ele>424</ele>
        <time>2016-12-18T10:06:32.999Z</time>
      </trkpt>
      <trkpt lat="47.46101" lon="6.72454">
        <ele>425</ele>
        <time>2016-12-18T10:06:33.999Z</time>
      </trkpt>
      <trkpt lat="47.461" lon="6.72453">
        <ele>425</ele>
        <time>2016-12-18T10:06:34.999Z</time>
      </trkpt>
      <trkpt lat="47.46096" lon="6.72453">
        <ele>425</ele>
        <time>2016-12-18T10:06:39.999Z</time>
      </trkpt>
      <trkpt lat="47.46093" lon="6.72453">
        <ele>425</ele>
        <time>2016-12-18T10:06:40.999Z</time>
      </trkpt>
      <trkpt lat="47.4609" lon="6.72455">
        <ele>425</ele>
        <time>2016-12-18T10:06:42.999Z</time>
      </trkpt>
      <trkpt lat="47.46088" lon="6.72455">
        <ele>425</ele>
        <time>2016-12-18T10:06:43.999Z</time>
      </trkpt>
      <trkpt lat="47.46084" lon="6.72457">
        <ele>426</ele>
        <time>2016-12-18T10:06:46.999Z</time>
      </trkpt>
      <trkpt lat="47.46083" lon="6.72458">
        <ele>433</ele>
        <time>2016-12-18T10:06:47.999Z</time>
      </trkpt>
      <trkpt lat="47.4608" lon="6.72458">
        <ele>433</ele>
        <time>2016-12-18T10:06:50.999Z</time>
      </trkpt>
      <trkpt lat="47.46078" lon="6.72459">
        <ele>433</ele>
        <time>2016-12-18T10:06:51.999Z</time>
      </trkpt>
      <trkpt lat="47.46073" lon="6.72458">
        <ele>433</ele>
        <time>2016-12-18T10:06:53.999Z</time>
      </trkpt>
      <trkpt lat="47.46072" lon="6.72458">
        <ele>433</ele>
        <time>2016-12-18T10:06:54.999Z</time>
      </trkpt>
      <trkpt lat="47.4607" lon="6.72459">
        <ele>433</ele>
        <time>2016-12-18T10:06:56.999Z</time>
      </trkpt>
      <trkpt lat="47.46067" lon="6.72459">
        <ele>433</ele>
        <time>2016-12-18T10:06:57.999Z</time>
      </trkpt>
      <trkpt lat="47.46063" lon="6.72459">
        <ele>433</ele>
        <time>2016-12-18T10:06:59.999Z</time>
      </trkpt>
      <trkpt lat="47.46061" lon="6.72458">
        <ele>433</ele>
        <time>2016-12-18T10:07:00.999Z</time>
      </trkpt>
      <trkpt lat="47.46058" lon="6.72458">
        <ele>434</ele>
        <time>2016-12-18T10:07:03.999Z</time>
      </trkpt>
      <trkpt lat="47.46053" lon="6.72458">
        <ele>434</ele>
        <time>2016-12-18T10:07:04.999Z</time>
      </trkpt>
      <trkpt lat="47.4605" lon="6.72458">
        <ele>434</ele>
        <time>2016-12-18T10:07:07.999Z</time>
      </trkpt>
      <trkpt lat="47.46049" lon="6.72458">
        <ele>434</ele>
        <time>2016-12-18T10:07:08.999Z</time>
      </trkpt>
      <trkpt lat="47.46045" lon="6.72458">
        <ele>434</ele>
        <time>2016-12-18T10:07:10.999Z</time>
      </trkpt>
      <trkpt lat="47.46042" lon="6.72457">
        <ele>434</ele>
        <time>2016-12-18T10:07:11.999Z</time>
      </trkpt>
      <trkpt lat="47.46039" lon="6.72456">
        <ele>435</ele>
        <time>2016-12-18T10:07:13.999Z</time>
      </trkpt>
      <trkpt lat="47.46037" lon="6.72456">
        <ele>435</ele>
        <time>2016-12-18T10:07:14.999Z</time>
      </trkpt>
      <trkpt lat="47.46033" lon="6.72454">
        <ele>435</ele>
        <time>2016-12-18T10:07:16.999Z</time>
      </trkpt>
      <trkpt lat="47.46032" lon="6.72453">
        <ele>435</ele>
        <time>2016-12-18T10:07:17.999Z</time>
      </trkpt>
      <trkpt lat="47.46029" lon="6.72451">
        <ele>435</ele>
        <time>2016-12-18T10:07:20.999Z</time>
      </trkpt>
      <trkpt lat="47.46027" lon="6.72448">
        <ele>435</ele>
        <time>2016-12-18T10:07:21.999Z</time>
      </trkpt>
      <trkpt lat="47.46025" lon="6.72446">
        <ele>435</ele>
        <time>2016-12-18T10:07:22.999Z</time>
      </trkpt>
      <trkpt lat="47.46023" lon="6.72444">
        <ele>435</ele>
        <time>2016-12-18T10:07:23.999Z</time>
      </trkpt>
      <trkpt lat="47.46019" lon="6.72441">
        <ele>436</ele>
        <time>2016-12-18T10:07:25.999Z</time>
      </trkpt>
      <trkpt lat="47.46018" lon="6.72441">
        <ele>436</ele>
        <time>2016-12-18T10:07:26.999Z</time>
      </trkpt>
      <trkpt lat="47.46015" lon="6.7244">
        <ele>436</ele>
        <time>2016-12-18T10:07:29.999Z</time>
      </trkpt>
      <trkpt lat="47.46014" lon="6.7244">
        <ele>436</ele>
        <time>2016-12-18T10:07:30.999Z</time>
      </trkpt>
      <trkpt lat="47.4601" lon="6.72438">
        <ele>436</ele>
        <time>2016-12-18T10:07:32.999Z</time>
      </trkpt>
      <trkpt lat="47.46008" lon="6.72437">
        <ele>436</ele>
        <time>2016-12-18T10:07:33.999Z</time>
      </trkpt>
      <trkpt lat="47.46004" lon="6.72435">
        <ele>437</ele>
        <time>2016-12-18T10:07:36.999Z</time>
      </trkpt>
      <trkpt lat="47.46002" lon="6.72435">
        <ele>437</ele>
        <time>2016-12-18T10:07:37.999Z</time>
      </trkpt>
      <trkpt lat="47.45999" lon="6.72435">
        <ele>439</ele>
        <time>2016-12-18T10:07:40.999Z</time>
      </trkpt>
      <trkpt lat="47.45997" lon="6.72434">
        <ele>439</ele>
        <time>2016-12-18T10:07:41.999Z</time>
      </trkpt>
      <trkpt lat="47.45994" lon="6.72432">
        <ele>439</ele>
        <time>2016-12-18T10:07:44.999Z</time>
      </trkpt>
      <trkpt lat="47.45992" lon="6.7243">
        <ele>439</ele>
        <time>2016-12-18T10:07:45.999Z</time>
      </trkpt>
      <trkpt lat="47.45988" lon="6.72428">
        <ele>439</ele>
        <time>2016-12-18T10:07:47.999Z</time>
      </trkpt>
      <trkpt lat="47.45986" lon="6.72427">
        <ele>439</ele>
        <time>2016-12-18T10:07:48.999Z</time>
      </trkpt>
      <trkpt lat="47.45982" lon="6.72426">
        <ele>439</ele>
        <time>2016-12-18T10:07:50.999Z</time>
      </trkpt>
      <trkpt lat="47.45979" lon="6.72426">
        <ele>439</ele>
        <time>2016-12-18T10:07:51.999Z</time>
      </trkpt>
      <trkpt lat="47.45976" lon="6.72425">
        <ele>439</ele>
        <time>2016-12-18T10:07:54.999Z</time>
      </trkpt>
      <trkpt lat="47.45975" lon="6.72426">
        <ele>439</ele>
        <time>2016-12-18T10:07:55.999Z</time>
      </trkpt>
      <trkpt lat="47.45971" lon="6.72429">
        <ele>439</ele>
        <time>2016-12-18T10:07:57.999Z</time>
      </trkpt>
      <trkpt lat="47.45969" lon="6.7243">
        <ele>439</ele>
        <time>2016-12-18T10:07:58.999Z</time>
      </trkpt>
      <trkpt lat="47.45965" lon="6.72433">
        <ele>439</ele>
        <time>2016-12-18T10:08:00.999Z</time>
      </trkpt>
      <trkpt lat="47.45964" lon="6.72435">
        <ele>439</ele>
        <time>2016-12-18T10:08:01.999Z</time>
      </trkpt>
      <trkpt lat="47.45962" lon="6.72438">
        <ele>439</ele>
        <time>2016-12-18T10:08:04.999Z</time>
      </trkpt>
      <trkpt lat="47.45961" lon="6.7244">
        <ele>439</ele>
        <time>2016-12-18T10:08:05.999Z</time>
      </trkpt>
      <trkpt lat="47.45959" lon="6.72445">
        <ele>439</ele>
        <time>2016-12-18T10:08:08.999Z</time>
      </trkpt>
      <trkpt lat="47.45959" lon="6.72447">
        <ele>439</ele>
        <time>2016-12-18T10:08:09.999Z</time>
      </trkpt>
      <trkpt lat="47.45959" lon="6.72453">
        <ele>439</ele>
        <time>2016-12-18T10:08:13.999Z</time>
      </trkpt>
      <trkpt lat="47.4596" lon="6.72458">
        <ele>439</ele>
        <time>2016-12-18T10:08:14.999Z</time>
      </trkpt>
      <trkpt lat="47.45959" lon="6.72464">
        <ele>439</ele>
        <time>2016-12-18T10:08:17.999Z</time>
      </trkpt>
      <trkpt lat="47.45959" lon="6.72465">
        <ele>439</ele>
        <time>2016-12-18T10:08:18.999Z</time>
      </trkpt>
      <trkpt lat="47.45959" lon="6.72471">
        <ele>439</ele>
        <time>2016-12-18T10:08:21.999Z</time>
      </trkpt>
      <trkpt lat="47.4596" lon="6.72474">
        <ele>439</ele>
        <time>2016-12-18T10:08:22.999Z</time>
      </trkpt>
      <trkpt lat="47.4596" lon="6.72478">
        <ele>439</ele>
        <time>2016-12-18T10:08:24.999Z</time>
      </trkpt>
      <trkpt lat="47.45959" lon="6.72481">
        <ele>439</ele>
        <time>2016-12-18T10:08:25.999Z</time>
      </trkpt>
      <trkpt lat="47.45959" lon="6.72485">
        <ele>439</ele>
        <time>2016-12-18T10:08:26.999Z</time>
      </trkpt>
      <trkpt lat="47.45958" lon="6.72489">
        <ele>439</ele>
        <time>2016-12-18T10:08:27.999Z</time>
      </trkpt>
      <trkpt lat="47.45957" lon="6.72492">
        <ele>439</ele>
        <time>2016-12-18T10:08:28.999Z</time>
      </trkpt>
      <trkpt lat="47.45957" lon="6.72496">
        <ele>439</ele>
        <time>2016-12-18T10:08:29.999Z</time>
      </trkpt>
      <trkpt lat="47.45957" lon="6.72499">
        <ele>439</ele>
        <time>2016-12-18T10:08:30.999Z</time>
      </trkpt>
      <trkpt lat="47.45956" lon="6.72503">
        <ele>440</ele>
        <time>2016-12-18T10:08:31.999Z</time>
      </trkpt>
      <trkpt lat="47.45956" lon="6.72509">
        <ele>440</ele>
        <time>2016-12-18T10:08:34.999Z</time>
      </trkpt>
      <trkpt lat="47.45956" lon="6.72511">
        <ele>440</ele>
        <time>2016-12-18T10:08:35.999Z</time>
      </trkpt>
      <trkpt lat="47.45957" lon="6.72517">
        <ele>440</ele>
        <time>2016-12-18T10:08:37.999Z</time>
      </trkpt>
      <trkpt lat="47.45957" lon="6.72519">
        <ele>440</ele>
        <time>2016-12-18T10:08:38.999Z</time>
      </trkpt>
      <trkpt lat="47.45958" lon="6.72523">
        <ele>439</ele>
        <time>2016-12-18T10:08:40.999Z</time>
      </trkpt>
      <trkpt lat="47.4596" lon="6.72525">
        <ele>439</ele>
        <time>2016-12-18T10:08:41.999Z</time>
      </trkpt>
      <trkpt lat="47.45963" lon="6.72529">
        <ele>439</ele>
        <time>2016-12-18T10:08:43.999Z</time>
      </trkpt>
      <trkpt lat="47.45964" lon="6.72531">
        <ele>439</ele>
        <time>2016-12-18T10:08:44.999Z</time>
      </trkpt>
      <trkpt lat="47.45967" lon="6.72534">
        <ele>439</ele>
        <time>2016-12-18T10:08:46.999Z</time>
      </trkpt>
      <trkpt lat="47.45969" lon="6.72534">
        <ele>439</ele>
        <time>2016-12-18T10:08:47.999Z</time>
      </trkpt>
      <trkpt lat="47.45966" lon="6.7254">
        <ele>439</ele>
        <time>2016-12-18T10:10:38.999Z</time>
      </trkpt>
      <trkpt lat="47.45966" lon="6.7254">
        <ele>439</ele>
        <time>2016-12-18T10:10:39.999Z</time>
      </trkpt>
      <trkpt lat="47.45967" lon="6.72534">
        <ele>439</ele>
        <time>2016-12-18T10:11:21.999Z</time>
      </trkpt>
      <trkpt lat="47.45967" lon="6.72534">
        <ele>439</ele>
        <time>2016-12-18T10:11:22.999Z</time>
      </trkpt>
      <trkpt lat="47.4597" lon="6.7253">
        <ele>439</ele>
        <time>2016-12-18T10:11:38.999Z</time>
      </trkpt>
      <trkpt lat="47.45972" lon="6.72529">
        <ele>439</ele>
        <time>2016-12-18T10:11:39.999Z</time>
      </trkpt>
      <trkpt lat="47.45974" lon="6.72528">
        <ele>439</ele>
        <time>2016-12-18T10:11:40.999Z</time>
      </trkpt>
      <trkpt lat="47.45976" lon="6.72527">
        <ele>439</ele>
        <time>2016-12-18T10:11:41.999Z</time>
      </trkpt>
      <trkpt lat="47.4598" lon="6.72527">
        <ele>439</ele>
        <time>2016-12-18T10:11:42.999Z</time>
      </trkpt>
      <trkpt lat="47.45983" lon="6.72527">
        <ele>439</ele>
        <time>2016-12-18T10:11:43.999Z</time>
      </trkpt>
      <trkpt lat="47.45987" lon="6.72527">
        <ele>439</ele>
        <time>2016-12-18T10:11:44.999Z</time>
      </trkpt>
      <trkpt lat="47.45992" lon="6.72528">
        <ele>439</ele>
        <time>2016-12-18T10:11:45.999Z</time>
      </trkpt>
      <trkpt lat="47.45997" lon="6.7253">
        <ele>439</ele>
        <time>2016-12-18T10:11:46.999Z</time>
      </trkpt>
      <trkpt lat="47.46" lon="6.72532">
        <ele>438</ele>
        <time>2016-12-18T10:11:47.999Z</time>
      </trkpt>
      <trkpt lat="47.46002" lon="6.72534">
        <ele>438</ele>
        <time>2016-12-18T10:11:48.999Z</time>
      </trkpt>
      <trkpt lat="47.46004" lon="6.72536">
        <ele>438</ele>
        <time>2016-12-18T10:11:49.999Z</time>
      </trkpt>
      <trkpt lat="47.46006" lon="6.72538">
        <ele>438</ele>
        <time>2016-12-18T10:11:50.999Z</time>
      </trkpt>
      <trkpt lat="47.46008" lon="6.7254">
        <ele>438</ele>
        <time>2016-12-18T10:11:51.999Z</time>
      </trkpt>
      <trkpt lat="47.46009" lon="6.72542">
        <ele>438</ele>
        <time>2016-12-18T10:11:52.999Z</time>
      </trkpt>
      <trkpt lat="47.46011" lon="6.72544">
        <ele>438</ele>
        <time>2016-12-18T10:11:53.999Z</time>
      </trkpt>
      <trkpt lat="47.46014" lon="6.72546">
        <ele>438</ele>
        <time>2016-12-18T10:11:54.999Z</time>
      </trkpt>
      <trkpt lat="47.46016" lon="6.72548">
        <ele>438</ele>
        <time>2016-12-18T10:11:55.999Z</time>
      </trkpt>
      <trkpt lat="47.46018" lon="6.72551">
        <ele>438</ele>
        <time>2016-12-18T10:11:56.999Z</time>
      </trkpt>
      <trkpt lat="47.4602" lon="6.72553">
        <ele>438</ele>
        <time>2016-12-18T10:11:57.999Z</time>
      </trkpt>
      <trkpt lat="47.46022" lon="6.72556">
        <ele>438</ele>
        <time>2016-12-18T10:11:58.999Z</time>
      </trkpt>
      <trkpt lat="47.46024" lon="6.72559">
        <ele>438</ele>
        <time>2016-12-18T10:11:59.999Z</time>
      </trkpt>
      <trkpt lat="47.46026" lon="6.72563">
        <ele>438</ele>
        <time>2016-12-18T10:12:00.999Z</time>
      </trkpt>
      <trkpt lat="47.46028" lon="6.72566">
        <ele>438</ele>
        <time>2016-12-18T10:12:01.999Z</time>
      </trkpt>
      <trkpt lat="47.46031" lon="6.72569">
        <ele>438</ele>
        <time>2016-12-18T10:12:02.999Z</time>
      </trkpt>
      <trkpt lat="47.46033" lon="6.72573">
        <ele>438</ele>
        <time>2016-12-18T10:12:03.999Z</time>
      </trkpt>
      <trkpt lat="47.46036" lon="6.72575">
        <ele>438</ele>
        <time>2016-12-18T10:12:04.999Z</time>
      </trkpt>
      <trkpt lat="47.46038" lon="6.72577">
        <ele>438</ele>
        <time>2016-12-18T10:12:05.999Z</time>
      </trkpt>
      <trkpt lat="47.46041" lon="6.7258">
        <ele>438</ele>
        <time>2016-12-18T10:12:06.999Z</time>
      </trkpt>
      <trkpt lat="47.46043" lon="6.72583">
        <ele>440</ele>
        <time>2016-12-18T10:12:07.999Z</time>
      </trkpt>
      <trkpt lat="47.46046" lon="6.72587">
        <ele>440</ele>
        <time>2016-12-18T10:12:08.999Z</time>
      </trkpt>
      <trkpt lat="47.46047" lon="6.7259">
        <ele>440</ele>
        <time>2016-12-18T10:12:09.999Z</time>
      </trkpt>
      <trkpt lat="47.4605" lon="6.72594">
        <ele>440</ele>
        <time>2016-12-18T10:12:10.999Z</time>
      </trkpt>
      <trkpt lat="47.46052" lon="6.72597">
        <ele>440</ele>
        <time>2016-12-18T10:12:11.999Z</time>
      </trkpt>
      <trkpt lat="47.46054" lon="6.72602">
        <ele>440</ele>
        <time>2016-12-18T10:12:12.999Z</time>
      </trkpt>
      <trkpt lat="47.46056" lon="6.72605">
        <ele>440</ele>
        <time>2016-12-18T10:12:13.999Z</time>
      </trkpt>
      <trkpt lat="47.4606" lon="6.72609">
        <ele>440</ele>
        <time>2016-12-18T10:12:14.999Z</time>
      </trkpt>
      <trkpt lat="47.46063" lon="6.72612">
        <ele>440</ele>
        <time>2016-12-18T10:12:15.999Z</time>
      </trkpt>
      <trkpt lat="47.46066" lon="6.72614">
        <ele>440</ele>
        <time>2016-12-18T10:12:16.999Z</time>
      </trkpt>
      <trkpt lat="47.46068" lon="6.72617">
        <ele>440</ele>
        <time>2016-12-18T10:12:17.999Z</time>
      </trkpt>
      <trkpt lat="47.46071" lon="6.72621">
        <ele>440</ele>
        <time>2016-12-18T10:12:18.999Z</time>
      </trkpt>
      <trkpt lat="47.46074" lon="6.72625">
        <ele>440</ele>
        <time>2016-12-18T10:12:19.999Z</time>
      </trkpt>
      <trkpt lat="47.46076" lon="6.72628">
        <ele>441</ele>
        <time>2016-12-18T10:12:20.999Z</time>
      </trkpt>
      <trkpt lat="47.46079" lon="6.72631">
        <ele>441</ele>
        <time>2016-12-18T10:12:21.999Z</time>
      </trkpt>
      <trkpt lat="47.46081" lon="6.72634">
        <ele>441</ele>
        <time>2016-12-18T10:12:22.999Z</time>
      </trkpt>
      <trkpt lat="47.46084" lon="6.72638">
        <ele>439</ele>
        <time>2016-12-18T10:12:23.999Z</time>
      </trkpt>
      <trkpt lat="47.46087" lon="6.72642">
        <ele>439</ele>
        <time>2016-12-18T10:12:24.999Z</time>
      </trkpt>
      <trkpt lat="47.46089" lon="6.72645">
        <ele>439</ele>
        <time>2016-12-18T10:12:25.999Z</time>
      </trkpt>
      <trkpt lat="47.46092" lon="6.72648">
        <ele>439</ele>
        <time>2016-12-18T10:12:26.999Z</time>
      </trkpt>
      <trkpt lat="47.46094" lon="6.7265">
        <ele>439</ele>
        <time>2016-12-18T10:12:27.999Z</time>
      </trkpt>
      <trkpt lat="47.46096" lon="6.72652">
        <ele>439</ele>
        <time>2016-12-18T10:12:28.999Z</time>
      </trkpt>
      <trkpt lat="47.46099" lon="6.72655">
        <ele>439</ele>
        <time>2016-12-18T10:12:29.999Z</time>
      </trkpt>
      <trkpt lat="47.46101" lon="6.72658">
        <ele>439</ele>
        <time>2016-12-18T10:12:30.999Z</time>
      </trkpt>
      <trkpt lat="47.46102" lon="6.72661">
        <ele>439</ele>
        <time>2016-12-18T10:12:31.999Z</time>
      </trkpt>
      <trkpt lat="47.46105" lon="6.72664">
        <ele>439</ele>
        <time>2016-12-18T10:12:32.999Z</time>
      </trkpt>
      <trkpt lat="47.46108" lon="6.72668">
        <ele>441</ele>
        <time>2016-12-18T10:12:33.999Z</time>
      </trkpt>
      <trkpt lat="47.46111" lon="6.72671">
        <ele>441</ele>
        <time>2016-12-18T10:12:34.999Z</time>
      </trkpt>
      <trkpt lat="47.46113" lon="6.72676">
        <ele>441</ele>
        <time>2016-12-18T10:12:35.999Z</time>
      </trkpt>
      <trkpt lat="47.46116" lon="6.72679">
        <ele>441</ele>
        <time>2016-12-18T10:12:36.999Z</time>
      </trkpt>
      <trkpt lat="47.46118" lon="6.72683">
        <ele>441</ele>
        <time>2016-12-18T10:12:37.999Z</time>
      </trkpt>
      <trkpt lat="47.46122" lon="6.72687">
        <ele>441</ele>
        <time>2016-12-18T10:12:38.999Z</time>
      </trkpt>
      <trkpt lat="47.46125" lon="6.7269">
        <ele>441</ele>
        <time>2016-12-18T10:12:39.999Z</time>
      </trkpt>
      <trkpt lat="47.46129" lon="6.72695">
        <ele>441</ele>
        <time>2016-12-18T10:12:40.999Z</time>
      </trkpt>
      <trkpt lat="47.46131" lon="6.72699">
        <ele>441</ele>
        <time>2016-12-18T10:12:41.999Z</time>
      </trkpt>
      <trkpt lat="47.46135" lon="6.72703">
        <ele>441</ele>
        <time>2016-12-18T10:12:42.999Z</time>
      </trkpt>
      <trkpt lat="47.46137" lon="6.72708">
        <ele>441</ele>
        <time>2016-12-18T10:12:43.999Z</time>
      </trkpt>
      <trkpt lat="47.46141" lon="6.72712">
        <ele>441</ele>
        <time>2016-12-18T10:12:44.999Z</time>
      </trkpt>
      <trkpt lat="47.46143" lon="6.72716">
        <ele>441</ele>
        <time>2016-12-18T10:12:45.999Z</time>
      </trkpt>
      <trkpt lat="47.46146" lon="6.72721">
        <ele>441</ele>
        <time>2016-12-18T10:12:46.999Z</time>
      </trkpt>
      <trkpt lat="47.46149" lon="6.72725">
        <ele>441</ele>
        <time>2016-12-18T10:12:47.999Z</time>
      </trkpt>
      <trkpt lat="47.46152" lon="6.7273">
        <ele>441</ele>
        <time>2016-12-18T10:12:48.999Z</time>
      </trkpt>
      <trkpt lat="47.46155" lon="6.72734">
        <ele>441</ele>
        <time>2016-12-18T10:12:49.999Z</time>
      </trkpt>
      <trkpt lat="47.46159" lon="6.72739">
        <ele>442</ele>
        <time>2016-12-18T10:12:50.999Z</time>
      </trkpt>
      <trkpt lat="47.46163" lon="6.72743">
        <ele>442</ele>
        <time>2016-12-18T10:12:51.999Z</time>
      </trkpt>
      <trkpt lat="47.46166" lon="6.72747">
        <ele>442</ele>
        <time>2016-12-18T10:12:52.999Z</time>
      </trkpt>
      <trkpt lat="47.4617" lon="6.72751">
        <ele>442</ele>
        <time>2016-12-18T10:12:53.999Z</time>
      </trkpt>
      <trkpt lat="47.46173" lon="6.72756">
        <ele>441</ele>
        <time>2016-12-18T10:12:54.999Z</time>
      </trkpt>
      <trkpt lat="47.46176" lon="6.72759">
        <ele>440</ele>
        <time>2016-12-18T10:12:55.999Z</time>
      </trkpt>
      <trkpt lat="47.4618" lon="6.72762">
        <ele>440</ele>
        <time>2016-12-18T10:12:56.999Z</time>
      </trkpt>
      <trkpt lat="47.46183" lon="6.72767">
        <ele>440</ele>
        <time>2016-12-18T10:12:57.999Z</time>
      </trkpt>
      <trkpt lat="47.46187" lon="6.72772">
        <ele>439</ele>
        <time>2016-12-18T10:12:58.999Z</time>
      </trkpt>
      <trkpt lat="47.4619" lon="6.72776">
        <ele>439</ele>
        <time>2016-12-18T10:12:59.999Z</time>
      </trkpt>
      <trkpt lat="47.46193" lon="6.72779">
        <ele>439</ele>
        <time>2016-12-18T10:13:00.999Z</time>
      </trkpt>
      <trkpt lat="47.46195" lon="6.72785">
        <ele>439</ele>
        <time>2016-12-18T10:13:01.999Z</time>
      </trkpt>
      <trkpt lat="47.46198" lon="6.7279">
        <ele>439</ele>
        <time>2016-12-18T10:13:02.999Z</time>
      </trkpt>
      <trkpt lat="47.46199" lon="6.72794">
        <ele>439</ele>
        <time>2016-12-18T10:13:03.999Z</time>
      </trkpt>
      <trkpt lat="47.462" lon="6.72798">
        <ele>439</ele>
        <time>2016-12-18T10:13:04.999Z</time>
      </trkpt>
      <trkpt lat="47.46201" lon="6.72802">
        <ele>439</ele>
        <time>2016-12-18T10:13:05.999Z</time>
      </trkpt>
      <trkpt lat="47.46202" lon="6.72806">
        <ele>439</ele>
        <time>2016-12-18T10:13:06.999Z</time>
      </trkpt>
      <trkpt lat="47.46203" lon="6.7281">
        <ele>439</ele>
        <time>2016-12-18T10:13:07.999Z</time>
      </trkpt>
      <trkpt lat="47.46203" lon="6.72814">
        <ele>439</ele>
        <time>2016-12-18T10:13:08.999Z</time>
      </trkpt>
      <trkpt lat="47.46204" lon="6.72819">
        <ele>439</ele>
        <time>2016-12-18T10:13:09.999Z</time>
      </trkpt>
      <trkpt lat="47.46206" lon="6.72825">
        <ele>439</ele>
        <time>2016-12-18T10:13:10.999Z</time>
      </trkpt>
      <trkpt lat="47.46207" lon="6.7283">
        <ele>439</ele>
        <time>2016-12-18T10:13:11.999Z</time>
      </trkpt>
      <trkpt lat="47.46208" lon="6.72835">
        <ele>440</ele>
        <time>2016-12-18T10:13:12.999Z</time>
      </trkpt>
      <trkpt lat="47.4621" lon="6.7284">
        <ele>440</ele>
        <time>2016-12-18T10:13:13.999Z</time>
      </trkpt>
      <trkpt lat="47.46211" lon="6.72845">
        <ele>440</ele>
        <time>2016-12-18T10:13:14.999Z</time>
      </trkpt>
      <trkpt lat="47.46212" lon="6.72849">
        <ele>440</ele>
        <time>2016-12-18T10:13:15.999Z</time>
      </trkpt>
      <trkpt lat="47.46212" lon="6.72853">
        <ele>440</ele>
        <time>2016-12-18T10:13:16.999Z</time>
      </trkpt>
      <trkpt lat="47.46213" lon="6.72859">
        <ele>440</ele>
        <time>2016-12-18T10:13:17.999Z</time>
      </trkpt>
      <trkpt lat="47.46214" lon="6.72864">
        <ele>440</ele>
        <time>2016-12-18T10:13:18.999Z</time>
      </trkpt>
      <trkpt lat="47.46214" lon="6.72869">
        <ele>440</ele>
        <time>2016-12-18T10:13:19.999Z</time>
      </trkpt>
      <trkpt lat="47.46216" lon="6.72873">
        <ele>440</ele>
        <time>2016-12-18T10:13:20.999Z</time>
      </trkpt>
      <trkpt lat="47.46216" lon="6.72878">
        <ele>440</ele>
        <time>2016-12-18T10:13:21.999Z</time>
      </trkpt>
      <trkpt lat="47.46217" lon="6.72885">
        <ele>440</ele>
        <time>2016-12-18T10:13:22.999Z</time>
      </trkpt>
      <trkpt lat="47.46217" lon="6.7289">
        <ele>440</ele>
        <time>2016-12-18T10:13:23.999Z</time>
      </trkpt>
      <trkpt lat="47.46217" lon="6.72895">
        <ele>440</ele>
        <time>2016-12-18T10:13:24.999Z</time>
      </trkpt>
      <trkpt lat="47.46218" lon="6.72901">
        <ele>440</ele>
        <time>2016-12-18T10:13:25.999Z</time>
      </trkpt>
      <trkpt lat="47.46219" lon="6.72907">
        <ele>439</ele>
        <time>2016-12-18T10:13:26.999Z</time>
      </trkpt>
      <trkpt lat="47.46221" lon="6.72912">
        <ele>439</ele>
        <time>2016-12-18T10:13:27.999Z</time>
      </trkpt>
      <trkpt lat="47.46222" lon="6.72916">
        <ele>439</ele>
        <time>2016-12-18T10:13:28.999Z</time>
      </trkpt>
      <trkpt lat="47.46225" lon="6.72917">
        <ele>440</ele>
        <time>2016-12-18T10:13:29.999Z</time>
      </trkpt>
      <trkpt lat="47.46228" lon="6.72917">
        <ele>439</ele>
        <time>2016-12-18T10:13:30.999Z</time>
      </trkpt>
      <trkpt lat="47.46231" lon="6.72915">
        <ele>439</ele>
        <time>2016-12-18T10:13:31.999Z</time>
      </trkpt>
      <trkpt lat="47.46235" lon="6.72912">
        <ele>439</ele>
        <time>2016-12-18T10:13:32.999Z</time>
      </trkpt>
      <trkpt lat="47.46238" lon="6.72909">
        <ele>439</ele>
        <time>2016-12-18T10:13:33.999Z</time>
      </trkpt>
      <trkpt lat="47.46242" lon="6.72905">
        <ele>439</ele>
        <time>2016-12-18T10:13:34.999Z</time>
      </trkpt>
      <trkpt lat="47.46246" lon="6.729">
        <ele>439</ele>
        <time>2016-12-18T10:13:35.999Z</time>
      </trkpt>
      <trkpt lat="47.46249" lon="6.72896">
        <ele>439</ele>
        <time>2016-12-18T10:13:36.999Z</time>
      </trkpt>
      <trkpt lat="47.46253" lon="6.7289">
        <ele>435</ele>
        <time>2016-12-18T10:13:37.999Z</time>
      </trkpt>
      <trkpt lat="47.46257" lon="6.72886">
        <ele>435</ele>
        <time>2016-12-18T10:13:38.999Z</time>
      </trkpt>
      <trkpt lat="47.46262" lon="6.72881">
        <ele>435</ele>
        <time>2016-12-18T10:13:39.999Z</time>
      </trkpt>
      <trkpt lat="47.46267" lon="6.72876">
        <ele>435</ele>
        <time>2016-12-18T10:13:40.999Z</time>
      </trkpt>
      <trkpt lat="47.46272" lon="6.7287">
        <ele>434</ele>
        <time>2016-12-18T10:13:41.999Z</time>
      </trkpt>
      <trkpt lat="47.46278" lon="6.72865">
        <ele>434</ele>
        <time>2016-12-18T10:13:42.999Z</time>
      </trkpt>
      <trkpt lat="47.46282" lon="6.7286">
        <ele>434</ele>
        <time>2016-12-18T10:13:43.999Z</time>
      </trkpt>
      <trkpt lat="47.46285" lon="6.72856">
        <ele>433</ele>
        <time>2016-12-18T10:13:44.999Z</time>
      </trkpt>
      <trkpt lat="47.4629" lon="6.72852">
        <ele>433</ele>
        <time>2016-12-18T10:13:45.999Z</time>
      </trkpt>
      <trkpt lat="47.46294" lon="6.72849">
        <ele>433</ele>
        <time>2016-12-18T10:13:46.999Z</time>
      </trkpt>
      <trkpt lat="47.46298" lon="6.7285">
        <ele>432</ele>
        <time>2016-12-18T10:13:47.999Z</time>
      </trkpt>
      <trkpt lat="47.463" lon="6.72853">
        <ele>432</ele>
        <time>2016-12-18T10:13:48.999Z</time>
      </trkpt>
      <trkpt lat="47.46302" lon="6.72855">
        <ele>432</ele>
        <time>2016-12-18T10:13:49.999Z</time>
      </trkpt>
      <trkpt lat="47.46304" lon="6.72859">
        <ele>432</ele>
        <time>2016-12-18T10:13:50.999Z</time>
      </trkpt>
      <trkpt lat="47.46306" lon="6.72863">
        <ele>432</ele>
        <time>2016-12-18T10:13:51.999Z</time>
      </trkpt>
      <trkpt lat="47.46308" lon="6.72867">
        <ele>432</ele>
        <time>2016-12-18T10:13:52.999Z</time>
      </trkpt>
      <trkpt lat="47.46308" lon="6.7287">
        <ele>433</ele>
        <time>2016-12-18T10:13:53.999Z</time>
      </trkpt>
      <trkpt lat="47.46309" lon="6.72874">
        <ele>433</ele>
        <time>2016-12-18T10:13:54.999Z</time>
      </trkpt>
      <trkpt lat="47.4631" lon="6.72879">
        <ele>433</ele>
        <time>2016-12-18T10:13:55.999Z</time>
      </trkpt>
      <trkpt lat="47.46312" lon="6.72883">
        <ele>433</ele>
        <time>2016-12-18T10:13:56.999Z</time>
      </trkpt>
      <trkpt lat="47.46312" lon="6.72887">
        <ele>433</ele>
        <time>2016-12-18T10:13:57.999Z</time>
      </trkpt>
      <trkpt lat="47.46313" lon="6.72891">
        <ele>433</ele>
        <time>2016-12-18T10:13:58.999Z</time>
      </trkpt>
      <trkpt lat="47.46315" lon="6.72896">
        <ele>433</ele>
        <time>2016-12-18T10:13:59.999Z</time>
      </trkpt>
      <trkpt lat="47.46316" lon="6.729">
        <ele>433</ele>
        <time>2016-12-18T10:14:00.999Z</time>
      </trkpt>
      <trkpt lat="47.46317" lon="6.72906">
        <ele>433</ele>
        <time>2016-12-18T10:14:01.999Z</time>
      </trkpt>
      <trkpt lat="47.46317" lon="6.7291">
        <ele>433</ele>
        <time>2016-12-18T10:14:02.999Z</time>
      </trkpt>
      <trkpt lat="47.46318" lon="6.72915">
        <ele>433</ele>
        <time>2016-12-18T10:14:03.999Z</time>
      </trkpt>
      <trkpt lat="47.46319" lon="6.7292">
        <ele>434</ele>
        <time>2016-12-18T10:14:04.999Z</time>
      </trkpt>
      <trkpt lat="47.4632" lon="6.72926">
        <ele>435</ele>
        <time>2016-12-18T10:14:05.999Z</time>
      </trkpt>
      <trkpt lat="47.46321" lon="6.72931">
        <ele>435</ele>
        <time>2016-12-18T10:14:06.999Z</time>
      </trkpt>
      <trkpt lat="47.46322" lon="6.72935">
        <ele>435</ele>
        <time>2016-12-18T10:14:07.999Z</time>
      </trkpt>
      <trkpt lat="47.46322" lon="6.72939">
        <ele>435</ele>
        <time>2016-12-18T10:14:08.999Z</time>
      </trkpt>
      <trkpt lat="47.46323" lon="6.72943">
        <ele>435</ele>
        <time>2016-12-18T10:14:09.999Z</time>
      </trkpt>
      <trkpt lat="47.46323" lon="6.72948">
        <ele>435</ele>
        <time>2016-12-18T10:14:10.999Z</time>
      </trkpt>
      <trkpt lat="47.46324" lon="6.72954">
        <ele>435</ele>
        <time>2016-12-18T10:14:11.999Z</time>
      </trkpt>
      <trkpt lat="47.46324" lon="6.72959">
        <ele>436</ele>
        <time>2016-12-18T10:14:12.999Z</time>
      </trkpt>
      <trkpt lat="47.46324" lon="6.72965">
        <ele>436</ele>
        <time>2016-12-18T10:14:13.999Z</time>
      </trkpt>
      <trkpt lat="47.46324" lon="6.72969">
        <ele>436</ele>
        <time>2016-12-18T10:14:14.999Z</time>
      </trkpt>
      <trkpt lat="47.46324" lon="6.72974">
        <ele>436</ele>
        <time>2016-12-18T10:14:15.999Z</time>
      </trkpt>
      <trkpt lat="47.46324" lon="6.72979">
        <ele>436</ele>
        <time>2016-12-18T10:14:16.999Z</time>
      </trkpt>
      <trkpt lat="47.46324" lon="6.72983">
        <ele>436</ele>
        <time>2016-12-18T10:14:17.999Z</time>
      </trkpt>
      <trkpt lat="47.46325" lon="6.72987">
        <ele>436</ele>
        <time>2016-12-18T10:14:18.999Z</time>
      </trkpt>
      <trkpt lat="47.46325" lon="6.72991">
        <ele>435</ele>
        <time>2016-12-18T10:14:19.999Z</time>
      </trkpt>
      <trkpt lat="47.46325" lon="6.72995">
        <ele>435</ele>
        <time>2016-12-18T10:14:20.999Z</time>
      </trkpt>
      <trkpt lat="47.46325" lon="6.72999">
        <ele>435</ele>
        <time>2016-12-18T10:14:21.999Z</time>
      </trkpt>
      <trkpt lat="47.46325" lon="6.73005">
        <ele>436</ele>
        <time>2016-12-18T10:14:22.999Z</time>
      </trkpt>
      <trkpt lat="47.46324" lon="6.73012">
        <ele>436</ele>
        <time>2016-12-18T10:14:23.999Z</time>
      </trkpt>
      <trkpt lat="47.46324" lon="6.73018">
        <ele>436</ele>
        <time>2016-12-18T10:14:24.999Z</time>
      </trkpt>
      <trkpt lat="47.46323" lon="6.73023">
        <ele>436</ele>
        <time>2016-12-18T10:14:25.999Z</time>
      </trkpt>
      <trkpt lat="47.46323" lon="6.73028">
        <ele>436</ele>
        <time>2016-12-18T10:14:26.999Z</time>
      </trkpt>
      <trkpt lat="47.46323" lon="6.73033">
        <ele>436</ele>
        <time>2016-12-18T10:14:27.999Z</time>
      </trkpt>
      <trkpt lat="47.46323" lon="6.73037">
        <ele>436</ele>
        <time>2016-12-18T10:14:28.999Z</time>
      </trkpt>
      <trkpt lat="47.46323" lon="6.73043">
        <ele>436</ele>
        <time>2016-12-18T10:14:29.999Z</time>
      </trkpt>
      <trkpt lat="47.46323" lon="6.73048">
        <ele>436</ele>
        <time>2016-12-18T10:14:30.999Z</time>
      </trkpt>
      <trkpt lat="47.46323" lon="6.73053">
        <ele>436</ele>
        <time>2016-12-18T10:14:31.999Z</time>
      </trkpt>
      <trkpt lat="47.46324" lon="6.73059">
        <ele>436</ele>
        <time>2016-12-18T10:14:32.999Z</time>
      </trkpt>
      <trkpt lat="47.46324" lon="6.73064">
        <ele>435</ele>
        <time>2016-12-18T10:14:33.999Z</time>
      </trkpt>
      <trkpt lat="47.46323" lon="6.73068">
        <ele>435</ele>
        <time>2016-12-18T10:14:34.999Z</time>
      </trkpt>
      <trkpt lat="47.46323" lon="6.73073">
        <ele>435</ele>
        <time>2016-12-18T10:14:35.999Z</time>
      </trkpt>
      <trkpt lat="47.46323" lon="6.73078">
        <ele>435</ele>
        <time>2016-12-18T10:14:36.999Z</time>
      </trkpt>
      <trkpt lat="47.46323" lon="6.73083">
        <ele>435</ele>
        <time>2016-12-18T10:14:37.999Z</time>
      </trkpt>
      <trkpt lat="47.46323" lon="6.73087">
        <ele>435</ele>
        <time>2016-12-18T10:14:38.999Z</time>
      </trkpt>
      <trkpt lat="47.46323" lon="6.73094">
        <ele>435</ele>
        <time>2016-12-18T10:14:39.999Z</time>
      </trkpt>
      <trkpt lat="47.46323" lon="6.73098">
        <ele>435</ele>
        <time>2016-12-18T10:14:40.999Z</time>
      </trkpt>
      <trkpt lat="47.46323" lon="6.73104">
        <ele>435</ele>
        <time>2016-12-18T10:14:41.999Z</time>
      </trkpt>
      <trkpt lat="47.46322" lon="6.7311">
        <ele>435</ele>
        <time>2016-12-18T10:14:42.999Z</time>
      </trkpt>
      <trkpt lat="47.46322" lon="6.73117">
        <ele>435</ele>
        <time>2016-12-18T10:14:43.999Z</time>
      </trkpt>
      <trkpt lat="47.46321" lon="6.73123">
        <ele>435</ele>
        <time>2016-12-18T10:14:44.999Z</time>
      </trkpt>
      <trkpt lat="47.46321" lon="6.73129">
        <ele>435</ele>
        <time>2016-12-18T10:14:45.999Z</time>
      </trkpt>
      <trkpt lat="47.46321" lon="6.73136">
        <ele>435</ele>
        <time>2016-12-18T10:14:46.999Z</time>
      </trkpt>
      <trkpt lat="47.46321" lon="6.73143">
        <ele>435</ele>
        <time>2016-12-18T10:14:47.999Z</time>
      </trkpt>
      <trkpt lat="47.46321" lon="6.7315">
        <ele>435</ele>
        <time>2016-12-18T10:14:48.999Z</time>
      </trkpt>
      <trkpt lat="47.46321" lon="6.73159">
        <ele>435</ele>
        <time>2016-12-18T10:14:49.999Z</time>
      </trkpt>
      <trkpt lat="47.46321" lon="6.73167">
        <ele>435</ele>
        <time>2016-12-18T10:14:50.999Z</time>
      </trkpt>
      <trkpt lat="47.46321" lon="6.73175">
        <ele>434</ele>
        <time>2016-12-18T10:14:51.999Z</time>
      </trkpt>
      <trkpt lat="47.46321" lon="6.73184">
        <ele>434</ele>
        <time>2016-12-18T10:14:52.999Z</time>
      </trkpt>
      <trkpt lat="47.46321" lon="6.73193">
        <ele>434</ele>
        <time>2016-12-18T10:14:53.999Z</time>
      </trkpt>
      <trkpt lat="47.46321" lon="6.732">
        <ele>434</ele>
        <time>2016-12-18T10:14:54.999Z</time>
      </trkpt>
      <trkpt lat="47.46321" lon="6.73206">
        <ele>434</ele>
        <time>2016-12-18T10:14:55.999Z</time>
      </trkpt>
      <trkpt lat="47.46321" lon="6.73213">
        <ele>434</ele>
        <time>2016-12-18T10:14:56.999Z</time>
      </trkpt>
      <trkpt lat="47.46321" lon="6.7322">
        <ele>433</ele>
        <time>2016-12-18T10:14:57.999Z</time>
      </trkpt>
      <trkpt lat="47.46321" lon="6.73227">
        <ele>433</ele>
        <time>2016-12-18T10:14:58.999Z</time>
      </trkpt>
      <trkpt lat="47.46321" lon="6.73235">
        <ele>433</ele>
        <time>2016-12-18T10:14:59.999Z</time>
      </trkpt>
      <trkpt lat="47.46321" lon="6.73243">
        <ele>433</ele>
        <time>2016-12-18T10:15:00.999Z</time>
      </trkpt>
      <trkpt lat="47.46321" lon="6.73251">
        <ele>432</ele>
        <time>2016-12-18T10:15:01.999Z</time>
      </trkpt>
      <trkpt lat="47.46321" lon="6.7326">
        <ele>431</ele>
        <time>2016-12-18T10:15:02.999Z</time>
      </trkpt>
      <trkpt lat="47.4632" lon="6.73269">
        <ele>431</ele>
        <time>2016-12-18T10:15:03.999Z</time>
      </trkpt>
      <trkpt lat="47.4632" lon="6.73277">
        <ele>431</ele>
        <time>2016-12-18T10:15:04.999Z</time>
      </trkpt>
      <trkpt lat="47.4632" lon="6.73285">
        <ele>431</ele>
        <time>2016-12-18T10:15:05.999Z</time>
      </trkpt>
      <trkpt lat="47.4632" lon="6.73293">
        <ele>430</ele>
        <time>2016-12-18T10:15:06.999Z</time>
      </trkpt>
      <trkpt lat="47.4632" lon="6.73301">
        <ele>430</ele>
        <time>2016-12-18T10:15:07.999Z</time>
      </trkpt>
      <trkpt lat="47.46319" lon="6.73309">
        <ele>430</ele>
        <time>2016-12-18T10:15:08.999Z</time>
      </trkpt>
      <trkpt lat="47.4632" lon="6.73318">
        <ele>429</ele>
        <time>2016-12-18T10:15:09.999Z</time>
      </trkpt>
      <trkpt lat="47.4632" lon="6.73325">
        <ele>429</ele>
        <time>2016-12-18T10:15:10.999Z</time>
      </trkpt>
      <trkpt lat="47.4632" lon="6.73333">
        <ele>429</ele>
        <time>2016-12-18T10:15:11.999Z</time>
      </trkpt>
      <trkpt lat="47.4632" lon="6.7334">
        <ele>428</ele>
        <time>2016-12-18T10:15:12.999Z</time>
      </trkpt>
      <trkpt lat="47.46319" lon="6.73347">
        <ele>428</ele>
        <time>2016-12-18T10:15:13.999Z</time>
      </trkpt>
      <trkpt lat="47.46319" lon="6.73353">
        <ele>428</ele>
        <time>2016-12-18T10:15:14.999Z</time>
      </trkpt>
      <trkpt lat="47.46319" lon="6.73359">
        <ele>428</ele>
        <time>2016-12-18T10:15:15.999Z</time>
      </trkpt>
      <trkpt lat="47.46319" lon="6.73366">
        <ele>428</ele>
        <time>2016-12-18T10:15:16.999Z</time>
      </trkpt>
      <trkpt lat="47.46319" lon="6.73371">
        <ele>428</ele>
        <time>2016-12-18T10:15:17.999Z</time>
      </trkpt>
      <trkpt lat="47.46319" lon="6.73377">
        <ele>428</ele>
        <time>2016-12-18T10:15:18.999Z</time>
      </trkpt>
      <trkpt lat="47.4632" lon="6.73382">
        <ele>427</ele>
        <time>2016-12-18T10:15:19.999Z</time>
      </trkpt>
      <trkpt lat="47.4632" lon="6.73387">
        <ele>427</ele>
        <time>2016-12-18T10:15:20.999Z</time>
      </trkpt>
      <trkpt lat="47.4632" lon="6.73393">
        <ele>427</ele>
        <time>2016-12-18T10:15:21.999Z</time>
      </trkpt>
      <trkpt lat="47.4632" lon="6.73399">
        <ele>427</ele>
        <time>2016-12-18T10:15:22.999Z</time>
      </trkpt>
      <trkpt lat="47.4632" lon="6.73405">
        <ele>427</ele>
        <time>2016-12-18T10:15:23.999Z</time>
      </trkpt>
      <trkpt lat="47.4632" lon="6.73412">
        <ele>426</ele>
        <time>2016-12-18T10:15:24.999Z</time>
      </trkpt>
      <trkpt lat="47.4632" lon="6.73419">
        <ele>426</ele>
        <time>2016-12-18T10:15:25.999Z</time>
      </trkpt>
      <trkpt lat="47.4632" lon="6.73426">
        <ele>426</ele>
        <time>2016-12-18T10:15:26.999Z</time>
      </trkpt>
      <trkpt lat="47.46319" lon="6.73433">
        <ele>426</ele>
        <time>2016-12-18T10:15:27.999Z</time>
      </trkpt>
      <trkpt lat="47.46319" lon="6.73439">
        <ele>426</ele>
        <time>2016-12-18T10:15:28.999Z</time>
      </trkpt>
      <trkpt lat="47.46319" lon="6.73444">
        <ele>426</ele>
        <time>2016-12-18T10:15:29.999Z</time>
      </trkpt>
      <trkpt lat="47.4632" lon="6.73449">
        <ele>426</ele>
        <time>2016-12-18T10:15:30.999Z</time>
      </trkpt>
      <trkpt lat="47.46319" lon="6.73454">
        <ele>426</ele>
        <time>2016-12-18T10:15:31.999Z</time>
      </trkpt>
      <trkpt lat="47.46319" lon="6.73459">
        <ele>426</ele>
        <time>2016-12-18T10:15:32.999Z</time>
      </trkpt>
      <trkpt lat="47.4632" lon="6.73465">
        <ele>426</ele>
        <time>2016-12-18T10:15:33.999Z</time>
      </trkpt>
      <trkpt lat="47.4632" lon="6.73471">
        <ele>426</ele>
        <time>2016-12-18T10:15:34.999Z</time>
      </trkpt>
      <trkpt lat="47.4632" lon="6.73476">
        <ele>426</ele>
        <time>2016-12-18T10:15:35.999Z</time>
      </trkpt>
      <trkpt lat="47.4632" lon="6.73481">
        <ele>426</ele>
        <time>2016-12-18T10:15:36.999Z</time>
      </trkpt>
      <trkpt lat="47.46321" lon="6.73487">
        <ele>426</ele>
        <time>2016-12-18T10:15:37.999Z</time>
      </trkpt>
      <trkpt lat="47.4632" lon="6.73494">
        <ele>426</ele>
        <time>2016-12-18T10:15:38.999Z</time>
      </trkpt>
      <trkpt lat="47.4632" lon="6.735">
        <ele>425</ele>
        <time>2016-12-18T10:15:39.999Z</time>
      </trkpt>
      <trkpt lat="47.4632" lon="6.73506">
        <ele>425</ele>
        <time>2016-12-18T10:15:40.999Z</time>
      </trkpt>
      <trkpt lat="47.4632" lon="6.7351">
        <ele>425</ele>
        <time>2016-12-18T10:15:41.999Z</time>
      </trkpt>
      <trkpt lat="47.4632" lon="6.73516">
        <ele>425</ele>
        <time>2016-12-18T10:15:42.999Z</time>
      </trkpt>
      <trkpt lat="47.46321" lon="6.73522">
        <ele>425</ele>
        <time>2016-12-18T10:15:43.999Z</time>
      </trkpt>
      <trkpt lat="47.46321" lon="6.7353">
        <ele>425</ele>
        <time>2016-12-18T10:15:44.999Z</time>
      </trkpt>
      <trkpt lat="47.46321" lon="6.73538">
        <ele>425</ele>
        <time>2016-12-18T10:15:45.999Z</time>
      </trkpt>
      <trkpt lat="47.46321" lon="6.73544">
        <ele>425</ele>
        <time>2016-12-18T10:15:46.999Z</time>
      </trkpt>
      <trkpt lat="47.4632" lon="6.73551">
        <ele>425</ele>
        <time>2016-12-18T10:15:47.999Z</time>
      </trkpt>
      <trkpt lat="47.4632" lon="6.73558">
        <ele>425</ele>
        <time>2016-12-18T10:15:48.999Z</time>
      </trkpt>
      <trkpt lat="47.4632" lon="6.73565">
        <ele>425</ele>
        <time>2016-12-18T10:15:49.999Z</time>
      </trkpt>
      <trkpt lat="47.46319" lon="6.73573">
        <ele>425</ele>
        <time>2016-12-18T10:15:50.999Z</time>
      </trkpt>
      <trkpt lat="47.46319" lon="6.73581">
        <ele>425</ele>
        <time>2016-12-18T10:15:51.999Z</time>
      </trkpt>
      <trkpt lat="47.46318" lon="6.73589">
        <ele>424</ele>
        <time>2016-12-18T10:15:52.999Z</time>
      </trkpt>
      <trkpt lat="47.46316" lon="6.73596">
        <ele>424</ele>
        <time>2016-12-18T10:15:53.999Z</time>
      </trkpt>
      <trkpt lat="47.46314" lon="6.73604">
        <ele>424</ele>
        <time>2016-12-18T10:15:54.999Z</time>
      </trkpt>
      <trkpt lat="47.46313" lon="6.7361">
        <ele>423</ele>
        <time>2016-12-18T10:15:55.999Z</time>
      </trkpt>
      <trkpt lat="47.46311" lon="6.73619">
        <ele>423</ele>
        <time>2016-12-18T10:15:56.999Z</time>
      </trkpt>
      <trkpt lat="47.4631" lon="6.73625">
        <ele>423</ele>
        <time>2016-12-18T10:15:57.999Z</time>
      </trkpt>
      <trkpt lat="47.46309" lon="6.73633">
        <ele>423</ele>
        <time>2016-12-18T10:15:58.999Z</time>
      </trkpt>
      <trkpt lat="47.46307" lon="6.73639">
        <ele>423</ele>
        <time>2016-12-18T10:15:59.999Z</time>
      </trkpt>
      <trkpt lat="47.46304" lon="6.73647">
        <ele>423</ele>
        <time>2016-12-18T10:16:00.999Z</time>
      </trkpt>
      <trkpt lat="47.46303" lon="6.73655">
        <ele>423</ele>
        <time>2016-12-18T10:16:01.999Z</time>
      </trkpt>
      <trkpt lat="47.46302" lon="6.73663">
        <ele>423</ele>
        <time>2016-12-18T10:16:02.999Z</time>
      </trkpt>
      <trkpt lat="47.46301" lon="6.7367">
        <ele>421</ele>
        <time>2016-12-18T10:16:03.999Z</time>
      </trkpt>
      <trkpt lat="47.463" lon="6.73679">
        <ele>421</ele>
        <time>2016-12-18T10:16:04.999Z</time>
      </trkpt>
      <trkpt lat="47.46298" lon="6.73685">
        <ele>420</ele>
        <time>2016-12-18T10:16:05.999Z</time>
      </trkpt>
      <trkpt lat="47.46296" lon="6.73692">
        <ele>420</ele>
        <time>2016-12-18T10:16:06.999Z</time>
      </trkpt>
      <trkpt lat="47.46294" lon="6.73697">
        <ele>420</ele>
        <time>2016-12-18T10:16:07.999Z</time>
      </trkpt>
      <trkpt lat="47.46291" lon="6.73703">
        <ele>420</ele>
        <time>2016-12-18T10:16:08.999Z</time>
      </trkpt>
      <trkpt lat="47.46289" lon="6.73708">
        <ele>420</ele>
        <time>2016-12-18T10:16:09.999Z</time>
      </trkpt>
      <trkpt lat="47.46286" lon="6.73714">
        <ele>420</ele>
        <time>2016-12-18T10:16:10.999Z</time>
      </trkpt>
      <trkpt lat="47.46282" lon="6.73716">
        <ele>420</ele>
        <time>2016-12-18T10:16:11.999Z</time>
      </trkpt>
      <trkpt lat="47.46278" lon="6.73715">
        <ele>420</ele>
        <time>2016-12-18T10:16:12.999Z</time>
      </trkpt>
      <trkpt lat="47.46274" lon="6.73714">
        <ele>420</ele>
        <time>2016-12-18T10:16:13.999Z</time>
      </trkpt>
      <trkpt lat="47.46269" lon="6.73715">
        <ele>420</ele>
        <time>2016-12-18T10:16:14.999Z</time>
      </trkpt>
      <trkpt lat="47.46266" lon="6.73714">
        <ele>420</ele>
        <time>2016-12-18T10:16:15.999Z</time>
      </trkpt>
      <trkpt lat="47.46261" lon="6.73713">
        <ele>420</ele>
        <time>2016-12-18T10:16:16.999Z</time>
      </trkpt>
      <trkpt lat="47.46258" lon="6.73713">
        <ele>420</ele>
        <time>2016-12-18T10:16:17.999Z</time>
      </trkpt>
      <trkpt lat="47.46253" lon="6.73712">
        <ele>420</ele>
        <time>2016-12-18T10:16:18.999Z</time>
      </trkpt>
      <trkpt lat="47.46249" lon="6.73712">
        <ele>421</ele>
        <time>2016-12-18T10:16:19.999Z</time>
      </trkpt>
      <trkpt lat="47.46245" lon="6.73712">
        <ele>421</ele>
        <time>2016-12-18T10:16:20.999Z</time>
      </trkpt>
      <trkpt lat="47.46242" lon="6.73711">
        <ele>421</ele>
        <time>2016-12-18T10:16:21.999Z</time>
      </trkpt>
      <trkpt lat="47.46238" lon="6.73711">
        <ele>421</ele>
        <time>2016-12-18T10:16:22.999Z</time>
      </trkpt>
      <trkpt lat="47.46234" lon="6.7371">
        <ele>421</ele>
        <time>2016-12-18T10:16:23.999Z</time>
      </trkpt>
      <trkpt lat="47.4623" lon="6.7371">
        <ele>421</ele>
        <time>2016-12-18T10:16:24.999Z</time>
      </trkpt>
      <trkpt lat="47.46225" lon="6.7371">
        <ele>421</ele>
        <time>2016-12-18T10:16:25.999Z</time>
      </trkpt>
      <trkpt lat="47.46221" lon="6.7371">
        <ele>421</ele>
        <time>2016-12-18T10:16:26.999Z</time>
      </trkpt>
      <trkpt lat="47.46217" lon="6.73709">
        <ele>421</ele>
        <time>2016-12-18T10:16:27.999Z</time>
      </trkpt>
      <trkpt lat="47.46213" lon="6.73708">
        <ele>421</ele>
        <time>2016-12-18T10:16:28.999Z</time>
      </trkpt>
      <trkpt lat="47.46209" lon="6.73708">
        <ele>421</ele>
        <time>2016-12-18T10:16:29.999Z</time>
      </trkpt>
      <trkpt lat="47.46206" lon="6.73707">
        <ele>422</ele>
        <time>2016-12-18T10:16:30.999Z</time>
      </trkpt>
      <trkpt lat="47.46202" lon="6.73707">
        <ele>422</ele>
        <time>2016-12-18T10:16:31.999Z</time>
      </trkpt>
      <trkpt lat="47.46199" lon="6.73707">
        <ele>422</ele>
        <time>2016-12-18T10:16:32.999Z</time>
      </trkpt>
      <trkpt lat="47.46194" lon="6.73706">
        <ele>422</ele>
        <time>2016-12-18T10:16:33.999Z</time>
      </trkpt>
      <trkpt lat="47.4619" lon="6.73707">
        <ele>422</ele>
        <time>2016-12-18T10:16:34.999Z</time>
      </trkpt>
      <trkpt lat="47.46187" lon="6.73707">
        <ele>422</ele>
        <time>2016-12-18T10:16:35.999Z</time>
      </trkpt>
      <trkpt lat="47.46182" lon="6.73707">
        <ele>422</ele>
        <time>2016-12-18T10:16:36.999Z</time>
      </trkpt>
      <trkpt lat="47.4618" lon="6.73706">
        <ele>422</ele>
        <time>2016-12-18T10:16:37.999Z</time>
      </trkpt>
      <trkpt lat="47.46175" lon="6.73705">
        <ele>422</ele>
        <time>2016-12-18T10:16:38.999Z</time>
      </trkpt>
      <trkpt lat="47.46172" lon="6.73705">
        <ele>422</ele>
        <time>2016-12-18T10:16:39.999Z</time>
      </trkpt>
      <trkpt lat="47.46169" lon="6.73704">
        <ele>422</ele>
        <time>2016-12-18T10:16:40.999Z</time>
      </trkpt>
      <trkpt lat="47.46166" lon="6.73702">
        <ele>426</ele>
        <time>2016-12-18T10:16:41.999Z</time>
      </trkpt>
      <trkpt lat="47.46162" lon="6.73701">
        <ele>426</ele>
        <time>2016-12-18T10:16:42.999Z</time>
      </trkpt>
      <trkpt lat="47.46158" lon="6.73699">
        <ele>426</ele>
        <time>2016-12-18T10:16:43.999Z</time>
      </trkpt>
      <trkpt lat="47.46154" lon="6.73698">
        <ele>426</ele>
        <time>2016-12-18T10:16:44.999Z</time>
      </trkpt>
      <trkpt lat="47.4615" lon="6.73695">
        <ele>426</ele>
        <time>2016-12-18T10:16:45.999Z</time>
      </trkpt>
      <trkpt lat="47.46148" lon="6.73694">
        <ele>426</ele>
        <time>2016-12-18T10:16:46.999Z</time>
      </trkpt>
      <trkpt lat="47.46144" lon="6.73691">
        <ele>426</ele>
        <time>2016-12-18T10:16:47.999Z</time>
      </trkpt>
      <trkpt lat="47.46141" lon="6.73688">
        <ele>426</ele>
        <time>2016-12-18T10:16:48.999Z</time>
      </trkpt>
      <trkpt lat="47.46138" lon="6.73686">
        <ele>427</ele>
        <time>2016-12-18T10:16:49.999Z</time>
      </trkpt>
      <trkpt lat="47.46136" lon="6.73684">
        <ele>427</ele>
        <time>2016-12-18T10:16:50.999Z</time>
      </trkpt>
      <trkpt lat="47.46134" lon="6.73681">
        <ele>427</ele>
        <time>2016-12-18T10:16:51.999Z</time>
      </trkpt>
      <trkpt lat="47.46132" lon="6.73678">
        <ele>427</ele>
        <time>2016-12-18T10:16:52.999Z</time>
      </trkpt>
      <trkpt lat="47.4613" lon="6.73676">
        <ele>427</ele>
        <time>2016-12-18T10:16:53.999Z</time>
      </trkpt>
      <trkpt lat="47.46127" lon="6.73674">
        <ele>427</ele>
        <time>2016-12-18T10:16:54.999Z</time>
      </trkpt>
      <trkpt lat="47.46124" lon="6.73671">
        <ele>428</ele>
        <time>2016-12-18T10:16:55.999Z</time>
      </trkpt>
      <trkpt lat="47.46122" lon="6.73669">
        <ele>428</ele>
        <time>2016-12-18T10:16:56.999Z</time>
      </trkpt>
      <trkpt lat="47.46119" lon="6.73667">
        <ele>429</ele>
        <time>2016-12-18T10:16:57.999Z</time>
      </trkpt>
      <trkpt lat="47.46117" lon="6.73663">
        <ele>429</ele>
        <time>2016-12-18T10:16:58.999Z</time>
      </trkpt>
      <trkpt lat="47.46114" lon="6.73661">
        <ele>429</ele>
        <time>2016-12-18T10:16:59.999Z</time>
      </trkpt>
      <trkpt lat="47.46112" lon="6.73657">
        <ele>429</ele>
        <time>2016-12-18T10:17:00.999Z</time>
      </trkpt>
      <trkpt lat="47.4611" lon="6.73655">
        <ele>430</ele>
        <time>2016-12-18T10:17:01.999Z</time>
      </trkpt>
      <trkpt lat="47.46107" lon="6.73653">
        <ele>430</ele>
        <time>2016-12-18T10:17:02.999Z</time>
      </trkpt>
      <trkpt lat="47.46104" lon="6.73651">
        <ele>430</ele>
        <time>2016-12-18T10:17:03.999Z</time>
      </trkpt>
      <trkpt lat="47.461" lon="6.73649">
        <ele>430</ele>
        <time>2016-12-18T10:17:04.999Z</time>
      </trkpt>
      <trkpt lat="47.46098" lon="6.73647">
        <ele>430</ele>
        <time>2016-12-18T10:17:05.999Z</time>
      </trkpt>
      <trkpt lat="47.46095" lon="6.73645">
        <ele>430</ele>
        <time>2016-12-18T10:17:06.999Z</time>
      </trkpt>
      <trkpt lat="47.46092" lon="6.73642">
        <ele>430</ele>
        <time>2016-12-18T10:17:07.999Z</time>
      </trkpt>
      <trkpt lat="47.46089" lon="6.7364">
        <ele>430</ele>
        <time>2016-12-18T10:17:08.999Z</time>
      </trkpt>
      <trkpt lat="47.46086" lon="6.73637">
        <ele>430</ele>
        <time>2016-12-18T10:17:09.999Z</time>
      </trkpt>
      <trkpt lat="47.46081" lon="6.73634">
        <ele>434</ele>
        <time>2016-12-18T10:17:10.999Z</time>
      </trkpt>
      <trkpt lat="47.46078" lon="6.73632">
        <ele>434</ele>
        <time>2016-12-18T10:17:11.999Z</time>
      </trkpt>
      <trkpt lat="47.46075" lon="6.73629">
        <ele>434</ele>
        <time>2016-12-18T10:17:12.999Z</time>
      </trkpt>
      <trkpt lat="47.46072" lon="6.73627">
        <ele>434</ele>
        <time>2016-12-18T10:17:13.999Z</time>
      </trkpt>
      <trkpt lat="47.4607" lon="6.73625">
        <ele>434</ele>
        <time>2016-12-18T10:17:14.999Z</time>
      </trkpt>
      <trkpt lat="47.46067" lon="6.73623">
        <ele>434</ele>
        <time>2016-12-18T10:17:15.999Z</time>
      </trkpt>
      <trkpt lat="47.46065" lon="6.73621">
        <ele>434</ele>
        <time>2016-12-18T10:17:16.999Z</time>
      </trkpt>
      <trkpt lat="47.46062" lon="6.73619">
        <ele>434</ele>
        <time>2016-12-18T10:17:17.999Z</time>
      </trkpt>
      <trkpt lat="47.46059" lon="6.73618">
        <ele>434</ele>
        <time>2016-12-18T10:17:18.999Z</time>
      </trkpt>
      <trkpt lat="47.46057" lon="6.73616">
        <ele>434</ele>
        <time>2016-12-18T10:17:19.999Z</time>
      </trkpt>
      <trkpt lat="47.46055" lon="6.73613">
        <ele>434</ele>
        <time>2016-12-18T10:17:20.999Z</time>
      </trkpt>
      <trkpt lat="47.46052" lon="6.73611">
        <ele>434</ele>
        <time>2016-12-18T10:17:21.999Z</time>
      </trkpt>
      <trkpt lat="47.4605" lon="6.7361">
        <ele>434</ele>
        <time>2016-12-18T10:17:22.999Z</time>
      </trkpt>
      <trkpt lat="47.46047" lon="6.73608">
        <ele>434</ele>
        <time>2016-12-18T10:17:23.999Z</time>
      </trkpt>
      <trkpt lat="47.46044" lon="6.73606">
        <ele>434</ele>
        <time>2016-12-18T10:17:24.999Z</time>
      </trkpt>
      <trkpt lat="47.46041" lon="6.73605">
        <ele>434</ele>
        <time>2016-12-18T10:17:25.999Z</time>
      </trkpt>
      <trkpt lat="47.46038" lon="6.73604">
        <ele>434</ele>
        <time>2016-12-18T10:17:26.999Z</time>
      </trkpt>
      <trkpt lat="47.46034" lon="6.73603">
        <ele>434</ele>
        <time>2016-12-18T10:17:27.999Z</time>
      </trkpt>
      <trkpt lat="47.46032" lon="6.73603">
        <ele>434</ele>
        <time>2016-12-18T10:17:28.999Z</time>
      </trkpt>
      <trkpt lat="47.46029" lon="6.73603">
        <ele>435</ele>
        <time>2016-12-18T10:17:29.999Z</time>
      </trkpt>
      <trkpt lat="47.46025" lon="6.73603">
        <ele>435</ele>
        <time>2016-12-18T10:17:30.999Z</time>
      </trkpt>
      <trkpt lat="47.46022" lon="6.73603">
        <ele>435</ele>
        <time>2016-12-18T10:17:31.999Z</time>
      </trkpt>
      <trkpt lat="47.46018" lon="6.73603">
        <ele>435</ele>
        <time>2016-12-18T10:17:32.999Z</time>
      </trkpt>
      <trkpt lat="47.46015" lon="6.73604">
        <ele>435</ele>
        <time>2016-12-18T10:17:33.999Z</time>
      </trkpt>
      <trkpt lat="47.46012" lon="6.73604">
        <ele>435</ele>
        <time>2016-12-18T10:17:34.999Z</time>
      </trkpt>
      <trkpt lat="47.46009" lon="6.73605">
        <ele>435</ele>
        <time>2016-12-18T10:17:35.999Z</time>
      </trkpt>
      <trkpt lat="47.46006" lon="6.73607">
        <ele>435</ele>
        <time>2016-12-18T10:17:36.999Z</time>
      </trkpt>
      <trkpt lat="47.46003" lon="6.73609">
        <ele>435</ele>
        <time>2016-12-18T10:17:38.999Z</time>
      </trkpt>
      <trkpt lat="47.46" lon="6.73611">
        <ele>435</ele>
        <time>2016-12-18T10:17:39.999Z</time>
      </trkpt>
      <trkpt lat="47.45996" lon="6.73613">
        <ele>438</ele>
        <time>2016-12-18T10:17:41.999Z</time>
      </trkpt>
      <trkpt lat="47.45993" lon="6.73614">
        <ele>438</ele>
        <time>2016-12-18T10:17:42.999Z</time>
      </trkpt>
      <trkpt lat="47.4599" lon="6.73614">
        <ele>438</ele>
        <time>2016-12-18T10:17:43.999Z</time>
      </trkpt>
      <trkpt lat="47.45988" lon="6.73614">
        <ele>438</ele>
        <time>2016-12-18T10:17:44.999Z</time>
      </trkpt>
      <trkpt lat="47.45984" lon="6.73614">
        <ele>438</ele>
        <time>2016-12-18T10:17:45.999Z</time>
      </trkpt>
      <trkpt lat="47.45982" lon="6.73614">
        <ele>438</ele>
        <time>2016-12-18T10:17:46.999Z</time>
      </trkpt>
      <trkpt lat="47.45979" lon="6.73614">
        <ele>438</ele>
        <time>2016-12-18T10:17:47.999Z</time>
      </trkpt>
      <trkpt lat="47.45977" lon="6.73614">
        <ele>438</ele>
        <time>2016-12-18T10:17:48.999Z</time>
      </trkpt>
      <trkpt lat="47.45975" lon="6.73614">
        <ele>438</ele>
        <time>2016-12-18T10:17:49.999Z</time>
      </trkpt>
      <trkpt lat="47.45971" lon="6.73614">
        <ele>438</ele>
        <time>2016-12-18T10:17:50.999Z</time>
      </trkpt>
      <trkpt lat="47.45968" lon="6.73615">
        <ele>438</ele>
        <time>2016-12-18T10:17:51.999Z</time>
      </trkpt>
      <trkpt lat="47.45965" lon="6.73615">
        <ele>438</ele>
        <time>2016-12-18T10:17:52.999Z</time>
      </trkpt>
      <trkpt lat="47.45962" lon="6.73616">
        <ele>438</ele>
        <time>2016-12-18T10:17:53.999Z</time>
      </trkpt>
      <trkpt lat="47.45959" lon="6.73617">
        <ele>439</ele>
        <time>2016-12-18T10:17:54.999Z</time>
      </trkpt>
      <trkpt lat="47.45956" lon="6.73617">
        <ele>439</ele>
        <time>2016-12-18T10:17:55.999Z</time>
      </trkpt>
      <trkpt lat="47.45953" lon="6.73619">
        <ele>439</ele>
        <time>2016-12-18T10:17:56.999Z</time>
      </trkpt>
      <trkpt lat="47.45951" lon="6.7362">
        <ele>439</ele>
        <time>2016-12-18T10:17:57.999Z</time>
      </trkpt>
      <trkpt lat="47.45948" lon="6.73622">
        <ele>439</ele>
        <time>2016-12-18T10:17:58.999Z</time>
      </trkpt>
      <trkpt lat="47.45945" lon="6.73625">
        <ele>439</ele>
        <time>2016-12-18T10:17:59.999Z</time>
      </trkpt>
      <trkpt lat="47.45942" lon="6.73628">
        <ele>439</ele>
        <time>2016-12-18T10:18:00.999Z</time>
      </trkpt>
      <trkpt lat="47.4594" lon="6.7363">
        <ele>439</ele>
        <time>2016-12-18T10:18:01.999Z</time>
      </trkpt>
      <trkpt lat="47.45937" lon="6.73633">
        <ele>439</ele>
        <time>2016-12-18T10:18:02.999Z</time>
      </trkpt>
      <trkpt lat="47.45935" lon="6.73636">
        <ele>439</ele>
        <time>2016-12-18T10:18:03.999Z</time>
      </trkpt>
      <trkpt lat="47.45932" lon="6.73639">
        <ele>439</ele>
        <time>2016-12-18T10:18:04.999Z</time>
      </trkpt>
      <trkpt lat="47.4593" lon="6.73641">
        <ele>439</ele>
        <time>2016-12-18T10:18:05.999Z</time>
      </trkpt>
      <trkpt lat="47.45928" lon="6.73644">
        <ele>439</ele>
        <time>2016-12-18T10:18:06.999Z</time>
      </trkpt>
      <trkpt lat="47.45927" lon="6.73646">
        <ele>439</ele>
        <time>2016-12-18T10:18:07.999Z</time>
      </trkpt>
      <trkpt lat="47.45925" lon="6.73649">
        <ele>439</ele>
        <time>2016-12-18T10:18:08.999Z</time>
      </trkpt>
      <trkpt lat="47.45923" lon="6.73651">
        <ele>439</ele>
        <time>2016-12-18T10:18:09.999Z</time>
      </trkpt>
      <trkpt lat="47.4592" lon="6.73653">
        <ele>439</ele>
        <time>2016-12-18T10:18:10.999Z</time>
      </trkpt>
      <trkpt lat="47.45918" lon="6.73654">
        <ele>440</ele>
        <time>2016-12-18T10:18:11.999Z</time>
      </trkpt>
      <trkpt lat="47.45915" lon="6.73655">
        <ele>441</ele>
        <time>2016-12-18T10:18:12.999Z</time>
      </trkpt>
      <trkpt lat="47.45913" lon="6.73656">
        <ele>441</ele>
        <time>2016-12-18T10:18:13.999Z</time>
      </trkpt>
      <trkpt lat="47.4591" lon="6.73655">
        <ele>441</ele>
        <time>2016-12-18T10:18:14.999Z</time>
      </trkpt>
      <trkpt lat="47.45908" lon="6.73655">
        <ele>441</ele>
        <time>2016-12-18T10:18:15.999Z</time>
      </trkpt>
      <trkpt lat="47.45905" lon="6.73655">
        <ele>441</ele>
        <time>2016-12-18T10:18:16.999Z</time>
      </trkpt>
      <trkpt lat="47.45903" lon="6.73656">
        <ele>442</ele>
        <time>2016-12-18T10:18:17.999Z</time>
      </trkpt>
      <trkpt lat="47.459" lon="6.73655">
        <ele>442</ele>
        <time>2016-12-18T10:18:18.999Z</time>
      </trkpt>
      <trkpt lat="47.45897" lon="6.73655">
        <ele>442</ele>
        <time>2016-12-18T10:18:19.999Z</time>
      </trkpt>
      <trkpt lat="47.45894" lon="6.73654">
        <ele>442</ele>
        <time>2016-12-18T10:18:20.999Z</time>
      </trkpt>
      <trkpt lat="47.45891" lon="6.73653">
        <ele>442</ele>
        <time>2016-12-18T10:18:21.999Z</time>
      </trkpt>
      <trkpt lat="47.45889" lon="6.73654">
        <ele>442</ele>
        <time>2016-12-18T10:18:22.999Z</time>
      </trkpt>
      <trkpt lat="47.45886" lon="6.73653">
        <ele>442</ele>
        <time>2016-12-18T10:18:23.999Z</time>
      </trkpt>
      <trkpt lat="47.45883" lon="6.73653">
        <ele>443</ele>
        <time>2016-12-18T10:18:24.999Z</time>
      </trkpt>
      <trkpt lat="47.4588" lon="6.73653">
        <ele>443</ele>
        <time>2016-12-18T10:18:25.999Z</time>
      </trkpt>
      <trkpt lat="47.45877" lon="6.73652">
        <ele>443</ele>
        <time>2016-12-18T10:18:26.999Z</time>
      </trkpt>
      <trkpt lat="47.45875" lon="6.73652">
        <ele>443</ele>
        <time>2016-12-18T10:18:27.999Z</time>
      </trkpt>
      <trkpt lat="47.45872" lon="6.73652">
        <ele>443</ele>
        <time>2016-12-18T10:18:28.999Z</time>
      </trkpt>
      <trkpt lat="47.45869" lon="6.73653">
        <ele>443</ele>
        <time>2016-12-18T10:18:29.999Z</time>
      </trkpt>
      <trkpt lat="47.45865" lon="6.73653">
        <ele>443</ele>
        <time>2016-12-18T10:18:30.999Z</time>
      </trkpt>
      <trkpt lat="47.45862" lon="6.73652">
        <ele>443</ele>
        <time>2016-12-18T10:18:31.999Z</time>
      </trkpt>
      <trkpt lat="47.45859" lon="6.73652">
        <ele>443</ele>
        <time>2016-12-18T10:18:32.999Z</time>
      </trkpt>
      <trkpt lat="47.45856" lon="6.73653">
        <ele>444</ele>
        <time>2016-12-18T10:18:33.999Z</time>
      </trkpt>
      <trkpt lat="47.45853" lon="6.73654">
        <ele>444</ele>
        <time>2016-12-18T10:18:34.999Z</time>
      </trkpt>
      <trkpt lat="47.45851" lon="6.73655">
        <ele>444</ele>
        <time>2016-12-18T10:18:35.999Z</time>
      </trkpt>
      <trkpt lat="47.45848" lon="6.73655">
        <ele>444</ele>
        <time>2016-12-18T10:18:36.999Z</time>
      </trkpt>
      <trkpt lat="47.45845" lon="6.73655">
        <ele>444</ele>
        <time>2016-12-18T10:18:37.999Z</time>
      </trkpt>
      <trkpt lat="47.45843" lon="6.73656">
        <ele>444</ele>
        <time>2016-12-18T10:18:38.999Z</time>
      </trkpt>
      <trkpt lat="47.4584" lon="6.73656">
        <ele>444</ele>
        <time>2016-12-18T10:18:39.999Z</time>
      </trkpt>
      <trkpt lat="47.45837" lon="6.73656">
        <ele>444</ele>
        <time>2016-12-18T10:18:40.999Z</time>
      </trkpt>
      <trkpt lat="47.45834" lon="6.73656">
        <ele>444</ele>
        <time>2016-12-18T10:18:41.999Z</time>
      </trkpt>
      <trkpt lat="47.4583" lon="6.73656">
        <ele>446</ele>
        <time>2016-12-18T10:18:42.999Z</time>
      </trkpt>
      <trkpt lat="47.45827" lon="6.73657">
        <ele>446</ele>
        <time>2016-12-18T10:18:43.999Z</time>
      </trkpt>
      <trkpt lat="47.45823" lon="6.73658">
        <ele>446</ele>
        <time>2016-12-18T10:18:44.999Z</time>
      </trkpt>
      <trkpt lat="47.4582" lon="6.73658">
        <ele>446</ele>
        <time>2016-12-18T10:18:45.999Z</time>
      </trkpt>
      <trkpt lat="47.45817" lon="6.73658">
        <ele>446</ele>
        <time>2016-12-18T10:18:46.999Z</time>
      </trkpt>
      <trkpt lat="47.45813" lon="6.73659">
        <ele>446</ele>
        <time>2016-12-18T10:18:48.999Z</time>
      </trkpt>
      <trkpt lat="47.4581" lon="6.73659">
        <ele>446</ele>
        <time>2016-12-18T10:18:49.999Z</time>
      </trkpt>
      <trkpt lat="47.45807" lon="6.73659">
        <ele>446</ele>
        <time>2016-12-18T10:18:50.999Z</time>
      </trkpt>
      <trkpt lat="47.45803" lon="6.73659">
        <ele>447</ele>
        <time>2016-12-18T10:18:51.999Z</time>
      </trkpt>
      <trkpt lat="47.45801" lon="6.73659">
        <ele>447</ele>
        <time>2016-12-18T10:18:52.999Z</time>
      </trkpt>
      <trkpt lat="47.45798" lon="6.73658">
        <ele>447</ele>
        <time>2016-12-18T10:18:53.999Z</time>
      </trkpt>
      <trkpt lat="47.45794" lon="6.73658">
        <ele>447</ele>
        <time>2016-12-18T10:18:54.999Z</time>
      </trkpt>
      <trkpt lat="47.45791" lon="6.73658">
        <ele>447</ele>
        <time>2016-12-18T10:18:55.999Z</time>
      </trkpt>
      <trkpt lat="47.45788" lon="6.73659">
        <ele>447</ele>
        <time>2016-12-18T10:18:56.999Z</time>
      </trkpt>
      <trkpt lat="47.45786" lon="6.7366">
        <ele>447</ele>
        <time>2016-12-18T10:18:57.999Z</time>
      </trkpt>
      <trkpt lat="47.45783" lon="6.73661">
        <ele>447</ele>
        <time>2016-12-18T10:18:58.999Z</time>
      </trkpt>
      <trkpt lat="47.4578" lon="6.73661">
        <ele>447</ele>
        <time>2016-12-18T10:18:59.999Z</time>
      </trkpt>
      <trkpt lat="47.45777" lon="6.73662">
        <ele>448</ele>
        <time>2016-12-18T10:19:00.999Z</time>
      </trkpt>
      <trkpt lat="47.45774" lon="6.73662">
        <ele>448</ele>
        <time>2016-12-18T10:19:01.999Z</time>
      </trkpt>
      <trkpt lat="47.45771" lon="6.73663">
        <ele>448</ele>
        <time>2016-12-18T10:19:02.999Z</time>
      </trkpt>
      <trkpt lat="47.45768" lon="6.73663">
        <ele>448</ele>
        <time>2016-12-18T10:19:03.999Z</time>
      </trkpt>
      <trkpt lat="47.45765" lon="6.73663">
        <ele>448</ele>
        <time>2016-12-18T10:19:04.999Z</time>
      </trkpt>
      <trkpt lat="47.45762" lon="6.73663">
        <ele>448</ele>
        <time>2016-12-18T10:19:05.999Z</time>
      </trkpt>
      <trkpt lat="47.45758" lon="6.73663">
        <ele>448</ele>
        <time>2016-12-18T10:19:06.999Z</time>
      </trkpt>
      <trkpt lat="47.45756" lon="6.73663">
        <ele>449</ele>
        <time>2016-12-18T10:19:07.999Z</time>
      </trkpt>
      <trkpt lat="47.45753" lon="6.73664">
        <ele>449</ele>
        <time>2016-12-18T10:19:08.999Z</time>
      </trkpt>
      <trkpt lat="47.45751" lon="6.73664">
        <ele>449</ele>
        <time>2016-12-18T10:19:09.999Z</time>
      </trkpt>
      <trkpt lat="47.45748" lon="6.73665">
        <ele>449</ele>
        <time>2016-12-18T10:19:10.999Z</time>
      </trkpt>
      <trkpt lat="47.45745" lon="6.73665">
        <ele>449</ele>
        <time>2016-12-18T10:19:11.999Z</time>
      </trkpt>
      <trkpt lat="47.45742" lon="6.73665">
        <ele>450</ele>
        <time>2016-12-18T10:19:12.999Z</time>
      </trkpt>
      <trkpt lat="47.45739" lon="6.73665">
        <ele>450</ele>
        <time>2016-12-18T10:19:13.999Z</time>
      </trkpt>
      <trkpt lat="47.45737" lon="6.73665">
        <ele>450</ele>
        <time>2016-12-18T10:19:14.999Z</time>
      </trkpt>
      <trkpt lat="47.45734" lon="6.73664">
        <ele>450</ele>
        <time>2016-12-18T10:19:15.999Z</time>
      </trkpt>
      <trkpt lat="47.45732" lon="6.73663">
        <ele>450</ele>
        <time>2016-12-18T10:19:16.999Z</time>
      </trkpt>
      <trkpt lat="47.45729" lon="6.73663">
        <ele>450</ele>
        <time>2016-12-18T10:19:17.999Z</time>
      </trkpt>
      <trkpt lat="47.45726" lon="6.73663">
        <ele>450</ele>
        <time>2016-12-18T10:19:18.999Z</time>
      </trkpt>
      <trkpt lat="47.45723" lon="6.73663">
        <ele>450</ele>
        <time>2016-12-18T10:19:19.999Z</time>
      </trkpt>
      <trkpt lat="47.45721" lon="6.73663">
        <ele>450</ele>
        <time>2016-12-18T10:19:20.999Z</time>
      </trkpt>
      <trkpt lat="47.45718" lon="6.73664">
        <ele>451</ele>
        <time>2016-12-18T10:19:21.999Z</time>
      </trkpt>
      <trkpt lat="47.45716" lon="6.73664">
        <ele>451</ele>
        <time>2016-12-18T10:19:22.999Z</time>
      </trkpt>
      <trkpt lat="47.45713" lon="6.73666">
        <ele>451</ele>
        <time>2016-12-18T10:19:23.999Z</time>
      </trkpt>
      <trkpt lat="47.4571" lon="6.73666">
        <ele>451</ele>
        <time>2016-12-18T10:19:24.999Z</time>
      </trkpt>
      <trkpt lat="47.45707" lon="6.73667">
        <ele>451</ele>
        <time>2016-12-18T10:19:25.999Z</time>
      </trkpt>
      <trkpt lat="47.45705" lon="6.73668">
        <ele>451</ele>
        <time>2016-12-18T10:19:26.999Z</time>
      </trkpt>
      <trkpt lat="47.45702" lon="6.73669">
        <ele>451</ele>
        <time>2016-12-18T10:19:27.999Z</time>
      </trkpt>
      <trkpt lat="47.45699" lon="6.73669">
        <ele>451</ele>
        <time>2016-12-18T10:19:28.999Z</time>
      </trkpt>
      <trkpt lat="47.45696" lon="6.7367">
        <ele>451</ele>
        <time>2016-12-18T10:19:29.999Z</time>
      </trkpt>
      <trkpt lat="47.45693" lon="6.7367">
        <ele>451</ele>
        <time>2016-12-18T10:19:30.999Z</time>
      </trkpt>
      <trkpt lat="47.4569" lon="6.73671">
        <ele>451</ele>
        <time>2016-12-18T10:19:31.999Z</time>
      </trkpt>
      <trkpt lat="47.45686" lon="6.73671">
        <ele>451</ele>
        <time>2016-12-18T10:19:32.999Z</time>
      </trkpt>
      <trkpt lat="47.45684" lon="6.73672">
        <ele>452</ele>
        <time>2016-12-18T10:19:33.999Z</time>
      </trkpt>
      <trkpt lat="47.4568" lon="6.73672">
        <ele>452</ele>
        <time>2016-12-18T10:19:34.999Z</time>
      </trkpt>
      <trkpt lat="47.45676" lon="6.73672">
        <ele>452</ele>
        <time>2016-12-18T10:19:35.999Z</time>
      </trkpt>
      <trkpt lat="47.45673" lon="6.73673">
        <ele>452</ele>
        <time>2016-12-18T10:19:36.999Z</time>
      </trkpt>
      <trkpt lat="47.45669" lon="6.73673">
        <ele>452</ele>
        <time>2016-12-18T10:19:37.999Z</time>
      </trkpt>
      <trkpt lat="47.45667" lon="6.73673">
        <ele>452</ele>
        <time>2016-12-18T10:19:38.999Z</time>
      </trkpt>
      <trkpt lat="47.45664" lon="6.73673">
        <ele>454</ele>
        <time>2016-12-18T10:19:39.999Z</time>
      </trkpt>
      <trkpt lat="47.45661" lon="6.73673">
        <ele>454</ele>
        <time>2016-12-18T10:19:40.999Z</time>
      </trkpt>
      <trkpt lat="47.45659" lon="6.73673">
        <ele>454</ele>
        <time>2016-12-18T10:19:41.999Z</time>
      </trkpt>
      <trkpt lat="47.45657" lon="6.73673">
        <ele>455</ele>
        <time>2016-12-18T10:19:42.999Z</time>
      </trkpt>
      <trkpt lat="47.45654" lon="6.73674">
        <ele>455</ele>
        <time>2016-12-18T10:19:43.999Z</time>
      </trkpt>
      <trkpt lat="47.45651" lon="6.73678">
        <ele>455</ele>
        <time>2016-12-18T10:19:45.999Z</time>
      </trkpt>
      <trkpt lat="47.45651" lon="6.73679">
        <ele>455</ele>
        <time>2016-12-18T10:19:46.999Z</time>
      </trkpt>
      <trkpt lat="47.45651" lon="6.73673">
        <ele>455</ele>
        <time>2016-12-18T10:20:13.999Z</time>
      </trkpt>
      <trkpt lat="47.45651" lon="6.73672">
        <ele>455</ele>
        <time>2016-12-18T10:20:14.999Z</time>
      </trkpt>
      <trkpt lat="47.45648" lon="6.73677">
        <ele>455</ele>
        <time>2016-12-18T10:21:05.999Z</time>
      </trkpt>
      <trkpt lat="47.45648" lon="6.73678">
        <ele>455</ele>
        <time>2016-12-18T10:21:06.999Z</time>
      </trkpt>
      <trkpt lat="47.45646" lon="6.73684">
        <ele>456</ele>
        <time>2016-12-18T10:21:10.999Z</time>
      </trkpt>
      <trkpt lat="47.45645" lon="6.73686">
        <ele>456</ele>
        <time>2016-12-18T10:21:11.999Z</time>
      </trkpt>
      <trkpt lat="47.45644" lon="6.73691">
        <ele>456</ele>
        <time>2016-12-18T10:21:14.999Z</time>
      </trkpt>
      <trkpt lat="47.45644" lon="6.73694">
        <ele>456</ele>
        <time>2016-12-18T10:21:15.999Z</time>
      </trkpt>
      <trkpt lat="47.45643" lon="6.73699">
        <ele>456</ele>
        <time>2016-12-18T10:21:17.999Z</time>
      </trkpt>
      <trkpt lat="47.45642" lon="6.73701">
        <ele>456</ele>
        <time>2016-12-18T10:21:18.999Z</time>
      </trkpt>
      <trkpt lat="47.45641" lon="6.73706">
        <ele>456</ele>
        <time>2016-12-18T10:21:21.999Z</time>
      </trkpt>
      <trkpt lat="47.4564" lon="6.73709">
        <ele>456</ele>
        <time>2016-12-18T10:21:22.999Z</time>
      </trkpt>
      <trkpt lat="47.45639" lon="6.73713">
        <ele>456</ele>
        <time>2016-12-18T10:21:23.999Z</time>
      </trkpt>
      <trkpt lat="47.45638" lon="6.73717">
        <ele>456</ele>
        <time>2016-12-18T10:21:24.999Z</time>
      </trkpt>
      <trkpt lat="47.45637" lon="6.7372">
        <ele>456</ele>
        <time>2016-12-18T10:21:25.999Z</time>
      </trkpt>
      <trkpt lat="47.45635" lon="6.73724">
        <ele>457</ele>
        <time>2016-12-18T10:21:26.999Z</time>
      </trkpt>
      <trkpt lat="47.45633" lon="6.73729">
        <ele>457</ele>
        <time>2016-12-18T10:21:27.999Z</time>
      </trkpt>
      <trkpt lat="47.45631" lon="6.73734">
        <ele>457</ele>
        <time>2016-12-18T10:21:28.999Z</time>
      </trkpt>
      <trkpt lat="47.4563" lon="6.73739">
        <ele>457</ele>
        <time>2016-12-18T10:21:29.999Z</time>
      </trkpt>
      <trkpt lat="47.45628" lon="6.73743">
        <ele>457</ele>
        <time>2016-12-18T10:21:30.999Z</time>
      </trkpt>
      <trkpt lat="47.45626" lon="6.73747">
        <ele>457</ele>
        <time>2016-12-18T10:21:31.999Z</time>
      </trkpt>
      <trkpt lat="47.45625" lon="6.73752">
        <ele>457</ele>
        <time>2016-12-18T10:21:32.999Z</time>
      </trkpt>
      <trkpt lat="47.45623" lon="6.73758">
        <ele>457</ele>
        <time>2016-12-18T10:21:33.999Z</time>
      </trkpt>
      <trkpt lat="47.45623" lon="6.73762">
        <ele>457</ele>
        <time>2016-12-18T10:21:34.999Z</time>
      </trkpt>
      <trkpt lat="47.45623" lon="6.73767">
        <ele>457</ele>
        <time>2016-12-18T10:21:35.999Z</time>
      </trkpt>
      <trkpt lat="47.45623" lon="6.73773">
        <ele>457</ele>
        <time>2016-12-18T10:21:36.999Z</time>
      </trkpt>
      <trkpt lat="47.45621" lon="6.73782">
        <ele>457</ele>
        <time>2016-12-18T10:21:37.999Z</time>
      </trkpt>
      <trkpt lat="47.45621" lon="6.73788">
        <ele>457</ele>
        <time>2016-12-18T10:21:38.999Z</time>
      </trkpt>
      <trkpt lat="47.4562" lon="6.73795">
        <ele>456</ele>
        <time>2016-12-18T10:21:39.999Z</time>
      </trkpt>
      <trkpt lat="47.45619" lon="6.73803">
        <ele>456</ele>
        <time>2016-12-18T10:21:40.999Z</time>
      </trkpt>
      <trkpt lat="47.45618" lon="6.73811">
        <ele>456</ele>
        <time>2016-12-18T10:21:41.999Z</time>
      </trkpt>
      <trkpt lat="47.45618" lon="6.73819">
        <ele>456</ele>
        <time>2016-12-18T10:21:42.999Z</time>
      </trkpt>
      <trkpt lat="47.45616" lon="6.73827">
        <ele>456</ele>
        <time>2016-12-18T10:21:43.999Z</time>
      </trkpt>
      <trkpt lat="47.45615" lon="6.73839">
        <ele>456</ele>
        <time>2016-12-18T10:21:44.999Z</time>
      </trkpt>
      <trkpt lat="47.45615" lon="6.73853">
        <ele>456</ele>
        <time>2016-12-18T10:21:45.999Z</time>
      </trkpt>
      <trkpt lat="47.45614" lon="6.73863">
        <ele>456</ele>
        <time>2016-12-18T10:21:46.999Z</time>
      </trkpt>
      <trkpt lat="47.45614" lon="6.73871">
        <ele>456</ele>
        <time>2016-12-18T10:21:47.999Z</time>
      </trkpt>
      <trkpt lat="47.45616" lon="6.73877">
        <ele>456</ele>
        <time>2016-12-18T10:21:48.999Z</time>
      </trkpt>
      <trkpt lat="47.45619" lon="6.73883">
        <ele>456</ele>
        <time>2016-12-18T10:21:49.999Z</time>
      </trkpt>
      <trkpt lat="47.45622" lon="6.73891">
        <ele>456</ele>
        <time>2016-12-18T10:21:50.999Z</time>
      </trkpt>
      <trkpt lat="47.45626" lon="6.73899">
        <ele>456</ele>
        <time>2016-12-18T10:21:51.999Z</time>
      </trkpt>
      <trkpt lat="47.45631" lon="6.73908">
        <ele>455</ele>
        <time>2016-12-18T10:21:52.999Z</time>
      </trkpt>
      <trkpt lat="47.45635" lon="6.73915">
        <ele>455</ele>
        <time>2016-12-18T10:21:53.999Z</time>
      </trkpt>
      <trkpt lat="47.45639" lon="6.73922">
        <ele>455</ele>
        <time>2016-12-18T10:21:54.999Z</time>
      </trkpt>
      <trkpt lat="47.45643" lon="6.73929">
        <ele>455</ele>
        <time>2016-12-18T10:21:55.999Z</time>
      </trkpt>
      <trkpt lat="47.45648" lon="6.73938">
        <ele>455</ele>
        <time>2016-12-18T10:21:56.999Z</time>
      </trkpt>
      <trkpt lat="47.45653" lon="6.73945">
        <ele>455</ele>
        <time>2016-12-18T10:21:57.999Z</time>
      </trkpt>
      <trkpt lat="47.45658" lon="6.73953">
        <ele>455</ele>
        <time>2016-12-18T10:21:58.999Z</time>
      </trkpt>
      <trkpt lat="47.45663" lon="6.73957">
        <ele>455</ele>
        <time>2016-12-18T10:21:59.999Z</time>
      </trkpt>
      <trkpt lat="47.4567" lon="6.73964">
        <ele>450</ele>
        <time>2016-12-18T10:22:00.999Z</time>
      </trkpt>
      <trkpt lat="47.45675" lon="6.73969">
        <ele>450</ele>
        <time>2016-12-18T10:22:01.999Z</time>
      </trkpt>
      <trkpt lat="47.4568" lon="6.73977">
        <ele>450</ele>
        <time>2016-12-18T10:22:02.999Z</time>
      </trkpt>
      <trkpt lat="47.45684" lon="6.73987">
        <ele>450</ele>
        <time>2016-12-18T10:22:03.999Z</time>
      </trkpt>
      <trkpt lat="47.45689" lon="6.73993">
        <ele>450</ele>
        <time>2016-12-18T10:22:04.999Z</time>
      </trkpt>
      <trkpt lat="47.45694" lon="6.73997">
        <ele>449</ele>
        <time>2016-12-18T10:22:05.999Z</time>
      </trkpt>
      <trkpt lat="47.45696" lon="6.74001">
        <ele>448</ele>
        <time>2016-12-18T10:22:06.999Z</time>
      </trkpt>
      <trkpt lat="47.45699" lon="6.74008">
        <ele>447</ele>
        <time>2016-12-18T10:22:07.999Z</time>
      </trkpt>
      <trkpt lat="47.45704" lon="6.74016">
        <ele>446</ele>
        <time>2016-12-18T10:22:08.999Z</time>
      </trkpt>
      <trkpt lat="47.45708" lon="6.74025">
        <ele>446</ele>
        <time>2016-12-18T10:22:09.999Z</time>
      </trkpt>
      <trkpt lat="47.45713" lon="6.74032">
        <ele>445</ele>
        <time>2016-12-18T10:22:10.999Z</time>
      </trkpt>
      <trkpt lat="47.45718" lon="6.74037">
        <ele>445</ele>
        <time>2016-12-18T10:22:11.999Z</time>
      </trkpt>
      <trkpt lat="47.45723" lon="6.74042">
        <ele>444</ele>
        <time>2016-12-18T10:22:12.999Z</time>
      </trkpt>
      <trkpt lat="47.4573" lon="6.74048">
        <ele>444</ele>
        <time>2016-12-18T10:22:13.999Z</time>
      </trkpt>
      <trkpt lat="47.45738" lon="6.74052">
        <ele>443</ele>
        <time>2016-12-18T10:22:14.999Z</time>
      </trkpt>
      <trkpt lat="47.45744" lon="6.74056">
        <ele>442</ele>
        <time>2016-12-18T10:22:15.999Z</time>
      </trkpt>
      <trkpt lat="47.45749" lon="6.74064">
        <ele>441</ele>
        <time>2016-12-18T10:22:16.999Z</time>
      </trkpt>
      <trkpt lat="47.45754" lon="6.7407">
        <ele>437</ele>
        <time>2016-12-18T10:22:17.999Z</time>
      </trkpt>
      <trkpt lat="47.45758" lon="6.74078">
        <ele>437</ele>
        <time>2016-12-18T10:22:18.999Z</time>
      </trkpt>
      <trkpt lat="47.45762" lon="6.74085">
        <ele>435</ele>
        <time>2016-12-18T10:22:19.999Z</time>
      </trkpt>
      <trkpt lat="47.45766" lon="6.74091">
        <ele>435</ele>
        <time>2016-12-18T10:22:20.999Z</time>
      </trkpt>
      <trkpt lat="47.45769" lon="6.74099">
        <ele>434</ele>
        <time>2016-12-18T10:22:21.999Z</time>
      </trkpt>
      <trkpt lat="47.45776" lon="6.74109">
        <ele>433</ele>
        <time>2016-12-18T10:22:22.999Z</time>
      </trkpt>
      <trkpt lat="47.4578" lon="6.74117">
        <ele>433</ele>
        <time>2016-12-18T10:22:23.999Z</time>
      </trkpt>
      <trkpt lat="47.45785" lon="6.74121">
        <ele>433</ele>
        <time>2016-12-18T10:22:24.999Z</time>
      </trkpt>
      <trkpt lat="47.45789" lon="6.74123">
        <ele>432</ele>
        <time>2016-12-18T10:22:25.999Z</time>
      </trkpt>
      <trkpt lat="47.45792" lon="6.74126">
        <ele>432</ele>
        <time>2016-12-18T10:22:26.999Z</time>
      </trkpt>
      <trkpt lat="47.45796" lon="6.7413">
        <ele>432</ele>
        <time>2016-12-18T10:22:27.999Z</time>
      </trkpt>
      <trkpt lat="47.45802" lon="6.74132">
        <ele>432</ele>
        <time>2016-12-18T10:22:28.999Z</time>
      </trkpt>
      <trkpt lat="47.45806" lon="6.74134">
        <ele>432</ele>
        <time>2016-12-18T10:22:29.999Z</time>
      </trkpt>
      <trkpt lat="47.45811" lon="6.74137">
        <ele>431</ele>
        <time>2016-12-18T10:22:30.999Z</time>
      </trkpt>
      <trkpt lat="47.45815" lon="6.74139">
        <ele>431</ele>
        <time>2016-12-18T10:22:31.999Z</time>
      </trkpt>
      <trkpt lat="47.4582" lon="6.74142">
        <ele>431</ele>
        <time>2016-12-18T10:22:32.999Z</time>
      </trkpt>
      <trkpt lat="47.45823" lon="6.74142">
        <ele>431</ele>
        <time>2016-12-18T10:22:33.999Z</time>
      </trkpt>
      <trkpt lat="47.45827" lon="6.74144">
        <ele>431</ele>
        <time>2016-12-18T10:22:34.999Z</time>
      </trkpt>
      <trkpt lat="47.45831" lon="6.74146">
        <ele>430</ele>
        <time>2016-12-18T10:22:35.999Z</time>
      </trkpt>
      <trkpt lat="47.45835" lon="6.74148">
        <ele>428</ele>
        <time>2016-12-18T10:22:36.999Z</time>
      </trkpt>
      <trkpt lat="47.45841" lon="6.7416">
        <ele>428</ele>
        <time>2016-12-18T10:22:37.999Z</time>
      </trkpt>
      <trkpt lat="47.45844" lon="6.74169">
        <ele>424</ele>
        <time>2016-12-18T10:22:38.999Z</time>
      </trkpt>
      <trkpt lat="47.45847" lon="6.7417">
        <ele>424</ele>
        <time>2016-12-18T10:22:40.999Z</time>
      </trkpt>
      <trkpt lat="47.4585" lon="6.74171">
        <ele>423</ele>
        <time>2016-12-18T10:22:41.999Z</time>
      </trkpt>
      <trkpt lat="47.45854" lon="6.74174">
        <ele>422</ele>
        <time>2016-12-18T10:22:42.999Z</time>
      </trkpt>
      <trkpt lat="47.45857" lon="6.74177">
        <ele>422</ele>
        <time>2016-12-18T10:22:43.999Z</time>
      </trkpt>
      <trkpt lat="47.4587" lon="6.74185">
        <ele>420</ele>
        <time>2016-12-18T10:22:44.999Z</time>
      </trkpt>
      <trkpt lat="47.45875" lon="6.74187">
        <ele>419</ele>
        <time>2016-12-18T10:22:45.999Z</time>
      </trkpt>
      <trkpt lat="47.45879" lon="6.74191">
        <ele>419</ele>
        <time>2016-12-18T10:22:46.999Z</time>
      </trkpt>
      <trkpt lat="47.4588" lon="6.7419">
        <ele>419</ele>
        <time>2016-12-18T10:22:47.999Z</time>
      </trkpt>
      <trkpt lat="47.45882" lon="6.7419">
        <ele>419</ele>
        <time>2016-12-18T10:22:48.999Z</time>
      </trkpt>
      <trkpt lat="47.45887" lon="6.74188">
        <ele>419</ele>
        <time>2016-12-18T10:22:49.999Z</time>
      </trkpt>
      <trkpt lat="47.45893" lon="6.7419">
        <ele>419</ele>
        <time>2016-12-18T10:22:50.999Z</time>
      </trkpt>
      <trkpt lat="47.45898" lon="6.74193">
        <ele>419</ele>
        <time>2016-12-18T10:22:51.999Z</time>
      </trkpt>
      <trkpt lat="47.45902" lon="6.74195">
        <ele>418</ele>
        <time>2016-12-18T10:22:52.999Z</time>
      </trkpt>
      <trkpt lat="47.45906" lon="6.74194">
        <ele>418</ele>
        <time>2016-12-18T10:22:53.999Z</time>
      </trkpt>
      <trkpt lat="47.45909" lon="6.74195">
        <ele>418</ele>
        <time>2016-12-18T10:22:54.999Z</time>
      </trkpt>
      <trkpt lat="47.45912" lon="6.74194">
        <ele>418</ele>
        <time>2016-12-18T10:22:55.999Z</time>
      </trkpt>
      <trkpt lat="47.45914" lon="6.74195">
        <ele>418</ele>
        <time>2016-12-18T10:22:56.999Z</time>
      </trkpt>
      <trkpt lat="47.45918" lon="6.74197">
        <ele>417</ele>
        <time>2016-12-18T10:22:57.999Z</time>
      </trkpt>
      <trkpt lat="47.45921" lon="6.74196">
        <ele>417</ele>
        <time>2016-12-18T10:22:58.999Z</time>
      </trkpt>
      <trkpt lat="47.45926" lon="6.74195">
        <ele>417</ele>
        <time>2016-12-18T10:22:59.999Z</time>
      </trkpt>
      <trkpt lat="47.45929" lon="6.74193">
        <ele>417</ele>
        <time>2016-12-18T10:23:00.999Z</time>
      </trkpt>
      <trkpt lat="47.45932" lon="6.74194">
        <ele>417</ele>
        <time>2016-12-18T10:23:01.999Z</time>
      </trkpt>
      <trkpt lat="47.45935" lon="6.74195">
        <ele>417</ele>
        <time>2016-12-18T10:23:02.999Z</time>
      </trkpt>
      <trkpt lat="47.45937" lon="6.74196">
        <ele>417</ele>
        <time>2016-12-18T10:23:03.999Z</time>
      </trkpt>
      <trkpt lat="47.45939" lon="6.74198">
        <ele>417</ele>
        <time>2016-12-18T10:23:04.999Z</time>
      </trkpt>
      <trkpt lat="47.45942" lon="6.74199">
        <ele>416</ele>
        <time>2016-12-18T10:23:05.999Z</time>
      </trkpt>
      <trkpt lat="47.45944" lon="6.74202">
        <ele>416</ele>
        <time>2016-12-18T10:23:06.999Z</time>
      </trkpt>
      <trkpt lat="47.45948" lon="6.74206">
        <ele>416</ele>
        <time>2016-12-18T10:23:07.999Z</time>
      </trkpt>
      <trkpt lat="47.4595" lon="6.74208">
        <ele>416</ele>
        <time>2016-12-18T10:23:08.999Z</time>
      </trkpt>
      <trkpt lat="47.45954" lon="6.74213">
        <ele>415</ele>
        <time>2016-12-18T10:23:09.999Z</time>
      </trkpt>
      <trkpt lat="47.45957" lon="6.74217">
        <ele>415</ele>
        <time>2016-12-18T10:23:10.999Z</time>
      </trkpt>
      <trkpt lat="47.4596" lon="6.7422">
        <ele>415</ele>
        <time>2016-12-18T10:23:11.999Z</time>
      </trkpt>
      <trkpt lat="47.45963" lon="6.74222">
        <ele>415</ele>
        <time>2016-12-18T10:23:12.999Z</time>
      </trkpt>
      <trkpt lat="47.45967" lon="6.74223">
        <ele>415</ele>
        <time>2016-12-18T10:23:13.999Z</time>
      </trkpt>
      <trkpt lat="47.45971" lon="6.74223">
        <ele>415</ele>
        <time>2016-12-18T10:23:16.999Z</time>
      </trkpt>
      <trkpt lat="47.45972" lon="6.74222">
        <ele>415</ele>
        <time>2016-12-18T10:23:17.999Z</time>
      </trkpt>
      <trkpt lat="47.45976" lon="6.74221">
        <ele>415</ele>
        <time>2016-12-18T10:23:19.999Z</time>
      </trkpt>
      <trkpt lat="47.45978" lon="6.7422">
        <ele>415</ele>
        <time>2016-12-18T10:23:20.999Z</time>
      </trkpt>
      <trkpt lat="47.45982" lon="6.74219">
        <ele>415</ele>
        <time>2016-12-18T10:23:21.999Z</time>
      </trkpt>
      <trkpt lat="47.45985" lon="6.74217">
        <ele>415</ele>
        <time>2016-12-18T10:23:22.999Z</time>
      </trkpt>
      <trkpt lat="47.45989" lon="6.74217">
        <ele>415</ele>
        <time>2016-12-18T10:23:24.999Z</time>
      </trkpt>
      <trkpt lat="47.45992" lon="6.74217">
        <ele>415</ele>
        <time>2016-12-18T10:23:25.999Z</time>
      </trkpt>
      <trkpt lat="47.45995" lon="6.74217">
        <ele>415</ele>
        <time>2016-12-18T10:23:26.999Z</time>
      </trkpt>
      <trkpt lat="47.45999" lon="6.74215">
        <ele>415</ele>
        <time>2016-12-18T10:23:27.999Z</time>
      </trkpt>
      <trkpt lat="47.46002" lon="6.74215">
        <ele>416</ele>
        <time>2016-12-18T10:23:28.999Z</time>
      </trkpt>
      <trkpt lat="47.46006" lon="6.74216">
        <ele>416</ele>
        <time>2016-12-18T10:23:29.999Z</time>
      </trkpt>
      <trkpt lat="47.46009" lon="6.74215">
        <ele>417</ele>
        <time>2016-12-18T10:23:30.999Z</time>
      </trkpt>
      <trkpt lat="47.46012" lon="6.74214">
        <ele>417</ele>
        <time>2016-12-18T10:23:31.999Z</time>
      </trkpt>
      <trkpt lat="47.46016" lon="6.74213">
        <ele>417</ele>
        <time>2016-12-18T10:23:34.999Z</time>
      </trkpt>
      <trkpt lat="47.46018" lon="6.74213">
        <ele>417</ele>
        <time>2016-12-18T10:23:35.999Z</time>
      </trkpt>
      <trkpt lat="47.4602" lon="6.74213">
        <ele>417</ele>
        <time>2016-12-18T10:23:36.999Z</time>
      </trkpt>
      <trkpt lat="47.46023" lon="6.74214">
        <ele>417</ele>
        <time>2016-12-18T10:23:37.999Z</time>
      </trkpt>
      <trkpt lat="47.46027" lon="6.74215">
        <ele>417</ele>
        <time>2016-12-18T10:23:38.999Z</time>
      </trkpt>
      <trkpt lat="47.46031" lon="6.74215">
        <ele>417</ele>
        <time>2016-12-18T10:23:39.999Z</time>
      </trkpt>
      <trkpt lat="47.46035" lon="6.74214">
        <ele>417</ele>
        <time>2016-12-18T10:23:40.999Z</time>
      </trkpt>
      <trkpt lat="47.46039" lon="6.74213">
        <ele>417</ele>
        <time>2016-12-18T10:23:41.999Z</time>
      </trkpt>
      <trkpt lat="47.46043" lon="6.74214">
        <ele>417</ele>
        <time>2016-12-18T10:23:42.999Z</time>
      </trkpt>
      <trkpt lat="47.46046" lon="6.74215">
        <ele>417</ele>
        <time>2016-12-18T10:23:43.999Z</time>
      </trkpt>
      <trkpt lat="47.4605" lon="6.74216">
        <ele>417</ele>
        <time>2016-12-18T10:23:44.999Z</time>
      </trkpt>
      <trkpt lat="47.46054" lon="6.74217">
        <ele>417</ele>
        <time>2016-12-18T10:23:45.999Z</time>
      </trkpt>
      <trkpt lat="47.46057" lon="6.74218">
        <ele>417</ele>
        <time>2016-12-18T10:23:46.999Z</time>
      </trkpt>
      <trkpt lat="47.4606" lon="6.74219">
        <ele>417</ele>
        <time>2016-12-18T10:23:47.999Z</time>
      </trkpt>
      <trkpt lat="47.46062" lon="6.74221">
        <ele>417</ele>
        <time>2016-12-18T10:23:48.999Z</time>
      </trkpt>
      <trkpt lat="47.46064" lon="6.74224">
        <ele>417</ele>
        <time>2016-12-18T10:23:49.999Z</time>
      </trkpt>
      <trkpt lat="47.46066" lon="6.74228">
        <ele>416</ele>
        <time>2016-12-18T10:23:50.999Z</time>
      </trkpt>
      <trkpt lat="47.4607" lon="6.7423">
        <ele>416</ele>
        <time>2016-12-18T10:23:51.999Z</time>
      </trkpt>
      <trkpt lat="47.46075" lon="6.74231">
        <ele>416</ele>
        <time>2016-12-18T10:23:52.999Z</time>
      </trkpt>
      <trkpt lat="47.46078" lon="6.74232">
        <ele>416</ele>
        <time>2016-12-18T10:23:53.999Z</time>
      </trkpt>
      <trkpt lat="47.46082" lon="6.74231">
        <ele>416</ele>
        <time>2016-12-18T10:23:54.999Z</time>
      </trkpt>
      <trkpt lat="47.46085" lon="6.74231">
        <ele>417</ele>
        <time>2016-12-18T10:23:55.999Z</time>
      </trkpt>
      <trkpt lat="47.46088" lon="6.74231">
        <ele>417</ele>
        <time>2016-12-18T10:23:56.999Z</time>
      </trkpt>
      <trkpt lat="47.4609" lon="6.74234">
        <ele>416</ele>
        <time>2016-12-18T10:23:57.999Z</time>
      </trkpt>
      <trkpt lat="47.46093" lon="6.74235">
        <ele>416</ele>
        <time>2016-12-18T10:23:58.999Z</time>
      </trkpt>
      <trkpt lat="47.46097" lon="6.74235">
        <ele>417</ele>
        <time>2016-12-18T10:23:59.999Z</time>
      </trkpt>
      <trkpt lat="47.46101" lon="6.74234">
        <ele>417</ele>
        <time>2016-12-18T10:24:00.999Z</time>
      </trkpt>
      <trkpt lat="47.46105" lon="6.74234">
        <ele>417</ele>
        <time>2016-12-18T10:24:01.999Z</time>
      </trkpt>
      <trkpt lat="47.46108" lon="6.74234">
        <ele>417</ele>
        <time>2016-12-18T10:24:02.999Z</time>
      </trkpt>
      <trkpt lat="47.46111" lon="6.74232">
        <ele>417</ele>
        <time>2016-12-18T10:24:03.999Z</time>
      </trkpt>
      <trkpt lat="47.46114" lon="6.74231">
        <ele>417</ele>
        <time>2016-12-18T10:24:04.999Z</time>
      </trkpt>
      <trkpt lat="47.46117" lon="6.74231">
        <ele>417</ele>
        <time>2016-12-18T10:24:05.999Z</time>
      </trkpt>
      <trkpt lat="47.46121" lon="6.74232">
        <ele>417</ele>
        <time>2016-12-18T10:24:06.999Z</time>
      </trkpt>
      <trkpt lat="47.46125" lon="6.74233">
        <ele>417</ele>
        <time>2016-12-18T10:24:07.999Z</time>
      </trkpt>
      <trkpt lat="47.46129" lon="6.74233">
        <ele>417</ele>
        <time>2016-12-18T10:24:08.999Z</time>
      </trkpt>
      <trkpt lat="47.46133" lon="6.74233">
        <ele>417</ele>
        <time>2016-12-18T10:24:09.999Z</time>
      </trkpt>
      <trkpt lat="47.46136" lon="6.74233">
        <ele>417</ele>
        <time>2016-12-18T10:24:10.999Z</time>
      </trkpt>
      <trkpt lat="47.46138" lon="6.74233">
        <ele>417</ele>
        <time>2016-12-18T10:24:11.999Z</time>
      </trkpt>
      <trkpt lat="47.46141" lon="6.74234">
        <ele>417</ele>
        <time>2016-12-18T10:24:12.999Z</time>
      </trkpt>
      <trkpt lat="47.46144" lon="6.74235">
        <ele>417</ele>
        <time>2016-12-18T10:24:13.999Z</time>
      </trkpt>
      <trkpt lat="47.46149" lon="6.74238">
        <ele>417</ele>
        <time>2016-12-18T10:24:14.999Z</time>
      </trkpt>
      <trkpt lat="47.46153" lon="6.74241">
        <ele>417</ele>
        <time>2016-12-18T10:24:15.999Z</time>
      </trkpt>
      <trkpt lat="47.46157" lon="6.74241">
        <ele>416</ele>
        <time>2016-12-18T10:24:16.999Z</time>
      </trkpt>
      <trkpt lat="47.46159" lon="6.74242">
        <ele>416</ele>
        <time>2016-12-18T10:24:17.999Z</time>
      </trkpt>
      <trkpt lat="47.46162" lon="6.74244">
        <ele>416</ele>
        <time>2016-12-18T10:24:18.999Z</time>
      </trkpt>
      <trkpt lat="47.46167" lon="6.74245">
        <ele>415</ele>
        <time>2016-12-18T10:24:19.999Z</time>
      </trkpt>
      <trkpt lat="47.46171" lon="6.74246">
        <ele>415</ele>
        <time>2016-12-18T10:24:20.999Z</time>
      </trkpt>
      <trkpt lat="47.46173" lon="6.74248">
        <ele>415</ele>
        <time>2016-12-18T10:24:21.999Z</time>
      </trkpt>
      <trkpt lat="47.46178" lon="6.7425">
        <ele>416</ele>
        <time>2016-12-18T10:24:23.999Z</time>
      </trkpt>
      <trkpt lat="47.46181" lon="6.74252">
        <ele>411</ele>
        <time>2016-12-18T10:24:24.999Z</time>
      </trkpt>
      <trkpt lat="47.46183" lon="6.74254">
        <ele>410</ele>
        <time>2016-12-18T10:24:25.999Z</time>
      </trkpt>
      <trkpt lat="47.46185" lon="6.74255">
        <ele>410</ele>
        <time>2016-12-18T10:24:26.999Z</time>
      </trkpt>
      <trkpt lat="47.46188" lon="6.74257">
        <ele>409</ele>
        <time>2016-12-18T10:24:27.999Z</time>
      </trkpt>
      <trkpt lat="47.46191" lon="6.74259">
        <ele>409</ele>
        <time>2016-12-18T10:24:28.999Z</time>
      </trkpt>
      <trkpt lat="47.46194" lon="6.7426">
        <ele>409</ele>
        <time>2016-12-18T10:24:29.999Z</time>
      </trkpt>
      <trkpt lat="47.46196" lon="6.74262">
        <ele>408</ele>
        <time>2016-12-18T10:24:30.999Z</time>
      </trkpt>
      <trkpt lat="47.46199" lon="6.74263">
        <ele>408</ele>
        <time>2016-12-18T10:24:31.999Z</time>
      </trkpt>
      <trkpt lat="47.46203" lon="6.74262">
        <ele>408</ele>
        <time>2016-12-18T10:24:32.999Z</time>
      </trkpt>
      <trkpt lat="47.46207" lon="6.74264">
        <ele>408</ele>
        <time>2016-12-18T10:24:34.999Z</time>
      </trkpt>
      <trkpt lat="47.4621" lon="6.74264">
        <ele>408</ele>
        <time>2016-12-18T10:24:35.999Z</time>
      </trkpt>
      <trkpt lat="47.46213" lon="6.74267">
        <ele>407</ele>
        <time>2016-12-18T10:24:36.999Z</time>
      </trkpt>
      <trkpt lat="47.46216" lon="6.74269">
        <ele>407</ele>
        <time>2016-12-18T10:24:37.999Z</time>
      </trkpt>
      <trkpt lat="47.46219" lon="6.7427">
        <ele>407</ele>
        <time>2016-12-18T10:24:38.999Z</time>
      </trkpt>
      <trkpt lat="47.46222" lon="6.74272">
        <ele>407</ele>
        <time>2016-12-18T10:24:39.999Z</time>
      </trkpt>
      <trkpt lat="47.46225" lon="6.74272">
        <ele>407</ele>
        <time>2016-12-18T10:24:40.999Z</time>
      </trkpt>
      <trkpt lat="47.46227" lon="6.74272">
        <ele>407</ele>
        <time>2016-12-18T10:24:41.999Z</time>
      </trkpt>
      <trkpt lat="47.4623" lon="6.74272">
        <ele>407</ele>
        <time>2016-12-18T10:24:42.999Z</time>
      </trkpt>
      <trkpt lat="47.46234" lon="6.74275">
        <ele>407</ele>
        <time>2016-12-18T10:24:43.999Z</time>
      </trkpt>
      <trkpt lat="47.46238" lon="6.74279">
        <ele>407</ele>
        <time>2016-12-18T10:24:44.999Z</time>
      </trkpt>
      <trkpt lat="47.46241" lon="6.74284">
        <ele>406</ele>
        <time>2016-12-18T10:24:45.999Z</time>
      </trkpt>
      <trkpt lat="47.46243" lon="6.74287">
        <ele>406</ele>
        <time>2016-12-18T10:24:46.999Z</time>
      </trkpt>
      <trkpt lat="47.46249" lon="6.74288">
        <ele>406</ele>
        <time>2016-12-18T10:24:47.999Z</time>
      </trkpt>
      <trkpt lat="47.46253" lon="6.7429">
        <ele>407</ele>
        <time>2016-12-18T10:24:49.999Z</time>
      </trkpt>
      <trkpt lat="47.46253" lon="6.7429">
        <ele>407</ele>
        <time>2016-12-18T10:24:50.999Z</time>
      </trkpt>
      <trkpt lat="47.46257" lon="6.74288">
        <ele>407</ele>
        <time>2016-12-18T10:24:52.999Z</time>
      </trkpt>
      <trkpt lat="47.4626" lon="6.74289">
        <ele>407</ele>
        <time>2016-12-18T10:24:53.999Z</time>
      </trkpt>
      <trkpt lat="47.46263" lon="6.74293">
        <ele>407</ele>
        <time>2016-12-18T10:24:54.999Z</time>
      </trkpt>
      <trkpt lat="47.46269" lon="6.74297">
        <ele>406</ele>
        <time>2016-12-18T10:24:55.999Z</time>
      </trkpt>
      <trkpt lat="47.46275" lon="6.74299">
        <ele>406</ele>
        <time>2016-12-18T10:24:56.999Z</time>
      </trkpt>
      <trkpt lat="47.46279" lon="6.743">
        <ele>406</ele>
        <time>2016-12-18T10:24:57.999Z</time>
      </trkpt>
      <trkpt lat="47.46283" lon="6.74302">
        <ele>406</ele>
        <time>2016-12-18T10:24:58.999Z</time>
      </trkpt>
      <trkpt lat="47.46287" lon="6.74304">
        <ele>406</ele>
        <time>2016-12-18T10:24:59.999Z</time>
      </trkpt>
      <trkpt lat="47.46291" lon="6.74304">
        <ele>406</ele>
        <time>2016-12-18T10:25:00.999Z</time>
      </trkpt>
      <trkpt lat="47.46294" lon="6.74305">
        <ele>406</ele>
        <time>2016-12-18T10:25:01.999Z</time>
      </trkpt>
      <trkpt lat="47.46298" lon="6.74305">
        <ele>406</ele>
        <time>2016-12-18T10:25:02.999Z</time>
      </trkpt>
      <trkpt lat="47.46301" lon="6.74305">
        <ele>407</ele>
        <time>2016-12-18T10:25:03.999Z</time>
      </trkpt>
      <trkpt lat="47.46305" lon="6.74306">
        <ele>407</ele>
        <time>2016-12-18T10:25:04.999Z</time>
      </trkpt>
      <trkpt lat="47.46308" lon="6.74306">
        <ele>407</ele>
        <time>2016-12-18T10:25:05.999Z</time>
      </trkpt>
      <trkpt lat="47.46312" lon="6.74308">
        <ele>406</ele>
        <time>2016-12-18T10:25:06.999Z</time>
      </trkpt>
      <trkpt lat="47.46316" lon="6.74309">
        <ele>406</ele>
        <time>2016-12-18T10:25:07.999Z</time>
      </trkpt>
      <trkpt lat="47.4632" lon="6.74309">
        <ele>406</ele>
        <time>2016-12-18T10:25:08.999Z</time>
      </trkpt>
      <trkpt lat="47.46324" lon="6.7431">
        <ele>406</ele>
        <time>2016-12-18T10:25:09.999Z</time>
      </trkpt>
      <trkpt lat="47.46327" lon="6.74311">
        <ele>406</ele>
        <time>2016-12-18T10:25:10.999Z</time>
      </trkpt>
      <trkpt lat="47.4633" lon="6.74313">
        <ele>406</ele>
        <time>2016-12-18T10:25:11.999Z</time>
      </trkpt>
      <trkpt lat="47.46333" lon="6.74314">
        <ele>406</ele>
        <time>2016-12-18T10:25:12.999Z</time>
      </trkpt>
      <trkpt lat="47.46337" lon="6.74317">
        <ele>406</ele>
        <time>2016-12-18T10:25:13.999Z</time>
      </trkpt>
      <trkpt lat="47.4634" lon="6.74319">
        <ele>406</ele>
        <time>2016-12-18T10:25:14.999Z</time>
      </trkpt>
      <trkpt lat="47.46344" lon="6.74323">
        <ele>406</ele>
        <time>2016-12-18T10:25:15.999Z</time>
      </trkpt>
      <trkpt lat="47.46348" lon="6.74325">
        <ele>406</ele>
        <time>2016-12-18T10:25:16.999Z</time>
      </trkpt>
      <trkpt lat="47.46351" lon="6.74325">
        <ele>406</ele>
        <time>2016-12-18T10:25:17.999Z</time>
      </trkpt>
      <trkpt lat="47.46355" lon="6.74326">
        <ele>406</ele>
        <time>2016-12-18T10:25:18.999Z</time>
      </trkpt>
      <trkpt lat="47.46357" lon="6.74328">
        <ele>406</ele>
        <time>2016-12-18T10:25:19.999Z</time>
      </trkpt>
      <trkpt lat="47.4636" lon="6.7433">
        <ele>406</ele>
        <time>2016-12-18T10:25:20.999Z</time>
      </trkpt>
      <trkpt lat="47.46364" lon="6.74332">
        <ele>407</ele>
        <time>2016-12-18T10:25:21.999Z</time>
      </trkpt>
      <trkpt lat="47.46368" lon="6.74335">
        <ele>398</ele>
        <time>2016-12-18T10:25:22.999Z</time>
      </trkpt>
      <trkpt lat="47.46372" lon="6.74338">
        <ele>398</ele>
        <time>2016-12-18T10:25:23.999Z</time>
      </trkpt>
      <trkpt lat="47.46376" lon="6.7434">
        <ele>398</ele>
        <time>2016-12-18T10:25:24.999Z</time>
      </trkpt>
      <trkpt lat="47.4638" lon="6.74343">
        <ele>398</ele>
        <time>2016-12-18T10:25:25.999Z</time>
      </trkpt>
      <trkpt lat="47.46383" lon="6.74345">
        <ele>398</ele>
        <time>2016-12-18T10:25:26.999Z</time>
      </trkpt>
      <trkpt lat="47.46386" lon="6.74346">
        <ele>398</ele>
        <time>2016-12-18T10:25:27.999Z</time>
      </trkpt>
      <trkpt lat="47.46389" lon="6.74346">
        <ele>398</ele>
        <time>2016-12-18T10:25:28.999Z</time>
      </trkpt>
      <trkpt lat="47.46392" lon="6.74347">
        <ele>398</ele>
        <time>2016-12-18T10:25:29.999Z</time>
      </trkpt>
      <trkpt lat="47.46395" lon="6.74348">
        <ele>399</ele>
        <time>2016-12-18T10:25:30.999Z</time>
      </trkpt>
      <trkpt lat="47.46398" lon="6.74351">
        <ele>398</ele>
        <time>2016-12-18T10:25:31.999Z</time>
      </trkpt>
      <trkpt lat="47.46401" lon="6.74353">
        <ele>398</ele>
        <time>2016-12-18T10:25:32.999Z</time>
      </trkpt>
      <trkpt lat="47.46404" lon="6.74356">
        <ele>398</ele>
        <time>2016-12-18T10:25:33.999Z</time>
      </trkpt>
      <trkpt lat="47.46407" lon="6.74359">
        <ele>398</ele>
        <time>2016-12-18T10:25:34.999Z</time>
      </trkpt>
      <trkpt lat="47.46411" lon="6.74363">
        <ele>397</ele>
        <time>2016-12-18T10:25:35.999Z</time>
      </trkpt>
      <trkpt lat="47.46415" lon="6.74369">
        <ele>396</ele>
        <time>2016-12-18T10:25:36.999Z</time>
      </trkpt>
      <trkpt lat="47.46419" lon="6.74372">
        <ele>400</ele>
        <time>2016-12-18T10:25:37.999Z</time>
      </trkpt>
      <trkpt lat="47.46422" lon="6.74374">
        <ele>399</ele>
        <time>2016-12-18T10:25:38.999Z</time>
      </trkpt>
      <trkpt lat="47.46426" lon="6.74378">
        <ele>399</ele>
        <time>2016-12-18T10:25:39.999Z</time>
      </trkpt>
      <trkpt lat="47.46429" lon="6.74383">
        <ele>398</ele>
        <time>2016-12-18T10:25:40.999Z</time>
      </trkpt>
      <trkpt lat="47.46433" lon="6.7439">
        <ele>398</ele>
        <time>2016-12-18T10:25:41.999Z</time>
      </trkpt>
      <trkpt lat="47.46438" lon="6.74395">
        <ele>397</ele>
        <time>2016-12-18T10:25:42.999Z</time>
      </trkpt>
      <trkpt lat="47.46443" lon="6.74398">
        <ele>398</ele>
        <time>2016-12-18T10:25:43.999Z</time>
      </trkpt>
      <trkpt lat="47.46446" lon="6.74402">
        <ele>398</ele>
        <time>2016-12-18T10:25:44.999Z</time>
      </trkpt>
      <trkpt lat="47.46451" lon="6.74406">
        <ele>398</ele>
        <time>2016-12-18T10:25:45.999Z</time>
      </trkpt>
      <trkpt lat="47.46455" lon="6.74409">
        <ele>398</ele>
        <time>2016-12-18T10:25:46.999Z</time>
      </trkpt>
      <trkpt lat="47.46458" lon="6.74417">
        <ele>398</ele>
        <time>2016-12-18T10:25:47.999Z</time>
      </trkpt>
      <trkpt lat="47.4646" lon="6.7442">
        <ele>389</ele>
        <time>2016-12-18T10:25:48.999Z</time>
      </trkpt>
      <trkpt lat="47.46462" lon="6.74423">
        <ele>389</ele>
        <time>2016-12-18T10:25:49.999Z</time>
      </trkpt>
      <trkpt lat="47.46466" lon="6.74424">
        <ele>390</ele>
        <time>2016-12-18T10:25:50.999Z</time>
      </trkpt>
      <trkpt lat="47.4647" lon="6.74426">
        <ele>390</ele>
        <time>2016-12-18T10:25:51.999Z</time>
      </trkpt>
      <trkpt lat="47.46472" lon="6.74432">
        <ele>390</ele>
        <time>2016-12-18T10:25:52.999Z</time>
      </trkpt>
      <trkpt lat="47.46474" lon="6.74433">
        <ele>390</ele>
        <time>2016-12-18T10:25:53.999Z</time>
      </trkpt>
      <trkpt lat="47.46476" lon="6.74436">
        <ele>390</ele>
        <time>2016-12-18T10:25:54.999Z</time>
      </trkpt>
      <trkpt lat="47.46478" lon="6.74438">
        <ele>390</ele>
        <time>2016-12-18T10:25:55.999Z</time>
      </trkpt>
      <trkpt lat="47.46482" lon="6.7444">
        <ele>390</ele>
        <time>2016-12-18T10:25:56.999Z</time>
      </trkpt>
      <trkpt lat="47.46483" lon="6.74444">
        <ele>389</ele>
        <time>2016-12-18T10:25:57.999Z</time>
      </trkpt>
      <trkpt lat="47.46484" lon="6.74447">
        <ele>389</ele>
        <time>2016-12-18T10:25:58.999Z</time>
      </trkpt>
      <trkpt lat="47.46487" lon="6.7445">
        <ele>389</ele>
        <time>2016-12-18T10:25:59.999Z</time>
      </trkpt>
      <trkpt lat="47.4649" lon="6.74453">
        <ele>388</ele>
        <time>2016-12-18T10:26:00.999Z</time>
      </trkpt>
      <trkpt lat="47.46492" lon="6.74457">
        <ele>388</ele>
        <time>2016-12-18T10:26:01.999Z</time>
      </trkpt>
      <trkpt lat="47.46496" lon="6.74456">
        <ele>388</ele>
        <time>2016-12-18T10:26:02.999Z</time>
      </trkpt>
      <trkpt lat="47.46499" lon="6.74458">
        <ele>388</ele>
        <time>2016-12-18T10:26:03.999Z</time>
      </trkpt>
      <trkpt lat="47.465" lon="6.74461">
        <ele>394</ele>
        <time>2016-12-18T10:26:04.999Z</time>
      </trkpt>
      <trkpt lat="47.46504" lon="6.74463">
        <ele>394</ele>
        <time>2016-12-18T10:26:05.999Z</time>
      </trkpt>
      <trkpt lat="47.46507" lon="6.74465">
        <ele>394</ele>
        <time>2016-12-18T10:26:06.999Z</time>
      </trkpt>
      <trkpt lat="47.46511" lon="6.74467">
        <ele>394</ele>
        <time>2016-12-18T10:26:07.999Z</time>
      </trkpt>
      <trkpt lat="47.46516" lon="6.74467">
        <ele>394</ele>
        <time>2016-12-18T10:26:08.999Z</time>
      </trkpt>
      <trkpt lat="47.46523" lon="6.74469">
        <ele>394</ele>
        <time>2016-12-18T10:26:09.999Z</time>
      </trkpt>
      <trkpt lat="47.46529" lon="6.7447">
        <ele>394</ele>
        <time>2016-12-18T10:26:10.999Z</time>
      </trkpt>
      <trkpt lat="47.46533" lon="6.74471">
        <ele>395</ele>
        <time>2016-12-18T10:26:11.999Z</time>
      </trkpt>
      <trkpt lat="47.46536" lon="6.74472">
        <ele>395</ele>
        <time>2016-12-18T10:26:12.999Z</time>
      </trkpt>
      <trkpt lat="47.4654" lon="6.74475">
        <ele>395</ele>
        <time>2016-12-18T10:26:13.999Z</time>
      </trkpt>
      <trkpt lat="47.46545" lon="6.74479">
        <ele>395</ele>
        <time>2016-12-18T10:26:14.999Z</time>
      </trkpt>
      <trkpt lat="47.46548" lon="6.74482">
        <ele>395</ele>
        <time>2016-12-18T10:26:15.999Z</time>
      </trkpt>
      <trkpt lat="47.46552" lon="6.74484">
        <ele>395</ele>
        <time>2016-12-18T10:26:16.999Z</time>
      </trkpt>
      <trkpt lat="47.46555" lon="6.74487">
        <ele>395</ele>
        <time>2016-12-18T10:26:17.999Z</time>
      </trkpt>
      <trkpt lat="47.46558" lon="6.74489">
        <ele>395</ele>
        <time>2016-12-18T10:26:18.999Z</time>
      </trkpt>
      <trkpt lat="47.4656" lon="6.74492">
        <ele>395</ele>
        <time>2016-12-18T10:26:19.999Z</time>
      </trkpt>
      <trkpt lat="47.46564" lon="6.74496">
        <ele>396</ele>
        <time>2016-12-18T10:26:20.999Z</time>
      </trkpt>
      <trkpt lat="47.46566" lon="6.74499">
        <ele>396</ele>
        <time>2016-12-18T10:26:21.999Z</time>
      </trkpt>
      <trkpt lat="47.46568" lon="6.74503">
        <ele>389</ele>
        <time>2016-12-18T10:26:22.999Z</time>
      </trkpt>
      <trkpt lat="47.46572" lon="6.7451">
        <ele>389</ele>
        <time>2016-12-18T10:26:23.999Z</time>
      </trkpt>
      <trkpt lat="47.46574" lon="6.74514">
        <ele>389</ele>
        <time>2016-12-18T10:26:24.999Z</time>
      </trkpt>
      <trkpt lat="47.46576" lon="6.74517">
        <ele>388</ele>
        <time>2016-12-18T10:26:25.999Z</time>
      </trkpt>
      <trkpt lat="47.46579" lon="6.7452">
        <ele>388</ele>
        <time>2016-12-18T10:26:26.999Z</time>
      </trkpt>
      <trkpt lat="47.46582" lon="6.74525">
        <ele>387</ele>
        <time>2016-12-18T10:26:27.999Z</time>
      </trkpt>
      <trkpt lat="47.46585" lon="6.74529">
        <ele>392</ele>
        <time>2016-12-18T10:26:28.999Z</time>
      </trkpt>
      <trkpt lat="47.46589" lon="6.74536">
        <ele>391</ele>
        <time>2016-12-18T10:26:29.999Z</time>
      </trkpt>
      <trkpt lat="47.46594" lon="6.74543">
        <ele>390</ele>
        <time>2016-12-18T10:26:30.999Z</time>
      </trkpt>
      <trkpt lat="47.46597" lon="6.74546">
        <ele>390</ele>
        <time>2016-12-18T10:26:31.999Z</time>
      </trkpt>
      <trkpt lat="47.466" lon="6.74549">
        <ele>390</ele>
        <time>2016-12-18T10:26:32.999Z</time>
      </trkpt>
      <trkpt lat="47.46603" lon="6.74554">
        <ele>389</ele>
        <time>2016-12-18T10:26:33.999Z</time>
      </trkpt>
      <trkpt lat="47.46605" lon="6.74561">
        <ele>388</ele>
        <time>2016-12-18T10:26:34.999Z</time>
      </trkpt>
      <trkpt lat="47.46609" lon="6.74564">
        <ele>388</ele>
        <time>2016-12-18T10:26:35.999Z</time>
      </trkpt>
      <trkpt lat="47.46615" lon="6.74569">
        <ele>389</ele>
        <time>2016-12-18T10:26:36.999Z</time>
      </trkpt>
      <trkpt lat="47.46618" lon="6.74572">
        <ele>389</ele>
        <time>2016-12-18T10:26:37.999Z</time>
      </trkpt>
      <trkpt lat="47.46622" lon="6.74575">
        <ele>389</ele>
        <time>2016-12-18T10:26:38.999Z</time>
      </trkpt>
      <trkpt lat="47.46625" lon="6.74578">
        <ele>389</ele>
        <time>2016-12-18T10:26:39.999Z</time>
      </trkpt>
      <trkpt lat="47.46628" lon="6.74582">
        <ele>389</ele>
        <time>2016-12-18T10:26:40.999Z</time>
      </trkpt>
      <trkpt lat="47.4663" lon="6.74587">
        <ele>377</ele>
        <time>2016-12-18T10:26:41.999Z</time>
      </trkpt>
      <trkpt lat="47.46635" lon="6.74594">
        <ele>377</ele>
        <time>2016-12-18T10:26:42.999Z</time>
      </trkpt>
      <trkpt lat="47.46638" lon="6.74598">
        <ele>377</ele>
        <time>2016-12-18T10:26:43.999Z</time>
      </trkpt>
      <trkpt lat="47.46641" lon="6.74602">
        <ele>377</ele>
        <time>2016-12-18T10:26:44.999Z</time>
      </trkpt>
      <trkpt lat="47.46644" lon="6.74605">
        <ele>377</ele>
        <time>2016-12-18T10:26:45.999Z</time>
      </trkpt>
      <trkpt lat="47.46647" lon="6.74608">
        <ele>377</ele>
        <time>2016-12-18T10:26:46.999Z</time>
      </trkpt>
      <trkpt lat="47.4665" lon="6.7461">
        <ele>377</ele>
        <time>2016-12-18T10:26:47.999Z</time>
      </trkpt>
      <trkpt lat="47.46652" lon="6.74612">
        <ele>376</ele>
        <time>2016-12-18T10:26:48.999Z</time>
      </trkpt>
      <trkpt lat="47.46655" lon="6.74614">
        <ele>376</ele>
        <time>2016-12-18T10:26:49.999Z</time>
      </trkpt>
      <trkpt lat="47.46657" lon="6.74616">
        <ele>376</ele>
        <time>2016-12-18T10:26:50.999Z</time>
      </trkpt>
      <trkpt lat="47.46659" lon="6.7462">
        <ele>375</ele>
        <time>2016-12-18T10:26:52.999Z</time>
      </trkpt>
      <trkpt lat="47.4666" lon="6.74622">
        <ele>375</ele>
        <time>2016-12-18T10:26:53.999Z</time>
      </trkpt>
      <trkpt lat="47.46658" lon="6.74627">
        <ele>374</ele>
        <time>2016-12-18T10:26:56.999Z</time>
      </trkpt>
      <trkpt lat="47.46657" lon="6.74629">
        <ele>373</ele>
        <time>2016-12-18T10:26:57.999Z</time>
      </trkpt>
      <trkpt lat="47.46656" lon="6.74633">
        <ele>372</ele>
        <time>2016-12-18T10:26:59.999Z</time>
      </trkpt>
      <trkpt lat="47.46655" lon="6.74636">
        <ele>372</ele>
        <time>2016-12-18T10:27:00.999Z</time>
      </trkpt>
      <trkpt lat="47.46655" lon="6.7464">
        <ele>371</ele>
        <time>2016-12-18T10:27:01.999Z</time>
      </trkpt>
      <trkpt lat="47.46654" lon="6.74643">
        <ele>371</ele>
        <time>2016-12-18T10:27:02.999Z</time>
      </trkpt>
      <trkpt lat="47.46653" lon="6.74646">
        <ele>370</ele>
        <time>2016-12-18T10:27:03.999Z</time>
      </trkpt>
      <trkpt lat="47.46652" lon="6.74649">
        <ele>370</ele>
        <time>2016-12-18T10:27:04.999Z</time>
      </trkpt>
      <trkpt lat="47.46651" lon="6.74654">
        <ele>369</ele>
        <time>2016-12-18T10:27:07.999Z</time>
      </trkpt>
      <trkpt lat="47.46651" lon="6.74656">
        <ele>369</ele>
        <time>2016-12-18T10:27:08.999Z</time>
      </trkpt>
      <trkpt lat="47.4665" lon="6.74661">
        <ele>368</ele>
        <time>2016-12-18T10:27:11.999Z</time>
      </trkpt>
      <trkpt lat="47.46651" lon="6.74668">
        <ele>362</ele>
        <time>2016-12-18T10:27:12.999Z</time>
      </trkpt>
      <trkpt lat="47.46655" lon="6.74679">
        <ele>362</ele>
        <time>2016-12-18T10:27:13.999Z</time>
      </trkpt>
      <trkpt lat="47.46662" lon="6.74693">
        <ele>361</ele>
        <time>2016-12-18T10:27:14.999Z</time>
      </trkpt>
      <trkpt lat="47.46668" lon="6.74708">
        <ele>358</ele>
        <time>2016-12-18T10:27:15.999Z</time>
      </trkpt>
      <trkpt lat="47.46669" lon="6.7471">
        <ele>357</ele>
        <time>2016-12-18T10:27:17.999Z</time>
      </trkpt>
      <trkpt lat="47.46671" lon="6.74715">
        <ele>357</ele>
        <time>2016-12-18T10:27:18.999Z</time>
      </trkpt>
      <trkpt lat="47.46673" lon="6.74721">
        <ele>357</ele>
        <time>2016-12-18T10:27:19.999Z</time>
      </trkpt>
      <trkpt lat="47.46677" lon="6.74728">
        <ele>356</ele>
        <time>2016-12-18T10:27:20.999Z</time>
      </trkpt>
      <trkpt lat="47.4668" lon="6.74736">
        <ele>356</ele>
        <time>2016-12-18T10:27:21.999Z</time>
      </trkpt>
      <trkpt lat="47.46684" lon="6.74745">
        <ele>355</ele>
        <time>2016-12-18T10:27:22.999Z</time>
      </trkpt>
      <trkpt lat="47.46689" lon="6.74753">
        <ele>354</ele>
        <time>2016-12-18T10:27:23.999Z</time>
      </trkpt>
      <trkpt lat="47.46691" lon="6.74759">
        <ele>354</ele>
        <time>2016-12-18T10:27:24.999Z</time>
      </trkpt>
      <trkpt lat="47.46692" lon="6.74765">
        <ele>354</ele>
        <time>2016-12-18T10:27:25.999Z</time>
      </trkpt>
      <trkpt lat="47.46692" lon="6.74769">
        <ele>354</ele>
        <time>2016-12-18T10:27:30.999Z</time>
      </trkpt>
      <trkpt lat="47.46693" lon="6.74773">
        <ele>354</ele>
        <time>2016-12-18T10:27:31.999Z</time>
      </trkpt>
      <trkpt lat="47.46693" lon="6.74779">
        <ele>354</ele>
        <time>2016-12-18T10:27:32.999Z</time>
      </trkpt>
      <trkpt lat="47.46694" lon="6.74785">
        <ele>354</ele>
        <time>2016-12-18T10:27:33.999Z</time>
      </trkpt>
      <trkpt lat="47.46695" lon="6.74789">
        <ele>354</ele>
        <time>2016-12-18T10:27:35.999Z</time>
      </trkpt>
      <trkpt lat="47.46697" lon="6.74792">
        <ele>354</ele>
        <time>2016-12-18T10:27:36.999Z</time>
      </trkpt>
      <trkpt lat="47.46698" lon="6.74796">
        <ele>354</ele>
        <time>2016-12-18T10:27:37.999Z</time>
      </trkpt>
      <trkpt lat="47.467" lon="6.748">
        <ele>355</ele>
        <time>2016-12-18T10:27:38.999Z</time>
      </trkpt>
      <trkpt lat="47.46701" lon="6.74804">
        <ele>355</ele>
        <time>2016-12-18T10:27:39.999Z</time>
      </trkpt>
      <trkpt lat="47.46702" lon="6.74807">
        <ele>355</ele>
        <time>2016-12-18T10:27:40.999Z</time>
      </trkpt>
      <trkpt lat="47.46703" lon="6.74811">
        <ele>355</ele>
        <time>2016-12-18T10:27:41.999Z</time>
      </trkpt>
      <trkpt lat="47.46704" lon="6.74815">
        <ele>355</ele>
        <time>2016-12-18T10:27:42.999Z</time>
      </trkpt>
      <trkpt lat="47.46705" lon="6.7482">
        <ele>355</ele>
        <time>2016-12-18T10:27:44.999Z</time>
      </trkpt>
      <trkpt lat="47.46705" lon="6.74822">
        <ele>355</ele>
        <time>2016-12-18T10:27:45.999Z</time>
      </trkpt>
      <trkpt lat="47.46704" lon="6.74827">
        <ele>355</ele>
        <time>2016-12-18T10:27:47.999Z</time>
      </trkpt>
      <trkpt lat="47.46703" lon="6.7483">
        <ele>355</ele>
        <time>2016-12-18T10:27:48.999Z</time>
      </trkpt>
      <trkpt lat="47.46701" lon="6.74834">
        <ele>358</ele>
        <time>2016-12-18T10:27:50.999Z</time>
      </trkpt>
      <trkpt lat="47.467" lon="6.74835">
        <ele>358</ele>
        <time>2016-12-18T10:27:51.999Z</time>
      </trkpt>
      <trkpt lat="47.46697" lon="6.74837">
        <ele>359</ele>
        <time>2016-12-18T10:27:53.999Z</time>
      </trkpt>
      <trkpt lat="47.46692" lon="6.74837">
        <ele>359</ele>
        <time>2016-12-18T10:27:54.999Z</time>
      </trkpt>
      <trkpt lat="47.46688" lon="6.74838">
        <ele>360</ele>
        <time>2016-12-18T10:27:56.999Z</time>
      </trkpt>
      <trkpt lat="47.46686" lon="6.74837">
        <ele>360</ele>
        <time>2016-12-18T10:27:57.999Z</time>
      </trkpt>
      <trkpt lat="47.46682" lon="6.74835">
        <ele>361</ele>
        <time>2016-12-18T10:28:00.999Z</time>
      </trkpt>
      <trkpt lat="47.46681" lon="6.74835">
        <ele>361</ele>
        <time>2016-12-18T10:28:01.999Z</time>
      </trkpt>
      <trkpt lat="47.46677" lon="6.74833">
        <ele>362</ele>
        <time>2016-12-18T10:28:05.999Z</time>
      </trkpt>
      <trkpt lat="47.46676" lon="6.74833">
        <ele>361</ele>
        <time>2016-12-18T10:28:06.999Z</time>
      </trkpt>
      <trkpt lat="47.46672" lon="6.74832">
        <ele>362</ele>
        <time>2016-12-18T10:28:08.999Z</time>
      </trkpt>
      <trkpt lat="47.4667" lon="6.74832">
        <ele>363</ele>
        <time>2016-12-18T10:28:09.999Z</time>
      </trkpt>
      <trkpt lat="47.46667" lon="6.74831">
        <ele>364</ele>
        <time>2016-12-18T10:28:11.999Z</time>
      </trkpt>
      <trkpt lat="47.46665" lon="6.74831">
        <ele>364</ele>
        <time>2016-12-18T10:28:12.999Z</time>
      </trkpt>
      <trkpt lat="47.46661" lon="6.74829">
        <ele>364</ele>
        <time>2016-12-18T10:28:15.999Z</time>
      </trkpt>
      <trkpt lat="47.46659" lon="6.74828">
        <ele>364</ele>
        <time>2016-12-18T10:28:16.999Z</time>
      </trkpt>
      <trkpt lat="47.46657" lon="6.74827">
        <ele>364</ele>
        <time>2016-12-18T10:28:17.999Z</time>
      </trkpt>
      <trkpt lat="47.46655" lon="6.74826">
        <ele>364</ele>
        <time>2016-12-18T10:28:18.999Z</time>
      </trkpt>
      <trkpt lat="47.46651" lon="6.74825">
        <ele>364</ele>
        <time>2016-12-18T10:28:20.999Z</time>
      </trkpt>
      <trkpt lat="47.46649" lon="6.74825">
        <ele>364</ele>
        <time>2016-12-18T10:28:21.999Z</time>
      </trkpt>
      <trkpt lat="47.46645" lon="6.74824">
        <ele>364</ele>
        <time>2016-12-18T10:28:23.999Z</time>
      </trkpt>
      <trkpt lat="47.46643" lon="6.74824">
        <ele>364</ele>
        <time>2016-12-18T10:28:24.999Z</time>
      </trkpt>
      <trkpt lat="47.4664" lon="6.74824">
        <ele>365</ele>
        <time>2016-12-18T10:28:25.999Z</time>
      </trkpt>
      <trkpt lat="47.46638" lon="6.74825">
        <ele>365</ele>
        <time>2016-12-18T10:28:26.999Z</time>
      </trkpt>
      <trkpt lat="47.46635" lon="6.74826">
        <ele>365</ele>
        <time>2016-12-18T10:28:28.999Z</time>
      </trkpt>
      <trkpt lat="47.46634" lon="6.74827">
        <ele>365</ele>
        <time>2016-12-18T10:28:29.999Z</time>
      </trkpt>
      <trkpt lat="47.46633" lon="6.74831">
        <ele>365</ele>
        <time>2016-12-18T10:28:32.999Z</time>
      </trkpt>
      <trkpt lat="47.46633" lon="6.74833">
        <ele>365</ele>
        <time>2016-12-18T10:28:33.999Z</time>
      </trkpt>
      <trkpt lat="47.46634" lon="6.74837">
        <ele>369</ele>
        <time>2016-12-18T10:28:35.999Z</time>
      </trkpt>
      <trkpt lat="47.46635" lon="6.7484">
        <ele>369</ele>
        <time>2016-12-18T10:28:36.999Z</time>
      </trkpt>
      <trkpt lat="47.46637" lon="6.74845">
        <ele>369</ele>
        <time>2016-12-18T10:28:38.999Z</time>
      </trkpt>
      <trkpt lat="47.46638" lon="6.74847">
        <ele>369</ele>
        <time>2016-12-18T10:28:39.999Z</time>
      </trkpt>
      <trkpt lat="47.4664" lon="6.74852">
        <ele>369</ele>
        <time>2016-12-18T10:28:41.999Z</time>
      </trkpt>
      <trkpt lat="47.46642" lon="6.74855">
        <ele>368</ele>
        <time>2016-12-18T10:28:42.999Z</time>
      </trkpt>
      <trkpt lat="47.46643" lon="6.74858">
        <ele>369</ele>
        <time>2016-12-18T10:28:43.999Z</time>
      </trkpt>
      <trkpt lat="47.46644" lon="6.74861">
        <ele>369</ele>
        <time>2016-12-18T10:28:44.999Z</time>
      </trkpt>
      <trkpt lat="47.46647" lon="6.74866">
        <ele>369</ele>
        <time>2016-12-18T10:28:45.999Z</time>
      </trkpt>
      <trkpt lat="47.46649" lon="6.7487">
        <ele>368</ele>
        <time>2016-12-18T10:28:46.999Z</time>
      </trkpt>
      <trkpt lat="47.46651" lon="6.74876">
        <ele>368</ele>
        <time>2016-12-18T10:28:48.999Z</time>
      </trkpt>
      <trkpt lat="47.46652" lon="6.74879">
        <ele>368</ele>
        <time>2016-12-18T10:28:49.999Z</time>
      </trkpt>
      <trkpt lat="47.46654" lon="6.74882">
        <ele>368</ele>
        <time>2016-12-18T10:28:50.999Z</time>
      </trkpt>
      <trkpt lat="47.46655" lon="6.74886">
        <ele>368</ele>
        <time>2016-12-18T10:28:51.999Z</time>
      </trkpt>
      <trkpt lat="47.46656" lon="6.74889">
        <ele>368</ele>
        <time>2016-12-18T10:28:52.999Z</time>
      </trkpt>
      <trkpt lat="47.46658" lon="6.74892">
        <ele>368</ele>
        <time>2016-12-18T10:28:53.999Z</time>
      </trkpt>
      <trkpt lat="47.4666" lon="6.74896">
        <ele>368</ele>
        <time>2016-12-18T10:28:54.999Z</time>
      </trkpt>
      <trkpt lat="47.46662" lon="6.74901">
        <ele>367</ele>
        <time>2016-12-18T10:28:55.999Z</time>
      </trkpt>
      <trkpt lat="47.46663" lon="6.74907">
        <ele>367</ele>
        <time>2016-12-18T10:28:57.999Z</time>
      </trkpt>
      <trkpt lat="47.46665" lon="6.7491">
        <ele>366</ele>
        <time>2016-12-18T10:28:58.999Z</time>
      </trkpt>
      <trkpt lat="47.46665" lon="6.74913">
        <ele>366</ele>
        <time>2016-12-18T10:28:59.999Z</time>
      </trkpt>
      <trkpt lat="47.46666" lon="6.74916">
        <ele>365</ele>
        <time>2016-12-18T10:29:00.999Z</time>
      </trkpt>
      <trkpt lat="47.46668" lon="6.74922">
        <ele>364</ele>
        <time>2016-12-18T10:29:02.999Z</time>
      </trkpt>
      <trkpt lat="47.46669" lon="6.74924">
        <ele>364</ele>
        <time>2016-12-18T10:29:03.999Z</time>
      </trkpt>
      <trkpt lat="47.46671" lon="6.74926">
        <ele>364</ele>
        <time>2016-12-18T10:29:05.999Z</time>
      </trkpt>
      <trkpt lat="47.46673" lon="6.74927">
        <ele>363</ele>
        <time>2016-12-18T10:29:06.999Z</time>
      </trkpt>
      <trkpt lat="47.46675" lon="6.7493">
        <ele>363</ele>
        <time>2016-12-18T10:29:09.999Z</time>
      </trkpt>
      <trkpt lat="47.46678" lon="6.74933">
        <ele>363</ele>
        <time>2016-12-18T10:29:10.999Z</time>
      </trkpt>
      <trkpt lat="47.46679" lon="6.74935">
        <ele>363</ele>
        <time>2016-12-18T10:29:11.999Z</time>
      </trkpt>
      <trkpt lat="47.46681" lon="6.74939">
        <ele>362</ele>
        <time>2016-12-18T10:29:12.999Z</time>
      </trkpt>
      <trkpt lat="47.46682" lon="6.74943">
        <ele>362</ele>
        <time>2016-12-18T10:29:14.999Z</time>
      </trkpt>
      <trkpt lat="47.46683" lon="6.74945">
        <ele>362</ele>
        <time>2016-12-18T10:29:15.999Z</time>
      </trkpt>
      <trkpt lat="47.46685" lon="6.74951">
        <ele>362</ele>
        <time>2016-12-18T10:29:17.999Z</time>
      </trkpt>
      <trkpt lat="47.46686" lon="6.74953">
        <ele>362</ele>
        <time>2016-12-18T10:29:18.999Z</time>
      </trkpt>
      <trkpt lat="47.46689" lon="6.74957">
        <ele>362</ele>
        <time>2016-12-18T10:29:20.999Z</time>
      </trkpt>
      <trkpt lat="47.46691" lon="6.74959">
        <ele>362</ele>
        <time>2016-12-18T10:29:21.999Z</time>
      </trkpt>
      <trkpt lat="47.46692" lon="6.74962">
        <ele>362</ele>
        <time>2016-12-18T10:29:22.999Z</time>
      </trkpt>
      <trkpt lat="47.46693" lon="6.74965">
        <ele>362</ele>
        <time>2016-12-18T10:29:23.999Z</time>
      </trkpt>
      <trkpt lat="47.46693" lon="6.74971">
        <ele>362</ele>
        <time>2016-12-18T10:29:24.999Z</time>
      </trkpt>
      <trkpt lat="47.46693" lon="6.74977">
        <ele>362</ele>
        <time>2016-12-18T10:29:25.999Z</time>
      </trkpt>
      <trkpt lat="47.46693" lon="6.7498">
        <ele>363</ele>
        <time>2016-12-18T10:29:26.999Z</time>
      </trkpt>
      <trkpt lat="47.46692" lon="6.74984">
        <ele>363</ele>
        <time>2016-12-18T10:29:27.999Z</time>
      </trkpt>
      <trkpt lat="47.46692" lon="6.7499">
        <ele>363</ele>
        <time>2016-12-18T10:29:29.999Z</time>
      </trkpt>
      <trkpt lat="47.46693" lon="6.74994">
        <ele>363</ele>
        <time>2016-12-18T10:29:30.999Z</time>
      </trkpt>
      <trkpt lat="47.46695" lon="6.74999">
        <ele>363</ele>
        <time>2016-12-18T10:29:32.999Z</time>
      </trkpt>
      <trkpt lat="47.46696" lon="6.74999">
        <ele>363</ele>
        <time>2016-12-18T10:29:33.999Z</time>
      </trkpt>
      <trkpt lat="47.46699" lon="6.75001">
        <ele>365</ele>
        <time>2016-12-18T10:29:35.999Z</time>
      </trkpt>
      <trkpt lat="47.467" lon="6.7501">
        <ele>364</ele>
        <time>2016-12-18T10:29:36.999Z</time>
      </trkpt>
      <trkpt lat="47.46701" lon="6.75018">
        <ele>364</ele>
        <time>2016-12-18T10:29:37.999Z</time>
      </trkpt>
      <trkpt lat="47.46701" lon="6.75024">
        <ele>364</ele>
        <time>2016-12-18T10:29:38.999Z</time>
      </trkpt>
      <trkpt lat="47.46702" lon="6.7503">
        <ele>364</ele>
        <time>2016-12-18T10:29:39.999Z</time>
      </trkpt>
      <trkpt lat="47.46702" lon="6.75033">
        <ele>364</ele>
        <time>2016-12-18T10:29:40.999Z</time>
      </trkpt>
      <trkpt lat="47.46702" lon="6.7504">
        <ele>365</ele>
        <time>2016-12-18T10:29:41.999Z</time>
      </trkpt>
      <trkpt lat="47.46702" lon="6.75047">
        <ele>365</ele>
        <time>2016-12-18T10:29:43.999Z</time>
      </trkpt>
      <trkpt lat="47.46702" lon="6.7505">
        <ele>365</ele>
        <time>2016-12-18T10:29:44.999Z</time>
      </trkpt>
      <trkpt lat="47.46705" lon="6.75054">
        <ele>365</ele>
        <time>2016-12-18T10:29:47.999Z</time>
      </trkpt>
      <trkpt lat="47.46706" lon="6.75055">
        <ele>364</ele>
        <time>2016-12-18T10:29:48.999Z</time>
      </trkpt>
      <trkpt lat="47.46708" lon="6.75057">
        <ele>364</ele>
        <time>2016-12-18T10:29:51.999Z</time>
      </trkpt>
      <trkpt lat="47.46709" lon="6.75062">
        <ele>364</ele>
        <time>2016-12-18T10:29:52.999Z</time>
      </trkpt>
      <trkpt lat="47.4671" lon="6.75067">
        <ele>364</ele>
        <time>2016-12-18T10:29:54.999Z</time>
      </trkpt>
      <trkpt lat="47.46711" lon="6.7507">
        <ele>364</ele>
        <time>2016-12-18T10:29:55.999Z</time>
      </trkpt>
      <trkpt lat="47.46711" lon="6.75076">
        <ele>364</ele>
        <time>2016-12-18T10:29:57.999Z</time>
      </trkpt>
      <trkpt lat="47.46711" lon="6.75079">
        <ele>364</ele>
        <time>2016-12-18T10:29:58.999Z</time>
      </trkpt>
      <trkpt lat="47.46709" lon="6.75084">
        <ele>366</ele>
        <time>2016-12-18T10:29:59.999Z</time>
      </trkpt>
      <trkpt lat="47.46708" lon="6.75089">
        <ele>366</ele>
        <time>2016-12-18T10:30:00.999Z</time>
      </trkpt>
      <trkpt lat="47.46708" lon="6.75094">
        <ele>366</ele>
        <time>2016-12-18T10:30:01.999Z</time>
      </trkpt>
      <trkpt lat="47.46709" lon="6.75099">
        <ele>366</ele>
        <time>2016-12-18T10:30:02.999Z</time>
      </trkpt>
      <trkpt lat="47.46709" lon="6.75103">
        <ele>366</ele>
        <time>2016-12-18T10:30:03.999Z</time>
      </trkpt>
      <trkpt lat="47.46709" lon="6.75108">
        <ele>366</ele>
        <time>2016-12-18T10:30:04.999Z</time>
      </trkpt>
      <trkpt lat="47.4671" lon="6.75111">
        <ele>366</ele>
        <time>2016-12-18T10:30:05.999Z</time>
      </trkpt>
      <trkpt lat="47.46709" lon="6.75115">
        <ele>366</ele>
        <time>2016-12-18T10:30:06.999Z</time>
      </trkpt>
      <trkpt lat="47.46707" lon="6.7512">
        <ele>367</ele>
        <time>2016-12-18T10:30:07.999Z</time>
      </trkpt>
      <trkpt lat="47.46707" lon="6.75123">
        <ele>367</ele>
        <time>2016-12-18T10:30:08.999Z</time>
      </trkpt>
      <trkpt lat="47.46708" lon="6.75127">
        <ele>367</ele>
        <time>2016-12-18T10:30:09.999Z</time>
      </trkpt>
      <trkpt lat="47.46707" lon="6.75131">
        <ele>367</ele>
        <time>2016-12-18T10:30:10.999Z</time>
      </trkpt>
      <trkpt lat="47.46705" lon="6.75134">
        <ele>367</ele>
        <time>2016-12-18T10:30:11.999Z</time>
      </trkpt>
      <trkpt lat="47.46705" lon="6.75137">
        <ele>367</ele>
        <time>2016-12-18T10:30:12.999Z</time>
      </trkpt>
      <trkpt lat="47.46704" lon="6.75141">
        <ele>367</ele>
        <time>2016-12-18T10:30:13.999Z</time>
      </trkpt>
      <trkpt lat="47.46705" lon="6.75145">
        <ele>367</ele>
        <time>2016-12-18T10:30:14.999Z</time>
      </trkpt>
      <trkpt lat="47.46706" lon="6.75149">
        <ele>367</ele>
        <time>2016-12-18T10:30:15.999Z</time>
      </trkpt>
      <trkpt lat="47.46706" lon="6.75153">
        <ele>367</ele>
        <time>2016-12-18T10:30:16.999Z</time>
      </trkpt>
      <trkpt lat="47.46705" lon="6.75157">
        <ele>367</ele>
        <time>2016-12-18T10:30:17.999Z</time>
      </trkpt>
      <trkpt lat="47.46705" lon="6.7516">
        <ele>367</ele>
        <time>2016-12-18T10:30:18.999Z</time>
      </trkpt>
      <trkpt lat="47.46704" lon="6.75166">
        <ele>368</ele>
        <time>2016-12-18T10:30:21.999Z</time>
      </trkpt>
      <trkpt lat="47.46704" lon="6.75169">
        <ele>367</ele>
        <time>2016-12-18T10:30:22.999Z</time>
      </trkpt>
      <trkpt lat="47.46705" lon="6.75173">
        <ele>367</ele>
        <time>2016-12-18T10:30:23.999Z</time>
      </trkpt>
      <trkpt lat="47.46707" lon="6.75181">
        <ele>367</ele>
        <time>2016-12-18T10:30:24.999Z</time>
      </trkpt>
      <trkpt lat="47.46707" lon="6.7519">
        <ele>366</ele>
        <time>2016-12-18T10:30:25.999Z</time>
      </trkpt>
      <trkpt lat="47.46708" lon="6.752">
        <ele>366</ele>
        <time>2016-12-18T10:30:26.999Z</time>
      </trkpt>
      <trkpt lat="47.46708" lon="6.75207">
        <ele>366</ele>
        <time>2016-12-18T10:30:27.999Z</time>
      </trkpt>
      <trkpt lat="47.46709" lon="6.75221">
        <ele>366</ele>
        <time>2016-12-18T10:30:28.999Z</time>
      </trkpt>
      <trkpt lat="47.46709" lon="6.75229">
        <ele>366</ele>
        <time>2016-12-18T10:30:29.999Z</time>
      </trkpt>
      <trkpt lat="47.4671" lon="6.75233">
        <ele>365</ele>
        <time>2016-12-18T10:30:30.999Z</time>
      </trkpt>
      <trkpt lat="47.4671" lon="6.75236">
        <ele>365</ele>
        <time>2016-12-18T10:30:31.999Z</time>
      </trkpt>
      <trkpt lat="47.4671" lon="6.7524">
        <ele>365</ele>
        <time>2016-12-18T10:30:32.999Z</time>
      </trkpt>
      <trkpt lat="47.4671" lon="6.75245">
        <ele>365</ele>
        <time>2016-12-18T10:30:33.999Z</time>
      </trkpt>
      <trkpt lat="47.46711" lon="6.7525">
        <ele>365</ele>
        <time>2016-12-18T10:30:36.999Z</time>
      </trkpt>
      <trkpt lat="47.46711" lon="6.75252">
        <ele>365</ele>
        <time>2016-12-18T10:30:37.999Z</time>
      </trkpt>
      <trkpt lat="47.46707" lon="6.75255">
        <ele>366</ele>
        <time>2016-12-18T10:30:39.999Z</time>
      </trkpt>
      <trkpt lat="47.46703" lon="6.75257">
        <ele>367</ele>
        <time>2016-12-18T10:30:40.999Z</time>
      </trkpt>
      <trkpt lat="47.467" lon="6.7526">
        <ele>367</ele>
        <time>2016-12-18T10:30:41.999Z</time>
      </trkpt>
      <trkpt lat="47.46699" lon="6.75262">
        <ele>368</ele>
        <time>2016-12-18T10:30:42.999Z</time>
      </trkpt>
      <trkpt lat="47.46698" lon="6.75266">
        <ele>368</ele>
        <time>2016-12-18T10:30:44.999Z</time>
      </trkpt>
      <trkpt lat="47.46698" lon="6.75269">
        <ele>368</ele>
        <time>2016-12-18T10:30:45.999Z</time>
      </trkpt>
      <trkpt lat="47.46698" lon="6.75274">
        <ele>368</ele>
        <time>2016-12-18T10:30:47.999Z</time>
      </trkpt>
      <trkpt lat="47.467" lon="6.75279">
        <ele>367</ele>
        <time>2016-12-18T10:30:48.999Z</time>
      </trkpt>
      <trkpt lat="47.46701" lon="6.75285">
        <ele>367</ele>
        <time>2016-12-18T10:30:49.999Z</time>
      </trkpt>
      <trkpt lat="47.46702" lon="6.75288">
        <ele>367</ele>
        <time>2016-12-18T10:30:50.999Z</time>
      </trkpt>
      <trkpt lat="47.46703" lon="6.75292">
        <ele>367</ele>
        <time>2016-12-18T10:30:51.999Z</time>
      </trkpt>
      <trkpt lat="47.46705" lon="6.75294">
        <ele>366</ele>
        <time>2016-12-18T10:30:52.999Z</time>
      </trkpt>
      <trkpt lat="47.46706" lon="6.75298">
        <ele>366</ele>
        <time>2016-12-18T10:30:53.999Z</time>
      </trkpt>
      <trkpt lat="47.46709" lon="6.75303">
        <ele>366</ele>
        <time>2016-12-18T10:30:54.999Z</time>
      </trkpt>
      <trkpt lat="47.46711" lon="6.75307">
        <ele>365</ele>
        <time>2016-12-18T10:30:55.999Z</time>
      </trkpt>
      <trkpt lat="47.46712" lon="6.75312">
        <ele>365</ele>
        <time>2016-12-18T10:30:56.999Z</time>
      </trkpt>
      <trkpt lat="47.46713" lon="6.75318">
        <ele>365</ele>
        <time>2016-12-18T10:30:57.999Z</time>
      </trkpt>
      <trkpt lat="47.46713" lon="6.75324">
        <ele>365</ele>
        <time>2016-12-18T10:30:58.999Z</time>
      </trkpt>
      <trkpt lat="47.46714" lon="6.75333">
        <ele>364</ele>
        <time>2016-12-18T10:30:59.999Z</time>
      </trkpt>
      <trkpt lat="47.46716" lon="6.7534">
        <ele>362</ele>
        <time>2016-12-18T10:31:00.999Z</time>
      </trkpt>
      <trkpt lat="47.46718" lon="6.75346">
        <ele>362</ele>
        <time>2016-12-18T10:31:01.999Z</time>
      </trkpt>
      <trkpt lat="47.46717" lon="6.75353">
        <ele>362</ele>
        <time>2016-12-18T10:31:02.999Z</time>
      </trkpt>
      <trkpt lat="47.46715" lon="6.75361">
        <ele>363</ele>
        <time>2016-12-18T10:31:03.999Z</time>
      </trkpt>
      <trkpt lat="47.46713" lon="6.75366">
        <ele>363</ele>
        <time>2016-12-18T10:31:04.999Z</time>
      </trkpt>
      <trkpt lat="47.46711" lon="6.75374">
        <ele>363</ele>
        <time>2016-12-18T10:31:05.999Z</time>
      </trkpt>
      <trkpt lat="47.46709" lon="6.75384">
        <ele>363</ele>
        <time>2016-12-18T10:31:06.999Z</time>
      </trkpt>
      <trkpt lat="47.46706" lon="6.75393">
        <ele>364</ele>
        <time>2016-12-18T10:31:07.999Z</time>
      </trkpt>
      <trkpt lat="47.46703" lon="6.75399">
        <ele>364</ele>
        <time>2016-12-18T10:31:08.999Z</time>
      </trkpt>
      <trkpt lat="47.46701" lon="6.75408">
        <ele>365</ele>
        <time>2016-12-18T10:31:09.999Z</time>
      </trkpt>
      <trkpt lat="47.46698" lon="6.75417">
        <ele>362</ele>
        <time>2016-12-18T10:31:10.999Z</time>
      </trkpt>
      <trkpt lat="47.46695" lon="6.75424">
        <ele>362</ele>
        <time>2016-12-18T10:31:11.999Z</time>
      </trkpt>
      <trkpt lat="47.46693" lon="6.75432">
        <ele>362</ele>
        <time>2016-12-18T10:31:12.999Z</time>
      </trkpt>
      <trkpt lat="47.46691" lon="6.7544">
        <ele>362</ele>
        <time>2016-12-18T10:31:13.999Z</time>
      </trkpt>
      <trkpt lat="47.4669" lon="6.75446">
        <ele>361</ele>
        <time>2016-12-18T10:31:14.999Z</time>
      </trkpt>
      <trkpt lat="47.46689" lon="6.75451">
        <ele>361</ele>
        <time>2016-12-18T10:31:15.999Z</time>
      </trkpt>
      <trkpt lat="47.46689" lon="6.75455">
        <ele>360</ele>
        <time>2016-12-18T10:31:16.999Z</time>
      </trkpt>
      <trkpt lat="47.46688" lon="6.75462">
        <ele>360</ele>
        <time>2016-12-18T10:31:17.999Z</time>
      </trkpt>
      <trkpt lat="47.46687" lon="6.75469">
        <ele>360</ele>
        <time>2016-12-18T10:31:18.999Z</time>
      </trkpt>
      <trkpt lat="47.46685" lon="6.75474">
        <ele>360</ele>
        <time>2016-12-18T10:31:20.999Z</time>
      </trkpt>
      <trkpt lat="47.46684" lon="6.75476">
        <ele>360</ele>
        <time>2016-12-18T10:31:21.999Z</time>
      </trkpt>
      <trkpt lat="47.46682" lon="6.75481">
        <ele>360</ele>
        <time>2016-12-18T10:31:22.999Z</time>
      </trkpt>
      <trkpt lat="47.4668" lon="6.75486">
        <ele>361</ele>
        <time>2016-12-18T10:31:23.999Z</time>
      </trkpt>
      <trkpt lat="47.46679" lon="6.75491">
        <ele>361</ele>
        <time>2016-12-18T10:31:25.999Z</time>
      </trkpt>
      <trkpt lat="47.46678" lon="6.75495">
        <ele>361</ele>
        <time>2016-12-18T10:31:26.999Z</time>
      </trkpt>
      <trkpt lat="47.46678" lon="6.75499">
        <ele>362</ele>
        <time>2016-12-18T10:31:27.999Z</time>
      </trkpt>
      <trkpt lat="47.46676" lon="6.75503">
        <ele>360</ele>
        <time>2016-12-18T10:31:28.999Z</time>
      </trkpt>
      <trkpt lat="47.46674" lon="6.75508">
        <ele>359</ele>
        <time>2016-12-18T10:31:29.999Z</time>
      </trkpt>
      <trkpt lat="47.46673" lon="6.75511">
        <ele>359</ele>
        <time>2016-12-18T10:31:30.999Z</time>
      </trkpt>
      <trkpt lat="47.46672" lon="6.75514">
        <ele>358</ele>
        <time>2016-12-18T10:31:31.999Z</time>
      </trkpt>
      <trkpt lat="47.46671" lon="6.75517">
        <ele>358</ele>
        <time>2016-12-18T10:31:32.999Z</time>
      </trkpt>
      <trkpt lat="47.4667" lon="6.7552">
        <ele>357</ele>
        <time>2016-12-18T10:31:33.999Z</time>
      </trkpt>
      <trkpt lat="47.46668" lon="6.75523">
        <ele>357</ele>
        <time>2016-12-18T10:31:34.999Z</time>
      </trkpt>
      <trkpt lat="47.46667" lon="6.75528">
        <ele>369</ele>
        <time>2016-12-18T10:31:36.999Z</time>
      </trkpt>
      <trkpt lat="47.46666" lon="6.7553">
        <ele>369</ele>
        <time>2016-12-18T10:31:37.999Z</time>
      </trkpt>
      <trkpt lat="47.46666" lon="6.75531">
        <ele>369</ele>
        <time>2016-12-18T10:31:39.999Z</time>
      </trkpt>
      <trkpt lat="47.46666" lon="6.75537">
        <ele>368</ele>
        <time>2016-12-18T10:31:40.999Z</time>
      </trkpt>
      <trkpt lat="47.46666" lon="6.75539">
        <ele>368</ele>
        <time>2016-12-18T10:31:41.999Z</time>
      </trkpt>
      <trkpt lat="47.46665" lon="6.75545">
        <ele>368</ele>
        <time>2016-12-18T10:31:42.999Z</time>
      </trkpt>
      <trkpt lat="47.46664" lon="6.75549">
        <ele>368</ele>
        <time>2016-12-18T10:31:43.999Z</time>
      </trkpt>
      <trkpt lat="47.46663" lon="6.75553">
        <ele>367</ele>
        <time>2016-12-18T10:31:44.999Z</time>
      </trkpt>
      <trkpt lat="47.46662" lon="6.75558">
        <ele>366</ele>
        <time>2016-12-18T10:31:46.999Z</time>
      </trkpt>
      <trkpt lat="47.46661" lon="6.75562">
        <ele>366</ele>
        <time>2016-12-18T10:31:47.999Z</time>
      </trkpt>
      <trkpt lat="47.46659" lon="6.75567">
        <ele>365</ele>
        <time>2016-12-18T10:31:49.999Z</time>
      </trkpt>
      <trkpt lat="47.46658" lon="6.75571">
        <ele>364</ele>
        <time>2016-12-18T10:31:50.999Z</time>
      </trkpt>
      <trkpt lat="47.46657" lon="6.75575">
        <ele>363</ele>
        <time>2016-12-18T10:31:51.999Z</time>
      </trkpt>
      <trkpt lat="47.46657" lon="6.75579">
        <ele>362</ele>
        <time>2016-12-18T10:31:52.999Z</time>
      </trkpt>
      <trkpt lat="47.46656" lon="6.75582">
        <ele>362</ele>
        <time>2016-12-18T10:31:53.999Z</time>
      </trkpt>
      <trkpt lat="47.46656" lon="6.75587">
        <ele>361</ele>
        <time>2016-12-18T10:31:54.999Z</time>
      </trkpt>
      <trkpt lat="47.46655" lon="6.75592">
        <ele>362</ele>
        <time>2016-12-18T10:31:55.999Z</time>
      </trkpt>
      <trkpt lat="47.46654" lon="6.75596">
        <ele>363</ele>
        <time>2016-12-18T10:31:56.999Z</time>
      </trkpt>
      <trkpt lat="47.46654" lon="6.756">
        <ele>364</ele>
        <time>2016-12-18T10:31:57.999Z</time>
      </trkpt>
      <trkpt lat="47.46653" lon="6.75605">
        <ele>364</ele>
        <time>2016-12-18T10:31:58.999Z</time>
      </trkpt>
      <trkpt lat="47.46652" lon="6.7561">
        <ele>365</ele>
        <time>2016-12-18T10:31:59.999Z</time>
      </trkpt>
      <trkpt lat="47.46652" lon="6.75614">
        <ele>366</ele>
        <time>2016-12-18T10:32:00.999Z</time>
      </trkpt>
      <trkpt lat="47.46651" lon="6.7562">
        <ele>366</ele>
        <time>2016-12-18T10:32:01.999Z</time>
      </trkpt>
      <trkpt lat="47.46652" lon="6.75624">
        <ele>366</ele>
        <time>2016-12-18T10:32:02.999Z</time>
      </trkpt>
      <trkpt lat="47.46652" lon="6.7563">
        <ele>366</ele>
        <time>2016-12-18T10:32:03.999Z</time>
      </trkpt>
      <trkpt lat="47.46651" lon="6.75637">
        <ele>366</ele>
        <time>2016-12-18T10:32:04.999Z</time>
      </trkpt>
      <trkpt lat="47.46649" lon="6.75642">
        <ele>366</ele>
        <time>2016-12-18T10:32:05.999Z</time>
      </trkpt>
      <trkpt lat="47.46648" lon="6.75648">
        <ele>366</ele>
        <time>2016-12-18T10:32:06.999Z</time>
      </trkpt>
      <trkpt lat="47.46648" lon="6.75653">
        <ele>366</ele>
        <time>2016-12-18T10:32:07.999Z</time>
      </trkpt>
      <trkpt lat="47.46649" lon="6.75657">
        <ele>365</ele>
        <time>2016-12-18T10:32:08.999Z</time>
      </trkpt>
      <trkpt lat="47.46651" lon="6.75664">
        <ele>364</ele>
        <time>2016-12-18T10:32:09.999Z</time>
      </trkpt>
      <trkpt lat="47.46653" lon="6.75669">
        <ele>363</ele>
        <time>2016-12-18T10:32:10.999Z</time>
      </trkpt>
      <trkpt lat="47.46655" lon="6.75673">
        <ele>363</ele>
        <time>2016-12-18T10:32:11.999Z</time>
      </trkpt>
      <trkpt lat="47.46658" lon="6.75678">
        <ele>363</ele>
        <time>2016-12-18T10:32:12.999Z</time>
      </trkpt>
      <trkpt lat="47.46662" lon="6.7568">
        <ele>363</ele>
        <time>2016-12-18T10:32:13.999Z</time>
      </trkpt>
      <trkpt lat="47.46666" lon="6.75683">
        <ele>363</ele>
        <time>2016-12-18T10:32:14.999Z</time>
      </trkpt>
      <trkpt lat="47.4667" lon="6.75686">
        <ele>357</ele>
        <time>2016-12-18T10:32:15.999Z</time>
      </trkpt>
      <trkpt lat="47.46674" lon="6.75688">
        <ele>356</ele>
        <time>2016-12-18T10:32:16.999Z</time>
      </trkpt>
      <trkpt lat="47.46678" lon="6.75692">
        <ele>356</ele>
        <time>2016-12-18T10:32:17.999Z</time>
      </trkpt>
      <trkpt lat="47.46682" lon="6.75697">
        <ele>355</ele>
        <time>2016-12-18T10:32:18.999Z</time>
      </trkpt>
      <trkpt lat="47.46686" lon="6.75703">
        <ele>355</ele>
        <time>2016-12-18T10:32:19.999Z</time>
      </trkpt>
      <trkpt lat="47.4669" lon="6.75713">
        <ele>355</ele>
        <time>2016-12-18T10:32:20.999Z</time>
      </trkpt>
      <trkpt lat="47.46693" lon="6.75722">
        <ele>355</ele>
        <time>2016-12-18T10:32:21.999Z</time>
      </trkpt>
      <trkpt lat="47.46695" lon="6.7573">
        <ele>355</ele>
        <time>2016-12-18T10:32:22.999Z</time>
      </trkpt>
      <trkpt lat="47.46696" lon="6.75737">
        <ele>355</ele>
        <time>2016-12-18T10:32:23.999Z</time>
      </trkpt>
      <trkpt lat="47.46697" lon="6.75745">
        <ele>355</ele>
        <time>2016-12-18T10:32:24.999Z</time>
      </trkpt>
      <trkpt lat="47.46699" lon="6.75751">
        <ele>354</ele>
        <time>2016-12-18T10:32:25.999Z</time>
      </trkpt>
      <trkpt lat="47.46701" lon="6.75756">
        <ele>354</ele>
        <time>2016-12-18T10:32:26.999Z</time>
      </trkpt>
      <trkpt lat="47.46702" lon="6.75762">
        <ele>354</ele>
        <time>2016-12-18T10:32:27.999Z</time>
      </trkpt>
      <trkpt lat="47.46703" lon="6.75766">
        <ele>354</ele>
        <time>2016-12-18T10:32:28.999Z</time>
      </trkpt>
      <trkpt lat="47.46704" lon="6.75774">
        <ele>353</ele>
        <time>2016-12-18T10:32:29.999Z</time>
      </trkpt>
      <trkpt lat="47.46705" lon="6.75783">
        <ele>353</ele>
        <time>2016-12-18T10:32:30.999Z</time>
      </trkpt>
      <trkpt lat="47.46705" lon="6.75788">
        <ele>353</ele>
        <time>2016-12-18T10:32:31.999Z</time>
      </trkpt>
      <trkpt lat="47.46705" lon="6.75797">
        <ele>353</ele>
        <time>2016-12-18T10:32:32.999Z</time>
      </trkpt>
      <trkpt lat="47.46704" lon="6.75804">
        <ele>353</ele>
        <time>2016-12-18T10:32:33.999Z</time>
      </trkpt>
      <trkpt lat="47.46703" lon="6.75812">
        <ele>353</ele>
        <time>2016-12-18T10:32:34.999Z</time>
      </trkpt>
      <trkpt lat="47.46703" lon="6.75819">
        <ele>353</ele>
        <time>2016-12-18T10:32:35.999Z</time>
      </trkpt>
      <trkpt lat="47.46702" lon="6.75826">
        <ele>353</ele>
        <time>2016-12-18T10:32:36.999Z</time>
      </trkpt>
      <trkpt lat="47.46702" lon="6.75834">
        <ele>351</ele>
        <time>2016-12-18T10:32:37.999Z</time>
      </trkpt>
      <trkpt lat="47.46703" lon="6.75842">
        <ele>351</ele>
        <time>2016-12-18T10:32:38.999Z</time>
      </trkpt>
      <trkpt lat="47.46704" lon="6.75849">
        <ele>350</ele>
        <time>2016-12-18T10:32:39.999Z</time>
      </trkpt>
      <trkpt lat="47.46703" lon="6.75857">
        <ele>350</ele>
        <time>2016-12-18T10:32:40.999Z</time>
      </trkpt>
      <trkpt lat="47.46703" lon="6.75865">
        <ele>350</ele>
        <time>2016-12-18T10:32:41.999Z</time>
      </trkpt>
      <trkpt lat="47.46703" lon="6.75872">
        <ele>350</ele>
        <time>2016-12-18T10:32:42.999Z</time>
      </trkpt>
      <trkpt lat="47.46703" lon="6.75881">
        <ele>349</ele>
        <time>2016-12-18T10:32:43.999Z</time>
      </trkpt>
      <trkpt lat="47.46702" lon="6.75887">
        <ele>349</ele>
        <time>2016-12-18T10:32:44.999Z</time>
      </trkpt>
      <trkpt lat="47.46703" lon="6.75894">
        <ele>349</ele>
        <time>2016-12-18T10:32:45.999Z</time>
      </trkpt>
      <trkpt lat="47.46703" lon="6.75904">
        <ele>349</ele>
        <time>2016-12-18T10:32:46.999Z</time>
      </trkpt>
      <trkpt lat="47.46703" lon="6.75913">
        <ele>349</ele>
        <time>2016-12-18T10:32:47.999Z</time>
      </trkpt>
      <trkpt lat="47.46703" lon="6.75923">
        <ele>346</ele>
        <time>2016-12-18T10:32:48.999Z</time>
      </trkpt>
      <trkpt lat="47.46703" lon="6.75936">
        <ele>345</ele>
        <time>2016-12-18T10:32:49.999Z</time>
      </trkpt>
      <trkpt lat="47.46703" lon="6.75946">
        <ele>345</ele>
        <time>2016-12-18T10:32:50.999Z</time>
      </trkpt>
      <trkpt lat="47.46703" lon="6.75957">
        <ele>345</ele>
        <time>2016-12-18T10:32:51.999Z</time>
      </trkpt>
      <trkpt lat="47.46702" lon="6.75969">
        <ele>345</ele>
        <time>2016-12-18T10:32:52.999Z</time>
      </trkpt>
      <trkpt lat="47.46704" lon="6.75977">
        <ele>344</ele>
        <time>2016-12-18T10:32:53.999Z</time>
      </trkpt>
      <trkpt lat="47.46709" lon="6.75985">
        <ele>344</ele>
        <time>2016-12-18T10:32:54.999Z</time>
      </trkpt>
      <trkpt lat="47.46713" lon="6.75987">
        <ele>343</ele>
        <time>2016-12-18T10:32:55.999Z</time>
      </trkpt>
      <trkpt lat="47.46717" lon="6.75989">
        <ele>342</ele>
        <time>2016-12-18T10:32:56.999Z</time>
      </trkpt>
      <trkpt lat="47.4672" lon="6.75993">
        <ele>342</ele>
        <time>2016-12-18T10:32:57.999Z</time>
      </trkpt>
      <trkpt lat="47.46722" lon="6.75998">
        <ele>342</ele>
        <time>2016-12-18T10:32:58.999Z</time>
      </trkpt>
      <trkpt lat="47.46726" lon="6.75999">
        <ele>341</ele>
        <time>2016-12-18T10:32:59.999Z</time>
      </trkpt>
      <trkpt lat="47.46732" lon="6.76">
        <ele>340</ele>
        <time>2016-12-18T10:33:00.999Z</time>
      </trkpt>
      <trkpt lat="47.46739" lon="6.76001">
        <ele>336</ele>
        <time>2016-12-18T10:33:01.999Z</time>
      </trkpt>
      <trkpt lat="47.46745" lon="6.76002">
        <ele>336</ele>
        <time>2016-12-18T10:33:02.999Z</time>
      </trkpt>
      <trkpt lat="47.46748" lon="6.76006">
        <ele>336</ele>
        <time>2016-12-18T10:33:03.999Z</time>
      </trkpt>
      <trkpt lat="47.46749" lon="6.76008">
        <ele>336</ele>
        <time>2016-12-18T10:33:04.999Z</time>
      </trkpt>
      <trkpt lat="47.46745" lon="6.76006">
        <ele>336</ele>
        <time>2016-12-18T10:33:31.999Z</time>
      </trkpt>
      <trkpt lat="47.46744" lon="6.76004">
        <ele>336</ele>
        <time>2016-12-18T10:33:32.999Z</time>
      </trkpt>
      <trkpt lat="47.46743" lon="6.75998">
        <ele>337</ele>
        <time>2016-12-18T10:33:38.999Z</time>
      </trkpt>
      <trkpt lat="47.46744" lon="6.75997">
        <ele>337</ele>
        <time>2016-12-18T10:33:39.999Z</time>
      </trkpt>
      <trkpt lat="47.46745" lon="6.75998">
        <ele>337</ele>
        <time>2016-12-18T10:33:42.999Z</time>
      </trkpt>
      <trkpt lat="47.46744" lon="6.76005">
        <ele>336</ele>
        <time>2016-12-18T10:33:43.999Z</time>
      </trkpt>
      <trkpt lat="47.46747" lon="6.76017">
        <ele>336</ele>
        <time>2016-12-18T10:33:44.999Z</time>
      </trkpt>
      <trkpt lat="47.46749" lon="6.76025">
        <ele>336</ele>
        <time>2016-12-18T10:33:45.999Z</time>
      </trkpt>
      <trkpt lat="47.46753" lon="6.76033">
        <ele>332</ele>
        <time>2016-12-18T10:33:46.999Z</time>
      </trkpt>
      <trkpt lat="47.46754" lon="6.76044">
        <ele>331</ele>
        <time>2016-12-18T10:33:47.999Z</time>
      </trkpt>
      <trkpt lat="47.46753" lon="6.76053">
        <ele>331</ele>
        <time>2016-12-18T10:33:48.999Z</time>
      </trkpt>
      <trkpt lat="47.46751" lon="6.76058">
        <ele>330</ele>
        <time>2016-12-18T10:33:49.999Z</time>
      </trkpt>
      <trkpt lat="47.46748" lon="6.76063">
        <ele>334</ele>
        <time>2016-12-18T10:33:50.999Z</time>
      </trkpt>
      <trkpt lat="47.46745" lon="6.76072">
        <ele>332</ele>
        <time>2016-12-18T10:33:51.999Z</time>
      </trkpt>
      <trkpt lat="47.46744" lon="6.76083">
        <ele>329</ele>
        <time>2016-12-18T10:33:52.999Z</time>
      </trkpt>
      <trkpt lat="47.46744" lon="6.76094">
        <ele>329</ele>
        <time>2016-12-18T10:33:53.999Z</time>
      </trkpt>
      <trkpt lat="47.46743" lon="6.76105">
        <ele>329</ele>
        <time>2016-12-18T10:33:54.999Z</time>
      </trkpt>
      <trkpt lat="47.46743" lon="6.76113">
        <ele>329</ele>
        <time>2016-12-18T10:33:55.999Z</time>
      </trkpt>
      <trkpt lat="47.46742" lon="6.76125">
        <ele>329</ele>
        <time>2016-12-18T10:33:56.999Z</time>
      </trkpt>
      <trkpt lat="47.46742" lon="6.76136">
        <ele>328</ele>
        <time>2016-12-18T10:33:57.999Z</time>
      </trkpt>
      <trkpt lat="47.46741" lon="6.76145">
        <ele>328</ele>
        <time>2016-12-18T10:33:58.999Z</time>
      </trkpt>
      <trkpt lat="47.4674" lon="6.76153">
        <ele>328</ele>
        <time>2016-12-18T10:33:59.999Z</time>
      </trkpt>
      <trkpt lat="47.46739" lon="6.7616">
        <ele>327</ele>
        <time>2016-12-18T10:34:00.999Z</time>
      </trkpt>
      <trkpt lat="47.46738" lon="6.76169">
        <ele>326</ele>
        <time>2016-12-18T10:34:01.999Z</time>
      </trkpt>
      <trkpt lat="47.46737" lon="6.76176">
        <ele>325</ele>
        <time>2016-12-18T10:34:02.999Z</time>
      </trkpt>
      <trkpt lat="47.46737" lon="6.76184">
        <ele>325</ele>
        <time>2016-12-18T10:34:03.999Z</time>
      </trkpt>
      <trkpt lat="47.46735" lon="6.76194">
        <ele>325</ele>
        <time>2016-12-18T10:34:04.999Z</time>
      </trkpt>
      <trkpt lat="47.46735" lon="6.76201">
        <ele>325</ele>
        <time>2016-12-18T10:34:05.999Z</time>
      </trkpt>
      <trkpt lat="47.46734" lon="6.76209">
        <ele>325</ele>
        <time>2016-12-18T10:34:06.999Z</time>
      </trkpt>
      <trkpt lat="47.46734" lon="6.76214">
        <ele>325</ele>
        <time>2016-12-18T10:34:07.999Z</time>
      </trkpt>
      <trkpt lat="47.46733" lon="6.7622">
        <ele>325</ele>
        <time>2016-12-18T10:34:08.999Z</time>
      </trkpt>
      <trkpt lat="47.46732" lon="6.76225">
        <ele>325</ele>
        <time>2016-12-18T10:34:09.999Z</time>
      </trkpt>
      <trkpt lat="47.46732" lon="6.76229">
        <ele>325</ele>
        <time>2016-12-18T10:34:10.999Z</time>
      </trkpt>
      <trkpt lat="47.46732" lon="6.76235">
        <ele>325</ele>
        <time>2016-12-18T10:34:11.999Z</time>
      </trkpt>
      <trkpt lat="47.46731" lon="6.76243">
        <ele>325</ele>
        <time>2016-12-18T10:34:12.999Z</time>
      </trkpt>
      <trkpt lat="47.46729" lon="6.7625">
        <ele>325</ele>
        <time>2016-12-18T10:34:13.999Z</time>
      </trkpt>
      <trkpt lat="47.46729" lon="6.7626">
        <ele>325</ele>
        <time>2016-12-18T10:34:14.999Z</time>
      </trkpt>
      <trkpt lat="47.46729" lon="6.76267">
        <ele>325</ele>
        <time>2016-12-18T10:34:15.999Z</time>
      </trkpt>
      <trkpt lat="47.46728" lon="6.76275">
        <ele>325</ele>
        <time>2016-12-18T10:34:16.999Z</time>
      </trkpt>
      <trkpt lat="47.46728" lon="6.76283">
        <ele>325</ele>
        <time>2016-12-18T10:34:17.999Z</time>
      </trkpt>
      <trkpt lat="47.46728" lon="6.76291">
        <ele>325</ele>
        <time>2016-12-18T10:34:18.999Z</time>
      </trkpt>
      <trkpt lat="47.46729" lon="6.76296">
        <ele>325</ele>
        <time>2016-12-18T10:34:19.999Z</time>
      </trkpt>
      <trkpt lat="47.46732" lon="6.76297">
        <ele>325</ele>
        <time>2016-12-18T10:34:20.999Z</time>
      </trkpt>
      <trkpt lat="47.46735" lon="6.76297">
        <ele>326</ele>
        <time>2016-12-18T10:34:21.999Z</time>
      </trkpt>
      <trkpt lat="47.46739" lon="6.76298">
        <ele>326</ele>
        <time>2016-12-18T10:34:22.999Z</time>
      </trkpt>
      <trkpt lat="47.46742" lon="6.76299">
        <ele>326</ele>
        <time>2016-12-18T10:34:23.999Z</time>
      </trkpt>
      <trkpt lat="47.46747" lon="6.763">
        <ele>326</ele>
        <time>2016-12-18T10:34:24.999Z</time>
      </trkpt>
      <trkpt lat="47.46767" lon="6.763">
        <ele>325</ele>
        <time>2016-12-18T10:34:28.999Z</time>
      </trkpt>
      <trkpt lat="47.4678" lon="6.76299">
        <ele>325</ele>
        <time>2016-12-18T10:34:31.999Z</time>
      </trkpt>
      <trkpt lat="47.46783" lon="6.76298">
        <ele>325</ele>
        <time>2016-12-18T10:34:32.999Z</time>
      </trkpt>
      <trkpt lat="47.46786" lon="6.76298">
        <ele>324</ele>
        <time>2016-12-18T10:34:33.999Z</time>
      </trkpt>
      <trkpt lat="47.46787" lon="6.76299">
        <ele>324</ele>
        <time>2016-12-18T10:34:34.999Z</time>
      </trkpt>
      <trkpt lat="47.46791" lon="6.76301">
        <ele>324</ele>
        <time>2016-12-18T10:34:35.999Z</time>
      </trkpt>
      <trkpt lat="47.46794" lon="6.76302">
        <ele>324</ele>
        <time>2016-12-18T10:34:36.999Z</time>
      </trkpt>
      <trkpt lat="47.46796" lon="6.76305">
        <ele>324</ele>
        <time>2016-12-18T10:34:37.999Z</time>
      </trkpt>
      <trkpt lat="47.46799" lon="6.76307">
        <ele>324</ele>
        <time>2016-12-18T10:34:38.999Z</time>
      </trkpt>
      <trkpt lat="47.46803" lon="6.76309">
        <ele>324</ele>
        <time>2016-12-18T10:34:39.999Z</time>
      </trkpt>
      <trkpt lat="47.46806" lon="6.76309">
        <ele>324</ele>
        <time>2016-12-18T10:34:40.999Z</time>
      </trkpt>
      <trkpt lat="47.4681" lon="6.7631">
        <ele>324</ele>
        <time>2016-12-18T10:34:41.999Z</time>
      </trkpt>
      <trkpt lat="47.46812" lon="6.7631">
        <ele>324</ele>
        <time>2016-12-18T10:34:42.999Z</time>
      </trkpt>
      <trkpt lat="47.46815" lon="6.76311">
        <ele>324</ele>
        <time>2016-12-18T10:34:43.999Z</time>
      </trkpt>
      <trkpt lat="47.46818" lon="6.76312">
        <ele>323</ele>
        <time>2016-12-18T10:34:44.999Z</time>
      </trkpt>
      <trkpt lat="47.4682" lon="6.76315">
        <ele>323</ele>
        <time>2016-12-18T10:34:45.999Z</time>
      </trkpt>
      <trkpt lat="47.46823" lon="6.76317">
        <ele>323</ele>
        <time>2016-12-18T10:34:46.999Z</time>
      </trkpt>
      <trkpt lat="47.46826" lon="6.76319">
        <ele>323</ele>
        <time>2016-12-18T10:34:47.999Z</time>
      </trkpt>
      <trkpt lat="47.46829" lon="6.7632">
        <ele>323</ele>
        <time>2016-12-18T10:34:48.999Z</time>
      </trkpt>
      <trkpt lat="47.46833" lon="6.76322">
        <ele>323</ele>
        <time>2016-12-18T10:34:49.999Z</time>
      </trkpt>
      <trkpt lat="47.46836" lon="6.76324">
        <ele>322</ele>
        <time>2016-12-18T10:34:50.999Z</time>
      </trkpt>
      <trkpt lat="47.46839" lon="6.76326">
        <ele>322</ele>
        <time>2016-12-18T10:34:51.999Z</time>
      </trkpt>
      <trkpt lat="47.46843" lon="6.76328">
        <ele>322</ele>
        <time>2016-12-18T10:34:52.999Z</time>
      </trkpt>
      <trkpt lat="47.46846" lon="6.76331">
        <ele>322</ele>
        <time>2016-12-18T10:34:53.999Z</time>
      </trkpt>
      <trkpt lat="47.46849" lon="6.76332">
        <ele>322</ele>
        <time>2016-12-18T10:34:54.999Z</time>
      </trkpt>
      <trkpt lat="47.46852" lon="6.76334">
        <ele>322</ele>
        <time>2016-12-18T10:34:55.999Z</time>
      </trkpt>
      <trkpt lat="47.46856" lon="6.76335">
        <ele>322</ele>
        <time>2016-12-18T10:34:56.999Z</time>
      </trkpt>
      <trkpt lat="47.46859" lon="6.76336">
        <ele>322</ele>
        <time>2016-12-18T10:34:57.999Z</time>
      </trkpt>
      <trkpt lat="47.46862" lon="6.76336">
        <ele>322</ele>
        <time>2016-12-18T10:34:58.999Z</time>
      </trkpt>
      <trkpt lat="47.46866" lon="6.76338">
        <ele>322</ele>
        <time>2016-12-18T10:34:59.999Z</time>
      </trkpt>
      <trkpt lat="47.4687" lon="6.76339">
        <ele>322</ele>
        <time>2016-12-18T10:35:00.999Z</time>
      </trkpt>
      <trkpt lat="47.46873" lon="6.7634">
        <ele>322</ele>
        <time>2016-12-18T10:35:01.999Z</time>
      </trkpt>
      <trkpt lat="47.46877" lon="6.76339">
        <ele>322</ele>
        <time>2016-12-18T10:35:02.999Z</time>
      </trkpt>
      <trkpt lat="47.46881" lon="6.76339">
        <ele>322</ele>
        <time>2016-12-18T10:35:03.999Z</time>
      </trkpt>
      <trkpt lat="47.46885" lon="6.76337">
        <ele>322</ele>
        <time>2016-12-18T10:35:04.999Z</time>
      </trkpt>
      <trkpt lat="47.46889" lon="6.76335">
        <ele>322</ele>
        <time>2016-12-18T10:35:05.999Z</time>
      </trkpt>
      <trkpt lat="47.46892" lon="6.76334">
        <ele>322</ele>
        <time>2016-12-18T10:35:06.999Z</time>
      </trkpt>
      <trkpt lat="47.46894" lon="6.76333">
        <ele>321</ele>
        <time>2016-12-18T10:35:07.999Z</time>
      </trkpt>
      <trkpt lat="47.46897" lon="6.76333">
        <ele>321</ele>
        <time>2016-12-18T10:35:08.999Z</time>
      </trkpt>
      <trkpt lat="47.46899" lon="6.76332">
        <ele>321</ele>
        <time>2016-12-18T10:35:09.999Z</time>
      </trkpt>
      <trkpt lat="47.46901" lon="6.76331">
        <ele>321</ele>
        <time>2016-12-18T10:35:10.999Z</time>
      </trkpt>
      <trkpt lat="47.46904" lon="6.76331">
        <ele>321</ele>
        <time>2016-12-18T10:35:11.999Z</time>
      </trkpt>
      <trkpt lat="47.46908" lon="6.76331">
        <ele>320</ele>
        <time>2016-12-18T10:35:12.999Z</time>
      </trkpt>
      <trkpt lat="47.46912" lon="6.76331">
        <ele>320</ele>
        <time>2016-12-18T10:35:13.999Z</time>
      </trkpt>
      <trkpt lat="47.46915" lon="6.76332">
        <ele>320</ele>
        <time>2016-12-18T10:35:14.999Z</time>
      </trkpt>
      <trkpt lat="47.46919" lon="6.76332">
        <ele>320</ele>
        <time>2016-12-18T10:35:15.999Z</time>
      </trkpt>
      <trkpt lat="47.46922" lon="6.76332">
        <ele>320</ele>
        <time>2016-12-18T10:35:16.999Z</time>
      </trkpt>
      <trkpt lat="47.46924" lon="6.76332">
        <ele>320</ele>
        <time>2016-12-18T10:35:17.999Z</time>
      </trkpt>
      <trkpt lat="47.46927" lon="6.76332">
        <ele>320</ele>
        <time>2016-12-18T10:35:18.999Z</time>
      </trkpt>
      <trkpt lat="47.46931" lon="6.76333">
        <ele>320</ele>
        <time>2016-12-18T10:35:19.999Z</time>
      </trkpt>
      <trkpt lat="47.46937" lon="6.76334">
        <ele>320</ele>
        <time>2016-12-18T10:35:20.999Z</time>
      </trkpt>
      <trkpt lat="47.46942" lon="6.76334">
        <ele>320</ele>
        <time>2016-12-18T10:35:21.999Z</time>
      </trkpt>
      <trkpt lat="47.46948" lon="6.76336">
        <ele>320</ele>
        <time>2016-12-18T10:35:22.999Z</time>
      </trkpt>
      <trkpt lat="47.46953" lon="6.76336">
        <ele>320</ele>
        <time>2016-12-18T10:35:23.999Z</time>
      </trkpt>
      <trkpt lat="47.46958" lon="6.76336">
        <ele>319</ele>
        <time>2016-12-18T10:35:24.999Z</time>
      </trkpt>
      <trkpt lat="47.46963" lon="6.76337">
        <ele>319</ele>
        <time>2016-12-18T10:35:25.999Z</time>
      </trkpt>
      <trkpt lat="47.46967" lon="6.76337">
        <ele>319</ele>
        <time>2016-12-18T10:35:26.999Z</time>
      </trkpt>
      <trkpt lat="47.46971" lon="6.76337">
        <ele>319</ele>
        <time>2016-12-18T10:35:27.999Z</time>
      </trkpt>
      <trkpt lat="47.46975" lon="6.76338">
        <ele>319</ele>
        <time>2016-12-18T10:35:28.999Z</time>
      </trkpt>
      <trkpt lat="47.4698" lon="6.76338">
        <ele>319</ele>
        <time>2016-12-18T10:35:29.999Z</time>
      </trkpt>
      <trkpt lat="47.46985" lon="6.7634">
        <ele>319</ele>
        <time>2016-12-18T10:35:30.999Z</time>
      </trkpt>
      <trkpt lat="47.4699" lon="6.7634">
        <ele>319</ele>
        <time>2016-12-18T10:35:31.999Z</time>
      </trkpt>
      <trkpt lat="47.46995" lon="6.7634">
        <ele>319</ele>
        <time>2016-12-18T10:35:32.999Z</time>
      </trkpt>
      <trkpt lat="47.46999" lon="6.7634">
        <ele>318</ele>
        <time>2016-12-18T10:35:33.999Z</time>
      </trkpt>
      <trkpt lat="47.47004" lon="6.76341">
        <ele>318</ele>
        <time>2016-12-18T10:35:34.999Z</time>
      </trkpt>
      <trkpt lat="47.47008" lon="6.76341">
        <ele>318</ele>
        <time>2016-12-18T10:35:35.999Z</time>
      </trkpt>
      <trkpt lat="47.47011" lon="6.76342">
        <ele>318</ele>
        <time>2016-12-18T10:35:36.999Z</time>
      </trkpt>
      <trkpt lat="47.47016" lon="6.76342">
        <ele>318</ele>
        <time>2016-12-18T10:35:37.999Z</time>
      </trkpt>
      <trkpt lat="47.47021" lon="6.76344">
        <ele>318</ele>
        <time>2016-12-18T10:35:38.999Z</time>
      </trkpt>
      <trkpt lat="47.47026" lon="6.76346">
        <ele>318</ele>
        <time>2016-12-18T10:35:39.999Z</time>
      </trkpt>
      <trkpt lat="47.47031" lon="6.76348">
        <ele>318</ele>
        <time>2016-12-18T10:35:40.999Z</time>
      </trkpt>
      <trkpt lat="47.47036" lon="6.7635">
        <ele>318</ele>
        <time>2016-12-18T10:35:41.999Z</time>
      </trkpt>
      <trkpt lat="47.47042" lon="6.76352">
        <ele>318</ele>
        <time>2016-12-18T10:35:42.999Z</time>
      </trkpt>
      <trkpt lat="47.47048" lon="6.76354">
        <ele>317</ele>
        <time>2016-12-18T10:35:43.999Z</time>
      </trkpt>
      <trkpt lat="47.47053" lon="6.76355">
        <ele>317</ele>
        <time>2016-12-18T10:35:44.999Z</time>
      </trkpt>
      <trkpt lat="47.4706" lon="6.76357">
        <ele>317</ele>
        <time>2016-12-18T10:35:45.999Z</time>
      </trkpt>
      <trkpt lat="47.47065" lon="6.76357">
        <ele>317</ele>
        <time>2016-12-18T10:35:46.999Z</time>
      </trkpt>
      <trkpt lat="47.47072" lon="6.76359">
        <ele>317</ele>
        <time>2016-12-18T10:35:47.999Z</time>
      </trkpt>
      <trkpt lat="47.47077" lon="6.7636">
        <ele>317</ele>
        <time>2016-12-18T10:35:48.999Z</time>
      </trkpt>
      <trkpt lat="47.47082" lon="6.76362">
        <ele>317</ele>
        <time>2016-12-18T10:35:49.999Z</time>
      </trkpt>
      <trkpt lat="47.47087" lon="6.76363">
        <ele>317</ele>
        <time>2016-12-18T10:35:50.999Z</time>
      </trkpt>
      <trkpt lat="47.47093" lon="6.76364">
        <ele>317</ele>
        <time>2016-12-18T10:35:51.999Z</time>
      </trkpt>
      <trkpt lat="47.47098" lon="6.76365">
        <ele>317</ele>
        <time>2016-12-18T10:35:52.999Z</time>
      </trkpt>
      <trkpt lat="47.47104" lon="6.76367">
        <ele>317</ele>
        <time>2016-12-18T10:35:53.999Z</time>
      </trkpt>
      <trkpt lat="47.4711" lon="6.76367">
        <ele>317</ele>
        <time>2016-12-18T10:35:54.999Z</time>
      </trkpt>
      <trkpt lat="47.47115" lon="6.76369">
        <ele>317</ele>
        <time>2016-12-18T10:35:55.999Z</time>
      </trkpt>
      <trkpt lat="47.47121" lon="6.7637">
        <ele>317</ele>
        <time>2016-12-18T10:35:56.999Z</time>
      </trkpt>
      <trkpt lat="47.47126" lon="6.76372">
        <ele>317</ele>
        <time>2016-12-18T10:35:57.999Z</time>
      </trkpt>
      <trkpt lat="47.47132" lon="6.76373">
        <ele>317</ele>
        <time>2016-12-18T10:35:58.999Z</time>
      </trkpt>
      <trkpt lat="47.47137" lon="6.76374">
        <ele>317</ele>
        <time>2016-12-18T10:35:59.999Z</time>
      </trkpt>
      <trkpt lat="47.47143" lon="6.76376">
        <ele>317</ele>
        <time>2016-12-18T10:36:00.999Z</time>
      </trkpt>
      <trkpt lat="47.47149" lon="6.76377">
        <ele>317</ele>
        <time>2016-12-18T10:36:01.999Z</time>
      </trkpt>
      <trkpt lat="47.47154" lon="6.76379">
        <ele>317</ele>
        <time>2016-12-18T10:36:02.999Z</time>
      </trkpt>
      <trkpt lat="47.47159" lon="6.7638">
        <ele>317</ele>
        <time>2016-12-18T10:36:03.999Z</time>
      </trkpt>
      <trkpt lat="47.47164" lon="6.76381">
        <ele>317</ele>
        <time>2016-12-18T10:36:04.999Z</time>
      </trkpt>
      <trkpt lat="47.47168" lon="6.76382">
        <ele>318</ele>
        <time>2016-12-18T10:36:05.999Z</time>
      </trkpt>
      <trkpt lat="47.47173" lon="6.76384">
        <ele>318</ele>
        <time>2016-12-18T10:36:06.999Z</time>
      </trkpt>
      <trkpt lat="47.47177" lon="6.76385">
        <ele>318</ele>
        <time>2016-12-18T10:36:07.999Z</time>
      </trkpt>
      <trkpt lat="47.47183" lon="6.76387">
        <ele>318</ele>
        <time>2016-12-18T10:36:08.999Z</time>
      </trkpt>
      <trkpt lat="47.47188" lon="6.76389">
        <ele>318</ele>
        <time>2016-12-18T10:36:09.999Z</time>
      </trkpt>
      <trkpt lat="47.47193" lon="6.7639">
        <ele>318</ele>
        <time>2016-12-18T10:36:10.999Z</time>
      </trkpt>
      <trkpt lat="47.47198" lon="6.76392">
        <ele>318</ele>
        <time>2016-12-18T10:36:11.999Z</time>
      </trkpt>
      <trkpt lat="47.47203" lon="6.76394">
        <ele>318</ele>
        <time>2016-12-18T10:36:12.999Z</time>
      </trkpt>
      <trkpt lat="47.47208" lon="6.76395">
        <ele>318</ele>
        <time>2016-12-18T10:36:13.999Z</time>
      </trkpt>
      <trkpt lat="47.47212" lon="6.76397">
        <ele>318</ele>
        <time>2016-12-18T10:36:14.999Z</time>
      </trkpt>
      <trkpt lat="47.47218" lon="6.76398">
        <ele>318</ele>
        <time>2016-12-18T10:36:15.999Z</time>
      </trkpt>
      <trkpt lat="47.47223" lon="6.76398">
        <ele>318</ele>
        <time>2016-12-18T10:36:16.999Z</time>
      </trkpt>
      <trkpt lat="47.47229" lon="6.76399">
        <ele>318</ele>
        <time>2016-12-18T10:36:17.999Z</time>
      </trkpt>
      <trkpt lat="47.47234" lon="6.76399">
        <ele>317</ele>
        <time>2016-12-18T10:36:18.999Z</time>
      </trkpt>
      <trkpt lat="47.4724" lon="6.76399">
        <ele>317</ele>
        <time>2016-12-18T10:36:19.999Z</time>
      </trkpt>
      <trkpt lat="47.47245" lon="6.76398">
        <ele>317</ele>
        <time>2016-12-18T10:36:20.999Z</time>
      </trkpt>
      <trkpt lat="47.4725" lon="6.76397">
        <ele>317</ele>
        <time>2016-12-18T10:36:21.999Z</time>
      </trkpt>
      <trkpt lat="47.47254" lon="6.76396">
        <ele>318</ele>
        <time>2016-12-18T10:36:22.999Z</time>
      </trkpt>
      <trkpt lat="47.47259" lon="6.76394">
        <ele>318</ele>
        <time>2016-12-18T10:36:23.999Z</time>
      </trkpt>
      <trkpt lat="47.47263" lon="6.76393">
        <ele>318</ele>
        <time>2016-12-18T10:36:24.999Z</time>
      </trkpt>
      <trkpt lat="47.47269" lon="6.76391">
        <ele>318</ele>
        <time>2016-12-18T10:36:25.999Z</time>
      </trkpt>
      <trkpt lat="47.47274" lon="6.7639">
        <ele>318</ele>
        <time>2016-12-18T10:36:26.999Z</time>
      </trkpt>
      <trkpt lat="47.47277" lon="6.76388">
        <ele>318</ele>
        <time>2016-12-18T10:36:27.999Z</time>
      </trkpt>
      <trkpt lat="47.47282" lon="6.76386">
        <ele>318</ele>
        <time>2016-12-18T10:36:28.999Z</time>
      </trkpt>
      <trkpt lat="47.47286" lon="6.76385">
        <ele>318</ele>
        <time>2016-12-18T10:36:29.999Z</time>
      </trkpt>
      <trkpt lat="47.47291" lon="6.76384">
        <ele>318</ele>
        <time>2016-12-18T10:36:30.999Z</time>
      </trkpt>
      <trkpt lat="47.47296" lon="6.76382">
        <ele>318</ele>
        <time>2016-12-18T10:36:31.999Z</time>
      </trkpt>
      <trkpt lat="47.47301" lon="6.76382">
        <ele>318</ele>
        <time>2016-12-18T10:36:32.999Z</time>
      </trkpt>
      <trkpt lat="47.47306" lon="6.76381">
        <ele>318</ele>
        <time>2016-12-18T10:36:33.999Z</time>
      </trkpt>
      <trkpt lat="47.47312" lon="6.76383">
        <ele>318</ele>
        <time>2016-12-18T10:36:34.999Z</time>
      </trkpt>
      <trkpt lat="47.47318" lon="6.76384">
        <ele>318</ele>
        <time>2016-12-18T10:36:35.999Z</time>
      </trkpt>
      <trkpt lat="47.47322" lon="6.76385">
        <ele>318</ele>
        <time>2016-12-18T10:36:36.999Z</time>
      </trkpt>
      <trkpt lat="47.47327" lon="6.76388">
        <ele>318</ele>
        <time>2016-12-18T10:36:37.999Z</time>
      </trkpt>
      <trkpt lat="47.47332" lon="6.7639">
        <ele>318</ele>
        <time>2016-12-18T10:36:38.999Z</time>
      </trkpt>
      <trkpt lat="47.47336" lon="6.76392">
        <ele>317</ele>
        <time>2016-12-18T10:36:39.999Z</time>
      </trkpt>
      <trkpt lat="47.4734" lon="6.76395">
        <ele>317</ele>
        <time>2016-12-18T10:36:40.999Z</time>
      </trkpt>
      <trkpt lat="47.47344" lon="6.76398">
        <ele>317</ele>
        <time>2016-12-18T10:36:41.999Z</time>
      </trkpt>
      <trkpt lat="47.47348" lon="6.764">
        <ele>317</ele>
        <time>2016-12-18T10:36:42.999Z</time>
      </trkpt>
      <trkpt lat="47.47352" lon="6.76403">
        <ele>317</ele>
        <time>2016-12-18T10:36:43.999Z</time>
      </trkpt>
      <trkpt lat="47.47356" lon="6.76406">
        <ele>317</ele>
        <time>2016-12-18T10:36:44.999Z</time>
      </trkpt>
      <trkpt lat="47.47361" lon="6.7641">
        <ele>317</ele>
        <time>2016-12-18T10:36:45.999Z</time>
      </trkpt>
      <trkpt lat="47.47366" lon="6.76414">
        <ele>317</ele>
        <time>2016-12-18T10:36:46.999Z</time>
      </trkpt>
      <trkpt lat="47.4737" lon="6.76417">
        <ele>314</ele>
        <time>2016-12-18T10:36:47.999Z</time>
      </trkpt>
      <trkpt lat="47.47375" lon="6.7642">
        <ele>314</ele>
        <time>2016-12-18T10:36:48.999Z</time>
      </trkpt>
      <trkpt lat="47.47379" lon="6.76423">
        <ele>314</ele>
        <time>2016-12-18T10:36:49.999Z</time>
      </trkpt>
      <trkpt lat="47.47381" lon="6.76425">
        <ele>314</ele>
        <time>2016-12-18T10:36:50.999Z</time>
      </trkpt>
      <trkpt lat="47.47385" lon="6.76429">
        <ele>314</ele>
        <time>2016-12-18T10:36:51.999Z</time>
      </trkpt>
      <trkpt lat="47.47388" lon="6.76432">
        <ele>314</ele>
        <time>2016-12-18T10:36:52.999Z</time>
      </trkpt>
      <trkpt lat="47.47393" lon="6.76435">
        <ele>314</ele>
        <time>2016-12-18T10:36:53.999Z</time>
      </trkpt>
      <trkpt lat="47.47397" lon="6.76439">
        <ele>314</ele>
        <time>2016-12-18T10:36:54.999Z</time>
      </trkpt>
      <trkpt lat="47.47402" lon="6.76442">
        <ele>314</ele>
        <time>2016-12-18T10:36:55.999Z</time>
      </trkpt>
      <trkpt lat="47.47407" lon="6.76446">
        <ele>313</ele>
        <time>2016-12-18T10:36:56.999Z</time>
      </trkpt>
      <trkpt lat="47.47412" lon="6.7645">
        <ele>313</ele>
        <time>2016-12-18T10:36:57.999Z</time>
      </trkpt>
      <trkpt lat="47.47416" lon="6.76454">
        <ele>313</ele>
        <time>2016-12-18T10:36:58.999Z</time>
      </trkpt>
      <trkpt lat="47.47421" lon="6.76457">
        <ele>311</ele>
        <time>2016-12-18T10:36:59.999Z</time>
      </trkpt>
      <trkpt lat="47.47425" lon="6.76458">
        <ele>311</ele>
        <time>2016-12-18T10:37:00.999Z</time>
      </trkpt>
      <trkpt lat="47.47428" lon="6.76457">
        <ele>311</ele>
        <time>2016-12-18T10:37:01.999Z</time>
      </trkpt>
      <trkpt lat="47.47431" lon="6.76456">
        <ele>311</ele>
        <time>2016-12-18T10:37:02.999Z</time>
      </trkpt>
      <trkpt lat="47.47433" lon="6.76453">
        <ele>311</ele>
        <time>2016-12-18T10:37:03.999Z</time>
      </trkpt>
      <trkpt lat="47.47435" lon="6.76451">
        <ele>311</ele>
        <time>2016-12-18T10:37:04.999Z</time>
      </trkpt>
      <trkpt lat="47.47438" lon="6.76449">
        <ele>311</ele>
        <time>2016-12-18T10:37:05.999Z</time>
      </trkpt>
      <trkpt lat="47.47441" lon="6.76448">
        <ele>311</ele>
        <time>2016-12-18T10:37:06.999Z</time>
      </trkpt>
      <trkpt lat="47.47443" lon="6.76448">
        <ele>311</ele>
        <time>2016-12-18T10:37:07.999Z</time>
      </trkpt>
      <trkpt lat="47.47447" lon="6.76444">
        <ele>311</ele>
        <time>2016-12-18T10:37:09.999Z</time>
      </trkpt>
      <trkpt lat="47.47448" lon="6.76442">
        <ele>311</ele>
        <time>2016-12-18T10:37:10.999Z</time>
      </trkpt>
      <trkpt lat="47.4745" lon="6.76441">
        <ele>311</ele>
        <time>2016-12-18T10:37:11.999Z</time>
      </trkpt>
      <trkpt lat="47.47454" lon="6.76439">
        <ele>311</ele>
        <time>2016-12-18T10:37:12.999Z</time>
      </trkpt>
      <trkpt lat="47.47455" lon="6.76438">
        <ele>311</ele>
        <time>2016-12-18T10:37:13.999Z</time>
      </trkpt>
      <trkpt lat="47.47458" lon="6.76438">
        <ele>311</ele>
        <time>2016-12-18T10:37:14.999Z</time>
      </trkpt>
      <trkpt lat="47.47462" lon="6.76437">
        <ele>311</ele>
        <time>2016-12-18T10:37:15.999Z</time>
      </trkpt>
      <trkpt lat="47.47465" lon="6.76435">
        <ele>310</ele>
        <time>2016-12-18T10:37:16.999Z</time>
      </trkpt>
      <trkpt lat="47.4747" lon="6.76432">
        <ele>310</ele>
        <time>2016-12-18T10:37:17.999Z</time>
      </trkpt>
      <trkpt lat="47.47473" lon="6.76429">
        <ele>310</ele>
        <time>2016-12-18T10:37:18.999Z</time>
      </trkpt>
      <trkpt lat="47.47476" lon="6.76426">
        <ele>310</ele>
        <time>2016-12-18T10:37:19.999Z</time>
      </trkpt>
      <trkpt lat="47.47479" lon="6.76423">
        <ele>310</ele>
        <time>2016-12-18T10:37:20.999Z</time>
      </trkpt>
      <trkpt lat="47.4748" lon="6.7642">
        <ele>310</ele>
        <time>2016-12-18T10:37:21.999Z</time>
      </trkpt>
      <trkpt lat="47.47483" lon="6.76416">
        <ele>311</ele>
        <time>2016-12-18T10:37:23.999Z</time>
      </trkpt>
      <trkpt lat="47.47484" lon="6.76413">
        <ele>311</ele>
        <time>2016-12-18T10:37:24.999Z</time>
      </trkpt>
      <trkpt lat="47.47485" lon="6.76408">
        <ele>311</ele>
        <time>2016-12-18T10:37:25.999Z</time>
      </trkpt>
      <trkpt lat="47.47486" lon="6.76404">
        <ele>311</ele>
        <time>2016-12-18T10:37:26.999Z</time>
      </trkpt>
      <trkpt lat="47.47489" lon="6.76403">
        <ele>311</ele>
        <time>2016-12-18T10:37:27.999Z</time>
      </trkpt>
      <trkpt lat="47.47492" lon="6.76404">
        <ele>311</ele>
        <time>2016-12-18T10:37:28.999Z</time>
      </trkpt>
      <trkpt lat="47.47494" lon="6.76404">
        <ele>311</ele>
        <time>2016-12-18T10:37:29.999Z</time>
      </trkpt>
      <trkpt lat="47.47497" lon="6.76404">
        <ele>311</ele>
        <time>2016-12-18T10:37:30.999Z</time>
      </trkpt>
      <trkpt lat="47.47501" lon="6.76404">
        <ele>309</ele>
        <time>2016-12-18T10:37:31.999Z</time>
      </trkpt>
      <trkpt lat="47.47505" lon="6.76406">
        <ele>309</ele>
        <time>2016-12-18T10:37:32.999Z</time>
      </trkpt>
      <trkpt lat="47.47509" lon="6.76408">
        <ele>309</ele>
        <time>2016-12-18T10:37:33.999Z</time>
      </trkpt>
      <trkpt lat="47.47514" lon="6.76412">
        <ele>309</ele>
        <time>2016-12-18T10:37:34.999Z</time>
      </trkpt>
      <trkpt lat="47.47518" lon="6.76413">
        <ele>309</ele>
        <time>2016-12-18T10:37:35.999Z</time>
      </trkpt>
      <trkpt lat="47.47523" lon="6.76415">
        <ele>309</ele>
        <time>2016-12-18T10:37:36.999Z</time>
      </trkpt>
      <trkpt lat="47.47527" lon="6.76416">
        <ele>309</ele>
        <time>2016-12-18T10:37:37.999Z</time>
      </trkpt>
      <trkpt lat="47.47531" lon="6.76414">
        <ele>309</ele>
        <time>2016-12-18T10:37:38.999Z</time>
      </trkpt>
      <trkpt lat="47.47535" lon="6.76412">
        <ele>309</ele>
        <time>2016-12-18T10:37:39.999Z</time>
      </trkpt>
      <trkpt lat="47.47538" lon="6.76406">
        <ele>310</ele>
        <time>2016-12-18T10:37:41.999Z</time>
      </trkpt>
      <trkpt lat="47.47539" lon="6.76401">
        <ele>310</ele>
        <time>2016-12-18T10:37:42.999Z</time>
      </trkpt>
      <trkpt lat="47.47542" lon="6.76397">
        <ele>310</ele>
        <time>2016-12-18T10:37:43.999Z</time>
      </trkpt>
      <trkpt lat="47.47541" lon="6.76392">
        <ele>310</ele>
        <time>2016-12-18T10:37:44.999Z</time>
      </trkpt>
      <trkpt lat="47.47542" lon="6.76385">
        <ele>310</ele>
        <time>2016-12-18T10:37:45.999Z</time>
      </trkpt>
      <trkpt lat="47.47543" lon="6.76378">
        <ele>310</ele>
        <time>2016-12-18T10:37:46.999Z</time>
      </trkpt>
      <trkpt lat="47.47544" lon="6.76372">
        <ele>310</ele>
        <time>2016-12-18T10:37:47.999Z</time>
      </trkpt>
      <trkpt lat="47.47544" lon="6.76366">
        <ele>310</ele>
        <time>2016-12-18T10:37:48.999Z</time>
      </trkpt>
      <trkpt lat="47.47547" lon="6.76361">
        <ele>310</ele>
        <time>2016-12-18T10:37:49.999Z</time>
      </trkpt>
      <trkpt lat="47.47549" lon="6.76352">
        <ele>310</ele>
        <time>2016-12-18T10:37:50.999Z</time>
      </trkpt>
      <trkpt lat="47.47551" lon="6.76347">
        <ele>311</ele>
        <time>2016-12-18T10:37:51.999Z</time>
      </trkpt>
      <trkpt lat="47.47553" lon="6.76343">
        <ele>311</ele>
        <time>2016-12-18T10:37:52.999Z</time>
      </trkpt>
      <trkpt lat="47.47555" lon="6.76339">
        <ele>311</ele>
        <time>2016-12-18T10:37:53.999Z</time>
      </trkpt>
      <trkpt lat="47.47557" lon="6.76334">
        <ele>311</ele>
        <time>2016-12-18T10:37:54.999Z</time>
      </trkpt>
      <trkpt lat="47.47559" lon="6.7633">
        <ele>312</ele>
        <time>2016-12-18T10:37:55.999Z</time>
      </trkpt>
      <trkpt lat="47.47562" lon="6.76326">
        <ele>312</ele>
        <time>2016-12-18T10:37:56.999Z</time>
      </trkpt>
      <trkpt lat="47.47565" lon="6.76322">
        <ele>312</ele>
        <time>2016-12-18T10:37:57.999Z</time>
      </trkpt>
      <trkpt lat="47.47567" lon="6.76317">
        <ele>312</ele>
        <time>2016-12-18T10:37:58.999Z</time>
      </trkpt>
      <trkpt lat="47.4757" lon="6.76311">
        <ele>312</ele>
        <time>2016-12-18T10:37:59.999Z</time>
      </trkpt>
      <trkpt lat="47.47573" lon="6.76306">
        <ele>312</ele>
        <time>2016-12-18T10:38:00.999Z</time>
      </trkpt>
      <trkpt lat="47.47575" lon="6.76301">
        <ele>312</ele>
        <time>2016-12-18T10:38:01.999Z</time>
      </trkpt>
      <trkpt lat="47.47577" lon="6.76297">
        <ele>312</ele>
        <time>2016-12-18T10:38:02.999Z</time>
      </trkpt>
      <trkpt lat="47.47579" lon="6.76294">
        <ele>312</ele>
        <time>2016-12-18T10:38:03.999Z</time>
      </trkpt>
      <trkpt lat="47.47583" lon="6.7629">
        <ele>311</ele>
        <time>2016-12-18T10:38:04.999Z</time>
      </trkpt>
      <trkpt lat="47.47586" lon="6.76284">
        <ele>311</ele>
        <time>2016-12-18T10:38:05.999Z</time>
      </trkpt>
      <trkpt lat="47.47589" lon="6.7628">
        <ele>311</ele>
        <time>2016-12-18T10:38:06.999Z</time>
      </trkpt>
      <trkpt lat="47.47592" lon="6.76273">
        <ele>311</ele>
        <time>2016-12-18T10:38:07.999Z</time>
      </trkpt>
      <trkpt lat="47.47594" lon="6.76268">
        <ele>311</ele>
        <time>2016-12-18T10:38:08.999Z</time>
      </trkpt>
      <trkpt lat="47.47596" lon="6.76263">
        <ele>311</ele>
        <time>2016-12-18T10:38:09.999Z</time>
      </trkpt>
      <trkpt lat="47.47597" lon="6.76259">
        <ele>311</ele>
        <time>2016-12-18T10:38:10.999Z</time>
      </trkpt>
      <trkpt lat="47.47598" lon="6.76254">
        <ele>311</ele>
        <time>2016-12-18T10:38:11.999Z</time>
      </trkpt>
      <trkpt lat="47.476" lon="6.76249">
        <ele>311</ele>
        <time>2016-12-18T10:38:12.999Z</time>
      </trkpt>
      <trkpt lat="47.47602" lon="6.76243">
        <ele>311</ele>
        <time>2016-12-18T10:38:13.999Z</time>
      </trkpt>
      <trkpt lat="47.47604" lon="6.76238">
        <ele>311</ele>
        <time>2016-12-18T10:38:14.999Z</time>
      </trkpt>
      <trkpt lat="47.47606" lon="6.76234">
        <ele>311</ele>
        <time>2016-12-18T10:38:15.999Z</time>
      </trkpt>
      <trkpt lat="47.47608" lon="6.7623">
        <ele>311</ele>
        <time>2016-12-18T10:38:16.999Z</time>
      </trkpt>
      <trkpt lat="47.4761" lon="6.76225">
        <ele>311</ele>
        <time>2016-12-18T10:38:17.999Z</time>
      </trkpt>
      <trkpt lat="47.47612" lon="6.7622">
        <ele>311</ele>
        <time>2016-12-18T10:38:18.999Z</time>
      </trkpt>
      <trkpt lat="47.47614" lon="6.76215">
        <ele>310</ele>
        <time>2016-12-18T10:38:19.999Z</time>
      </trkpt>
      <trkpt lat="47.47616" lon="6.7621">
        <ele>310</ele>
        <time>2016-12-18T10:38:20.999Z</time>
      </trkpt>
      <trkpt lat="47.47618" lon="6.76206">
        <ele>310</ele>
        <time>2016-12-18T10:38:21.999Z</time>
      </trkpt>
      <trkpt lat="47.47621" lon="6.76201">
        <ele>310</ele>
        <time>2016-12-18T10:38:22.999Z</time>
      </trkpt>
      <trkpt lat="47.47623" lon="6.76194">
        <ele>310</ele>
        <time>2016-12-18T10:38:23.999Z</time>
      </trkpt>
      <trkpt lat="47.47625" lon="6.76188">
        <ele>310</ele>
        <time>2016-12-18T10:38:24.999Z</time>
      </trkpt>
      <trkpt lat="47.47627" lon="6.76181">
        <ele>310</ele>
        <time>2016-12-18T10:38:25.999Z</time>
      </trkpt>
      <trkpt lat="47.4763" lon="6.76175">
        <ele>310</ele>
        <time>2016-12-18T10:38:26.999Z</time>
      </trkpt>
      <trkpt lat="47.47632" lon="6.76168">
        <ele>310</ele>
        <time>2016-12-18T10:38:27.999Z</time>
      </trkpt>
      <trkpt lat="47.47635" lon="6.76162">
        <ele>310</ele>
        <time>2016-12-18T10:38:28.999Z</time>
      </trkpt>
      <trkpt lat="47.47637" lon="6.76156">
        <ele>310</ele>
        <time>2016-12-18T10:38:29.999Z</time>
      </trkpt>
      <trkpt lat="47.4764" lon="6.76149">
        <ele>310</ele>
        <time>2016-12-18T10:38:30.999Z</time>
      </trkpt>
      <trkpt lat="47.47642" lon="6.76142">
        <ele>310</ele>
        <time>2016-12-18T10:38:31.999Z</time>
      </trkpt>
      <trkpt lat="47.47645" lon="6.76135">
        <ele>310</ele>
        <time>2016-12-18T10:38:32.999Z</time>
      </trkpt>
      <trkpt lat="47.47647" lon="6.76126">
        <ele>310</ele>
        <time>2016-12-18T10:38:33.999Z</time>
      </trkpt>
      <trkpt lat="47.47649" lon="6.76119">
        <ele>310</ele>
        <time>2016-12-18T10:38:34.999Z</time>
      </trkpt>
      <trkpt lat="47.47651" lon="6.76114">
        <ele>310</ele>
        <time>2016-12-18T10:38:35.999Z</time>
      </trkpt>
      <trkpt lat="47.47653" lon="6.76109">
        <ele>311</ele>
        <time>2016-12-18T10:38:36.999Z</time>
      </trkpt>
      <trkpt lat="47.47655" lon="6.76102">
        <ele>311</ele>
        <time>2016-12-18T10:38:37.999Z</time>
      </trkpt>
      <trkpt lat="47.47657" lon="6.76096">
        <ele>311</ele>
        <time>2016-12-18T10:38:38.999Z</time>
      </trkpt>
      <trkpt lat="47.4766" lon="6.76092">
        <ele>311</ele>
        <time>2016-12-18T10:38:39.999Z</time>
      </trkpt>
      <trkpt lat="47.47665" lon="6.76088">
        <ele>311</ele>
        <time>2016-12-18T10:38:40.999Z</time>
      </trkpt>
      <trkpt lat="47.47668" lon="6.76088">
        <ele>311</ele>
        <time>2016-12-18T10:38:41.999Z</time>
      </trkpt>
      <trkpt lat="47.4767" lon="6.76092">
        <ele>311</ele>
        <time>2016-12-18T10:38:42.999Z</time>
      </trkpt>
      <trkpt lat="47.47674" lon="6.76096">
        <ele>310</ele>
        <time>2016-12-18T10:38:43.999Z</time>
      </trkpt>
      <trkpt lat="47.47678" lon="6.76099">
        <ele>310</ele>
        <time>2016-12-18T10:38:44.999Z</time>
      </trkpt>
      <trkpt lat="47.47682" lon="6.76103">
        <ele>310</ele>
        <time>2016-12-18T10:38:45.999Z</time>
      </trkpt>
      <trkpt lat="47.47685" lon="6.76108">
        <ele>310</ele>
        <time>2016-12-18T10:38:46.999Z</time>
      </trkpt>
      <trkpt lat="47.47688" lon="6.76113">
        <ele>310</ele>
        <time>2016-12-18T10:38:47.999Z</time>
      </trkpt>
      <trkpt lat="47.47693" lon="6.76119">
        <ele>310</ele>
        <time>2016-12-18T10:38:48.999Z</time>
      </trkpt>
      <trkpt lat="47.47697" lon="6.76123">
        <ele>310</ele>
        <time>2016-12-18T10:38:49.999Z</time>
      </trkpt>
      <trkpt lat="47.47702" lon="6.76129">
        <ele>310</ele>
        <time>2016-12-18T10:38:50.999Z</time>
      </trkpt>
      <trkpt lat="47.47706" lon="6.76134">
        <ele>309</ele>
        <time>2016-12-18T10:38:51.999Z</time>
      </trkpt>
      <trkpt lat="47.4771" lon="6.76139">
        <ele>309</ele>
        <time>2016-12-18T10:38:52.999Z</time>
      </trkpt>
      <trkpt lat="47.47714" lon="6.76145">
        <ele>309</ele>
        <time>2016-12-18T10:38:53.999Z</time>
      </trkpt>
      <trkpt lat="47.47717" lon="6.76149">
        <ele>309</ele>
        <time>2016-12-18T10:38:54.999Z</time>
      </trkpt>
      <trkpt lat="47.4772" lon="6.76153">
        <ele>309</ele>
        <time>2016-12-18T10:38:55.999Z</time>
      </trkpt>
      <trkpt lat="47.47722" lon="6.76156">
        <ele>309</ele>
        <time>2016-12-18T10:38:56.999Z</time>
      </trkpt>
      <trkpt lat="47.47724" lon="6.76159">
        <ele>309</ele>
        <time>2016-12-18T10:38:57.999Z</time>
      </trkpt>
      <trkpt lat="47.47727" lon="6.76161">
        <ele>309</ele>
        <time>2016-12-18T10:38:58.999Z</time>
      </trkpt>
      <trkpt lat="47.4773" lon="6.76166">
        <ele>308</ele>
        <time>2016-12-18T10:38:59.999Z</time>
      </trkpt>
      <trkpt lat="47.47733" lon="6.7617">
        <ele>308</ele>
        <time>2016-12-18T10:39:00.999Z</time>
      </trkpt>
      <trkpt lat="47.47736" lon="6.76174">
        <ele>308</ele>
        <time>2016-12-18T10:39:01.999Z</time>
      </trkpt>
      <trkpt lat="47.47738" lon="6.76178">
        <ele>308</ele>
        <time>2016-12-18T10:39:02.999Z</time>
      </trkpt>
      <trkpt lat="47.47741" lon="6.76183">
        <ele>308</ele>
        <time>2016-12-18T10:39:03.999Z</time>
      </trkpt>
      <trkpt lat="47.47744" lon="6.76187">
        <ele>308</ele>
        <time>2016-12-18T10:39:04.999Z</time>
      </trkpt>
      <trkpt lat="47.47747" lon="6.76192">
        <ele>309</ele>
        <time>2016-12-18T10:39:05.999Z</time>
      </trkpt>
      <trkpt lat="47.4775" lon="6.76196">
        <ele>309</ele>
        <time>2016-12-18T10:39:06.999Z</time>
      </trkpt>
      <trkpt lat="47.47753" lon="6.76201">
        <ele>309</ele>
        <time>2016-12-18T10:39:07.999Z</time>
      </trkpt>
      <trkpt lat="47.47757" lon="6.76206">
        <ele>309</ele>
        <time>2016-12-18T10:39:08.999Z</time>
      </trkpt>
      <trkpt lat="47.4776" lon="6.76211">
        <ele>309</ele>
        <time>2016-12-18T10:39:09.999Z</time>
      </trkpt>
      <trkpt lat="47.47763" lon="6.76216">
        <ele>309</ele>
        <time>2016-12-18T10:39:10.999Z</time>
      </trkpt>
      <trkpt lat="47.47766" lon="6.76222">
        <ele>309</ele>
        <time>2016-12-18T10:39:11.999Z</time>
      </trkpt>
      <trkpt lat="47.4777" lon="6.76228">
        <ele>309</ele>
        <time>2016-12-18T10:39:12.999Z</time>
      </trkpt>
      <trkpt lat="47.47774" lon="6.76234">
        <ele>309</ele>
        <time>2016-12-18T10:39:13.999Z</time>
      </trkpt>
      <trkpt lat="47.47777" lon="6.76239">
        <ele>309</ele>
        <time>2016-12-18T10:39:14.999Z</time>
      </trkpt>
      <trkpt lat="47.47779" lon="6.76243">
        <ele>309</ele>
        <time>2016-12-18T10:39:15.999Z</time>
      </trkpt>
      <trkpt lat="47.47783" lon="6.76248">
        <ele>309</ele>
        <time>2016-12-18T10:39:16.999Z</time>
      </trkpt>
      <trkpt lat="47.47787" lon="6.76252">
        <ele>310</ele>
        <time>2016-12-18T10:39:17.999Z</time>
      </trkpt>
      <trkpt lat="47.47791" lon="6.76256">
        <ele>310</ele>
        <time>2016-12-18T10:39:18.999Z</time>
      </trkpt>
      <trkpt lat="47.47796" lon="6.7626">
        <ele>310</ele>
        <time>2016-12-18T10:39:19.999Z</time>
      </trkpt>
      <trkpt lat="47.47801" lon="6.76263">
        <ele>310</ele>
        <time>2016-12-18T10:39:20.999Z</time>
      </trkpt>
      <trkpt lat="47.47805" lon="6.76264">
        <ele>310</ele>
        <time>2016-12-18T10:39:21.999Z</time>
      </trkpt>
      <trkpt lat="47.4781" lon="6.76266">
        <ele>310</ele>
        <time>2016-12-18T10:39:22.999Z</time>
      </trkpt>
      <trkpt lat="47.47815" lon="6.76267">
        <ele>310</ele>
        <time>2016-12-18T10:39:23.999Z</time>
      </trkpt>
      <trkpt lat="47.47819" lon="6.76269">
        <ele>310</ele>
        <time>2016-12-18T10:39:24.999Z</time>
      </trkpt>
      <trkpt lat="47.47823" lon="6.76271">
        <ele>310</ele>
        <time>2016-12-18T10:39:25.999Z</time>
      </trkpt>
      <trkpt lat="47.47828" lon="6.76274">
        <ele>310</ele>
        <time>2016-12-18T10:39:26.999Z</time>
      </trkpt>
      <trkpt lat="47.47832" lon="6.76278">
        <ele>310</ele>
        <time>2016-12-18T10:39:27.999Z</time>
      </trkpt>
      <trkpt lat="47.47837" lon="6.76282">
        <ele>311</ele>
        <time>2016-12-18T10:39:28.999Z</time>
      </trkpt>
      <trkpt lat="47.47841" lon="6.76286">
        <ele>311</ele>
        <time>2016-12-18T10:39:29.999Z</time>
      </trkpt>
      <trkpt lat="47.47844" lon="6.76291">
        <ele>310</ele>
        <time>2016-12-18T10:39:30.999Z</time>
      </trkpt>
      <trkpt lat="47.47848" lon="6.76297">
        <ele>310</ele>
        <time>2016-12-18T10:39:31.999Z</time>
      </trkpt>
      <trkpt lat="47.47852" lon="6.76304">
        <ele>310</ele>
        <time>2016-12-18T10:39:32.999Z</time>
      </trkpt>
      <trkpt lat="47.47855" lon="6.7631">
        <ele>310</ele>
        <time>2016-12-18T10:39:33.999Z</time>
      </trkpt>
      <trkpt lat="47.47858" lon="6.76315">
        <ele>310</ele>
        <time>2016-12-18T10:39:34.999Z</time>
      </trkpt>
      <trkpt lat="47.47861" lon="6.76321">
        <ele>310</ele>
        <time>2016-12-18T10:39:35.999Z</time>
      </trkpt>
      <trkpt lat="47.47864" lon="6.76327">
        <ele>310</ele>
        <time>2016-12-18T10:39:36.999Z</time>
      </trkpt>
      <trkpt lat="47.47867" lon="6.76333">
        <ele>310</ele>
        <time>2016-12-18T10:39:37.999Z</time>
      </trkpt>
      <trkpt lat="47.4787" lon="6.76339">
        <ele>311</ele>
        <time>2016-12-18T10:39:38.999Z</time>
      </trkpt>
      <trkpt lat="47.47873" lon="6.76345">
        <ele>311</ele>
        <time>2016-12-18T10:39:39.999Z</time>
      </trkpt>
      <trkpt lat="47.47876" lon="6.76351">
        <ele>311</ele>
        <time>2016-12-18T10:39:40.999Z</time>
      </trkpt>
      <trkpt lat="47.47879" lon="6.76356">
        <ele>311</ele>
        <time>2016-12-18T10:39:41.999Z</time>
      </trkpt>
      <trkpt lat="47.47882" lon="6.76362">
        <ele>311</ele>
        <time>2016-12-18T10:39:42.999Z</time>
      </trkpt>
      <trkpt lat="47.47885" lon="6.76367">
        <ele>311</ele>
        <time>2016-12-18T10:39:43.999Z</time>
      </trkpt>
      <trkpt lat="47.47888" lon="6.76373">
        <ele>311</ele>
        <time>2016-12-18T10:39:44.999Z</time>
      </trkpt>
      <trkpt lat="47.47891" lon="6.76379">
        <ele>311</ele>
        <time>2016-12-18T10:39:45.999Z</time>
      </trkpt>
      <trkpt lat="47.47894" lon="6.76385">
        <ele>311</ele>
        <time>2016-12-18T10:39:46.999Z</time>
      </trkpt>
      <trkpt lat="47.47897" lon="6.7639">
        <ele>311</ele>
        <time>2016-12-18T10:39:47.999Z</time>
      </trkpt>
      <trkpt lat="47.479" lon="6.76396">
        <ele>311</ele>
        <time>2016-12-18T10:39:48.999Z</time>
      </trkpt>
      <trkpt lat="47.47903" lon="6.76403">
        <ele>311</ele>
        <time>2016-12-18T10:39:49.999Z</time>
      </trkpt>
      <trkpt lat="47.47905" lon="6.76408">
        <ele>311</ele>
        <time>2016-12-18T10:39:50.999Z</time>
      </trkpt>
      <trkpt lat="47.47908" lon="6.76414">
        <ele>312</ele>
        <time>2016-12-18T10:39:51.999Z</time>
      </trkpt>
      <trkpt lat="47.4791" lon="6.76421">
        <ele>312</ele>
        <time>2016-12-18T10:39:52.999Z</time>
      </trkpt>
      <trkpt lat="47.47913" lon="6.76427">
        <ele>311</ele>
        <time>2016-12-18T10:39:53.999Z</time>
      </trkpt>
      <trkpt lat="47.47914" lon="6.76434">
        <ele>311</ele>
        <time>2016-12-18T10:39:54.999Z</time>
      </trkpt>
      <trkpt lat="47.47916" lon="6.76441">
        <ele>311</ele>
        <time>2016-12-18T10:39:55.999Z</time>
      </trkpt>
      <trkpt lat="47.47917" lon="6.76449">
        <ele>311</ele>
        <time>2016-12-18T10:39:56.999Z</time>
      </trkpt>
      <trkpt lat="47.47919" lon="6.76456">
        <ele>311</ele>
        <time>2016-12-18T10:39:58.000Z</time>
      </trkpt>
      <trkpt lat="47.4792" lon="6.76462">
        <ele>311</ele>
        <time>2016-12-18T10:39:58.999Z</time>
      </trkpt>
      <trkpt lat="47.47922" lon="6.76469">
        <ele>311</ele>
        <time>2016-12-18T10:39:59.999Z</time>
      </trkpt>
      <trkpt lat="47.47924" lon="6.76476">
        <ele>311</ele>
        <time>2016-12-18T10:40:01.000Z</time>
      </trkpt>
      <trkpt lat="47.47925" lon="6.76482">
        <ele>311</ele>
        <time>2016-12-18T10:40:02.000Z</time>
      </trkpt>
      <trkpt lat="47.47927" lon="6.76488">
        <ele>311</ele>
        <time>2016-12-18T10:40:03.000Z</time>
      </trkpt>
      <trkpt lat="47.47928" lon="6.76494">
        <ele>310</ele>
        <time>2016-12-18T10:40:04.000Z</time>
      </trkpt>
      <trkpt lat="47.4793" lon="6.76499">
        <ele>310</ele>
        <time>2016-12-18T10:40:05.000Z</time>
      </trkpt>
      <trkpt lat="47.47932" lon="6.76507">
        <ele>311</ele>
        <time>2016-12-18T10:40:06.000Z</time>
      </trkpt>
      <trkpt lat="47.47934" lon="6.76513">
        <ele>311</ele>
        <time>2016-12-18T10:40:07.000Z</time>
      </trkpt>
      <trkpt lat="47.47935" lon="6.76521">
        <ele>311</ele>
        <time>2016-12-18T10:40:08.000Z</time>
      </trkpt>
      <trkpt lat="47.47936" lon="6.76526">
        <ele>311</ele>
        <time>2016-12-18T10:40:09.000Z</time>
      </trkpt>
      <trkpt lat="47.47938" lon="6.76532">
        <ele>311</ele>
        <time>2016-12-18T10:40:10.000Z</time>
      </trkpt>
      <trkpt lat="47.47939" lon="6.76538">
        <ele>311</ele>
        <time>2016-12-18T10:40:11.000Z</time>
      </trkpt>
      <trkpt lat="47.47941" lon="6.76544">
        <ele>311</ele>
        <time>2016-12-18T10:40:12.000Z</time>
      </trkpt>
      <trkpt lat="47.47942" lon="6.76551">
        <ele>311</ele>
        <time>2016-12-18T10:40:13.000Z</time>
      </trkpt>
      <trkpt lat="47.47945" lon="6.76558">
        <ele>311</ele>
        <time>2016-12-18T10:40:14.000Z</time>
      </trkpt>
      <trkpt lat="47.47946" lon="6.76565">
        <ele>311</ele>
        <time>2016-12-18T10:40:15.000Z</time>
      </trkpt>
      <trkpt lat="47.47947" lon="6.7657">
        <ele>311</ele>
        <time>2016-12-18T10:40:16.000Z</time>
      </trkpt>
      <trkpt lat="47.47948" lon="6.76577">
        <ele>311</ele>
        <time>2016-12-18T10:40:17.000Z</time>
      </trkpt>
      <trkpt lat="47.4795" lon="6.76584">
        <ele>311</ele>
        <time>2016-12-18T10:40:18.000Z</time>
      </trkpt>
      <trkpt lat="47.47951" lon="6.76591">
        <ele>311</ele>
        <time>2016-12-18T10:40:19.000Z</time>
      </trkpt>
      <trkpt lat="47.47952" lon="6.76597">
        <ele>311</ele>
        <time>2016-12-18T10:40:20.000Z</time>
      </trkpt>
      <trkpt lat="47.47954" lon="6.76604">
        <ele>311</ele>
        <time>2016-12-18T10:40:21.000Z</time>
      </trkpt>
      <trkpt lat="47.47955" lon="6.76609">
        <ele>311</ele>
        <time>2016-12-18T10:40:22.000Z</time>
      </trkpt>
      <trkpt lat="47.47956" lon="6.76613">
        <ele>311</ele>
        <time>2016-12-18T10:40:23.000Z</time>
      </trkpt>
      <trkpt lat="47.47957" lon="6.76619">
        <ele>311</ele>
        <time>2016-12-18T10:40:25.000Z</time>
      </trkpt>
      <trkpt lat="47.47958" lon="6.7662">
        <ele>311</ele>
        <time>2016-12-18T10:40:26.000Z</time>
      </trkpt>
      <trkpt lat="47.47961" lon="6.76624">
        <ele>311</ele>
        <time>2016-12-18T10:40:28.000Z</time>
      </trkpt>
      <trkpt lat="47.47965" lon="6.76624">
        <ele>311</ele>
        <time>2016-12-18T10:40:29.000Z</time>
      </trkpt>
      <trkpt lat="47.47968" lon="6.76622">
        <ele>311</ele>
        <time>2016-12-18T10:40:30.000Z</time>
      </trkpt>
      <trkpt lat="47.47971" lon="6.76619">
        <ele>311</ele>
        <time>2016-12-18T10:40:31.000Z</time>
      </trkpt>
      <trkpt lat="47.47975" lon="6.76616">
        <ele>311</ele>
        <time>2016-12-18T10:40:32.000Z</time>
      </trkpt>
      <trkpt lat="47.47978" lon="6.76613">
        <ele>311</ele>
        <time>2016-12-18T10:40:33.000Z</time>
      </trkpt>
      <trkpt lat="47.47982" lon="6.76612">
        <ele>311</ele>
        <time>2016-12-18T10:40:34.000Z</time>
      </trkpt>
      <trkpt lat="47.47985" lon="6.7661">
        <ele>311</ele>
        <time>2016-12-18T10:40:35.000Z</time>
      </trkpt>
      <trkpt lat="47.47989" lon="6.76607">
        <ele>312</ele>
        <time>2016-12-18T10:40:36.000Z</time>
      </trkpt>
      <trkpt lat="47.47993" lon="6.76605">
        <ele>312</ele>
        <time>2016-12-18T10:40:37.000Z</time>
      </trkpt>
      <trkpt lat="47.47996" lon="6.76603">
        <ele>312</ele>
        <time>2016-12-18T10:40:38.000Z</time>
      </trkpt>
      <trkpt lat="47.47999" lon="6.76601">
        <ele>312</ele>
        <time>2016-12-18T10:40:39.000Z</time>
      </trkpt>
      <trkpt lat="47.48003" lon="6.76598">
        <ele>312</ele>
        <time>2016-12-18T10:40:40.000Z</time>
      </trkpt>
      <trkpt lat="47.48006" lon="6.76596">
        <ele>312</ele>
        <time>2016-12-18T10:40:41.000Z</time>
      </trkpt>
      <trkpt lat="47.48009" lon="6.76593">
        <ele>312</ele>
        <time>2016-12-18T10:40:42.000Z</time>
      </trkpt>
      <trkpt lat="47.48012" lon="6.76591">
        <ele>312</ele>
        <time>2016-12-18T10:40:43.000Z</time>
      </trkpt>
      <trkpt lat="47.48016" lon="6.76588">
        <ele>312</ele>
        <time>2016-12-18T10:40:44.000Z</time>
      </trkpt>
      <trkpt lat="47.48019" lon="6.76586">
        <ele>312</ele>
        <time>2016-12-18T10:40:45.000Z</time>
      </trkpt>
      <trkpt lat="47.48023" lon="6.76583">
        <ele>312</ele>
        <time>2016-12-18T10:40:46.000Z</time>
      </trkpt>
      <trkpt lat="47.48027" lon="6.76579">
        <ele>312</ele>
        <time>2016-12-18T10:40:47.000Z</time>
      </trkpt>
      <trkpt lat="47.48031" lon="6.76576">
        <ele>312</ele>
        <time>2016-12-18T10:40:48.000Z</time>
      </trkpt>
      <trkpt lat="47.48036" lon="6.76572">
        <ele>312</ele>
        <time>2016-12-18T10:40:49.000Z</time>
      </trkpt>
      <trkpt lat="47.4804" lon="6.7657">
        <ele>312</ele>
        <time>2016-12-18T10:40:50.000Z</time>
      </trkpt>
      <trkpt lat="47.48043" lon="6.76568">
        <ele>312</ele>
        <time>2016-12-18T10:40:51.000Z</time>
      </trkpt>
      <trkpt lat="47.48047" lon="6.76564">
        <ele>312</ele>
        <time>2016-12-18T10:40:52.000Z</time>
      </trkpt>
      <trkpt lat="47.48052" lon="6.7656">
        <ele>312</ele>
        <time>2016-12-18T10:40:53.000Z</time>
      </trkpt>
      <trkpt lat="47.48056" lon="6.76556">
        <ele>312</ele>
        <time>2016-12-18T10:40:54.000Z</time>
      </trkpt>
      <trkpt lat="47.48061" lon="6.76552">
        <ele>312</ele>
        <time>2016-12-18T10:40:55.000Z</time>
      </trkpt>
      <trkpt lat="47.48065" lon="6.76548">
        <ele>312</ele>
        <time>2016-12-18T10:40:56.000Z</time>
      </trkpt>
      <trkpt lat="47.4807" lon="6.76543">
        <ele>312</ele>
        <time>2016-12-18T10:40:57.000Z</time>
      </trkpt>
      <trkpt lat="47.48075" lon="6.76539">
        <ele>312</ele>
        <time>2016-12-18T10:40:58.000Z</time>
      </trkpt>
      <trkpt lat="47.48078" lon="6.76536">
        <ele>312</ele>
        <time>2016-12-18T10:40:59.000Z</time>
      </trkpt>
      <trkpt lat="47.48082" lon="6.76533">
        <ele>312</ele>
        <time>2016-12-18T10:41:00.000Z</time>
      </trkpt>
      <trkpt lat="47.48085" lon="6.76529">
        <ele>317</ele>
        <time>2016-12-18T10:41:01.000Z</time>
      </trkpt>
      <trkpt lat="47.48089" lon="6.76525">
        <ele>317</ele>
        <time>2016-12-18T10:41:02.000Z</time>
      </trkpt>
      <trkpt lat="47.48093" lon="6.76521">
        <ele>317</ele>
        <time>2016-12-18T10:41:03.000Z</time>
      </trkpt>
      <trkpt lat="47.48098" lon="6.76516">
        <ele>317</ele>
        <time>2016-12-18T10:41:04.000Z</time>
      </trkpt>
      <trkpt lat="47.48102" lon="6.76512">
        <ele>318</ele>
        <time>2016-12-18T10:41:05.000Z</time>
      </trkpt>
      <trkpt lat="47.48106" lon="6.76508">
        <ele>318</ele>
        <time>2016-12-18T10:41:06.000Z</time>
      </trkpt>
      <trkpt lat="47.48109" lon="6.76508">
        <ele>319</ele>
        <time>2016-12-18T10:41:07.000Z</time>
      </trkpt>
      <trkpt lat="47.48112" lon="6.76509">
        <ele>319</ele>
        <time>2016-12-18T10:41:08.000Z</time>
      </trkpt>
      <trkpt lat="47.48113" lon="6.76514">
        <ele>319</ele>
        <time>2016-12-18T10:41:09.000Z</time>
      </trkpt>
      <trkpt lat="47.48116" lon="6.76516">
        <ele>320</ele>
        <time>2016-12-18T10:41:10.000Z</time>
      </trkpt>
      <trkpt lat="47.48119" lon="6.7652">
        <ele>320</ele>
        <time>2016-12-18T10:41:11.000Z</time>
      </trkpt>
      <trkpt lat="47.48121" lon="6.76523">
        <ele>321</ele>
        <time>2016-12-18T10:41:12.000Z</time>
      </trkpt>
      <trkpt lat="47.48124" lon="6.76527">
        <ele>321</ele>
        <time>2016-12-18T10:41:13.000Z</time>
      </trkpt>
      <trkpt lat="47.48126" lon="6.76532">
        <ele>321</ele>
        <time>2016-12-18T10:41:14.000Z</time>
      </trkpt>
      <trkpt lat="47.48126" lon="6.7654">
        <ele>320</ele>
        <time>2016-12-18T10:41:15.000Z</time>
      </trkpt>
      <trkpt lat="47.48122" lon="6.76544">
        <ele>320</ele>
        <time>2016-12-18T10:41:16.000Z</time>
      </trkpt>
      <trkpt lat="47.48118" lon="6.76551">
        <ele>319</ele>
        <time>2016-12-18T10:41:17.000Z</time>
      </trkpt>
      <trkpt lat="47.48114" lon="6.76559">
        <ele>318</ele>
        <time>2016-12-18T10:41:18.000Z</time>
      </trkpt>
      <trkpt lat="47.48109" lon="6.76568">
        <ele>317</ele>
        <time>2016-12-18T10:41:19.000Z</time>
      </trkpt>
      <trkpt lat="47.48106" lon="6.76577">
        <ele>316</ele>
        <time>2016-12-18T10:41:20.000Z</time>
      </trkpt>
      <trkpt lat="47.48103" lon="6.76586">
        <ele>313</ele>
        <time>2016-12-18T10:41:21.000Z</time>
      </trkpt>
      <trkpt lat="47.481" lon="6.76596">
        <ele>313</ele>
        <time>2016-12-18T10:41:22.000Z</time>
      </trkpt>
      <trkpt lat="47.481" lon="6.76606">
        <ele>313</ele>
        <time>2016-12-18T10:41:23.000Z</time>
      </trkpt>
      <trkpt lat="47.481" lon="6.76616">
        <ele>313</ele>
        <time>2016-12-18T10:41:24.000Z</time>
      </trkpt>
      <trkpt lat="47.48103" lon="6.76625">
        <ele>313</ele>
        <time>2016-12-18T10:41:25.000Z</time>
      </trkpt>
      <trkpt lat="47.48105" lon="6.76631">
        <ele>313</ele>
        <time>2016-12-18T10:41:26.000Z</time>
      </trkpt>
      <trkpt lat="47.48106" lon="6.76637">
        <ele>313</ele>
        <time>2016-12-18T10:41:27.000Z</time>
      </trkpt>
      <trkpt lat="47.48108" lon="6.76641">
        <ele>313</ele>
        <time>2016-12-18T10:41:28.000Z</time>
      </trkpt>
      <trkpt lat="47.4811" lon="6.76645">
        <ele>313</ele>
        <time>2016-12-18T10:41:29.000Z</time>
      </trkpt>
      <trkpt lat="47.48113" lon="6.7665">
        <ele>313</ele>
        <time>2016-12-18T10:41:30.000Z</time>
      </trkpt>
      <trkpt lat="47.48116" lon="6.76657">
        <ele>313</ele>
        <time>2016-12-18T10:41:31.000Z</time>
      </trkpt>
      <trkpt lat="47.4812" lon="6.76663">
        <ele>313</ele>
        <time>2016-12-18T10:41:32.000Z</time>
      </trkpt>
      <trkpt lat="47.48124" lon="6.7667">
        <ele>312</ele>
        <time>2016-12-18T10:41:33.000Z</time>
      </trkpt>
      <trkpt lat="47.48129" lon="6.76679">
        <ele>312</ele>
        <time>2016-12-18T10:41:34.000Z</time>
      </trkpt>
      <trkpt lat="47.48133" lon="6.76686">
        <ele>312</ele>
        <time>2016-12-18T10:41:35.000Z</time>
      </trkpt>
      <trkpt lat="47.48137" lon="6.76694">
        <ele>312</ele>
        <time>2016-12-18T10:41:36.000Z</time>
      </trkpt>
      <trkpt lat="47.48142" lon="6.76704">
        <ele>312</ele>
        <time>2016-12-18T10:41:37.000Z</time>
      </trkpt>
      <trkpt lat="47.48147" lon="6.76715">
        <ele>312</ele>
        <time>2016-12-18T10:41:38.000Z</time>
      </trkpt>
      <trkpt lat="47.48152" lon="6.76726">
        <ele>312</ele>
        <time>2016-12-18T10:41:39.000Z</time>
      </trkpt>
      <trkpt lat="47.48157" lon="6.76737">
        <ele>313</ele>
        <time>2016-12-18T10:41:40.000Z</time>
      </trkpt>
      <trkpt lat="47.48162" lon="6.76747">
        <ele>313</ele>
        <time>2016-12-18T10:41:41.000Z</time>
      </trkpt>
      <trkpt lat="47.48167" lon="6.76756">
        <ele>313</ele>
        <time>2016-12-18T10:41:42.000Z</time>
      </trkpt>
      <trkpt lat="47.48173" lon="6.76764">
        <ele>313</ele>
        <time>2016-12-18T10:41:43.000Z</time>
      </trkpt>
      <trkpt lat="47.48178" lon="6.76773">
        <ele>312</ele>
        <time>2016-12-18T10:41:44.000Z</time>
      </trkpt>
      <trkpt lat="47.48185" lon="6.76781">
        <ele>312</ele>
        <time>2016-12-18T10:41:45.000Z</time>
      </trkpt>
      <trkpt lat="47.48192" lon="6.76786">
        <ele>312</ele>
        <time>2016-12-18T10:41:46.000Z</time>
      </trkpt>
      <trkpt lat="47.48199" lon="6.76788">
        <ele>312</ele>
        <time>2016-12-18T10:41:47.000Z</time>
      </trkpt>
      <trkpt lat="47.48207" lon="6.76791">
        <ele>312</ele>
        <time>2016-12-18T10:41:48.000Z</time>
      </trkpt>
      <trkpt lat="47.48214" lon="6.76793">
        <ele>312</ele>
        <time>2016-12-18T10:41:49.000Z</time>
      </trkpt>
      <trkpt lat="47.48221" lon="6.76795">
        <ele>312</ele>
        <time>2016-12-18T10:41:50.000Z</time>
      </trkpt>
      <trkpt lat="47.48228" lon="6.76798">
        <ele>312</ele>
        <time>2016-12-18T10:41:51.000Z</time>
      </trkpt>
      <trkpt lat="47.48235" lon="6.76801">
        <ele>312</ele>
        <time>2016-12-18T10:41:52.000Z</time>
      </trkpt>
      <trkpt lat="47.48241" lon="6.76805">
        <ele>312</ele>
        <time>2016-12-18T10:41:53.000Z</time>
      </trkpt>
      <trkpt lat="47.48247" lon="6.7681">
        <ele>312</ele>
        <time>2016-12-18T10:41:54.000Z</time>
      </trkpt>
      <trkpt lat="47.48254" lon="6.76816">
        <ele>312</ele>
        <time>2016-12-18T10:41:55.000Z</time>
      </trkpt>
      <trkpt lat="47.4826" lon="6.76825">
        <ele>312</ele>
        <time>2016-12-18T10:41:56.000Z</time>
      </trkpt>
      <trkpt lat="47.48264" lon="6.76833">
        <ele>312</ele>
        <time>2016-12-18T10:41:57.000Z</time>
      </trkpt>
      <trkpt lat="47.4827" lon="6.76841">
        <ele>311</ele>
        <time>2016-12-18T10:41:58.000Z</time>
      </trkpt>
      <trkpt lat="47.48275" lon="6.76849">
        <ele>311</ele>
        <time>2016-12-18T10:41:59.000Z</time>
      </trkpt>
      <trkpt lat="47.48279" lon="6.76856">
        <ele>310</ele>
        <time>2016-12-18T10:42:00.000Z</time>
      </trkpt>
      <trkpt lat="47.48283" lon="6.76863">
        <ele>310</ele>
        <time>2016-12-18T10:42:01.000Z</time>
      </trkpt>
      <trkpt lat="47.48288" lon="6.7687">
        <ele>310</ele>
        <time>2016-12-18T10:42:02.000Z</time>
      </trkpt>
      <trkpt lat="47.48293" lon="6.76877">
        <ele>310</ele>
        <time>2016-12-18T10:42:03.000Z</time>
      </trkpt>
      <trkpt lat="47.48298" lon="6.76884">
        <ele>310</ele>
        <time>2016-12-18T10:42:04.000Z</time>
      </trkpt>
      <trkpt lat="47.48304" lon="6.76889">
        <ele>310</ele>
        <time>2016-12-18T10:42:05.000Z</time>
      </trkpt>
      <trkpt lat="47.48309" lon="6.76894">
        <ele>310</ele>
        <time>2016-12-18T10:42:06.000Z</time>
      </trkpt>
      <trkpt lat="47.48314" lon="6.76898">
        <ele>310</ele>
        <time>2016-12-18T10:42:07.000Z</time>
      </trkpt>
      <trkpt lat="47.48319" lon="6.76901">
        <ele>310</ele>
        <time>2016-12-18T10:42:08.000Z</time>
      </trkpt>
      <trkpt lat="47.48325" lon="6.76906">
        <ele>310</ele>
        <time>2016-12-18T10:42:09.000Z</time>
      </trkpt>
      <trkpt lat="47.4833" lon="6.7691">
        <ele>309</ele>
        <time>2016-12-18T10:42:10.000Z</time>
      </trkpt>
      <trkpt lat="47.48336" lon="6.76915">
        <ele>309</ele>
        <time>2016-12-18T10:42:11.000Z</time>
      </trkpt>
      <trkpt lat="47.48342" lon="6.76919">
        <ele>310</ele>
        <time>2016-12-18T10:42:12.000Z</time>
      </trkpt>
      <trkpt lat="47.48347" lon="6.76922">
        <ele>310</ele>
        <time>2016-12-18T10:42:13.000Z</time>
      </trkpt>
      <trkpt lat="47.48353" lon="6.76926">
        <ele>311</ele>
        <time>2016-12-18T10:42:14.000Z</time>
      </trkpt>
      <trkpt lat="47.48358" lon="6.76929">
        <ele>311</ele>
        <time>2016-12-18T10:42:15.000Z</time>
      </trkpt>
      <trkpt lat="47.48364" lon="6.76932">
        <ele>311</ele>
        <time>2016-12-18T10:42:16.000Z</time>
      </trkpt>
      <trkpt lat="47.4837" lon="6.76935">
        <ele>312</ele>
        <time>2016-12-18T10:42:17.000Z</time>
      </trkpt>
      <trkpt lat="47.48375" lon="6.76939">
        <ele>312</ele>
        <time>2016-12-18T10:42:18.000Z</time>
      </trkpt>
      <trkpt lat="47.4838" lon="6.76942">
        <ele>312</ele>
        <time>2016-12-18T10:42:19.000Z</time>
      </trkpt>
      <trkpt lat="47.48386" lon="6.76945">
        <ele>312</ele>
        <time>2016-12-18T10:42:20.000Z</time>
      </trkpt>
      <trkpt lat="47.48391" lon="6.76948">
        <ele>312</ele>
        <time>2016-12-18T10:42:21.000Z</time>
      </trkpt>
      <trkpt lat="47.48398" lon="6.76951">
        <ele>312</ele>
        <time>2016-12-18T10:42:22.000Z</time>
      </trkpt>
      <trkpt lat="47.48404" lon="6.76955">
        <ele>312</ele>
        <time>2016-12-18T10:42:23.000Z</time>
      </trkpt>
      <trkpt lat="47.4841" lon="6.76957">
        <ele>312</ele>
        <time>2016-12-18T10:42:24.000Z</time>
      </trkpt>
      <trkpt lat="47.48415" lon="6.7696">
        <ele>312</ele>
        <time>2016-12-18T10:42:25.000Z</time>
      </trkpt>
      <trkpt lat="47.48421" lon="6.76963">
        <ele>314</ele>
        <time>2016-12-18T10:42:26.000Z</time>
      </trkpt>
      <trkpt lat="47.48427" lon="6.76965">
        <ele>314</ele>
        <time>2016-12-18T10:42:27.000Z</time>
      </trkpt>
      <trkpt lat="47.48432" lon="6.76968">
        <ele>314</ele>
        <time>2016-12-18T10:42:28.000Z</time>
      </trkpt>
      <trkpt lat="47.48437" lon="6.7697">
        <ele>314</ele>
        <time>2016-12-18T10:42:29.000Z</time>
      </trkpt>
      <trkpt lat="47.48442" lon="6.76973">
        <ele>315</ele>
        <time>2016-12-18T10:42:30.000Z</time>
      </trkpt>
      <trkpt lat="47.48447" lon="6.76975">
        <ele>315</ele>
        <time>2016-12-18T10:42:31.000Z</time>
      </trkpt>
      <trkpt lat="47.48453" lon="6.76979">
        <ele>315</ele>
        <time>2016-12-18T10:42:32.000Z</time>
      </trkpt>
      <trkpt lat="47.48458" lon="6.76982">
        <ele>315</ele>
        <time>2016-12-18T10:42:33.000Z</time>
      </trkpt>
      <trkpt lat="47.48464" lon="6.76985">
        <ele>315</ele>
        <time>2016-12-18T10:42:34.000Z</time>
      </trkpt>
      <trkpt lat="47.48469" lon="6.76989">
        <ele>315</ele>
        <time>2016-12-18T10:42:35.000Z</time>
      </trkpt>
      <trkpt lat="47.48474" lon="6.76992">
        <ele>315</ele>
        <time>2016-12-18T10:42:36.000Z</time>
      </trkpt>
      <trkpt lat="47.48479" lon="6.76996">
        <ele>315</ele>
        <time>2016-12-18T10:42:37.000Z</time>
      </trkpt>
      <trkpt lat="47.48484" lon="6.76999">
        <ele>315</ele>
        <time>2016-12-18T10:42:38.000Z</time>
      </trkpt>
      <trkpt lat="47.48488" lon="6.77002">
        <ele>315</ele>
        <time>2016-12-18T10:42:39.000Z</time>
      </trkpt>
      <trkpt lat="47.48493" lon="6.77005">
        <ele>315</ele>
        <time>2016-12-18T10:42:40.000Z</time>
      </trkpt>
      <trkpt lat="47.48499" lon="6.7701">
        <ele>315</ele>
        <time>2016-12-18T10:42:41.000Z</time>
      </trkpt>
      <trkpt lat="47.48504" lon="6.77014">
        <ele>315</ele>
        <time>2016-12-18T10:42:42.000Z</time>
      </trkpt>
      <trkpt lat="47.4851" lon="6.77019">
        <ele>315</ele>
        <time>2016-12-18T10:42:43.000Z</time>
      </trkpt>
      <trkpt lat="47.48516" lon="6.77023">
        <ele>315</ele>
        <time>2016-12-18T10:42:44.000Z</time>
      </trkpt>
      <trkpt lat="47.48521" lon="6.77028">
        <ele>314</ele>
        <time>2016-12-18T10:42:45.000Z</time>
      </trkpt>
      <trkpt lat="47.48528" lon="6.77032">
        <ele>314</ele>
        <time>2016-12-18T10:42:46.000Z</time>
      </trkpt>
      <trkpt lat="47.48534" lon="6.77037">
        <ele>314</ele>
        <time>2016-12-18T10:42:47.000Z</time>
      </trkpt>
      <trkpt lat="47.4854" lon="6.77041">
        <ele>314</ele>
        <time>2016-12-18T10:42:48.000Z</time>
      </trkpt>
      <trkpt lat="47.48546" lon="6.77045">
        <ele>314</ele>
        <time>2016-12-18T10:42:49.000Z</time>
      </trkpt>
      <trkpt lat="47.48551" lon="6.77048">
        <ele>314</ele>
        <time>2016-12-18T10:42:50.000Z</time>
      </trkpt>
      <trkpt lat="47.48556" lon="6.77051">
        <ele>314</ele>
        <time>2016-12-18T10:42:51.000Z</time>
      </trkpt>
      <trkpt lat="47.48561" lon="6.77052">
        <ele>314</ele>
        <time>2016-12-18T10:42:52.000Z</time>
      </trkpt>
      <trkpt lat="47.48565" lon="6.77052">
        <ele>314</ele>
        <time>2016-12-18T10:42:53.000Z</time>
      </trkpt>
      <trkpt lat="47.48569" lon="6.77055">
        <ele>314</ele>
        <time>2016-12-18T10:42:54.000Z</time>
      </trkpt>
      <trkpt lat="47.48575" lon="6.77059">
        <ele>314</ele>
        <time>2016-12-18T10:42:55.000Z</time>
      </trkpt>
      <trkpt lat="47.4858" lon="6.77062">
        <ele>314</ele>
        <time>2016-12-18T10:42:56.000Z</time>
      </trkpt>
      <trkpt lat="47.48586" lon="6.77064">
        <ele>313</ele>
        <time>2016-12-18T10:42:57.000Z</time>
      </trkpt>
      <trkpt lat="47.48592" lon="6.77066">
        <ele>313</ele>
        <time>2016-12-18T10:42:58.000Z</time>
      </trkpt>
      <trkpt lat="47.48597" lon="6.77068">
        <ele>313</ele>
        <time>2016-12-18T10:42:59.000Z</time>
      </trkpt>
      <trkpt lat="47.48603" lon="6.77071">
        <ele>313</ele>
        <time>2016-12-18T10:43:00.000Z</time>
      </trkpt>
      <trkpt lat="47.48608" lon="6.77075">
        <ele>313</ele>
        <time>2016-12-18T10:43:01.000Z</time>
      </trkpt>
      <trkpt lat="47.48613" lon="6.7708">
        <ele>313</ele>
        <time>2016-12-18T10:43:02.000Z</time>
      </trkpt>
      <trkpt lat="47.48618" lon="6.77085">
        <ele>312</ele>
        <time>2016-12-18T10:43:03.000Z</time>
      </trkpt>
      <trkpt lat="47.48624" lon="6.77088">
        <ele>312</ele>
        <time>2016-12-18T10:43:04.000Z</time>
      </trkpt>
      <trkpt lat="47.4863" lon="6.77091">
        <ele>312</ele>
        <time>2016-12-18T10:43:05.000Z</time>
      </trkpt>
      <trkpt lat="47.48635" lon="6.77094">
        <ele>312</ele>
        <time>2016-12-18T10:43:06.000Z</time>
      </trkpt>
      <trkpt lat="47.4864" lon="6.77099">
        <ele>312</ele>
        <time>2016-12-18T10:43:07.000Z</time>
      </trkpt>
      <trkpt lat="47.48645" lon="6.77105">
        <ele>312</ele>
        <time>2016-12-18T10:43:08.000Z</time>
      </trkpt>
      <trkpt lat="47.48652" lon="6.77113">
        <ele>312</ele>
        <time>2016-12-18T10:43:09.000Z</time>
      </trkpt>
      <trkpt lat="47.48658" lon="6.7712">
        <ele>312</ele>
        <time>2016-12-18T10:43:10.000Z</time>
      </trkpt>
      <trkpt lat="47.48664" lon="6.77127">
        <ele>312</ele>
        <time>2016-12-18T10:43:11.000Z</time>
      </trkpt>
      <trkpt lat="47.4867" lon="6.77134">
        <ele>312</ele>
        <time>2016-12-18T10:43:12.000Z</time>
      </trkpt>
      <trkpt lat="47.48676" lon="6.77141">
        <ele>311</ele>
        <time>2016-12-18T10:43:13.000Z</time>
      </trkpt>
      <trkpt lat="47.48682" lon="6.77148">
        <ele>311</ele>
        <time>2016-12-18T10:43:14.000Z</time>
      </trkpt>
      <trkpt lat="47.48688" lon="6.77155">
        <ele>311</ele>
        <time>2016-12-18T10:43:15.000Z</time>
      </trkpt>
      <trkpt lat="47.48695" lon="6.77162">
        <ele>311</ele>
        <time>2016-12-18T10:43:16.000Z</time>
      </trkpt>
      <trkpt lat="47.48701" lon="6.77169">
        <ele>311</ele>
        <time>2016-12-18T10:43:17.000Z</time>
      </trkpt>
      <trkpt lat="47.48707" lon="6.77173">
        <ele>311</ele>
        <time>2016-12-18T10:43:18.000Z</time>
      </trkpt>
      <trkpt lat="47.48713" lon="6.77178">
        <ele>310</ele>
        <time>2016-12-18T10:43:19.000Z</time>
      </trkpt>
      <trkpt lat="47.48719" lon="6.77183">
        <ele>310</ele>
        <time>2016-12-18T10:43:20.000Z</time>
      </trkpt>
      <trkpt lat="47.48724" lon="6.77187">
        <ele>310</ele>
        <time>2016-12-18T10:43:21.000Z</time>
      </trkpt>
      <trkpt lat="47.48731" lon="6.77191">
        <ele>310</ele>
        <time>2016-12-18T10:43:22.000Z</time>
      </trkpt>
      <trkpt lat="47.48737" lon="6.77195">
        <ele>310</ele>
        <time>2016-12-18T10:43:23.000Z</time>
      </trkpt>
      <trkpt lat="47.48743" lon="6.772">
        <ele>310</ele>
        <time>2016-12-18T10:43:24.000Z</time>
      </trkpt>
      <trkpt lat="47.48749" lon="6.77205">
        <ele>310</ele>
        <time>2016-12-18T10:43:25.000Z</time>
      </trkpt>
      <trkpt lat="47.48754" lon="6.77209">
        <ele>310</ele>
        <time>2016-12-18T10:43:26.000Z</time>
      </trkpt>
      <trkpt lat="47.48759" lon="6.77213">
        <ele>310</ele>
        <time>2016-12-18T10:43:27.000Z</time>
      </trkpt>
      <trkpt lat="47.48765" lon="6.77218">
        <ele>310</ele>
        <time>2016-12-18T10:43:28.000Z</time>
      </trkpt>
      <trkpt lat="47.48771" lon="6.77223">
        <ele>310</ele>
        <time>2016-12-18T10:43:29.000Z</time>
      </trkpt>
      <trkpt lat="47.48778" lon="6.77227">
        <ele>310</ele>
        <time>2016-12-18T10:43:30.000Z</time>
      </trkpt>
      <trkpt lat="47.48784" lon="6.77232">
        <ele>310</ele>
        <time>2016-12-18T10:43:31.000Z</time>
      </trkpt>
      <trkpt lat="47.4879" lon="6.77235">
        <ele>310</ele>
        <time>2016-12-18T10:43:32.000Z</time>
      </trkpt>
      <trkpt lat="47.48795" lon="6.77239">
        <ele>310</ele>
        <time>2016-12-18T10:43:33.000Z</time>
      </trkpt>
      <trkpt lat="47.488" lon="6.77242">
        <ele>310</ele>
        <time>2016-12-18T10:43:34.000Z</time>
      </trkpt>
      <trkpt lat="47.48806" lon="6.77246">
        <ele>311</ele>
        <time>2016-12-18T10:43:35.000Z</time>
      </trkpt>
      <trkpt lat="47.48811" lon="6.77249">
        <ele>311</ele>
        <time>2016-12-18T10:43:36.000Z</time>
      </trkpt>
      <trkpt lat="47.48815" lon="6.77253">
        <ele>310</ele>
        <time>2016-12-18T10:43:37.000Z</time>
      </trkpt>
      <trkpt lat="47.48821" lon="6.77257">
        <ele>310</ele>
        <time>2016-12-18T10:43:38.000Z</time>
      </trkpt>
      <trkpt lat="47.48826" lon="6.77261">
        <ele>310</ele>
        <time>2016-12-18T10:43:39.000Z</time>
      </trkpt>
      <trkpt lat="47.48831" lon="6.77264">
        <ele>310</ele>
        <time>2016-12-18T10:43:40.000Z</time>
      </trkpt>
      <trkpt lat="47.48836" lon="6.77268">
        <ele>310</ele>
        <time>2016-12-18T10:43:41.000Z</time>
      </trkpt>
      <trkpt lat="47.48841" lon="6.77271">
        <ele>310</ele>
        <time>2016-12-18T10:43:42.000Z</time>
      </trkpt>
      <trkpt lat="47.48846" lon="6.77275">
        <ele>310</ele>
        <time>2016-12-18T10:43:43.000Z</time>
      </trkpt>
      <trkpt lat="47.48851" lon="6.77278">
        <ele>310</ele>
        <time>2016-12-18T10:43:44.000Z</time>
      </trkpt>
      <trkpt lat="47.48856" lon="6.77281">
        <ele>310</ele>
        <time>2016-12-18T10:43:45.000Z</time>
      </trkpt>
      <trkpt lat="47.48862" lon="6.77284">
        <ele>310</ele>
        <time>2016-12-18T10:43:46.000Z</time>
      </trkpt>
      <trkpt lat="47.48867" lon="6.77286">
        <ele>310</ele>
        <time>2016-12-18T10:43:47.000Z</time>
      </trkpt>
      <trkpt lat="47.48873" lon="6.77288">
        <ele>310</ele>
        <time>2016-12-18T10:43:48.000Z</time>
      </trkpt>
      <trkpt lat="47.48878" lon="6.7729">
        <ele>310</ele>
        <time>2016-12-18T10:43:49.000Z</time>
      </trkpt>
      <trkpt lat="47.48884" lon="6.77292">
        <ele>310</ele>
        <time>2016-12-18T10:43:50.000Z</time>
      </trkpt>
      <trkpt lat="47.48889" lon="6.77293">
        <ele>310</ele>
        <time>2016-12-18T10:43:51.000Z</time>
      </trkpt>
      <trkpt lat="47.48895" lon="6.77294">
        <ele>310</ele>
        <time>2016-12-18T10:43:52.000Z</time>
      </trkpt>
      <trkpt lat="47.48901" lon="6.77296">
        <ele>310</ele>
        <time>2016-12-18T10:43:53.000Z</time>
      </trkpt>
      <trkpt lat="47.48907" lon="6.77299">
        <ele>310</ele>
        <time>2016-12-18T10:43:54.000Z</time>
      </trkpt>
      <trkpt lat="47.48913" lon="6.77301">
        <ele>310</ele>
        <time>2016-12-18T10:43:55.000Z</time>
      </trkpt>
      <trkpt lat="47.48918" lon="6.77304">
        <ele>311</ele>
        <time>2016-12-18T10:43:56.000Z</time>
      </trkpt>
      <trkpt lat="47.48924" lon="6.77307">
        <ele>311</ele>
        <time>2016-12-18T10:43:57.000Z</time>
      </trkpt>
      <trkpt lat="47.48931" lon="6.7731">
        <ele>311</ele>
        <time>2016-12-18T10:43:58.000Z</time>
      </trkpt>
      <trkpt lat="47.48938" lon="6.77313">
        <ele>311</ele>
        <time>2016-12-18T10:43:59.000Z</time>
      </trkpt>
      <trkpt lat="47.48946" lon="6.77316">
        <ele>311</ele>
        <time>2016-12-18T10:44:00.000Z</time>
      </trkpt>
      <trkpt lat="47.48953" lon="6.77319">
        <ele>311</ele>
        <time>2016-12-18T10:44:01.000Z</time>
      </trkpt>
      <trkpt lat="47.48961" lon="6.77322">
        <ele>311</ele>
        <time>2016-12-18T10:44:02.000Z</time>
      </trkpt>
      <trkpt lat="47.48968" lon="6.77324">
        <ele>311</ele>
        <time>2016-12-18T10:44:03.000Z</time>
      </trkpt>
      <trkpt lat="47.48975" lon="6.77325">
        <ele>311</ele>
        <time>2016-12-18T10:44:04.000Z</time>
      </trkpt>
      <trkpt lat="47.48983" lon="6.77325">
        <ele>311</ele>
        <time>2016-12-18T10:44:05.000Z</time>
      </trkpt>
      <trkpt lat="47.48991" lon="6.77325">
        <ele>311</ele>
        <time>2016-12-18T10:44:06.000Z</time>
      </trkpt>
      <trkpt lat="47.48998" lon="6.77326">
        <ele>311</ele>
        <time>2016-12-18T10:44:07.000Z</time>
      </trkpt>
      <trkpt lat="47.49006" lon="6.77325">
        <ele>311</ele>
        <time>2016-12-18T10:44:08.000Z</time>
      </trkpt>
      <trkpt lat="47.49013" lon="6.77325">
        <ele>311</ele>
        <time>2016-12-18T10:44:09.000Z</time>
      </trkpt>
      <trkpt lat="47.4902" lon="6.77325">
        <ele>311</ele>
        <time>2016-12-18T10:44:10.000Z</time>
      </trkpt>
      <trkpt lat="47.49026" lon="6.77325">
        <ele>311</ele>
        <time>2016-12-18T10:44:11.000Z</time>
      </trkpt>
      <trkpt lat="47.49031" lon="6.77325">
        <ele>311</ele>
        <time>2016-12-18T10:44:12.000Z</time>
      </trkpt>
      <trkpt lat="47.49037" lon="6.77325">
        <ele>311</ele>
        <time>2016-12-18T10:44:13.000Z</time>
      </trkpt>
      <trkpt lat="47.49042" lon="6.77325">
        <ele>311</ele>
        <time>2016-12-18T10:44:14.000Z</time>
      </trkpt>
      <trkpt lat="47.49048" lon="6.77325">
        <ele>311</ele>
        <time>2016-12-18T10:44:15.000Z</time>
      </trkpt>
      <trkpt lat="47.49054" lon="6.77326">
        <ele>311</ele>
        <time>2016-12-18T10:44:16.000Z</time>
      </trkpt>
      <trkpt lat="47.4906" lon="6.77327">
        <ele>311</ele>
        <time>2016-12-18T10:44:17.000Z</time>
      </trkpt>
      <trkpt lat="47.49066" lon="6.77327">
        <ele>311</ele>
        <time>2016-12-18T10:44:18.000Z</time>
      </trkpt>
      <trkpt lat="47.49072" lon="6.77327">
        <ele>311</ele>
        <time>2016-12-18T10:44:19.000Z</time>
      </trkpt>
      <trkpt lat="47.49077" lon="6.77327">
        <ele>311</ele>
        <time>2016-12-18T10:44:20.000Z</time>
      </trkpt>
      <trkpt lat="47.49082" lon="6.77328">
        <ele>311</ele>
        <time>2016-12-18T10:44:21.000Z</time>
      </trkpt>
      <trkpt lat="47.49088" lon="6.77327">
        <ele>311</ele>
        <time>2016-12-18T10:44:22.000Z</time>
      </trkpt>
      <trkpt lat="47.49094" lon="6.77328">
        <ele>311</ele>
        <time>2016-12-18T10:44:23.000Z</time>
      </trkpt>
      <trkpt lat="47.49099" lon="6.77328">
        <ele>311</ele>
        <time>2016-12-18T10:44:24.000Z</time>
      </trkpt>
      <trkpt lat="47.49103" lon="6.77328">
        <ele>311</ele>
        <time>2016-12-18T10:44:25.000Z</time>
      </trkpt>
      <trkpt lat="47.49109" lon="6.77329">
        <ele>311</ele>
        <time>2016-12-18T10:44:26.000Z</time>
      </trkpt>
      <trkpt lat="47.49114" lon="6.77329">
        <ele>311</ele>
        <time>2016-12-18T10:44:27.000Z</time>
      </trkpt>
      <trkpt lat="47.49119" lon="6.7733">
        <ele>311</ele>
        <time>2016-12-18T10:44:28.000Z</time>
      </trkpt>
      <trkpt lat="47.49122" lon="6.7733">
        <ele>311</ele>
        <time>2016-12-18T10:44:29.000Z</time>
      </trkpt>
      <trkpt lat="47.49127" lon="6.7733">
        <ele>311</ele>
        <time>2016-12-18T10:44:30.000Z</time>
      </trkpt>
      <trkpt lat="47.49131" lon="6.77331">
        <ele>311</ele>
        <time>2016-12-18T10:44:31.000Z</time>
      </trkpt>
      <trkpt lat="47.49136" lon="6.77331">
        <ele>311</ele>
        <time>2016-12-18T10:44:32.000Z</time>
      </trkpt>
      <trkpt lat="47.4914" lon="6.77331">
        <ele>311</ele>
        <time>2016-12-18T10:44:33.000Z</time>
      </trkpt>
      <trkpt lat="47.49144" lon="6.77332">
        <ele>311</ele>
        <time>2016-12-18T10:44:34.000Z</time>
      </trkpt>
      <trkpt lat="47.49147" lon="6.77332">
        <ele>311</ele>
        <time>2016-12-18T10:44:35.000Z</time>
      </trkpt>
      <trkpt lat="47.49149" lon="6.77333">
        <ele>311</ele>
        <time>2016-12-18T10:44:36.000Z</time>
      </trkpt>
      <trkpt lat="47.49152" lon="6.77334">
        <ele>310</ele>
        <time>2016-12-18T10:44:37.000Z</time>
      </trkpt>
      <trkpt lat="47.49154" lon="6.77334">
        <ele>310</ele>
        <time>2016-12-18T10:44:38.000Z</time>
      </trkpt>
      <trkpt lat="47.49157" lon="6.77334">
        <ele>310</ele>
        <time>2016-12-18T10:44:39.000Z</time>
      </trkpt>
      <trkpt lat="47.49159" lon="6.77335">
        <ele>310</ele>
        <time>2016-12-18T10:44:40.000Z</time>
      </trkpt>
      <trkpt lat="47.49161" lon="6.77334">
        <ele>310</ele>
        <time>2016-12-18T10:44:41.000Z</time>
      </trkpt>
      <trkpt lat="47.49164" lon="6.77334">
        <ele>310</ele>
        <time>2016-12-18T10:44:42.000Z</time>
      </trkpt>
      <trkpt lat="47.49168" lon="6.77334">
        <ele>310</ele>
        <time>2016-12-18T10:44:43.000Z</time>
      </trkpt>
      <trkpt lat="47.49171" lon="6.77334">
        <ele>310</ele>
        <time>2016-12-18T10:44:44.000Z</time>
      </trkpt>
      <trkpt lat="47.49173" lon="6.77334">
        <ele>310</ele>
        <time>2016-12-18T10:44:45.000Z</time>
      </trkpt>
      <trkpt lat="47.49177" lon="6.77334">
        <ele>310</ele>
        <time>2016-12-18T10:44:47.000Z</time>
      </trkpt>
      <trkpt lat="47.49179" lon="6.77334">
        <ele>310</ele>
        <time>2016-12-18T10:44:48.000Z</time>
      </trkpt>
      <trkpt lat="47.49183" lon="6.77334">
        <ele>310</ele>
        <time>2016-12-18T10:49:21.000Z</time>
      </trkpt>
      <trkpt lat="47.49183" lon="6.77334">
        <ele>310</ele>
        <time>2016-12-18T10:49:22.000Z</time>
      </trkpt>
      <trkpt lat="47.49179" lon="6.77332">
        <ele>310</ele>
        <time>2016-12-18T10:49:53.000Z</time>
      </trkpt>
      <trkpt lat="47.49179" lon="6.77331">
        <ele>310</ele>
        <time>2016-12-18T10:49:54.000Z</time>
      </trkpt>
      <trkpt lat="47.49182" lon="6.77336">
        <ele>310</ele>
        <time>2016-12-18T10:50:07.000Z</time>
      </trkpt>
      <trkpt lat="47.49183" lon="6.77337">
        <ele>310</ele>
        <time>2016-12-18T10:50:08.000Z</time>
      </trkpt>
      <trkpt lat="47.49187" lon="6.77337">
        <ele>309</ele>
        <time>2016-12-18T10:50:10.000Z</time>
      </trkpt>
      <trkpt lat="47.4919" lon="6.77337">
        <ele>309</ele>
        <time>2016-12-18T10:50:11.000Z</time>
      </trkpt>
      <trkpt lat="47.49192" lon="6.77337">
        <ele>309</ele>
        <time>2016-12-18T10:50:12.000Z</time>
      </trkpt>
      <trkpt lat="47.49194" lon="6.77337">
        <ele>309</ele>
        <time>2016-12-18T10:50:13.000Z</time>
      </trkpt>
      <trkpt lat="47.49197" lon="6.77337">
        <ele>309</ele>
        <time>2016-12-18T10:50:14.000Z</time>
      </trkpt>
      <trkpt lat="47.492" lon="6.77338">
        <ele>309</ele>
        <time>2016-12-18T10:50:15.000Z</time>
      </trkpt>
      <trkpt lat="47.49204" lon="6.77338">
        <ele>309</ele>
        <time>2016-12-18T10:50:16.000Z</time>
      </trkpt>
      <trkpt lat="47.49208" lon="6.77338">
        <ele>309</ele>
        <time>2016-12-18T10:50:17.000Z</time>
      </trkpt>
      <trkpt lat="47.49212" lon="6.77338">
        <ele>309</ele>
        <time>2016-12-18T10:50:18.000Z</time>
      </trkpt>
      <trkpt lat="47.49217" lon="6.77339">
        <ele>309</ele>
        <time>2016-12-18T10:50:19.000Z</time>
      </trkpt>
      <trkpt lat="47.4922" lon="6.77339">
        <ele>309</ele>
        <time>2016-12-18T10:50:20.000Z</time>
      </trkpt>
      <trkpt lat="47.49224" lon="6.7734">
        <ele>309</ele>
        <time>2016-12-18T10:50:21.000Z</time>
      </trkpt>
      <trkpt lat="47.49228" lon="6.7734">
        <ele>309</ele>
        <time>2016-12-18T10:50:22.000Z</time>
      </trkpt>
      <trkpt lat="47.49233" lon="6.7734">
        <ele>310</ele>
        <time>2016-12-18T10:50:23.000Z</time>
      </trkpt>
      <trkpt lat="47.49238" lon="6.77341">
        <ele>310</ele>
        <time>2016-12-18T10:50:24.000Z</time>
      </trkpt>
      <trkpt lat="47.49243" lon="6.77339">
        <ele>310</ele>
        <time>2016-12-18T10:50:25.000Z</time>
      </trkpt>
      <trkpt lat="47.49247" lon="6.77337">
        <ele>310</ele>
        <time>2016-12-18T10:50:26.000Z</time>
      </trkpt>
      <trkpt lat="47.4925" lon="6.77335">
        <ele>310</ele>
        <time>2016-12-18T10:50:27.000Z</time>
      </trkpt>
      <trkpt lat="47.49254" lon="6.77333">
        <ele>310</ele>
        <time>2016-12-18T10:50:28.000Z</time>
      </trkpt>
      <trkpt lat="47.49258" lon="6.77331">
        <ele>310</ele>
        <time>2016-12-18T10:50:29.000Z</time>
      </trkpt>
      <trkpt lat="47.49262" lon="6.77329">
        <ele>310</ele>
        <time>2016-12-18T10:50:30.000Z</time>
      </trkpt>
      <trkpt lat="47.49267" lon="6.77327">
        <ele>310</ele>
        <time>2016-12-18T10:50:31.000Z</time>
      </trkpt>
      <trkpt lat="47.49272" lon="6.77327">
        <ele>310</ele>
        <time>2016-12-18T10:50:32.000Z</time>
      </trkpt>
      <trkpt lat="47.49278" lon="6.77327">
        <ele>310</ele>
        <time>2016-12-18T10:50:33.000Z</time>
      </trkpt>
      <trkpt lat="47.49285" lon="6.77328">
        <ele>310</ele>
        <time>2016-12-18T10:50:34.000Z</time>
      </trkpt>
      <trkpt lat="47.49291" lon="6.77329">
        <ele>310</ele>
        <time>2016-12-18T10:50:35.000Z</time>
      </trkpt>
      <trkpt lat="47.49296" lon="6.7733">
        <ele>310</ele>
        <time>2016-12-18T10:50:36.000Z</time>
      </trkpt>
      <trkpt lat="47.49301" lon="6.7733">
        <ele>310</ele>
        <time>2016-12-18T10:50:37.000Z</time>
      </trkpt>
      <trkpt lat="47.49306" lon="6.7733">
        <ele>310</ele>
        <time>2016-12-18T10:50:38.000Z</time>
      </trkpt>
      <trkpt lat="47.49311" lon="6.77331">
        <ele>310</ele>
        <time>2016-12-18T10:50:39.000Z</time>
      </trkpt>
      <trkpt lat="47.49316" lon="6.77332">
        <ele>310</ele>
        <time>2016-12-18T10:50:40.000Z</time>
      </trkpt>
      <trkpt lat="47.49321" lon="6.77332">
        <ele>310</ele>
        <time>2016-12-18T10:50:41.000Z</time>
      </trkpt>
      <trkpt lat="47.49325" lon="6.77335">
        <ele>310</ele>
        <time>2016-12-18T10:50:42.000Z</time>
      </trkpt>
      <trkpt lat="47.4933" lon="6.77338">
        <ele>310</ele>
        <time>2016-12-18T10:50:43.000Z</time>
      </trkpt>
      <trkpt lat="47.49333" lon="6.77341">
        <ele>310</ele>
        <time>2016-12-18T10:50:44.000Z</time>
      </trkpt>
      <trkpt lat="47.49336" lon="6.77343">
        <ele>310</ele>
        <time>2016-12-18T10:50:45.000Z</time>
      </trkpt>
      <trkpt lat="47.4934" lon="6.77346">
        <ele>310</ele>
        <time>2016-12-18T10:50:46.000Z</time>
      </trkpt>
      <trkpt lat="47.49345" lon="6.77347">
        <ele>310</ele>
        <time>2016-12-18T10:50:47.000Z</time>
      </trkpt>
      <trkpt lat="47.49349" lon="6.77347">
        <ele>310</ele>
        <time>2016-12-18T10:50:48.000Z</time>
      </trkpt>
      <trkpt lat="47.49354" lon="6.77348">
        <ele>310</ele>
        <time>2016-12-18T10:50:49.000Z</time>
      </trkpt>
      <trkpt lat="47.49359" lon="6.77349">
        <ele>310</ele>
        <time>2016-12-18T10:50:50.000Z</time>
      </trkpt>
      <trkpt lat="47.49364" lon="6.77349">
        <ele>310</ele>
        <time>2016-12-18T10:50:51.000Z</time>
      </trkpt>
      <trkpt lat="47.4937" lon="6.7735">
        <ele>310</ele>
        <time>2016-12-18T10:50:52.000Z</time>
      </trkpt>
      <trkpt lat="47.49376" lon="6.7735">
        <ele>310</ele>
        <time>2016-12-18T10:50:53.000Z</time>
      </trkpt>
      <trkpt lat="47.49381" lon="6.7735">
        <ele>310</ele>
        <time>2016-12-18T10:50:54.000Z</time>
      </trkpt>
      <trkpt lat="47.49386" lon="6.7735">
        <ele>310</ele>
        <time>2016-12-18T10:50:55.000Z</time>
      </trkpt>
      <trkpt lat="47.49392" lon="6.7735">
        <ele>310</ele>
        <time>2016-12-18T10:50:56.000Z</time>
      </trkpt>
      <trkpt lat="47.49397" lon="6.7735">
        <ele>310</ele>
        <time>2016-12-18T10:50:57.000Z</time>
      </trkpt>
      <trkpt lat="47.49403" lon="6.77351">
        <ele>310</ele>
        <time>2016-12-18T10:50:58.000Z</time>
      </trkpt>
      <trkpt lat="47.49409" lon="6.77351">
        <ele>311</ele>
        <time>2016-12-18T10:50:59.000Z</time>
      </trkpt>
      <trkpt lat="47.49414" lon="6.77352">
        <ele>311</ele>
        <time>2016-12-18T10:51:00.000Z</time>
      </trkpt>
      <trkpt lat="47.49419" lon="6.77353">
        <ele>311</ele>
        <time>2016-12-18T10:51:01.000Z</time>
      </trkpt>
      <trkpt lat="47.49424" lon="6.77353">
        <ele>311</ele>
        <time>2016-12-18T10:51:02.000Z</time>
      </trkpt>
      <trkpt lat="47.49429" lon="6.77353">
        <ele>311</ele>
        <time>2016-12-18T10:51:03.000Z</time>
      </trkpt>
      <trkpt lat="47.49435" lon="6.77353">
        <ele>311</ele>
        <time>2016-12-18T10:51:04.000Z</time>
      </trkpt>
      <trkpt lat="47.49441" lon="6.77354">
        <ele>311</ele>
        <time>2016-12-18T10:51:05.000Z</time>
      </trkpt>
      <trkpt lat="47.49446" lon="6.77354">
        <ele>311</ele>
        <time>2016-12-18T10:51:06.000Z</time>
      </trkpt>
      <trkpt lat="47.49451" lon="6.77355">
        <ele>311</ele>
        <time>2016-12-18T10:51:07.000Z</time>
      </trkpt>
      <trkpt lat="47.49456" lon="6.77356">
        <ele>311</ele>
        <time>2016-12-18T10:51:08.000Z</time>
      </trkpt>
      <trkpt lat="47.49461" lon="6.77356">
        <ele>311</ele>
        <time>2016-12-18T10:51:09.000Z</time>
      </trkpt>
      <trkpt lat="47.49467" lon="6.77357">
        <ele>311</ele>
        <time>2016-12-18T10:51:10.000Z</time>
      </trkpt>
      <trkpt lat="47.49472" lon="6.77357">
        <ele>311</ele>
        <time>2016-12-18T10:51:11.000Z</time>
      </trkpt>
      <trkpt lat="47.49477" lon="6.77357">
        <ele>311</ele>
        <time>2016-12-18T10:51:12.000Z</time>
      </trkpt>
      <trkpt lat="47.49482" lon="6.77358">
        <ele>311</ele>
        <time>2016-12-18T10:51:13.000Z</time>
      </trkpt>
      <trkpt lat="47.49487" lon="6.77358">
        <ele>311</ele>
        <time>2016-12-18T10:51:14.000Z</time>
      </trkpt>
      <trkpt lat="47.49492" lon="6.77358">
        <ele>311</ele>
        <time>2016-12-18T10:51:15.000Z</time>
      </trkpt>
      <trkpt lat="47.49498" lon="6.77358">
        <ele>312</ele>
        <time>2016-12-18T10:51:16.000Z</time>
      </trkpt>
      <trkpt lat="47.49503" lon="6.77359">
        <ele>312</ele>
        <time>2016-12-18T10:51:17.000Z</time>
      </trkpt>
      <trkpt lat="47.49509" lon="6.77359">
        <ele>312</ele>
        <time>2016-12-18T10:51:18.000Z</time>
      </trkpt>
      <trkpt lat="47.49514" lon="6.7736">
        <ele>312</ele>
        <time>2016-12-18T10:51:19.000Z</time>
      </trkpt>
      <trkpt lat="47.49519" lon="6.7736">
        <ele>312</ele>
        <time>2016-12-18T10:51:20.000Z</time>
      </trkpt>
      <trkpt lat="47.49525" lon="6.7736">
        <ele>312</ele>
        <time>2016-12-18T10:51:21.000Z</time>
      </trkpt>
      <trkpt lat="47.4953" lon="6.7736">
        <ele>312</ele>
        <time>2016-12-18T10:51:22.000Z</time>
      </trkpt>
      <trkpt lat="47.49536" lon="6.77361">
        <ele>312</ele>
        <time>2016-12-18T10:51:23.000Z</time>
      </trkpt>
      <trkpt lat="47.49541" lon="6.77361">
        <ele>312</ele>
        <time>2016-12-18T10:51:24.000Z</time>
      </trkpt>
      <trkpt lat="47.49545" lon="6.77362">
        <ele>312</ele>
        <time>2016-12-18T10:51:25.000Z</time>
      </trkpt>
      <trkpt lat="47.49551" lon="6.77362">
        <ele>312</ele>
        <time>2016-12-18T10:51:26.000Z</time>
      </trkpt>
      <trkpt lat="47.49557" lon="6.77362">
        <ele>312</ele>
        <time>2016-12-18T10:51:27.000Z</time>
      </trkpt>
      <trkpt lat="47.49562" lon="6.77362">
        <ele>312</ele>
        <time>2016-12-18T10:51:28.000Z</time>
      </trkpt>
      <trkpt lat="47.49567" lon="6.77362">
        <ele>312</ele>
        <time>2016-12-18T10:51:29.000Z</time>
      </trkpt>
      <trkpt lat="47.49572" lon="6.77363">
        <ele>313</ele>
        <time>2016-12-18T10:51:30.000Z</time>
      </trkpt>
      <trkpt lat="47.49577" lon="6.77363">
        <ele>313</ele>
        <time>2016-12-18T10:51:31.000Z</time>
      </trkpt>
      <trkpt lat="47.49582" lon="6.77362">
        <ele>313</ele>
        <time>2016-12-18T10:51:32.000Z</time>
      </trkpt>
      <trkpt lat="47.49587" lon="6.77362">
        <ele>313</ele>
        <time>2016-12-18T10:51:33.000Z</time>
      </trkpt>
      <trkpt lat="47.49593" lon="6.77361">
        <ele>313</ele>
        <time>2016-12-18T10:51:34.000Z</time>
      </trkpt>
      <trkpt lat="47.49597" lon="6.77361">
        <ele>313</ele>
        <time>2016-12-18T10:51:35.000Z</time>
      </trkpt>
      <trkpt lat="47.49602" lon="6.7736">
        <ele>313</ele>
        <time>2016-12-18T10:51:36.000Z</time>
      </trkpt>
      <trkpt lat="47.49607" lon="6.77358">
        <ele>313</ele>
        <time>2016-12-18T10:51:37.000Z</time>
      </trkpt>
      <trkpt lat="47.49612" lon="6.77357">
        <ele>313</ele>
        <time>2016-12-18T10:51:38.000Z</time>
      </trkpt>
      <trkpt lat="47.49616" lon="6.77356">
        <ele>313</ele>
        <time>2016-12-18T10:51:39.000Z</time>
      </trkpt>
      <trkpt lat="47.49621" lon="6.77355">
        <ele>313</ele>
        <time>2016-12-18T10:51:40.000Z</time>
      </trkpt>
      <trkpt lat="47.49626" lon="6.77354">
        <ele>313</ele>
        <time>2016-12-18T10:51:41.000Z</time>
      </trkpt>
      <trkpt lat="47.4963" lon="6.77354">
        <ele>313</ele>
        <time>2016-12-18T10:51:42.000Z</time>
      </trkpt>
      <trkpt lat="47.49636" lon="6.77353">
        <ele>313</ele>
        <time>2016-12-18T10:51:43.000Z</time>
      </trkpt>
      <trkpt lat="47.49642" lon="6.77351">
        <ele>313</ele>
        <time>2016-12-18T10:51:44.000Z</time>
      </trkpt>
      <trkpt lat="47.49647" lon="6.7735">
        <ele>313</ele>
        <time>2016-12-18T10:51:45.000Z</time>
      </trkpt>
      <trkpt lat="47.49653" lon="6.7735">
        <ele>313</ele>
        <time>2016-12-18T10:51:46.000Z</time>
      </trkpt>
      <trkpt lat="47.49659" lon="6.77348">
        <ele>313</ele>
        <time>2016-12-18T10:51:47.000Z</time>
      </trkpt>
      <trkpt lat="47.49665" lon="6.77346">
        <ele>313</ele>
        <time>2016-12-18T10:51:48.000Z</time>
      </trkpt>
      <trkpt lat="47.49671" lon="6.77345">
        <ele>313</ele>
        <time>2016-12-18T10:51:49.000Z</time>
      </trkpt>
      <trkpt lat="47.49677" lon="6.77343">
        <ele>313</ele>
        <time>2016-12-18T10:51:50.000Z</time>
      </trkpt>
      <trkpt lat="47.49683" lon="6.77342">
        <ele>313</ele>
        <time>2016-12-18T10:51:51.000Z</time>
      </trkpt>
      <trkpt lat="47.49689" lon="6.7734">
        <ele>313</ele>
        <time>2016-12-18T10:51:52.000Z</time>
      </trkpt>
      <trkpt lat="47.49694" lon="6.77339">
        <ele>313</ele>
        <time>2016-12-18T10:51:53.000Z</time>
      </trkpt>
      <trkpt lat="47.49699" lon="6.77337">
        <ele>313</ele>
        <time>2016-12-18T10:51:54.000Z</time>
      </trkpt>
      <trkpt lat="47.49703" lon="6.77335">
        <ele>313</ele>
        <time>2016-12-18T10:51:55.000Z</time>
      </trkpt>
      <trkpt lat="47.49707" lon="6.77334">
        <ele>313</ele>
        <time>2016-12-18T10:51:56.000Z</time>
      </trkpt>
      <trkpt lat="47.49712" lon="6.77334">
        <ele>313</ele>
        <time>2016-12-18T10:51:57.000Z</time>
      </trkpt>
      <trkpt lat="47.49717" lon="6.77333">
        <ele>314</ele>
        <time>2016-12-18T10:51:58.000Z</time>
      </trkpt>
      <trkpt lat="47.49722" lon="6.77332">
        <ele>314</ele>
        <time>2016-12-18T10:51:59.000Z</time>
      </trkpt>
      <trkpt lat="47.49727" lon="6.77329">
        <ele>314</ele>
        <time>2016-12-18T10:52:00.000Z</time>
      </trkpt>
      <trkpt lat="47.49732" lon="6.77326">
        <ele>314</ele>
        <time>2016-12-18T10:52:01.000Z</time>
      </trkpt>
      <trkpt lat="47.49738" lon="6.77322">
        <ele>314</ele>
        <time>2016-12-18T10:52:02.000Z</time>
      </trkpt>
      <trkpt lat="47.49743" lon="6.77319">
        <ele>314</ele>
        <time>2016-12-18T10:52:03.000Z</time>
      </trkpt>
      <trkpt lat="47.49747" lon="6.77316">
        <ele>314</ele>
        <time>2016-12-18T10:52:04.000Z</time>
      </trkpt>
      <trkpt lat="47.49751" lon="6.77314">
        <ele>315</ele>
        <time>2016-12-18T10:52:05.000Z</time>
      </trkpt>
      <trkpt lat="47.49756" lon="6.77312">
        <ele>316</ele>
        <time>2016-12-18T10:52:06.000Z</time>
      </trkpt>
      <trkpt lat="47.49761" lon="6.77309">
        <ele>316</ele>
        <time>2016-12-18T10:52:07.000Z</time>
      </trkpt>
      <trkpt lat="47.49767" lon="6.77307">
        <ele>316</ele>
        <time>2016-12-18T10:52:08.000Z</time>
      </trkpt>
      <trkpt lat="47.49772" lon="6.77307">
        <ele>316</ele>
        <time>2016-12-18T10:52:09.000Z</time>
      </trkpt>
      <trkpt lat="47.49777" lon="6.77307">
        <ele>317</ele>
        <time>2016-12-18T10:52:10.000Z</time>
      </trkpt>
      <trkpt lat="47.49781" lon="6.77307">
        <ele>317</ele>
        <time>2016-12-18T10:52:11.000Z</time>
      </trkpt>
      <trkpt lat="47.49786" lon="6.77307">
        <ele>317</ele>
        <time>2016-12-18T10:52:12.000Z</time>
      </trkpt>
      <trkpt lat="47.49791" lon="6.77307">
        <ele>317</ele>
        <time>2016-12-18T10:52:13.000Z</time>
      </trkpt>
      <trkpt lat="47.49796" lon="6.77307">
        <ele>317</ele>
        <time>2016-12-18T10:52:14.000Z</time>
      </trkpt>
      <trkpt lat="47.49801" lon="6.77306">
        <ele>317</ele>
        <time>2016-12-18T10:52:15.000Z</time>
      </trkpt>
      <trkpt lat="47.49805" lon="6.77306">
        <ele>317</ele>
        <time>2016-12-18T10:52:16.000Z</time>
      </trkpt>
      <trkpt lat="47.49809" lon="6.77305">
        <ele>317</ele>
        <time>2016-12-18T10:52:17.000Z</time>
      </trkpt>
      <trkpt lat="47.49813" lon="6.77304">
        <ele>317</ele>
        <time>2016-12-18T10:52:18.000Z</time>
      </trkpt>
      <trkpt lat="47.49818" lon="6.77303">
        <ele>317</ele>
        <time>2016-12-18T10:52:19.000Z</time>
      </trkpt>
      <trkpt lat="47.49822" lon="6.77304">
        <ele>317</ele>
        <time>2016-12-18T10:52:20.000Z</time>
      </trkpt>
      <trkpt lat="47.49828" lon="6.77303">
        <ele>317</ele>
        <time>2016-12-18T10:52:21.000Z</time>
      </trkpt>
      <trkpt lat="47.49834" lon="6.77302">
        <ele>318</ele>
        <time>2016-12-18T10:52:22.000Z</time>
      </trkpt>
      <trkpt lat="47.49841" lon="6.77301">
        <ele>318</ele>
        <time>2016-12-18T10:52:23.000Z</time>
      </trkpt>
      <trkpt lat="47.49847" lon="6.77301">
        <ele>318</ele>
        <time>2016-12-18T10:52:24.000Z</time>
      </trkpt>
      <trkpt lat="47.49853" lon="6.77301">
        <ele>318</ele>
        <time>2016-12-18T10:52:25.000Z</time>
      </trkpt>
      <trkpt lat="47.49858" lon="6.77301">
        <ele>318</ele>
        <time>2016-12-18T10:52:26.000Z</time>
      </trkpt>
      <trkpt lat="47.49863" lon="6.77301">
        <ele>318</ele>
        <time>2016-12-18T10:52:27.000Z</time>
      </trkpt>
      <trkpt lat="47.49868" lon="6.773">
        <ele>318</ele>
        <time>2016-12-18T10:52:28.000Z</time>
      </trkpt>
      <trkpt lat="47.49872" lon="6.77299">
        <ele>318</ele>
        <time>2016-12-18T10:52:29.000Z</time>
      </trkpt>
      <trkpt lat="47.49876" lon="6.77298">
        <ele>318</ele>
        <time>2016-12-18T10:52:30.000Z</time>
      </trkpt>
      <trkpt lat="47.49881" lon="6.77297">
        <ele>318</ele>
        <time>2016-12-18T10:52:31.000Z</time>
      </trkpt>
      <trkpt lat="47.49885" lon="6.77296">
        <ele>318</ele>
        <time>2016-12-18T10:52:32.000Z</time>
      </trkpt>
      <trkpt lat="47.49891" lon="6.77295">
        <ele>319</ele>
        <time>2016-12-18T10:52:33.000Z</time>
      </trkpt>
      <trkpt lat="47.49896" lon="6.77293">
        <ele>319</ele>
        <time>2016-12-18T10:52:34.000Z</time>
      </trkpt>
      <trkpt lat="47.49901" lon="6.77291">
        <ele>319</ele>
        <time>2016-12-18T10:52:35.000Z</time>
      </trkpt>
      <trkpt lat="47.49906" lon="6.77288">
        <ele>319</ele>
        <time>2016-12-18T10:52:36.000Z</time>
      </trkpt>
      <trkpt lat="47.49911" lon="6.77285">
        <ele>319</ele>
        <time>2016-12-18T10:52:37.000Z</time>
      </trkpt>
      <trkpt lat="47.49915" lon="6.77282">
        <ele>320</ele>
        <time>2016-12-18T10:52:38.000Z</time>
      </trkpt>
      <trkpt lat="47.49919" lon="6.7728">
        <ele>318</ele>
        <time>2016-12-18T10:52:39.000Z</time>
      </trkpt>
      <trkpt lat="47.49924" lon="6.77277">
        <ele>318</ele>
        <time>2016-12-18T10:52:40.000Z</time>
      </trkpt>
      <trkpt lat="47.49929" lon="6.77274">
        <ele>319</ele>
        <time>2016-12-18T10:52:41.000Z</time>
      </trkpt>
      <trkpt lat="47.49933" lon="6.77272">
        <ele>319</ele>
        <time>2016-12-18T10:52:42.000Z</time>
      </trkpt>
      <trkpt lat="47.49937" lon="6.77269">
        <ele>318</ele>
        <time>2016-12-18T10:52:43.000Z</time>
      </trkpt>
      <trkpt lat="47.49941" lon="6.77266">
        <ele>318</ele>
        <time>2016-12-18T10:52:44.000Z</time>
      </trkpt>
      <trkpt lat="47.49945" lon="6.77264">
        <ele>318</ele>
        <time>2016-12-18T10:52:45.000Z</time>
      </trkpt>
      <trkpt lat="47.49949" lon="6.77262">
        <ele>318</ele>
        <time>2016-12-18T10:52:46.000Z</time>
      </trkpt>
      <trkpt lat="47.49952" lon="6.7726">
        <ele>318</ele>
        <time>2016-12-18T10:52:47.000Z</time>
      </trkpt>
      <trkpt lat="47.49957" lon="6.77258">
        <ele>318</ele>
        <time>2016-12-18T10:52:48.000Z</time>
      </trkpt>
      <trkpt lat="47.49962" lon="6.77255">
        <ele>317</ele>
        <time>2016-12-18T10:52:49.000Z</time>
      </trkpt>
      <trkpt lat="47.49966" lon="6.77252">
        <ele>317</ele>
        <time>2016-12-18T10:52:50.000Z</time>
      </trkpt>
      <trkpt lat="47.49972" lon="6.77249">
        <ele>327</ele>
        <time>2016-12-18T10:52:51.000Z</time>
      </trkpt>
      <trkpt lat="47.49977" lon="6.77247">
        <ele>326</ele>
        <time>2016-12-18T10:52:52.000Z</time>
      </trkpt>
      <trkpt lat="47.49982" lon="6.77244">
        <ele>325</ele>
        <time>2016-12-18T10:52:53.000Z</time>
      </trkpt>
      <trkpt lat="47.49987" lon="6.77242">
        <ele>324</ele>
        <time>2016-12-18T10:52:54.000Z</time>
      </trkpt>
      <trkpt lat="47.49992" lon="6.7724">
        <ele>323</ele>
        <time>2016-12-18T10:52:55.000Z</time>
      </trkpt>
      <trkpt lat="47.49997" lon="6.77238">
        <ele>323</ele>
        <time>2016-12-18T10:52:56.000Z</time>
      </trkpt>
      <trkpt lat="47.50001" lon="6.77237">
        <ele>322</ele>
        <time>2016-12-18T10:52:57.000Z</time>
      </trkpt>
      <trkpt lat="47.50003" lon="6.77236">
        <ele>322</ele>
        <time>2016-12-18T10:52:58.000Z</time>
      </trkpt>
      <trkpt lat="47.50006" lon="6.77234">
        <ele>324</ele>
        <time>2016-12-18T10:53:01.000Z</time>
      </trkpt>
      <trkpt lat="47.50008" lon="6.77234">
        <ele>324</ele>
        <time>2016-12-18T10:53:02.000Z</time>
      </trkpt>
      <trkpt lat="47.50012" lon="6.77233">
        <ele>324</ele>
        <time>2016-12-18T10:53:22.000Z</time>
      </trkpt>
      <trkpt lat="47.50012" lon="6.77232">
        <ele>325</ele>
        <time>2016-12-18T10:53:23.000Z</time>
      </trkpt>
      <trkpt lat="47.50017" lon="6.7723">
        <ele>325</ele>
        <time>2016-12-18T10:54:03.000Z</time>
      </trkpt>
      <trkpt lat="47.50017" lon="6.77231">
        <ele>325</ele>
        <time>2016-12-18T10:54:04.000Z</time>
      </trkpt>
      <trkpt lat="47.50013" lon="6.77228">
        <ele>326</ele>
        <time>2016-12-18T10:54:24.000Z</time>
      </trkpt>
      <trkpt lat="47.50013" lon="6.77227">
        <ele>326</ele>
        <time>2016-12-18T10:54:25.000Z</time>
      </trkpt>
      <trkpt lat="47.50016" lon="6.77223">
        <ele>327</ele>
        <time>2016-12-18T10:56:59.000Z</time>
      </trkpt>
      <trkpt lat="47.50018" lon="6.77222">
        <ele>327</ele>
        <time>2016-12-18T10:57:00.000Z</time>
      </trkpt>
      <trkpt lat="47.50021" lon="6.77221">
        <ele>328</ele>
        <time>2016-12-18T10:57:01.000Z</time>
      </trkpt>
      <trkpt lat="47.50024" lon="6.7722">
        <ele>328</ele>
        <time>2016-12-18T10:57:02.000Z</time>
      </trkpt>
      <trkpt lat="47.50032" lon="6.77218">
        <ele>328</ele>
        <time>2016-12-18T10:57:03.000Z</time>
      </trkpt>
      <trkpt lat="47.50035" lon="6.77218">
        <ele>328</ele>
        <time>2016-12-18T10:57:04.000Z</time>
      </trkpt>
      <trkpt lat="47.50039" lon="6.77217">
        <ele>329</ele>
        <time>2016-12-18T10:57:05.000Z</time>
      </trkpt>
      <trkpt lat="47.50043" lon="6.77215">
        <ele>329</ele>
        <time>2016-12-18T10:57:06.000Z</time>
      </trkpt>
      <trkpt lat="47.50047" lon="6.77214">
        <ele>329</ele>
        <time>2016-12-18T10:57:07.000Z</time>
      </trkpt>
      <trkpt lat="47.5005" lon="6.77212">
        <ele>329</ele>
        <time>2016-12-18T10:57:08.000Z</time>
      </trkpt>
      <trkpt lat="47.50055" lon="6.77211">
        <ele>329</ele>
        <time>2016-12-18T10:57:09.000Z</time>
      </trkpt>
      <trkpt lat="47.50059" lon="6.7721">
        <ele>329</ele>
        <time>2016-12-18T10:57:10.000Z</time>
      </trkpt>
      <trkpt lat="47.50064" lon="6.77211">
        <ele>329</ele>
        <time>2016-12-18T10:57:11.000Z</time>
      </trkpt>
      <trkpt lat="47.50069" lon="6.7721">
        <ele>329</ele>
        <time>2016-12-18T10:57:12.000Z</time>
      </trkpt>
      <trkpt lat="47.50074" lon="6.77208">
        <ele>329</ele>
        <time>2016-12-18T10:57:13.000Z</time>
      </trkpt>
      <trkpt lat="47.50078" lon="6.77206">
        <ele>329</ele>
        <time>2016-12-18T10:57:14.000Z</time>
      </trkpt>
      <trkpt lat="47.50082" lon="6.77204">
        <ele>330</ele>
        <time>2016-12-18T10:57:15.000Z</time>
      </trkpt>
      <trkpt lat="47.50087" lon="6.77202">
        <ele>326</ele>
        <time>2016-12-18T10:57:16.000Z</time>
      </trkpt>
      <trkpt lat="47.50092" lon="6.77199">
        <ele>326</ele>
        <time>2016-12-18T10:57:17.000Z</time>
      </trkpt>
      <trkpt lat="47.50096" lon="6.77198">
        <ele>326</ele>
        <time>2016-12-18T10:57:18.000Z</time>
      </trkpt>
      <trkpt lat="47.50101" lon="6.77198">
        <ele>326</ele>
        <time>2016-12-18T10:57:19.000Z</time>
      </trkpt>
      <trkpt lat="47.50107" lon="6.772">
        <ele>325</ele>
        <time>2016-12-18T10:57:20.000Z</time>
      </trkpt>
      <trkpt lat="47.50112" lon="6.77201">
        <ele>325</ele>
        <time>2016-12-18T10:57:21.000Z</time>
      </trkpt>
      <trkpt lat="47.50118" lon="6.77201">
        <ele>324</ele>
        <time>2016-12-18T10:57:22.000Z</time>
      </trkpt>
      <trkpt lat="47.50124" lon="6.77202">
        <ele>323</ele>
        <time>2016-12-18T10:57:23.000Z</time>
      </trkpt>
      <trkpt lat="47.5013" lon="6.77204">
        <ele>323</ele>
        <time>2016-12-18T10:57:24.000Z</time>
      </trkpt>
      <trkpt lat="47.50137" lon="6.77206">
        <ele>322</ele>
        <time>2016-12-18T10:57:25.000Z</time>
      </trkpt>
      <trkpt lat="47.50143" lon="6.77209">
        <ele>322</ele>
        <time>2016-12-18T10:57:26.000Z</time>
      </trkpt>
      <trkpt lat="47.50149" lon="6.77213">
        <ele>321</ele>
        <time>2016-12-18T10:57:27.000Z</time>
      </trkpt>
      <trkpt lat="47.50154" lon="6.77217">
        <ele>320</ele>
        <time>2016-12-18T10:57:28.000Z</time>
      </trkpt>
      <trkpt lat="47.5016" lon="6.77222">
        <ele>320</ele>
        <time>2016-12-18T10:57:29.000Z</time>
      </trkpt>
      <trkpt lat="47.50165" lon="6.77227">
        <ele>319</ele>
        <time>2016-12-18T10:57:30.000Z</time>
      </trkpt>
      <trkpt lat="47.5017" lon="6.77231">
        <ele>316</ele>
        <time>2016-12-18T10:57:31.000Z</time>
      </trkpt>
      <trkpt lat="47.50175" lon="6.77235">
        <ele>315</ele>
        <time>2016-12-18T10:57:32.000Z</time>
      </trkpt>
      <trkpt lat="47.50179" lon="6.7724">
        <ele>315</ele>
        <time>2016-12-18T10:57:33.000Z</time>
      </trkpt>
      <trkpt lat="47.50182" lon="6.77244">
        <ele>315</ele>
        <time>2016-12-18T10:57:34.000Z</time>
      </trkpt>
      <trkpt lat="47.50186" lon="6.77248">
        <ele>315</ele>
        <time>2016-12-18T10:57:35.000Z</time>
      </trkpt>
      <trkpt lat="47.50191" lon="6.77253">
        <ele>313</ele>
        <time>2016-12-18T10:57:36.000Z</time>
      </trkpt>
      <trkpt lat="47.50197" lon="6.77258">
        <ele>313</ele>
        <time>2016-12-18T10:57:37.000Z</time>
      </trkpt>
      <trkpt lat="47.50203" lon="6.77262">
        <ele>313</ele>
        <time>2016-12-18T10:57:38.000Z</time>
      </trkpt>
      <trkpt lat="47.50208" lon="6.77267">
        <ele>313</ele>
        <time>2016-12-18T10:57:39.000Z</time>
      </trkpt>
      <trkpt lat="47.50214" lon="6.77271">
        <ele>313</ele>
        <time>2016-12-18T10:57:40.000Z</time>
      </trkpt>
      <trkpt lat="47.50218" lon="6.77274">
        <ele>313</ele>
        <time>2016-12-18T10:57:41.000Z</time>
      </trkpt>
      <trkpt lat="47.50223" lon="6.77278">
        <ele>313</ele>
        <time>2016-12-18T10:57:42.000Z</time>
      </trkpt>
      <trkpt lat="47.50228" lon="6.77281">
        <ele>313</ele>
        <time>2016-12-18T10:57:43.000Z</time>
      </trkpt>
      <trkpt lat="47.50232" lon="6.77284">
        <ele>313</ele>
        <time>2016-12-18T10:57:44.000Z</time>
      </trkpt>
      <trkpt lat="47.50236" lon="6.77286">
        <ele>313</ele>
        <time>2016-12-18T10:57:45.000Z</time>
      </trkpt>
      <trkpt lat="47.5024" lon="6.77289">
        <ele>313</ele>
        <time>2016-12-18T10:57:46.000Z</time>
      </trkpt>
      <trkpt lat="47.50245" lon="6.77291">
        <ele>313</ele>
        <time>2016-12-18T10:57:47.000Z</time>
      </trkpt>
      <trkpt lat="47.50248" lon="6.77293">
        <ele>313</ele>
        <time>2016-12-18T10:57:48.000Z</time>
      </trkpt>
      <trkpt lat="47.50253" lon="6.77296">
        <ele>313</ele>
        <time>2016-12-18T10:57:49.000Z</time>
      </trkpt>
      <trkpt lat="47.50257" lon="6.77299">
        <ele>313</ele>
        <time>2016-12-18T10:57:50.000Z</time>
      </trkpt>
      <trkpt lat="47.50262" lon="6.77302">
        <ele>313</ele>
        <time>2016-12-18T10:57:51.000Z</time>
      </trkpt>
      <trkpt lat="47.50266" lon="6.77304">
        <ele>313</ele>
        <time>2016-12-18T10:57:52.000Z</time>
      </trkpt>
      <trkpt lat="47.50271" lon="6.77308">
        <ele>313</ele>
        <time>2016-12-18T10:57:53.000Z</time>
      </trkpt>
      <trkpt lat="47.50276" lon="6.77312">
        <ele>313</ele>
        <time>2016-12-18T10:57:54.000Z</time>
      </trkpt>
      <trkpt lat="47.5028" lon="6.77315">
        <ele>313</ele>
        <time>2016-12-18T10:57:55.000Z</time>
      </trkpt>
      <trkpt lat="47.50285" lon="6.77318">
        <ele>313</ele>
        <time>2016-12-18T10:57:56.000Z</time>
      </trkpt>
      <trkpt lat="47.5029" lon="6.77321">
        <ele>313</ele>
        <time>2016-12-18T10:57:57.000Z</time>
      </trkpt>
      <trkpt lat="47.50295" lon="6.77325">
        <ele>312</ele>
        <time>2016-12-18T10:57:58.000Z</time>
      </trkpt>
      <trkpt lat="47.50299" lon="6.77329">
        <ele>312</ele>
        <time>2016-12-18T10:57:59.000Z</time>
      </trkpt>
      <trkpt lat="47.50303" lon="6.77332">
        <ele>312</ele>
        <time>2016-12-18T10:58:00.000Z</time>
      </trkpt>
      <trkpt lat="47.50307" lon="6.77336">
        <ele>312</ele>
        <time>2016-12-18T10:58:01.000Z</time>
      </trkpt>
      <trkpt lat="47.50312" lon="6.7734">
        <ele>312</ele>
        <time>2016-12-18T10:58:02.000Z</time>
      </trkpt>
      <trkpt lat="47.50317" lon="6.77344">
        <ele>312</ele>
        <time>2016-12-18T10:58:03.000Z</time>
      </trkpt>
      <trkpt lat="47.5032" lon="6.77346">
        <ele>312</ele>
        <time>2016-12-18T10:58:04.000Z</time>
      </trkpt>
      <trkpt lat="47.50325" lon="6.77349">
        <ele>312</ele>
        <time>2016-12-18T10:58:05.000Z</time>
      </trkpt>
      <trkpt lat="47.50329" lon="6.77352">
        <ele>312</ele>
        <time>2016-12-18T10:58:06.000Z</time>
      </trkpt>
      <trkpt lat="47.50334" lon="6.77356">
        <ele>312</ele>
        <time>2016-12-18T10:58:07.000Z</time>
      </trkpt>
      <trkpt lat="47.50339" lon="6.7736">
        <ele>312</ele>
        <time>2016-12-18T10:58:08.000Z</time>
      </trkpt>
      <trkpt lat="47.50344" lon="6.77363">
        <ele>312</ele>
        <time>2016-12-18T10:58:09.000Z</time>
      </trkpt>
      <trkpt lat="47.50348" lon="6.77366">
        <ele>312</ele>
        <time>2016-12-18T10:58:10.000Z</time>
      </trkpt>
      <trkpt lat="47.50353" lon="6.7737">
        <ele>312</ele>
        <time>2016-12-18T10:58:11.000Z</time>
      </trkpt>
      <trkpt lat="47.50357" lon="6.77374">
        <ele>312</ele>
        <time>2016-12-18T10:58:12.000Z</time>
      </trkpt>
      <trkpt lat="47.50362" lon="6.77378">
        <ele>312</ele>
        <time>2016-12-18T10:58:13.000Z</time>
      </trkpt>
      <trkpt lat="47.50366" lon="6.77382">
        <ele>312</ele>
        <time>2016-12-18T10:58:14.000Z</time>
      </trkpt>
      <trkpt lat="47.50371" lon="6.77386">
        <ele>312</ele>
        <time>2016-12-18T10:58:15.000Z</time>
      </trkpt>
      <trkpt lat="47.50376" lon="6.7739">
        <ele>312</ele>
        <time>2016-12-18T10:58:16.000Z</time>
      </trkpt>
      <trkpt lat="47.5038" lon="6.77394">
        <ele>312</ele>
        <time>2016-12-18T10:58:17.000Z</time>
      </trkpt>
      <trkpt lat="47.50383" lon="6.77397">
        <ele>312</ele>
        <time>2016-12-18T10:58:18.000Z</time>
      </trkpt>
      <trkpt lat="47.50387" lon="6.774">
        <ele>312</ele>
        <time>2016-12-18T10:58:19.000Z</time>
      </trkpt>
      <trkpt lat="47.50392" lon="6.77404">
        <ele>312</ele>
        <time>2016-12-18T10:58:20.000Z</time>
      </trkpt>
      <trkpt lat="47.50396" lon="6.77408">
        <ele>312</ele>
        <time>2016-12-18T10:58:21.000Z</time>
      </trkpt>
      <trkpt lat="47.50402" lon="6.77412">
        <ele>311</ele>
        <time>2016-12-18T10:58:22.000Z</time>
      </trkpt>
      <trkpt lat="47.50406" lon="6.77416">
        <ele>311</ele>
        <time>2016-12-18T10:58:23.000Z</time>
      </trkpt>
      <trkpt lat="47.50411" lon="6.7742">
        <ele>311</ele>
        <time>2016-12-18T10:58:24.000Z</time>
      </trkpt>
      <trkpt lat="47.50415" lon="6.77423">
        <ele>311</ele>
        <time>2016-12-18T10:58:25.000Z</time>
      </trkpt>
      <trkpt lat="47.50418" lon="6.77427">
        <ele>311</ele>
        <time>2016-12-18T10:58:26.000Z</time>
      </trkpt>
      <trkpt lat="47.50423" lon="6.7743">
        <ele>312</ele>
        <time>2016-12-18T10:58:27.000Z</time>
      </trkpt>
      <trkpt lat="47.50427" lon="6.77433">
        <ele>312</ele>
        <time>2016-12-18T10:58:28.000Z</time>
      </trkpt>
      <trkpt lat="47.50431" lon="6.77436">
        <ele>312</ele>
        <time>2016-12-18T10:58:29.000Z</time>
      </trkpt>
      <trkpt lat="47.50435" lon="6.77439">
        <ele>312</ele>
        <time>2016-12-18T10:58:30.000Z</time>
      </trkpt>
      <trkpt lat="47.5044" lon="6.77443">
        <ele>312</ele>
        <time>2016-12-18T10:58:31.000Z</time>
      </trkpt>
      <trkpt lat="47.50445" lon="6.77447">
        <ele>312</ele>
        <time>2016-12-18T10:58:32.000Z</time>
      </trkpt>
      <trkpt lat="47.50449" lon="6.77451">
        <ele>312</ele>
        <time>2016-12-18T10:58:33.000Z</time>
      </trkpt>
      <trkpt lat="47.50453" lon="6.77455">
        <ele>312</ele>
        <time>2016-12-18T10:58:34.000Z</time>
      </trkpt>
      <trkpt lat="47.50458" lon="6.77459">
        <ele>312</ele>
        <time>2016-12-18T10:58:35.000Z</time>
      </trkpt>
      <trkpt lat="47.50462" lon="6.77462">
        <ele>313</ele>
        <time>2016-12-18T10:58:36.000Z</time>
      </trkpt>
      <trkpt lat="47.50466" lon="6.77465">
        <ele>313</ele>
        <time>2016-12-18T10:58:37.000Z</time>
      </trkpt>
      <trkpt lat="47.5047" lon="6.77468">
        <ele>313</ele>
        <time>2016-12-18T10:58:38.000Z</time>
      </trkpt>
      <trkpt lat="47.50473" lon="6.7747">
        <ele>313</ele>
        <time>2016-12-18T10:58:39.000Z</time>
      </trkpt>
      <trkpt lat="47.50478" lon="6.77475">
        <ele>313</ele>
        <time>2016-12-18T10:58:40.000Z</time>
      </trkpt>
      <trkpt lat="47.50483" lon="6.77479">
        <ele>313</ele>
        <time>2016-12-18T10:58:41.000Z</time>
      </trkpt>
      <trkpt lat="47.50488" lon="6.77482">
        <ele>313</ele>
        <time>2016-12-18T10:58:42.000Z</time>
      </trkpt>
      <trkpt lat="47.50493" lon="6.77486">
        <ele>313</ele>
        <time>2016-12-18T10:58:43.000Z</time>
      </trkpt>
      <trkpt lat="47.50497" lon="6.7749">
        <ele>314</ele>
        <time>2016-12-18T10:58:44.000Z</time>
      </trkpt>
      <trkpt lat="47.50501" lon="6.77495">
        <ele>314</ele>
        <time>2016-12-18T10:58:45.000Z</time>
      </trkpt>
      <trkpt lat="47.50506" lon="6.775">
        <ele>314</ele>
        <time>2016-12-18T10:58:46.000Z</time>
      </trkpt>
      <trkpt lat="47.50511" lon="6.77504">
        <ele>314</ele>
        <time>2016-12-18T10:58:47.000Z</time>
      </trkpt>
      <trkpt lat="47.50516" lon="6.77508">
        <ele>314</ele>
        <time>2016-12-18T10:58:48.000Z</time>
      </trkpt>
      <trkpt lat="47.5052" lon="6.77511">
        <ele>314</ele>
        <time>2016-12-18T10:58:49.000Z</time>
      </trkpt>
      <trkpt lat="47.50523" lon="6.77515">
        <ele>314</ele>
        <time>2016-12-18T10:58:50.000Z</time>
      </trkpt>
      <trkpt lat="47.50528" lon="6.77518">
        <ele>313</ele>
        <time>2016-12-18T10:58:51.000Z</time>
      </trkpt>
      <trkpt lat="47.50532" lon="6.77521">
        <ele>313</ele>
        <time>2016-12-18T10:58:52.000Z</time>
      </trkpt>
      <trkpt lat="47.50537" lon="6.77524">
        <ele>313</ele>
        <time>2016-12-18T10:58:53.000Z</time>
      </trkpt>
      <trkpt lat="47.50541" lon="6.77528">
        <ele>313</ele>
        <time>2016-12-18T10:58:54.000Z</time>
      </trkpt>
      <trkpt lat="47.50545" lon="6.77532">
        <ele>313</ele>
        <time>2016-12-18T10:58:55.000Z</time>
      </trkpt>
      <trkpt lat="47.50548" lon="6.77536">
        <ele>313</ele>
        <time>2016-12-18T10:58:56.000Z</time>
      </trkpt>
      <trkpt lat="47.50551" lon="6.7754">
        <ele>313</ele>
        <time>2016-12-18T10:58:57.000Z</time>
      </trkpt>
      <trkpt lat="47.50554" lon="6.77544">
        <ele>313</ele>
        <time>2016-12-18T10:58:58.000Z</time>
      </trkpt>
      <trkpt lat="47.50557" lon="6.77549">
        <ele>313</ele>
        <time>2016-12-18T10:58:59.000Z</time>
      </trkpt>
      <trkpt lat="47.50562" lon="6.77553">
        <ele>313</ele>
        <time>2016-12-18T10:59:00.000Z</time>
      </trkpt>
      <trkpt lat="47.50568" lon="6.77552">
        <ele>313</ele>
        <time>2016-12-18T10:59:01.000Z</time>
      </trkpt>
      <trkpt lat="47.50573" lon="6.77552">
        <ele>313</ele>
        <time>2016-12-18T10:59:02.000Z</time>
      </trkpt>
      <trkpt lat="47.50578" lon="6.77551">
        <ele>313</ele>
        <time>2016-12-18T10:59:03.000Z</time>
      </trkpt>
      <trkpt lat="47.50581" lon="6.77546">
        <ele>313</ele>
        <time>2016-12-18T10:59:04.000Z</time>
      </trkpt>
      <trkpt lat="47.50583" lon="6.77541">
        <ele>313</ele>
        <time>2016-12-18T10:59:05.000Z</time>
      </trkpt>
      <trkpt lat="47.50586" lon="6.77537">
        <ele>313</ele>
        <time>2016-12-18T10:59:06.000Z</time>
      </trkpt>
      <trkpt lat="47.50588" lon="6.77538">
        <ele>313</ele>
        <time>2016-12-18T10:59:07.000Z</time>
      </trkpt>
      <trkpt lat="47.50591" lon="6.77537">
        <ele>313</ele>
        <time>2016-12-18T10:59:08.000Z</time>
      </trkpt>
      <trkpt lat="47.50595" lon="6.77537">
        <ele>313</ele>
        <time>2016-12-18T10:59:09.000Z</time>
      </trkpt>
      <trkpt lat="47.50599" lon="6.7754">
        <ele>313</ele>
        <time>2016-12-18T10:59:10.000Z</time>
      </trkpt>
      <trkpt lat="47.50604" lon="6.77543">
        <ele>313</ele>
        <time>2016-12-18T10:59:11.000Z</time>
      </trkpt>
      <trkpt lat="47.50608" lon="6.77543">
        <ele>313</ele>
        <time>2016-12-18T10:59:12.000Z</time>
      </trkpt>
      <trkpt lat="47.50612" lon="6.77545">
        <ele>313</ele>
        <time>2016-12-18T10:59:13.000Z</time>
      </trkpt>
      <trkpt lat="47.50617" lon="6.77546">
        <ele>313</ele>
        <time>2016-12-18T10:59:14.000Z</time>
      </trkpt>
      <trkpt lat="47.50622" lon="6.77547">
        <ele>313</ele>
        <time>2016-12-18T10:59:15.000Z</time>
      </trkpt>
      <trkpt lat="47.50627" lon="6.77544">
        <ele>313</ele>
        <time>2016-12-18T10:59:16.000Z</time>
      </trkpt>
      <trkpt lat="47.5063" lon="6.7754">
        <ele>313</ele>
        <time>2016-12-18T10:59:17.000Z</time>
      </trkpt>
      <trkpt lat="47.50634" lon="6.77539">
        <ele>313</ele>
        <time>2016-12-18T10:59:18.000Z</time>
      </trkpt>
      <trkpt lat="47.50639" lon="6.77539">
        <ele>313</ele>
        <time>2016-12-18T10:59:19.000Z</time>
      </trkpt>
      <trkpt lat="47.50644" lon="6.77539">
        <ele>313</ele>
        <time>2016-12-18T10:59:20.000Z</time>
      </trkpt>
      <trkpt lat="47.50649" lon="6.77539">
        <ele>313</ele>
        <time>2016-12-18T10:59:21.000Z</time>
      </trkpt>
      <trkpt lat="47.50655" lon="6.77539">
        <ele>313</ele>
        <time>2016-12-18T10:59:22.000Z</time>
      </trkpt>
      <trkpt lat="47.5066" lon="6.77538">
        <ele>313</ele>
        <time>2016-12-18T10:59:23.000Z</time>
      </trkpt>
      <trkpt lat="47.50665" lon="6.77538">
        <ele>313</ele>
        <time>2016-12-18T10:59:24.000Z</time>
      </trkpt>
      <trkpt lat="47.5067" lon="6.77537">
        <ele>313</ele>
        <time>2016-12-18T10:59:25.000Z</time>
      </trkpt>
      <trkpt lat="47.50675" lon="6.77535">
        <ele>313</ele>
        <time>2016-12-18T10:59:26.000Z</time>
      </trkpt>
      <trkpt lat="47.50681" lon="6.77534">
        <ele>313</ele>
        <time>2016-12-18T10:59:27.000Z</time>
      </trkpt>
      <trkpt lat="47.50687" lon="6.77533">
        <ele>313</ele>
        <time>2016-12-18T10:59:28.000Z</time>
      </trkpt>
      <trkpt lat="47.50692" lon="6.77532">
        <ele>313</ele>
        <time>2016-12-18T10:59:29.000Z</time>
      </trkpt>
      <trkpt lat="47.50698" lon="6.77532">
        <ele>313</ele>
        <time>2016-12-18T10:59:30.000Z</time>
      </trkpt>
      <trkpt lat="47.50703" lon="6.77532">
        <ele>313</ele>
        <time>2016-12-18T10:59:31.000Z</time>
      </trkpt>
      <trkpt lat="47.50707" lon="6.77533">
        <ele>313</ele>
        <time>2016-12-18T10:59:32.000Z</time>
      </trkpt>
      <trkpt lat="47.50711" lon="6.77535">
        <ele>313</ele>
        <time>2016-12-18T10:59:33.000Z</time>
      </trkpt>
      <trkpt lat="47.50716" lon="6.77537">
        <ele>313</ele>
        <time>2016-12-18T10:59:34.000Z</time>
      </trkpt>
      <trkpt lat="47.5072" lon="6.7754">
        <ele>313</ele>
        <time>2016-12-18T10:59:35.000Z</time>
      </trkpt>
      <trkpt lat="47.50725" lon="6.77543">
        <ele>313</ele>
        <time>2016-12-18T10:59:36.000Z</time>
      </trkpt>
      <trkpt lat="47.50732" lon="6.77547">
        <ele>313</ele>
        <time>2016-12-18T10:59:37.000Z</time>
      </trkpt>
      <trkpt lat="47.50737" lon="6.7755">
        <ele>313</ele>
        <time>2016-12-18T10:59:38.000Z</time>
      </trkpt>
      <trkpt lat="47.50741" lon="6.77555">
        <ele>313</ele>
        <time>2016-12-18T10:59:39.000Z</time>
      </trkpt>
      <trkpt lat="47.50745" lon="6.7756">
        <ele>313</ele>
        <time>2016-12-18T10:59:40.000Z</time>
      </trkpt>
      <trkpt lat="47.50749" lon="6.77563">
        <ele>313</ele>
        <time>2016-12-18T10:59:41.000Z</time>
      </trkpt>
      <trkpt lat="47.50753" lon="6.77567">
        <ele>314</ele>
        <time>2016-12-18T10:59:42.000Z</time>
      </trkpt>
      <trkpt lat="47.5076" lon="6.77569">
        <ele>314</ele>
        <time>2016-12-18T10:59:43.000Z</time>
      </trkpt>
      <trkpt lat="47.50764" lon="6.77572">
        <ele>314</ele>
        <time>2016-12-18T10:59:44.000Z</time>
      </trkpt>
      <trkpt lat="47.50768" lon="6.77576">
        <ele>314</ele>
        <time>2016-12-18T10:59:45.000Z</time>
      </trkpt>
      <trkpt lat="47.50772" lon="6.7758">
        <ele>314</ele>
        <time>2016-12-18T10:59:46.000Z</time>
      </trkpt>
      <trkpt lat="47.50776" lon="6.77583">
        <ele>314</ele>
        <time>2016-12-18T10:59:47.000Z</time>
      </trkpt>
      <trkpt lat="47.5078" lon="6.77587">
        <ele>315</ele>
        <time>2016-12-18T10:59:48.000Z</time>
      </trkpt>
      <trkpt lat="47.50784" lon="6.7759">
        <ele>315</ele>
        <time>2016-12-18T10:59:49.000Z</time>
      </trkpt>
      <trkpt lat="47.50788" lon="6.77593">
        <ele>315</ele>
        <time>2016-12-18T10:59:50.000Z</time>
      </trkpt>
      <trkpt lat="47.50793" lon="6.77597">
        <ele>315</ele>
        <time>2016-12-18T10:59:51.000Z</time>
      </trkpt>
      <trkpt lat="47.50797" lon="6.77601">
        <ele>315</ele>
        <time>2016-12-18T10:59:52.000Z</time>
      </trkpt>
      <trkpt lat="47.50802" lon="6.77605">
        <ele>315</ele>
        <time>2016-12-18T10:59:53.000Z</time>
      </trkpt>
      <trkpt lat="47.50807" lon="6.77608">
        <ele>315</ele>
        <time>2016-12-18T10:59:54.000Z</time>
      </trkpt>
      <trkpt lat="47.50811" lon="6.77611">
        <ele>315</ele>
        <time>2016-12-18T10:59:55.000Z</time>
      </trkpt>
      <trkpt lat="47.50815" lon="6.77616">
        <ele>316</ele>
        <time>2016-12-18T10:59:56.000Z</time>
      </trkpt>
      <trkpt lat="47.50821" lon="6.77621">
        <ele>316</ele>
        <time>2016-12-18T10:59:57.000Z</time>
      </trkpt>
      <trkpt lat="47.50826" lon="6.77625">
        <ele>316</ele>
        <time>2016-12-18T10:59:58.000Z</time>
      </trkpt>
      <trkpt lat="47.50829" lon="6.7763">
        <ele>316</ele>
        <time>2016-12-18T10:59:59.000Z</time>
      </trkpt>
      <trkpt lat="47.50834" lon="6.77635">
        <ele>317</ele>
        <time>2016-12-18T11:00:00.000Z</time>
      </trkpt>
      <trkpt lat="47.50838" lon="6.77638">
        <ele>317</ele>
        <time>2016-12-18T11:00:01.000Z</time>
      </trkpt>
      <trkpt lat="47.50843" lon="6.77643">
        <ele>317</ele>
        <time>2016-12-18T11:00:02.000Z</time>
      </trkpt>
      <trkpt lat="47.50847" lon="6.77648">
        <ele>317</ele>
        <time>2016-12-18T11:00:03.000Z</time>
      </trkpt>
      <trkpt lat="47.50852" lon="6.77652">
        <ele>317</ele>
        <time>2016-12-18T11:00:04.000Z</time>
      </trkpt>
      <trkpt lat="47.50855" lon="6.77656">
        <ele>317</ele>
        <time>2016-12-18T11:00:05.000Z</time>
      </trkpt>
      <trkpt lat="47.50859" lon="6.7766">
        <ele>317</ele>
        <time>2016-12-18T11:00:06.000Z</time>
      </trkpt>
      <trkpt lat="47.50862" lon="6.77663">
        <ele>316</ele>
        <time>2016-12-18T11:00:07.000Z</time>
      </trkpt>
      <trkpt lat="47.50866" lon="6.77668">
        <ele>316</ele>
        <time>2016-12-18T11:00:08.000Z</time>
      </trkpt>
      <trkpt lat="47.50871" lon="6.77673">
        <ele>316</ele>
        <time>2016-12-18T11:00:09.000Z</time>
      </trkpt>
      <trkpt lat="47.50875" lon="6.77678">
        <ele>316</ele>
        <time>2016-12-18T11:00:10.000Z</time>
      </trkpt>
      <trkpt lat="47.50879" lon="6.77681">
        <ele>316</ele>
        <time>2016-12-18T11:00:11.000Z</time>
      </trkpt>
      <trkpt lat="47.50882" lon="6.77685">
        <ele>316</ele>
        <time>2016-12-18T11:00:12.000Z</time>
      </trkpt>
      <trkpt lat="47.50884" lon="6.77688">
        <ele>316</ele>
        <time>2016-12-18T11:00:13.000Z</time>
      </trkpt>
      <trkpt lat="47.50887" lon="6.77691">
        <ele>316</ele>
        <time>2016-12-18T11:00:14.000Z</time>
      </trkpt>
      <trkpt lat="47.50889" lon="6.77694">
        <ele>316</ele>
        <time>2016-12-18T11:00:15.000Z</time>
      </trkpt>
      <trkpt lat="47.50894" lon="6.77697">
        <ele>316</ele>
        <time>2016-12-18T11:00:16.000Z</time>
      </trkpt>
      <trkpt lat="47.50898" lon="6.77699">
        <ele>316</ele>
        <time>2016-12-18T11:00:17.000Z</time>
      </trkpt>
      <trkpt lat="47.50901" lon="6.777">
        <ele>316</ele>
        <time>2016-12-18T11:00:18.000Z</time>
      </trkpt>
      <trkpt lat="47.50905" lon="6.777">
        <ele>316</ele>
        <time>2016-12-18T11:00:19.000Z</time>
      </trkpt>
      <trkpt lat="47.50908" lon="6.77701">
        <ele>316</ele>
        <time>2016-12-18T11:00:20.000Z</time>
      </trkpt>
      <trkpt lat="47.50911" lon="6.77701">
        <ele>316</ele>
        <time>2016-12-18T11:00:21.000Z</time>
      </trkpt>
      <trkpt lat="47.50915" lon="6.777">
        <ele>316</ele>
        <time>2016-12-18T11:00:22.000Z</time>
      </trkpt>
      <trkpt lat="47.50921" lon="6.777">
        <ele>315</ele>
        <time>2016-12-18T11:00:23.000Z</time>
      </trkpt>
      <trkpt lat="47.50924" lon="6.777">
        <ele>315</ele>
        <time>2016-12-18T11:00:24.000Z</time>
      </trkpt>
      <trkpt lat="47.50928" lon="6.777">
        <ele>315</ele>
        <time>2016-12-18T11:00:25.000Z</time>
      </trkpt>
      <trkpt lat="47.50931" lon="6.77701">
        <ele>315</ele>
        <time>2016-12-18T11:00:26.000Z</time>
      </trkpt>
      <trkpt lat="47.50934" lon="6.77701">
        <ele>315</ele>
        <time>2016-12-18T11:00:27.000Z</time>
      </trkpt>
      <trkpt lat="47.50937" lon="6.77702">
        <ele>315</ele>
        <time>2016-12-18T11:00:29.000Z</time>
      </trkpt>
      <trkpt lat="47.50939" lon="6.77703">
        <ele>315</ele>
        <time>2016-12-18T11:00:30.000Z</time>
      </trkpt>
      <trkpt lat="47.50942" lon="6.77707">
        <ele>315</ele>
        <time>2016-12-18T11:00:37.000Z</time>
      </trkpt>
      <trkpt lat="47.50943" lon="6.77707">
        <ele>315</ele>
        <time>2016-12-18T11:00:38.000Z</time>
      </trkpt>
      <trkpt lat="47.50947" lon="6.77706">
        <ele>315</ele>
        <time>2016-12-18T11:00:41.000Z</time>
      </trkpt>
      <trkpt lat="47.50953" lon="6.77702">
        <ele>315</ele>
        <time>2016-12-18T11:00:42.000Z</time>
      </trkpt>
      <trkpt lat="47.50955" lon="6.777">
        <ele>315</ele>
        <time>2016-12-18T11:00:43.000Z</time>
      </trkpt>
      <trkpt lat="47.50957" lon="6.77698">
        <ele>315</ele>
        <time>2016-12-18T11:00:44.000Z</time>
      </trkpt>
      <trkpt lat="47.5096" lon="6.77696">
        <ele>315</ele>
        <time>2016-12-18T11:00:45.000Z</time>
      </trkpt>
      <trkpt lat="47.50963" lon="6.77694">
        <ele>315</ele>
        <time>2016-12-18T11:00:46.000Z</time>
      </trkpt>
      <trkpt lat="47.50966" lon="6.77697">
        <ele>315</ele>
        <time>2016-12-18T11:00:48.000Z</time>
      </trkpt>
      <trkpt lat="47.50967" lon="6.77699">
        <ele>315</ele>
        <time>2016-12-18T11:00:49.000Z</time>
      </trkpt>
      <trkpt lat="47.50969" lon="6.777">
        <ele>315</ele>
        <time>2016-12-18T11:00:50.000Z</time>
      </trkpt>
      <trkpt lat="47.50973" lon="6.77704">
        <ele>315</ele>
        <time>2016-12-18T11:00:51.000Z</time>
      </trkpt>
      <trkpt lat="47.50976" lon="6.77706">
        <ele>315</ele>
        <time>2016-12-18T11:00:52.000Z</time>
      </trkpt>
      <trkpt lat="47.50979" lon="6.77708">
        <ele>315</ele>
        <time>2016-12-18T11:00:53.000Z</time>
      </trkpt>
      <trkpt lat="47.50982" lon="6.77711">
        <ele>315</ele>
        <time>2016-12-18T11:00:54.000Z</time>
      </trkpt>
      <trkpt lat="47.50986" lon="6.77713">
        <ele>315</ele>
        <time>2016-12-18T11:00:55.000Z</time>
      </trkpt>
      <trkpt lat="47.50988" lon="6.77716">
        <ele>315</ele>
        <time>2016-12-18T11:00:56.000Z</time>
      </trkpt>
      <trkpt lat="47.50991" lon="6.77719">
        <ele>315</ele>
        <time>2016-12-18T11:00:57.000Z</time>
      </trkpt>
      <trkpt lat="47.50995" lon="6.77723">
        <ele>315</ele>
        <time>2016-12-18T11:00:58.000Z</time>
      </trkpt>
      <trkpt lat="47.50999" lon="6.77726">
        <ele>315</ele>
        <time>2016-12-18T11:00:59.000Z</time>
      </trkpt>
      <trkpt lat="47.51003" lon="6.7773">
        <ele>316</ele>
        <time>2016-12-18T11:01:00.000Z</time>
      </trkpt>
      <trkpt lat="47.51006" lon="6.77733">
        <ele>316</ele>
        <time>2016-12-18T11:01:01.000Z</time>
      </trkpt>
      <trkpt lat="47.5101" lon="6.77735">
        <ele>316</ele>
        <time>2016-12-18T11:01:02.000Z</time>
      </trkpt>
      <trkpt lat="47.51014" lon="6.77738">
        <ele>317</ele>
        <time>2016-12-18T11:01:03.000Z</time>
      </trkpt>
      <trkpt lat="47.51018" lon="6.77742">
        <ele>317</ele>
        <time>2016-12-18T11:01:04.000Z</time>
      </trkpt>
      <trkpt lat="47.51022" lon="6.77745">
        <ele>317</ele>
        <time>2016-12-18T11:01:05.000Z</time>
      </trkpt>
      <trkpt lat="47.51024" lon="6.77745">
        <ele>317</ele>
        <time>2016-12-18T11:01:06.000Z</time>
      </trkpt>
      <trkpt lat="47.51028" lon="6.77747">
        <ele>317</ele>
        <time>2016-12-18T11:01:08.000Z</time>
      </trkpt>
      <trkpt lat="47.51031" lon="6.77748">
        <ele>317</ele>
        <time>2016-12-18T11:01:09.000Z</time>
      </trkpt>
      <trkpt lat="47.51033" lon="6.77751">
        <ele>318</ele>
        <time>2016-12-18T11:01:10.000Z</time>
      </trkpt>
      <trkpt lat="47.51036" lon="6.77753">
        <ele>318</ele>
        <time>2016-12-18T11:01:11.000Z</time>
      </trkpt>
      <trkpt lat="47.51038" lon="6.77755">
        <ele>318</ele>
        <time>2016-12-18T11:01:12.000Z</time>
      </trkpt>
      <trkpt lat="47.51041" lon="6.77756">
        <ele>318</ele>
        <time>2016-12-18T11:01:13.000Z</time>
      </trkpt>
      <trkpt lat="47.51042" lon="6.77758">
        <ele>318</ele>
        <time>2016-12-18T11:01:14.000Z</time>
      </trkpt>
      <trkpt lat="47.51044" lon="6.77761">
        <ele>318</ele>
        <time>2016-12-18T11:01:15.000Z</time>
      </trkpt>
      <trkpt lat="47.51046" lon="6.77763">
        <ele>318</ele>
        <time>2016-12-18T11:01:16.000Z</time>
      </trkpt>
      <trkpt lat="47.51049" lon="6.77766">
        <ele>318</ele>
        <time>2016-12-18T11:01:17.000Z</time>
      </trkpt>
      <trkpt lat="47.51052" lon="6.77769">
        <ele>318</ele>
        <time>2016-12-18T11:01:18.000Z</time>
      </trkpt>
      <trkpt lat="47.51057" lon="6.77774">
        <ele>318</ele>
        <time>2016-12-18T11:01:19.000Z</time>
      </trkpt>
      <trkpt lat="47.51059" lon="6.77775">
        <ele>318</ele>
        <time>2016-12-18T11:01:20.000Z</time>
      </trkpt>
      <trkpt lat="47.51061" lon="6.77776">
        <ele>318</ele>
        <time>2016-12-18T11:01:21.000Z</time>
      </trkpt>
      <trkpt lat="47.51064" lon="6.77776">
        <ele>318</ele>
        <time>2016-12-18T11:01:22.000Z</time>
      </trkpt>
      <trkpt lat="47.51067" lon="6.77775">
        <ele>319</ele>
        <time>2016-12-18T11:01:23.000Z</time>
      </trkpt>
      <trkpt lat="47.51071" lon="6.77775">
        <ele>319</ele>
        <time>2016-12-18T11:01:24.000Z</time>
      </trkpt>
      <trkpt lat="47.51077" lon="6.77777">
        <ele>319</ele>
        <time>2016-12-18T11:01:25.000Z</time>
      </trkpt>
      <trkpt lat="47.51081" lon="6.77778">
        <ele>319</ele>
        <time>2016-12-18T11:01:26.000Z</time>
      </trkpt>
      <trkpt lat="47.51085" lon="6.7778">
        <ele>321</ele>
        <time>2016-12-18T11:01:27.000Z</time>
      </trkpt>
      <trkpt lat="47.51089" lon="6.77781">
        <ele>321</ele>
        <time>2016-12-18T11:01:28.000Z</time>
      </trkpt>
      <trkpt lat="47.51094" lon="6.77782">
        <ele>321</ele>
        <time>2016-12-18T11:01:29.000Z</time>
      </trkpt>
      <trkpt lat="47.51097" lon="6.77782">
        <ele>322</ele>
        <time>2016-12-18T11:01:30.000Z</time>
      </trkpt>
      <trkpt lat="47.51101" lon="6.77783">
        <ele>322</ele>
        <time>2016-12-18T11:01:31.000Z</time>
      </trkpt>
      <trkpt lat="47.51105" lon="6.77783">
        <ele>322</ele>
        <time>2016-12-18T11:01:32.000Z</time>
      </trkpt>
      <trkpt lat="47.51109" lon="6.77784">
        <ele>322</ele>
        <time>2016-12-18T11:01:33.000Z</time>
      </trkpt>
      <trkpt lat="47.51113" lon="6.77784">
        <ele>322</ele>
        <time>2016-12-18T11:01:34.000Z</time>
      </trkpt>
      <trkpt lat="47.51117" lon="6.77784">
        <ele>322</ele>
        <time>2016-12-18T11:01:35.000Z</time>
      </trkpt>
      <trkpt lat="47.51121" lon="6.77784">
        <ele>322</ele>
        <time>2016-12-18T11:01:36.000Z</time>
      </trkpt>
      <trkpt lat="47.51124" lon="6.77785">
        <ele>322</ele>
        <time>2016-12-18T11:01:37.000Z</time>
      </trkpt>
      <trkpt lat="47.51128" lon="6.77785">
        <ele>322</ele>
        <time>2016-12-18T11:01:38.000Z</time>
      </trkpt>
      <trkpt lat="47.51132" lon="6.77786">
        <ele>322</ele>
        <time>2016-12-18T11:01:39.000Z</time>
      </trkpt>
      <trkpt lat="47.51134" lon="6.77787">
        <ele>322</ele>
        <time>2016-12-18T11:01:40.000Z</time>
      </trkpt>
      <trkpt lat="47.51137" lon="6.77788">
        <ele>323</ele>
        <time>2016-12-18T11:01:41.000Z</time>
      </trkpt>
      <trkpt lat="47.5114" lon="6.77788">
        <ele>323</ele>
        <time>2016-12-18T11:01:42.000Z</time>
      </trkpt>
      <trkpt lat="47.51142" lon="6.77788">
        <ele>323</ele>
        <time>2016-12-18T11:01:43.000Z</time>
      </trkpt>
      <trkpt lat="47.51145" lon="6.77788">
        <ele>323</ele>
        <time>2016-12-18T11:01:44.000Z</time>
      </trkpt>
      <trkpt lat="47.51148" lon="6.77789">
        <ele>323</ele>
        <time>2016-12-18T11:01:45.000Z</time>
      </trkpt>
      <trkpt lat="47.51151" lon="6.77789">
        <ele>323</ele>
        <time>2016-12-18T11:01:46.000Z</time>
      </trkpt>
      <trkpt lat="47.51155" lon="6.77789">
        <ele>323</ele>
        <time>2016-12-18T11:01:47.000Z</time>
      </trkpt>
      <trkpt lat="47.51158" lon="6.7779">
        <ele>323</ele>
        <time>2016-12-18T11:01:48.000Z</time>
      </trkpt>
      <trkpt lat="47.51161" lon="6.7779">
        <ele>323</ele>
        <time>2016-12-18T11:01:49.000Z</time>
      </trkpt>
      <trkpt lat="47.51164" lon="6.7779">
        <ele>323</ele>
        <time>2016-12-18T11:01:50.000Z</time>
      </trkpt>
      <trkpt lat="47.51168" lon="6.7779">
        <ele>326</ele>
        <time>2016-12-18T11:01:51.000Z</time>
      </trkpt>
      <trkpt lat="47.51171" lon="6.77789">
        <ele>326</ele>
        <time>2016-12-18T11:01:52.000Z</time>
      </trkpt>
      <trkpt lat="47.51174" lon="6.77789">
        <ele>326</ele>
        <time>2016-12-18T11:01:53.000Z</time>
      </trkpt>
      <trkpt lat="47.51177" lon="6.77789">
        <ele>326</ele>
        <time>2016-12-18T11:01:54.000Z</time>
      </trkpt>
      <trkpt lat="47.5118" lon="6.77789">
        <ele>326</ele>
        <time>2016-12-18T11:01:55.000Z</time>
      </trkpt>
      <trkpt lat="47.51182" lon="6.77789">
        <ele>326</ele>
        <time>2016-12-18T11:01:56.000Z</time>
      </trkpt>
      <trkpt lat="47.51184" lon="6.77789">
        <ele>326</ele>
        <time>2016-12-18T11:01:57.000Z</time>
      </trkpt>
      <trkpt lat="47.51187" lon="6.77789">
        <ele>326</ele>
        <time>2016-12-18T11:01:59.000Z</time>
      </trkpt>
      <trkpt lat="47.5119" lon="6.77789">
        <ele>326</ele>
        <time>2016-12-18T11:02:00.000Z</time>
      </trkpt>
      <trkpt lat="47.51192" lon="6.77789">
        <ele>326</ele>
        <time>2016-12-18T11:02:01.000Z</time>
      </trkpt>
      <trkpt lat="47.51194" lon="6.77788">
        <ele>327</ele>
        <time>2016-12-18T11:02:02.000Z</time>
      </trkpt>
      <trkpt lat="47.51197" lon="6.77788">
        <ele>327</ele>
        <time>2016-12-18T11:02:03.000Z</time>
      </trkpt>
      <trkpt lat="47.51199" lon="6.77788">
        <ele>327</ele>
        <time>2016-12-18T11:02:04.000Z</time>
      </trkpt>
      <trkpt lat="47.51203" lon="6.77788">
        <ele>327</ele>
        <time>2016-12-18T11:02:06.000Z</time>
      </trkpt>
      <trkpt lat="47.51205" lon="6.77788">
        <ele>327</ele>
        <time>2016-12-18T11:02:07.000Z</time>
      </trkpt>
      <trkpt lat="47.51208" lon="6.77788">
        <ele>327</ele>
        <time>2016-12-18T11:02:08.000Z</time>
      </trkpt>
      <trkpt lat="47.5121" lon="6.77788">
        <ele>327</ele>
        <time>2016-12-18T11:02:09.000Z</time>
      </trkpt>
      <trkpt lat="47.51213" lon="6.77788">
        <ele>327</ele>
        <time>2016-12-18T11:02:10.000Z</time>
      </trkpt>
      <trkpt lat="47.51215" lon="6.77788">
        <ele>327</ele>
        <time>2016-12-18T11:02:11.000Z</time>
      </trkpt>
      <trkpt lat="47.51217" lon="6.77789">
        <ele>327</ele>
        <time>2016-12-18T11:02:12.000Z</time>
      </trkpt>
      <trkpt lat="47.5122" lon="6.77789">
        <ele>327</ele>
        <time>2016-12-18T11:02:13.000Z</time>
      </trkpt>
      <trkpt lat="47.51223" lon="6.7779">
        <ele>327</ele>
        <time>2016-12-18T11:02:15.000Z</time>
      </trkpt>
      <trkpt lat="47.51225" lon="6.7779">
        <ele>327</ele>
        <time>2016-12-18T11:02:16.000Z</time>
      </trkpt>
      <trkpt lat="47.51227" lon="6.7779">
        <ele>328</ele>
        <time>2016-12-18T11:02:17.000Z</time>
      </trkpt>
      <trkpt lat="47.51229" lon="6.77789">
        <ele>328</ele>
        <time>2016-12-18T11:02:18.000Z</time>
      </trkpt>
      <trkpt lat="47.51233" lon="6.77787">
        <ele>328</ele>
        <time>2016-12-18T11:02:20.000Z</time>
      </trkpt>
      <trkpt lat="47.51234" lon="6.77787">
        <ele>328</ele>
        <time>2016-12-18T11:02:21.000Z</time>
      </trkpt>
      <trkpt lat="47.51238" lon="6.77786">
        <ele>328</ele>
        <time>2016-12-18T11:02:23.000Z</time>
      </trkpt>
      <trkpt lat="47.5124" lon="6.77786">
        <ele>328</ele>
        <time>2016-12-18T11:02:24.000Z</time>
      </trkpt>
      <trkpt lat="47.51243" lon="6.77786">
        <ele>328</ele>
        <time>2016-12-18T11:02:25.000Z</time>
      </trkpt>
      <trkpt lat="47.51245" lon="6.77785">
        <ele>328</ele>
        <time>2016-12-18T11:02:26.000Z</time>
      </trkpt>
      <trkpt lat="47.51248" lon="6.77784">
        <ele>328</ele>
        <time>2016-12-18T11:02:27.000Z</time>
      </trkpt>
      <trkpt lat="47.5125" lon="6.77785">
        <ele>328</ele>
        <time>2016-12-18T11:02:28.000Z</time>
      </trkpt>
      <trkpt lat="47.51254" lon="6.77783">
        <ele>334</ele>
        <time>2016-12-18T11:02:31.000Z</time>
      </trkpt>
      <trkpt lat="47.51256" lon="6.77782">
        <ele>334</ele>
        <time>2016-12-18T11:02:32.000Z</time>
      </trkpt>
      <trkpt lat="47.51259" lon="6.77781">
        <ele>334</ele>
        <time>2016-12-18T11:02:34.000Z</time>
      </trkpt>
      <trkpt lat="47.51261" lon="6.7778">
        <ele>334</ele>
        <time>2016-12-18T11:02:35.000Z</time>
      </trkpt>
      <trkpt lat="47.51265" lon="6.7778">
        <ele>334</ele>
        <time>2016-12-18T11:02:37.000Z</time>
      </trkpt>
      <trkpt lat="47.51266" lon="6.7778">
        <ele>334</ele>
        <time>2016-12-18T11:02:38.000Z</time>
      </trkpt>
      <trkpt lat="47.51271" lon="6.77779">
        <ele>334</ele>
        <time>2016-12-18T11:02:40.000Z</time>
      </trkpt>
      <trkpt lat="47.51273" lon="6.77779">
        <ele>335</ele>
        <time>2016-12-18T11:02:41.000Z</time>
      </trkpt>
      <trkpt lat="47.51277" lon="6.7778">
        <ele>335</ele>
        <time>2016-12-18T11:02:43.000Z</time>
      </trkpt>
      <trkpt lat="47.51279" lon="6.77781">
        <ele>335</ele>
        <time>2016-12-18T11:02:44.000Z</time>
      </trkpt>
      <trkpt lat="47.51283" lon="6.77782">
        <ele>335</ele>
        <time>2016-12-18T11:02:46.000Z</time>
      </trkpt>
      <trkpt lat="47.51285" lon="6.77782">
        <ele>336</ele>
        <time>2016-12-18T11:02:47.000Z</time>
      </trkpt>
      <trkpt lat="47.51289" lon="6.77781">
        <ele>336</ele>
        <time>2016-12-18T11:02:49.000Z</time>
      </trkpt>
      <trkpt lat="47.5129" lon="6.77781">
        <ele>336</ele>
        <time>2016-12-18T11:02:50.000Z</time>
      </trkpt>
      <trkpt lat="47.51293" lon="6.7778">
        <ele>336</ele>
        <time>2016-12-18T11:02:52.000Z</time>
      </trkpt>
      <trkpt lat="47.51295" lon="6.7778">
        <ele>337</ele>
        <time>2016-12-18T11:02:53.000Z</time>
      </trkpt>
      <trkpt lat="47.51297" lon="6.7778">
        <ele>337</ele>
        <time>2016-12-18T11:02:54.000Z</time>
      </trkpt>
      <trkpt lat="47.513" lon="6.77779">
        <ele>337</ele>
        <time>2016-12-18T11:02:55.000Z</time>
      </trkpt>
      <trkpt lat="47.51302" lon="6.77779">
        <ele>337</ele>
        <time>2016-12-18T11:02:56.000Z</time>
      </trkpt>
      <trkpt lat="47.51304" lon="6.77778">
        <ele>337</ele>
        <time>2016-12-18T11:02:57.000Z</time>
      </trkpt>
      <trkpt lat="47.51307" lon="6.77778">
        <ele>338</ele>
        <time>2016-12-18T11:02:58.000Z</time>
      </trkpt>
      <trkpt lat="47.51309" lon="6.77778">
        <ele>338</ele>
        <time>2016-12-18T11:02:59.000Z</time>
      </trkpt>
      <trkpt lat="47.51313" lon="6.77779">
        <ele>338</ele>
        <time>2016-12-18T11:03:01.000Z</time>
      </trkpt>
      <trkpt lat="47.51315" lon="6.77778">
        <ele>338</ele>
        <time>2016-12-18T11:03:02.000Z</time>
      </trkpt>
      <trkpt lat="47.51319" lon="6.77778">
        <ele>338</ele>
        <time>2016-12-18T11:03:04.000Z</time>
      </trkpt>
      <trkpt lat="47.51321" lon="6.77776">
        <ele>339</ele>
        <time>2016-12-18T11:03:05.000Z</time>
      </trkpt>
      <trkpt lat="47.51325" lon="6.77775">
        <ele>339</ele>
        <time>2016-12-18T11:03:07.000Z</time>
      </trkpt>
      <trkpt lat="47.51327" lon="6.77775">
        <ele>339</ele>
        <time>2016-12-18T11:03:08.000Z</time>
      </trkpt>
      <trkpt lat="47.51331" lon="6.77776">
        <ele>339</ele>
        <time>2016-12-18T11:03:10.000Z</time>
      </trkpt>
      <trkpt lat="47.51334" lon="6.77777">
        <ele>348</ele>
        <time>2016-12-18T11:03:11.000Z</time>
      </trkpt>
      <trkpt lat="47.51336" lon="6.7778">
        <ele>348</ele>
        <time>2016-12-18T11:03:13.000Z</time>
      </trkpt>
      <trkpt lat="47.51338" lon="6.77783">
        <ele>348</ele>
        <time>2016-12-18T11:03:14.000Z</time>
      </trkpt>
      <trkpt lat="47.51342" lon="6.77785">
        <ele>349</ele>
        <time>2016-12-18T11:03:18.000Z</time>
      </trkpt>
      <trkpt lat="47.51344" lon="6.77783">
        <ele>349</ele>
        <time>2016-12-18T11:03:19.000Z</time>
      </trkpt>
      <trkpt lat="47.51347" lon="6.77779">
        <ele>349</ele>
        <time>2016-12-18T11:03:21.000Z</time>
      </trkpt>
      <trkpt lat="47.5135" lon="6.77777">
        <ele>349</ele>
        <time>2016-12-18T11:03:22.000Z</time>
      </trkpt>
      <trkpt lat="47.51352" lon="6.77775">
        <ele>349</ele>
        <time>2016-12-18T11:03:23.000Z</time>
      </trkpt>
      <trkpt lat="47.51354" lon="6.77773">
        <ele>349</ele>
        <time>2016-12-18T11:03:24.000Z</time>
      </trkpt>
      <trkpt lat="47.51358" lon="6.77771">
        <ele>349</ele>
        <time>2016-12-18T11:03:26.000Z</time>
      </trkpt>
      <trkpt lat="47.5136" lon="6.77769">
        <ele>349</ele>
        <time>2016-12-18T11:03:27.000Z</time>
      </trkpt>
      <trkpt lat="47.51363" lon="6.77767">
        <ele>350</ele>
        <time>2016-12-18T11:03:29.000Z</time>
      </trkpt>
      <trkpt lat="47.51364" lon="6.77766">
        <ele>350</ele>
        <time>2016-12-18T11:03:30.000Z</time>
      </trkpt>
      <trkpt lat="47.51368" lon="6.77765">
        <ele>350</ele>
        <time>2016-12-18T11:03:32.000Z</time>
      </trkpt>
      <trkpt lat="47.51369" lon="6.77763">
        <ele>350</ele>
        <time>2016-12-18T11:03:33.000Z</time>
      </trkpt>
      <trkpt lat="47.51373" lon="6.77761">
        <ele>351</ele>
        <time>2016-12-18T11:03:38.000Z</time>
      </trkpt>
      <trkpt lat="47.51375" lon="6.7776">
        <ele>351</ele>
        <time>2016-12-18T11:03:39.000Z</time>
      </trkpt>
      <trkpt lat="47.51378" lon="6.77756">
        <ele>351</ele>
        <time>2016-12-18T11:03:41.000Z</time>
      </trkpt>
      <trkpt lat="47.5138" lon="6.77754">
        <ele>351</ele>
        <time>2016-12-18T11:03:42.000Z</time>
      </trkpt>
      <trkpt lat="47.51384" lon="6.77753">
        <ele>352</ele>
        <time>2016-12-18T11:03:44.000Z</time>
      </trkpt>
      <trkpt lat="47.51386" lon="6.77753">
        <ele>352</ele>
        <time>2016-12-18T11:03:45.000Z</time>
      </trkpt>
      <trkpt lat="47.51388" lon="6.77752">
        <ele>352</ele>
        <time>2016-12-18T11:03:46.000Z</time>
      </trkpt>
      <trkpt lat="47.5139" lon="6.77751">
        <ele>353</ele>
        <time>2016-12-18T11:03:47.000Z</time>
      </trkpt>
      <trkpt lat="47.51393" lon="6.77748">
        <ele>355</ele>
        <time>2016-12-18T11:03:49.000Z</time>
      </trkpt>
      <trkpt lat="47.51394" lon="6.77747">
        <ele>355</ele>
        <time>2016-12-18T11:03:50.000Z</time>
      </trkpt>
      <trkpt lat="47.51397" lon="6.77744">
        <ele>356</ele>
        <time>2016-12-18T11:03:53.000Z</time>
      </trkpt>
      <trkpt lat="47.51398" lon="6.77743">
        <ele>356</ele>
        <time>2016-12-18T11:03:54.000Z</time>
      </trkpt>
      <trkpt lat="47.51402" lon="6.77742">
        <ele>356</ele>
        <time>2016-12-18T11:03:58.000Z</time>
      </trkpt>
      <trkpt lat="47.51403" lon="6.77742">
        <ele>356</ele>
        <time>2016-12-18T11:03:59.000Z</time>
      </trkpt>
      <trkpt lat="47.51406" lon="6.7774">
        <ele>356</ele>
        <time>2016-12-18T11:04:01.000Z</time>
      </trkpt>
      <trkpt lat="47.51409" lon="6.77739">
        <ele>356</ele>
        <time>2016-12-18T11:04:02.000Z</time>
      </trkpt>
      <trkpt lat="47.51411" lon="6.77738">
        <ele>356</ele>
        <time>2016-12-18T11:04:03.000Z</time>
      </trkpt>
      <trkpt lat="47.51413" lon="6.77736">
        <ele>356</ele>
        <time>2016-12-18T11:04:04.000Z</time>
      </trkpt>
      <trkpt lat="47.51417" lon="6.77733">
        <ele>357</ele>
        <time>2016-12-18T11:04:06.000Z</time>
      </trkpt>
      <trkpt lat="47.51418" lon="6.77732">
        <ele>362</ele>
        <time>2016-12-18T11:04:07.000Z</time>
      </trkpt>
      <trkpt lat="47.51421" lon="6.77732">
        <ele>362</ele>
        <time>2016-12-18T11:04:08.000Z</time>
      </trkpt>
      <trkpt lat="47.51423" lon="6.77732">
        <ele>362</ele>
        <time>2016-12-18T11:04:09.000Z</time>
      </trkpt>
      <trkpt lat="47.51427" lon="6.77733">
        <ele>362</ele>
        <time>2016-12-18T11:04:11.000Z</time>
      </trkpt>
      <trkpt lat="47.51429" lon="6.77733">
        <ele>362</ele>
        <time>2016-12-18T11:04:12.000Z</time>
      </trkpt>
      <trkpt lat="47.51433" lon="6.77733">
        <ele>363</ele>
        <time>2016-12-18T11:04:15.000Z</time>
      </trkpt>
      <trkpt lat="47.51434" lon="6.77733">
        <ele>363</ele>
        <time>2016-12-18T11:04:16.000Z</time>
      </trkpt>
      <trkpt lat="47.51438" lon="6.77731">
        <ele>363</ele>
        <time>2016-12-18T11:04:19.000Z</time>
      </trkpt>
      <trkpt lat="47.5144" lon="6.7773">
        <ele>364</ele>
        <time>2016-12-18T11:04:20.000Z</time>
      </trkpt>
      <trkpt lat="47.51444" lon="6.77729">
        <ele>364</ele>
        <time>2016-12-18T11:04:22.000Z</time>
      </trkpt>
      <trkpt lat="47.51447" lon="6.77728">
        <ele>364</ele>
        <time>2016-12-18T11:04:23.000Z</time>
      </trkpt>
      <trkpt lat="47.51449" lon="6.77727">
        <ele>365</ele>
        <time>2016-12-18T11:04:24.000Z</time>
      </trkpt>
      <trkpt lat="47.51452" lon="6.77726">
        <ele>365</ele>
        <time>2016-12-18T11:04:25.000Z</time>
      </trkpt>
      <trkpt lat="47.51456" lon="6.77724">
        <ele>365</ele>
        <time>2016-12-18T11:04:27.000Z</time>
      </trkpt>
      <trkpt lat="47.51458" lon="6.77724">
        <ele>365</ele>
        <time>2016-12-18T11:04:28.000Z</time>
      </trkpt>
      <trkpt lat="47.51462" lon="6.77724">
        <ele>366</ele>
        <time>2016-12-18T11:04:30.000Z</time>
      </trkpt>
      <trkpt lat="47.51463" lon="6.77724">
        <ele>366</ele>
        <time>2016-12-18T11:04:31.000Z</time>
      </trkpt>
      <trkpt lat="47.51467" lon="6.77725">
        <ele>366</ele>
        <time>2016-12-18T11:04:34.000Z</time>
      </trkpt>
      <trkpt lat="47.5147" lon="6.77725">
        <ele>366</ele>
        <time>2016-12-18T11:04:35.000Z</time>
      </trkpt>
      <trkpt lat="47.51474" lon="6.77724">
        <ele>366</ele>
        <time>2016-12-18T11:04:37.000Z</time>
      </trkpt>
      <trkpt lat="47.51475" lon="6.77724">
        <ele>366</ele>
        <time>2016-12-18T11:04:38.000Z</time>
      </trkpt>
      <trkpt lat="47.51478" lon="6.77724">
        <ele>366</ele>
        <time>2016-12-18T11:04:40.000Z</time>
      </trkpt>
      <trkpt lat="47.5148" lon="6.77724">
        <ele>366</ele>
        <time>2016-12-18T11:04:41.000Z</time>
      </trkpt>
      <trkpt lat="47.51484" lon="6.77724">
        <ele>366</ele>
        <time>2016-12-18T11:04:43.000Z</time>
      </trkpt>
      <trkpt lat="47.51485" lon="6.77723">
        <ele>366</ele>
        <time>2016-12-18T11:04:44.000Z</time>
      </trkpt>
      <trkpt lat="47.51488" lon="6.77722">
        <ele>366</ele>
        <time>2016-12-18T11:04:47.000Z</time>
      </trkpt>
      <trkpt lat="47.5149" lon="6.77721">
        <ele>366</ele>
        <time>2016-12-18T11:04:48.000Z</time>
      </trkpt>
      <trkpt lat="47.51492" lon="6.77721">
        <ele>366</ele>
        <time>2016-12-18T11:04:49.000Z</time>
      </trkpt>
      <trkpt lat="47.51495" lon="6.7772">
        <ele>367</ele>
        <time>2016-12-18T11:04:50.000Z</time>
      </trkpt>
      <trkpt lat="47.51499" lon="6.77719">
        <ele>367</ele>
        <time>2016-12-18T11:04:52.000Z</time>
      </trkpt>
      <trkpt lat="47.515" lon="6.77719">
        <ele>367</ele>
        <time>2016-12-18T11:04:53.000Z</time>
      </trkpt>
      <trkpt lat="47.51504" lon="6.77718">
        <ele>371</ele>
        <time>2016-12-18T11:04:55.000Z</time>
      </trkpt>
      <trkpt lat="47.51505" lon="6.77717">
        <ele>371</ele>
        <time>2016-12-18T11:04:56.000Z</time>
      </trkpt>
      <trkpt lat="47.51508" lon="6.77717">
        <ele>371</ele>
        <time>2016-12-18T11:04:58.000Z</time>
      </trkpt>
      <trkpt lat="47.5151" lon="6.77718">
        <ele>371</ele>
        <time>2016-12-18T11:04:59.000Z</time>
      </trkpt>
      <trkpt lat="47.51512" lon="6.77718">
        <ele>372</ele>
        <time>2016-12-18T11:05:00.000Z</time>
      </trkpt>
      <trkpt lat="47.51515" lon="6.77719">
        <ele>372</ele>
        <time>2016-12-18T11:05:01.000Z</time>
      </trkpt>
      <trkpt lat="47.51517" lon="6.77719">
        <ele>372</ele>
        <time>2016-12-18T11:05:02.000Z</time>
      </trkpt>
      <trkpt lat="47.51519" lon="6.77719">
        <ele>372</ele>
        <time>2016-12-18T11:05:03.000Z</time>
      </trkpt>
      <trkpt lat="47.51523" lon="6.77719">
        <ele>372</ele>
        <time>2016-12-18T11:05:04.000Z</time>
      </trkpt>
      <trkpt lat="47.51525" lon="6.7772">
        <ele>372</ele>
        <time>2016-12-18T11:05:05.000Z</time>
      </trkpt>
      <trkpt lat="47.51528" lon="6.77721">
        <ele>372</ele>
        <time>2016-12-18T11:05:07.000Z</time>
      </trkpt>
      <trkpt lat="47.5153" lon="6.77721">
        <ele>372</ele>
        <time>2016-12-18T11:05:08.000Z</time>
      </trkpt>
      <trkpt lat="47.51533" lon="6.77721">
        <ele>373</ele>
        <time>2016-12-18T11:05:10.000Z</time>
      </trkpt>
      <trkpt lat="47.51535" lon="6.77721">
        <ele>373</ele>
        <time>2016-12-18T11:05:11.000Z</time>
      </trkpt>
      <trkpt lat="47.51539" lon="6.77721">
        <ele>373</ele>
        <time>2016-12-18T11:05:13.000Z</time>
      </trkpt>
      <trkpt lat="47.51541" lon="6.77721">
        <ele>373</ele>
        <time>2016-12-18T11:05:14.000Z</time>
      </trkpt>
      <trkpt lat="47.51544" lon="6.77722">
        <ele>373</ele>
        <time>2016-12-18T11:05:16.000Z</time>
      </trkpt>
      <trkpt lat="47.51546" lon="6.77723">
        <ele>373</ele>
        <time>2016-12-18T11:05:17.000Z</time>
      </trkpt>
      <trkpt lat="47.51548" lon="6.77724">
        <ele>374</ele>
        <time>2016-12-18T11:05:18.000Z</time>
      </trkpt>
      <trkpt lat="47.5155" lon="6.77725">
        <ele>374</ele>
        <time>2016-12-18T11:05:19.000Z</time>
      </trkpt>
      <trkpt lat="47.51555" lon="6.77725">
        <ele>374</ele>
        <time>2016-12-18T11:05:22.000Z</time>
      </trkpt>
      <trkpt lat="47.51557" lon="6.77726">
        <ele>374</ele>
        <time>2016-12-18T11:05:23.000Z</time>
      </trkpt>
      <trkpt lat="47.5156" lon="6.77726">
        <ele>374</ele>
        <time>2016-12-18T11:05:25.000Z</time>
      </trkpt>
      <trkpt lat="47.51561" lon="6.77727">
        <ele>374</ele>
        <time>2016-12-18T11:05:26.000Z</time>
      </trkpt>
      <trkpt lat="47.51564" lon="6.77728">
        <ele>374</ele>
        <time>2016-12-18T11:05:28.000Z</time>
      </trkpt>
      <trkpt lat="47.51566" lon="6.77729">
        <ele>375</ele>
        <time>2016-12-18T11:05:29.000Z</time>
      </trkpt>
      <trkpt lat="47.51568" lon="6.7773">
        <ele>375</ele>
        <time>2016-12-18T11:05:32.000Z</time>
      </trkpt>
      <trkpt lat="47.5157" lon="6.77731">
        <ele>375</ele>
        <time>2016-12-18T11:05:33.000Z</time>
      </trkpt>
      <trkpt lat="47.51574" lon="6.77733">
        <ele>375</ele>
        <time>2016-12-18T11:05:35.000Z</time>
      </trkpt>
      <trkpt lat="47.51575" lon="6.77734">
        <ele>375</ele>
        <time>2016-12-18T11:05:36.000Z</time>
      </trkpt>
      <trkpt lat="47.51578" lon="6.77735">
        <ele>375</ele>
        <time>2016-12-18T11:05:39.000Z</time>
      </trkpt>
      <trkpt lat="47.51579" lon="6.77736">
        <ele>375</ele>
        <time>2016-12-18T11:05:40.000Z</time>
      </trkpt>
      <trkpt lat="47.51582" lon="6.77738">
        <ele>375</ele>
        <time>2016-12-18T11:05:42.000Z</time>
      </trkpt>
      <trkpt lat="47.51585" lon="6.77739">
        <ele>378</ele>
        <time>2016-12-18T11:05:43.000Z</time>
      </trkpt>
      <trkpt lat="47.51588" lon="6.77741">
        <ele>378</ele>
        <time>2016-12-18T11:05:44.000Z</time>
      </trkpt>
      <trkpt lat="47.51592" lon="6.77743">
        <ele>378</ele>
        <time>2016-12-18T11:05:45.000Z</time>
      </trkpt>
      <trkpt lat="47.51596" lon="6.77744">
        <ele>378</ele>
        <time>2016-12-18T11:05:47.000Z</time>
      </trkpt>
      <trkpt lat="47.51597" lon="6.77744">
        <ele>379</ele>
        <time>2016-12-18T11:05:48.000Z</time>
      </trkpt>
      <trkpt lat="47.516" lon="6.77746">
        <ele>379</ele>
        <time>2016-12-18T11:05:50.000Z</time>
      </trkpt>
      <trkpt lat="47.51603" lon="6.77747">
        <ele>379</ele>
        <time>2016-12-18T11:05:51.000Z</time>
      </trkpt>
      <trkpt lat="47.51607" lon="6.77748">
        <ele>379</ele>
        <time>2016-12-18T11:05:54.000Z</time>
      </trkpt>
      <trkpt lat="47.51607" lon="6.77748">
        <ele>380</ele>
        <time>2016-12-18T11:05:55.000Z</time>
      </trkpt>
      <trkpt lat="47.51611" lon="6.7775">
        <ele>380</ele>
        <time>2016-12-18T11:05:59.000Z</time>
      </trkpt>
      <trkpt lat="47.51612" lon="6.7775">
        <ele>380</ele>
        <time>2016-12-18T11:06:00.000Z</time>
      </trkpt>
      <trkpt lat="47.51616" lon="6.77749">
        <ele>380</ele>
        <time>2016-12-18T11:06:03.000Z</time>
      </trkpt>
      <trkpt lat="47.51617" lon="6.77749">
        <ele>380</ele>
        <time>2016-12-18T11:06:04.000Z</time>
      </trkpt>
      <trkpt lat="47.51621" lon="6.7775">
        <ele>381</ele>
        <time>2016-12-18T11:06:09.000Z</time>
      </trkpt>
      <trkpt lat="47.51622" lon="6.77749">
        <ele>381</ele>
        <time>2016-12-18T11:06:10.000Z</time>
      </trkpt>
      <trkpt lat="47.51625" lon="6.77748">
        <ele>381</ele>
        <time>2016-12-18T11:06:11.000Z</time>
      </trkpt>
      <trkpt lat="47.51627" lon="6.77747">
        <ele>381</ele>
        <time>2016-12-18T11:06:12.000Z</time>
      </trkpt>
      <trkpt lat="47.51629" lon="6.77747">
        <ele>381</ele>
        <time>2016-12-18T11:06:13.000Z</time>
      </trkpt>
      <trkpt lat="47.51632" lon="6.77748">
        <ele>381</ele>
        <time>2016-12-18T11:06:14.000Z</time>
      </trkpt>
      <trkpt lat="47.51634" lon="6.77748">
        <ele>381</ele>
        <time>2016-12-18T11:06:15.000Z</time>
      </trkpt>
      <trkpt lat="47.51637" lon="6.77748">
        <ele>382</ele>
        <time>2016-12-18T11:06:16.000Z</time>
      </trkpt>
      <trkpt lat="47.51642" lon="6.77748">
        <ele>382</ele>
        <time>2016-12-18T11:06:18.000Z</time>
      </trkpt>
      <trkpt lat="47.51644" lon="6.77748">
        <ele>382</ele>
        <time>2016-12-18T11:06:19.000Z</time>
      </trkpt>
      <trkpt lat="47.51647" lon="6.77749">
        <ele>382</ele>
        <time>2016-12-18T11:06:20.000Z</time>
      </trkpt>
      <trkpt lat="47.51648" lon="6.77748">
        <ele>382</ele>
        <time>2016-12-18T11:06:21.000Z</time>
      </trkpt>
      <trkpt lat="47.51651" lon="6.77748">
        <ele>382</ele>
        <time>2016-12-18T11:06:23.000Z</time>
      </trkpt>
      <trkpt lat="47.51653" lon="6.77748">
        <ele>382</ele>
        <time>2016-12-18T11:06:24.000Z</time>
      </trkpt>
      <trkpt lat="47.51657" lon="6.77749">
        <ele>383</ele>
        <time>2016-12-18T11:06:27.000Z</time>
      </trkpt>
      <trkpt lat="47.5166" lon="6.77749">
        <ele>383</ele>
        <time>2016-12-18T11:06:28.000Z</time>
      </trkpt>
      <trkpt lat="47.51663" lon="6.77751">
        <ele>383</ele>
        <time>2016-12-18T11:06:30.000Z</time>
      </trkpt>
      <trkpt lat="47.51665" lon="6.77751">
        <ele>383</ele>
        <time>2016-12-18T11:06:31.000Z</time>
      </trkpt>
      <trkpt lat="47.51668" lon="6.7775">
        <ele>383</ele>
        <time>2016-12-18T11:06:33.000Z</time>
      </trkpt>
      <trkpt lat="47.51669" lon="6.7775">
        <ele>383</ele>
        <time>2016-12-18T11:06:34.000Z</time>
      </trkpt>
      <trkpt lat="47.51673" lon="6.77751">
        <ele>384</ele>
        <time>2016-12-18T11:06:36.000Z</time>
      </trkpt>
      <trkpt lat="47.51674" lon="6.77751">
        <ele>384</ele>
        <time>2016-12-18T11:06:37.000Z</time>
      </trkpt>
      <trkpt lat="47.51679" lon="6.77751">
        <ele>384</ele>
        <time>2016-12-18T11:06:39.000Z</time>
      </trkpt>
      <trkpt lat="47.51681" lon="6.77751">
        <ele>384</ele>
        <time>2016-12-18T11:06:40.000Z</time>
      </trkpt>
      <trkpt lat="47.51683" lon="6.77752">
        <ele>385</ele>
        <time>2016-12-18T11:06:41.000Z</time>
      </trkpt>
      <trkpt lat="47.51685" lon="6.77752">
        <ele>385</ele>
        <time>2016-12-18T11:06:42.000Z</time>
      </trkpt>
      <trkpt lat="47.51689" lon="6.77753">
        <ele>385</ele>
        <time>2016-12-18T11:06:44.000Z</time>
      </trkpt>
      <trkpt lat="47.51691" lon="6.77753">
        <ele>385</ele>
        <time>2016-12-18T11:06:45.000Z</time>
      </trkpt>
      <trkpt lat="47.51694" lon="6.77754">
        <ele>385</ele>
        <time>2016-12-18T11:06:48.000Z</time>
      </trkpt>
      <trkpt lat="47.51696" lon="6.77753">
        <ele>385</ele>
        <time>2016-12-18T11:06:49.000Z</time>
      </trkpt>
      <trkpt lat="47.51698" lon="6.77752">
        <ele>385</ele>
        <time>2016-12-18T11:06:50.000Z</time>
      </trkpt>
      <trkpt lat="47.517" lon="6.7775">
        <ele>386</ele>
        <time>2016-12-18T11:06:51.000Z</time>
      </trkpt>
      <trkpt lat="47.51703" lon="6.77745">
        <ele>387</ele>
        <time>2016-12-18T11:06:53.000Z</time>
      </trkpt>
      <trkpt lat="47.51704" lon="6.77743">
        <ele>387</ele>
        <time>2016-12-18T11:06:54.000Z</time>
      </trkpt>
      <trkpt lat="47.51705" lon="6.77738">
        <ele>387</ele>
        <time>2016-12-18T11:06:57.000Z</time>
      </trkpt>
      <trkpt lat="47.51706" lon="6.77736">
        <ele>387</ele>
        <time>2016-12-18T11:06:58.000Z</time>
      </trkpt>
      <trkpt lat="47.51706" lon="6.77731">
        <ele>387</ele>
        <time>2016-12-18T11:07:00.000Z</time>
      </trkpt>
      <trkpt lat="47.51706" lon="6.77726">
        <ele>387</ele>
        <time>2016-12-18T11:07:01.000Z</time>
      </trkpt>
      <trkpt lat="47.51705" lon="6.77721">
        <ele>387</ele>
        <time>2016-12-18T11:07:03.000Z</time>
      </trkpt>
      <trkpt lat="47.51705" lon="6.77719">
        <ele>387</ele>
        <time>2016-12-18T11:07:04.000Z</time>
      </trkpt>
      <trkpt lat="47.51704" lon="6.77713">
        <ele>387</ele>
        <time>2016-12-18T11:07:07.000Z</time>
      </trkpt>
      <trkpt lat="47.51704" lon="6.77711">
        <ele>387</ele>
        <time>2016-12-18T11:07:08.000Z</time>
      </trkpt>
      <trkpt lat="47.51705" lon="6.77704">
        <ele>387</ele>
        <time>2016-12-18T11:07:11.000Z</time>
      </trkpt>
      <trkpt lat="47.51706" lon="6.77702">
        <ele>388</ele>
        <time>2016-12-18T11:07:12.000Z</time>
      </trkpt>
      <trkpt lat="47.51706" lon="6.77696">
        <ele>388</ele>
        <time>2016-12-18T11:07:14.000Z</time>
      </trkpt>
      <trkpt lat="47.51707" lon="6.77694">
        <ele>388</ele>
        <time>2016-12-18T11:07:15.000Z</time>
      </trkpt>
      <trkpt lat="47.51708" lon="6.77687">
        <ele>388</ele>
        <time>2016-12-18T11:07:18.000Z</time>
      </trkpt>
      <trkpt lat="47.51708" lon="6.77685">
        <ele>388</ele>
        <time>2016-12-18T11:07:19.000Z</time>
      </trkpt>
      <trkpt lat="47.51708" lon="6.77678">
        <ele>388</ele>
        <time>2016-12-18T11:07:21.000Z</time>
      </trkpt>
      <trkpt lat="47.51709" lon="6.77675">
        <ele>388</ele>
        <time>2016-12-18T11:07:22.000Z</time>
      </trkpt>
      <trkpt lat="47.51708" lon="6.77669">
        <ele>388</ele>
        <time>2016-12-18T11:07:24.000Z</time>
      </trkpt>
      <trkpt lat="47.51708" lon="6.77667">
        <ele>389</ele>
        <time>2016-12-18T11:07:25.000Z</time>
      </trkpt>
      <trkpt lat="47.51709" lon="6.77661">
        <ele>390</ele>
        <time>2016-12-18T11:07:27.000Z</time>
      </trkpt>
      <trkpt lat="47.5171" lon="6.77656">
        <ele>390</ele>
        <time>2016-12-18T11:07:28.000Z</time>
      </trkpt>
      <trkpt lat="47.5171" lon="6.77652">
        <ele>390</ele>
        <time>2016-12-18T11:07:29.000Z</time>
      </trkpt>
      <trkpt lat="47.5171" lon="6.77648">
        <ele>390</ele>
        <time>2016-12-18T11:07:30.000Z</time>
      </trkpt>
      <trkpt lat="47.51711" lon="6.77642">
        <ele>390</ele>
        <time>2016-12-18T11:07:32.000Z</time>
      </trkpt>
      <trkpt lat="47.51711" lon="6.7764">
        <ele>390</ele>
        <time>2016-12-18T11:07:33.000Z</time>
      </trkpt>
      <trkpt lat="47.5171" lon="6.77633">
        <ele>390</ele>
        <time>2016-12-18T11:07:35.000Z</time>
      </trkpt>
      <trkpt lat="47.51711" lon="6.7763">
        <ele>390</ele>
        <time>2016-12-18T11:07:36.000Z</time>
      </trkpt>
      <trkpt lat="47.51711" lon="6.77627">
        <ele>390</ele>
        <time>2016-12-18T11:07:37.000Z</time>
      </trkpt>
      <trkpt lat="47.51711" lon="6.77624">
        <ele>390</ele>
        <time>2016-12-18T11:07:38.000Z</time>
      </trkpt>
      <trkpt lat="47.51711" lon="6.77619">
        <ele>390</ele>
        <time>2016-12-18T11:07:40.000Z</time>
      </trkpt>
      <trkpt lat="47.5171" lon="6.77615">
        <ele>390</ele>
        <time>2016-12-18T11:07:41.000Z</time>
      </trkpt>
      <trkpt lat="47.51711" lon="6.77609">
        <ele>390</ele>
        <time>2016-12-18T11:07:43.000Z</time>
      </trkpt>
      <trkpt lat="47.51711" lon="6.77606">
        <ele>390</ele>
        <time>2016-12-18T11:07:44.000Z</time>
      </trkpt>
      <trkpt lat="47.51711" lon="6.77601">
        <ele>390</ele>
        <time>2016-12-18T11:07:46.000Z</time>
      </trkpt>
      <trkpt lat="47.51711" lon="6.77598">
        <ele>390</ele>
        <time>2016-12-18T11:07:47.000Z</time>
      </trkpt>
      <trkpt lat="47.51711" lon="6.77592">
        <ele>390</ele>
        <time>2016-12-18T11:07:49.000Z</time>
      </trkpt>
      <trkpt lat="47.51712" lon="6.77588">
        <ele>390</ele>
        <time>2016-12-18T11:07:50.000Z</time>
      </trkpt>
      <trkpt lat="47.51713" lon="6.77582">
        <ele>390</ele>
        <time>2016-12-18T11:07:52.000Z</time>
      </trkpt>
      <trkpt lat="47.51713" lon="6.77579">
        <ele>390</ele>
        <time>2016-12-18T11:07:53.000Z</time>
      </trkpt>
      <trkpt lat="47.51714" lon="6.77576">
        <ele>390</ele>
        <time>2016-12-18T11:07:54.000Z</time>
      </trkpt>
      <trkpt lat="47.51715" lon="6.77572">
        <ele>390</ele>
        <time>2016-12-18T11:07:55.000Z</time>
      </trkpt>
      <trkpt lat="47.51716" lon="6.77566">
        <ele>390</ele>
        <time>2016-12-18T11:07:57.000Z</time>
      </trkpt>
      <trkpt lat="47.51717" lon="6.77562">
        <ele>390</ele>
        <time>2016-12-18T11:07:58.000Z</time>
      </trkpt>
      <trkpt lat="47.51717" lon="6.77559">
        <ele>390</ele>
        <time>2016-12-18T11:07:59.000Z</time>
      </trkpt>
      <trkpt lat="47.51718" lon="6.77554">
        <ele>390</ele>
        <time>2016-12-18T11:08:00.000Z</time>
      </trkpt>
      <trkpt lat="47.51719" lon="6.77548">
        <ele>390</ele>
        <time>2016-12-18T11:08:01.000Z</time>
      </trkpt>
      <trkpt lat="47.5172" lon="6.77542">
        <ele>390</ele>
        <time>2016-12-18T11:08:02.000Z</time>
      </trkpt>
      <trkpt lat="47.51721" lon="6.77536">
        <ele>390</ele>
        <time>2016-12-18T11:08:03.000Z</time>
      </trkpt>
      <trkpt lat="47.51722" lon="6.7753">
        <ele>390</ele>
        <time>2016-12-18T11:08:04.000Z</time>
      </trkpt>
      <trkpt lat="47.51724" lon="6.77525">
        <ele>390</ele>
        <time>2016-12-18T11:08:05.000Z</time>
      </trkpt>
      <trkpt lat="47.51725" lon="6.77519">
        <ele>390</ele>
        <time>2016-12-18T11:08:06.000Z</time>
      </trkpt>
      <trkpt lat="47.51726" lon="6.77514">
        <ele>390</ele>
        <time>2016-12-18T11:08:07.000Z</time>
      </trkpt>
      <trkpt lat="47.51727" lon="6.77509">
        <ele>390</ele>
        <time>2016-12-18T11:08:08.000Z</time>
      </trkpt>
      <trkpt lat="47.51728" lon="6.77504">
        <ele>390</ele>
        <time>2016-12-18T11:08:09.000Z</time>
      </trkpt>
      <trkpt lat="47.51729" lon="6.77499">
        <ele>389</ele>
        <time>2016-12-18T11:08:10.000Z</time>
      </trkpt>
      <trkpt lat="47.5173" lon="6.77494">
        <ele>389</ele>
        <time>2016-12-18T11:08:11.000Z</time>
      </trkpt>
      <trkpt lat="47.51731" lon="6.77489">
        <ele>389</ele>
        <time>2016-12-18T11:08:12.000Z</time>
      </trkpt>
      <trkpt lat="47.51733" lon="6.77485">
        <ele>389</ele>
        <time>2016-12-18T11:08:13.000Z</time>
      </trkpt>
      <trkpt lat="47.51735" lon="6.77483">
        <ele>389</ele>
        <time>2016-12-18T11:08:14.000Z</time>
      </trkpt>
      <trkpt lat="47.51738" lon="6.77481">
        <ele>389</ele>
        <time>2016-12-18T11:08:15.000Z</time>
      </trkpt>
      <trkpt lat="47.51741" lon="6.77481">
        <ele>389</ele>
        <time>2016-12-18T11:08:16.000Z</time>
      </trkpt>
      <trkpt lat="47.51745" lon="6.77481">
        <ele>389</ele>
        <time>2016-12-18T11:08:17.000Z</time>
      </trkpt>
      <trkpt lat="47.51749" lon="6.77481">
        <ele>389</ele>
        <time>2016-12-18T11:08:18.000Z</time>
      </trkpt>
      <trkpt lat="47.51753" lon="6.77482">
        <ele>389</ele>
        <time>2016-12-18T11:08:19.000Z</time>
      </trkpt>
      <trkpt lat="47.51756" lon="6.77483">
        <ele>389</ele>
        <time>2016-12-18T11:08:20.000Z</time>
      </trkpt>
      <trkpt lat="47.5176" lon="6.77483">
        <ele>389</ele>
        <time>2016-12-18T11:08:21.000Z</time>
      </trkpt>
      <trkpt lat="47.51764" lon="6.77484">
        <ele>389</ele>
        <time>2016-12-18T11:08:22.000Z</time>
      </trkpt>
      <trkpt lat="47.51767" lon="6.77485">
        <ele>389</ele>
        <time>2016-12-18T11:08:23.000Z</time>
      </trkpt>
      <trkpt lat="47.5177" lon="6.77486">
        <ele>389</ele>
        <time>2016-12-18T11:08:24.000Z</time>
      </trkpt>
      <trkpt lat="47.51772" lon="6.77487">
        <ele>389</ele>
        <time>2016-12-18T11:08:25.000Z</time>
      </trkpt>
      <trkpt lat="47.51776" lon="6.77489">
        <ele>388</ele>
        <time>2016-12-18T11:08:26.000Z</time>
      </trkpt>
      <trkpt lat="47.5178" lon="6.77491">
        <ele>388</ele>
        <time>2016-12-18T11:08:27.000Z</time>
      </trkpt>
      <trkpt lat="47.51785" lon="6.77492">
        <ele>388</ele>
        <time>2016-12-18T11:08:28.000Z</time>
      </trkpt>
      <trkpt lat="47.5179" lon="6.77494">
        <ele>388</ele>
        <time>2016-12-18T11:08:29.000Z</time>
      </trkpt>
      <trkpt lat="47.51794" lon="6.77495">
        <ele>388</ele>
        <time>2016-12-18T11:08:30.000Z</time>
      </trkpt>
      <trkpt lat="47.51799" lon="6.77497">
        <ele>388</ele>
        <time>2016-12-18T11:08:31.000Z</time>
      </trkpt>
      <trkpt lat="47.51803" lon="6.77497">
        <ele>388</ele>
        <time>2016-12-18T11:08:32.000Z</time>
      </trkpt>
      <trkpt lat="47.51807" lon="6.77496">
        <ele>388</ele>
        <time>2016-12-18T11:08:33.000Z</time>
      </trkpt>
      <trkpt lat="47.51809" lon="6.77493">
        <ele>388</ele>
        <time>2016-12-18T11:08:34.000Z</time>
      </trkpt>
      <trkpt lat="47.5181" lon="6.7749">
        <ele>388</ele>
        <time>2016-12-18T11:08:35.000Z</time>
      </trkpt>
      <trkpt lat="47.51807" lon="6.77488">
        <ele>388</ele>
        <time>2016-12-18T11:08:37.000Z</time>
      </trkpt>
      <trkpt lat="47.51806" lon="6.77485">
        <ele>388</ele>
        <time>2016-12-18T11:08:38.000Z</time>
      </trkpt>
      <trkpt lat="47.51803" lon="6.7748">
        <ele>388</ele>
        <time>2016-12-18T11:08:44.000Z</time>
      </trkpt>
      <trkpt lat="47.51803" lon="6.77479">
        <ele>388</ele>
        <time>2016-12-18T11:08:45.000Z</time>
      </trkpt>
      <trkpt lat="47.51807" lon="6.7748">
        <ele>388</ele>
        <time>2016-12-18T11:09:09.000Z</time>
      </trkpt>
      <trkpt lat="47.51808" lon="6.7748">
        <ele>388</ele>
        <time>2016-12-18T11:09:10.000Z</time>
      </trkpt>
      <trkpt lat="47.51804" lon="6.77483">
        <ele>388</ele>
        <time>2016-12-18T11:10:04.000Z</time>
      </trkpt>
      <trkpt lat="47.51803" lon="6.77483">
        <ele>388</ele>
        <time>2016-12-18T11:10:05.000Z</time>
      </trkpt>
      <trkpt lat="47.518" lon="6.77478">
        <ele>388</ele>
        <time>2016-12-18T11:10:30.000Z</time>
      </trkpt>
      <trkpt lat="47.518" lon="6.77478">
        <ele>388</ele>
        <time>2016-12-18T11:10:31.000Z</time>
      </trkpt>
      <trkpt lat="47.51799" lon="6.77472">
        <ele>388</ele>
        <time>2016-12-18T11:10:38.000Z</time>
      </trkpt>
      <trkpt lat="47.51799" lon="6.77471">
        <ele>388</ele>
        <time>2016-12-18T11:10:39.000Z</time>
      </trkpt>
      <trkpt lat="47.51803" lon="6.77469">
        <ele>388</ele>
        <time>2016-12-18T11:10:49.000Z</time>
      </trkpt>
      <trkpt lat="47.51804" lon="6.77469">
        <ele>388</ele>
        <time>2016-12-18T11:10:50.000Z</time>
      </trkpt>
      <trkpt lat="47.51803" lon="6.77473">
        <ele>388</ele>
        <time>2016-12-18T11:12:36.000Z</time>
      </trkpt>
      <trkpt lat="47.51802" lon="6.77476">
        <ele>388</ele>
        <time>2016-12-18T11:12:37.000Z</time>
      </trkpt>
      <trkpt lat="47.51806" lon="6.77477">
        <ele>388</ele>
        <time>2016-12-18T11:18:43.000Z</time>
      </trkpt>
      <trkpt lat="47.51807" lon="6.77478">
        <ele>388</ele>
        <time>2016-12-18T11:18:44.000Z</time>
      </trkpt>
      <trkpt lat="47.51804" lon="6.77483">
        <ele>388</ele>
        <time>2016-12-18T11:21:04.000Z</time>
      </trkpt>
      <trkpt lat="47.51804" lon="6.77484">
        <ele>388</ele>
        <time>2016-12-18T11:21:05.000Z</time>
      </trkpt>
      <trkpt lat="47.51806" lon="6.7748">
        <ele>388</ele>
        <time>2016-12-18T11:23:05.000Z</time>
      </trkpt>
      <trkpt lat="47.5181" lon="6.77483">
        <ele>388</ele>
        <time>2016-12-18T11:23:06.000Z</time>
      </trkpt>
      <trkpt lat="47.5181" lon="6.77482">
        <ele>388</ele>
        <time>2016-12-18T11:23:29.000Z</time>
      </trkpt>
    </trkseg>
  </trk>
</gpx>